<?xml version="1.0" encoding="UTF-8" standalone="no" ?>
<gpx xmlns="http://www.topografix.com/GPX/1/1" xmlns:xsi="http://www.w3.org/2001/XMLSchema-instance" xsi:schemaLocation="http://www.topografix.com/GPX/1/1 http://www.topografix.com/GPX/1/1/gpx.xsd" version="1.1" creator="VisuGPX - https://www.visugpx.com">
  <metadata>
    <name>2021-06-12 08:43:58 [Garmin]</name>
  </metadata>
  <trk>
    <name><![CDATA[2021-06-12 08:43:58 [Garmin]_1]]></name>
    <trkseg>
      <trkpt lat="44.12022" lon="5.22492">
        <ele>429.4</ele>
        <time>2021-06-12T06:43:58Z</time>
      </trkpt>
      <trkpt lat="44.12029" lon="5.2248">
        <ele>429.2</ele>
        <time>2021-06-12T06:44:06Z</time>
      </trkpt>
      <trkpt lat="44.1203" lon="5.22478">
        <ele>429.2</ele>
        <time>2021-06-12T06:44:08Z</time>
      </trkpt>
      <trkpt lat="44.12038" lon="5.22458">
        <ele>429.2</ele>
        <time>2021-06-12T06:44:25Z</time>
      </trkpt>
      <trkpt lat="44.12042" lon="5.22449">
        <ele>429.6</ele>
        <time>2021-06-12T06:45:01Z</time>
      </trkpt>
      <trkpt lat="44.12047" lon="5.2244">
        <ele>430.2</ele>
        <time>2021-06-12T06:45:09Z</time>
      </trkpt>
      <trkpt lat="44.12046" lon="5.22425">
        <ele>429.6</ele>
        <time>2021-06-12T06:45:18Z</time>
      </trkpt>
      <trkpt lat="44.12045" lon="5.22413">
        <ele>429.2</ele>
        <time>2021-06-12T06:45:25Z</time>
      </trkpt>
      <trkpt lat="44.12046" lon="5.22407">
        <ele>428.8</ele>
        <time>2021-06-12T06:45:29Z</time>
      </trkpt>
      <trkpt lat="44.12045" lon="5.22396">
        <ele>428.4</ele>
        <time>2021-06-12T06:45:34Z</time>
      </trkpt>
      <trkpt lat="44.1204" lon="5.22377">
        <ele>427.2</ele>
        <time>2021-06-12T06:45:44Z</time>
      </trkpt>
      <trkpt lat="44.12038" lon="5.2236">
        <ele>426.2</ele>
        <time>2021-06-12T06:45:53Z</time>
      </trkpt>
      <trkpt lat="44.12036" lon="5.22347">
        <ele>425.6</ele>
        <time>2021-06-12T06:46:00Z</time>
      </trkpt>
      <trkpt lat="44.12038" lon="5.22334">
        <ele>425.2</ele>
        <time>2021-06-12T06:46:07Z</time>
      </trkpt>
      <trkpt lat="44.12036" lon="5.22313">
        <ele>424.2</ele>
        <time>2021-06-12T06:46:16Z</time>
      </trkpt>
      <trkpt lat="44.12038" lon="5.22311">
        <ele>424</ele>
        <time>2021-06-12T06:46:18Z</time>
      </trkpt>
      <trkpt lat="44.12056" lon="5.22311">
        <ele>424.4</ele>
        <time>2021-06-12T06:46:32Z</time>
      </trkpt>
      <trkpt lat="44.12066" lon="5.22313">
        <ele>425.2</ele>
        <time>2021-06-12T06:46:42Z</time>
      </trkpt>
      <trkpt lat="44.12068" lon="5.22313">
        <ele>425.2</ele>
        <time>2021-06-12T06:46:44Z</time>
      </trkpt>
      <trkpt lat="44.12082" lon="5.22314">
        <ele>426.2</ele>
        <time>2021-06-12T06:46:55Z</time>
      </trkpt>
      <trkpt lat="44.12098" lon="5.22314">
        <ele>427.2</ele>
        <time>2021-06-12T06:47:06Z</time>
      </trkpt>
      <trkpt lat="44.12111" lon="5.22315">
        <ele>428.4</ele>
        <time>2021-06-12T06:47:16Z</time>
      </trkpt>
      <trkpt lat="44.12131" lon="5.22316">
        <ele>429.4</ele>
        <time>2021-06-12T06:47:31Z</time>
      </trkpt>
      <trkpt lat="44.12149" lon="5.2232">
        <ele>430.4</ele>
        <time>2021-06-12T06:47:45Z</time>
      </trkpt>
      <trkpt lat="44.12162" lon="5.22332">
        <ele>431.4</ele>
        <time>2021-06-12T06:47:57Z</time>
      </trkpt>
      <trkpt lat="44.12174" lon="5.22342">
        <ele>432.4</ele>
        <time>2021-06-12T06:48:07Z</time>
      </trkpt>
      <trkpt lat="44.12182" lon="5.22348">
        <ele>433.6</ele>
        <time>2021-06-12T06:48:15Z</time>
      </trkpt>
      <trkpt lat="44.12186" lon="5.2235">
        <ele>433.8</ele>
        <time>2021-06-12T06:48:19Z</time>
      </trkpt>
      <trkpt lat="44.12187" lon="5.22349">
        <ele>434</ele>
        <time>2021-06-12T06:48:21Z</time>
      </trkpt>
      <trkpt lat="44.12194" lon="5.22341">
        <ele>434.6</ele>
        <time>2021-06-12T06:48:28Z</time>
      </trkpt>
      <trkpt lat="44.12212" lon="5.22336">
        <ele>435</ele>
        <time>2021-06-12T06:48:43Z</time>
      </trkpt>
      <trkpt lat="44.12223" lon="5.22334">
        <ele>435.2</ele>
        <time>2021-06-12T06:48:51Z</time>
      </trkpt>
      <trkpt lat="44.12224" lon="5.22333">
        <ele>435</ele>
        <time>2021-06-12T06:48:54Z</time>
      </trkpt>
      <trkpt lat="44.12231" lon="5.22333">
        <ele>435.2</ele>
        <time>2021-06-12T06:49:04Z</time>
      </trkpt>
      <trkpt lat="44.12249" lon="5.22331">
        <ele>435.6</ele>
        <time>2021-06-12T06:49:19Z</time>
      </trkpt>
      <trkpt lat="44.12251" lon="5.22331">
        <ele>435.6</ele>
        <time>2021-06-12T06:49:20Z</time>
      </trkpt>
      <trkpt lat="44.1226" lon="5.22332">
        <ele>435.8</ele>
        <time>2021-06-12T06:49:28Z</time>
      </trkpt>
      <trkpt lat="44.12265" lon="5.22339">
        <ele>436.6</ele>
        <time>2021-06-12T06:49:35Z</time>
      </trkpt>
      <trkpt lat="44.12269" lon="5.2235">
        <ele>437.6</ele>
        <time>2021-06-12T06:49:42Z</time>
      </trkpt>
      <trkpt lat="44.1227" lon="5.22351">
        <ele>437.8</ele>
        <time>2021-06-12T06:49:43Z</time>
      </trkpt>
      <trkpt lat="44.12272" lon="5.22353">
        <ele>438.2</ele>
        <time>2021-06-12T06:49:45Z</time>
      </trkpt>
      <trkpt lat="44.12272" lon="5.22354">
        <ele>438.2</ele>
        <time>2021-06-12T06:49:47Z</time>
      </trkpt>
      <trkpt lat="44.12276" lon="5.2236">
        <ele>438.4</ele>
        <time>2021-06-12T06:49:54Z</time>
      </trkpt>
      <trkpt lat="44.12278" lon="5.22364">
        <ele>438.8</ele>
        <time>2021-06-12T06:49:57Z</time>
      </trkpt>
      <trkpt lat="44.12284" lon="5.22382">
        <ele>440</ele>
        <time>2021-06-12T06:50:05Z</time>
      </trkpt>
      <trkpt lat="44.12288" lon="5.22389">
        <ele>441</ele>
        <time>2021-06-12T06:50:10Z</time>
      </trkpt>
      <trkpt lat="44.12297" lon="5.22409">
        <ele>442</ele>
        <time>2021-06-12T06:50:20Z</time>
      </trkpt>
      <trkpt lat="44.12301" lon="5.22412">
        <ele>443</ele>
        <time>2021-06-12T06:50:25Z</time>
      </trkpt>
      <trkpt lat="44.12301" lon="5.22414">
        <ele>443.2</ele>
        <time>2021-06-12T06:50:26Z</time>
      </trkpt>
      <trkpt lat="44.12308" lon="5.22426">
        <ele>444.2</ele>
        <time>2021-06-12T06:50:33Z</time>
      </trkpt>
      <trkpt lat="44.12309" lon="5.22427">
        <ele>444.4</ele>
        <time>2021-06-12T06:50:34Z</time>
      </trkpt>
      <trkpt lat="44.12312" lon="5.22434">
        <ele>445</ele>
        <time>2021-06-12T06:50:38Z</time>
      </trkpt>
      <trkpt lat="44.12314" lon="5.22437">
        <ele>445.2</ele>
        <time>2021-06-12T06:50:40Z</time>
      </trkpt>
      <trkpt lat="44.1232" lon="5.2245">
        <ele>446.4</ele>
        <time>2021-06-12T06:50:48Z</time>
      </trkpt>
      <trkpt lat="44.12323" lon="5.2246">
        <ele>447.6</ele>
        <time>2021-06-12T06:50:53Z</time>
      </trkpt>
      <trkpt lat="44.12325" lon="5.22462">
        <ele>448</ele>
        <time>2021-06-12T06:50:55Z</time>
      </trkpt>
      <trkpt lat="44.12328" lon="5.22467">
        <ele>448.2</ele>
        <time>2021-06-12T06:50:58Z</time>
      </trkpt>
      <trkpt lat="44.12334" lon="5.22479">
        <ele>448.6</ele>
        <time>2021-06-12T06:51:05Z</time>
      </trkpt>
      <trkpt lat="44.12334" lon="5.2248">
        <ele>448.8</ele>
        <time>2021-06-12T06:51:06Z</time>
      </trkpt>
      <trkpt lat="44.12339" lon="5.22486">
        <ele>449.2</ele>
        <time>2021-06-12T06:51:11Z</time>
      </trkpt>
      <trkpt lat="44.12341" lon="5.2249">
        <ele>449.8</ele>
        <time>2021-06-12T06:51:14Z</time>
      </trkpt>
      <trkpt lat="44.1235" lon="5.22505">
        <ele>450.8</ele>
        <time>2021-06-12T06:51:24Z</time>
      </trkpt>
      <trkpt lat="44.12352" lon="5.2251">
        <ele>451.4</ele>
        <time>2021-06-12T06:51:29Z</time>
      </trkpt>
      <trkpt lat="44.12353" lon="5.22514">
        <ele>451.8</ele>
        <time>2021-06-12T06:51:32Z</time>
      </trkpt>
      <trkpt lat="44.12359" lon="5.22524">
        <ele>453</ele>
        <time>2021-06-12T06:51:40Z</time>
      </trkpt>
      <trkpt lat="44.12368" lon="5.22534">
        <ele>454.2</ele>
        <time>2021-06-12T06:51:46Z</time>
      </trkpt>
      <trkpt lat="44.12371" lon="5.22539">
        <ele>454.6</ele>
        <time>2021-06-12T06:51:49Z</time>
      </trkpt>
      <trkpt lat="44.12372" lon="5.22543">
        <ele>455</ele>
        <time>2021-06-12T06:51:51Z</time>
      </trkpt>
      <trkpt lat="44.12373" lon="5.22547">
        <ele>455.2</ele>
        <time>2021-06-12T06:51:53Z</time>
      </trkpt>
      <trkpt lat="44.12373" lon="5.22549">
        <ele>455.4</ele>
        <time>2021-06-12T06:51:54Z</time>
      </trkpt>
      <trkpt lat="44.12376" lon="5.2256">
        <ele>456.4</ele>
        <time>2021-06-12T06:52:01Z</time>
      </trkpt>
      <trkpt lat="44.12382" lon="5.22578">
        <ele>457.4</ele>
        <time>2021-06-12T06:52:11Z</time>
      </trkpt>
      <trkpt lat="44.12389" lon="5.22592">
        <ele>458.4</ele>
        <time>2021-06-12T06:52:18Z</time>
      </trkpt>
      <trkpt lat="44.12394" lon="5.22599">
        <ele>459.4</ele>
        <time>2021-06-12T06:52:24Z</time>
      </trkpt>
      <trkpt lat="44.12403" lon="5.22614">
        <ele>460.4</ele>
        <time>2021-06-12T06:52:33Z</time>
      </trkpt>
      <trkpt lat="44.12412" lon="5.22628">
        <ele>461.6</ele>
        <time>2021-06-12T06:52:43Z</time>
      </trkpt>
      <trkpt lat="44.12419" lon="5.2264">
        <ele>462.6</ele>
        <time>2021-06-12T06:52:51Z</time>
      </trkpt>
      <trkpt lat="44.12426" lon="5.22651">
        <ele>463.6</ele>
        <time>2021-06-12T06:52:58Z</time>
      </trkpt>
      <trkpt lat="44.12435" lon="5.22663">
        <ele>464.8</ele>
        <time>2021-06-12T06:53:06Z</time>
      </trkpt>
      <trkpt lat="44.12443" lon="5.22677">
        <ele>465.8</ele>
        <time>2021-06-12T06:53:15Z</time>
      </trkpt>
      <trkpt lat="44.1245" lon="5.22689">
        <ele>466.8</ele>
        <time>2021-06-12T06:53:22Z</time>
      </trkpt>
      <trkpt lat="44.12455" lon="5.22703">
        <ele>468</ele>
        <time>2021-06-12T06:53:30Z</time>
      </trkpt>
      <trkpt lat="44.12459" lon="5.22719">
        <ele>469</ele>
        <time>2021-06-12T06:53:39Z</time>
      </trkpt>
      <trkpt lat="44.12462" lon="5.22723">
        <ele>469.4</ele>
        <time>2021-06-12T06:53:42Z</time>
      </trkpt>
      <trkpt lat="44.12465" lon="5.22732">
        <ele>470</ele>
        <time>2021-06-12T06:53:48Z</time>
      </trkpt>
      <trkpt lat="44.12466" lon="5.22736">
        <ele>470.4</ele>
        <time>2021-06-12T06:53:50Z</time>
      </trkpt>
      <trkpt lat="44.12469" lon="5.22746">
        <ele>471.2</ele>
        <time>2021-06-12T06:53:56Z</time>
      </trkpt>
      <trkpt lat="44.12471" lon="5.22759">
        <ele>472.2</ele>
        <time>2021-06-12T06:54:03Z</time>
      </trkpt>
      <trkpt lat="44.12473" lon="5.22778">
        <ele>473.4</ele>
        <time>2021-06-12T06:54:11Z</time>
      </trkpt>
      <trkpt lat="44.12473" lon="5.22779">
        <ele>473.4</ele>
        <time>2021-06-12T06:54:12Z</time>
      </trkpt>
      <trkpt lat="44.12473" lon="5.22781">
        <ele>473.8</ele>
        <time>2021-06-12T06:54:14Z</time>
      </trkpt>
      <trkpt lat="44.12475" lon="5.22788">
        <ele>474.2</ele>
        <time>2021-06-12T06:54:17Z</time>
      </trkpt>
      <trkpt lat="44.12475" lon="5.22789">
        <ele>474.4</ele>
        <time>2021-06-12T06:54:18Z</time>
      </trkpt>
      <trkpt lat="44.12475" lon="5.22791">
        <ele>474.6</ele>
        <time>2021-06-12T06:54:19Z</time>
      </trkpt>
      <trkpt lat="44.12476" lon="5.22796">
        <ele>475</ele>
        <time>2021-06-12T06:54:22Z</time>
      </trkpt>
      <trkpt lat="44.12477" lon="5.228">
        <ele>475.4</ele>
        <time>2021-06-12T06:54:24Z</time>
      </trkpt>
      <trkpt lat="44.12477" lon="5.22802">
        <ele>475.6</ele>
        <time>2021-06-12T06:54:25Z</time>
      </trkpt>
      <trkpt lat="44.12477" lon="5.22809">
        <ele>476.4</ele>
        <time>2021-06-12T06:54:30Z</time>
      </trkpt>
      <trkpt lat="44.12478" lon="5.22811">
        <ele>476.6</ele>
        <time>2021-06-12T06:54:31Z</time>
      </trkpt>
      <trkpt lat="44.12479" lon="5.22818">
        <ele>477.2</ele>
        <time>2021-06-12T06:54:34Z</time>
      </trkpt>
      <trkpt lat="44.12481" lon="5.22826">
        <ele>477.6</ele>
        <time>2021-06-12T06:54:38Z</time>
      </trkpt>
      <trkpt lat="44.12481" lon="5.2283">
        <ele>478</ele>
        <time>2021-06-12T06:54:40Z</time>
      </trkpt>
      <trkpt lat="44.12482" lon="5.22835">
        <ele>478.6</ele>
        <time>2021-06-12T06:54:43Z</time>
      </trkpt>
      <trkpt lat="44.12483" lon="5.22836">
        <ele>478.8</ele>
        <time>2021-06-12T06:54:44Z</time>
      </trkpt>
      <trkpt lat="44.12483" lon="5.22839">
        <ele>478.8</ele>
        <time>2021-06-12T06:54:46Z</time>
      </trkpt>
      <trkpt lat="44.12485" lon="5.22842">
        <ele>479.2</ele>
        <time>2021-06-12T06:54:48Z</time>
      </trkpt>
      <trkpt lat="44.12486" lon="5.22847">
        <ele>479.8</ele>
        <time>2021-06-12T06:54:51Z</time>
      </trkpt>
      <trkpt lat="44.1249" lon="5.2286">
        <ele>481</ele>
        <time>2021-06-12T06:54:59Z</time>
      </trkpt>
      <trkpt lat="44.12495" lon="5.22864">
        <ele>482</ele>
        <time>2021-06-12T06:55:04Z</time>
      </trkpt>
      <trkpt lat="44.12502" lon="5.22864">
        <ele>483</ele>
        <time>2021-06-12T06:55:10Z</time>
      </trkpt>
      <trkpt lat="44.1252" lon="5.22859">
        <ele>484</ele>
        <time>2021-06-12T06:55:22Z</time>
      </trkpt>
      <trkpt lat="44.12531" lon="5.22855">
        <ele>484.2</ele>
        <time>2021-06-12T06:55:30Z</time>
      </trkpt>
      <trkpt lat="44.12545" lon="5.22848">
        <ele>485.2</ele>
        <time>2021-06-12T06:55:40Z</time>
      </trkpt>
      <trkpt lat="44.12561" lon="5.2285">
        <ele>486.2</ele>
        <time>2021-06-12T06:55:52Z</time>
      </trkpt>
      <trkpt lat="44.12569" lon="5.22868">
        <ele>486.8</ele>
        <time>2021-06-12T06:56:01Z</time>
      </trkpt>
      <trkpt lat="44.12571" lon="5.22882">
        <ele>486.6</ele>
        <time>2021-06-12T06:56:08Z</time>
      </trkpt>
      <trkpt lat="44.12573" lon="5.22884">
        <ele>486.6</ele>
        <time>2021-06-12T06:56:10Z</time>
      </trkpt>
      <trkpt lat="44.12575" lon="5.2289">
        <ele>486.4</ele>
        <time>2021-06-12T06:56:13Z</time>
      </trkpt>
      <trkpt lat="44.12576" lon="5.22896">
        <ele>486.2</ele>
        <time>2021-06-12T06:56:16Z</time>
      </trkpt>
      <trkpt lat="44.1258" lon="5.22902">
        <ele>486</ele>
        <time>2021-06-12T06:56:20Z</time>
      </trkpt>
      <trkpt lat="44.12583" lon="5.22906">
        <ele>485.8</ele>
        <time>2021-06-12T06:56:22Z</time>
      </trkpt>
      <trkpt lat="44.12594" lon="5.22919">
        <ele>486</ele>
        <time>2021-06-12T06:56:32Z</time>
      </trkpt>
      <trkpt lat="44.12605" lon="5.22927">
        <ele>486</ele>
        <time>2021-06-12T06:56:39Z</time>
      </trkpt>
      <trkpt lat="44.12623" lon="5.22926">
        <ele>486</ele>
        <time>2021-06-12T06:56:52Z</time>
      </trkpt>
      <trkpt lat="44.12641" lon="5.22918">
        <ele>486.4</ele>
        <time>2021-06-12T06:57:06Z</time>
      </trkpt>
      <trkpt lat="44.12646" lon="5.22914">
        <ele>486.6</ele>
        <time>2021-06-12T06:57:11Z</time>
      </trkpt>
      <trkpt lat="44.12659" lon="5.22906">
        <ele>487</ele>
        <time>2021-06-12T06:57:20Z</time>
      </trkpt>
      <trkpt lat="44.1266" lon="5.2291">
        <ele>487.4</ele>
        <time>2021-06-12T06:57:22Z</time>
      </trkpt>
      <trkpt lat="44.12659" lon="5.22917">
        <ele>487.8</ele>
        <time>2021-06-12T06:57:26Z</time>
      </trkpt>
      <trkpt lat="44.12657" lon="5.22929">
        <ele>488.4</ele>
        <time>2021-06-12T06:57:32Z</time>
      </trkpt>
      <trkpt lat="44.12654" lon="5.22943">
        <ele>489.6</ele>
        <time>2021-06-12T06:57:39Z</time>
      </trkpt>
      <trkpt lat="44.12652" lon="5.22957">
        <ele>490.6</ele>
        <time>2021-06-12T06:57:46Z</time>
      </trkpt>
      <trkpt lat="44.12649" lon="5.22969">
        <ele>491.6</ele>
        <time>2021-06-12T06:57:53Z</time>
      </trkpt>
      <trkpt lat="44.12648" lon="5.22979">
        <ele>492.8</ele>
        <time>2021-06-12T06:57:59Z</time>
      </trkpt>
      <trkpt lat="44.12648" lon="5.22981">
        <ele>492.8</ele>
        <time>2021-06-12T06:58:00Z</time>
      </trkpt>
      <trkpt lat="44.12648" lon="5.22996">
        <ele>493.8</ele>
        <time>2021-06-12T06:58:08Z</time>
      </trkpt>
      <trkpt lat="44.12648" lon="5.22998">
        <ele>493.8</ele>
        <time>2021-06-12T06:58:09Z</time>
      </trkpt>
      <trkpt lat="44.12647" lon="5.23007">
        <ele>494.6</ele>
        <time>2021-06-12T06:58:14Z</time>
      </trkpt>
      <trkpt lat="44.12647" lon="5.2301">
        <ele>494.8</ele>
        <time>2021-06-12T06:58:16Z</time>
      </trkpt>
      <trkpt lat="44.12646" lon="5.23015">
        <ele>495.4</ele>
        <time>2021-06-12T06:58:19Z</time>
      </trkpt>
      <trkpt lat="44.12646" lon="5.23024">
        <ele>496</ele>
        <time>2021-06-12T06:58:24Z</time>
      </trkpt>
      <trkpt lat="44.12648" lon="5.23036">
        <ele>497</ele>
        <time>2021-06-12T06:58:31Z</time>
      </trkpt>
      <trkpt lat="44.12649" lon="5.23047">
        <ele>498.2</ele>
        <time>2021-06-12T06:58:38Z</time>
      </trkpt>
      <trkpt lat="44.12651" lon="5.2306">
        <ele>499.2</ele>
        <time>2021-06-12T06:58:45Z</time>
      </trkpt>
      <trkpt lat="44.1265" lon="5.23073">
        <ele>500.2</ele>
        <time>2021-06-12T06:58:53Z</time>
      </trkpt>
      <trkpt lat="44.1265" lon="5.23078">
        <ele>500.4</ele>
        <time>2021-06-12T06:58:55Z</time>
      </trkpt>
      <trkpt lat="44.1265" lon="5.23086">
        <ele>501.4</ele>
        <time>2021-06-12T06:59:00Z</time>
      </trkpt>
      <trkpt lat="44.1265" lon="5.23098">
        <ele>502.4</ele>
        <time>2021-06-12T06:59:07Z</time>
      </trkpt>
      <trkpt lat="44.1265" lon="5.23099">
        <ele>502.6</ele>
        <time>2021-06-12T06:59:08Z</time>
      </trkpt>
      <trkpt lat="44.12652" lon="5.23107">
        <ele>503</ele>
        <time>2021-06-12T06:59:12Z</time>
      </trkpt>
      <trkpt lat="44.12651" lon="5.2311">
        <ele>503.4</ele>
        <time>2021-06-12T06:59:14Z</time>
      </trkpt>
      <trkpt lat="44.12651" lon="5.23111">
        <ele>503.6</ele>
        <time>2021-06-12T06:59:15Z</time>
      </trkpt>
      <trkpt lat="44.12648" lon="5.23125">
        <ele>504.6</ele>
        <time>2021-06-12T06:59:23Z</time>
      </trkpt>
      <trkpt lat="44.12645" lon="5.23136">
        <ele>505.6</ele>
        <time>2021-06-12T06:59:30Z</time>
      </trkpt>
      <trkpt lat="44.12645" lon="5.23144">
        <ele>506.6</ele>
        <time>2021-06-12T06:59:35Z</time>
      </trkpt>
      <trkpt lat="44.12645" lon="5.23146">
        <ele>506.6</ele>
        <time>2021-06-12T06:59:36Z</time>
      </trkpt>
      <trkpt lat="44.12644" lon="5.23152">
        <ele>507.2</ele>
        <time>2021-06-12T06:59:39Z</time>
      </trkpt>
      <trkpt lat="44.12643" lon="5.23159">
        <ele>507.8</ele>
        <time>2021-06-12T06:59:43Z</time>
      </trkpt>
      <trkpt lat="44.12643" lon="5.23167">
        <ele>508.8</ele>
        <time>2021-06-12T06:59:48Z</time>
      </trkpt>
      <trkpt lat="44.12644" lon="5.2317">
        <ele>509</ele>
        <time>2021-06-12T06:59:49Z</time>
      </trkpt>
      <trkpt lat="44.12644" lon="5.23174">
        <ele>509.4</ele>
        <time>2021-06-12T06:59:51Z</time>
      </trkpt>
      <trkpt lat="44.12645" lon="5.23177">
        <ele>509.6</ele>
        <time>2021-06-12T06:59:53Z</time>
      </trkpt>
      <trkpt lat="44.12646" lon="5.23181">
        <ele>510</ele>
        <time>2021-06-12T06:59:55Z</time>
      </trkpt>
      <trkpt lat="44.12646" lon="5.23182">
        <ele>510.2</ele>
        <time>2021-06-12T06:59:56Z</time>
      </trkpt>
      <trkpt lat="44.12647" lon="5.23184">
        <ele>510.8</ele>
        <time>2021-06-12T06:59:58Z</time>
      </trkpt>
      <trkpt lat="44.12647" lon="5.2319">
        <ele>511.4</ele>
        <time>2021-06-12T07:00:01Z</time>
      </trkpt>
      <trkpt lat="44.12646" lon="5.23195">
        <ele>512</ele>
        <time>2021-06-12T07:00:04Z</time>
      </trkpt>
      <trkpt lat="44.12645" lon="5.23202">
        <ele>512.6</ele>
        <time>2021-06-12T07:00:08Z</time>
      </trkpt>
      <trkpt lat="44.12645" lon="5.23204">
        <ele>513</ele>
        <time>2021-06-12T07:00:10Z</time>
      </trkpt>
      <trkpt lat="44.12646" lon="5.23206">
        <ele>513.2</ele>
        <time>2021-06-12T07:00:12Z</time>
      </trkpt>
      <trkpt lat="44.12646" lon="5.2321">
        <ele>513.6</ele>
        <time>2021-06-12T07:00:14Z</time>
      </trkpt>
      <trkpt lat="44.12647" lon="5.23213">
        <ele>514</ele>
        <time>2021-06-12T07:00:16Z</time>
      </trkpt>
      <trkpt lat="44.12648" lon="5.23217">
        <ele>514.6</ele>
        <time>2021-06-12T07:00:19Z</time>
      </trkpt>
      <trkpt lat="44.12649" lon="5.23224">
        <ele>515.8</ele>
        <time>2021-06-12T07:00:23Z</time>
      </trkpt>
      <trkpt lat="44.12651" lon="5.2323">
        <ele>517</ele>
        <time>2021-06-12T07:00:28Z</time>
      </trkpt>
      <trkpt lat="44.12655" lon="5.23237">
        <ele>518</ele>
        <time>2021-06-12T07:00:34Z</time>
      </trkpt>
      <trkpt lat="44.12656" lon="5.23238">
        <ele>518.2</ele>
        <time>2021-06-12T07:00:35Z</time>
      </trkpt>
      <trkpt lat="44.1266" lon="5.23242">
        <ele>518.6</ele>
        <time>2021-06-12T07:00:39Z</time>
      </trkpt>
      <trkpt lat="44.12664" lon="5.23246">
        <ele>519</ele>
        <time>2021-06-12T07:00:42Z</time>
      </trkpt>
      <trkpt lat="44.12671" lon="5.23259">
        <ele>520.2</ele>
        <time>2021-06-12T07:00:50Z</time>
      </trkpt>
      <trkpt lat="44.12674" lon="5.23275">
        <ele>521.2</ele>
        <time>2021-06-12T07:00:58Z</time>
      </trkpt>
      <trkpt lat="44.12673" lon="5.23289">
        <ele>521.2</ele>
        <time>2021-06-12T07:01:06Z</time>
      </trkpt>
      <trkpt lat="44.12671" lon="5.23302">
        <ele>521.8</ele>
        <time>2021-06-12T07:01:13Z</time>
      </trkpt>
      <trkpt lat="44.12671" lon="5.23308">
        <ele>522.2</ele>
        <time>2021-06-12T07:01:17Z</time>
      </trkpt>
      <trkpt lat="44.12672" lon="5.23326">
        <ele>523.4</ele>
        <time>2021-06-12T07:01:26Z</time>
      </trkpt>
      <trkpt lat="44.12672" lon="5.2333">
        <ele>523.6</ele>
        <time>2021-06-12T07:01:28Z</time>
      </trkpt>
      <trkpt lat="44.12673" lon="5.23333">
        <ele>523.6</ele>
        <time>2021-06-12T07:01:30Z</time>
      </trkpt>
      <trkpt lat="44.12676" lon="5.23343">
        <ele>524.4</ele>
        <time>2021-06-12T07:01:36Z</time>
      </trkpt>
      <trkpt lat="44.12675" lon="5.23353">
        <ele>525.2</ele>
        <time>2021-06-12T07:01:42Z</time>
      </trkpt>
      <trkpt lat="44.12676" lon="5.23356">
        <ele>525.4</ele>
        <time>2021-06-12T07:01:44Z</time>
      </trkpt>
      <trkpt lat="44.12677" lon="5.23364">
        <ele>526</ele>
        <time>2021-06-12T07:01:47Z</time>
      </trkpt>
      <trkpt lat="44.12679" lon="5.23372">
        <ele>526.6</ele>
        <time>2021-06-12T07:01:51Z</time>
      </trkpt>
      <trkpt lat="44.12678" lon="5.23375">
        <ele>526.8</ele>
        <time>2021-06-12T07:01:53Z</time>
      </trkpt>
      <trkpt lat="44.12678" lon="5.23379">
        <ele>527.2</ele>
        <time>2021-06-12T07:01:55Z</time>
      </trkpt>
      <trkpt lat="44.12678" lon="5.23382">
        <ele>527.6</ele>
        <time>2021-06-12T07:01:57Z</time>
      </trkpt>
      <trkpt lat="44.1268" lon="5.23392">
        <ele>528.4</ele>
        <time>2021-06-12T07:02:03Z</time>
      </trkpt>
      <trkpt lat="44.12682" lon="5.23394">
        <ele>528.8</ele>
        <time>2021-06-12T07:02:05Z</time>
      </trkpt>
      <trkpt lat="44.12684" lon="5.23398">
        <ele>529.2</ele>
        <time>2021-06-12T07:02:08Z</time>
      </trkpt>
      <trkpt lat="44.12686" lon="5.23402">
        <ele>529.6</ele>
        <time>2021-06-12T07:02:11Z</time>
      </trkpt>
      <trkpt lat="44.12687" lon="5.23405">
        <ele>529.8</ele>
        <time>2021-06-12T07:02:13Z</time>
      </trkpt>
      <trkpt lat="44.12687" lon="5.23409">
        <ele>530.2</ele>
        <time>2021-06-12T07:02:16Z</time>
      </trkpt>
      <trkpt lat="44.12687" lon="5.23415">
        <ele>531</ele>
        <time>2021-06-12T07:02:20Z</time>
      </trkpt>
      <trkpt lat="44.12688" lon="5.23417">
        <ele>531.2</ele>
        <time>2021-06-12T07:02:21Z</time>
      </trkpt>
      <trkpt lat="44.12688" lon="5.23421">
        <ele>531.6</ele>
        <time>2021-06-12T07:02:23Z</time>
      </trkpt>
      <trkpt lat="44.12688" lon="5.23425">
        <ele>532</ele>
        <time>2021-06-12T07:02:25Z</time>
      </trkpt>
      <trkpt lat="44.12687" lon="5.23427">
        <ele>532.2</ele>
        <time>2021-06-12T07:02:26Z</time>
      </trkpt>
      <trkpt lat="44.12687" lon="5.23432">
        <ele>532.8</ele>
        <time>2021-06-12T07:02:29Z</time>
      </trkpt>
      <trkpt lat="44.12689" lon="5.23435">
        <ele>533</ele>
        <time>2021-06-12T07:02:31Z</time>
      </trkpt>
      <trkpt lat="44.1269" lon="5.23441">
        <ele>533.8</ele>
        <time>2021-06-12T07:02:34Z</time>
      </trkpt>
      <trkpt lat="44.12692" lon="5.23444">
        <ele>534.2</ele>
        <time>2021-06-12T07:02:37Z</time>
      </trkpt>
      <trkpt lat="44.12695" lon="5.23451">
        <ele>534.8</ele>
        <time>2021-06-12T07:02:42Z</time>
      </trkpt>
      <trkpt lat="44.12699" lon="5.23452">
        <ele>535</ele>
        <time>2021-06-12T07:02:45Z</time>
      </trkpt>
      <trkpt lat="44.127" lon="5.23453">
        <ele>535.2</ele>
        <time>2021-06-12T07:02:46Z</time>
      </trkpt>
      <trkpt lat="44.12705" lon="5.23456">
        <ele>535.8</ele>
        <time>2021-06-12T07:02:50Z</time>
      </trkpt>
      <trkpt lat="44.12706" lon="5.23462">
        <ele>536.2</ele>
        <time>2021-06-12T07:02:53Z</time>
      </trkpt>
      <trkpt lat="44.12707" lon="5.23463">
        <ele>536.4</ele>
        <time>2021-06-12T07:02:54Z</time>
      </trkpt>
      <trkpt lat="44.12709" lon="5.23467">
        <ele>536.8</ele>
        <time>2021-06-12T07:02:57Z</time>
      </trkpt>
      <trkpt lat="44.12713" lon="5.23471">
        <ele>537.2</ele>
        <time>2021-06-12T07:03:00Z</time>
      </trkpt>
      <trkpt lat="44.12714" lon="5.23472">
        <ele>537.4</ele>
        <time>2021-06-12T07:03:01Z</time>
      </trkpt>
      <trkpt lat="44.12715" lon="5.23473">
        <ele>537.6</ele>
        <time>2021-06-12T07:03:02Z</time>
      </trkpt>
      <trkpt lat="44.12721" lon="5.23479">
        <ele>538.4</ele>
        <time>2021-06-12T07:03:07Z</time>
      </trkpt>
      <trkpt lat="44.12723" lon="5.23481">
        <ele>538.6</ele>
        <time>2021-06-12T07:03:09Z</time>
      </trkpt>
      <trkpt lat="44.12725" lon="5.23485">
        <ele>539.4</ele>
        <time>2021-06-12T07:03:13Z</time>
      </trkpt>
      <trkpt lat="44.12728" lon="5.23493">
        <ele>540.6</ele>
        <time>2021-06-12T07:03:19Z</time>
      </trkpt>
      <trkpt lat="44.1273" lon="5.23497">
        <ele>541</ele>
        <time>2021-06-12T07:03:22Z</time>
      </trkpt>
      <trkpt lat="44.12733" lon="5.23499">
        <ele>541.6</ele>
        <time>2021-06-12T07:03:25Z</time>
      </trkpt>
      <trkpt lat="44.12738" lon="5.23501">
        <ele>542.2</ele>
        <time>2021-06-12T07:03:29Z</time>
      </trkpt>
      <trkpt lat="44.12741" lon="5.23505">
        <ele>542.8</ele>
        <time>2021-06-12T07:03:32Z</time>
      </trkpt>
      <trkpt lat="44.12742" lon="5.23507">
        <ele>543.2</ele>
        <time>2021-06-12T07:03:34Z</time>
      </trkpt>
      <trkpt lat="44.12745" lon="5.23512">
        <ele>543.8</ele>
        <time>2021-06-12T07:03:38Z</time>
      </trkpt>
      <trkpt lat="44.12747" lon="5.23515">
        <ele>544.4</ele>
        <time>2021-06-12T07:03:41Z</time>
      </trkpt>
      <trkpt lat="44.1275" lon="5.2352">
        <ele>544.8</ele>
        <time>2021-06-12T07:03:45Z</time>
      </trkpt>
      <trkpt lat="44.12751" lon="5.23521">
        <ele>545</ele>
        <time>2021-06-12T07:03:46Z</time>
      </trkpt>
      <trkpt lat="44.12758" lon="5.23525">
        <ele>545.8</ele>
        <time>2021-06-12T07:03:50Z</time>
      </trkpt>
      <trkpt lat="44.12759" lon="5.23526">
        <ele>546</ele>
        <time>2021-06-12T07:03:51Z</time>
      </trkpt>
      <trkpt lat="44.1276" lon="5.23527">
        <ele>546.2</ele>
        <time>2021-06-12T07:03:52Z</time>
      </trkpt>
      <trkpt lat="44.12763" lon="5.23532">
        <ele>547</ele>
        <time>2021-06-12T07:03:56Z</time>
      </trkpt>
      <trkpt lat="44.12764" lon="5.23532">
        <ele>547.2</ele>
        <time>2021-06-12T07:03:57Z</time>
      </trkpt>
      <trkpt lat="44.12764" lon="5.23534">
        <ele>547.4</ele>
        <time>2021-06-12T07:03:58Z</time>
      </trkpt>
      <trkpt lat="44.12767" lon="5.23537">
        <ele>548.4</ele>
        <time>2021-06-12T07:04:01Z</time>
      </trkpt>
      <trkpt lat="44.12769" lon="5.23539">
        <ele>548.8</ele>
        <time>2021-06-12T07:04:03Z</time>
      </trkpt>
      <trkpt lat="44.12772" lon="5.23545">
        <ele>549.6</ele>
        <time>2021-06-12T07:04:07Z</time>
      </trkpt>
      <trkpt lat="44.12774" lon="5.2355">
        <ele>550.4</ele>
        <time>2021-06-12T07:04:11Z</time>
      </trkpt>
      <trkpt lat="44.12773" lon="5.23553">
        <ele>550.6</ele>
        <time>2021-06-12T07:04:13Z</time>
      </trkpt>
      <trkpt lat="44.12771" lon="5.23556">
        <ele>551.2</ele>
        <time>2021-06-12T07:04:15Z</time>
      </trkpt>
      <trkpt lat="44.12768" lon="5.23561">
        <ele>551.8</ele>
        <time>2021-06-12T07:04:18Z</time>
      </trkpt>
      <trkpt lat="44.12762" lon="5.23571">
        <ele>553</ele>
        <time>2021-06-12T07:04:23Z</time>
      </trkpt>
      <trkpt lat="44.12758" lon="5.23582">
        <ele>554.2</ele>
        <time>2021-06-12T07:04:30Z</time>
      </trkpt>
      <trkpt lat="44.12757" lon="5.2359">
        <ele>555.4</ele>
        <time>2021-06-12T07:04:35Z</time>
      </trkpt>
      <trkpt lat="44.12755" lon="5.23596">
        <ele>556</ele>
        <time>2021-06-12T07:04:38Z</time>
      </trkpt>
      <trkpt lat="44.12755" lon="5.236">
        <ele>556.4</ele>
        <time>2021-06-12T07:04:41Z</time>
      </trkpt>
      <trkpt lat="44.12754" lon="5.23605">
        <ele>556.8</ele>
        <time>2021-06-12T07:04:43Z</time>
      </trkpt>
      <trkpt lat="44.12754" lon="5.23611">
        <ele>557.6</ele>
        <time>2021-06-12T07:04:46Z</time>
      </trkpt>
      <trkpt lat="44.12755" lon="5.23614">
        <ele>557.8</ele>
        <time>2021-06-12T07:04:48Z</time>
      </trkpt>
      <trkpt lat="44.12753" lon="5.23624">
        <ele>558.8</ele>
        <time>2021-06-12T07:04:53Z</time>
      </trkpt>
      <trkpt lat="44.12757" lon="5.23632">
        <ele>560</ele>
        <time>2021-06-12T07:04:59Z</time>
      </trkpt>
      <trkpt lat="44.1276" lon="5.23637">
        <ele>561.2</ele>
        <time>2021-06-12T07:05:05Z</time>
      </trkpt>
      <trkpt lat="44.12763" lon="5.2364">
        <ele>562.4</ele>
        <time>2021-06-12T07:05:10Z</time>
      </trkpt>
      <trkpt lat="44.12769" lon="5.23641">
        <ele>563.6</ele>
        <time>2021-06-12T07:05:15Z</time>
      </trkpt>
      <trkpt lat="44.12772" lon="5.23641">
        <ele>564</ele>
        <time>2021-06-12T07:05:18Z</time>
      </trkpt>
      <trkpt lat="44.12774" lon="5.23644">
        <ele>564.6</ele>
        <time>2021-06-12T07:05:21Z</time>
      </trkpt>
      <trkpt lat="44.12777" lon="5.23646">
        <ele>565.4</ele>
        <time>2021-06-12T07:05:24Z</time>
      </trkpt>
      <trkpt lat="44.12779" lon="5.23649">
        <ele>565.8</ele>
        <time>2021-06-12T07:05:26Z</time>
      </trkpt>
      <trkpt lat="44.12779" lon="5.2365">
        <ele>566.2</ele>
        <time>2021-06-12T07:05:27Z</time>
      </trkpt>
      <trkpt lat="44.12781" lon="5.23652">
        <ele>566.6</ele>
        <time>2021-06-12T07:05:29Z</time>
      </trkpt>
      <trkpt lat="44.12782" lon="5.23654">
        <ele>567</ele>
        <time>2021-06-12T07:05:30Z</time>
      </trkpt>
      <trkpt lat="44.12783" lon="5.23658">
        <ele>567.4</ele>
        <time>2021-06-12T07:05:32Z</time>
      </trkpt>
      <trkpt lat="44.12784" lon="5.23663">
        <ele>568</ele>
        <time>2021-06-12T07:05:36Z</time>
      </trkpt>
      <trkpt lat="44.12785" lon="5.23668">
        <ele>568.6</ele>
        <time>2021-06-12T07:05:39Z</time>
      </trkpt>
      <trkpt lat="44.12786" lon="5.23676">
        <ele>569.4</ele>
        <time>2021-06-12T07:05:43Z</time>
      </trkpt>
      <trkpt lat="44.12786" lon="5.23678">
        <ele>569.8</ele>
        <time>2021-06-12T07:05:45Z</time>
      </trkpt>
      <trkpt lat="44.12788" lon="5.23685">
        <ele>570.4</ele>
        <time>2021-06-12T07:05:49Z</time>
      </trkpt>
      <trkpt lat="44.12789" lon="5.23686">
        <ele>570.6</ele>
        <time>2021-06-12T07:05:50Z</time>
      </trkpt>
      <trkpt lat="44.12792" lon="5.23698">
        <ele>571.6</ele>
        <time>2021-06-12T07:05:57Z</time>
      </trkpt>
      <trkpt lat="44.12793" lon="5.23711">
        <ele>572.6</ele>
        <time>2021-06-12T07:06:04Z</time>
      </trkpt>
      <trkpt lat="44.12794" lon="5.23719">
        <ele>573.4</ele>
        <time>2021-06-12T07:06:08Z</time>
      </trkpt>
      <trkpt lat="44.12795" lon="5.23724">
        <ele>573.6</ele>
        <time>2021-06-12T07:06:11Z</time>
      </trkpt>
      <trkpt lat="44.12795" lon="5.23728">
        <ele>573.8</ele>
        <time>2021-06-12T07:06:13Z</time>
      </trkpt>
      <trkpt lat="44.12797" lon="5.23742">
        <ele>575</ele>
        <time>2021-06-12T07:06:21Z</time>
      </trkpt>
      <trkpt lat="44.12797" lon="5.23743">
        <ele>575</ele>
        <time>2021-06-12T07:06:22Z</time>
      </trkpt>
      <trkpt lat="44.12797" lon="5.2375">
        <ele>575.6</ele>
        <time>2021-06-12T07:06:26Z</time>
      </trkpt>
      <trkpt lat="44.12798" lon="5.23756">
        <ele>576</ele>
        <time>2021-06-12T07:06:29Z</time>
      </trkpt>
      <trkpt lat="44.12803" lon="5.23769">
        <ele>577.2</ele>
        <time>2021-06-12T07:06:37Z</time>
      </trkpt>
      <trkpt lat="44.12803" lon="5.2377">
        <ele>577.4</ele>
        <time>2021-06-12T07:06:38Z</time>
      </trkpt>
      <trkpt lat="44.12803" lon="5.23776">
        <ele>578.2</ele>
        <time>2021-06-12T07:06:42Z</time>
      </trkpt>
      <trkpt lat="44.12803" lon="5.23777">
        <ele>578.2</ele>
        <time>2021-06-12T07:06:43Z</time>
      </trkpt>
      <trkpt lat="44.12805" lon="5.23782">
        <ele>578.8</ele>
        <time>2021-06-12T07:06:46Z</time>
      </trkpt>
      <trkpt lat="44.12804" lon="5.23791">
        <ele>579.4</ele>
        <time>2021-06-12T07:06:51Z</time>
      </trkpt>
      <trkpt lat="44.12804" lon="5.23796">
        <ele>580</ele>
        <time>2021-06-12T07:06:54Z</time>
      </trkpt>
      <trkpt lat="44.12804" lon="5.238">
        <ele>580.2</ele>
        <time>2021-06-12T07:06:56Z</time>
      </trkpt>
      <trkpt lat="44.12803" lon="5.23802">
        <ele>580.4</ele>
        <time>2021-06-12T07:06:57Z</time>
      </trkpt>
      <trkpt lat="44.12803" lon="5.23805">
        <ele>580.8</ele>
        <time>2021-06-12T07:06:59Z</time>
      </trkpt>
      <trkpt lat="44.12804" lon="5.23811">
        <ele>581.4</ele>
        <time>2021-06-12T07:07:03Z</time>
      </trkpt>
      <trkpt lat="44.12807" lon="5.23819">
        <ele>582.6</ele>
        <time>2021-06-12T07:07:08Z</time>
      </trkpt>
      <trkpt lat="44.12808" lon="5.23825">
        <ele>583.2</ele>
        <time>2021-06-12T07:07:12Z</time>
      </trkpt>
      <trkpt lat="44.12809" lon="5.23828">
        <ele>583.4</ele>
        <time>2021-06-12T07:07:14Z</time>
      </trkpt>
      <trkpt lat="44.12809" lon="5.2383">
        <ele>583.6</ele>
        <time>2021-06-12T07:07:15Z</time>
      </trkpt>
      <trkpt lat="44.12815" lon="5.23841">
        <ele>584.8</ele>
        <time>2021-06-12T07:07:22Z</time>
      </trkpt>
      <trkpt lat="44.12817" lon="5.23848">
        <ele>585.6</ele>
        <time>2021-06-12T07:07:26Z</time>
      </trkpt>
      <trkpt lat="44.12818" lon="5.23852">
        <ele>585.8</ele>
        <time>2021-06-12T07:07:28Z</time>
      </trkpt>
      <trkpt lat="44.1282" lon="5.2386">
        <ele>587</ele>
        <time>2021-06-12T07:07:33Z</time>
      </trkpt>
      <trkpt lat="44.12822" lon="5.23872">
        <ele>588.2</ele>
        <time>2021-06-12T07:07:40Z</time>
      </trkpt>
      <trkpt lat="44.12822" lon="5.23877">
        <ele>588.6</ele>
        <time>2021-06-12T07:07:43Z</time>
      </trkpt>
      <trkpt lat="44.12822" lon="5.23883">
        <ele>589.2</ele>
        <time>2021-06-12T07:07:47Z</time>
      </trkpt>
      <trkpt lat="44.12822" lon="5.23885">
        <ele>589.2</ele>
        <time>2021-06-12T07:07:48Z</time>
      </trkpt>
      <trkpt lat="44.12822" lon="5.23888">
        <ele>589.4</ele>
        <time>2021-06-12T07:07:50Z</time>
      </trkpt>
      <trkpt lat="44.12824" lon="5.23897">
        <ele>590</ele>
        <time>2021-06-12T07:07:55Z</time>
      </trkpt>
      <trkpt lat="44.12825" lon="5.239">
        <ele>590.2</ele>
        <time>2021-06-12T07:07:57Z</time>
      </trkpt>
      <trkpt lat="44.12827" lon="5.23906">
        <ele>590.8</ele>
        <time>2021-06-12T07:08:01Z</time>
      </trkpt>
      <trkpt lat="44.12829" lon="5.2391">
        <ele>591.6</ele>
        <time>2021-06-12T07:08:04Z</time>
      </trkpt>
      <trkpt lat="44.12833" lon="5.23919">
        <ele>592.6</ele>
        <time>2021-06-12T07:08:10Z</time>
      </trkpt>
      <trkpt lat="44.12836" lon="5.2393">
        <ele>593.8</ele>
        <time>2021-06-12T07:08:17Z</time>
      </trkpt>
      <trkpt lat="44.12838" lon="5.2394">
        <ele>594.8</ele>
        <time>2021-06-12T07:08:23Z</time>
      </trkpt>
      <trkpt lat="44.12841" lon="5.23949">
        <ele>596</ele>
        <time>2021-06-12T07:08:29Z</time>
      </trkpt>
      <trkpt lat="44.12845" lon="5.23957">
        <ele>596.8</ele>
        <time>2021-06-12T07:08:34Z</time>
      </trkpt>
      <trkpt lat="44.12846" lon="5.23958">
        <ele>597</ele>
        <time>2021-06-12T07:08:35Z</time>
      </trkpt>
      <trkpt lat="44.12848" lon="5.2396">
        <ele>597.4</ele>
        <time>2021-06-12T07:08:37Z</time>
      </trkpt>
      <trkpt lat="44.12851" lon="5.23964">
        <ele>597.8</ele>
        <time>2021-06-12T07:08:40Z</time>
      </trkpt>
      <trkpt lat="44.12851" lon="5.23965">
        <ele>598</ele>
        <time>2021-06-12T07:08:41Z</time>
      </trkpt>
      <trkpt lat="44.12851" lon="5.23967">
        <ele>598.2</ele>
        <time>2021-06-12T07:08:42Z</time>
      </trkpt>
      <trkpt lat="44.12851" lon="5.23969">
        <ele>598.6</ele>
        <time>2021-06-12T07:08:44Z</time>
      </trkpt>
      <trkpt lat="44.12851" lon="5.23971">
        <ele>599.2</ele>
        <time>2021-06-12T07:08:46Z</time>
      </trkpt>
      <trkpt lat="44.1285" lon="5.23974">
        <ele>599.6</ele>
        <time>2021-06-12T07:08:48Z</time>
      </trkpt>
      <trkpt lat="44.1285" lon="5.2398">
        <ele>600.2</ele>
        <time>2021-06-12T07:08:52Z</time>
      </trkpt>
      <trkpt lat="44.1285" lon="5.23981">
        <ele>600.4</ele>
        <time>2021-06-12T07:08:53Z</time>
      </trkpt>
      <trkpt lat="44.1285" lon="5.23982">
        <ele>600.4</ele>
        <time>2021-06-12T07:08:54Z</time>
      </trkpt>
      <trkpt lat="44.12851" lon="5.23989">
        <ele>601</ele>
        <time>2021-06-12T07:08:58Z</time>
      </trkpt>
      <trkpt lat="44.12851" lon="5.23993">
        <ele>601.4</ele>
        <time>2021-06-12T07:09:00Z</time>
      </trkpt>
      <trkpt lat="44.12847" lon="5.24006">
        <ele>602</ele>
        <time>2021-06-12T07:09:05Z</time>
      </trkpt>
      <trkpt lat="44.12846" lon="5.24008">
        <ele>602.2</ele>
        <time>2021-06-12T07:09:07Z</time>
      </trkpt>
      <trkpt lat="44.12847" lon="5.24012">
        <ele>602.4</ele>
        <time>2021-06-12T07:09:09Z</time>
      </trkpt>
      <trkpt lat="44.12847" lon="5.24016">
        <ele>603</ele>
        <time>2021-06-12T07:09:11Z</time>
      </trkpt>
      <trkpt lat="44.12847" lon="5.24021">
        <ele>603.4</ele>
        <time>2021-06-12T07:09:14Z</time>
      </trkpt>
      <trkpt lat="44.12847" lon="5.24025">
        <ele>603.6</ele>
        <time>2021-06-12T07:09:16Z</time>
      </trkpt>
      <trkpt lat="44.12847" lon="5.24033">
        <ele>604.6</ele>
        <time>2021-06-12T07:09:21Z</time>
      </trkpt>
      <trkpt lat="44.12847" lon="5.24036">
        <ele>605</ele>
        <time>2021-06-12T07:09:23Z</time>
      </trkpt>
      <trkpt lat="44.12849" lon="5.24045">
        <ele>605.8</ele>
        <time>2021-06-12T07:09:28Z</time>
      </trkpt>
      <trkpt lat="44.1285" lon="5.2405">
        <ele>606.2</ele>
        <time>2021-06-12T07:09:32Z</time>
      </trkpt>
      <trkpt lat="44.12851" lon="5.24056">
        <ele>606.8</ele>
        <time>2021-06-12T07:09:35Z</time>
      </trkpt>
      <trkpt lat="44.12852" lon="5.24063">
        <ele>608</ele>
        <time>2021-06-12T07:09:40Z</time>
      </trkpt>
      <trkpt lat="44.12852" lon="5.24065">
        <ele>608.2</ele>
        <time>2021-06-12T07:09:42Z</time>
      </trkpt>
      <trkpt lat="44.12853" lon="5.24071">
        <ele>608.8</ele>
        <time>2021-06-12T07:09:45Z</time>
      </trkpt>
      <trkpt lat="44.12854" lon="5.24072">
        <ele>609</ele>
        <time>2021-06-12T07:09:46Z</time>
      </trkpt>
      <trkpt lat="44.12856" lon="5.24079">
        <ele>610</ele>
        <time>2021-06-12T07:09:51Z</time>
      </trkpt>
      <trkpt lat="44.12856" lon="5.24081">
        <ele>610.4</ele>
        <time>2021-06-12T07:09:53Z</time>
      </trkpt>
      <trkpt lat="44.12856" lon="5.24087">
        <ele>611</ele>
        <time>2021-06-12T07:09:56Z</time>
      </trkpt>
      <trkpt lat="44.12857" lon="5.24095">
        <ele>611.8</ele>
        <time>2021-06-12T07:10:00Z</time>
      </trkpt>
      <trkpt lat="44.12857" lon="5.24098">
        <ele>612.2</ele>
        <time>2021-06-12T07:10:02Z</time>
      </trkpt>
      <trkpt lat="44.1286" lon="5.24106">
        <ele>613.4</ele>
        <time>2021-06-12T07:10:07Z</time>
      </trkpt>
      <trkpt lat="44.1286" lon="5.24113">
        <ele>614.4</ele>
        <time>2021-06-12T07:10:12Z</time>
      </trkpt>
      <trkpt lat="44.12859" lon="5.2412">
        <ele>615</ele>
        <time>2021-06-12T07:10:17Z</time>
      </trkpt>
      <trkpt lat="44.12859" lon="5.24123">
        <ele>615.4</ele>
        <time>2021-06-12T07:10:19Z</time>
      </trkpt>
      <trkpt lat="44.12858" lon="5.24132">
        <ele>616.6</ele>
        <time>2021-06-12T07:10:24Z</time>
      </trkpt>
      <trkpt lat="44.12858" lon="5.24135">
        <ele>617</ele>
        <time>2021-06-12T07:10:26Z</time>
      </trkpt>
      <trkpt lat="44.12858" lon="5.2414">
        <ele>617.6</ele>
        <time>2021-06-12T07:10:29Z</time>
      </trkpt>
      <trkpt lat="44.12858" lon="5.24141">
        <ele>617.8</ele>
        <time>2021-06-12T07:10:30Z</time>
      </trkpt>
      <trkpt lat="44.12858" lon="5.24145">
        <ele>618.2</ele>
        <time>2021-06-12T07:10:33Z</time>
      </trkpt>
      <trkpt lat="44.12858" lon="5.24148">
        <ele>618.6</ele>
        <time>2021-06-12T07:10:35Z</time>
      </trkpt>
      <trkpt lat="44.12857" lon="5.24149">
        <ele>619</ele>
        <time>2021-06-12T07:10:36Z</time>
      </trkpt>
      <trkpt lat="44.12858" lon="5.24155">
        <ele>619.4</ele>
        <time>2021-06-12T07:10:39Z</time>
      </trkpt>
      <trkpt lat="44.12856" lon="5.2416">
        <ele>619.8</ele>
        <time>2021-06-12T07:10:41Z</time>
      </trkpt>
      <trkpt lat="44.12856" lon="5.24162">
        <ele>620</ele>
        <time>2021-06-12T07:10:42Z</time>
      </trkpt>
      <trkpt lat="44.12855" lon="5.24169">
        <ele>620.4</ele>
        <time>2021-06-12T07:10:46Z</time>
      </trkpt>
      <trkpt lat="44.12854" lon="5.24175">
        <ele>620.8</ele>
        <time>2021-06-12T07:10:49Z</time>
      </trkpt>
      <trkpt lat="44.12853" lon="5.2418">
        <ele>621</ele>
        <time>2021-06-12T07:10:52Z</time>
      </trkpt>
      <trkpt lat="44.12855" lon="5.24196">
        <ele>621.8</ele>
        <time>2021-06-12T07:11:00Z</time>
      </trkpt>
      <trkpt lat="44.12854" lon="5.242">
        <ele>622.2</ele>
        <time>2021-06-12T07:11:03Z</time>
      </trkpt>
      <trkpt lat="44.12854" lon="5.24208">
        <ele>622.8</ele>
        <time>2021-06-12T07:11:08Z</time>
      </trkpt>
      <trkpt lat="44.12854" lon="5.2421">
        <ele>622.8</ele>
        <time>2021-06-12T07:11:09Z</time>
      </trkpt>
      <trkpt lat="44.12854" lon="5.24213">
        <ele>623.2</ele>
        <time>2021-06-12T07:11:11Z</time>
      </trkpt>
      <trkpt lat="44.12855" lon="5.24219">
        <ele>624</ele>
        <time>2021-06-12T07:11:15Z</time>
      </trkpt>
      <trkpt lat="44.12855" lon="5.24221">
        <ele>624</ele>
        <time>2021-06-12T07:11:16Z</time>
      </trkpt>
      <trkpt lat="44.12858" lon="5.24227">
        <ele>624.6</ele>
        <time>2021-06-12T07:11:20Z</time>
      </trkpt>
      <trkpt lat="44.12859" lon="5.24231">
        <ele>625</ele>
        <time>2021-06-12T07:11:23Z</time>
      </trkpt>
      <trkpt lat="44.12861" lon="5.24234">
        <ele>625.4</ele>
        <time>2021-06-12T07:11:25Z</time>
      </trkpt>
      <trkpt lat="44.12866" lon="5.24237">
        <ele>626</ele>
        <time>2021-06-12T07:11:29Z</time>
      </trkpt>
      <trkpt lat="44.12868" lon="5.24238">
        <ele>626.2</ele>
        <time>2021-06-12T07:11:30Z</time>
      </trkpt>
      <trkpt lat="44.12871" lon="5.24241">
        <ele>626.6</ele>
        <time>2021-06-12T07:11:33Z</time>
      </trkpt>
      <trkpt lat="44.12874" lon="5.24244">
        <ele>627.2</ele>
        <time>2021-06-12T07:11:36Z</time>
      </trkpt>
      <trkpt lat="44.12875" lon="5.24247">
        <ele>627.8</ele>
        <time>2021-06-12T07:11:39Z</time>
      </trkpt>
      <trkpt lat="44.12876" lon="5.24249">
        <ele>628</ele>
        <time>2021-06-12T07:11:41Z</time>
      </trkpt>
      <trkpt lat="44.12877" lon="5.24251">
        <ele>628.4</ele>
        <time>2021-06-12T07:11:43Z</time>
      </trkpt>
      <trkpt lat="44.12879" lon="5.24253">
        <ele>628.8</ele>
        <time>2021-06-12T07:11:45Z</time>
      </trkpt>
      <trkpt lat="44.12881" lon="5.24257">
        <ele>629.6</ele>
        <time>2021-06-12T07:11:48Z</time>
      </trkpt>
      <trkpt lat="44.12883" lon="5.24263">
        <ele>630.4</ele>
        <time>2021-06-12T07:11:52Z</time>
      </trkpt>
      <trkpt lat="44.12884" lon="5.24264">
        <ele>630.6</ele>
        <time>2021-06-12T07:11:53Z</time>
      </trkpt>
      <trkpt lat="44.12884" lon="5.24266">
        <ele>630.8</ele>
        <time>2021-06-12T07:11:54Z</time>
      </trkpt>
      <trkpt lat="44.12885" lon="5.24273">
        <ele>631.4</ele>
        <time>2021-06-12T07:11:58Z</time>
      </trkpt>
      <trkpt lat="44.12886" lon="5.24275">
        <ele>631.6</ele>
        <time>2021-06-12T07:11:59Z</time>
      </trkpt>
      <trkpt lat="44.12886" lon="5.24279">
        <ele>632</ele>
        <time>2021-06-12T07:12:01Z</time>
      </trkpt>
      <trkpt lat="44.12888" lon="5.24286">
        <ele>632.6</ele>
        <time>2021-06-12T07:12:05Z</time>
      </trkpt>
      <trkpt lat="44.12888" lon="5.24287">
        <ele>632.6</ele>
        <time>2021-06-12T07:12:06Z</time>
      </trkpt>
      <trkpt lat="44.12889" lon="5.2429">
        <ele>633</ele>
        <time>2021-06-12T07:12:08Z</time>
      </trkpt>
      <trkpt lat="44.1289" lon="5.24291">
        <ele>633.4</ele>
        <time>2021-06-12T07:12:10Z</time>
      </trkpt>
      <trkpt lat="44.12891" lon="5.24293">
        <ele>633.8</ele>
        <time>2021-06-12T07:12:12Z</time>
      </trkpt>
      <trkpt lat="44.12893" lon="5.24297">
        <ele>634.2</ele>
        <time>2021-06-12T07:12:15Z</time>
      </trkpt>
      <trkpt lat="44.12895" lon="5.24301">
        <ele>634.8</ele>
        <time>2021-06-12T07:12:18Z</time>
      </trkpt>
      <trkpt lat="44.12894" lon="5.24303">
        <ele>635</ele>
        <time>2021-06-12T07:12:19Z</time>
      </trkpt>
      <trkpt lat="44.12893" lon="5.2431">
        <ele>635.8</ele>
        <time>2021-06-12T07:12:23Z</time>
      </trkpt>
      <trkpt lat="44.12893" lon="5.24312">
        <ele>635.8</ele>
        <time>2021-06-12T07:12:24Z</time>
      </trkpt>
      <trkpt lat="44.12893" lon="5.24315">
        <ele>636.2</ele>
        <time>2021-06-12T07:12:26Z</time>
      </trkpt>
      <trkpt lat="44.12895" lon="5.24325">
        <ele>636.8</ele>
        <time>2021-06-12T07:12:31Z</time>
      </trkpt>
      <trkpt lat="44.12896" lon="5.24327">
        <ele>637</ele>
        <time>2021-06-12T07:12:32Z</time>
      </trkpt>
      <trkpt lat="44.12896" lon="5.24329">
        <ele>637.2</ele>
        <time>2021-06-12T07:12:33Z</time>
      </trkpt>
      <trkpt lat="44.12895" lon="5.24336">
        <ele>637.6</ele>
        <time>2021-06-12T07:12:36Z</time>
      </trkpt>
      <trkpt lat="44.12895" lon="5.24339">
        <ele>638</ele>
        <time>2021-06-12T07:12:38Z</time>
      </trkpt>
      <trkpt lat="44.12895" lon="5.2434">
        <ele>638</ele>
        <time>2021-06-12T07:12:39Z</time>
      </trkpt>
      <trkpt lat="44.12895" lon="5.24344">
        <ele>638.4</ele>
        <time>2021-06-12T07:12:42Z</time>
      </trkpt>
      <trkpt lat="44.12896" lon="5.24347">
        <ele>638.8</ele>
        <time>2021-06-12T07:12:44Z</time>
      </trkpt>
      <trkpt lat="44.12896" lon="5.24351">
        <ele>639</ele>
        <time>2021-06-12T07:12:47Z</time>
      </trkpt>
      <trkpt lat="44.12896" lon="5.24353">
        <ele>639.2</ele>
        <time>2021-06-12T07:12:48Z</time>
      </trkpt>
      <trkpt lat="44.12896" lon="5.24356">
        <ele>639.6</ele>
        <time>2021-06-12T07:12:50Z</time>
      </trkpt>
      <trkpt lat="44.12896" lon="5.24359">
        <ele>639.8</ele>
        <time>2021-06-12T07:12:52Z</time>
      </trkpt>
      <trkpt lat="44.12896" lon="5.24364">
        <ele>640</ele>
        <time>2021-06-12T07:12:54Z</time>
      </trkpt>
      <trkpt lat="44.12897" lon="5.24365">
        <ele>640.2</ele>
        <time>2021-06-12T07:12:55Z</time>
      </trkpt>
      <trkpt lat="44.12896" lon="5.24373">
        <ele>640.6</ele>
        <time>2021-06-12T07:12:59Z</time>
      </trkpt>
      <trkpt lat="44.12894" lon="5.24376">
        <ele>641</ele>
        <time>2021-06-12T07:13:01Z</time>
      </trkpt>
      <trkpt lat="44.12892" lon="5.24382">
        <ele>641.4</ele>
        <time>2021-06-12T07:13:04Z</time>
      </trkpt>
      <trkpt lat="44.12889" lon="5.24389">
        <ele>641.6</ele>
        <time>2021-06-12T07:13:08Z</time>
      </trkpt>
      <trkpt lat="44.12888" lon="5.24401">
        <ele>642.2</ele>
        <time>2021-06-12T07:13:15Z</time>
      </trkpt>
      <trkpt lat="44.12888" lon="5.24402">
        <ele>642.4</ele>
        <time>2021-06-12T07:13:16Z</time>
      </trkpt>
      <trkpt lat="44.12891" lon="5.24409">
        <ele>643.2</ele>
        <time>2021-06-12T07:13:21Z</time>
      </trkpt>
      <trkpt lat="44.12892" lon="5.24412">
        <ele>643.4</ele>
        <time>2021-06-12T07:13:23Z</time>
      </trkpt>
      <trkpt lat="44.12893" lon="5.24416">
        <ele>643.6</ele>
        <time>2021-06-12T07:13:25Z</time>
      </trkpt>
      <trkpt lat="44.12894" lon="5.24421">
        <ele>644</ele>
        <time>2021-06-12T07:13:28Z</time>
      </trkpt>
      <trkpt lat="44.12894" lon="5.24433">
        <ele>644.4</ele>
        <time>2021-06-12T07:13:33Z</time>
      </trkpt>
      <trkpt lat="44.12893" lon="5.24449">
        <ele>645.6</ele>
        <time>2021-06-12T07:13:41Z</time>
      </trkpt>
      <trkpt lat="44.12893" lon="5.24452">
        <ele>645.8</ele>
        <time>2021-06-12T07:13:43Z</time>
      </trkpt>
      <trkpt lat="44.12893" lon="5.24456">
        <ele>646</ele>
        <time>2021-06-12T07:13:45Z</time>
      </trkpt>
      <trkpt lat="44.12892" lon="5.24461">
        <ele>646.4</ele>
        <time>2021-06-12T07:13:47Z</time>
      </trkpt>
      <trkpt lat="44.12892" lon="5.24464">
        <ele>646.6</ele>
        <time>2021-06-12T07:13:49Z</time>
      </trkpt>
      <trkpt lat="44.12892" lon="5.24465">
        <ele>646.8</ele>
        <time>2021-06-12T07:13:50Z</time>
      </trkpt>
      <trkpt lat="44.12892" lon="5.24472">
        <ele>647</ele>
        <time>2021-06-12T07:13:54Z</time>
      </trkpt>
      <trkpt lat="44.12891" lon="5.24483">
        <ele>647.8</ele>
        <time>2021-06-12T07:14:01Z</time>
      </trkpt>
      <trkpt lat="44.12892" lon="5.24487">
        <ele>648</ele>
        <time>2021-06-12T07:14:03Z</time>
      </trkpt>
      <trkpt lat="44.12892" lon="5.24488">
        <ele>648.2</ele>
        <time>2021-06-12T07:14:04Z</time>
      </trkpt>
      <trkpt lat="44.12894" lon="5.24495">
        <ele>648.8</ele>
        <time>2021-06-12T07:14:08Z</time>
      </trkpt>
      <trkpt lat="44.12895" lon="5.24498">
        <ele>649.4</ele>
        <time>2021-06-12T07:14:11Z</time>
      </trkpt>
      <trkpt lat="44.12896" lon="5.24504">
        <ele>650</ele>
        <time>2021-06-12T07:14:14Z</time>
      </trkpt>
      <trkpt lat="44.12899" lon="5.24508">
        <ele>650.6</ele>
        <time>2021-06-12T07:14:18Z</time>
      </trkpt>
      <trkpt lat="44.129" lon="5.24511">
        <ele>651</ele>
        <time>2021-06-12T07:14:20Z</time>
      </trkpt>
      <trkpt lat="44.129" lon="5.24512">
        <ele>651.2</ele>
        <time>2021-06-12T07:14:21Z</time>
      </trkpt>
      <trkpt lat="44.12901" lon="5.24514">
        <ele>651.2</ele>
        <time>2021-06-12T07:14:22Z</time>
      </trkpt>
      <trkpt lat="44.12904" lon="5.24521">
        <ele>652.2</ele>
        <time>2021-06-12T07:14:27Z</time>
      </trkpt>
      <trkpt lat="44.12905" lon="5.24522">
        <ele>652.4</ele>
        <time>2021-06-12T07:14:28Z</time>
      </trkpt>
      <trkpt lat="44.12908" lon="5.24527">
        <ele>653.2</ele>
        <time>2021-06-12T07:14:32Z</time>
      </trkpt>
      <trkpt lat="44.12908" lon="5.24528">
        <ele>653.4</ele>
        <time>2021-06-12T07:14:33Z</time>
      </trkpt>
      <trkpt lat="44.12908" lon="5.24531">
        <ele>653.8</ele>
        <time>2021-06-12T07:14:35Z</time>
      </trkpt>
      <trkpt lat="44.12909" lon="5.24534">
        <ele>654.6</ele>
        <time>2021-06-12T07:14:38Z</time>
      </trkpt>
      <trkpt lat="44.12914" lon="5.24539">
        <ele>655.2</ele>
        <time>2021-06-12T07:14:42Z</time>
      </trkpt>
      <trkpt lat="44.12916" lon="5.24542">
        <ele>655.6</ele>
        <time>2021-06-12T07:14:44Z</time>
      </trkpt>
      <trkpt lat="44.1292" lon="5.24548">
        <ele>656.6</ele>
        <time>2021-06-12T07:14:49Z</time>
      </trkpt>
      <trkpt lat="44.12923" lon="5.24553">
        <ele>657.2</ele>
        <time>2021-06-12T07:14:53Z</time>
      </trkpt>
      <trkpt lat="44.12925" lon="5.24559">
        <ele>657.6</ele>
        <time>2021-06-12T07:14:57Z</time>
      </trkpt>
      <trkpt lat="44.12925" lon="5.24559">
        <ele>657.6</ele>
        <time>2021-06-12T07:14:58Z</time>
      </trkpt>
      <trkpt lat="44.12929" lon="5.24562">
        <ele>658.2</ele>
        <time>2021-06-12T07:15:01Z</time>
      </trkpt>
      <trkpt lat="44.12933" lon="5.24565">
        <ele>658.6</ele>
        <time>2021-06-12T07:15:05Z</time>
      </trkpt>
      <trkpt lat="44.12934" lon="5.24566">
        <ele>658.8</ele>
        <time>2021-06-12T07:15:07Z</time>
      </trkpt>
      <trkpt lat="44.12937" lon="5.24567">
        <ele>659.2</ele>
        <time>2021-06-12T07:15:10Z</time>
      </trkpt>
      <trkpt lat="44.12943" lon="5.24569">
        <ele>659.6</ele>
        <time>2021-06-12T07:15:14Z</time>
      </trkpt>
      <trkpt lat="44.12954" lon="5.24572">
        <ele>660.8</ele>
        <time>2021-06-12T07:15:24Z</time>
      </trkpt>
      <trkpt lat="44.12956" lon="5.24573">
        <ele>660.8</ele>
        <time>2021-06-12T07:15:26Z</time>
      </trkpt>
      <trkpt lat="44.12955" lon="5.24575">
        <ele>660.8</ele>
        <time>2021-06-12T07:15:29Z</time>
      </trkpt>
      <trkpt lat="44.12955" lon="5.24576">
        <ele>660.6</ele>
        <time>2021-06-12T07:15:30Z</time>
      </trkpt>
      <trkpt lat="44.12951" lon="5.24573">
        <ele>659.8</ele>
        <time>2021-06-12T07:23:22Z</time>
      </trkpt>
      <trkpt lat="44.12954" lon="5.24575">
        <ele>660</ele>
        <time>2021-06-12T07:23:24Z</time>
      </trkpt>
      <trkpt lat="44.12959" lon="5.24577">
        <ele>660.2</ele>
        <time>2021-06-12T07:23:28Z</time>
      </trkpt>
      <trkpt lat="44.12963" lon="5.24578">
        <ele>660.4</ele>
        <time>2021-06-12T07:23:31Z</time>
      </trkpt>
      <trkpt lat="44.1298" lon="5.24582">
        <ele>660.8</ele>
        <time>2021-06-12T07:23:41Z</time>
      </trkpt>
      <trkpt lat="44.12998" lon="5.24586">
        <ele>661</ele>
        <time>2021-06-12T07:23:52Z</time>
      </trkpt>
      <trkpt lat="44.13" lon="5.24587">
        <ele>661.4</ele>
        <time>2021-06-12T07:23:56Z</time>
      </trkpt>
      <trkpt lat="44.13003" lon="5.24588">
        <ele>661.8</ele>
        <time>2021-06-12T07:23:58Z</time>
      </trkpt>
      <trkpt lat="44.13011" lon="5.24593">
        <ele>662.8</ele>
        <time>2021-06-12T07:24:04Z</time>
      </trkpt>
      <trkpt lat="44.13016" lon="5.24603">
        <ele>663.8</ele>
        <time>2021-06-12T07:24:09Z</time>
      </trkpt>
      <trkpt lat="44.13019" lon="5.24609">
        <ele>664.2</ele>
        <time>2021-06-12T07:24:12Z</time>
      </trkpt>
      <trkpt lat="44.13024" lon="5.2462">
        <ele>665</ele>
        <time>2021-06-12T07:24:18Z</time>
      </trkpt>
      <trkpt lat="44.13025" lon="5.24625">
        <ele>665.4</ele>
        <time>2021-06-12T07:24:20Z</time>
      </trkpt>
      <trkpt lat="44.13028" lon="5.24636">
        <ele>665.6</ele>
        <time>2021-06-12T07:24:26Z</time>
      </trkpt>
      <trkpt lat="44.1303" lon="5.2464">
        <ele>666.2</ele>
        <time>2021-06-12T07:24:29Z</time>
      </trkpt>
      <trkpt lat="44.13035" lon="5.24644">
        <ele>666.8</ele>
        <time>2021-06-12T07:24:35Z</time>
      </trkpt>
      <trkpt lat="44.13037" lon="5.24646">
        <ele>667.2</ele>
        <time>2021-06-12T07:24:37Z</time>
      </trkpt>
      <trkpt lat="44.13039" lon="5.24647">
        <ele>667.4</ele>
        <time>2021-06-12T07:24:38Z</time>
      </trkpt>
      <trkpt lat="44.13041" lon="5.24655">
        <ele>667.8</ele>
        <time>2021-06-12T07:24:42Z</time>
      </trkpt>
      <trkpt lat="44.13045" lon="5.24661">
        <ele>668.4</ele>
        <time>2021-06-12T07:24:46Z</time>
      </trkpt>
      <trkpt lat="44.13056" lon="5.24666">
        <ele>669.4</ele>
        <time>2021-06-12T07:24:54Z</time>
      </trkpt>
      <trkpt lat="44.13061" lon="5.24676">
        <ele>670.2</ele>
        <time>2021-06-12T07:24:59Z</time>
      </trkpt>
      <trkpt lat="44.13063" lon="5.24677">
        <ele>670.4</ele>
        <time>2021-06-12T07:25:00Z</time>
      </trkpt>
      <trkpt lat="44.13064" lon="5.2468">
        <ele>670.6</ele>
        <time>2021-06-12T07:25:02Z</time>
      </trkpt>
      <trkpt lat="44.13067" lon="5.24685">
        <ele>671.4</ele>
        <time>2021-06-12T07:25:06Z</time>
      </trkpt>
      <trkpt lat="44.13069" lon="5.24686">
        <ele>671.8</ele>
        <time>2021-06-12T07:25:08Z</time>
      </trkpt>
      <trkpt lat="44.13073" lon="5.24691">
        <ele>672.4</ele>
        <time>2021-06-12T07:25:13Z</time>
      </trkpt>
      <trkpt lat="44.13078" lon="5.24692">
        <ele>673.4</ele>
        <time>2021-06-12T07:25:16Z</time>
      </trkpt>
      <trkpt lat="44.13079" lon="5.24692">
        <ele>673.6</ele>
        <time>2021-06-12T07:25:17Z</time>
      </trkpt>
      <trkpt lat="44.13082" lon="5.24692">
        <ele>674</ele>
        <time>2021-06-12T07:25:19Z</time>
      </trkpt>
      <trkpt lat="44.13085" lon="5.24693">
        <ele>674.4</ele>
        <time>2021-06-12T07:25:22Z</time>
      </trkpt>
      <trkpt lat="44.13086" lon="5.24694">
        <ele>674.6</ele>
        <time>2021-06-12T07:25:23Z</time>
      </trkpt>
      <trkpt lat="44.13088" lon="5.24699">
        <ele>675.2</ele>
        <time>2021-06-12T07:25:26Z</time>
      </trkpt>
      <trkpt lat="44.13091" lon="5.24707">
        <ele>675.8</ele>
        <time>2021-06-12T07:25:30Z</time>
      </trkpt>
      <trkpt lat="44.13091" lon="5.24709">
        <ele>676</ele>
        <time>2021-06-12T07:25:31Z</time>
      </trkpt>
      <trkpt lat="44.13093" lon="5.24713">
        <ele>676.4</ele>
        <time>2021-06-12T07:25:33Z</time>
      </trkpt>
      <trkpt lat="44.13093" lon="5.2472">
        <ele>677.2</ele>
        <time>2021-06-12T07:25:36Z</time>
      </trkpt>
      <trkpt lat="44.13096" lon="5.24725">
        <ele>678</ele>
        <time>2021-06-12T07:25:39Z</time>
      </trkpt>
      <trkpt lat="44.13097" lon="5.24727">
        <ele>678.2</ele>
        <time>2021-06-12T07:25:40Z</time>
      </trkpt>
      <trkpt lat="44.13103" lon="5.24731">
        <ele>679.4</ele>
        <time>2021-06-12T07:25:45Z</time>
      </trkpt>
      <trkpt lat="44.13105" lon="5.24735">
        <ele>680</ele>
        <time>2021-06-12T07:25:48Z</time>
      </trkpt>
      <trkpt lat="44.13106" lon="5.24738">
        <ele>680.4</ele>
        <time>2021-06-12T07:25:50Z</time>
      </trkpt>
      <trkpt lat="44.13107" lon="5.24741">
        <ele>681</ele>
        <time>2021-06-12T07:25:53Z</time>
      </trkpt>
      <trkpt lat="44.13107" lon="5.24743">
        <ele>681.6</ele>
        <time>2021-06-12T07:25:56Z</time>
      </trkpt>
      <trkpt lat="44.13109" lon="5.2475">
        <ele>682.4</ele>
        <time>2021-06-12T07:26:00Z</time>
      </trkpt>
      <trkpt lat="44.13112" lon="5.24755">
        <ele>682.6</ele>
        <time>2021-06-12T07:26:02Z</time>
      </trkpt>
      <trkpt lat="44.13115" lon="5.24762">
        <ele>683.2</ele>
        <time>2021-06-12T07:26:07Z</time>
      </trkpt>
      <trkpt lat="44.13115" lon="5.24765">
        <ele>683.8</ele>
        <time>2021-06-12T07:26:09Z</time>
      </trkpt>
      <trkpt lat="44.13115" lon="5.24771">
        <ele>684.8</ele>
        <time>2021-06-12T07:26:13Z</time>
      </trkpt>
      <trkpt lat="44.13116" lon="5.24772">
        <ele>685</ele>
        <time>2021-06-12T07:26:14Z</time>
      </trkpt>
      <trkpt lat="44.13117" lon="5.24777">
        <ele>685.6</ele>
        <time>2021-06-12T07:26:17Z</time>
      </trkpt>
      <trkpt lat="44.13117" lon="5.24779">
        <ele>686</ele>
        <time>2021-06-12T07:26:18Z</time>
      </trkpt>
      <trkpt lat="44.13117" lon="5.24782">
        <ele>686.6</ele>
        <time>2021-06-12T07:26:20Z</time>
      </trkpt>
      <trkpt lat="44.13119" lon="5.24789">
        <ele>687.2</ele>
        <time>2021-06-12T07:26:24Z</time>
      </trkpt>
      <trkpt lat="44.13122" lon="5.24796">
        <ele>688</ele>
        <time>2021-06-12T07:26:28Z</time>
      </trkpt>
      <trkpt lat="44.13121" lon="5.248">
        <ele>688.4</ele>
        <time>2021-06-12T07:26:30Z</time>
      </trkpt>
      <trkpt lat="44.13121" lon="5.24801">
        <ele>688.6</ele>
        <time>2021-06-12T07:26:31Z</time>
      </trkpt>
      <trkpt lat="44.13122" lon="5.24804">
        <ele>689.4</ele>
        <time>2021-06-12T07:26:34Z</time>
      </trkpt>
      <trkpt lat="44.13124" lon="5.24809">
        <ele>689.8</ele>
        <time>2021-06-12T07:26:37Z</time>
      </trkpt>
      <trkpt lat="44.13124" lon="5.24813">
        <ele>690.6</ele>
        <time>2021-06-12T07:26:40Z</time>
      </trkpt>
      <trkpt lat="44.13125" lon="5.24814">
        <ele>690.8</ele>
        <time>2021-06-12T07:26:41Z</time>
      </trkpt>
      <trkpt lat="44.13126" lon="5.24818">
        <ele>691.6</ele>
        <time>2021-06-12T07:26:44Z</time>
      </trkpt>
      <trkpt lat="44.13131" lon="5.24822">
        <ele>692.6</ele>
        <time>2021-06-12T07:26:48Z</time>
      </trkpt>
      <trkpt lat="44.13131" lon="5.24823">
        <ele>692.8</ele>
        <time>2021-06-12T07:26:49Z</time>
      </trkpt>
      <trkpt lat="44.13132" lon="5.24827">
        <ele>693.8</ele>
        <time>2021-06-12T07:26:52Z</time>
      </trkpt>
      <trkpt lat="44.13133" lon="5.24829">
        <ele>693.8</ele>
        <time>2021-06-12T07:26:53Z</time>
      </trkpt>
      <trkpt lat="44.13133" lon="5.24832">
        <ele>694.6</ele>
        <time>2021-06-12T07:26:56Z</time>
      </trkpt>
      <trkpt lat="44.13133" lon="5.24835">
        <ele>695</ele>
        <time>2021-06-12T07:26:58Z</time>
      </trkpt>
      <trkpt lat="44.13134" lon="5.24837">
        <ele>695.2</ele>
        <time>2021-06-12T07:26:59Z</time>
      </trkpt>
      <trkpt lat="44.13135" lon="5.2484">
        <ele>695.6</ele>
        <time>2021-06-12T07:27:01Z</time>
      </trkpt>
      <trkpt lat="44.13136" lon="5.24843">
        <ele>696</ele>
        <time>2021-06-12T07:27:03Z</time>
      </trkpt>
      <trkpt lat="44.13136" lon="5.24844">
        <ele>696.2</ele>
        <time>2021-06-12T07:27:04Z</time>
      </trkpt>
      <trkpt lat="44.13138" lon="5.24854">
        <ele>697.4</ele>
        <time>2021-06-12T07:27:10Z</time>
      </trkpt>
      <trkpt lat="44.13139" lon="5.24857">
        <ele>697.8</ele>
        <time>2021-06-12T07:27:12Z</time>
      </trkpt>
      <trkpt lat="44.1314" lon="5.24865">
        <ele>698.4</ele>
        <time>2021-06-12T07:27:16Z</time>
      </trkpt>
      <trkpt lat="44.1314" lon="5.24867">
        <ele>698.6</ele>
        <time>2021-06-12T07:27:17Z</time>
      </trkpt>
      <trkpt lat="44.13142" lon="5.24871">
        <ele>699</ele>
        <time>2021-06-12T07:27:19Z</time>
      </trkpt>
      <trkpt lat="44.13142" lon="5.24876">
        <ele>699.6</ele>
        <time>2021-06-12T07:27:22Z</time>
      </trkpt>
      <trkpt lat="44.13142" lon="5.24889">
        <ele>700.6</ele>
        <time>2021-06-12T07:27:28Z</time>
      </trkpt>
      <trkpt lat="44.13142" lon="5.24892">
        <ele>700.8</ele>
        <time>2021-06-12T07:27:30Z</time>
      </trkpt>
      <trkpt lat="44.13143" lon="5.249">
        <ele>701</ele>
        <time>2021-06-12T07:27:34Z</time>
      </trkpt>
      <trkpt lat="44.13143" lon="5.24902">
        <ele>701.2</ele>
        <time>2021-06-12T07:27:36Z</time>
      </trkpt>
      <trkpt lat="44.13145" lon="5.24903">
        <ele>701.8</ele>
        <time>2021-06-12T07:27:38Z</time>
      </trkpt>
      <trkpt lat="44.13149" lon="5.2491">
        <ele>702.8</ele>
        <time>2021-06-12T07:27:42Z</time>
      </trkpt>
      <trkpt lat="44.1315" lon="5.24911">
        <ele>703</ele>
        <time>2021-06-12T07:27:43Z</time>
      </trkpt>
      <trkpt lat="44.13155" lon="5.24914">
        <ele>703.8</ele>
        <time>2021-06-12T07:27:47Z</time>
      </trkpt>
      <trkpt lat="44.13157" lon="5.2492">
        <ele>705</ele>
        <time>2021-06-12T07:27:52Z</time>
      </trkpt>
      <trkpt lat="44.13157" lon="5.24922">
        <ele>705.2</ele>
        <time>2021-06-12T07:27:53Z</time>
      </trkpt>
      <trkpt lat="44.13159" lon="5.24925">
        <ele>705.8</ele>
        <time>2021-06-12T07:27:55Z</time>
      </trkpt>
      <trkpt lat="44.13161" lon="5.24926">
        <ele>706</ele>
        <time>2021-06-12T07:27:56Z</time>
      </trkpt>
      <trkpt lat="44.13163" lon="5.24926">
        <ele>706.2</ele>
        <time>2021-06-12T07:27:57Z</time>
      </trkpt>
      <trkpt lat="44.13166" lon="5.24927">
        <ele>706.8</ele>
        <time>2021-06-12T07:27:59Z</time>
      </trkpt>
      <trkpt lat="44.13167" lon="5.24928">
        <ele>707</ele>
        <time>2021-06-12T07:28:00Z</time>
      </trkpt>
      <trkpt lat="44.13173" lon="5.24932">
        <ele>708.2</ele>
        <time>2021-06-12T07:28:05Z</time>
      </trkpt>
      <trkpt lat="44.13177" lon="5.24943">
        <ele>709.4</ele>
        <time>2021-06-12T07:28:11Z</time>
      </trkpt>
      <trkpt lat="44.13186" lon="5.24957">
        <ele>710.6</ele>
        <time>2021-06-12T07:28:20Z</time>
      </trkpt>
      <trkpt lat="44.13189" lon="5.24962">
        <ele>711</ele>
        <time>2021-06-12T07:28:24Z</time>
      </trkpt>
      <trkpt lat="44.13191" lon="5.24972">
        <ele>711.6</ele>
        <time>2021-06-12T07:28:30Z</time>
      </trkpt>
      <trkpt lat="44.13191" lon="5.24974">
        <ele>711.8</ele>
        <time>2021-06-12T07:28:31Z</time>
      </trkpt>
      <trkpt lat="44.13193" lon="5.24981">
        <ele>712</ele>
        <time>2021-06-12T07:28:34Z</time>
      </trkpt>
      <trkpt lat="44.13196" lon="5.24996">
        <ele>712.8</ele>
        <time>2021-06-12T07:28:42Z</time>
      </trkpt>
      <trkpt lat="44.13198" lon="5.25002">
        <ele>713</ele>
        <time>2021-06-12T07:28:46Z</time>
      </trkpt>
      <trkpt lat="44.132" lon="5.25005">
        <ele>713.2</ele>
        <time>2021-06-12T07:28:48Z</time>
      </trkpt>
      <trkpt lat="44.13203" lon="5.2501">
        <ele>713.8</ele>
        <time>2021-06-12T07:28:51Z</time>
      </trkpt>
      <trkpt lat="44.13205" lon="5.25014">
        <ele>714.2</ele>
        <time>2021-06-12T07:28:54Z</time>
      </trkpt>
      <trkpt lat="44.13214" lon="5.25027">
        <ele>715</ele>
        <time>2021-06-12T07:29:02Z</time>
      </trkpt>
      <trkpt lat="44.13217" lon="5.25038">
        <ele>715.8</ele>
        <time>2021-06-12T07:29:09Z</time>
      </trkpt>
      <trkpt lat="44.13218" lon="5.2504">
        <ele>716</ele>
        <time>2021-06-12T07:29:10Z</time>
      </trkpt>
      <trkpt lat="44.13223" lon="5.25046">
        <ele>716.4</ele>
        <time>2021-06-12T07:29:15Z</time>
      </trkpt>
      <trkpt lat="44.13228" lon="5.25047">
        <ele>716.6</ele>
        <time>2021-06-12T07:29:18Z</time>
      </trkpt>
      <trkpt lat="44.1323" lon="5.25048">
        <ele>717</ele>
        <time>2021-06-12T07:29:20Z</time>
      </trkpt>
      <trkpt lat="44.13233" lon="5.25052">
        <ele>717.6</ele>
        <time>2021-06-12T07:29:24Z</time>
      </trkpt>
      <trkpt lat="44.13241" lon="5.25057">
        <ele>718.2</ele>
        <time>2021-06-12T07:29:28Z</time>
      </trkpt>
      <trkpt lat="44.1325" lon="5.25063">
        <ele>719.4</ele>
        <time>2021-06-12T07:29:36Z</time>
      </trkpt>
      <trkpt lat="44.13255" lon="5.25069">
        <ele>720.2</ele>
        <time>2021-06-12T07:29:40Z</time>
      </trkpt>
      <trkpt lat="44.13256" lon="5.25072">
        <ele>720.4</ele>
        <time>2021-06-12T07:29:42Z</time>
      </trkpt>
      <trkpt lat="44.13258" lon="5.25076">
        <ele>721</ele>
        <time>2021-06-12T07:29:44Z</time>
      </trkpt>
      <trkpt lat="44.13259" lon="5.2508">
        <ele>721.4</ele>
        <time>2021-06-12T07:29:46Z</time>
      </trkpt>
      <trkpt lat="44.13259" lon="5.25082">
        <ele>721.6</ele>
        <time>2021-06-12T07:29:47Z</time>
      </trkpt>
      <trkpt lat="44.13259" lon="5.25083">
        <ele>721.8</ele>
        <time>2021-06-12T07:29:48Z</time>
      </trkpt>
      <trkpt lat="44.1326" lon="5.25085">
        <ele>721.8</ele>
        <time>2021-06-12T07:29:50Z</time>
      </trkpt>
      <trkpt lat="44.13263" lon="5.2509">
        <ele>722.2</ele>
        <time>2021-06-12T07:29:53Z</time>
      </trkpt>
      <trkpt lat="44.13266" lon="5.25095">
        <ele>722.8</ele>
        <time>2021-06-12T07:29:57Z</time>
      </trkpt>
      <trkpt lat="44.13268" lon="5.25097">
        <ele>723.4</ele>
        <time>2021-06-12T07:29:59Z</time>
      </trkpt>
      <trkpt lat="44.13273" lon="5.25103">
        <ele>724</ele>
        <time>2021-06-12T07:30:04Z</time>
      </trkpt>
      <trkpt lat="44.13275" lon="5.25106">
        <ele>724.4</ele>
        <time>2021-06-12T07:30:06Z</time>
      </trkpt>
      <trkpt lat="44.13277" lon="5.25111">
        <ele>724.8</ele>
        <time>2021-06-12T07:30:09Z</time>
      </trkpt>
      <trkpt lat="44.13278" lon="5.25114">
        <ele>725.2</ele>
        <time>2021-06-12T07:30:11Z</time>
      </trkpt>
      <trkpt lat="44.1328" lon="5.25124">
        <ele>726.2</ele>
        <time>2021-06-12T07:30:16Z</time>
      </trkpt>
      <trkpt lat="44.13283" lon="5.25135">
        <ele>727.4</ele>
        <time>2021-06-12T07:30:23Z</time>
      </trkpt>
      <trkpt lat="44.13284" lon="5.25138">
        <ele>727.6</ele>
        <time>2021-06-12T07:30:25Z</time>
      </trkpt>
      <trkpt lat="44.13285" lon="5.25148">
        <ele>727.6</ele>
        <time>2021-06-12T07:30:31Z</time>
      </trkpt>
      <trkpt lat="44.13291" lon="5.25159">
        <ele>728.4</ele>
        <time>2021-06-12T07:30:40Z</time>
      </trkpt>
      <trkpt lat="44.13294" lon="5.25167">
        <ele>729.6</ele>
        <time>2021-06-12T07:30:46Z</time>
      </trkpt>
      <trkpt lat="44.13297" lon="5.25173">
        <ele>730</ele>
        <time>2021-06-12T07:30:50Z</time>
      </trkpt>
      <trkpt lat="44.13299" lon="5.25177">
        <ele>730.6</ele>
        <time>2021-06-12T07:30:53Z</time>
      </trkpt>
      <trkpt lat="44.13303" lon="5.25179">
        <ele>731</ele>
        <time>2021-06-12T07:30:55Z</time>
      </trkpt>
      <trkpt lat="44.13307" lon="5.25182">
        <ele>731.4</ele>
        <time>2021-06-12T07:30:57Z</time>
      </trkpt>
      <trkpt lat="44.13309" lon="5.25184">
        <ele>731.6</ele>
        <time>2021-06-12T07:30:59Z</time>
      </trkpt>
      <trkpt lat="44.13312" lon="5.25186">
        <ele>732.4</ele>
        <time>2021-06-12T07:31:02Z</time>
      </trkpt>
      <trkpt lat="44.13312" lon="5.2519">
        <ele>732.8</ele>
        <time>2021-06-12T07:31:04Z</time>
      </trkpt>
      <trkpt lat="44.13318" lon="5.25195">
        <ele>733.4</ele>
        <time>2021-06-12T07:31:08Z</time>
      </trkpt>
      <trkpt lat="44.1332" lon="5.25208">
        <ele>734</ele>
        <time>2021-06-12T07:31:14Z</time>
      </trkpt>
      <trkpt lat="44.13322" lon="5.25221">
        <ele>734.6</ele>
        <time>2021-06-12T07:31:19Z</time>
      </trkpt>
      <trkpt lat="44.13323" lon="5.25226">
        <ele>734.6</ele>
        <time>2021-06-12T07:31:22Z</time>
      </trkpt>
      <trkpt lat="44.13324" lon="5.25229">
        <ele>734.8</ele>
        <time>2021-06-12T07:31:24Z</time>
      </trkpt>
      <trkpt lat="44.13325" lon="5.25231">
        <ele>735</ele>
        <time>2021-06-12T07:31:25Z</time>
      </trkpt>
      <trkpt lat="44.13328" lon="5.2524">
        <ele>736</ele>
        <time>2021-06-12T07:31:31Z</time>
      </trkpt>
      <trkpt lat="44.13329" lon="5.2524">
        <ele>736.2</ele>
        <time>2021-06-12T07:31:32Z</time>
      </trkpt>
      <trkpt lat="44.1333" lon="5.25247">
        <ele>737</ele>
        <time>2021-06-12T07:31:37Z</time>
      </trkpt>
      <trkpt lat="44.13331" lon="5.25249">
        <ele>737.2</ele>
        <time>2021-06-12T07:31:38Z</time>
      </trkpt>
      <trkpt lat="44.13332" lon="5.2525">
        <ele>737.2</ele>
        <time>2021-06-12T07:31:39Z</time>
      </trkpt>
      <trkpt lat="44.13335" lon="5.25261">
        <ele>737.8</ele>
        <time>2021-06-12T07:31:45Z</time>
      </trkpt>
      <trkpt lat="44.13335" lon="5.25268">
        <ele>738.4</ele>
        <time>2021-06-12T07:31:48Z</time>
      </trkpt>
      <trkpt lat="44.13335" lon="5.2527">
        <ele>738.6</ele>
        <time>2021-06-12T07:31:49Z</time>
      </trkpt>
      <trkpt lat="44.13337" lon="5.2528">
        <ele>739.2</ele>
        <time>2021-06-12T07:31:54Z</time>
      </trkpt>
      <trkpt lat="44.13339" lon="5.25283">
        <ele>739.6</ele>
        <time>2021-06-12T07:31:56Z</time>
      </trkpt>
      <trkpt lat="44.13341" lon="5.25292">
        <ele>740.4</ele>
        <time>2021-06-12T07:32:01Z</time>
      </trkpt>
      <trkpt lat="44.13342" lon="5.25293">
        <ele>740.6</ele>
        <time>2021-06-12T07:32:02Z</time>
      </trkpt>
      <trkpt lat="44.13342" lon="5.25294">
        <ele>740.6</ele>
        <time>2021-06-12T07:32:03Z</time>
      </trkpt>
      <trkpt lat="44.13342" lon="5.253">
        <ele>741.4</ele>
        <time>2021-06-12T07:32:06Z</time>
      </trkpt>
      <trkpt lat="44.13342" lon="5.25301">
        <ele>741.6</ele>
        <time>2021-06-12T07:32:07Z</time>
      </trkpt>
      <trkpt lat="44.13342" lon="5.25305">
        <ele>742</ele>
        <time>2021-06-12T07:32:10Z</time>
      </trkpt>
      <trkpt lat="44.13347" lon="5.25308">
        <ele>742.6</ele>
        <time>2021-06-12T07:32:13Z</time>
      </trkpt>
      <trkpt lat="44.13348" lon="5.2531">
        <ele>742.8</ele>
        <time>2021-06-12T07:32:14Z</time>
      </trkpt>
      <trkpt lat="44.13351" lon="5.25314">
        <ele>743.2</ele>
        <time>2021-06-12T07:32:17Z</time>
      </trkpt>
      <trkpt lat="44.13353" lon="5.25317">
        <ele>743.4</ele>
        <time>2021-06-12T07:32:19Z</time>
      </trkpt>
      <trkpt lat="44.13356" lon="5.2532">
        <ele>744</ele>
        <time>2021-06-12T07:32:22Z</time>
      </trkpt>
      <trkpt lat="44.13358" lon="5.25324">
        <ele>744.8</ele>
        <time>2021-06-12T07:32:24Z</time>
      </trkpt>
      <trkpt lat="44.13357" lon="5.25328">
        <ele>745.2</ele>
        <time>2021-06-12T07:32:26Z</time>
      </trkpt>
      <trkpt lat="44.13357" lon="5.25333">
        <ele>745.6</ele>
        <time>2021-06-12T07:32:29Z</time>
      </trkpt>
      <trkpt lat="44.13359" lon="5.25338">
        <ele>746.2</ele>
        <time>2021-06-12T07:32:32Z</time>
      </trkpt>
      <trkpt lat="44.13358" lon="5.25341">
        <ele>746.4</ele>
        <time>2021-06-12T07:32:33Z</time>
      </trkpt>
      <trkpt lat="44.1336" lon="5.25343">
        <ele>746.8</ele>
        <time>2021-06-12T07:32:35Z</time>
      </trkpt>
      <trkpt lat="44.13366" lon="5.25347">
        <ele>747.2</ele>
        <time>2021-06-12T07:32:39Z</time>
      </trkpt>
      <trkpt lat="44.13372" lon="5.25354">
        <ele>748.4</ele>
        <time>2021-06-12T07:32:46Z</time>
      </trkpt>
      <trkpt lat="44.13374" lon="5.25357">
        <ele>748.8</ele>
        <time>2021-06-12T07:32:48Z</time>
      </trkpt>
      <trkpt lat="44.13376" lon="5.25364">
        <ele>749.2</ele>
        <time>2021-06-12T07:32:52Z</time>
      </trkpt>
      <trkpt lat="44.13376" lon="5.25366">
        <ele>749.6</ele>
        <time>2021-06-12T07:32:54Z</time>
      </trkpt>
      <trkpt lat="44.13377" lon="5.25371">
        <ele>750.6</ele>
        <time>2021-06-12T07:32:57Z</time>
      </trkpt>
      <trkpt lat="44.13377" lon="5.25372">
        <ele>750.8</ele>
        <time>2021-06-12T07:32:58Z</time>
      </trkpt>
      <trkpt lat="44.13377" lon="5.2538">
        <ele>751.8</ele>
        <time>2021-06-12T07:33:03Z</time>
      </trkpt>
      <trkpt lat="44.13378" lon="5.25382">
        <ele>752</ele>
        <time>2021-06-12T07:33:04Z</time>
      </trkpt>
      <trkpt lat="44.1338" lon="5.25389">
        <ele>752.8</ele>
        <time>2021-06-12T07:33:08Z</time>
      </trkpt>
      <trkpt lat="44.13384" lon="5.25399">
        <ele>753.6</ele>
        <time>2021-06-12T07:33:13Z</time>
      </trkpt>
      <trkpt lat="44.13385" lon="5.25403">
        <ele>754</ele>
        <time>2021-06-12T07:33:15Z</time>
      </trkpt>
      <trkpt lat="44.13386" lon="5.25408">
        <ele>754.4</ele>
        <time>2021-06-12T07:33:17Z</time>
      </trkpt>
      <trkpt lat="44.13387" lon="5.25411">
        <ele>755</ele>
        <time>2021-06-12T07:33:20Z</time>
      </trkpt>
      <trkpt lat="44.13391" lon="5.25419">
        <ele>756.2</ele>
        <time>2021-06-12T07:33:26Z</time>
      </trkpt>
      <trkpt lat="44.13399" lon="5.25422">
        <ele>757</ele>
        <time>2021-06-12T07:33:32Z</time>
      </trkpt>
      <trkpt lat="44.134" lon="5.25423">
        <ele>757.2</ele>
        <time>2021-06-12T07:33:33Z</time>
      </trkpt>
      <trkpt lat="44.13401" lon="5.25424">
        <ele>757.6</ele>
        <time>2021-06-12T07:33:35Z</time>
      </trkpt>
      <trkpt lat="44.13408" lon="5.25427">
        <ele>758.2</ele>
        <time>2021-06-12T07:33:39Z</time>
      </trkpt>
      <trkpt lat="44.1341" lon="5.25428">
        <ele>758.4</ele>
        <time>2021-06-12T07:33:40Z</time>
      </trkpt>
      <trkpt lat="44.13414" lon="5.2543">
        <ele>759.2</ele>
        <time>2021-06-12T07:33:43Z</time>
      </trkpt>
      <trkpt lat="44.13416" lon="5.25431">
        <ele>759.4</ele>
        <time>2021-06-12T07:33:45Z</time>
      </trkpt>
      <trkpt lat="44.13416" lon="5.25431">
        <ele>760</ele>
        <time>2021-06-12T07:33:47Z</time>
      </trkpt>
      <trkpt lat="44.13418" lon="5.25432">
        <ele>760.6</ele>
        <time>2021-06-12T07:33:49Z</time>
      </trkpt>
      <trkpt lat="44.13419" lon="5.25436">
        <ele>760.8</ele>
        <time>2021-06-12T07:33:53Z</time>
      </trkpt>
      <trkpt lat="44.13421" lon="5.2544">
        <ele>761.4</ele>
        <time>2021-06-12T07:33:56Z</time>
      </trkpt>
      <trkpt lat="44.13421" lon="5.25441">
        <ele>761.6</ele>
        <time>2021-06-12T07:33:57Z</time>
      </trkpt>
      <trkpt lat="44.13422" lon="5.25442">
        <ele>761.8</ele>
        <time>2021-06-12T07:33:58Z</time>
      </trkpt>
      <trkpt lat="44.13426" lon="5.25442">
        <ele>762.2</ele>
        <time>2021-06-12T07:34:01Z</time>
      </trkpt>
      <trkpt lat="44.13429" lon="5.25441">
        <ele>762.6</ele>
        <time>2021-06-12T07:34:03Z</time>
      </trkpt>
      <trkpt lat="44.13431" lon="5.25443">
        <ele>763</ele>
        <time>2021-06-12T07:34:04Z</time>
      </trkpt>
      <trkpt lat="44.13432" lon="5.25444">
        <ele>763.6</ele>
        <time>2021-06-12T07:34:06Z</time>
      </trkpt>
      <trkpt lat="44.13434" lon="5.25449">
        <ele>764.2</ele>
        <time>2021-06-12T07:34:10Z</time>
      </trkpt>
      <trkpt lat="44.13435" lon="5.25449">
        <ele>764.4</ele>
        <time>2021-06-12T07:34:11Z</time>
      </trkpt>
      <trkpt lat="44.13438" lon="5.25454">
        <ele>765</ele>
        <time>2021-06-12T07:34:15Z</time>
      </trkpt>
      <trkpt lat="44.13439" lon="5.25454">
        <ele>765.4</ele>
        <time>2021-06-12T07:34:17Z</time>
      </trkpt>
      <trkpt lat="44.13439" lon="5.25455">
        <ele>765.4</ele>
        <time>2021-06-12T07:34:18Z</time>
      </trkpt>
      <trkpt lat="44.13441" lon="5.25457">
        <ele>765.8</ele>
        <time>2021-06-12T07:34:20Z</time>
      </trkpt>
      <trkpt lat="44.13444" lon="5.25458">
        <ele>766.2</ele>
        <time>2021-06-12T07:34:23Z</time>
      </trkpt>
      <trkpt lat="44.13443" lon="5.25461">
        <ele>766.4</ele>
        <time>2021-06-12T07:34:28Z</time>
      </trkpt>
      <trkpt lat="44.13431" lon="5.25459">
        <ele>766.4</ele>
        <time>2021-06-12T07:35:42Z</time>
      </trkpt>
      <trkpt lat="44.13444" lon="5.25455">
        <ele>766.8</ele>
        <time>2021-06-12T07:36:06Z</time>
      </trkpt>
      <trkpt lat="44.13459" lon="5.2546">
        <ele>767.2</ele>
        <time>2021-06-12T07:36:26Z</time>
      </trkpt>
      <trkpt lat="44.13462" lon="5.25461">
        <ele>767.4</ele>
        <time>2021-06-12T07:36:29Z</time>
      </trkpt>
      <trkpt lat="44.13468" lon="5.2546">
        <ele>768.2</ele>
        <time>2021-06-12T07:36:34Z</time>
      </trkpt>
      <trkpt lat="44.1347" lon="5.25459">
        <ele>768.4</ele>
        <time>2021-06-12T07:36:35Z</time>
      </trkpt>
      <trkpt lat="44.13475" lon="5.25463">
        <ele>769.2</ele>
        <time>2021-06-12T07:36:39Z</time>
      </trkpt>
      <trkpt lat="44.13477" lon="5.25464">
        <ele>769.4</ele>
        <time>2021-06-12T07:36:41Z</time>
      </trkpt>
      <trkpt lat="44.13478" lon="5.25465">
        <ele>769.6</ele>
        <time>2021-06-12T07:36:42Z</time>
      </trkpt>
      <trkpt lat="44.13484" lon="5.25466">
        <ele>770.6</ele>
        <time>2021-06-12T07:36:46Z</time>
      </trkpt>
      <trkpt lat="44.13485" lon="5.25467">
        <ele>770.8</ele>
        <time>2021-06-12T07:36:47Z</time>
      </trkpt>
      <trkpt lat="44.13486" lon="5.25467">
        <ele>770.8</ele>
        <time>2021-06-12T07:36:48Z</time>
      </trkpt>
      <trkpt lat="44.13488" lon="5.25468">
        <ele>771</ele>
        <time>2021-06-12T07:36:50Z</time>
      </trkpt>
      <trkpt lat="44.13491" lon="5.2547">
        <ele>771.6</ele>
        <time>2021-06-12T07:36:52Z</time>
      </trkpt>
      <trkpt lat="44.13492" lon="5.25471">
        <ele>771.8</ele>
        <time>2021-06-12T07:36:53Z</time>
      </trkpt>
      <trkpt lat="44.13494" lon="5.25472">
        <ele>772.4</ele>
        <time>2021-06-12T07:36:55Z</time>
      </trkpt>
      <trkpt lat="44.13497" lon="5.25473">
        <ele>772.8</ele>
        <time>2021-06-12T07:36:58Z</time>
      </trkpt>
      <trkpt lat="44.13499" lon="5.25474">
        <ele>773.2</ele>
        <time>2021-06-12T07:36:59Z</time>
      </trkpt>
      <trkpt lat="44.135" lon="5.25475">
        <ele>773.4</ele>
        <time>2021-06-12T07:37:00Z</time>
      </trkpt>
      <trkpt lat="44.13503" lon="5.25477">
        <ele>774</ele>
        <time>2021-06-12T07:37:02Z</time>
      </trkpt>
      <trkpt lat="44.13503" lon="5.25478">
        <ele>774.2</ele>
        <time>2021-06-12T07:37:03Z</time>
      </trkpt>
      <trkpt lat="44.13504" lon="5.25479">
        <ele>774.2</ele>
        <time>2021-06-12T07:37:04Z</time>
      </trkpt>
      <trkpt lat="44.13508" lon="5.25478">
        <ele>775</ele>
        <time>2021-06-12T07:37:08Z</time>
      </trkpt>
      <trkpt lat="44.13511" lon="5.25478">
        <ele>775.2</ele>
        <time>2021-06-12T07:37:10Z</time>
      </trkpt>
      <trkpt lat="44.13512" lon="5.25478">
        <ele>775.4</ele>
        <time>2021-06-12T07:37:11Z</time>
      </trkpt>
      <trkpt lat="44.13513" lon="5.25479">
        <ele>775.6</ele>
        <time>2021-06-12T07:37:13Z</time>
      </trkpt>
      <trkpt lat="44.13516" lon="5.25479">
        <ele>776.2</ele>
        <time>2021-06-12T07:37:16Z</time>
      </trkpt>
      <trkpt lat="44.13516" lon="5.2548">
        <ele>776.2</ele>
        <time>2021-06-12T07:37:17Z</time>
      </trkpt>
      <trkpt lat="44.13518" lon="5.25482">
        <ele>777</ele>
        <time>2021-06-12T07:37:20Z</time>
      </trkpt>
      <trkpt lat="44.13519" lon="5.25484">
        <ele>777.6</ele>
        <time>2021-06-12T07:37:22Z</time>
      </trkpt>
      <trkpt lat="44.13522" lon="5.25485">
        <ele>777.8</ele>
        <time>2021-06-12T07:37:24Z</time>
      </trkpt>
      <trkpt lat="44.13528" lon="5.25487">
        <ele>778.4</ele>
        <time>2021-06-12T07:37:27Z</time>
      </trkpt>
      <trkpt lat="44.13529" lon="5.25488">
        <ele>778.6</ele>
        <time>2021-06-12T07:37:28Z</time>
      </trkpt>
      <trkpt lat="44.13532" lon="5.25489">
        <ele>778.8</ele>
        <time>2021-06-12T07:37:30Z</time>
      </trkpt>
      <trkpt lat="44.13536" lon="5.25487">
        <ele>779.8</ele>
        <time>2021-06-12T07:37:35Z</time>
      </trkpt>
      <trkpt lat="44.1354" lon="5.25487">
        <ele>780.8</ele>
        <time>2021-06-12T07:37:40Z</time>
      </trkpt>
      <trkpt lat="44.13542" lon="5.25488">
        <ele>781</ele>
        <time>2021-06-12T07:37:41Z</time>
      </trkpt>
      <trkpt lat="44.13545" lon="5.25489">
        <ele>781.6</ele>
        <time>2021-06-12T07:37:44Z</time>
      </trkpt>
      <trkpt lat="44.13548" lon="5.25489">
        <ele>781.8</ele>
        <time>2021-06-12T07:37:46Z</time>
      </trkpt>
      <trkpt lat="44.13551" lon="5.25489">
        <ele>782.2</ele>
        <time>2021-06-12T07:37:48Z</time>
      </trkpt>
      <trkpt lat="44.13556" lon="5.25489">
        <ele>783</ele>
        <time>2021-06-12T07:37:52Z</time>
      </trkpt>
      <trkpt lat="44.13563" lon="5.25485">
        <ele>784</ele>
        <time>2021-06-12T07:37:58Z</time>
      </trkpt>
      <trkpt lat="44.13571" lon="5.25485">
        <ele>785</ele>
        <time>2021-06-12T07:38:04Z</time>
      </trkpt>
      <trkpt lat="44.13577" lon="5.25483">
        <ele>785.6</ele>
        <time>2021-06-12T07:38:08Z</time>
      </trkpt>
      <trkpt lat="44.13581" lon="5.25482">
        <ele>786.2</ele>
        <time>2021-06-12T07:38:11Z</time>
      </trkpt>
      <trkpt lat="44.13585" lon="5.25481">
        <ele>786.4</ele>
        <time>2021-06-12T07:38:13Z</time>
      </trkpt>
      <trkpt lat="44.1359" lon="5.25482">
        <ele>787.2</ele>
        <time>2021-06-12T07:38:17Z</time>
      </trkpt>
      <trkpt lat="44.13591" lon="5.25482">
        <ele>787.4</ele>
        <time>2021-06-12T07:38:18Z</time>
      </trkpt>
      <trkpt lat="44.13596" lon="5.25485">
        <ele>788.2</ele>
        <time>2021-06-12T07:38:22Z</time>
      </trkpt>
      <trkpt lat="44.13597" lon="5.25485">
        <ele>788.4</ele>
        <time>2021-06-12T07:38:23Z</time>
      </trkpt>
      <trkpt lat="44.13598" lon="5.25485">
        <ele>788.8</ele>
        <time>2021-06-12T07:38:25Z</time>
      </trkpt>
      <trkpt lat="44.13603" lon="5.25482">
        <ele>789.2</ele>
        <time>2021-06-12T07:38:28Z</time>
      </trkpt>
      <trkpt lat="44.13611" lon="5.25484">
        <ele>789.6</ele>
        <time>2021-06-12T07:38:32Z</time>
      </trkpt>
      <trkpt lat="44.13615" lon="5.25487">
        <ele>790.4</ele>
        <time>2021-06-12T07:38:37Z</time>
      </trkpt>
      <trkpt lat="44.13615" lon="5.25489">
        <ele>790.8</ele>
        <time>2021-06-12T07:38:39Z</time>
      </trkpt>
      <trkpt lat="44.13621" lon="5.25493">
        <ele>791.6</ele>
        <time>2021-06-12T07:38:44Z</time>
      </trkpt>
      <trkpt lat="44.13623" lon="5.25493">
        <ele>791.8</ele>
        <time>2021-06-12T07:38:45Z</time>
      </trkpt>
      <trkpt lat="44.13629" lon="5.25495">
        <ele>792.6</ele>
        <time>2021-06-12T07:38:49Z</time>
      </trkpt>
      <trkpt lat="44.13633" lon="5.25499">
        <ele>793.4</ele>
        <time>2021-06-12T07:38:53Z</time>
      </trkpt>
      <trkpt lat="44.13634" lon="5.25501">
        <ele>793.8</ele>
        <time>2021-06-12T07:38:55Z</time>
      </trkpt>
      <trkpt lat="44.13637" lon="5.25502">
        <ele>794.2</ele>
        <time>2021-06-12T07:38:57Z</time>
      </trkpt>
      <trkpt lat="44.1364" lon="5.25505">
        <ele>794.8</ele>
        <time>2021-06-12T07:39:01Z</time>
      </trkpt>
      <trkpt lat="44.13642" lon="5.25508">
        <ele>795.2</ele>
        <time>2021-06-12T07:39:03Z</time>
      </trkpt>
      <trkpt lat="44.13644" lon="5.25511">
        <ele>795.6</ele>
        <time>2021-06-12T07:39:05Z</time>
      </trkpt>
      <trkpt lat="44.13646" lon="5.25513">
        <ele>796</ele>
        <time>2021-06-12T07:39:07Z</time>
      </trkpt>
      <trkpt lat="44.13646" lon="5.25514">
        <ele>796.2</ele>
        <time>2021-06-12T07:39:08Z</time>
      </trkpt>
      <trkpt lat="44.1365" lon="5.25516">
        <ele>797</ele>
        <time>2021-06-12T07:39:11Z</time>
      </trkpt>
      <trkpt lat="44.1366" lon="5.25518">
        <ele>797.8</ele>
        <time>2021-06-12T07:39:17Z</time>
      </trkpt>
      <trkpt lat="44.13661" lon="5.25518">
        <ele>798</ele>
        <time>2021-06-12T07:39:18Z</time>
      </trkpt>
      <trkpt lat="44.13668" lon="5.25521">
        <ele>799</ele>
        <time>2021-06-12T07:39:24Z</time>
      </trkpt>
      <trkpt lat="44.13672" lon="5.25524">
        <ele>799.6</ele>
        <time>2021-06-12T07:39:27Z</time>
      </trkpt>
      <trkpt lat="44.13675" lon="5.25526">
        <ele>800.4</ele>
        <time>2021-06-12T07:39:30Z</time>
      </trkpt>
      <trkpt lat="44.13684" lon="5.25527">
        <ele>801.4</ele>
        <time>2021-06-12T07:39:35Z</time>
      </trkpt>
      <trkpt lat="44.13689" lon="5.25527">
        <ele>801.8</ele>
        <time>2021-06-12T07:39:38Z</time>
      </trkpt>
      <trkpt lat="44.13691" lon="5.25527">
        <ele>802.2</ele>
        <time>2021-06-12T07:39:41Z</time>
      </trkpt>
      <trkpt lat="44.13692" lon="5.25528">
        <ele>802.4</ele>
        <time>2021-06-12T07:39:42Z</time>
      </trkpt>
      <trkpt lat="44.13693" lon="5.25529">
        <ele>802.8</ele>
        <time>2021-06-12T07:39:44Z</time>
      </trkpt>
      <trkpt lat="44.13696" lon="5.25529">
        <ele>803.2</ele>
        <time>2021-06-12T07:39:46Z</time>
      </trkpt>
      <trkpt lat="44.13699" lon="5.2553">
        <ele>803.4</ele>
        <time>2021-06-12T07:39:48Z</time>
      </trkpt>
      <trkpt lat="44.13703" lon="5.2553">
        <ele>803.6</ele>
        <time>2021-06-12T07:39:50Z</time>
      </trkpt>
      <trkpt lat="44.1371" lon="5.25532">
        <ele>804.4</ele>
        <time>2021-06-12T07:39:55Z</time>
      </trkpt>
      <trkpt lat="44.13712" lon="5.25531">
        <ele>804.8</ele>
        <time>2021-06-12T07:39:57Z</time>
      </trkpt>
      <trkpt lat="44.13715" lon="5.2553">
        <ele>805.4</ele>
        <time>2021-06-12T07:40:00Z</time>
      </trkpt>
      <trkpt lat="44.13715" lon="5.25531">
        <ele>805.6</ele>
        <time>2021-06-12T07:40:01Z</time>
      </trkpt>
      <trkpt lat="44.13716" lon="5.25532">
        <ele>805.8</ele>
        <time>2021-06-12T07:40:02Z</time>
      </trkpt>
      <trkpt lat="44.13719" lon="5.25533">
        <ele>806.2</ele>
        <time>2021-06-12T07:40:05Z</time>
      </trkpt>
      <trkpt lat="44.13724" lon="5.25534">
        <ele>806.6</ele>
        <time>2021-06-12T07:40:10Z</time>
      </trkpt>
      <trkpt lat="44.13726" lon="5.25534">
        <ele>807</ele>
        <time>2021-06-12T07:40:11Z</time>
      </trkpt>
      <trkpt lat="44.13728" lon="5.25535">
        <ele>807.6</ele>
        <time>2021-06-12T07:40:13Z</time>
      </trkpt>
      <trkpt lat="44.1373" lon="5.25535">
        <ele>807.8</ele>
        <time>2021-06-12T07:40:14Z</time>
      </trkpt>
      <trkpt lat="44.13732" lon="5.25535">
        <ele>808</ele>
        <time>2021-06-12T07:40:16Z</time>
      </trkpt>
      <trkpt lat="44.13738" lon="5.25537">
        <ele>808.8</ele>
        <time>2021-06-12T07:40:21Z</time>
      </trkpt>
      <trkpt lat="44.13745" lon="5.25546">
        <ele>810</ele>
        <time>2021-06-12T07:40:27Z</time>
      </trkpt>
      <trkpt lat="44.13746" lon="5.25548">
        <ele>810.2</ele>
        <time>2021-06-12T07:40:29Z</time>
      </trkpt>
      <trkpt lat="44.13748" lon="5.25549">
        <ele>810.6</ele>
        <time>2021-06-12T07:40:31Z</time>
      </trkpt>
      <trkpt lat="44.13751" lon="5.25549">
        <ele>810.8</ele>
        <time>2021-06-12T07:40:33Z</time>
      </trkpt>
      <trkpt lat="44.13752" lon="5.25549">
        <ele>811</ele>
        <time>2021-06-12T07:40:34Z</time>
      </trkpt>
      <trkpt lat="44.13754" lon="5.25549">
        <ele>811.6</ele>
        <time>2021-06-12T07:40:36Z</time>
      </trkpt>
      <trkpt lat="44.13758" lon="5.2555">
        <ele>811.8</ele>
        <time>2021-06-12T07:40:39Z</time>
      </trkpt>
      <trkpt lat="44.1376" lon="5.2555">
        <ele>812.2</ele>
        <time>2021-06-12T07:40:41Z</time>
      </trkpt>
      <trkpt lat="44.13766" lon="5.25549">
        <ele>813.2</ele>
        <time>2021-06-12T07:40:46Z</time>
      </trkpt>
      <trkpt lat="44.13766" lon="5.25549">
        <ele>813.4</ele>
        <time>2021-06-12T07:40:47Z</time>
      </trkpt>
      <trkpt lat="44.13768" lon="5.2555">
        <ele>813.8</ele>
        <time>2021-06-12T07:40:49Z</time>
      </trkpt>
      <trkpt lat="44.13771" lon="5.25551">
        <ele>814.4</ele>
        <time>2021-06-12T07:40:53Z</time>
      </trkpt>
      <trkpt lat="44.13774" lon="5.25552">
        <ele>815</ele>
        <time>2021-06-12T07:40:56Z</time>
      </trkpt>
      <trkpt lat="44.13776" lon="5.25553">
        <ele>815.6</ele>
        <time>2021-06-12T07:40:58Z</time>
      </trkpt>
      <trkpt lat="44.13783" lon="5.25552">
        <ele>816.4</ele>
        <time>2021-06-12T07:41:03Z</time>
      </trkpt>
      <trkpt lat="44.13784" lon="5.25551">
        <ele>816.6</ele>
        <time>2021-06-12T07:41:04Z</time>
      </trkpt>
      <trkpt lat="44.13787" lon="5.25549">
        <ele>816.8</ele>
        <time>2021-06-12T07:41:06Z</time>
      </trkpt>
      <trkpt lat="44.13791" lon="5.25547">
        <ele>817.2</ele>
        <time>2021-06-12T07:41:09Z</time>
      </trkpt>
      <trkpt lat="44.13795" lon="5.25546">
        <ele>817.8</ele>
        <time>2021-06-12T07:41:12Z</time>
      </trkpt>
      <trkpt lat="44.13803" lon="5.25549">
        <ele>818.8</ele>
        <time>2021-06-12T07:41:19Z</time>
      </trkpt>
      <trkpt lat="44.13803" lon="5.25549">
        <ele>818.8</ele>
        <time>2021-06-12T07:41:20Z</time>
      </trkpt>
      <trkpt lat="44.13806" lon="5.2555">
        <ele>819.4</ele>
        <time>2021-06-12T07:41:23Z</time>
      </trkpt>
      <trkpt lat="44.13809" lon="5.25551">
        <ele>819.8</ele>
        <time>2021-06-12T07:41:25Z</time>
      </trkpt>
      <trkpt lat="44.13811" lon="5.25552">
        <ele>820.2</ele>
        <time>2021-06-12T07:41:27Z</time>
      </trkpt>
      <trkpt lat="44.13813" lon="5.25552">
        <ele>820.6</ele>
        <time>2021-06-12T07:41:29Z</time>
      </trkpt>
      <trkpt lat="44.13815" lon="5.25553">
        <ele>821</ele>
        <time>2021-06-12T07:41:31Z</time>
      </trkpt>
      <trkpt lat="44.13816" lon="5.25553">
        <ele>821.2</ele>
        <time>2021-06-12T07:41:32Z</time>
      </trkpt>
      <trkpt lat="44.13829" lon="5.25556">
        <ele>822.2</ele>
        <time>2021-06-12T07:41:38Z</time>
      </trkpt>
      <trkpt lat="44.13832" lon="5.25559">
        <ele>822.6</ele>
        <time>2021-06-12T07:41:41Z</time>
      </trkpt>
      <trkpt lat="44.13834" lon="5.25563">
        <ele>823</ele>
        <time>2021-06-12T07:41:44Z</time>
      </trkpt>
      <trkpt lat="44.13836" lon="5.25565">
        <ele>823.2</ele>
        <time>2021-06-12T07:41:46Z</time>
      </trkpt>
      <trkpt lat="44.13844" lon="5.25567">
        <ele>824.2</ele>
        <time>2021-06-12T07:41:52Z</time>
      </trkpt>
      <trkpt lat="44.13846" lon="5.25566">
        <ele>824.4</ele>
        <time>2021-06-12T07:41:53Z</time>
      </trkpt>
      <trkpt lat="44.13848" lon="5.25565">
        <ele>824.6</ele>
        <time>2021-06-12T07:41:55Z</time>
      </trkpt>
      <trkpt lat="44.13853" lon="5.25565">
        <ele>825.4</ele>
        <time>2021-06-12T07:42:00Z</time>
      </trkpt>
      <trkpt lat="44.13857" lon="5.25566">
        <ele>826</ele>
        <time>2021-06-12T07:42:04Z</time>
      </trkpt>
      <trkpt lat="44.1386" lon="5.25565">
        <ele>826.4</ele>
        <time>2021-06-12T07:42:06Z</time>
      </trkpt>
      <trkpt lat="44.13862" lon="5.25565">
        <ele>826.6</ele>
        <time>2021-06-12T07:42:07Z</time>
      </trkpt>
      <trkpt lat="44.13864" lon="5.25567">
        <ele>827.2</ele>
        <time>2021-06-12T07:42:10Z</time>
      </trkpt>
      <trkpt lat="44.13869" lon="5.25571">
        <ele>827.6</ele>
        <time>2021-06-12T07:42:14Z</time>
      </trkpt>
      <trkpt lat="44.13871" lon="5.25573">
        <ele>827.8</ele>
        <time>2021-06-12T07:42:17Z</time>
      </trkpt>
      <trkpt lat="44.13875" lon="5.25576">
        <ele>828.6</ele>
        <time>2021-06-12T07:42:20Z</time>
      </trkpt>
      <trkpt lat="44.13878" lon="5.25578">
        <ele>829.4</ele>
        <time>2021-06-12T07:42:23Z</time>
      </trkpt>
      <trkpt lat="44.13879" lon="5.25579">
        <ele>829.6</ele>
        <time>2021-06-12T07:42:24Z</time>
      </trkpt>
      <trkpt lat="44.13884" lon="5.25583">
        <ele>830.2</ele>
        <time>2021-06-12T07:42:27Z</time>
      </trkpt>
      <trkpt lat="44.13887" lon="5.25585">
        <ele>830.6</ele>
        <time>2021-06-12T07:42:29Z</time>
      </trkpt>
      <trkpt lat="44.13889" lon="5.25588">
        <ele>831.2</ele>
        <time>2021-06-12T07:42:31Z</time>
      </trkpt>
      <trkpt lat="44.13892" lon="5.25588">
        <ele>831.6</ele>
        <time>2021-06-12T07:42:33Z</time>
      </trkpt>
      <trkpt lat="44.13893" lon="5.25588">
        <ele>831.8</ele>
        <time>2021-06-12T07:42:34Z</time>
      </trkpt>
      <trkpt lat="44.13899" lon="5.25588">
        <ele>832.8</ele>
        <time>2021-06-12T07:42:39Z</time>
      </trkpt>
      <trkpt lat="44.139" lon="5.25588">
        <ele>833</ele>
        <time>2021-06-12T07:42:40Z</time>
      </trkpt>
      <trkpt lat="44.13901" lon="5.25588">
        <ele>833.2</ele>
        <time>2021-06-12T07:42:41Z</time>
      </trkpt>
      <trkpt lat="44.13905" lon="5.25589">
        <ele>833.6</ele>
        <time>2021-06-12T07:42:45Z</time>
      </trkpt>
      <trkpt lat="44.13907" lon="5.25589">
        <ele>834</ele>
        <time>2021-06-12T07:42:48Z</time>
      </trkpt>
      <trkpt lat="44.13908" lon="5.25589">
        <ele>834</ele>
        <time>2021-06-12T07:42:49Z</time>
      </trkpt>
      <trkpt lat="44.13915" lon="5.2559">
        <ele>835</ele>
        <time>2021-06-12T07:42:55Z</time>
      </trkpt>
      <trkpt lat="44.13917" lon="5.2559">
        <ele>835.2</ele>
        <time>2021-06-12T07:42:56Z</time>
      </trkpt>
      <trkpt lat="44.13919" lon="5.25589">
        <ele>835.4</ele>
        <time>2021-06-12T07:42:58Z</time>
      </trkpt>
      <trkpt lat="44.13926" lon="5.25588">
        <ele>836</ele>
        <time>2021-06-12T07:43:02Z</time>
      </trkpt>
      <trkpt lat="44.13927" lon="5.25588">
        <ele>836.2</ele>
        <time>2021-06-12T07:43:03Z</time>
      </trkpt>
      <trkpt lat="44.13928" lon="5.25587">
        <ele>836.4</ele>
        <time>2021-06-12T07:43:05Z</time>
      </trkpt>
      <trkpt lat="44.13933" lon="5.25585">
        <ele>837.2</ele>
        <time>2021-06-12T07:43:10Z</time>
      </trkpt>
      <trkpt lat="44.13934" lon="5.25585">
        <ele>837.2</ele>
        <time>2021-06-12T07:43:11Z</time>
      </trkpt>
      <trkpt lat="44.1394" lon="5.25586">
        <ele>838.2</ele>
        <time>2021-06-12T07:43:17Z</time>
      </trkpt>
      <trkpt lat="44.13941" lon="5.25586">
        <ele>838.4</ele>
        <time>2021-06-12T07:43:18Z</time>
      </trkpt>
      <trkpt lat="44.13947" lon="5.25587">
        <ele>839.4</ele>
        <time>2021-06-12T07:43:24Z</time>
      </trkpt>
      <trkpt lat="44.13951" lon="5.25585">
        <ele>839.8</ele>
        <time>2021-06-12T07:43:27Z</time>
      </trkpt>
      <trkpt lat="44.13953" lon="5.25584">
        <ele>840</ele>
        <time>2021-06-12T07:43:29Z</time>
      </trkpt>
      <trkpt lat="44.1396" lon="5.25584">
        <ele>840.4</ele>
        <time>2021-06-12T07:43:32Z</time>
      </trkpt>
      <trkpt lat="44.13961" lon="5.25583">
        <ele>840.6</ele>
        <time>2021-06-12T07:43:33Z</time>
      </trkpt>
      <trkpt lat="44.13962" lon="5.25583">
        <ele>840.6</ele>
        <time>2021-06-12T07:43:34Z</time>
      </trkpt>
      <trkpt lat="44.13963" lon="5.25583">
        <ele>841</ele>
        <time>2021-06-12T07:43:36Z</time>
      </trkpt>
      <trkpt lat="44.13968" lon="5.25582">
        <ele>841.4</ele>
        <time>2021-06-12T07:43:39Z</time>
      </trkpt>
      <trkpt lat="44.13969" lon="5.25581">
        <ele>841.6</ele>
        <time>2021-06-12T07:43:40Z</time>
      </trkpt>
      <trkpt lat="44.13972" lon="5.25581">
        <ele>842.2</ele>
        <time>2021-06-12T07:43:42Z</time>
      </trkpt>
      <trkpt lat="44.13978" lon="5.25578">
        <ele>842.6</ele>
        <time>2021-06-12T07:43:47Z</time>
      </trkpt>
      <trkpt lat="44.13981" lon="5.25576">
        <ele>842.8</ele>
        <time>2021-06-12T07:43:49Z</time>
      </trkpt>
      <trkpt lat="44.13989" lon="5.25573">
        <ele>843.8</ele>
        <time>2021-06-12T07:43:56Z</time>
      </trkpt>
      <trkpt lat="44.13991" lon="5.25574">
        <ele>844</ele>
        <time>2021-06-12T07:43:57Z</time>
      </trkpt>
      <trkpt lat="44.13993" lon="5.25576">
        <ele>844.2</ele>
        <time>2021-06-12T07:43:59Z</time>
      </trkpt>
      <trkpt lat="44.13997" lon="5.25579">
        <ele>844.6</ele>
        <time>2021-06-12T07:44:02Z</time>
      </trkpt>
      <trkpt lat="44.13998" lon="5.25579">
        <ele>844.8</ele>
        <time>2021-06-12T07:44:03Z</time>
      </trkpt>
      <trkpt lat="44.14" lon="5.25579">
        <ele>845.2</ele>
        <time>2021-06-12T07:44:05Z</time>
      </trkpt>
      <trkpt lat="44.14005" lon="5.25578">
        <ele>846</ele>
        <time>2021-06-12T07:44:08Z</time>
      </trkpt>
      <trkpt lat="44.14006" lon="5.25577">
        <ele>846.2</ele>
        <time>2021-06-12T07:44:09Z</time>
      </trkpt>
      <trkpt lat="44.14008" lon="5.25576">
        <ele>846.4</ele>
        <time>2021-06-12T07:44:11Z</time>
      </trkpt>
      <trkpt lat="44.14012" lon="5.25575">
        <ele>847.2</ele>
        <time>2021-06-12T07:44:16Z</time>
      </trkpt>
      <trkpt lat="44.14014" lon="5.25575">
        <ele>848</ele>
        <time>2021-06-12T07:44:19Z</time>
      </trkpt>
      <trkpt lat="44.14016" lon="5.25577">
        <ele>848.4</ele>
        <time>2021-06-12T07:44:21Z</time>
      </trkpt>
      <trkpt lat="44.1402" lon="5.25578">
        <ele>848.6</ele>
        <time>2021-06-12T07:44:23Z</time>
      </trkpt>
      <trkpt lat="44.14025" lon="5.25576">
        <ele>849.4</ele>
        <time>2021-06-12T07:44:26Z</time>
      </trkpt>
      <trkpt lat="44.14034" lon="5.25575">
        <ele>850.4</ele>
        <time>2021-06-12T07:44:32Z</time>
      </trkpt>
      <trkpt lat="44.14035" lon="5.25575">
        <ele>850.4</ele>
        <time>2021-06-12T07:44:33Z</time>
      </trkpt>
      <trkpt lat="44.14037" lon="5.25576">
        <ele>850.6</ele>
        <time>2021-06-12T07:44:35Z</time>
      </trkpt>
      <trkpt lat="44.14042" lon="5.2558">
        <ele>851.4</ele>
        <time>2021-06-12T07:44:40Z</time>
      </trkpt>
      <trkpt lat="44.1405" lon="5.25581">
        <ele>852.4</ele>
        <time>2021-06-12T07:44:46Z</time>
      </trkpt>
      <trkpt lat="44.14051" lon="5.25581">
        <ele>852.6</ele>
        <time>2021-06-12T07:44:47Z</time>
      </trkpt>
      <trkpt lat="44.14053" lon="5.25581">
        <ele>853</ele>
        <time>2021-06-12T07:44:49Z</time>
      </trkpt>
      <trkpt lat="44.14056" lon="5.25582">
        <ele>853.6</ele>
        <time>2021-06-12T07:44:53Z</time>
      </trkpt>
      <trkpt lat="44.14057" lon="5.25582">
        <ele>853.8</ele>
        <time>2021-06-12T07:44:54Z</time>
      </trkpt>
      <trkpt lat="44.14058" lon="5.25583">
        <ele>854</ele>
        <time>2021-06-12T07:44:55Z</time>
      </trkpt>
      <trkpt lat="44.14063" lon="5.25586">
        <ele>854.6</ele>
        <time>2021-06-12T07:45:01Z</time>
      </trkpt>
      <trkpt lat="44.14065" lon="5.25586">
        <ele>854.8</ele>
        <time>2021-06-12T07:45:03Z</time>
      </trkpt>
      <trkpt lat="44.14067" lon="5.25587">
        <ele>855</ele>
        <time>2021-06-12T07:45:05Z</time>
      </trkpt>
      <trkpt lat="44.14073" lon="5.25588">
        <ele>855.2</ele>
        <time>2021-06-12T07:45:08Z</time>
      </trkpt>
      <trkpt lat="44.14076" lon="5.25589">
        <ele>855.6</ele>
        <time>2021-06-12T07:45:10Z</time>
      </trkpt>
      <trkpt lat="44.14078" lon="5.25591">
        <ele>856</ele>
        <time>2021-06-12T07:45:12Z</time>
      </trkpt>
      <trkpt lat="44.14084" lon="5.25592">
        <ele>857.2</ele>
        <time>2021-06-12T07:45:16Z</time>
      </trkpt>
      <trkpt lat="44.14087" lon="5.25593">
        <ele>858.2</ele>
        <time>2021-06-12T07:45:21Z</time>
      </trkpt>
      <trkpt lat="44.14097" lon="5.25593">
        <ele>858.8</ele>
        <time>2021-06-12T07:45:27Z</time>
      </trkpt>
      <trkpt lat="44.14098" lon="5.25592">
        <ele>859.2</ele>
        <time>2021-06-12T07:45:29Z</time>
      </trkpt>
      <trkpt lat="44.14098" lon="5.25591">
        <ele>859.4</ele>
        <time>2021-06-12T07:45:31Z</time>
      </trkpt>
      <trkpt lat="44.141" lon="5.25582">
        <ele>860.4</ele>
        <time>2021-06-12T07:45:36Z</time>
      </trkpt>
      <trkpt lat="44.14101" lon="5.25582">
        <ele>860.6</ele>
        <time>2021-06-12T07:45:37Z</time>
      </trkpt>
      <trkpt lat="44.14106" lon="5.25572">
        <ele>861.6</ele>
        <time>2021-06-12T07:45:43Z</time>
      </trkpt>
      <trkpt lat="44.14112" lon="5.25573">
        <ele>862.2</ele>
        <time>2021-06-12T07:45:46Z</time>
      </trkpt>
      <trkpt lat="44.14119" lon="5.25575">
        <ele>862.6</ele>
        <time>2021-06-12T07:45:50Z</time>
      </trkpt>
      <trkpt lat="44.14121" lon="5.25575">
        <ele>862.8</ele>
        <time>2021-06-12T07:45:51Z</time>
      </trkpt>
      <trkpt lat="44.14125" lon="5.25574">
        <ele>863.4</ele>
        <time>2021-06-12T07:45:54Z</time>
      </trkpt>
      <trkpt lat="44.14126" lon="5.25574">
        <ele>863.8</ele>
        <time>2021-06-12T07:45:56Z</time>
      </trkpt>
      <trkpt lat="44.14129" lon="5.25573">
        <ele>864.2</ele>
        <time>2021-06-12T07:45:58Z</time>
      </trkpt>
      <trkpt lat="44.14132" lon="5.25573">
        <ele>864.8</ele>
        <time>2021-06-12T07:46:01Z</time>
      </trkpt>
      <trkpt lat="44.14132" lon="5.25573">
        <ele>864.8</ele>
        <time>2021-06-12T07:46:02Z</time>
      </trkpt>
      <trkpt lat="44.14137" lon="5.25576">
        <ele>865.4</ele>
        <time>2021-06-12T07:46:05Z</time>
      </trkpt>
      <trkpt lat="44.14143" lon="5.2558">
        <ele>866</ele>
        <time>2021-06-12T07:46:08Z</time>
      </trkpt>
      <trkpt lat="44.14145" lon="5.25582">
        <ele>866.2</ele>
        <time>2021-06-12T07:46:10Z</time>
      </trkpt>
      <trkpt lat="44.14148" lon="5.25583">
        <ele>866.8</ele>
        <time>2021-06-12T07:46:12Z</time>
      </trkpt>
      <trkpt lat="44.14149" lon="5.25583">
        <ele>867</ele>
        <time>2021-06-12T07:46:13Z</time>
      </trkpt>
      <trkpt lat="44.14153" lon="5.25585">
        <ele>868.2</ele>
        <time>2021-06-12T07:46:18Z</time>
      </trkpt>
      <trkpt lat="44.14157" lon="5.25587">
        <ele>868.8</ele>
        <time>2021-06-12T07:46:22Z</time>
      </trkpt>
      <trkpt lat="44.14158" lon="5.25589">
        <ele>869.2</ele>
        <time>2021-06-12T07:46:23Z</time>
      </trkpt>
      <trkpt lat="44.14158" lon="5.25589">
        <ele>869.4</ele>
        <time>2021-06-12T07:46:24Z</time>
      </trkpt>
      <trkpt lat="44.1416" lon="5.2559">
        <ele>869.8</ele>
        <time>2021-06-12T07:46:26Z</time>
      </trkpt>
      <trkpt lat="44.14164" lon="5.25593">
        <ele>870.2</ele>
        <time>2021-06-12T07:46:28Z</time>
      </trkpt>
      <trkpt lat="44.14165" lon="5.25593">
        <ele>870.4</ele>
        <time>2021-06-12T07:46:29Z</time>
      </trkpt>
      <trkpt lat="44.14166" lon="5.25594">
        <ele>870.8</ele>
        <time>2021-06-12T07:46:31Z</time>
      </trkpt>
      <trkpt lat="44.1417" lon="5.25596">
        <ele>871.2</ele>
        <time>2021-06-12T07:46:34Z</time>
      </trkpt>
      <trkpt lat="44.14172" lon="5.25597">
        <ele>871.4</ele>
        <time>2021-06-12T07:46:35Z</time>
      </trkpt>
      <trkpt lat="44.14173" lon="5.25599">
        <ele>871.8</ele>
        <time>2021-06-12T07:46:37Z</time>
      </trkpt>
      <trkpt lat="44.14175" lon="5.25603">
        <ele>872.2</ele>
        <time>2021-06-12T07:46:40Z</time>
      </trkpt>
      <trkpt lat="44.1418" lon="5.25609">
        <ele>873.2</ele>
        <time>2021-06-12T07:46:44Z</time>
      </trkpt>
      <trkpt lat="44.14181" lon="5.25611">
        <ele>873.4</ele>
        <time>2021-06-12T07:46:46Z</time>
      </trkpt>
      <trkpt lat="44.14182" lon="5.25612">
        <ele>873.6</ele>
        <time>2021-06-12T07:46:47Z</time>
      </trkpt>
      <trkpt lat="44.14186" lon="5.25614">
        <ele>874.4</ele>
        <time>2021-06-12T07:46:51Z</time>
      </trkpt>
      <trkpt lat="44.14187" lon="5.25614">
        <ele>874.6</ele>
        <time>2021-06-12T07:46:52Z</time>
      </trkpt>
      <trkpt lat="44.14195" lon="5.25618">
        <ele>875.4</ele>
        <time>2021-06-12T07:47:00Z</time>
      </trkpt>
      <trkpt lat="44.14197" lon="5.25619">
        <ele>875.6</ele>
        <time>2021-06-12T07:47:02Z</time>
      </trkpt>
      <trkpt lat="44.14204" lon="5.25624">
        <ele>876.8</ele>
        <time>2021-06-12T07:47:08Z</time>
      </trkpt>
      <trkpt lat="44.14208" lon="5.25626">
        <ele>877.4</ele>
        <time>2021-06-12T07:47:11Z</time>
      </trkpt>
      <trkpt lat="44.1421" lon="5.25629">
        <ele>877.8</ele>
        <time>2021-06-12T07:47:13Z</time>
      </trkpt>
      <trkpt lat="44.14215" lon="5.25633">
        <ele>879</ele>
        <time>2021-06-12T07:47:18Z</time>
      </trkpt>
      <trkpt lat="44.14217" lon="5.25635">
        <ele>879.4</ele>
        <time>2021-06-12T07:47:20Z</time>
      </trkpt>
      <trkpt lat="44.14218" lon="5.2564">
        <ele>879.8</ele>
        <time>2021-06-12T07:47:23Z</time>
      </trkpt>
      <trkpt lat="44.1422" lon="5.25641">
        <ele>880</ele>
        <time>2021-06-12T07:47:25Z</time>
      </trkpt>
      <trkpt lat="44.14222" lon="5.25641">
        <ele>880.2</ele>
        <time>2021-06-12T07:47:26Z</time>
      </trkpt>
      <trkpt lat="44.14225" lon="5.25641">
        <ele>880.4</ele>
        <time>2021-06-12T07:47:29Z</time>
      </trkpt>
      <trkpt lat="44.14227" lon="5.25643">
        <ele>880.6</ele>
        <time>2021-06-12T07:47:32Z</time>
      </trkpt>
      <trkpt lat="44.14228" lon="5.25643">
        <ele>881</ele>
        <time>2021-06-12T07:47:34Z</time>
      </trkpt>
      <trkpt lat="44.1423" lon="5.25644">
        <ele>881.4</ele>
        <time>2021-06-12T07:47:35Z</time>
      </trkpt>
      <trkpt lat="44.14234" lon="5.25645">
        <ele>882.2</ele>
        <time>2021-06-12T07:47:38Z</time>
      </trkpt>
      <trkpt lat="44.14236" lon="5.25645">
        <ele>882.4</ele>
        <time>2021-06-12T07:47:39Z</time>
      </trkpt>
      <trkpt lat="44.14236" lon="5.25647">
        <ele>883.2</ele>
        <time>2021-06-12T07:47:42Z</time>
      </trkpt>
      <trkpt lat="44.14237" lon="5.25654">
        <ele>883.8</ele>
        <time>2021-06-12T07:47:45Z</time>
      </trkpt>
      <trkpt lat="44.14237" lon="5.25658">
        <ele>884.4</ele>
        <time>2021-06-12T07:47:47Z</time>
      </trkpt>
      <trkpt lat="44.14237" lon="5.25663">
        <ele>885</ele>
        <time>2021-06-12T07:47:50Z</time>
      </trkpt>
      <trkpt lat="44.14237" lon="5.25666">
        <ele>885.4</ele>
        <time>2021-06-12T07:47:52Z</time>
      </trkpt>
      <trkpt lat="44.14238" lon="5.25668">
        <ele>885.8</ele>
        <time>2021-06-12T07:47:53Z</time>
      </trkpt>
      <trkpt lat="44.1424" lon="5.25673">
        <ele>886.4</ele>
        <time>2021-06-12T07:47:56Z</time>
      </trkpt>
      <trkpt lat="44.1424" lon="5.25674">
        <ele>886.6</ele>
        <time>2021-06-12T07:47:57Z</time>
      </trkpt>
      <trkpt lat="44.14241" lon="5.25676">
        <ele>887</ele>
        <time>2021-06-12T07:47:59Z</time>
      </trkpt>
      <trkpt lat="44.14241" lon="5.25681">
        <ele>887.8</ele>
        <time>2021-06-12T07:48:02Z</time>
      </trkpt>
      <trkpt lat="44.14242" lon="5.25683">
        <ele>888.2</ele>
        <time>2021-06-12T07:48:04Z</time>
      </trkpt>
      <trkpt lat="44.14243" lon="5.25688">
        <ele>888.8</ele>
        <time>2021-06-12T07:48:07Z</time>
      </trkpt>
      <trkpt lat="44.14244" lon="5.25689">
        <ele>889</ele>
        <time>2021-06-12T07:48:08Z</time>
      </trkpt>
      <trkpt lat="44.14245" lon="5.25692">
        <ele>889.4</ele>
        <time>2021-06-12T07:48:10Z</time>
      </trkpt>
      <trkpt lat="44.14246" lon="5.25696">
        <ele>890</ele>
        <time>2021-06-12T07:48:13Z</time>
      </trkpt>
      <trkpt lat="44.14248" lon="5.25698">
        <ele>890.4</ele>
        <time>2021-06-12T07:48:15Z</time>
      </trkpt>
      <trkpt lat="44.14253" lon="5.25702">
        <ele>891.2</ele>
        <time>2021-06-12T07:48:18Z</time>
      </trkpt>
      <trkpt lat="44.14253" lon="5.25704">
        <ele>891.6</ele>
        <time>2021-06-12T07:48:19Z</time>
      </trkpt>
      <trkpt lat="44.14254" lon="5.25709">
        <ele>892.4</ele>
        <time>2021-06-12T07:48:23Z</time>
      </trkpt>
      <trkpt lat="44.14255" lon="5.25711">
        <ele>892.8</ele>
        <time>2021-06-12T07:48:25Z</time>
      </trkpt>
      <trkpt lat="44.14257" lon="5.25713">
        <ele>893.4</ele>
        <time>2021-06-12T07:48:27Z</time>
      </trkpt>
      <trkpt lat="44.14258" lon="5.25716">
        <ele>894</ele>
        <time>2021-06-12T07:48:30Z</time>
      </trkpt>
      <trkpt lat="44.1426" lon="5.25719">
        <ele>894.6</ele>
        <time>2021-06-12T07:48:33Z</time>
      </trkpt>
      <trkpt lat="44.1426" lon="5.2572">
        <ele>894.8</ele>
        <time>2021-06-12T07:48:34Z</time>
      </trkpt>
      <trkpt lat="44.1426" lon="5.25721">
        <ele>895.2</ele>
        <time>2021-06-12T07:48:35Z</time>
      </trkpt>
      <trkpt lat="44.14261" lon="5.25724">
        <ele>895.8</ele>
        <time>2021-06-12T07:48:37Z</time>
      </trkpt>
      <trkpt lat="44.14263" lon="5.25729">
        <ele>897</ele>
        <time>2021-06-12T07:48:42Z</time>
      </trkpt>
      <trkpt lat="44.14266" lon="5.25731">
        <ele>897.8</ele>
        <time>2021-06-12T07:48:45Z</time>
      </trkpt>
      <trkpt lat="44.14268" lon="5.25731">
        <ele>898.2</ele>
        <time>2021-06-12T07:48:47Z</time>
      </trkpt>
      <trkpt lat="44.1427" lon="5.25733">
        <ele>899</ele>
        <time>2021-06-12T07:48:50Z</time>
      </trkpt>
      <trkpt lat="44.1427" lon="5.25734">
        <ele>899.4</ele>
        <time>2021-06-12T07:48:52Z</time>
      </trkpt>
      <trkpt lat="44.14273" lon="5.25737">
        <ele>900.4</ele>
        <time>2021-06-12T07:48:56Z</time>
      </trkpt>
      <trkpt lat="44.14274" lon="5.25738">
        <ele>900.6</ele>
        <time>2021-06-12T07:48:57Z</time>
      </trkpt>
      <trkpt lat="44.14275" lon="5.25739">
        <ele>900.8</ele>
        <time>2021-06-12T07:48:58Z</time>
      </trkpt>
      <trkpt lat="44.14277" lon="5.25741">
        <ele>901.2</ele>
        <time>2021-06-12T07:49:00Z</time>
      </trkpt>
      <trkpt lat="44.14279" lon="5.25745">
        <ele>901.8</ele>
        <time>2021-06-12T07:49:02Z</time>
      </trkpt>
      <trkpt lat="44.14285" lon="5.2575">
        <ele>902.6</ele>
        <time>2021-06-12T07:49:06Z</time>
      </trkpt>
      <trkpt lat="44.14286" lon="5.2575">
        <ele>902.8</ele>
        <time>2021-06-12T07:49:07Z</time>
      </trkpt>
      <trkpt lat="44.14286" lon="5.25751">
        <ele>903</ele>
        <time>2021-06-12T07:49:08Z</time>
      </trkpt>
      <trkpt lat="44.14289" lon="5.25752">
        <ele>903.4</ele>
        <time>2021-06-12T07:49:10Z</time>
      </trkpt>
      <trkpt lat="44.14291" lon="5.25753">
        <ele>903.8</ele>
        <time>2021-06-12T07:49:12Z</time>
      </trkpt>
      <trkpt lat="44.14293" lon="5.25754">
        <ele>904</ele>
        <time>2021-06-12T07:49:13Z</time>
      </trkpt>
      <trkpt lat="44.14299" lon="5.25756">
        <ele>905</ele>
        <time>2021-06-12T07:49:17Z</time>
      </trkpt>
      <trkpt lat="44.14303" lon="5.25761">
        <ele>906.2</ele>
        <time>2021-06-12T07:49:23Z</time>
      </trkpt>
      <trkpt lat="44.14303" lon="5.25763">
        <ele>906.8</ele>
        <time>2021-06-12T07:49:25Z</time>
      </trkpt>
      <trkpt lat="44.14303" lon="5.25766">
        <ele>907.2</ele>
        <time>2021-06-12T07:49:27Z</time>
      </trkpt>
      <trkpt lat="44.14303" lon="5.25768">
        <ele>907.4</ele>
        <time>2021-06-12T07:49:29Z</time>
      </trkpt>
      <trkpt lat="44.14301" lon="5.25767">
        <ele>908</ele>
        <time>2021-06-12T07:50:23Z</time>
      </trkpt>
      <trkpt lat="44.14303" lon="5.25764">
        <ele>908.4</ele>
        <time>2021-06-12T07:50:57Z</time>
      </trkpt>
      <trkpt lat="44.14302" lon="5.25764">
        <ele>908.4</ele>
        <time>2021-06-12T07:50:59Z</time>
      </trkpt>
      <trkpt lat="44.14302" lon="5.25764">
        <ele>908.4</ele>
        <time>2021-06-12T07:51:06Z</time>
      </trkpt>
      <trkpt lat="44.14303" lon="5.25765">
        <ele>908.4</ele>
        <time>2021-06-12T07:51:12Z</time>
      </trkpt>
      <trkpt lat="44.143" lon="5.25765">
        <ele>907.8</ele>
        <time>2021-06-12T07:51:27Z</time>
      </trkpt>
      <trkpt lat="44.14299" lon="5.25763">
        <ele>907.8</ele>
        <time>2021-06-12T07:51:45Z</time>
      </trkpt>
      <trkpt lat="44.14303" lon="5.25767">
        <ele>907.8</ele>
        <time>2021-06-12T07:52:06Z</time>
        <extensions>
          <gpxtpx:TrackPointExtension xmlns:gpxtpx="http://www.garmin.com/xmlschemas/TrackPointExtension/v1">
            <gpxtpx:hr>139</gpxtpx:hr>
          </gpxtpx:TrackPointExtension>
        </extensions>
      </trkpt>
      <trkpt lat="44.14304" lon="5.25766">
        <ele>907.8</ele>
        <time>2021-06-12T07:52:07Z</time>
        <extensions>
          <gpxtpx:TrackPointExtension xmlns:gpxtpx="http://www.garmin.com/xmlschemas/TrackPointExtension/v1">
            <gpxtpx:hr>139</gpxtpx:hr>
          </gpxtpx:TrackPointExtension>
        </extensions>
      </trkpt>
      <trkpt lat="44.143" lon="5.25765">
        <ele>907.8</ele>
        <time>2021-06-12T07:52:13Z</time>
        <extensions>
          <gpxtpx:TrackPointExtension xmlns:gpxtpx="http://www.garmin.com/xmlschemas/TrackPointExtension/v1">
            <gpxtpx:hr>136</gpxtpx:hr>
          </gpxtpx:TrackPointExtension>
        </extensions>
      </trkpt>
      <trkpt lat="44.14299" lon="5.25764">
        <ele>907.8</ele>
        <time>2021-06-12T07:52:15Z</time>
        <extensions>
          <gpxtpx:TrackPointExtension xmlns:gpxtpx="http://www.garmin.com/xmlschemas/TrackPointExtension/v1">
            <gpxtpx:hr>131</gpxtpx:hr>
          </gpxtpx:TrackPointExtension>
        </extensions>
      </trkpt>
      <trkpt lat="44.143" lon="5.25764">
        <ele>907.8</ele>
        <time>2021-06-12T07:52:18Z</time>
        <extensions>
          <gpxtpx:TrackPointExtension xmlns:gpxtpx="http://www.garmin.com/xmlschemas/TrackPointExtension/v1">
            <gpxtpx:hr>135</gpxtpx:hr>
          </gpxtpx:TrackPointExtension>
        </extensions>
      </trkpt>
      <trkpt lat="44.143" lon="5.25765">
        <ele>907.8</ele>
        <time>2021-06-12T07:52:21Z</time>
        <extensions>
          <gpxtpx:TrackPointExtension xmlns:gpxtpx="http://www.garmin.com/xmlschemas/TrackPointExtension/v1">
            <gpxtpx:hr>132</gpxtpx:hr>
          </gpxtpx:TrackPointExtension>
        </extensions>
      </trkpt>
      <trkpt lat="44.14299" lon="5.25766">
        <ele>907.8</ele>
        <time>2021-06-12T07:52:29Z</time>
        <extensions>
          <gpxtpx:TrackPointExtension xmlns:gpxtpx="http://www.garmin.com/xmlschemas/TrackPointExtension/v1">
            <gpxtpx:hr>128</gpxtpx:hr>
          </gpxtpx:TrackPointExtension>
        </extensions>
      </trkpt>
      <trkpt lat="44.14299" lon="5.25766">
        <ele>908</ele>
        <time>2021-06-12T07:52:30Z</time>
        <extensions>
          <gpxtpx:TrackPointExtension xmlns:gpxtpx="http://www.garmin.com/xmlschemas/TrackPointExtension/v1">
            <gpxtpx:hr>128</gpxtpx:hr>
          </gpxtpx:TrackPointExtension>
        </extensions>
      </trkpt>
      <trkpt lat="44.14304" lon="5.25762">
        <ele>907.8</ele>
        <time>2021-06-12T07:52:36Z</time>
        <extensions>
          <gpxtpx:TrackPointExtension xmlns:gpxtpx="http://www.garmin.com/xmlschemas/TrackPointExtension/v1">
            <gpxtpx:hr>131</gpxtpx:hr>
          </gpxtpx:TrackPointExtension>
        </extensions>
      </trkpt>
      <trkpt lat="44.14305" lon="5.25761">
        <ele>907.8</ele>
        <time>2021-06-12T07:52:38Z</time>
        <extensions>
          <gpxtpx:TrackPointExtension xmlns:gpxtpx="http://www.garmin.com/xmlschemas/TrackPointExtension/v1">
            <gpxtpx:hr>128</gpxtpx:hr>
          </gpxtpx:TrackPointExtension>
        </extensions>
      </trkpt>
      <trkpt lat="44.14305" lon="5.2576">
        <ele>908</ele>
        <time>2021-06-12T07:52:47Z</time>
        <extensions>
          <gpxtpx:TrackPointExtension xmlns:gpxtpx="http://www.garmin.com/xmlschemas/TrackPointExtension/v1">
            <gpxtpx:hr>125</gpxtpx:hr>
          </gpxtpx:TrackPointExtension>
        </extensions>
      </trkpt>
      <trkpt lat="44.14303" lon="5.25761">
        <ele>908</ele>
        <time>2021-06-12T07:52:51Z</time>
        <extensions>
          <gpxtpx:TrackPointExtension xmlns:gpxtpx="http://www.garmin.com/xmlschemas/TrackPointExtension/v1">
            <gpxtpx:hr>128</gpxtpx:hr>
          </gpxtpx:TrackPointExtension>
        </extensions>
      </trkpt>
      <trkpt lat="44.14303" lon="5.2576">
        <ele>908</ele>
        <time>2021-06-12T07:52:55Z</time>
        <extensions>
          <gpxtpx:TrackPointExtension xmlns:gpxtpx="http://www.garmin.com/xmlschemas/TrackPointExtension/v1">
            <gpxtpx:hr>124</gpxtpx:hr>
          </gpxtpx:TrackPointExtension>
        </extensions>
      </trkpt>
      <trkpt lat="44.14303" lon="5.25761">
        <ele>908</ele>
        <time>2021-06-12T07:53:05Z</time>
        <extensions>
          <gpxtpx:TrackPointExtension xmlns:gpxtpx="http://www.garmin.com/xmlschemas/TrackPointExtension/v1">
            <gpxtpx:hr>121</gpxtpx:hr>
          </gpxtpx:TrackPointExtension>
        </extensions>
      </trkpt>
      <trkpt lat="44.14303" lon="5.25762">
        <ele>908</ele>
        <time>2021-06-12T07:53:10Z</time>
        <extensions>
          <gpxtpx:TrackPointExtension xmlns:gpxtpx="http://www.garmin.com/xmlschemas/TrackPointExtension/v1">
            <gpxtpx:hr>124</gpxtpx:hr>
          </gpxtpx:TrackPointExtension>
        </extensions>
      </trkpt>
      <trkpt lat="44.14303" lon="5.25762">
        <ele>908</ele>
        <time>2021-06-12T07:53:12Z</time>
        <extensions>
          <gpxtpx:TrackPointExtension xmlns:gpxtpx="http://www.garmin.com/xmlschemas/TrackPointExtension/v1">
            <gpxtpx:hr>121</gpxtpx:hr>
          </gpxtpx:TrackPointExtension>
        </extensions>
      </trkpt>
      <trkpt lat="44.14305" lon="5.25766">
        <ele>908</ele>
        <time>2021-06-12T07:53:23Z</time>
        <extensions>
          <gpxtpx:TrackPointExtension xmlns:gpxtpx="http://www.garmin.com/xmlschemas/TrackPointExtension/v1">
            <gpxtpx:hr>120</gpxtpx:hr>
          </gpxtpx:TrackPointExtension>
        </extensions>
      </trkpt>
      <trkpt lat="44.14306" lon="5.25768">
        <ele>908</ele>
        <time>2021-06-12T07:53:24Z</time>
        <extensions>
          <gpxtpx:TrackPointExtension xmlns:gpxtpx="http://www.garmin.com/xmlschemas/TrackPointExtension/v1">
            <gpxtpx:hr>120</gpxtpx:hr>
          </gpxtpx:TrackPointExtension>
        </extensions>
      </trkpt>
      <trkpt lat="44.14306" lon="5.25769">
        <ele>908</ele>
        <time>2021-06-12T07:53:25Z</time>
        <extensions>
          <gpxtpx:TrackPointExtension xmlns:gpxtpx="http://www.garmin.com/xmlschemas/TrackPointExtension/v1">
            <gpxtpx:hr>119</gpxtpx:hr>
          </gpxtpx:TrackPointExtension>
        </extensions>
      </trkpt>
      <trkpt lat="44.14308" lon="5.25773">
        <ele>908.6</ele>
        <time>2021-06-12T07:53:28Z</time>
        <extensions>
          <gpxtpx:TrackPointExtension xmlns:gpxtpx="http://www.garmin.com/xmlschemas/TrackPointExtension/v1">
            <gpxtpx:hr>118</gpxtpx:hr>
          </gpxtpx:TrackPointExtension>
        </extensions>
      </trkpt>
      <trkpt lat="44.14309" lon="5.25775">
        <ele>909.4</ele>
        <time>2021-06-12T07:53:30Z</time>
        <extensions>
          <gpxtpx:TrackPointExtension xmlns:gpxtpx="http://www.garmin.com/xmlschemas/TrackPointExtension/v1">
            <gpxtpx:hr>118</gpxtpx:hr>
          </gpxtpx:TrackPointExtension>
        </extensions>
      </trkpt>
      <trkpt lat="44.1431" lon="5.25775">
        <ele>909.6</ele>
        <time>2021-06-12T07:53:31Z</time>
        <extensions>
          <gpxtpx:TrackPointExtension xmlns:gpxtpx="http://www.garmin.com/xmlschemas/TrackPointExtension/v1">
            <gpxtpx:hr>118</gpxtpx:hr>
          </gpxtpx:TrackPointExtension>
        </extensions>
      </trkpt>
      <trkpt lat="44.14312" lon="5.25776">
        <ele>910</ele>
        <time>2021-06-12T07:53:33Z</time>
        <extensions>
          <gpxtpx:TrackPointExtension xmlns:gpxtpx="http://www.garmin.com/xmlschemas/TrackPointExtension/v1">
            <gpxtpx:hr>119</gpxtpx:hr>
          </gpxtpx:TrackPointExtension>
        </extensions>
      </trkpt>
      <trkpt lat="44.14315" lon="5.25778">
        <ele>910.6</ele>
        <time>2021-06-12T07:53:36Z</time>
        <extensions>
          <gpxtpx:TrackPointExtension xmlns:gpxtpx="http://www.garmin.com/xmlschemas/TrackPointExtension/v1">
            <gpxtpx:hr>120</gpxtpx:hr>
          </gpxtpx:TrackPointExtension>
        </extensions>
      </trkpt>
      <trkpt lat="44.14318" lon="5.25781">
        <ele>911.4</ele>
        <time>2021-06-12T07:53:39Z</time>
        <extensions>
          <gpxtpx:TrackPointExtension xmlns:gpxtpx="http://www.garmin.com/xmlschemas/TrackPointExtension/v1">
            <gpxtpx:hr>123</gpxtpx:hr>
          </gpxtpx:TrackPointExtension>
        </extensions>
      </trkpt>
      <trkpt lat="44.14318" lon="5.25783">
        <ele>911.6</ele>
        <time>2021-06-12T07:53:40Z</time>
        <extensions>
          <gpxtpx:TrackPointExtension xmlns:gpxtpx="http://www.garmin.com/xmlschemas/TrackPointExtension/v1">
            <gpxtpx:hr>123</gpxtpx:hr>
          </gpxtpx:TrackPointExtension>
        </extensions>
      </trkpt>
      <trkpt lat="44.14319" lon="5.25784">
        <ele>911.8</ele>
        <time>2021-06-12T07:53:41Z</time>
        <extensions>
          <gpxtpx:TrackPointExtension xmlns:gpxtpx="http://www.garmin.com/xmlschemas/TrackPointExtension/v1">
            <gpxtpx:hr>124</gpxtpx:hr>
          </gpxtpx:TrackPointExtension>
        </extensions>
      </trkpt>
      <trkpt lat="44.1432" lon="5.25785">
        <ele>912</ele>
        <time>2021-06-12T07:53:42Z</time>
        <extensions>
          <gpxtpx:TrackPointExtension xmlns:gpxtpx="http://www.garmin.com/xmlschemas/TrackPointExtension/v1">
            <gpxtpx:hr>124</gpxtpx:hr>
          </gpxtpx:TrackPointExtension>
        </extensions>
      </trkpt>
      <trkpt lat="44.14322" lon="5.25786">
        <ele>912.8</ele>
        <time>2021-06-12T07:53:45Z</time>
        <extensions>
          <gpxtpx:TrackPointExtension xmlns:gpxtpx="http://www.garmin.com/xmlschemas/TrackPointExtension/v1">
            <gpxtpx:hr>126</gpxtpx:hr>
          </gpxtpx:TrackPointExtension>
        </extensions>
      </trkpt>
      <trkpt lat="44.14325" lon="5.25787">
        <ele>913.2</ele>
        <time>2021-06-12T07:53:47Z</time>
        <extensions>
          <gpxtpx:TrackPointExtension xmlns:gpxtpx="http://www.garmin.com/xmlschemas/TrackPointExtension/v1">
            <gpxtpx:hr>125</gpxtpx:hr>
          </gpxtpx:TrackPointExtension>
        </extensions>
      </trkpt>
      <trkpt lat="44.14326" lon="5.25788">
        <ele>913.6</ele>
        <time>2021-06-12T07:53:48Z</time>
        <extensions>
          <gpxtpx:TrackPointExtension xmlns:gpxtpx="http://www.garmin.com/xmlschemas/TrackPointExtension/v1">
            <gpxtpx:hr>126</gpxtpx:hr>
          </gpxtpx:TrackPointExtension>
        </extensions>
      </trkpt>
      <trkpt lat="44.14326" lon="5.25791">
        <ele>914</ele>
        <time>2021-06-12T07:53:50Z</time>
        <extensions>
          <gpxtpx:TrackPointExtension xmlns:gpxtpx="http://www.garmin.com/xmlschemas/TrackPointExtension/v1">
            <gpxtpx:hr>126</gpxtpx:hr>
          </gpxtpx:TrackPointExtension>
        </extensions>
      </trkpt>
      <trkpt lat="44.14327" lon="5.25793">
        <ele>914.4</ele>
        <time>2021-06-12T07:53:52Z</time>
        <extensions>
          <gpxtpx:TrackPointExtension xmlns:gpxtpx="http://www.garmin.com/xmlschemas/TrackPointExtension/v1">
            <gpxtpx:hr>126</gpxtpx:hr>
          </gpxtpx:TrackPointExtension>
        </extensions>
      </trkpt>
      <trkpt lat="44.14328" lon="5.25794">
        <ele>914.8</ele>
        <time>2021-06-12T07:53:53Z</time>
        <extensions>
          <gpxtpx:TrackPointExtension xmlns:gpxtpx="http://www.garmin.com/xmlschemas/TrackPointExtension/v1">
            <gpxtpx:hr>128</gpxtpx:hr>
          </gpxtpx:TrackPointExtension>
        </extensions>
      </trkpt>
      <trkpt lat="44.1433" lon="5.25794">
        <ele>915</ele>
        <time>2021-06-12T07:53:54Z</time>
        <extensions>
          <gpxtpx:TrackPointExtension xmlns:gpxtpx="http://www.garmin.com/xmlschemas/TrackPointExtension/v1">
            <gpxtpx:hr>128</gpxtpx:hr>
          </gpxtpx:TrackPointExtension>
        </extensions>
      </trkpt>
      <trkpt lat="44.14333" lon="5.25797">
        <ele>915.8</ele>
        <time>2021-06-12T07:53:57Z</time>
        <extensions>
          <gpxtpx:TrackPointExtension xmlns:gpxtpx="http://www.garmin.com/xmlschemas/TrackPointExtension/v1">
            <gpxtpx:hr>129</gpxtpx:hr>
          </gpxtpx:TrackPointExtension>
        </extensions>
      </trkpt>
      <trkpt lat="44.14335" lon="5.25799">
        <ele>916.2</ele>
        <time>2021-06-12T07:53:59Z</time>
        <extensions>
          <gpxtpx:TrackPointExtension xmlns:gpxtpx="http://www.garmin.com/xmlschemas/TrackPointExtension/v1">
            <gpxtpx:hr>129</gpxtpx:hr>
          </gpxtpx:TrackPointExtension>
        </extensions>
      </trkpt>
      <trkpt lat="44.14337" lon="5.25802">
        <ele>917</ele>
        <time>2021-06-12T07:54:03Z</time>
        <extensions>
          <gpxtpx:TrackPointExtension xmlns:gpxtpx="http://www.garmin.com/xmlschemas/TrackPointExtension/v1">
            <gpxtpx:hr>130</gpxtpx:hr>
          </gpxtpx:TrackPointExtension>
        </extensions>
      </trkpt>
      <trkpt lat="44.14338" lon="5.25802">
        <ele>917.2</ele>
        <time>2021-06-12T07:54:04Z</time>
        <extensions>
          <gpxtpx:TrackPointExtension xmlns:gpxtpx="http://www.garmin.com/xmlschemas/TrackPointExtension/v1">
            <gpxtpx:hr>130</gpxtpx:hr>
          </gpxtpx:TrackPointExtension>
        </extensions>
      </trkpt>
      <trkpt lat="44.14341" lon="5.25802">
        <ele>918.2</ele>
        <time>2021-06-12T07:54:07Z</time>
        <extensions>
          <gpxtpx:TrackPointExtension xmlns:gpxtpx="http://www.garmin.com/xmlschemas/TrackPointExtension/v1">
            <gpxtpx:hr>134</gpxtpx:hr>
          </gpxtpx:TrackPointExtension>
        </extensions>
      </trkpt>
      <trkpt lat="44.14342" lon="5.25803">
        <ele>918.4</ele>
        <time>2021-06-12T07:54:08Z</time>
        <extensions>
          <gpxtpx:TrackPointExtension xmlns:gpxtpx="http://www.garmin.com/xmlschemas/TrackPointExtension/v1">
            <gpxtpx:hr>138</gpxtpx:hr>
          </gpxtpx:TrackPointExtension>
        </extensions>
      </trkpt>
      <trkpt lat="44.14344" lon="5.25803">
        <ele>918.8</ele>
        <time>2021-06-12T07:54:10Z</time>
        <extensions>
          <gpxtpx:TrackPointExtension xmlns:gpxtpx="http://www.garmin.com/xmlschemas/TrackPointExtension/v1">
            <gpxtpx:hr>141</gpxtpx:hr>
          </gpxtpx:TrackPointExtension>
        </extensions>
      </trkpt>
      <trkpt lat="44.14345" lon="5.25803">
        <ele>919</ele>
        <time>2021-06-12T07:54:11Z</time>
        <extensions>
          <gpxtpx:TrackPointExtension xmlns:gpxtpx="http://www.garmin.com/xmlschemas/TrackPointExtension/v1">
            <gpxtpx:hr>141</gpxtpx:hr>
          </gpxtpx:TrackPointExtension>
        </extensions>
      </trkpt>
      <trkpt lat="44.14346" lon="5.25806">
        <ele>919.6</ele>
        <time>2021-06-12T07:54:13Z</time>
        <extensions>
          <gpxtpx:TrackPointExtension xmlns:gpxtpx="http://www.garmin.com/xmlschemas/TrackPointExtension/v1">
            <gpxtpx:hr>142</gpxtpx:hr>
          </gpxtpx:TrackPointExtension>
        </extensions>
      </trkpt>
      <trkpt lat="44.14346" lon="5.25807">
        <ele>919.8</ele>
        <time>2021-06-12T07:54:14Z</time>
        <extensions>
          <gpxtpx:TrackPointExtension xmlns:gpxtpx="http://www.garmin.com/xmlschemas/TrackPointExtension/v1">
            <gpxtpx:hr>142</gpxtpx:hr>
          </gpxtpx:TrackPointExtension>
        </extensions>
      </trkpt>
      <trkpt lat="44.14348" lon="5.25808">
        <ele>920.6</ele>
        <time>2021-06-12T07:54:17Z</time>
        <extensions>
          <gpxtpx:TrackPointExtension xmlns:gpxtpx="http://www.garmin.com/xmlschemas/TrackPointExtension/v1">
            <gpxtpx:hr>145</gpxtpx:hr>
          </gpxtpx:TrackPointExtension>
        </extensions>
      </trkpt>
      <trkpt lat="44.14349" lon="5.25811">
        <ele>921</ele>
        <time>2021-06-12T07:54:18Z</time>
        <extensions>
          <gpxtpx:TrackPointExtension xmlns:gpxtpx="http://www.garmin.com/xmlschemas/TrackPointExtension/v1">
            <gpxtpx:hr>145</gpxtpx:hr>
          </gpxtpx:TrackPointExtension>
        </extensions>
      </trkpt>
      <trkpt lat="44.14348" lon="5.25818">
        <ele>921.8</ele>
        <time>2021-06-12T07:54:21Z</time>
        <extensions>
          <gpxtpx:TrackPointExtension xmlns:gpxtpx="http://www.garmin.com/xmlschemas/TrackPointExtension/v1">
            <gpxtpx:hr>147</gpxtpx:hr>
          </gpxtpx:TrackPointExtension>
        </extensions>
      </trkpt>
      <trkpt lat="44.14349" lon="5.25819">
        <ele>922</ele>
        <time>2021-06-12T07:54:22Z</time>
        <extensions>
          <gpxtpx:TrackPointExtension xmlns:gpxtpx="http://www.garmin.com/xmlschemas/TrackPointExtension/v1">
            <gpxtpx:hr>146</gpxtpx:hr>
          </gpxtpx:TrackPointExtension>
        </extensions>
      </trkpt>
      <trkpt lat="44.14349" lon="5.25822">
        <ele>922.6</ele>
        <time>2021-06-12T07:54:24Z</time>
        <extensions>
          <gpxtpx:TrackPointExtension xmlns:gpxtpx="http://www.garmin.com/xmlschemas/TrackPointExtension/v1">
            <gpxtpx:hr>146</gpxtpx:hr>
          </gpxtpx:TrackPointExtension>
        </extensions>
      </trkpt>
      <trkpt lat="44.1435" lon="5.25824">
        <ele>923.2</ele>
        <time>2021-06-12T07:54:26Z</time>
        <extensions>
          <gpxtpx:TrackPointExtension xmlns:gpxtpx="http://www.garmin.com/xmlschemas/TrackPointExtension/v1">
            <gpxtpx:hr>147</gpxtpx:hr>
          </gpxtpx:TrackPointExtension>
        </extensions>
      </trkpt>
      <trkpt lat="44.14349" lon="5.25833">
        <ele>924</ele>
        <time>2021-06-12T07:54:31Z</time>
        <extensions>
          <gpxtpx:TrackPointExtension xmlns:gpxtpx="http://www.garmin.com/xmlschemas/TrackPointExtension/v1">
            <gpxtpx:hr>146</gpxtpx:hr>
          </gpxtpx:TrackPointExtension>
        </extensions>
      </trkpt>
      <trkpt lat="44.14348" lon="5.25839">
        <ele>924.2</ele>
        <time>2021-06-12T07:54:34Z</time>
        <extensions>
          <gpxtpx:TrackPointExtension xmlns:gpxtpx="http://www.garmin.com/xmlschemas/TrackPointExtension/v1">
            <gpxtpx:hr>146</gpxtpx:hr>
          </gpxtpx:TrackPointExtension>
        </extensions>
      </trkpt>
      <trkpt lat="44.14348" lon="5.25841">
        <ele>924.4</ele>
        <time>2021-06-12T07:54:35Z</time>
        <extensions>
          <gpxtpx:TrackPointExtension xmlns:gpxtpx="http://www.garmin.com/xmlschemas/TrackPointExtension/v1">
            <gpxtpx:hr>145</gpxtpx:hr>
          </gpxtpx:TrackPointExtension>
        </extensions>
      </trkpt>
      <trkpt lat="44.14348" lon="5.25845">
        <ele>924.8</ele>
        <time>2021-06-12T07:54:37Z</time>
        <extensions>
          <gpxtpx:TrackPointExtension xmlns:gpxtpx="http://www.garmin.com/xmlschemas/TrackPointExtension/v1">
            <gpxtpx:hr>145</gpxtpx:hr>
          </gpxtpx:TrackPointExtension>
        </extensions>
      </trkpt>
      <trkpt lat="44.14348" lon="5.25847">
        <ele>924.8</ele>
        <time>2021-06-12T07:54:38Z</time>
        <extensions>
          <gpxtpx:TrackPointExtension xmlns:gpxtpx="http://www.garmin.com/xmlschemas/TrackPointExtension/v1">
            <gpxtpx:hr>145</gpxtpx:hr>
          </gpxtpx:TrackPointExtension>
        </extensions>
      </trkpt>
      <trkpt lat="44.14347" lon="5.25859">
        <ele>925.4</ele>
        <time>2021-06-12T07:54:45Z</time>
        <extensions>
          <gpxtpx:TrackPointExtension xmlns:gpxtpx="http://www.garmin.com/xmlschemas/TrackPointExtension/v1">
            <gpxtpx:hr>145</gpxtpx:hr>
          </gpxtpx:TrackPointExtension>
        </extensions>
      </trkpt>
      <trkpt lat="44.14349" lon="5.25865">
        <ele>925.6</ele>
        <time>2021-06-12T07:54:49Z</time>
        <extensions>
          <gpxtpx:TrackPointExtension xmlns:gpxtpx="http://www.garmin.com/xmlschemas/TrackPointExtension/v1">
            <gpxtpx:hr>144</gpxtpx:hr>
          </gpxtpx:TrackPointExtension>
        </extensions>
      </trkpt>
      <trkpt lat="44.14349" lon="5.25869">
        <ele>926.4</ele>
        <time>2021-06-12T07:54:52Z</time>
        <extensions>
          <gpxtpx:TrackPointExtension xmlns:gpxtpx="http://www.garmin.com/xmlschemas/TrackPointExtension/v1">
            <gpxtpx:hr>143</gpxtpx:hr>
          </gpxtpx:TrackPointExtension>
        </extensions>
      </trkpt>
      <trkpt lat="44.14351" lon="5.25871">
        <ele>927</ele>
        <time>2021-06-12T07:54:54Z</time>
        <extensions>
          <gpxtpx:TrackPointExtension xmlns:gpxtpx="http://www.garmin.com/xmlschemas/TrackPointExtension/v1">
            <gpxtpx:hr>143</gpxtpx:hr>
          </gpxtpx:TrackPointExtension>
        </extensions>
      </trkpt>
      <trkpt lat="44.14354" lon="5.25876">
        <ele>927.4</ele>
        <time>2021-06-12T07:54:58Z</time>
        <extensions>
          <gpxtpx:TrackPointExtension xmlns:gpxtpx="http://www.garmin.com/xmlschemas/TrackPointExtension/v1">
            <gpxtpx:hr>143</gpxtpx:hr>
          </gpxtpx:TrackPointExtension>
        </extensions>
      </trkpt>
      <trkpt lat="44.14359" lon="5.25883">
        <ele>928.6</ele>
        <time>2021-06-12T07:55:03Z</time>
        <extensions>
          <gpxtpx:TrackPointExtension xmlns:gpxtpx="http://www.garmin.com/xmlschemas/TrackPointExtension/v1">
            <gpxtpx:hr>143</gpxtpx:hr>
          </gpxtpx:TrackPointExtension>
        </extensions>
      </trkpt>
      <trkpt lat="44.14367" lon="5.25887">
        <ele>929.8</ele>
        <time>2021-06-12T07:55:10Z</time>
        <extensions>
          <gpxtpx:TrackPointExtension xmlns:gpxtpx="http://www.garmin.com/xmlschemas/TrackPointExtension/v1">
            <gpxtpx:hr>143</gpxtpx:hr>
          </gpxtpx:TrackPointExtension>
        </extensions>
      </trkpt>
      <trkpt lat="44.14369" lon="5.2589">
        <ele>930.2</ele>
        <time>2021-06-12T07:55:13Z</time>
        <extensions>
          <gpxtpx:TrackPointExtension xmlns:gpxtpx="http://www.garmin.com/xmlschemas/TrackPointExtension/v1">
            <gpxtpx:hr>144</gpxtpx:hr>
          </gpxtpx:TrackPointExtension>
        </extensions>
      </trkpt>
      <trkpt lat="44.1437" lon="5.25893">
        <ele>930.6</ele>
        <time>2021-06-12T07:55:15Z</time>
        <extensions>
          <gpxtpx:TrackPointExtension xmlns:gpxtpx="http://www.garmin.com/xmlschemas/TrackPointExtension/v1">
            <gpxtpx:hr>143</gpxtpx:hr>
          </gpxtpx:TrackPointExtension>
        </extensions>
      </trkpt>
      <trkpt lat="44.14371" lon="5.25893">
        <ele>930.8</ele>
        <time>2021-06-12T07:55:16Z</time>
        <extensions>
          <gpxtpx:TrackPointExtension xmlns:gpxtpx="http://www.garmin.com/xmlschemas/TrackPointExtension/v1">
            <gpxtpx:hr>144</gpxtpx:hr>
          </gpxtpx:TrackPointExtension>
        </extensions>
      </trkpt>
      <trkpt lat="44.14372" lon="5.25895">
        <ele>931.4</ele>
        <time>2021-06-12T07:55:18Z</time>
        <extensions>
          <gpxtpx:TrackPointExtension xmlns:gpxtpx="http://www.garmin.com/xmlschemas/TrackPointExtension/v1">
            <gpxtpx:hr>144</gpxtpx:hr>
          </gpxtpx:TrackPointExtension>
        </extensions>
      </trkpt>
      <trkpt lat="44.14372" lon="5.25898">
        <ele>931.8</ele>
        <time>2021-06-12T07:55:20Z</time>
        <extensions>
          <gpxtpx:TrackPointExtension xmlns:gpxtpx="http://www.garmin.com/xmlschemas/TrackPointExtension/v1">
            <gpxtpx:hr>143</gpxtpx:hr>
          </gpxtpx:TrackPointExtension>
        </extensions>
      </trkpt>
      <trkpt lat="44.14372" lon="5.25899">
        <ele>932</ele>
        <time>2021-06-12T07:55:21Z</time>
        <extensions>
          <gpxtpx:TrackPointExtension xmlns:gpxtpx="http://www.garmin.com/xmlschemas/TrackPointExtension/v1">
            <gpxtpx:hr>144</gpxtpx:hr>
          </gpxtpx:TrackPointExtension>
        </extensions>
      </trkpt>
      <trkpt lat="44.14373" lon="5.25905">
        <ele>933</ele>
        <time>2021-06-12T07:55:26Z</time>
        <extensions>
          <gpxtpx:TrackPointExtension xmlns:gpxtpx="http://www.garmin.com/xmlschemas/TrackPointExtension/v1">
            <gpxtpx:hr>145</gpxtpx:hr>
          </gpxtpx:TrackPointExtension>
        </extensions>
      </trkpt>
      <trkpt lat="44.14373" lon="5.25908">
        <ele>933.6</ele>
        <time>2021-06-12T07:55:28Z</time>
        <extensions>
          <gpxtpx:TrackPointExtension xmlns:gpxtpx="http://www.garmin.com/xmlschemas/TrackPointExtension/v1">
            <gpxtpx:hr>145</gpxtpx:hr>
          </gpxtpx:TrackPointExtension>
        </extensions>
      </trkpt>
      <trkpt lat="44.14374" lon="5.2591">
        <ele>934</ele>
        <time>2021-06-12T07:55:30Z</time>
        <extensions>
          <gpxtpx:TrackPointExtension xmlns:gpxtpx="http://www.garmin.com/xmlschemas/TrackPointExtension/v1">
            <gpxtpx:hr>145</gpxtpx:hr>
          </gpxtpx:TrackPointExtension>
        </extensions>
      </trkpt>
      <trkpt lat="44.14374" lon="5.25912">
        <ele>934.4</ele>
        <time>2021-06-12T07:55:32Z</time>
        <extensions>
          <gpxtpx:TrackPointExtension xmlns:gpxtpx="http://www.garmin.com/xmlschemas/TrackPointExtension/v1">
            <gpxtpx:hr>146</gpxtpx:hr>
          </gpxtpx:TrackPointExtension>
        </extensions>
      </trkpt>
      <trkpt lat="44.14375" lon="5.25916">
        <ele>935.2</ele>
        <time>2021-06-12T07:55:35Z</time>
        <extensions>
          <gpxtpx:TrackPointExtension xmlns:gpxtpx="http://www.garmin.com/xmlschemas/TrackPointExtension/v1">
            <gpxtpx:hr>147</gpxtpx:hr>
          </gpxtpx:TrackPointExtension>
        </extensions>
      </trkpt>
      <trkpt lat="44.14373" lon="5.25919">
        <ele>935.6</ele>
        <time>2021-06-12T07:55:37Z</time>
        <extensions>
          <gpxtpx:TrackPointExtension xmlns:gpxtpx="http://www.garmin.com/xmlschemas/TrackPointExtension/v1">
            <gpxtpx:hr>147</gpxtpx:hr>
          </gpxtpx:TrackPointExtension>
        </extensions>
      </trkpt>
      <trkpt lat="44.1437" lon="5.2592">
        <ele>936.4</ele>
        <time>2021-06-12T07:55:40Z</time>
        <extensions>
          <gpxtpx:TrackPointExtension xmlns:gpxtpx="http://www.garmin.com/xmlschemas/TrackPointExtension/v1">
            <gpxtpx:hr>147</gpxtpx:hr>
          </gpxtpx:TrackPointExtension>
        </extensions>
      </trkpt>
      <trkpt lat="44.14369" lon="5.25921">
        <ele>936.6</ele>
        <time>2021-06-12T07:55:41Z</time>
        <extensions>
          <gpxtpx:TrackPointExtension xmlns:gpxtpx="http://www.garmin.com/xmlschemas/TrackPointExtension/v1">
            <gpxtpx:hr>147</gpxtpx:hr>
          </gpxtpx:TrackPointExtension>
        </extensions>
      </trkpt>
      <trkpt lat="44.1437" lon="5.25925">
        <ele>937.4</ele>
        <time>2021-06-12T07:55:44Z</time>
        <extensions>
          <gpxtpx:TrackPointExtension xmlns:gpxtpx="http://www.garmin.com/xmlschemas/TrackPointExtension/v1">
            <gpxtpx:hr>147</gpxtpx:hr>
          </gpxtpx:TrackPointExtension>
        </extensions>
      </trkpt>
      <trkpt lat="44.14372" lon="5.25928">
        <ele>938</ele>
        <time>2021-06-12T07:55:47Z</time>
        <extensions>
          <gpxtpx:TrackPointExtension xmlns:gpxtpx="http://www.garmin.com/xmlschemas/TrackPointExtension/v1">
            <gpxtpx:hr>147</gpxtpx:hr>
          </gpxtpx:TrackPointExtension>
        </extensions>
      </trkpt>
      <trkpt lat="44.14373" lon="5.25929">
        <ele>938.2</ele>
        <time>2021-06-12T07:55:48Z</time>
        <extensions>
          <gpxtpx:TrackPointExtension xmlns:gpxtpx="http://www.garmin.com/xmlschemas/TrackPointExtension/v1">
            <gpxtpx:hr>146</gpxtpx:hr>
          </gpxtpx:TrackPointExtension>
        </extensions>
      </trkpt>
      <trkpt lat="44.14374" lon="5.2593">
        <ele>938.6</ele>
        <time>2021-06-12T07:55:49Z</time>
        <extensions>
          <gpxtpx:TrackPointExtension xmlns:gpxtpx="http://www.garmin.com/xmlschemas/TrackPointExtension/v1">
            <gpxtpx:hr>147</gpxtpx:hr>
          </gpxtpx:TrackPointExtension>
        </extensions>
      </trkpt>
      <trkpt lat="44.1438" lon="5.25939">
        <ele>939.6</ele>
        <time>2021-06-12T07:55:55Z</time>
        <extensions>
          <gpxtpx:TrackPointExtension xmlns:gpxtpx="http://www.garmin.com/xmlschemas/TrackPointExtension/v1">
            <gpxtpx:hr>145</gpxtpx:hr>
          </gpxtpx:TrackPointExtension>
        </extensions>
      </trkpt>
      <trkpt lat="44.14381" lon="5.25942">
        <ele>940</ele>
        <time>2021-06-12T07:55:57Z</time>
        <extensions>
          <gpxtpx:TrackPointExtension xmlns:gpxtpx="http://www.garmin.com/xmlschemas/TrackPointExtension/v1">
            <gpxtpx:hr>146</gpxtpx:hr>
          </gpxtpx:TrackPointExtension>
        </extensions>
      </trkpt>
      <trkpt lat="44.14381" lon="5.25944">
        <ele>940</ele>
        <time>2021-06-12T07:55:58Z</time>
        <extensions>
          <gpxtpx:TrackPointExtension xmlns:gpxtpx="http://www.garmin.com/xmlschemas/TrackPointExtension/v1">
            <gpxtpx:hr>146</gpxtpx:hr>
          </gpxtpx:TrackPointExtension>
        </extensions>
      </trkpt>
      <trkpt lat="44.1438" lon="5.25948">
        <ele>940.4</ele>
        <time>2021-06-12T07:56:00Z</time>
        <extensions>
          <gpxtpx:TrackPointExtension xmlns:gpxtpx="http://www.garmin.com/xmlschemas/TrackPointExtension/v1">
            <gpxtpx:hr>145</gpxtpx:hr>
          </gpxtpx:TrackPointExtension>
        </extensions>
      </trkpt>
      <trkpt lat="44.14381" lon="5.25952">
        <ele>940.6</ele>
        <time>2021-06-12T07:56:02Z</time>
        <extensions>
          <gpxtpx:TrackPointExtension xmlns:gpxtpx="http://www.garmin.com/xmlschemas/TrackPointExtension/v1">
            <gpxtpx:hr>145</gpxtpx:hr>
          </gpxtpx:TrackPointExtension>
        </extensions>
      </trkpt>
      <trkpt lat="44.14381" lon="5.25956">
        <ele>941</ele>
        <time>2021-06-12T07:56:04Z</time>
        <extensions>
          <gpxtpx:TrackPointExtension xmlns:gpxtpx="http://www.garmin.com/xmlschemas/TrackPointExtension/v1">
            <gpxtpx:hr>145</gpxtpx:hr>
          </gpxtpx:TrackPointExtension>
        </extensions>
      </trkpt>
      <trkpt lat="44.14381" lon="5.25961">
        <ele>941.8</ele>
        <time>2021-06-12T07:56:07Z</time>
        <extensions>
          <gpxtpx:TrackPointExtension xmlns:gpxtpx="http://www.garmin.com/xmlschemas/TrackPointExtension/v1">
            <gpxtpx:hr>144</gpxtpx:hr>
          </gpxtpx:TrackPointExtension>
        </extensions>
      </trkpt>
      <trkpt lat="44.14381" lon="5.25964">
        <ele>942</ele>
        <time>2021-06-12T07:56:09Z</time>
        <extensions>
          <gpxtpx:TrackPointExtension xmlns:gpxtpx="http://www.garmin.com/xmlschemas/TrackPointExtension/v1">
            <gpxtpx:hr>144</gpxtpx:hr>
          </gpxtpx:TrackPointExtension>
        </extensions>
      </trkpt>
      <trkpt lat="44.14383" lon="5.25971">
        <ele>942.8</ele>
        <time>2021-06-12T07:56:13Z</time>
        <extensions>
          <gpxtpx:TrackPointExtension xmlns:gpxtpx="http://www.garmin.com/xmlschemas/TrackPointExtension/v1">
            <gpxtpx:hr>143</gpxtpx:hr>
          </gpxtpx:TrackPointExtension>
        </extensions>
      </trkpt>
      <trkpt lat="44.14383" lon="5.25972">
        <ele>943</ele>
        <time>2021-06-12T07:56:14Z</time>
        <extensions>
          <gpxtpx:TrackPointExtension xmlns:gpxtpx="http://www.garmin.com/xmlschemas/TrackPointExtension/v1">
            <gpxtpx:hr>144</gpxtpx:hr>
          </gpxtpx:TrackPointExtension>
        </extensions>
      </trkpt>
      <trkpt lat="44.14383" lon="5.25975">
        <ele>943.4</ele>
        <time>2021-06-12T07:56:16Z</time>
        <extensions>
          <gpxtpx:TrackPointExtension xmlns:gpxtpx="http://www.garmin.com/xmlschemas/TrackPointExtension/v1">
            <gpxtpx:hr>143</gpxtpx:hr>
          </gpxtpx:TrackPointExtension>
        </extensions>
      </trkpt>
      <trkpt lat="44.14382" lon="5.25978">
        <ele>943.8</ele>
        <time>2021-06-12T07:56:18Z</time>
        <extensions>
          <gpxtpx:TrackPointExtension xmlns:gpxtpx="http://www.garmin.com/xmlschemas/TrackPointExtension/v1">
            <gpxtpx:hr>144</gpxtpx:hr>
          </gpxtpx:TrackPointExtension>
        </extensions>
      </trkpt>
      <trkpt lat="44.14383" lon="5.25979">
        <ele>944</ele>
        <time>2021-06-12T07:56:19Z</time>
        <extensions>
          <gpxtpx:TrackPointExtension xmlns:gpxtpx="http://www.garmin.com/xmlschemas/TrackPointExtension/v1">
            <gpxtpx:hr>143</gpxtpx:hr>
          </gpxtpx:TrackPointExtension>
        </extensions>
      </trkpt>
      <trkpt lat="44.14383" lon="5.2598">
        <ele>944.2</ele>
        <time>2021-06-12T07:56:20Z</time>
        <extensions>
          <gpxtpx:TrackPointExtension xmlns:gpxtpx="http://www.garmin.com/xmlschemas/TrackPointExtension/v1">
            <gpxtpx:hr>144</gpxtpx:hr>
          </gpxtpx:TrackPointExtension>
        </extensions>
      </trkpt>
      <trkpt lat="44.14385" lon="5.25983">
        <ele>944.4</ele>
        <time>2021-06-12T07:56:22Z</time>
        <extensions>
          <gpxtpx:TrackPointExtension xmlns:gpxtpx="http://www.garmin.com/xmlschemas/TrackPointExtension/v1">
            <gpxtpx:hr>143</gpxtpx:hr>
          </gpxtpx:TrackPointExtension>
        </extensions>
      </trkpt>
      <trkpt lat="44.14386" lon="5.25987">
        <ele>944.8</ele>
        <time>2021-06-12T07:56:25Z</time>
        <extensions>
          <gpxtpx:TrackPointExtension xmlns:gpxtpx="http://www.garmin.com/xmlschemas/TrackPointExtension/v1">
            <gpxtpx:hr>144</gpxtpx:hr>
          </gpxtpx:TrackPointExtension>
        </extensions>
      </trkpt>
      <trkpt lat="44.14387" lon="5.2599">
        <ele>945</ele>
        <time>2021-06-12T07:56:27Z</time>
        <extensions>
          <gpxtpx:TrackPointExtension xmlns:gpxtpx="http://www.garmin.com/xmlschemas/TrackPointExtension/v1">
            <gpxtpx:hr>144</gpxtpx:hr>
          </gpxtpx:TrackPointExtension>
        </extensions>
      </trkpt>
      <trkpt lat="44.14387" lon="5.25992">
        <ele>945.2</ele>
        <time>2021-06-12T07:56:28Z</time>
        <extensions>
          <gpxtpx:TrackPointExtension xmlns:gpxtpx="http://www.garmin.com/xmlschemas/TrackPointExtension/v1">
            <gpxtpx:hr>144</gpxtpx:hr>
          </gpxtpx:TrackPointExtension>
        </extensions>
      </trkpt>
      <trkpt lat="44.14385" lon="5.25998">
        <ele>945.6</ele>
        <time>2021-06-12T07:56:31Z</time>
        <extensions>
          <gpxtpx:TrackPointExtension xmlns:gpxtpx="http://www.garmin.com/xmlschemas/TrackPointExtension/v1">
            <gpxtpx:hr>144</gpxtpx:hr>
          </gpxtpx:TrackPointExtension>
        </extensions>
      </trkpt>
      <trkpt lat="44.14383" lon="5.26003">
        <ele>945.8</ele>
        <time>2021-06-12T07:56:34Z</time>
        <extensions>
          <gpxtpx:TrackPointExtension xmlns:gpxtpx="http://www.garmin.com/xmlschemas/TrackPointExtension/v1">
            <gpxtpx:hr>143</gpxtpx:hr>
          </gpxtpx:TrackPointExtension>
        </extensions>
      </trkpt>
      <trkpt lat="44.14383" lon="5.26006">
        <ele>946.2</ele>
        <time>2021-06-12T07:56:36Z</time>
        <extensions>
          <gpxtpx:TrackPointExtension xmlns:gpxtpx="http://www.garmin.com/xmlschemas/TrackPointExtension/v1">
            <gpxtpx:hr>142</gpxtpx:hr>
          </gpxtpx:TrackPointExtension>
        </extensions>
      </trkpt>
      <trkpt lat="44.14385" lon="5.26009">
        <ele>946.6</ele>
        <time>2021-06-12T07:56:38Z</time>
        <extensions>
          <gpxtpx:TrackPointExtension xmlns:gpxtpx="http://www.garmin.com/xmlschemas/TrackPointExtension/v1">
            <gpxtpx:hr>141</gpxtpx:hr>
          </gpxtpx:TrackPointExtension>
        </extensions>
      </trkpt>
      <trkpt lat="44.1439" lon="5.26013">
        <ele>947.2</ele>
        <time>2021-06-12T07:56:42Z</time>
        <extensions>
          <gpxtpx:TrackPointExtension xmlns:gpxtpx="http://www.garmin.com/xmlschemas/TrackPointExtension/v1">
            <gpxtpx:hr>141</gpxtpx:hr>
          </gpxtpx:TrackPointExtension>
        </extensions>
      </trkpt>
      <trkpt lat="44.14402" lon="5.26024">
        <ele>948.2</ele>
        <time>2021-06-12T07:56:53Z</time>
        <extensions>
          <gpxtpx:TrackPointExtension xmlns:gpxtpx="http://www.garmin.com/xmlschemas/TrackPointExtension/v1">
            <gpxtpx:hr>139</gpxtpx:hr>
          </gpxtpx:TrackPointExtension>
        </extensions>
      </trkpt>
      <trkpt lat="44.14403" lon="5.26024">
        <ele>948.4</ele>
        <time>2021-06-12T07:56:54Z</time>
        <extensions>
          <gpxtpx:TrackPointExtension xmlns:gpxtpx="http://www.garmin.com/xmlschemas/TrackPointExtension/v1">
            <gpxtpx:hr>139</gpxtpx:hr>
          </gpxtpx:TrackPointExtension>
        </extensions>
      </trkpt>
      <trkpt lat="44.14405" lon="5.26025">
        <ele>948.4</ele>
        <time>2021-06-12T07:56:56Z</time>
        <extensions>
          <gpxtpx:TrackPointExtension xmlns:gpxtpx="http://www.garmin.com/xmlschemas/TrackPointExtension/v1">
            <gpxtpx:hr>138</gpxtpx:hr>
          </gpxtpx:TrackPointExtension>
        </extensions>
      </trkpt>
      <trkpt lat="44.14412" lon="5.26032">
        <ele>949.4</ele>
        <time>2021-06-12T07:57:02Z</time>
        <extensions>
          <gpxtpx:TrackPointExtension xmlns:gpxtpx="http://www.garmin.com/xmlschemas/TrackPointExtension/v1">
            <gpxtpx:hr>139</gpxtpx:hr>
          </gpxtpx:TrackPointExtension>
        </extensions>
      </trkpt>
      <trkpt lat="44.14415" lon="5.26036">
        <ele>950</ele>
        <time>2021-06-12T07:57:06Z</time>
        <extensions>
          <gpxtpx:TrackPointExtension xmlns:gpxtpx="http://www.garmin.com/xmlschemas/TrackPointExtension/v1">
            <gpxtpx:hr>139</gpxtpx:hr>
          </gpxtpx:TrackPointExtension>
        </extensions>
      </trkpt>
      <trkpt lat="44.14417" lon="5.26037">
        <ele>950.4</ele>
        <time>2021-06-12T07:57:08Z</time>
        <extensions>
          <gpxtpx:TrackPointExtension xmlns:gpxtpx="http://www.garmin.com/xmlschemas/TrackPointExtension/v1">
            <gpxtpx:hr>139</gpxtpx:hr>
          </gpxtpx:TrackPointExtension>
        </extensions>
      </trkpt>
      <trkpt lat="44.14419" lon="5.26037">
        <ele>951.2</ele>
        <time>2021-06-12T07:57:11Z</time>
        <extensions>
          <gpxtpx:TrackPointExtension xmlns:gpxtpx="http://www.garmin.com/xmlschemas/TrackPointExtension/v1">
            <gpxtpx:hr>140</gpxtpx:hr>
          </gpxtpx:TrackPointExtension>
        </extensions>
      </trkpt>
      <trkpt lat="44.14422" lon="5.26038">
        <ele>951.6</ele>
        <time>2021-06-12T07:57:14Z</time>
        <extensions>
          <gpxtpx:TrackPointExtension xmlns:gpxtpx="http://www.garmin.com/xmlschemas/TrackPointExtension/v1">
            <gpxtpx:hr>141</gpxtpx:hr>
          </gpxtpx:TrackPointExtension>
        </extensions>
      </trkpt>
      <trkpt lat="44.14424" lon="5.26041">
        <ele>952.4</ele>
        <time>2021-06-12T07:57:17Z</time>
        <extensions>
          <gpxtpx:TrackPointExtension xmlns:gpxtpx="http://www.garmin.com/xmlschemas/TrackPointExtension/v1">
            <gpxtpx:hr>141</gpxtpx:hr>
          </gpxtpx:TrackPointExtension>
        </extensions>
      </trkpt>
      <trkpt lat="44.14425" lon="5.26042">
        <ele>952.8</ele>
        <time>2021-06-12T07:57:18Z</time>
        <extensions>
          <gpxtpx:TrackPointExtension xmlns:gpxtpx="http://www.garmin.com/xmlschemas/TrackPointExtension/v1">
            <gpxtpx:hr>141</gpxtpx:hr>
          </gpxtpx:TrackPointExtension>
        </extensions>
      </trkpt>
      <trkpt lat="44.14427" lon="5.26044">
        <ele>953.4</ele>
        <time>2021-06-12T07:57:21Z</time>
        <extensions>
          <gpxtpx:TrackPointExtension xmlns:gpxtpx="http://www.garmin.com/xmlschemas/TrackPointExtension/v1">
            <gpxtpx:hr>142</gpxtpx:hr>
          </gpxtpx:TrackPointExtension>
        </extensions>
      </trkpt>
      <trkpt lat="44.14428" lon="5.26048">
        <ele>953.8</ele>
        <time>2021-06-12T07:57:23Z</time>
        <extensions>
          <gpxtpx:TrackPointExtension xmlns:gpxtpx="http://www.garmin.com/xmlschemas/TrackPointExtension/v1">
            <gpxtpx:hr>142</gpxtpx:hr>
          </gpxtpx:TrackPointExtension>
        </extensions>
      </trkpt>
      <trkpt lat="44.14429" lon="5.2605">
        <ele>954</ele>
        <time>2021-06-12T07:57:24Z</time>
        <extensions>
          <gpxtpx:TrackPointExtension xmlns:gpxtpx="http://www.garmin.com/xmlschemas/TrackPointExtension/v1">
            <gpxtpx:hr>143</gpxtpx:hr>
          </gpxtpx:TrackPointExtension>
        </extensions>
      </trkpt>
      <trkpt lat="44.14432" lon="5.26055">
        <ele>954.8</ele>
        <time>2021-06-12T07:57:28Z</time>
        <extensions>
          <gpxtpx:TrackPointExtension xmlns:gpxtpx="http://www.garmin.com/xmlschemas/TrackPointExtension/v1">
            <gpxtpx:hr>143</gpxtpx:hr>
          </gpxtpx:TrackPointExtension>
        </extensions>
      </trkpt>
      <trkpt lat="44.14432" lon="5.26057">
        <ele>955</ele>
        <time>2021-06-12T07:57:29Z</time>
        <extensions>
          <gpxtpx:TrackPointExtension xmlns:gpxtpx="http://www.garmin.com/xmlschemas/TrackPointExtension/v1">
            <gpxtpx:hr>143</gpxtpx:hr>
          </gpxtpx:TrackPointExtension>
        </extensions>
      </trkpt>
      <trkpt lat="44.14432" lon="5.26059">
        <ele>955.6</ele>
        <time>2021-06-12T07:57:31Z</time>
        <extensions>
          <gpxtpx:TrackPointExtension xmlns:gpxtpx="http://www.garmin.com/xmlschemas/TrackPointExtension/v1">
            <gpxtpx:hr>143</gpxtpx:hr>
          </gpxtpx:TrackPointExtension>
        </extensions>
      </trkpt>
      <trkpt lat="44.14432" lon="5.26062">
        <ele>956</ele>
        <time>2021-06-12T07:57:33Z</time>
        <extensions>
          <gpxtpx:TrackPointExtension xmlns:gpxtpx="http://www.garmin.com/xmlschemas/TrackPointExtension/v1">
            <gpxtpx:hr>143</gpxtpx:hr>
          </gpxtpx:TrackPointExtension>
        </extensions>
      </trkpt>
      <trkpt lat="44.14433" lon="5.26064">
        <ele>956.2</ele>
        <time>2021-06-12T07:57:34Z</time>
        <extensions>
          <gpxtpx:TrackPointExtension xmlns:gpxtpx="http://www.garmin.com/xmlschemas/TrackPointExtension/v1">
            <gpxtpx:hr>143</gpxtpx:hr>
          </gpxtpx:TrackPointExtension>
        </extensions>
      </trkpt>
      <trkpt lat="44.14435" lon="5.26069">
        <ele>956.6</ele>
        <time>2021-06-12T07:57:36Z</time>
        <extensions>
          <gpxtpx:TrackPointExtension xmlns:gpxtpx="http://www.garmin.com/xmlschemas/TrackPointExtension/v1">
            <gpxtpx:hr>144</gpxtpx:hr>
          </gpxtpx:TrackPointExtension>
        </extensions>
      </trkpt>
      <trkpt lat="44.14437" lon="5.26073">
        <ele>957</ele>
        <time>2021-06-12T07:57:38Z</time>
        <extensions>
          <gpxtpx:TrackPointExtension xmlns:gpxtpx="http://www.garmin.com/xmlschemas/TrackPointExtension/v1">
            <gpxtpx:hr>144</gpxtpx:hr>
          </gpxtpx:TrackPointExtension>
        </extensions>
      </trkpt>
      <trkpt lat="44.14437" lon="5.26074">
        <ele>957</ele>
        <time>2021-06-12T07:57:39Z</time>
        <extensions>
          <gpxtpx:TrackPointExtension xmlns:gpxtpx="http://www.garmin.com/xmlschemas/TrackPointExtension/v1">
            <gpxtpx:hr>144</gpxtpx:hr>
          </gpxtpx:TrackPointExtension>
        </extensions>
      </trkpt>
      <trkpt lat="44.14438" lon="5.26075">
        <ele>957.2</ele>
        <time>2021-06-12T07:57:40Z</time>
        <extensions>
          <gpxtpx:TrackPointExtension xmlns:gpxtpx="http://www.garmin.com/xmlschemas/TrackPointExtension/v1">
            <gpxtpx:hr>144</gpxtpx:hr>
          </gpxtpx:TrackPointExtension>
        </extensions>
      </trkpt>
      <trkpt lat="44.1444" lon="5.26079">
        <ele>957.8</ele>
        <time>2021-06-12T07:57:44Z</time>
        <extensions>
          <gpxtpx:TrackPointExtension xmlns:gpxtpx="http://www.garmin.com/xmlschemas/TrackPointExtension/v1">
            <gpxtpx:hr>144</gpxtpx:hr>
          </gpxtpx:TrackPointExtension>
        </extensions>
      </trkpt>
      <trkpt lat="44.14441" lon="5.2608">
        <ele>958</ele>
        <time>2021-06-12T07:57:45Z</time>
        <extensions>
          <gpxtpx:TrackPointExtension xmlns:gpxtpx="http://www.garmin.com/xmlschemas/TrackPointExtension/v1">
            <gpxtpx:hr>143</gpxtpx:hr>
          </gpxtpx:TrackPointExtension>
        </extensions>
      </trkpt>
      <trkpt lat="44.14443" lon="5.26081">
        <ele>958.6</ele>
        <time>2021-06-12T07:57:47Z</time>
        <extensions>
          <gpxtpx:TrackPointExtension xmlns:gpxtpx="http://www.garmin.com/xmlschemas/TrackPointExtension/v1">
            <gpxtpx:hr>144</gpxtpx:hr>
          </gpxtpx:TrackPointExtension>
        </extensions>
      </trkpt>
      <trkpt lat="44.14445" lon="5.26083">
        <ele>959.2</ele>
        <time>2021-06-12T07:57:50Z</time>
        <extensions>
          <gpxtpx:TrackPointExtension xmlns:gpxtpx="http://www.garmin.com/xmlschemas/TrackPointExtension/v1">
            <gpxtpx:hr>143</gpxtpx:hr>
          </gpxtpx:TrackPointExtension>
        </extensions>
      </trkpt>
      <trkpt lat="44.14445" lon="5.26085">
        <ele>959.8</ele>
        <time>2021-06-12T07:57:52Z</time>
        <extensions>
          <gpxtpx:TrackPointExtension xmlns:gpxtpx="http://www.garmin.com/xmlschemas/TrackPointExtension/v1">
            <gpxtpx:hr>143</gpxtpx:hr>
          </gpxtpx:TrackPointExtension>
        </extensions>
      </trkpt>
      <trkpt lat="44.14446" lon="5.26088">
        <ele>960.2</ele>
        <time>2021-06-12T07:57:54Z</time>
        <extensions>
          <gpxtpx:TrackPointExtension xmlns:gpxtpx="http://www.garmin.com/xmlschemas/TrackPointExtension/v1">
            <gpxtpx:hr>144</gpxtpx:hr>
          </gpxtpx:TrackPointExtension>
        </extensions>
      </trkpt>
      <trkpt lat="44.14448" lon="5.26089">
        <ele>960.4</ele>
        <time>2021-06-12T07:57:55Z</time>
        <extensions>
          <gpxtpx:TrackPointExtension xmlns:gpxtpx="http://www.garmin.com/xmlschemas/TrackPointExtension/v1">
            <gpxtpx:hr>144</gpxtpx:hr>
          </gpxtpx:TrackPointExtension>
        </extensions>
      </trkpt>
      <trkpt lat="44.14453" lon="5.26094">
        <ele>961.6</ele>
        <time>2021-06-12T07:58:00Z</time>
        <extensions>
          <gpxtpx:TrackPointExtension xmlns:gpxtpx="http://www.garmin.com/xmlschemas/TrackPointExtension/v1">
            <gpxtpx:hr>145</gpxtpx:hr>
          </gpxtpx:TrackPointExtension>
        </extensions>
      </trkpt>
      <trkpt lat="44.14455" lon="5.26096">
        <ele>962.2</ele>
        <time>2021-06-12T07:58:03Z</time>
        <extensions>
          <gpxtpx:TrackPointExtension xmlns:gpxtpx="http://www.garmin.com/xmlschemas/TrackPointExtension/v1">
            <gpxtpx:hr>146</gpxtpx:hr>
          </gpxtpx:TrackPointExtension>
        </extensions>
      </trkpt>
      <trkpt lat="44.14456" lon="5.26101">
        <ele>963</ele>
        <time>2021-06-12T07:58:06Z</time>
        <extensions>
          <gpxtpx:TrackPointExtension xmlns:gpxtpx="http://www.garmin.com/xmlschemas/TrackPointExtension/v1">
            <gpxtpx:hr>148</gpxtpx:hr>
          </gpxtpx:TrackPointExtension>
        </extensions>
      </trkpt>
      <trkpt lat="44.14457" lon="5.26105">
        <ele>963.4</ele>
        <time>2021-06-12T07:58:08Z</time>
        <extensions>
          <gpxtpx:TrackPointExtension xmlns:gpxtpx="http://www.garmin.com/xmlschemas/TrackPointExtension/v1">
            <gpxtpx:hr>148</gpxtpx:hr>
          </gpxtpx:TrackPointExtension>
        </extensions>
      </trkpt>
      <trkpt lat="44.14458" lon="5.26106">
        <ele>964</ele>
        <time>2021-06-12T07:58:10Z</time>
        <extensions>
          <gpxtpx:TrackPointExtension xmlns:gpxtpx="http://www.garmin.com/xmlschemas/TrackPointExtension/v1">
            <gpxtpx:hr>148</gpxtpx:hr>
          </gpxtpx:TrackPointExtension>
        </extensions>
      </trkpt>
      <trkpt lat="44.14459" lon="5.26108">
        <ele>964.2</ele>
        <time>2021-06-12T07:58:11Z</time>
        <extensions>
          <gpxtpx:TrackPointExtension xmlns:gpxtpx="http://www.garmin.com/xmlschemas/TrackPointExtension/v1">
            <gpxtpx:hr>149</gpxtpx:hr>
          </gpxtpx:TrackPointExtension>
        </extensions>
      </trkpt>
      <trkpt lat="44.14461" lon="5.26112">
        <ele>965.2</ele>
        <time>2021-06-12T07:58:15Z</time>
        <extensions>
          <gpxtpx:TrackPointExtension xmlns:gpxtpx="http://www.garmin.com/xmlschemas/TrackPointExtension/v1">
            <gpxtpx:hr>150</gpxtpx:hr>
          </gpxtpx:TrackPointExtension>
        </extensions>
      </trkpt>
      <trkpt lat="44.14462" lon="5.26115">
        <ele>966</ele>
        <time>2021-06-12T07:58:18Z</time>
        <extensions>
          <gpxtpx:TrackPointExtension xmlns:gpxtpx="http://www.garmin.com/xmlschemas/TrackPointExtension/v1">
            <gpxtpx:hr>150</gpxtpx:hr>
          </gpxtpx:TrackPointExtension>
        </extensions>
      </trkpt>
      <trkpt lat="44.14464" lon="5.26116">
        <ele>966.4</ele>
        <time>2021-06-12T07:58:20Z</time>
        <extensions>
          <gpxtpx:TrackPointExtension xmlns:gpxtpx="http://www.garmin.com/xmlschemas/TrackPointExtension/v1">
            <gpxtpx:hr>149</gpxtpx:hr>
          </gpxtpx:TrackPointExtension>
        </extensions>
      </trkpt>
      <trkpt lat="44.14466" lon="5.26118">
        <ele>967.4</ele>
        <time>2021-06-12T07:58:23Z</time>
        <extensions>
          <gpxtpx:TrackPointExtension xmlns:gpxtpx="http://www.garmin.com/xmlschemas/TrackPointExtension/v1">
            <gpxtpx:hr>149</gpxtpx:hr>
          </gpxtpx:TrackPointExtension>
        </extensions>
      </trkpt>
      <trkpt lat="44.14467" lon="5.26118">
        <ele>967.6</ele>
        <time>2021-06-12T07:58:24Z</time>
        <extensions>
          <gpxtpx:TrackPointExtension xmlns:gpxtpx="http://www.garmin.com/xmlschemas/TrackPointExtension/v1">
            <gpxtpx:hr>149</gpxtpx:hr>
          </gpxtpx:TrackPointExtension>
        </extensions>
      </trkpt>
      <trkpt lat="44.14467" lon="5.26118">
        <ele>967.8</ele>
        <time>2021-06-12T07:58:25Z</time>
        <extensions>
          <gpxtpx:TrackPointExtension xmlns:gpxtpx="http://www.garmin.com/xmlschemas/TrackPointExtension/v1">
            <gpxtpx:hr>149</gpxtpx:hr>
          </gpxtpx:TrackPointExtension>
        </extensions>
      </trkpt>
      <trkpt lat="44.14468" lon="5.26119">
        <ele>968.2</ele>
        <time>2021-06-12T07:58:27Z</time>
        <extensions>
          <gpxtpx:TrackPointExtension xmlns:gpxtpx="http://www.garmin.com/xmlschemas/TrackPointExtension/v1">
            <gpxtpx:hr>149</gpxtpx:hr>
          </gpxtpx:TrackPointExtension>
        </extensions>
      </trkpt>
      <trkpt lat="44.14468" lon="5.2612">
        <ele>968.6</ele>
        <time>2021-06-12T07:58:28Z</time>
        <extensions>
          <gpxtpx:TrackPointExtension xmlns:gpxtpx="http://www.garmin.com/xmlschemas/TrackPointExtension/v1">
            <gpxtpx:hr>150</gpxtpx:hr>
          </gpxtpx:TrackPointExtension>
        </extensions>
      </trkpt>
      <trkpt lat="44.14468" lon="5.26122">
        <ele>969.2</ele>
        <time>2021-06-12T07:58:30Z</time>
        <extensions>
          <gpxtpx:TrackPointExtension xmlns:gpxtpx="http://www.garmin.com/xmlschemas/TrackPointExtension/v1">
            <gpxtpx:hr>151</gpxtpx:hr>
          </gpxtpx:TrackPointExtension>
        </extensions>
      </trkpt>
      <trkpt lat="44.14469" lon="5.26123">
        <ele>969.6</ele>
        <time>2021-06-12T07:58:32Z</time>
        <extensions>
          <gpxtpx:TrackPointExtension xmlns:gpxtpx="http://www.garmin.com/xmlschemas/TrackPointExtension/v1">
            <gpxtpx:hr>151</gpxtpx:hr>
          </gpxtpx:TrackPointExtension>
        </extensions>
      </trkpt>
      <trkpt lat="44.14469" lon="5.26124">
        <ele>969.8</ele>
        <time>2021-06-12T07:58:33Z</time>
        <extensions>
          <gpxtpx:TrackPointExtension xmlns:gpxtpx="http://www.garmin.com/xmlschemas/TrackPointExtension/v1">
            <gpxtpx:hr>151</gpxtpx:hr>
          </gpxtpx:TrackPointExtension>
        </extensions>
      </trkpt>
      <trkpt lat="44.14471" lon="5.26125">
        <ele>970.6</ele>
        <time>2021-06-12T07:58:36Z</time>
        <extensions>
          <gpxtpx:TrackPointExtension xmlns:gpxtpx="http://www.garmin.com/xmlschemas/TrackPointExtension/v1">
            <gpxtpx:hr>151</gpxtpx:hr>
          </gpxtpx:TrackPointExtension>
        </extensions>
      </trkpt>
      <trkpt lat="44.14472" lon="5.26125">
        <ele>971</ele>
        <time>2021-06-12T07:58:37Z</time>
        <extensions>
          <gpxtpx:TrackPointExtension xmlns:gpxtpx="http://www.garmin.com/xmlschemas/TrackPointExtension/v1">
            <gpxtpx:hr>151</gpxtpx:hr>
          </gpxtpx:TrackPointExtension>
        </extensions>
      </trkpt>
      <trkpt lat="44.14473" lon="5.26125">
        <ele>971.2</ele>
        <time>2021-06-12T07:58:38Z</time>
        <extensions>
          <gpxtpx:TrackPointExtension xmlns:gpxtpx="http://www.garmin.com/xmlschemas/TrackPointExtension/v1">
            <gpxtpx:hr>152</gpxtpx:hr>
          </gpxtpx:TrackPointExtension>
        </extensions>
      </trkpt>
      <trkpt lat="44.14475" lon="5.26127">
        <ele>972.2</ele>
        <time>2021-06-12T07:58:41Z</time>
        <extensions>
          <gpxtpx:TrackPointExtension xmlns:gpxtpx="http://www.garmin.com/xmlschemas/TrackPointExtension/v1">
            <gpxtpx:hr>152</gpxtpx:hr>
          </gpxtpx:TrackPointExtension>
        </extensions>
      </trkpt>
      <trkpt lat="44.14476" lon="5.26127">
        <ele>972.4</ele>
        <time>2021-06-12T07:58:42Z</time>
        <extensions>
          <gpxtpx:TrackPointExtension xmlns:gpxtpx="http://www.garmin.com/xmlschemas/TrackPointExtension/v1">
            <gpxtpx:hr>152</gpxtpx:hr>
          </gpxtpx:TrackPointExtension>
        </extensions>
      </trkpt>
      <trkpt lat="44.1448" lon="5.26132">
        <ele>973.4</ele>
        <time>2021-06-12T07:58:45Z</time>
        <extensions>
          <gpxtpx:TrackPointExtension xmlns:gpxtpx="http://www.garmin.com/xmlschemas/TrackPointExtension/v1">
            <gpxtpx:hr>152</gpxtpx:hr>
          </gpxtpx:TrackPointExtension>
        </extensions>
      </trkpt>
      <trkpt lat="44.14481" lon="5.26134">
        <ele>973.6</ele>
        <time>2021-06-12T07:58:46Z</time>
        <extensions>
          <gpxtpx:TrackPointExtension xmlns:gpxtpx="http://www.garmin.com/xmlschemas/TrackPointExtension/v1">
            <gpxtpx:hr>152</gpxtpx:hr>
          </gpxtpx:TrackPointExtension>
        </extensions>
      </trkpt>
      <trkpt lat="44.14482" lon="5.26138">
        <ele>973.8</ele>
        <time>2021-06-12T07:58:48Z</time>
        <extensions>
          <gpxtpx:TrackPointExtension xmlns:gpxtpx="http://www.garmin.com/xmlschemas/TrackPointExtension/v1">
            <gpxtpx:hr>152</gpxtpx:hr>
          </gpxtpx:TrackPointExtension>
        </extensions>
      </trkpt>
      <trkpt lat="44.14488" lon="5.26148">
        <ele>973.6</ele>
        <time>2021-06-12T07:58:54Z</time>
        <extensions>
          <gpxtpx:TrackPointExtension xmlns:gpxtpx="http://www.garmin.com/xmlschemas/TrackPointExtension/v1">
            <gpxtpx:hr>150</gpxtpx:hr>
          </gpxtpx:TrackPointExtension>
        </extensions>
      </trkpt>
      <trkpt lat="44.14494" lon="5.26153">
        <ele>973.8</ele>
        <time>2021-06-12T07:59:01Z</time>
        <extensions>
          <gpxtpx:TrackPointExtension xmlns:gpxtpx="http://www.garmin.com/xmlschemas/TrackPointExtension/v1">
            <gpxtpx:hr>149</gpxtpx:hr>
          </gpxtpx:TrackPointExtension>
        </extensions>
      </trkpt>
      <trkpt lat="44.14495" lon="5.26153">
        <ele>974.4</ele>
        <time>2021-06-12T07:59:05Z</time>
        <extensions>
          <gpxtpx:TrackPointExtension xmlns:gpxtpx="http://www.garmin.com/xmlschemas/TrackPointExtension/v1">
            <gpxtpx:hr>148</gpxtpx:hr>
          </gpxtpx:TrackPointExtension>
        </extensions>
      </trkpt>
      <trkpt lat="44.14496" lon="5.26152">
        <ele>974.8</ele>
        <time>2021-06-12T07:59:07Z</time>
        <extensions>
          <gpxtpx:TrackPointExtension xmlns:gpxtpx="http://www.garmin.com/xmlschemas/TrackPointExtension/v1">
            <gpxtpx:hr>148</gpxtpx:hr>
          </gpxtpx:TrackPointExtension>
        </extensions>
      </trkpt>
      <trkpt lat="44.14498" lon="5.26153">
        <ele>975.4</ele>
        <time>2021-06-12T07:59:10Z</time>
        <extensions>
          <gpxtpx:TrackPointExtension xmlns:gpxtpx="http://www.garmin.com/xmlschemas/TrackPointExtension/v1">
            <gpxtpx:hr>147</gpxtpx:hr>
          </gpxtpx:TrackPointExtension>
        </extensions>
      </trkpt>
      <trkpt lat="44.145" lon="5.26154">
        <ele>976</ele>
        <time>2021-06-12T07:59:12Z</time>
        <extensions>
          <gpxtpx:TrackPointExtension xmlns:gpxtpx="http://www.garmin.com/xmlschemas/TrackPointExtension/v1">
            <gpxtpx:hr>147</gpxtpx:hr>
          </gpxtpx:TrackPointExtension>
        </extensions>
      </trkpt>
      <trkpt lat="44.14501" lon="5.26157">
        <ele>976.6</ele>
        <time>2021-06-12T07:59:15Z</time>
        <extensions>
          <gpxtpx:TrackPointExtension xmlns:gpxtpx="http://www.garmin.com/xmlschemas/TrackPointExtension/v1">
            <gpxtpx:hr>147</gpxtpx:hr>
          </gpxtpx:TrackPointExtension>
        </extensions>
      </trkpt>
      <trkpt lat="44.14502" lon="5.26158">
        <ele>976.8</ele>
        <time>2021-06-12T07:59:16Z</time>
        <extensions>
          <gpxtpx:TrackPointExtension xmlns:gpxtpx="http://www.garmin.com/xmlschemas/TrackPointExtension/v1">
            <gpxtpx:hr>148</gpxtpx:hr>
          </gpxtpx:TrackPointExtension>
        </extensions>
      </trkpt>
      <trkpt lat="44.14507" lon="5.26164">
        <ele>977.6</ele>
        <time>2021-06-12T07:59:19Z</time>
        <extensions>
          <gpxtpx:TrackPointExtension xmlns:gpxtpx="http://www.garmin.com/xmlschemas/TrackPointExtension/v1">
            <gpxtpx:hr>148</gpxtpx:hr>
          </gpxtpx:TrackPointExtension>
        </extensions>
      </trkpt>
      <trkpt lat="44.14508" lon="5.26167">
        <ele>978</ele>
        <time>2021-06-12T07:59:20Z</time>
        <extensions>
          <gpxtpx:TrackPointExtension xmlns:gpxtpx="http://www.garmin.com/xmlschemas/TrackPointExtension/v1">
            <gpxtpx:hr>148</gpxtpx:hr>
          </gpxtpx:TrackPointExtension>
        </extensions>
      </trkpt>
      <trkpt lat="44.14509" lon="5.26171">
        <ele>978.4</ele>
        <time>2021-06-12T07:59:22Z</time>
        <extensions>
          <gpxtpx:TrackPointExtension xmlns:gpxtpx="http://www.garmin.com/xmlschemas/TrackPointExtension/v1">
            <gpxtpx:hr>148</gpxtpx:hr>
          </gpxtpx:TrackPointExtension>
        </extensions>
      </trkpt>
      <trkpt lat="44.1451" lon="5.26173">
        <ele>978.8</ele>
        <time>2021-06-12T07:59:24Z</time>
        <extensions>
          <gpxtpx:TrackPointExtension xmlns:gpxtpx="http://www.garmin.com/xmlschemas/TrackPointExtension/v1">
            <gpxtpx:hr>148</gpxtpx:hr>
          </gpxtpx:TrackPointExtension>
        </extensions>
      </trkpt>
      <trkpt lat="44.14513" lon="5.26177">
        <ele>979.2</ele>
        <time>2021-06-12T07:59:27Z</time>
        <extensions>
          <gpxtpx:TrackPointExtension xmlns:gpxtpx="http://www.garmin.com/xmlschemas/TrackPointExtension/v1">
            <gpxtpx:hr>147</gpxtpx:hr>
          </gpxtpx:TrackPointExtension>
        </extensions>
      </trkpt>
      <trkpt lat="44.14515" lon="5.2618">
        <ele>979.8</ele>
        <time>2021-06-12T07:59:29Z</time>
        <extensions>
          <gpxtpx:TrackPointExtension xmlns:gpxtpx="http://www.garmin.com/xmlschemas/TrackPointExtension/v1">
            <gpxtpx:hr>147</gpxtpx:hr>
          </gpxtpx:TrackPointExtension>
        </extensions>
      </trkpt>
      <trkpt lat="44.14515" lon="5.26184">
        <ele>980.2</ele>
        <time>2021-06-12T07:59:31Z</time>
        <extensions>
          <gpxtpx:TrackPointExtension xmlns:gpxtpx="http://www.garmin.com/xmlschemas/TrackPointExtension/v1">
            <gpxtpx:hr>147</gpxtpx:hr>
          </gpxtpx:TrackPointExtension>
        </extensions>
      </trkpt>
      <trkpt lat="44.14514" lon="5.26192">
        <ele>980.4</ele>
        <time>2021-06-12T07:59:35Z</time>
        <extensions>
          <gpxtpx:TrackPointExtension xmlns:gpxtpx="http://www.garmin.com/xmlschemas/TrackPointExtension/v1">
            <gpxtpx:hr>147</gpxtpx:hr>
          </gpxtpx:TrackPointExtension>
        </extensions>
      </trkpt>
      <trkpt lat="44.14515" lon="5.26196">
        <ele>980.4</ele>
        <time>2021-06-12T07:59:38Z</time>
        <extensions>
          <gpxtpx:TrackPointExtension xmlns:gpxtpx="http://www.garmin.com/xmlschemas/TrackPointExtension/v1">
            <gpxtpx:hr>146</gpxtpx:hr>
          </gpxtpx:TrackPointExtension>
        </extensions>
      </trkpt>
      <trkpt lat="44.14516" lon="5.26197">
        <ele>980.8</ele>
        <time>2021-06-12T07:59:40Z</time>
        <extensions>
          <gpxtpx:TrackPointExtension xmlns:gpxtpx="http://www.garmin.com/xmlschemas/TrackPointExtension/v1">
            <gpxtpx:hr>146</gpxtpx:hr>
          </gpxtpx:TrackPointExtension>
        </extensions>
      </trkpt>
      <trkpt lat="44.14518" lon="5.26202">
        <ele>982</ele>
        <time>2021-06-12T07:59:46Z</time>
        <extensions>
          <gpxtpx:TrackPointExtension xmlns:gpxtpx="http://www.garmin.com/xmlschemas/TrackPointExtension/v1">
            <gpxtpx:hr>145</gpxtpx:hr>
          </gpxtpx:TrackPointExtension>
        </extensions>
      </trkpt>
      <trkpt lat="44.14527" lon="5.26211">
        <ele>983</ele>
        <time>2021-06-12T07:59:54Z</time>
        <extensions>
          <gpxtpx:TrackPointExtension xmlns:gpxtpx="http://www.garmin.com/xmlschemas/TrackPointExtension/v1">
            <gpxtpx:hr>145</gpxtpx:hr>
          </gpxtpx:TrackPointExtension>
        </extensions>
      </trkpt>
      <trkpt lat="44.14529" lon="5.26211">
        <ele>983.6</ele>
        <time>2021-06-12T07:59:56Z</time>
        <extensions>
          <gpxtpx:TrackPointExtension xmlns:gpxtpx="http://www.garmin.com/xmlschemas/TrackPointExtension/v1">
            <gpxtpx:hr>145</gpxtpx:hr>
          </gpxtpx:TrackPointExtension>
        </extensions>
      </trkpt>
      <trkpt lat="44.14534" lon="5.26212">
        <ele>984.4</ele>
        <time>2021-06-12T07:59:59Z</time>
        <extensions>
          <gpxtpx:TrackPointExtension xmlns:gpxtpx="http://www.garmin.com/xmlschemas/TrackPointExtension/v1">
            <gpxtpx:hr>145</gpxtpx:hr>
          </gpxtpx:TrackPointExtension>
        </extensions>
      </trkpt>
      <trkpt lat="44.14535" lon="5.26212">
        <ele>984.8</ele>
        <time>2021-06-12T08:00:01Z</time>
        <extensions>
          <gpxtpx:TrackPointExtension xmlns:gpxtpx="http://www.garmin.com/xmlschemas/TrackPointExtension/v1">
            <gpxtpx:hr>144</gpxtpx:hr>
          </gpxtpx:TrackPointExtension>
        </extensions>
      </trkpt>
      <trkpt lat="44.14537" lon="5.26214">
        <ele>985.4</ele>
        <time>2021-06-12T08:00:03Z</time>
        <extensions>
          <gpxtpx:TrackPointExtension xmlns:gpxtpx="http://www.garmin.com/xmlschemas/TrackPointExtension/v1">
            <gpxtpx:hr>145</gpxtpx:hr>
          </gpxtpx:TrackPointExtension>
        </extensions>
      </trkpt>
      <trkpt lat="44.1454" lon="5.26216">
        <ele>986.2</ele>
        <time>2021-06-12T08:00:06Z</time>
        <extensions>
          <gpxtpx:TrackPointExtension xmlns:gpxtpx="http://www.garmin.com/xmlschemas/TrackPointExtension/v1">
            <gpxtpx:hr>145</gpxtpx:hr>
          </gpxtpx:TrackPointExtension>
        </extensions>
      </trkpt>
      <trkpt lat="44.14541" lon="5.26219">
        <ele>986.6</ele>
        <time>2021-06-12T08:00:08Z</time>
        <extensions>
          <gpxtpx:TrackPointExtension xmlns:gpxtpx="http://www.garmin.com/xmlschemas/TrackPointExtension/v1">
            <gpxtpx:hr>146</gpxtpx:hr>
          </gpxtpx:TrackPointExtension>
        </extensions>
      </trkpt>
      <trkpt lat="44.14547" lon="5.26226">
        <ele>987</ele>
        <time>2021-06-12T08:00:13Z</time>
        <extensions>
          <gpxtpx:TrackPointExtension xmlns:gpxtpx="http://www.garmin.com/xmlschemas/TrackPointExtension/v1">
            <gpxtpx:hr>147</gpxtpx:hr>
          </gpxtpx:TrackPointExtension>
        </extensions>
      </trkpt>
      <trkpt lat="44.14553" lon="5.26239">
        <ele>987.2</ele>
        <time>2021-06-12T08:00:21Z</time>
        <extensions>
          <gpxtpx:TrackPointExtension xmlns:gpxtpx="http://www.garmin.com/xmlschemas/TrackPointExtension/v1">
            <gpxtpx:hr>144</gpxtpx:hr>
          </gpxtpx:TrackPointExtension>
        </extensions>
      </trkpt>
      <trkpt lat="44.14553" lon="5.26239">
        <ele>987.4</ele>
        <time>2021-06-12T08:00:22Z</time>
        <extensions>
          <gpxtpx:TrackPointExtension xmlns:gpxtpx="http://www.garmin.com/xmlschemas/TrackPointExtension/v1">
            <gpxtpx:hr>145</gpxtpx:hr>
          </gpxtpx:TrackPointExtension>
        </extensions>
      </trkpt>
      <trkpt lat="44.14554" lon="5.26241">
        <ele>987.6</ele>
        <time>2021-06-12T08:00:23Z</time>
        <extensions>
          <gpxtpx:TrackPointExtension xmlns:gpxtpx="http://www.garmin.com/xmlschemas/TrackPointExtension/v1">
            <gpxtpx:hr>144</gpxtpx:hr>
          </gpxtpx:TrackPointExtension>
        </extensions>
      </trkpt>
      <trkpt lat="44.14556" lon="5.26244">
        <ele>988</ele>
        <time>2021-06-12T08:00:25Z</time>
        <extensions>
          <gpxtpx:TrackPointExtension xmlns:gpxtpx="http://www.garmin.com/xmlschemas/TrackPointExtension/v1">
            <gpxtpx:hr>144</gpxtpx:hr>
          </gpxtpx:TrackPointExtension>
        </extensions>
      </trkpt>
      <trkpt lat="44.14557" lon="5.26247">
        <ele>988.6</ele>
        <time>2021-06-12T08:00:28Z</time>
        <extensions>
          <gpxtpx:TrackPointExtension xmlns:gpxtpx="http://www.garmin.com/xmlschemas/TrackPointExtension/v1">
            <gpxtpx:hr>143</gpxtpx:hr>
          </gpxtpx:TrackPointExtension>
        </extensions>
      </trkpt>
      <trkpt lat="44.14557" lon="5.26249">
        <ele>988.6</ele>
        <time>2021-06-12T08:00:29Z</time>
        <extensions>
          <gpxtpx:TrackPointExtension xmlns:gpxtpx="http://www.garmin.com/xmlschemas/TrackPointExtension/v1">
            <gpxtpx:hr>144</gpxtpx:hr>
          </gpxtpx:TrackPointExtension>
        </extensions>
      </trkpt>
      <trkpt lat="44.14558" lon="5.26251">
        <ele>988.8</ele>
        <time>2021-06-12T08:00:30Z</time>
        <extensions>
          <gpxtpx:TrackPointExtension xmlns:gpxtpx="http://www.garmin.com/xmlschemas/TrackPointExtension/v1">
            <gpxtpx:hr>143</gpxtpx:hr>
          </gpxtpx:TrackPointExtension>
        </extensions>
      </trkpt>
      <trkpt lat="44.1456" lon="5.26257">
        <ele>989.6</ele>
        <time>2021-06-12T08:00:34Z</time>
        <extensions>
          <gpxtpx:TrackPointExtension xmlns:gpxtpx="http://www.garmin.com/xmlschemas/TrackPointExtension/v1">
            <gpxtpx:hr>144</gpxtpx:hr>
          </gpxtpx:TrackPointExtension>
        </extensions>
      </trkpt>
      <trkpt lat="44.1456" lon="5.26258">
        <ele>989.8</ele>
        <time>2021-06-12T08:00:35Z</time>
        <extensions>
          <gpxtpx:TrackPointExtension xmlns:gpxtpx="http://www.garmin.com/xmlschemas/TrackPointExtension/v1">
            <gpxtpx:hr>144</gpxtpx:hr>
          </gpxtpx:TrackPointExtension>
        </extensions>
      </trkpt>
      <trkpt lat="44.1456" lon="5.2626">
        <ele>990</ele>
        <time>2021-06-12T08:00:36Z</time>
        <extensions>
          <gpxtpx:TrackPointExtension xmlns:gpxtpx="http://www.garmin.com/xmlschemas/TrackPointExtension/v1">
            <gpxtpx:hr>143</gpxtpx:hr>
          </gpxtpx:TrackPointExtension>
        </extensions>
      </trkpt>
      <trkpt lat="44.14558" lon="5.26265">
        <ele>990.4</ele>
        <time>2021-06-12T08:00:38Z</time>
        <extensions>
          <gpxtpx:TrackPointExtension xmlns:gpxtpx="http://www.garmin.com/xmlschemas/TrackPointExtension/v1">
            <gpxtpx:hr>144</gpxtpx:hr>
          </gpxtpx:TrackPointExtension>
        </extensions>
      </trkpt>
      <trkpt lat="44.14558" lon="5.26269">
        <ele>991</ele>
        <time>2021-06-12T08:00:41Z</time>
        <extensions>
          <gpxtpx:TrackPointExtension xmlns:gpxtpx="http://www.garmin.com/xmlschemas/TrackPointExtension/v1">
            <gpxtpx:hr>144</gpxtpx:hr>
          </gpxtpx:TrackPointExtension>
        </extensions>
      </trkpt>
      <trkpt lat="44.14559" lon="5.26271">
        <ele>992</ele>
        <time>2021-06-12T08:00:45Z</time>
        <extensions>
          <gpxtpx:TrackPointExtension xmlns:gpxtpx="http://www.garmin.com/xmlschemas/TrackPointExtension/v1">
            <gpxtpx:hr>143</gpxtpx:hr>
          </gpxtpx:TrackPointExtension>
        </extensions>
      </trkpt>
      <trkpt lat="44.14561" lon="5.26275">
        <ele>992.6</ele>
        <time>2021-06-12T08:00:48Z</time>
        <extensions>
          <gpxtpx:TrackPointExtension xmlns:gpxtpx="http://www.garmin.com/xmlschemas/TrackPointExtension/v1">
            <gpxtpx:hr>142</gpxtpx:hr>
          </gpxtpx:TrackPointExtension>
        </extensions>
      </trkpt>
      <trkpt lat="44.14563" lon="5.26274">
        <ele>993</ele>
        <time>2021-06-12T08:00:51Z</time>
        <extensions>
          <gpxtpx:TrackPointExtension xmlns:gpxtpx="http://www.garmin.com/xmlschemas/TrackPointExtension/v1">
            <gpxtpx:hr>143</gpxtpx:hr>
          </gpxtpx:TrackPointExtension>
        </extensions>
      </trkpt>
      <trkpt lat="44.14565" lon="5.26274">
        <ele>993.2</ele>
        <time>2021-06-12T08:00:52Z</time>
        <extensions>
          <gpxtpx:TrackPointExtension xmlns:gpxtpx="http://www.garmin.com/xmlschemas/TrackPointExtension/v1">
            <gpxtpx:hr>143</gpxtpx:hr>
          </gpxtpx:TrackPointExtension>
        </extensions>
      </trkpt>
      <trkpt lat="44.14568" lon="5.26275">
        <ele>993.6</ele>
        <time>2021-06-12T08:00:54Z</time>
        <extensions>
          <gpxtpx:TrackPointExtension xmlns:gpxtpx="http://www.garmin.com/xmlschemas/TrackPointExtension/v1">
            <gpxtpx:hr>143</gpxtpx:hr>
          </gpxtpx:TrackPointExtension>
        </extensions>
      </trkpt>
      <trkpt lat="44.14572" lon="5.26276">
        <ele>994.2</ele>
        <time>2021-06-12T08:00:57Z</time>
        <extensions>
          <gpxtpx:TrackPointExtension xmlns:gpxtpx="http://www.garmin.com/xmlschemas/TrackPointExtension/v1">
            <gpxtpx:hr>143</gpxtpx:hr>
          </gpxtpx:TrackPointExtension>
        </extensions>
      </trkpt>
      <trkpt lat="44.14574" lon="5.26276">
        <ele>994.6</ele>
        <time>2021-06-12T08:00:58Z</time>
        <extensions>
          <gpxtpx:TrackPointExtension xmlns:gpxtpx="http://www.garmin.com/xmlschemas/TrackPointExtension/v1">
            <gpxtpx:hr>143</gpxtpx:hr>
          </gpxtpx:TrackPointExtension>
        </extensions>
      </trkpt>
      <trkpt lat="44.14577" lon="5.26277">
        <ele>995.2</ele>
        <time>2021-06-12T08:01:01Z</time>
        <extensions>
          <gpxtpx:TrackPointExtension xmlns:gpxtpx="http://www.garmin.com/xmlschemas/TrackPointExtension/v1">
            <gpxtpx:hr>143</gpxtpx:hr>
          </gpxtpx:TrackPointExtension>
        </extensions>
      </trkpt>
      <trkpt lat="44.1458" lon="5.26278">
        <ele>996.2</ele>
        <time>2021-06-12T08:01:05Z</time>
        <extensions>
          <gpxtpx:TrackPointExtension xmlns:gpxtpx="http://www.garmin.com/xmlschemas/TrackPointExtension/v1">
            <gpxtpx:hr>143</gpxtpx:hr>
          </gpxtpx:TrackPointExtension>
        </extensions>
      </trkpt>
      <trkpt lat="44.14581" lon="5.26278">
        <ele>996.4</ele>
        <time>2021-06-12T08:01:06Z</time>
        <extensions>
          <gpxtpx:TrackPointExtension xmlns:gpxtpx="http://www.garmin.com/xmlschemas/TrackPointExtension/v1">
            <gpxtpx:hr>144</gpxtpx:hr>
          </gpxtpx:TrackPointExtension>
        </extensions>
      </trkpt>
      <trkpt lat="44.14588" lon="5.26277">
        <ele>997</ele>
        <time>2021-06-12T08:01:13Z</time>
        <extensions>
          <gpxtpx:TrackPointExtension xmlns:gpxtpx="http://www.garmin.com/xmlschemas/TrackPointExtension/v1">
            <gpxtpx:hr>144</gpxtpx:hr>
          </gpxtpx:TrackPointExtension>
        </extensions>
      </trkpt>
      <trkpt lat="44.1459" lon="5.26276">
        <ele>997.4</ele>
        <time>2021-06-12T08:01:16Z</time>
        <extensions>
          <gpxtpx:TrackPointExtension xmlns:gpxtpx="http://www.garmin.com/xmlschemas/TrackPointExtension/v1">
            <gpxtpx:hr>144</gpxtpx:hr>
          </gpxtpx:TrackPointExtension>
        </extensions>
      </trkpt>
      <trkpt lat="44.14595" lon="5.26275">
        <ele>997.8</ele>
        <time>2021-06-12T08:01:20Z</time>
        <extensions>
          <gpxtpx:TrackPointExtension xmlns:gpxtpx="http://www.garmin.com/xmlschemas/TrackPointExtension/v1">
            <gpxtpx:hr>143</gpxtpx:hr>
          </gpxtpx:TrackPointExtension>
        </extensions>
      </trkpt>
      <trkpt lat="44.14599" lon="5.26276">
        <ele>998.4</ele>
        <time>2021-06-12T08:01:23Z</time>
        <extensions>
          <gpxtpx:TrackPointExtension xmlns:gpxtpx="http://www.garmin.com/xmlschemas/TrackPointExtension/v1">
            <gpxtpx:hr>143</gpxtpx:hr>
          </gpxtpx:TrackPointExtension>
        </extensions>
      </trkpt>
      <trkpt lat="44.14599" lon="5.26277">
        <ele>998.6</ele>
        <time>2021-06-12T08:01:24Z</time>
        <extensions>
          <gpxtpx:TrackPointExtension xmlns:gpxtpx="http://www.garmin.com/xmlschemas/TrackPointExtension/v1">
            <gpxtpx:hr>142</gpxtpx:hr>
          </gpxtpx:TrackPointExtension>
        </extensions>
      </trkpt>
      <trkpt lat="44.14599" lon="5.26277">
        <ele>998.6</ele>
        <time>2021-06-12T08:01:25Z</time>
        <extensions>
          <gpxtpx:TrackPointExtension xmlns:gpxtpx="http://www.garmin.com/xmlschemas/TrackPointExtension/v1">
            <gpxtpx:hr>143</gpxtpx:hr>
          </gpxtpx:TrackPointExtension>
        </extensions>
      </trkpt>
      <trkpt lat="44.14601" lon="5.26281">
        <ele>999.4</ele>
        <time>2021-06-12T08:01:29Z</time>
        <extensions>
          <gpxtpx:TrackPointExtension xmlns:gpxtpx="http://www.garmin.com/xmlschemas/TrackPointExtension/v1">
            <gpxtpx:hr>142</gpxtpx:hr>
          </gpxtpx:TrackPointExtension>
        </extensions>
      </trkpt>
      <trkpt lat="44.14601" lon="5.26283">
        <ele>999.8</ele>
        <time>2021-06-12T08:01:30Z</time>
        <extensions>
          <gpxtpx:TrackPointExtension xmlns:gpxtpx="http://www.garmin.com/xmlschemas/TrackPointExtension/v1">
            <gpxtpx:hr>142</gpxtpx:hr>
          </gpxtpx:TrackPointExtension>
        </extensions>
      </trkpt>
      <trkpt lat="44.14604" lon="5.26288">
        <ele>1000.6</ele>
        <time>2021-06-12T08:01:33Z</time>
        <extensions>
          <gpxtpx:TrackPointExtension xmlns:gpxtpx="http://www.garmin.com/xmlschemas/TrackPointExtension/v1">
            <gpxtpx:hr>143</gpxtpx:hr>
          </gpxtpx:TrackPointExtension>
        </extensions>
      </trkpt>
      <trkpt lat="44.14604" lon="5.26288">
        <ele>1000.8</ele>
        <time>2021-06-12T08:01:34Z</time>
        <extensions>
          <gpxtpx:TrackPointExtension xmlns:gpxtpx="http://www.garmin.com/xmlschemas/TrackPointExtension/v1">
            <gpxtpx:hr>142</gpxtpx:hr>
          </gpxtpx:TrackPointExtension>
        </extensions>
      </trkpt>
      <trkpt lat="44.14613" lon="5.26291">
        <ele>1001.4</ele>
        <time>2021-06-12T08:01:39Z</time>
        <extensions>
          <gpxtpx:TrackPointExtension xmlns:gpxtpx="http://www.garmin.com/xmlschemas/TrackPointExtension/v1">
            <gpxtpx:hr>143</gpxtpx:hr>
          </gpxtpx:TrackPointExtension>
        </extensions>
      </trkpt>
      <trkpt lat="44.14621" lon="5.26292">
        <ele>1001.8</ele>
        <time>2021-06-12T08:01:45Z</time>
        <extensions>
          <gpxtpx:TrackPointExtension xmlns:gpxtpx="http://www.garmin.com/xmlschemas/TrackPointExtension/v1">
            <gpxtpx:hr>142</gpxtpx:hr>
          </gpxtpx:TrackPointExtension>
        </extensions>
      </trkpt>
      <trkpt lat="44.14624" lon="5.26293">
        <ele>1002.4</ele>
        <time>2021-06-12T08:01:48Z</time>
        <extensions>
          <gpxtpx:TrackPointExtension xmlns:gpxtpx="http://www.garmin.com/xmlschemas/TrackPointExtension/v1">
            <gpxtpx:hr>141</gpxtpx:hr>
          </gpxtpx:TrackPointExtension>
        </extensions>
      </trkpt>
      <trkpt lat="44.14625" lon="5.26292">
        <ele>1002.6</ele>
        <time>2021-06-12T08:01:49Z</time>
        <extensions>
          <gpxtpx:TrackPointExtension xmlns:gpxtpx="http://www.garmin.com/xmlschemas/TrackPointExtension/v1">
            <gpxtpx:hr>142</gpxtpx:hr>
          </gpxtpx:TrackPointExtension>
        </extensions>
      </trkpt>
      <trkpt lat="44.14625" lon="5.26292">
        <ele>1002.8</ele>
        <time>2021-06-12T08:01:50Z</time>
        <extensions>
          <gpxtpx:TrackPointExtension xmlns:gpxtpx="http://www.garmin.com/xmlschemas/TrackPointExtension/v1">
            <gpxtpx:hr>142</gpxtpx:hr>
          </gpxtpx:TrackPointExtension>
        </extensions>
      </trkpt>
      <trkpt lat="44.14625" lon="5.26291">
        <ele>1003</ele>
        <time>2021-06-12T08:01:51Z</time>
        <extensions>
          <gpxtpx:TrackPointExtension xmlns:gpxtpx="http://www.garmin.com/xmlschemas/TrackPointExtension/v1">
            <gpxtpx:hr>142</gpxtpx:hr>
          </gpxtpx:TrackPointExtension>
        </extensions>
      </trkpt>
      <trkpt lat="44.14626" lon="5.26289">
        <ele>1003.4</ele>
        <time>2021-06-12T08:01:53Z</time>
        <extensions>
          <gpxtpx:TrackPointExtension xmlns:gpxtpx="http://www.garmin.com/xmlschemas/TrackPointExtension/v1">
            <gpxtpx:hr>142</gpxtpx:hr>
          </gpxtpx:TrackPointExtension>
        </extensions>
      </trkpt>
      <trkpt lat="44.14626" lon="5.26288">
        <ele>1003.8</ele>
        <time>2021-06-12T08:01:56Z</time>
        <extensions>
          <gpxtpx:TrackPointExtension xmlns:gpxtpx="http://www.garmin.com/xmlschemas/TrackPointExtension/v1">
            <gpxtpx:hr>143</gpxtpx:hr>
          </gpxtpx:TrackPointExtension>
        </extensions>
      </trkpt>
      <trkpt lat="44.14627" lon="5.26286">
        <ele>1004</ele>
        <time>2021-06-12T08:01:58Z</time>
        <extensions>
          <gpxtpx:TrackPointExtension xmlns:gpxtpx="http://www.garmin.com/xmlschemas/TrackPointExtension/v1">
            <gpxtpx:hr>143</gpxtpx:hr>
          </gpxtpx:TrackPointExtension>
        </extensions>
      </trkpt>
      <trkpt lat="44.14627" lon="5.26285">
        <ele>1004.2</ele>
        <time>2021-06-12T08:01:59Z</time>
        <extensions>
          <gpxtpx:TrackPointExtension xmlns:gpxtpx="http://www.garmin.com/xmlschemas/TrackPointExtension/v1">
            <gpxtpx:hr>143</gpxtpx:hr>
          </gpxtpx:TrackPointExtension>
        </extensions>
      </trkpt>
      <trkpt lat="44.14628" lon="5.26284">
        <ele>1004.6</ele>
        <time>2021-06-12T08:02:01Z</time>
        <extensions>
          <gpxtpx:TrackPointExtension xmlns:gpxtpx="http://www.garmin.com/xmlschemas/TrackPointExtension/v1">
            <gpxtpx:hr>143</gpxtpx:hr>
          </gpxtpx:TrackPointExtension>
        </extensions>
      </trkpt>
      <trkpt lat="44.14628" lon="5.26285">
        <ele>1005</ele>
        <time>2021-06-12T08:02:03Z</time>
        <extensions>
          <gpxtpx:TrackPointExtension xmlns:gpxtpx="http://www.garmin.com/xmlschemas/TrackPointExtension/v1">
            <gpxtpx:hr>142</gpxtpx:hr>
          </gpxtpx:TrackPointExtension>
        </extensions>
      </trkpt>
      <trkpt lat="44.14628" lon="5.26287">
        <ele>1005.2</ele>
        <time>2021-06-12T08:02:04Z</time>
        <extensions>
          <gpxtpx:TrackPointExtension xmlns:gpxtpx="http://www.garmin.com/xmlschemas/TrackPointExtension/v1">
            <gpxtpx:hr>142</gpxtpx:hr>
          </gpxtpx:TrackPointExtension>
        </extensions>
      </trkpt>
      <trkpt lat="44.14627" lon="5.26291">
        <ele>1005.6</ele>
        <time>2021-06-12T08:02:07Z</time>
        <extensions>
          <gpxtpx:TrackPointExtension xmlns:gpxtpx="http://www.garmin.com/xmlschemas/TrackPointExtension/v1">
            <gpxtpx:hr>143</gpxtpx:hr>
          </gpxtpx:TrackPointExtension>
        </extensions>
      </trkpt>
      <trkpt lat="44.14627" lon="5.26297">
        <ele>1006.2</ele>
        <time>2021-06-12T08:02:11Z</time>
        <extensions>
          <gpxtpx:TrackPointExtension xmlns:gpxtpx="http://www.garmin.com/xmlschemas/TrackPointExtension/v1">
            <gpxtpx:hr>143</gpxtpx:hr>
          </gpxtpx:TrackPointExtension>
        </extensions>
      </trkpt>
      <trkpt lat="44.14627" lon="5.26299">
        <ele>1006.8</ele>
        <time>2021-06-12T08:02:13Z</time>
        <extensions>
          <gpxtpx:TrackPointExtension xmlns:gpxtpx="http://www.garmin.com/xmlschemas/TrackPointExtension/v1">
            <gpxtpx:hr>143</gpxtpx:hr>
          </gpxtpx:TrackPointExtension>
        </extensions>
      </trkpt>
      <trkpt lat="44.14631" lon="5.26305">
        <ele>1007.4</ele>
        <time>2021-06-12T08:02:16Z</time>
        <extensions>
          <gpxtpx:TrackPointExtension xmlns:gpxtpx="http://www.garmin.com/xmlschemas/TrackPointExtension/v1">
            <gpxtpx:hr>142</gpxtpx:hr>
          </gpxtpx:TrackPointExtension>
        </extensions>
      </trkpt>
      <trkpt lat="44.14636" lon="5.26307">
        <ele>1008</ele>
        <time>2021-06-12T08:02:19Z</time>
        <extensions>
          <gpxtpx:TrackPointExtension xmlns:gpxtpx="http://www.garmin.com/xmlschemas/TrackPointExtension/v1">
            <gpxtpx:hr>142</gpxtpx:hr>
          </gpxtpx:TrackPointExtension>
        </extensions>
      </trkpt>
      <trkpt lat="44.14639" lon="5.26306">
        <ele>1008.2</ele>
        <time>2021-06-12T08:02:22Z</time>
        <extensions>
          <gpxtpx:TrackPointExtension xmlns:gpxtpx="http://www.garmin.com/xmlschemas/TrackPointExtension/v1">
            <gpxtpx:hr>142</gpxtpx:hr>
          </gpxtpx:TrackPointExtension>
        </extensions>
      </trkpt>
      <trkpt lat="44.1464" lon="5.26306">
        <ele>1008.6</ele>
        <time>2021-06-12T08:02:24Z</time>
        <extensions>
          <gpxtpx:TrackPointExtension xmlns:gpxtpx="http://www.garmin.com/xmlschemas/TrackPointExtension/v1">
            <gpxtpx:hr>142</gpxtpx:hr>
          </gpxtpx:TrackPointExtension>
        </extensions>
      </trkpt>
      <trkpt lat="44.14641" lon="5.26307">
        <ele>1008.6</ele>
        <time>2021-06-12T08:02:25Z</time>
        <extensions>
          <gpxtpx:TrackPointExtension xmlns:gpxtpx="http://www.garmin.com/xmlschemas/TrackPointExtension/v1">
            <gpxtpx:hr>141</gpxtpx:hr>
          </gpxtpx:TrackPointExtension>
        </extensions>
      </trkpt>
      <trkpt lat="44.14645" lon="5.26302">
        <ele>1009.2</ele>
        <time>2021-06-12T08:02:28Z</time>
        <extensions>
          <gpxtpx:TrackPointExtension xmlns:gpxtpx="http://www.garmin.com/xmlschemas/TrackPointExtension/v1">
            <gpxtpx:hr>142</gpxtpx:hr>
          </gpxtpx:TrackPointExtension>
        </extensions>
      </trkpt>
      <trkpt lat="44.14647" lon="5.26302">
        <ele>1009.8</ele>
        <time>2021-06-12T08:02:30Z</time>
        <extensions>
          <gpxtpx:TrackPointExtension xmlns:gpxtpx="http://www.garmin.com/xmlschemas/TrackPointExtension/v1">
            <gpxtpx:hr>142</gpxtpx:hr>
          </gpxtpx:TrackPointExtension>
        </extensions>
      </trkpt>
      <trkpt lat="44.14649" lon="5.26301">
        <ele>1010.2</ele>
        <time>2021-06-12T08:02:32Z</time>
        <extensions>
          <gpxtpx:TrackPointExtension xmlns:gpxtpx="http://www.garmin.com/xmlschemas/TrackPointExtension/v1">
            <gpxtpx:hr>143</gpxtpx:hr>
          </gpxtpx:TrackPointExtension>
        </extensions>
      </trkpt>
      <trkpt lat="44.1465" lon="5.26302">
        <ele>1010.8</ele>
        <time>2021-06-12T08:02:34Z</time>
        <extensions>
          <gpxtpx:TrackPointExtension xmlns:gpxtpx="http://www.garmin.com/xmlschemas/TrackPointExtension/v1">
            <gpxtpx:hr>143</gpxtpx:hr>
          </gpxtpx:TrackPointExtension>
        </extensions>
      </trkpt>
      <trkpt lat="44.14653" lon="5.26308">
        <ele>1011.6</ele>
        <time>2021-06-12T08:02:39Z</time>
        <extensions>
          <gpxtpx:TrackPointExtension xmlns:gpxtpx="http://www.garmin.com/xmlschemas/TrackPointExtension/v1">
            <gpxtpx:hr>145</gpxtpx:hr>
          </gpxtpx:TrackPointExtension>
        </extensions>
      </trkpt>
      <trkpt lat="44.14657" lon="5.26311">
        <ele>1012</ele>
        <time>2021-06-12T08:02:42Z</time>
        <extensions>
          <gpxtpx:TrackPointExtension xmlns:gpxtpx="http://www.garmin.com/xmlschemas/TrackPointExtension/v1">
            <gpxtpx:hr>144</gpxtpx:hr>
          </gpxtpx:TrackPointExtension>
        </extensions>
      </trkpt>
      <trkpt lat="44.1466" lon="5.26314">
        <ele>1012.6</ele>
        <time>2021-06-12T08:02:45Z</time>
        <extensions>
          <gpxtpx:TrackPointExtension xmlns:gpxtpx="http://www.garmin.com/xmlschemas/TrackPointExtension/v1">
            <gpxtpx:hr>143</gpxtpx:hr>
          </gpxtpx:TrackPointExtension>
        </extensions>
      </trkpt>
      <trkpt lat="44.14661" lon="5.26316">
        <ele>1012.8</ele>
        <time>2021-06-12T08:02:46Z</time>
        <extensions>
          <gpxtpx:TrackPointExtension xmlns:gpxtpx="http://www.garmin.com/xmlschemas/TrackPointExtension/v1">
            <gpxtpx:hr>142</gpxtpx:hr>
          </gpxtpx:TrackPointExtension>
        </extensions>
      </trkpt>
      <trkpt lat="44.14661" lon="5.26318">
        <ele>1012.8</ele>
        <time>2021-06-12T08:02:47Z</time>
        <extensions>
          <gpxtpx:TrackPointExtension xmlns:gpxtpx="http://www.garmin.com/xmlschemas/TrackPointExtension/v1">
            <gpxtpx:hr>142</gpxtpx:hr>
          </gpxtpx:TrackPointExtension>
        </extensions>
      </trkpt>
      <trkpt lat="44.14662" lon="5.26322">
        <ele>1013</ele>
        <time>2021-06-12T08:02:49Z</time>
        <extensions>
          <gpxtpx:TrackPointExtension xmlns:gpxtpx="http://www.garmin.com/xmlschemas/TrackPointExtension/v1">
            <gpxtpx:hr>142</gpxtpx:hr>
          </gpxtpx:TrackPointExtension>
        </extensions>
      </trkpt>
      <trkpt lat="44.14662" lon="5.26324">
        <ele>1013.2</ele>
        <time>2021-06-12T08:02:50Z</time>
        <extensions>
          <gpxtpx:TrackPointExtension xmlns:gpxtpx="http://www.garmin.com/xmlschemas/TrackPointExtension/v1">
            <gpxtpx:hr>141</gpxtpx:hr>
          </gpxtpx:TrackPointExtension>
        </extensions>
      </trkpt>
      <trkpt lat="44.14665" lon="5.26334">
        <ele>1014</ele>
        <time>2021-06-12T08:02:56Z</time>
        <extensions>
          <gpxtpx:TrackPointExtension xmlns:gpxtpx="http://www.garmin.com/xmlschemas/TrackPointExtension/v1">
            <gpxtpx:hr>140</gpxtpx:hr>
          </gpxtpx:TrackPointExtension>
        </extensions>
      </trkpt>
      <trkpt lat="44.14665" lon="5.26335">
        <ele>1014.4</ele>
        <time>2021-06-12T08:02:57Z</time>
        <extensions>
          <gpxtpx:TrackPointExtension xmlns:gpxtpx="http://www.garmin.com/xmlschemas/TrackPointExtension/v1">
            <gpxtpx:hr>140</gpxtpx:hr>
          </gpxtpx:TrackPointExtension>
        </extensions>
      </trkpt>
      <trkpt lat="44.14666" lon="5.26338">
        <ele>1015</ele>
        <time>2021-06-12T08:02:59Z</time>
        <extensions>
          <gpxtpx:TrackPointExtension xmlns:gpxtpx="http://www.garmin.com/xmlschemas/TrackPointExtension/v1">
            <gpxtpx:hr>140</gpxtpx:hr>
          </gpxtpx:TrackPointExtension>
        </extensions>
      </trkpt>
      <trkpt lat="44.14666" lon="5.26338">
        <ele>1015.4</ele>
        <time>2021-06-12T08:03:00Z</time>
        <extensions>
          <gpxtpx:TrackPointExtension xmlns:gpxtpx="http://www.garmin.com/xmlschemas/TrackPointExtension/v1">
            <gpxtpx:hr>140</gpxtpx:hr>
          </gpxtpx:TrackPointExtension>
        </extensions>
      </trkpt>
      <trkpt lat="44.14666" lon="5.26339">
        <ele>1015.6</ele>
        <time>2021-06-12T08:03:01Z</time>
        <extensions>
          <gpxtpx:TrackPointExtension xmlns:gpxtpx="http://www.garmin.com/xmlschemas/TrackPointExtension/v1">
            <gpxtpx:hr>140</gpxtpx:hr>
          </gpxtpx:TrackPointExtension>
        </extensions>
      </trkpt>
      <trkpt lat="44.14666" lon="5.26341">
        <ele>1016</ele>
        <time>2021-06-12T08:03:02Z</time>
        <extensions>
          <gpxtpx:TrackPointExtension xmlns:gpxtpx="http://www.garmin.com/xmlschemas/TrackPointExtension/v1">
            <gpxtpx:hr>141</gpxtpx:hr>
          </gpxtpx:TrackPointExtension>
        </extensions>
      </trkpt>
      <trkpt lat="44.14665" lon="5.26343">
        <ele>1016.4</ele>
        <time>2021-06-12T08:03:04Z</time>
        <extensions>
          <gpxtpx:TrackPointExtension xmlns:gpxtpx="http://www.garmin.com/xmlschemas/TrackPointExtension/v1">
            <gpxtpx:hr>142</gpxtpx:hr>
          </gpxtpx:TrackPointExtension>
        </extensions>
      </trkpt>
      <trkpt lat="44.14664" lon="5.26346">
        <ele>1016.8</ele>
        <time>2021-06-12T08:03:06Z</time>
        <extensions>
          <gpxtpx:TrackPointExtension xmlns:gpxtpx="http://www.garmin.com/xmlschemas/TrackPointExtension/v1">
            <gpxtpx:hr>143</gpxtpx:hr>
          </gpxtpx:TrackPointExtension>
        </extensions>
      </trkpt>
      <trkpt lat="44.14664" lon="5.26347">
        <ele>1017.2</ele>
        <time>2021-06-12T08:03:07Z</time>
        <extensions>
          <gpxtpx:TrackPointExtension xmlns:gpxtpx="http://www.garmin.com/xmlschemas/TrackPointExtension/v1">
            <gpxtpx:hr>143</gpxtpx:hr>
          </gpxtpx:TrackPointExtension>
        </extensions>
      </trkpt>
      <trkpt lat="44.14664" lon="5.2635">
        <ele>1017.6</ele>
        <time>2021-06-12T08:03:09Z</time>
        <extensions>
          <gpxtpx:TrackPointExtension xmlns:gpxtpx="http://www.garmin.com/xmlschemas/TrackPointExtension/v1">
            <gpxtpx:hr>143</gpxtpx:hr>
          </gpxtpx:TrackPointExtension>
        </extensions>
      </trkpt>
      <trkpt lat="44.14663" lon="5.26351">
        <ele>1017.8</ele>
        <time>2021-06-12T08:03:10Z</time>
        <extensions>
          <gpxtpx:TrackPointExtension xmlns:gpxtpx="http://www.garmin.com/xmlschemas/TrackPointExtension/v1">
            <gpxtpx:hr>143</gpxtpx:hr>
          </gpxtpx:TrackPointExtension>
        </extensions>
      </trkpt>
      <trkpt lat="44.14663" lon="5.26352">
        <ele>1018.4</ele>
        <time>2021-06-12T08:03:12Z</time>
        <extensions>
          <gpxtpx:TrackPointExtension xmlns:gpxtpx="http://www.garmin.com/xmlschemas/TrackPointExtension/v1">
            <gpxtpx:hr>144</gpxtpx:hr>
          </gpxtpx:TrackPointExtension>
        </extensions>
      </trkpt>
      <trkpt lat="44.14663" lon="5.26352">
        <ele>1018.6</ele>
        <time>2021-06-12T08:03:13Z</time>
        <extensions>
          <gpxtpx:TrackPointExtension xmlns:gpxtpx="http://www.garmin.com/xmlschemas/TrackPointExtension/v1">
            <gpxtpx:hr>144</gpxtpx:hr>
          </gpxtpx:TrackPointExtension>
        </extensions>
      </trkpt>
      <trkpt lat="44.14663" lon="5.26353">
        <ele>1018.8</ele>
        <time>2021-06-12T08:03:14Z</time>
        <extensions>
          <gpxtpx:TrackPointExtension xmlns:gpxtpx="http://www.garmin.com/xmlschemas/TrackPointExtension/v1">
            <gpxtpx:hr>145</gpxtpx:hr>
          </gpxtpx:TrackPointExtension>
        </extensions>
      </trkpt>
      <trkpt lat="44.14663" lon="5.26354">
        <ele>1019.2</ele>
        <time>2021-06-12T08:03:15Z</time>
        <extensions>
          <gpxtpx:TrackPointExtension xmlns:gpxtpx="http://www.garmin.com/xmlschemas/TrackPointExtension/v1">
            <gpxtpx:hr>145</gpxtpx:hr>
          </gpxtpx:TrackPointExtension>
        </extensions>
      </trkpt>
      <trkpt lat="44.14666" lon="5.26357">
        <ele>1020</ele>
        <time>2021-06-12T08:03:17Z</time>
        <extensions>
          <gpxtpx:TrackPointExtension xmlns:gpxtpx="http://www.garmin.com/xmlschemas/TrackPointExtension/v1">
            <gpxtpx:hr>145</gpxtpx:hr>
          </gpxtpx:TrackPointExtension>
        </extensions>
      </trkpt>
      <trkpt lat="44.14669" lon="5.26358">
        <ele>1020.4</ele>
        <time>2021-06-12T08:03:19Z</time>
        <extensions>
          <gpxtpx:TrackPointExtension xmlns:gpxtpx="http://www.garmin.com/xmlschemas/TrackPointExtension/v1">
            <gpxtpx:hr>147</gpxtpx:hr>
          </gpxtpx:TrackPointExtension>
        </extensions>
      </trkpt>
      <trkpt lat="44.1467" lon="5.26358">
        <ele>1020.8</ele>
        <time>2021-06-12T08:03:20Z</time>
        <extensions>
          <gpxtpx:TrackPointExtension xmlns:gpxtpx="http://www.garmin.com/xmlschemas/TrackPointExtension/v1">
            <gpxtpx:hr>147</gpxtpx:hr>
          </gpxtpx:TrackPointExtension>
        </extensions>
      </trkpt>
      <trkpt lat="44.14671" lon="5.26359">
        <ele>1021.2</ele>
        <time>2021-06-12T08:03:22Z</time>
        <extensions>
          <gpxtpx:TrackPointExtension xmlns:gpxtpx="http://www.garmin.com/xmlschemas/TrackPointExtension/v1">
            <gpxtpx:hr>147</gpxtpx:hr>
          </gpxtpx:TrackPointExtension>
        </extensions>
      </trkpt>
      <trkpt lat="44.14671" lon="5.26361">
        <ele>1021.8</ele>
        <time>2021-06-12T08:03:24Z</time>
        <extensions>
          <gpxtpx:TrackPointExtension xmlns:gpxtpx="http://www.garmin.com/xmlschemas/TrackPointExtension/v1">
            <gpxtpx:hr>148</gpxtpx:hr>
          </gpxtpx:TrackPointExtension>
        </extensions>
      </trkpt>
      <trkpt lat="44.14672" lon="5.26363">
        <ele>1022.4</ele>
        <time>2021-06-12T08:03:26Z</time>
        <extensions>
          <gpxtpx:TrackPointExtension xmlns:gpxtpx="http://www.garmin.com/xmlschemas/TrackPointExtension/v1">
            <gpxtpx:hr>148</gpxtpx:hr>
          </gpxtpx:TrackPointExtension>
        </extensions>
      </trkpt>
      <trkpt lat="44.14671" lon="5.26367">
        <ele>1023.2</ele>
        <time>2021-06-12T08:03:29Z</time>
        <extensions>
          <gpxtpx:TrackPointExtension xmlns:gpxtpx="http://www.garmin.com/xmlschemas/TrackPointExtension/v1">
            <gpxtpx:hr>148</gpxtpx:hr>
          </gpxtpx:TrackPointExtension>
        </extensions>
      </trkpt>
      <trkpt lat="44.14671" lon="5.26367">
        <ele>1023.4</ele>
        <time>2021-06-12T08:03:30Z</time>
        <extensions>
          <gpxtpx:TrackPointExtension xmlns:gpxtpx="http://www.garmin.com/xmlschemas/TrackPointExtension/v1">
            <gpxtpx:hr>149</gpxtpx:hr>
          </gpxtpx:TrackPointExtension>
        </extensions>
      </trkpt>
      <trkpt lat="44.14672" lon="5.2637">
        <ele>1023.8</ele>
        <time>2021-06-12T08:03:32Z</time>
        <extensions>
          <gpxtpx:TrackPointExtension xmlns:gpxtpx="http://www.garmin.com/xmlschemas/TrackPointExtension/v1">
            <gpxtpx:hr>148</gpxtpx:hr>
          </gpxtpx:TrackPointExtension>
        </extensions>
      </trkpt>
      <trkpt lat="44.14672" lon="5.26374">
        <ele>1024.6</ele>
        <time>2021-06-12T08:03:35Z</time>
        <extensions>
          <gpxtpx:TrackPointExtension xmlns:gpxtpx="http://www.garmin.com/xmlschemas/TrackPointExtension/v1">
            <gpxtpx:hr>148</gpxtpx:hr>
          </gpxtpx:TrackPointExtension>
        </extensions>
      </trkpt>
      <trkpt lat="44.14672" lon="5.26375">
        <ele>1024.8</ele>
        <time>2021-06-12T08:03:36Z</time>
        <extensions>
          <gpxtpx:TrackPointExtension xmlns:gpxtpx="http://www.garmin.com/xmlschemas/TrackPointExtension/v1">
            <gpxtpx:hr>148</gpxtpx:hr>
          </gpxtpx:TrackPointExtension>
        </extensions>
      </trkpt>
      <trkpt lat="44.14673" lon="5.26377">
        <ele>1025.4</ele>
        <time>2021-06-12T08:03:38Z</time>
        <extensions>
          <gpxtpx:TrackPointExtension xmlns:gpxtpx="http://www.garmin.com/xmlschemas/TrackPointExtension/v1">
            <gpxtpx:hr>148</gpxtpx:hr>
          </gpxtpx:TrackPointExtension>
        </extensions>
      </trkpt>
      <trkpt lat="44.14672" lon="5.26381">
        <ele>1025.8</ele>
        <time>2021-06-12T08:03:39Z</time>
        <extensions>
          <gpxtpx:TrackPointExtension xmlns:gpxtpx="http://www.garmin.com/xmlschemas/TrackPointExtension/v1">
            <gpxtpx:hr>149</gpxtpx:hr>
          </gpxtpx:TrackPointExtension>
        </extensions>
      </trkpt>
      <trkpt lat="44.14672" lon="5.26387">
        <ele>1026</ele>
        <time>2021-06-12T08:03:41Z</time>
        <extensions>
          <gpxtpx:TrackPointExtension xmlns:gpxtpx="http://www.garmin.com/xmlschemas/TrackPointExtension/v1">
            <gpxtpx:hr>149</gpxtpx:hr>
          </gpxtpx:TrackPointExtension>
        </extensions>
      </trkpt>
      <trkpt lat="44.1467" lon="5.26404">
        <ele>1026.8</ele>
        <time>2021-06-12T08:03:49Z</time>
        <extensions>
          <gpxtpx:TrackPointExtension xmlns:gpxtpx="http://www.garmin.com/xmlschemas/TrackPointExtension/v1">
            <gpxtpx:hr>149</gpxtpx:hr>
          </gpxtpx:TrackPointExtension>
        </extensions>
      </trkpt>
      <trkpt lat="44.1467" lon="5.26406">
        <ele>1026.8</ele>
        <time>2021-06-12T08:03:50Z</time>
        <extensions>
          <gpxtpx:TrackPointExtension xmlns:gpxtpx="http://www.garmin.com/xmlschemas/TrackPointExtension/v1">
            <gpxtpx:hr>150</gpxtpx:hr>
          </gpxtpx:TrackPointExtension>
        </extensions>
      </trkpt>
      <trkpt lat="44.14674" lon="5.26426">
        <ele>1027.8</ele>
        <time>2021-06-12T08:04:04Z</time>
        <extensions>
          <gpxtpx:TrackPointExtension xmlns:gpxtpx="http://www.garmin.com/xmlschemas/TrackPointExtension/v1">
            <gpxtpx:hr>148</gpxtpx:hr>
          </gpxtpx:TrackPointExtension>
        </extensions>
      </trkpt>
      <trkpt lat="44.14674" lon="5.26427">
        <ele>1028</ele>
        <time>2021-06-12T08:04:05Z</time>
        <extensions>
          <gpxtpx:TrackPointExtension xmlns:gpxtpx="http://www.garmin.com/xmlschemas/TrackPointExtension/v1">
            <gpxtpx:hr>147</gpxtpx:hr>
          </gpxtpx:TrackPointExtension>
        </extensions>
      </trkpt>
      <trkpt lat="44.14674" lon="5.26429">
        <ele>1028</ele>
        <time>2021-06-12T08:04:06Z</time>
        <extensions>
          <gpxtpx:TrackPointExtension xmlns:gpxtpx="http://www.garmin.com/xmlschemas/TrackPointExtension/v1">
            <gpxtpx:hr>147</gpxtpx:hr>
          </gpxtpx:TrackPointExtension>
        </extensions>
      </trkpt>
      <trkpt lat="44.14674" lon="5.2643">
        <ele>1028.2</ele>
        <time>2021-06-12T08:04:07Z</time>
        <extensions>
          <gpxtpx:TrackPointExtension xmlns:gpxtpx="http://www.garmin.com/xmlschemas/TrackPointExtension/v1">
            <gpxtpx:hr>146</gpxtpx:hr>
          </gpxtpx:TrackPointExtension>
        </extensions>
      </trkpt>
      <trkpt lat="44.14673" lon="5.26433">
        <ele>1028.6</ele>
        <time>2021-06-12T08:04:10Z</time>
        <extensions>
          <gpxtpx:TrackPointExtension xmlns:gpxtpx="http://www.garmin.com/xmlschemas/TrackPointExtension/v1">
            <gpxtpx:hr>146</gpxtpx:hr>
          </gpxtpx:TrackPointExtension>
        </extensions>
      </trkpt>
      <trkpt lat="44.14674" lon="5.26437">
        <ele>1029</ele>
        <time>2021-06-12T08:04:12Z</time>
        <extensions>
          <gpxtpx:TrackPointExtension xmlns:gpxtpx="http://www.garmin.com/xmlschemas/TrackPointExtension/v1">
            <gpxtpx:hr>147</gpxtpx:hr>
          </gpxtpx:TrackPointExtension>
        </extensions>
      </trkpt>
      <trkpt lat="44.14674" lon="5.26439">
        <ele>1029.2</ele>
        <time>2021-06-12T08:04:13Z</time>
        <extensions>
          <gpxtpx:TrackPointExtension xmlns:gpxtpx="http://www.garmin.com/xmlschemas/TrackPointExtension/v1">
            <gpxtpx:hr>147</gpxtpx:hr>
          </gpxtpx:TrackPointExtension>
        </extensions>
      </trkpt>
      <trkpt lat="44.14674" lon="5.26442">
        <ele>1029.6</ele>
        <time>2021-06-12T08:04:15Z</time>
        <extensions>
          <gpxtpx:TrackPointExtension xmlns:gpxtpx="http://www.garmin.com/xmlschemas/TrackPointExtension/v1">
            <gpxtpx:hr>146</gpxtpx:hr>
          </gpxtpx:TrackPointExtension>
        </extensions>
      </trkpt>
      <trkpt lat="44.14673" lon="5.26446">
        <ele>1030.2</ele>
        <time>2021-06-12T08:04:17Z</time>
        <extensions>
          <gpxtpx:TrackPointExtension xmlns:gpxtpx="http://www.garmin.com/xmlschemas/TrackPointExtension/v1">
            <gpxtpx:hr>146</gpxtpx:hr>
          </gpxtpx:TrackPointExtension>
        </extensions>
      </trkpt>
      <trkpt lat="44.14674" lon="5.2645">
        <ele>1030.6</ele>
        <time>2021-06-12T08:04:19Z</time>
        <extensions>
          <gpxtpx:TrackPointExtension xmlns:gpxtpx="http://www.garmin.com/xmlschemas/TrackPointExtension/v1">
            <gpxtpx:hr>146</gpxtpx:hr>
          </gpxtpx:TrackPointExtension>
        </extensions>
      </trkpt>
      <trkpt lat="44.14677" lon="5.26454">
        <ele>1031</ele>
        <time>2021-06-12T08:04:23Z</time>
        <extensions>
          <gpxtpx:TrackPointExtension xmlns:gpxtpx="http://www.garmin.com/xmlschemas/TrackPointExtension/v1">
            <gpxtpx:hr>146</gpxtpx:hr>
          </gpxtpx:TrackPointExtension>
        </extensions>
      </trkpt>
      <trkpt lat="44.14678" lon="5.26455">
        <ele>1031.2</ele>
        <time>2021-06-12T08:04:24Z</time>
        <extensions>
          <gpxtpx:TrackPointExtension xmlns:gpxtpx="http://www.garmin.com/xmlschemas/TrackPointExtension/v1">
            <gpxtpx:hr>146</gpxtpx:hr>
          </gpxtpx:TrackPointExtension>
        </extensions>
      </trkpt>
      <trkpt lat="44.1468" lon="5.26457">
        <ele>1032.2</ele>
        <time>2021-06-12T08:04:28Z</time>
        <extensions>
          <gpxtpx:TrackPointExtension xmlns:gpxtpx="http://www.garmin.com/xmlschemas/TrackPointExtension/v1">
            <gpxtpx:hr>146</gpxtpx:hr>
          </gpxtpx:TrackPointExtension>
        </extensions>
      </trkpt>
      <trkpt lat="44.14681" lon="5.26458">
        <ele>1032.4</ele>
        <time>2021-06-12T08:04:29Z</time>
        <extensions>
          <gpxtpx:TrackPointExtension xmlns:gpxtpx="http://www.garmin.com/xmlschemas/TrackPointExtension/v1">
            <gpxtpx:hr>146</gpxtpx:hr>
          </gpxtpx:TrackPointExtension>
        </extensions>
      </trkpt>
      <trkpt lat="44.14683" lon="5.2646">
        <ele>1033.2</ele>
        <time>2021-06-12T08:04:33Z</time>
        <extensions>
          <gpxtpx:TrackPointExtension xmlns:gpxtpx="http://www.garmin.com/xmlschemas/TrackPointExtension/v1">
            <gpxtpx:hr>146</gpxtpx:hr>
          </gpxtpx:TrackPointExtension>
        </extensions>
      </trkpt>
      <trkpt lat="44.14683" lon="5.26461">
        <ele>1033.6</ele>
        <time>2021-06-12T08:04:34Z</time>
        <extensions>
          <gpxtpx:TrackPointExtension xmlns:gpxtpx="http://www.garmin.com/xmlschemas/TrackPointExtension/v1">
            <gpxtpx:hr>146</gpxtpx:hr>
          </gpxtpx:TrackPointExtension>
        </extensions>
      </trkpt>
      <trkpt lat="44.14686" lon="5.26466">
        <ele>1034.6</ele>
        <time>2021-06-12T08:04:38Z</time>
        <extensions>
          <gpxtpx:TrackPointExtension xmlns:gpxtpx="http://www.garmin.com/xmlschemas/TrackPointExtension/v1">
            <gpxtpx:hr>147</gpxtpx:hr>
          </gpxtpx:TrackPointExtension>
        </extensions>
      </trkpt>
      <trkpt lat="44.14687" lon="5.26466">
        <ele>1034.8</ele>
        <time>2021-06-12T08:04:39Z</time>
        <extensions>
          <gpxtpx:TrackPointExtension xmlns:gpxtpx="http://www.garmin.com/xmlschemas/TrackPointExtension/v1">
            <gpxtpx:hr>147</gpxtpx:hr>
          </gpxtpx:TrackPointExtension>
        </extensions>
      </trkpt>
      <trkpt lat="44.14688" lon="5.26467">
        <ele>1035</ele>
        <time>2021-06-12T08:04:40Z</time>
        <extensions>
          <gpxtpx:TrackPointExtension xmlns:gpxtpx="http://www.garmin.com/xmlschemas/TrackPointExtension/v1">
            <gpxtpx:hr>147</gpxtpx:hr>
          </gpxtpx:TrackPointExtension>
        </extensions>
      </trkpt>
      <trkpt lat="44.14689" lon="5.26467">
        <ele>1035.2</ele>
        <time>2021-06-12T08:04:41Z</time>
        <extensions>
          <gpxtpx:TrackPointExtension xmlns:gpxtpx="http://www.garmin.com/xmlschemas/TrackPointExtension/v1">
            <gpxtpx:hr>147</gpxtpx:hr>
          </gpxtpx:TrackPointExtension>
        </extensions>
      </trkpt>
      <trkpt lat="44.14691" lon="5.26467">
        <ele>1035.6</ele>
        <time>2021-06-12T08:04:43Z</time>
        <extensions>
          <gpxtpx:TrackPointExtension xmlns:gpxtpx="http://www.garmin.com/xmlschemas/TrackPointExtension/v1">
            <gpxtpx:hr>147</gpxtpx:hr>
          </gpxtpx:TrackPointExtension>
        </extensions>
      </trkpt>
      <trkpt lat="44.14697" lon="5.26468">
        <ele>1036.4</ele>
        <time>2021-06-12T08:04:47Z</time>
        <extensions>
          <gpxtpx:TrackPointExtension xmlns:gpxtpx="http://www.garmin.com/xmlschemas/TrackPointExtension/v1">
            <gpxtpx:hr>147</gpxtpx:hr>
          </gpxtpx:TrackPointExtension>
        </extensions>
      </trkpt>
      <trkpt lat="44.147" lon="5.26468">
        <ele>1036.8</ele>
        <time>2021-06-12T08:04:49Z</time>
        <extensions>
          <gpxtpx:TrackPointExtension xmlns:gpxtpx="http://www.garmin.com/xmlschemas/TrackPointExtension/v1">
            <gpxtpx:hr>147</gpxtpx:hr>
          </gpxtpx:TrackPointExtension>
        </extensions>
      </trkpt>
      <trkpt lat="44.14701" lon="5.26468">
        <ele>1037</ele>
        <time>2021-06-12T08:04:50Z</time>
        <extensions>
          <gpxtpx:TrackPointExtension xmlns:gpxtpx="http://www.garmin.com/xmlschemas/TrackPointExtension/v1">
            <gpxtpx:hr>147</gpxtpx:hr>
          </gpxtpx:TrackPointExtension>
        </extensions>
      </trkpt>
      <trkpt lat="44.14703" lon="5.26469">
        <ele>1037.4</ele>
        <time>2021-06-12T08:04:52Z</time>
        <extensions>
          <gpxtpx:TrackPointExtension xmlns:gpxtpx="http://www.garmin.com/xmlschemas/TrackPointExtension/v1">
            <gpxtpx:hr>148</gpxtpx:hr>
          </gpxtpx:TrackPointExtension>
        </extensions>
      </trkpt>
      <trkpt lat="44.14704" lon="5.26469">
        <ele>1037.6</ele>
        <time>2021-06-12T08:04:53Z</time>
        <extensions>
          <gpxtpx:TrackPointExtension xmlns:gpxtpx="http://www.garmin.com/xmlschemas/TrackPointExtension/v1">
            <gpxtpx:hr>148</gpxtpx:hr>
          </gpxtpx:TrackPointExtension>
        </extensions>
      </trkpt>
      <trkpt lat="44.14704" lon="5.26469">
        <ele>1037.8</ele>
        <time>2021-06-12T08:04:54Z</time>
        <extensions>
          <gpxtpx:TrackPointExtension xmlns:gpxtpx="http://www.garmin.com/xmlschemas/TrackPointExtension/v1">
            <gpxtpx:hr>148</gpxtpx:hr>
          </gpxtpx:TrackPointExtension>
        </extensions>
      </trkpt>
      <trkpt lat="44.14708" lon="5.26473">
        <ele>1039</ele>
        <time>2021-06-12T08:04:59Z</time>
        <extensions>
          <gpxtpx:TrackPointExtension xmlns:gpxtpx="http://www.garmin.com/xmlschemas/TrackPointExtension/v1">
            <gpxtpx:hr>148</gpxtpx:hr>
          </gpxtpx:TrackPointExtension>
        </extensions>
      </trkpt>
      <trkpt lat="44.14709" lon="5.26474">
        <ele>1039.6</ele>
        <time>2021-06-12T08:05:01Z</time>
        <extensions>
          <gpxtpx:TrackPointExtension xmlns:gpxtpx="http://www.garmin.com/xmlschemas/TrackPointExtension/v1">
            <gpxtpx:hr>148</gpxtpx:hr>
          </gpxtpx:TrackPointExtension>
        </extensions>
      </trkpt>
      <trkpt lat="44.1471" lon="5.26475">
        <ele>1040</ele>
        <time>2021-06-12T08:05:03Z</time>
        <extensions>
          <gpxtpx:TrackPointExtension xmlns:gpxtpx="http://www.garmin.com/xmlschemas/TrackPointExtension/v1">
            <gpxtpx:hr>148</gpxtpx:hr>
          </gpxtpx:TrackPointExtension>
        </extensions>
      </trkpt>
      <trkpt lat="44.1471" lon="5.26476">
        <ele>1040.2</ele>
        <time>2021-06-12T08:05:04Z</time>
        <extensions>
          <gpxtpx:TrackPointExtension xmlns:gpxtpx="http://www.garmin.com/xmlschemas/TrackPointExtension/v1">
            <gpxtpx:hr>148</gpxtpx:hr>
          </gpxtpx:TrackPointExtension>
        </extensions>
      </trkpt>
      <trkpt lat="44.14712" lon="5.26477">
        <ele>1040.4</ele>
        <time>2021-06-12T08:05:05Z</time>
        <extensions>
          <gpxtpx:TrackPointExtension xmlns:gpxtpx="http://www.garmin.com/xmlschemas/TrackPointExtension/v1">
            <gpxtpx:hr>148</gpxtpx:hr>
          </gpxtpx:TrackPointExtension>
        </extensions>
      </trkpt>
      <trkpt lat="44.14712" lon="5.26478">
        <ele>1040.8</ele>
        <time>2021-06-12T08:05:06Z</time>
        <extensions>
          <gpxtpx:TrackPointExtension xmlns:gpxtpx="http://www.garmin.com/xmlschemas/TrackPointExtension/v1">
            <gpxtpx:hr>149</gpxtpx:hr>
          </gpxtpx:TrackPointExtension>
        </extensions>
      </trkpt>
      <trkpt lat="44.14716" lon="5.26479">
        <ele>1041.4</ele>
        <time>2021-06-12T08:05:10Z</time>
        <extensions>
          <gpxtpx:TrackPointExtension xmlns:gpxtpx="http://www.garmin.com/xmlschemas/TrackPointExtension/v1">
            <gpxtpx:hr>148</gpxtpx:hr>
          </gpxtpx:TrackPointExtension>
        </extensions>
      </trkpt>
      <trkpt lat="44.14719" lon="5.2648">
        <ele>1042.6</ele>
        <time>2021-06-12T08:05:14Z</time>
        <extensions>
          <gpxtpx:TrackPointExtension xmlns:gpxtpx="http://www.garmin.com/xmlschemas/TrackPointExtension/v1">
            <gpxtpx:hr>148</gpxtpx:hr>
          </gpxtpx:TrackPointExtension>
        </extensions>
      </trkpt>
      <trkpt lat="44.14721" lon="5.26481">
        <ele>1043.4</ele>
        <time>2021-06-12T08:05:17Z</time>
        <extensions>
          <gpxtpx:TrackPointExtension xmlns:gpxtpx="http://www.garmin.com/xmlschemas/TrackPointExtension/v1">
            <gpxtpx:hr>149</gpxtpx:hr>
          </gpxtpx:TrackPointExtension>
        </extensions>
      </trkpt>
      <trkpt lat="44.14722" lon="5.26482">
        <ele>1044</ele>
        <time>2021-06-12T08:05:19Z</time>
        <extensions>
          <gpxtpx:TrackPointExtension xmlns:gpxtpx="http://www.garmin.com/xmlschemas/TrackPointExtension/v1">
            <gpxtpx:hr>149</gpxtpx:hr>
          </gpxtpx:TrackPointExtension>
        </extensions>
      </trkpt>
      <trkpt lat="44.14722" lon="5.26482">
        <ele>1044.4</ele>
        <time>2021-06-12T08:05:20Z</time>
        <extensions>
          <gpxtpx:TrackPointExtension xmlns:gpxtpx="http://www.garmin.com/xmlschemas/TrackPointExtension/v1">
            <gpxtpx:hr>149</gpxtpx:hr>
          </gpxtpx:TrackPointExtension>
        </extensions>
      </trkpt>
      <trkpt lat="44.14723" lon="5.26483">
        <ele>1045</ele>
        <time>2021-06-12T08:05:23Z</time>
        <extensions>
          <gpxtpx:TrackPointExtension xmlns:gpxtpx="http://www.garmin.com/xmlschemas/TrackPointExtension/v1">
            <gpxtpx:hr>150</gpxtpx:hr>
          </gpxtpx:TrackPointExtension>
        </extensions>
      </trkpt>
      <trkpt lat="44.14727" lon="5.26482">
        <ele>1045.6</ele>
        <time>2021-06-12T08:05:26Z</time>
        <extensions>
          <gpxtpx:TrackPointExtension xmlns:gpxtpx="http://www.garmin.com/xmlschemas/TrackPointExtension/v1">
            <gpxtpx:hr>150</gpxtpx:hr>
          </gpxtpx:TrackPointExtension>
        </extensions>
      </trkpt>
      <trkpt lat="44.14729" lon="5.26484">
        <ele>1046.4</ele>
        <time>2021-06-12T08:05:29Z</time>
        <extensions>
          <gpxtpx:TrackPointExtension xmlns:gpxtpx="http://www.garmin.com/xmlschemas/TrackPointExtension/v1">
            <gpxtpx:hr>150</gpxtpx:hr>
          </gpxtpx:TrackPointExtension>
        </extensions>
      </trkpt>
      <trkpt lat="44.1473" lon="5.26487">
        <ele>1047</ele>
        <time>2021-06-12T08:05:31Z</time>
        <extensions>
          <gpxtpx:TrackPointExtension xmlns:gpxtpx="http://www.garmin.com/xmlschemas/TrackPointExtension/v1">
            <gpxtpx:hr>151</gpxtpx:hr>
          </gpxtpx:TrackPointExtension>
        </extensions>
      </trkpt>
      <trkpt lat="44.14731" lon="5.26493">
        <ele>1047.4</ele>
        <time>2021-06-12T08:05:34Z</time>
        <extensions>
          <gpxtpx:TrackPointExtension xmlns:gpxtpx="http://www.garmin.com/xmlschemas/TrackPointExtension/v1">
            <gpxtpx:hr>150</gpxtpx:hr>
          </gpxtpx:TrackPointExtension>
        </extensions>
      </trkpt>
      <trkpt lat="44.14733" lon="5.26498">
        <ele>1047.6</ele>
        <time>2021-06-12T08:05:38Z</time>
        <extensions>
          <gpxtpx:TrackPointExtension xmlns:gpxtpx="http://www.garmin.com/xmlschemas/TrackPointExtension/v1">
            <gpxtpx:hr>150</gpxtpx:hr>
          </gpxtpx:TrackPointExtension>
        </extensions>
      </trkpt>
      <trkpt lat="44.14735" lon="5.26503">
        <ele>1048</ele>
        <time>2021-06-12T08:05:42Z</time>
        <extensions>
          <gpxtpx:TrackPointExtension xmlns:gpxtpx="http://www.garmin.com/xmlschemas/TrackPointExtension/v1">
            <gpxtpx:hr>149</gpxtpx:hr>
          </gpxtpx:TrackPointExtension>
        </extensions>
      </trkpt>
      <trkpt lat="44.14736" lon="5.26504">
        <ele>1048.4</ele>
        <time>2021-06-12T08:05:44Z</time>
        <extensions>
          <gpxtpx:TrackPointExtension xmlns:gpxtpx="http://www.garmin.com/xmlschemas/TrackPointExtension/v1">
            <gpxtpx:hr>148</gpxtpx:hr>
          </gpxtpx:TrackPointExtension>
        </extensions>
      </trkpt>
      <trkpt lat="44.14737" lon="5.26505">
        <ele>1048.8</ele>
        <time>2021-06-12T08:05:45Z</time>
        <extensions>
          <gpxtpx:TrackPointExtension xmlns:gpxtpx="http://www.garmin.com/xmlschemas/TrackPointExtension/v1">
            <gpxtpx:hr>148</gpxtpx:hr>
          </gpxtpx:TrackPointExtension>
        </extensions>
      </trkpt>
      <trkpt lat="44.14739" lon="5.26507">
        <ele>1049.4</ele>
        <time>2021-06-12T08:05:47Z</time>
        <extensions>
          <gpxtpx:TrackPointExtension xmlns:gpxtpx="http://www.garmin.com/xmlschemas/TrackPointExtension/v1">
            <gpxtpx:hr>148</gpxtpx:hr>
          </gpxtpx:TrackPointExtension>
        </extensions>
      </trkpt>
      <trkpt lat="44.14739" lon="5.26507">
        <ele>1049.6</ele>
        <time>2021-06-12T08:05:48Z</time>
        <extensions>
          <gpxtpx:TrackPointExtension xmlns:gpxtpx="http://www.garmin.com/xmlschemas/TrackPointExtension/v1">
            <gpxtpx:hr>149</gpxtpx:hr>
          </gpxtpx:TrackPointExtension>
        </extensions>
      </trkpt>
      <trkpt lat="44.1474" lon="5.26511">
        <ele>1050</ele>
        <time>2021-06-12T08:05:51Z</time>
        <extensions>
          <gpxtpx:TrackPointExtension xmlns:gpxtpx="http://www.garmin.com/xmlschemas/TrackPointExtension/v1">
            <gpxtpx:hr>148</gpxtpx:hr>
          </gpxtpx:TrackPointExtension>
        </extensions>
      </trkpt>
      <trkpt lat="44.14741" lon="5.26512">
        <ele>1050.6</ele>
        <time>2021-06-12T08:05:53Z</time>
        <extensions>
          <gpxtpx:TrackPointExtension xmlns:gpxtpx="http://www.garmin.com/xmlschemas/TrackPointExtension/v1">
            <gpxtpx:hr>148</gpxtpx:hr>
          </gpxtpx:TrackPointExtension>
        </extensions>
      </trkpt>
      <trkpt lat="44.14741" lon="5.26513">
        <ele>1050.6</ele>
        <time>2021-06-12T08:05:54Z</time>
        <extensions>
          <gpxtpx:TrackPointExtension xmlns:gpxtpx="http://www.garmin.com/xmlschemas/TrackPointExtension/v1">
            <gpxtpx:hr>148</gpxtpx:hr>
          </gpxtpx:TrackPointExtension>
        </extensions>
      </trkpt>
      <trkpt lat="44.14741" lon="5.26515">
        <ele>1050.8</ele>
        <time>2021-06-12T08:05:55Z</time>
        <extensions>
          <gpxtpx:TrackPointExtension xmlns:gpxtpx="http://www.garmin.com/xmlschemas/TrackPointExtension/v1">
            <gpxtpx:hr>148</gpxtpx:hr>
          </gpxtpx:TrackPointExtension>
        </extensions>
      </trkpt>
      <trkpt lat="44.14738" lon="5.26517">
        <ele>1051</ele>
        <time>2021-06-12T08:05:57Z</time>
        <extensions>
          <gpxtpx:TrackPointExtension xmlns:gpxtpx="http://www.garmin.com/xmlschemas/TrackPointExtension/v1">
            <gpxtpx:hr>149</gpxtpx:hr>
          </gpxtpx:TrackPointExtension>
        </extensions>
      </trkpt>
      <trkpt lat="44.14737" lon="5.26517">
        <ele>1051.2</ele>
        <time>2021-06-12T08:05:58Z</time>
        <extensions>
          <gpxtpx:TrackPointExtension xmlns:gpxtpx="http://www.garmin.com/xmlschemas/TrackPointExtension/v1">
            <gpxtpx:hr>148</gpxtpx:hr>
          </gpxtpx:TrackPointExtension>
        </extensions>
      </trkpt>
      <trkpt lat="44.14736" lon="5.26517">
        <ele>1051.2</ele>
        <time>2021-06-12T08:05:59Z</time>
        <extensions>
          <gpxtpx:TrackPointExtension xmlns:gpxtpx="http://www.garmin.com/xmlschemas/TrackPointExtension/v1">
            <gpxtpx:hr>148</gpxtpx:hr>
          </gpxtpx:TrackPointExtension>
        </extensions>
      </trkpt>
      <trkpt lat="44.14734" lon="5.26518">
        <ele>1051.4</ele>
        <time>2021-06-12T08:06:00Z</time>
        <extensions>
          <gpxtpx:TrackPointExtension xmlns:gpxtpx="http://www.garmin.com/xmlschemas/TrackPointExtension/v1">
            <gpxtpx:hr>148</gpxtpx:hr>
          </gpxtpx:TrackPointExtension>
        </extensions>
      </trkpt>
      <trkpt lat="44.14731" lon="5.2652">
        <ele>1051.6</ele>
        <time>2021-06-12T08:06:03Z</time>
        <extensions>
          <gpxtpx:TrackPointExtension xmlns:gpxtpx="http://www.garmin.com/xmlschemas/TrackPointExtension/v1">
            <gpxtpx:hr>147</gpxtpx:hr>
          </gpxtpx:TrackPointExtension>
        </extensions>
      </trkpt>
      <trkpt lat="44.1473" lon="5.26523">
        <ele>1052.4</ele>
        <time>2021-06-12T08:06:06Z</time>
        <extensions>
          <gpxtpx:TrackPointExtension xmlns:gpxtpx="http://www.garmin.com/xmlschemas/TrackPointExtension/v1">
            <gpxtpx:hr>147</gpxtpx:hr>
          </gpxtpx:TrackPointExtension>
        </extensions>
      </trkpt>
      <trkpt lat="44.14729" lon="5.26525">
        <ele>1052.8</ele>
        <time>2021-06-12T08:06:08Z</time>
        <extensions>
          <gpxtpx:TrackPointExtension xmlns:gpxtpx="http://www.garmin.com/xmlschemas/TrackPointExtension/v1">
            <gpxtpx:hr>148</gpxtpx:hr>
          </gpxtpx:TrackPointExtension>
        </extensions>
      </trkpt>
      <trkpt lat="44.14728" lon="5.26526">
        <ele>1053.2</ele>
        <time>2021-06-12T08:06:10Z</time>
        <extensions>
          <gpxtpx:TrackPointExtension xmlns:gpxtpx="http://www.garmin.com/xmlschemas/TrackPointExtension/v1">
            <gpxtpx:hr>148</gpxtpx:hr>
          </gpxtpx:TrackPointExtension>
        </extensions>
      </trkpt>
      <trkpt lat="44.14725" lon="5.26528">
        <ele>1054</ele>
        <time>2021-06-12T08:06:13Z</time>
        <extensions>
          <gpxtpx:TrackPointExtension xmlns:gpxtpx="http://www.garmin.com/xmlschemas/TrackPointExtension/v1">
            <gpxtpx:hr>148</gpxtpx:hr>
          </gpxtpx:TrackPointExtension>
        </extensions>
      </trkpt>
      <trkpt lat="44.14723" lon="5.26529">
        <ele>1054.4</ele>
        <time>2021-06-12T08:06:15Z</time>
        <extensions>
          <gpxtpx:TrackPointExtension xmlns:gpxtpx="http://www.garmin.com/xmlschemas/TrackPointExtension/v1">
            <gpxtpx:hr>148</gpxtpx:hr>
          </gpxtpx:TrackPointExtension>
        </extensions>
      </trkpt>
      <trkpt lat="44.14722" lon="5.2653">
        <ele>1054.6</ele>
        <time>2021-06-12T08:06:16Z</time>
        <extensions>
          <gpxtpx:TrackPointExtension xmlns:gpxtpx="http://www.garmin.com/xmlschemas/TrackPointExtension/v1">
            <gpxtpx:hr>148</gpxtpx:hr>
          </gpxtpx:TrackPointExtension>
        </extensions>
      </trkpt>
      <trkpt lat="44.1472" lon="5.2653">
        <ele>1055.2</ele>
        <time>2021-06-12T08:06:18Z</time>
        <extensions>
          <gpxtpx:TrackPointExtension xmlns:gpxtpx="http://www.garmin.com/xmlschemas/TrackPointExtension/v1">
            <gpxtpx:hr>148</gpxtpx:hr>
          </gpxtpx:TrackPointExtension>
        </extensions>
      </trkpt>
      <trkpt lat="44.1472" lon="5.2653">
        <ele>1055.6</ele>
        <time>2021-06-12T08:06:19Z</time>
        <extensions>
          <gpxtpx:TrackPointExtension xmlns:gpxtpx="http://www.garmin.com/xmlschemas/TrackPointExtension/v1">
            <gpxtpx:hr>149</gpxtpx:hr>
          </gpxtpx:TrackPointExtension>
        </extensions>
      </trkpt>
      <trkpt lat="44.1472" lon="5.26531">
        <ele>1056</ele>
        <time>2021-06-12T08:06:21Z</time>
        <extensions>
          <gpxtpx:TrackPointExtension xmlns:gpxtpx="http://www.garmin.com/xmlschemas/TrackPointExtension/v1">
            <gpxtpx:hr>149</gpxtpx:hr>
          </gpxtpx:TrackPointExtension>
        </extensions>
      </trkpt>
      <trkpt lat="44.1472" lon="5.26532">
        <ele>1056.2</ele>
        <time>2021-06-12T08:06:23Z</time>
        <extensions>
          <gpxtpx:TrackPointExtension xmlns:gpxtpx="http://www.garmin.com/xmlschemas/TrackPointExtension/v1">
            <gpxtpx:hr>149</gpxtpx:hr>
          </gpxtpx:TrackPointExtension>
        </extensions>
      </trkpt>
      <trkpt lat="44.1472" lon="5.26534">
        <ele>1056.6</ele>
        <time>2021-06-12T08:06:25Z</time>
        <extensions>
          <gpxtpx:TrackPointExtension xmlns:gpxtpx="http://www.garmin.com/xmlschemas/TrackPointExtension/v1">
            <gpxtpx:hr>149</gpxtpx:hr>
          </gpxtpx:TrackPointExtension>
        </extensions>
      </trkpt>
      <trkpt lat="44.14719" lon="5.26535">
        <ele>1056.8</ele>
        <time>2021-06-12T08:06:26Z</time>
        <extensions>
          <gpxtpx:TrackPointExtension xmlns:gpxtpx="http://www.garmin.com/xmlschemas/TrackPointExtension/v1">
            <gpxtpx:hr>149</gpxtpx:hr>
          </gpxtpx:TrackPointExtension>
        </extensions>
      </trkpt>
      <trkpt lat="44.1472" lon="5.26536">
        <ele>1057</ele>
        <time>2021-06-12T08:06:27Z</time>
        <extensions>
          <gpxtpx:TrackPointExtension xmlns:gpxtpx="http://www.garmin.com/xmlschemas/TrackPointExtension/v1">
            <gpxtpx:hr>150</gpxtpx:hr>
          </gpxtpx:TrackPointExtension>
        </extensions>
      </trkpt>
      <trkpt lat="44.14721" lon="5.26537">
        <ele>1057.4</ele>
        <time>2021-06-12T08:06:28Z</time>
        <extensions>
          <gpxtpx:TrackPointExtension xmlns:gpxtpx="http://www.garmin.com/xmlschemas/TrackPointExtension/v1">
            <gpxtpx:hr>150</gpxtpx:hr>
          </gpxtpx:TrackPointExtension>
        </extensions>
      </trkpt>
      <trkpt lat="44.14722" lon="5.26539">
        <ele>1058.6</ele>
        <time>2021-06-12T08:06:32Z</time>
        <extensions>
          <gpxtpx:TrackPointExtension xmlns:gpxtpx="http://www.garmin.com/xmlschemas/TrackPointExtension/v1">
            <gpxtpx:hr>149</gpxtpx:hr>
          </gpxtpx:TrackPointExtension>
        </extensions>
      </trkpt>
      <trkpt lat="44.14724" lon="5.26543">
        <ele>1059.6</ele>
        <time>2021-06-12T08:06:37Z</time>
        <extensions>
          <gpxtpx:TrackPointExtension xmlns:gpxtpx="http://www.garmin.com/xmlschemas/TrackPointExtension/v1">
            <gpxtpx:hr>149</gpxtpx:hr>
          </gpxtpx:TrackPointExtension>
        </extensions>
      </trkpt>
      <trkpt lat="44.14725" lon="5.26543">
        <ele>1059.8</ele>
        <time>2021-06-12T08:06:38Z</time>
        <extensions>
          <gpxtpx:TrackPointExtension xmlns:gpxtpx="http://www.garmin.com/xmlschemas/TrackPointExtension/v1">
            <gpxtpx:hr>149</gpxtpx:hr>
          </gpxtpx:TrackPointExtension>
        </extensions>
      </trkpt>
      <trkpt lat="44.14727" lon="5.26543">
        <ele>1060.2</ele>
        <time>2021-06-12T08:06:40Z</time>
        <extensions>
          <gpxtpx:TrackPointExtension xmlns:gpxtpx="http://www.garmin.com/xmlschemas/TrackPointExtension/v1">
            <gpxtpx:hr>149</gpxtpx:hr>
          </gpxtpx:TrackPointExtension>
        </extensions>
      </trkpt>
      <trkpt lat="44.14728" lon="5.26543">
        <ele>1060.4</ele>
        <time>2021-06-12T08:06:41Z</time>
        <extensions>
          <gpxtpx:TrackPointExtension xmlns:gpxtpx="http://www.garmin.com/xmlschemas/TrackPointExtension/v1">
            <gpxtpx:hr>148</gpxtpx:hr>
          </gpxtpx:TrackPointExtension>
        </extensions>
      </trkpt>
      <trkpt lat="44.14728" lon="5.26543">
        <ele>1060.6</ele>
        <time>2021-06-12T08:06:42Z</time>
        <extensions>
          <gpxtpx:TrackPointExtension xmlns:gpxtpx="http://www.garmin.com/xmlschemas/TrackPointExtension/v1">
            <gpxtpx:hr>148</gpxtpx:hr>
          </gpxtpx:TrackPointExtension>
        </extensions>
      </trkpt>
      <trkpt lat="44.14731" lon="5.26546">
        <ele>1061.8</ele>
        <time>2021-06-12T08:06:47Z</time>
        <extensions>
          <gpxtpx:TrackPointExtension xmlns:gpxtpx="http://www.garmin.com/xmlschemas/TrackPointExtension/v1">
            <gpxtpx:hr>148</gpxtpx:hr>
          </gpxtpx:TrackPointExtension>
        </extensions>
      </trkpt>
      <trkpt lat="44.14734" lon="5.2655">
        <ele>1062.4</ele>
        <time>2021-06-12T08:06:50Z</time>
        <extensions>
          <gpxtpx:TrackPointExtension xmlns:gpxtpx="http://www.garmin.com/xmlschemas/TrackPointExtension/v1">
            <gpxtpx:hr>147</gpxtpx:hr>
          </gpxtpx:TrackPointExtension>
        </extensions>
      </trkpt>
      <trkpt lat="44.14733" lon="5.26552">
        <ele>1062.6</ele>
        <time>2021-06-12T08:06:51Z</time>
        <extensions>
          <gpxtpx:TrackPointExtension xmlns:gpxtpx="http://www.garmin.com/xmlschemas/TrackPointExtension/v1">
            <gpxtpx:hr>147</gpxtpx:hr>
          </gpxtpx:TrackPointExtension>
        </extensions>
      </trkpt>
      <trkpt lat="44.1473" lon="5.26559">
        <ele>1063</ele>
        <time>2021-06-12T08:06:54Z</time>
        <extensions>
          <gpxtpx:TrackPointExtension xmlns:gpxtpx="http://www.garmin.com/xmlschemas/TrackPointExtension/v1">
            <gpxtpx:hr>147</gpxtpx:hr>
          </gpxtpx:TrackPointExtension>
        </extensions>
      </trkpt>
      <trkpt lat="44.14728" lon="5.26568">
        <ele>1064</ele>
        <time>2021-06-12T08:07:00Z</time>
        <extensions>
          <gpxtpx:TrackPointExtension xmlns:gpxtpx="http://www.garmin.com/xmlschemas/TrackPointExtension/v1">
            <gpxtpx:hr>147</gpxtpx:hr>
          </gpxtpx:TrackPointExtension>
        </extensions>
      </trkpt>
      <trkpt lat="44.14728" lon="5.26571">
        <ele>1064.4</ele>
        <time>2021-06-12T08:07:02Z</time>
        <extensions>
          <gpxtpx:TrackPointExtension xmlns:gpxtpx="http://www.garmin.com/xmlschemas/TrackPointExtension/v1">
            <gpxtpx:hr>147</gpxtpx:hr>
          </gpxtpx:TrackPointExtension>
        </extensions>
      </trkpt>
      <trkpt lat="44.14728" lon="5.26575">
        <ele>1065</ele>
        <time>2021-06-12T08:07:05Z</time>
        <extensions>
          <gpxtpx:TrackPointExtension xmlns:gpxtpx="http://www.garmin.com/xmlschemas/TrackPointExtension/v1">
            <gpxtpx:hr>148</gpxtpx:hr>
          </gpxtpx:TrackPointExtension>
        </extensions>
      </trkpt>
      <trkpt lat="44.14729" lon="5.26577">
        <ele>1065.6</ele>
        <time>2021-06-12T08:07:07Z</time>
        <extensions>
          <gpxtpx:TrackPointExtension xmlns:gpxtpx="http://www.garmin.com/xmlschemas/TrackPointExtension/v1">
            <gpxtpx:hr>147</gpxtpx:hr>
          </gpxtpx:TrackPointExtension>
        </extensions>
      </trkpt>
      <trkpt lat="44.1473" lon="5.2658">
        <ele>1066.2</ele>
        <time>2021-06-12T08:07:10Z</time>
        <extensions>
          <gpxtpx:TrackPointExtension xmlns:gpxtpx="http://www.garmin.com/xmlschemas/TrackPointExtension/v1">
            <gpxtpx:hr>148</gpxtpx:hr>
          </gpxtpx:TrackPointExtension>
        </extensions>
      </trkpt>
      <trkpt lat="44.14731" lon="5.26582">
        <ele>1066.6</ele>
        <time>2021-06-12T08:07:12Z</time>
        <extensions>
          <gpxtpx:TrackPointExtension xmlns:gpxtpx="http://www.garmin.com/xmlschemas/TrackPointExtension/v1">
            <gpxtpx:hr>148</gpxtpx:hr>
          </gpxtpx:TrackPointExtension>
        </extensions>
      </trkpt>
      <trkpt lat="44.14733" lon="5.26586">
        <ele>1067.4</ele>
        <time>2021-06-12T08:07:15Z</time>
        <extensions>
          <gpxtpx:TrackPointExtension xmlns:gpxtpx="http://www.garmin.com/xmlschemas/TrackPointExtension/v1">
            <gpxtpx:hr>148</gpxtpx:hr>
          </gpxtpx:TrackPointExtension>
        </extensions>
      </trkpt>
      <trkpt lat="44.14733" lon="5.26588">
        <ele>1068</ele>
        <time>2021-06-12T08:07:17Z</time>
        <extensions>
          <gpxtpx:TrackPointExtension xmlns:gpxtpx="http://www.garmin.com/xmlschemas/TrackPointExtension/v1">
            <gpxtpx:hr>149</gpxtpx:hr>
          </gpxtpx:TrackPointExtension>
        </extensions>
      </trkpt>
      <trkpt lat="44.14734" lon="5.2659">
        <ele>1068.6</ele>
        <time>2021-06-12T08:07:19Z</time>
        <extensions>
          <gpxtpx:TrackPointExtension xmlns:gpxtpx="http://www.garmin.com/xmlschemas/TrackPointExtension/v1">
            <gpxtpx:hr>150</gpxtpx:hr>
          </gpxtpx:TrackPointExtension>
        </extensions>
      </trkpt>
      <trkpt lat="44.14737" lon="5.26595">
        <ele>1069.6</ele>
        <time>2021-06-12T08:07:23Z</time>
        <extensions>
          <gpxtpx:TrackPointExtension xmlns:gpxtpx="http://www.garmin.com/xmlschemas/TrackPointExtension/v1">
            <gpxtpx:hr>151</gpxtpx:hr>
          </gpxtpx:TrackPointExtension>
        </extensions>
      </trkpt>
      <trkpt lat="44.14742" lon="5.26599">
        <ele>1070.2</ele>
        <time>2021-06-12T08:07:27Z</time>
        <extensions>
          <gpxtpx:TrackPointExtension xmlns:gpxtpx="http://www.garmin.com/xmlschemas/TrackPointExtension/v1">
            <gpxtpx:hr>149</gpxtpx:hr>
          </gpxtpx:TrackPointExtension>
        </extensions>
      </trkpt>
      <trkpt lat="44.14746" lon="5.26602">
        <ele>1070.6</ele>
        <time>2021-06-12T08:07:31Z</time>
        <extensions>
          <gpxtpx:TrackPointExtension xmlns:gpxtpx="http://www.garmin.com/xmlschemas/TrackPointExtension/v1">
            <gpxtpx:hr>148</gpxtpx:hr>
          </gpxtpx:TrackPointExtension>
        </extensions>
      </trkpt>
      <trkpt lat="44.14747" lon="5.26603">
        <ele>1070.8</ele>
        <time>2021-06-12T08:07:32Z</time>
        <extensions>
          <gpxtpx:TrackPointExtension xmlns:gpxtpx="http://www.garmin.com/xmlschemas/TrackPointExtension/v1">
            <gpxtpx:hr>149</gpxtpx:hr>
          </gpxtpx:TrackPointExtension>
        </extensions>
      </trkpt>
      <trkpt lat="44.14754" lon="5.26605">
        <ele>1071.6</ele>
        <time>2021-06-12T08:07:37Z</time>
        <extensions>
          <gpxtpx:TrackPointExtension xmlns:gpxtpx="http://www.garmin.com/xmlschemas/TrackPointExtension/v1">
            <gpxtpx:hr>147</gpxtpx:hr>
          </gpxtpx:TrackPointExtension>
        </extensions>
      </trkpt>
      <trkpt lat="44.14756" lon="5.26606">
        <ele>1071.8</ele>
        <time>2021-06-12T08:07:39Z</time>
        <extensions>
          <gpxtpx:TrackPointExtension xmlns:gpxtpx="http://www.garmin.com/xmlschemas/TrackPointExtension/v1">
            <gpxtpx:hr>147</gpxtpx:hr>
          </gpxtpx:TrackPointExtension>
        </extensions>
      </trkpt>
      <trkpt lat="44.14767" lon="5.26616">
        <ele>1072.6</ele>
        <time>2021-06-12T08:07:50Z</time>
        <extensions>
          <gpxtpx:TrackPointExtension xmlns:gpxtpx="http://www.garmin.com/xmlschemas/TrackPointExtension/v1">
            <gpxtpx:hr>146</gpxtpx:hr>
          </gpxtpx:TrackPointExtension>
        </extensions>
      </trkpt>
      <trkpt lat="44.14772" lon="5.2662">
        <ele>1073</ele>
        <time>2021-06-12T08:07:54Z</time>
        <extensions>
          <gpxtpx:TrackPointExtension xmlns:gpxtpx="http://www.garmin.com/xmlschemas/TrackPointExtension/v1">
            <gpxtpx:hr>145</gpxtpx:hr>
          </gpxtpx:TrackPointExtension>
        </extensions>
      </trkpt>
      <trkpt lat="44.14782" lon="5.26623">
        <ele>1073.8</ele>
        <time>2021-06-12T08:08:01Z</time>
        <extensions>
          <gpxtpx:TrackPointExtension xmlns:gpxtpx="http://www.garmin.com/xmlschemas/TrackPointExtension/v1">
            <gpxtpx:hr>145</gpxtpx:hr>
          </gpxtpx:TrackPointExtension>
        </extensions>
      </trkpt>
      <trkpt lat="44.14785" lon="5.26625">
        <ele>1074</ele>
        <time>2021-06-12T08:08:03Z</time>
        <extensions>
          <gpxtpx:TrackPointExtension xmlns:gpxtpx="http://www.garmin.com/xmlschemas/TrackPointExtension/v1">
            <gpxtpx:hr>144</gpxtpx:hr>
          </gpxtpx:TrackPointExtension>
        </extensions>
      </trkpt>
      <trkpt lat="44.14788" lon="5.26626">
        <ele>1074.2</ele>
        <time>2021-06-12T08:08:06Z</time>
        <extensions>
          <gpxtpx:TrackPointExtension xmlns:gpxtpx="http://www.garmin.com/xmlschemas/TrackPointExtension/v1">
            <gpxtpx:hr>144</gpxtpx:hr>
          </gpxtpx:TrackPointExtension>
        </extensions>
      </trkpt>
      <trkpt lat="44.14795" lon="5.2663">
        <ele>1074.6</ele>
        <time>2021-06-12T08:08:12Z</time>
        <extensions>
          <gpxtpx:TrackPointExtension xmlns:gpxtpx="http://www.garmin.com/xmlschemas/TrackPointExtension/v1">
            <gpxtpx:hr>141</gpxtpx:hr>
          </gpxtpx:TrackPointExtension>
        </extensions>
      </trkpt>
      <trkpt lat="44.14797" lon="5.26632">
        <ele>1074.8</ele>
        <time>2021-06-12T08:08:14Z</time>
        <extensions>
          <gpxtpx:TrackPointExtension xmlns:gpxtpx="http://www.garmin.com/xmlschemas/TrackPointExtension/v1">
            <gpxtpx:hr>141</gpxtpx:hr>
          </gpxtpx:TrackPointExtension>
        </extensions>
      </trkpt>
      <trkpt lat="44.14802" lon="5.26635">
        <ele>1075.2</ele>
        <time>2021-06-12T08:08:18Z</time>
        <extensions>
          <gpxtpx:TrackPointExtension xmlns:gpxtpx="http://www.garmin.com/xmlschemas/TrackPointExtension/v1">
            <gpxtpx:hr>138</gpxtpx:hr>
          </gpxtpx:TrackPointExtension>
        </extensions>
      </trkpt>
      <trkpt lat="44.14809" lon="5.26637">
        <ele>1075.8</ele>
        <time>2021-06-12T08:08:26Z</time>
        <extensions>
          <gpxtpx:TrackPointExtension xmlns:gpxtpx="http://www.garmin.com/xmlschemas/TrackPointExtension/v1">
            <gpxtpx:hr>135</gpxtpx:hr>
          </gpxtpx:TrackPointExtension>
        </extensions>
      </trkpt>
      <trkpt lat="44.14811" lon="5.26638">
        <ele>1076</ele>
        <time>2021-06-12T08:08:28Z</time>
        <extensions>
          <gpxtpx:TrackPointExtension xmlns:gpxtpx="http://www.garmin.com/xmlschemas/TrackPointExtension/v1">
            <gpxtpx:hr>134</gpxtpx:hr>
          </gpxtpx:TrackPointExtension>
        </extensions>
      </trkpt>
      <trkpt lat="44.14811" lon="5.26638">
        <ele>1076</ele>
        <time>2021-06-12T08:08:30Z</time>
        <extensions>
          <gpxtpx:TrackPointExtension xmlns:gpxtpx="http://www.garmin.com/xmlschemas/TrackPointExtension/v1">
            <gpxtpx:hr>133</gpxtpx:hr>
          </gpxtpx:TrackPointExtension>
        </extensions>
      </trkpt>
      <trkpt lat="44.14812" lon="5.26638">
        <ele>1076.2</ele>
        <time>2021-06-12T08:08:33Z</time>
        <extensions>
          <gpxtpx:TrackPointExtension xmlns:gpxtpx="http://www.garmin.com/xmlschemas/TrackPointExtension/v1">
            <gpxtpx:hr>131</gpxtpx:hr>
          </gpxtpx:TrackPointExtension>
        </extensions>
      </trkpt>
      <trkpt lat="44.14812" lon="5.26637">
        <ele>1076.4</ele>
        <time>2021-06-12T08:08:37Z</time>
        <extensions>
          <gpxtpx:TrackPointExtension xmlns:gpxtpx="http://www.garmin.com/xmlschemas/TrackPointExtension/v1">
            <gpxtpx:hr>130</gpxtpx:hr>
          </gpxtpx:TrackPointExtension>
        </extensions>
      </trkpt>
      <trkpt lat="44.14812" lon="5.26633">
        <ele>1076.2</ele>
        <time>2021-06-12T08:09:00Z</time>
        <extensions>
          <gpxtpx:TrackPointExtension xmlns:gpxtpx="http://www.garmin.com/xmlschemas/TrackPointExtension/v1">
            <gpxtpx:hr>126</gpxtpx:hr>
          </gpxtpx:TrackPointExtension>
        </extensions>
      </trkpt>
      <trkpt lat="44.14812" lon="5.26633">
        <ele>1076.2</ele>
        <time>2021-06-12T08:09:02Z</time>
        <extensions>
          <gpxtpx:TrackPointExtension xmlns:gpxtpx="http://www.garmin.com/xmlschemas/TrackPointExtension/v1">
            <gpxtpx:hr>123</gpxtpx:hr>
          </gpxtpx:TrackPointExtension>
        </extensions>
      </trkpt>
      <trkpt lat="44.14812" lon="5.26633">
        <ele>1076.2</ele>
        <time>2021-06-12T08:09:06Z</time>
        <extensions>
          <gpxtpx:TrackPointExtension xmlns:gpxtpx="http://www.garmin.com/xmlschemas/TrackPointExtension/v1">
            <gpxtpx:hr>119</gpxtpx:hr>
          </gpxtpx:TrackPointExtension>
        </extensions>
      </trkpt>
      <trkpt lat="44.14812" lon="5.26634">
        <ele>1076.2</ele>
        <time>2021-06-12T08:09:15Z</time>
        <extensions>
          <gpxtpx:TrackPointExtension xmlns:gpxtpx="http://www.garmin.com/xmlschemas/TrackPointExtension/v1">
            <gpxtpx:hr>116</gpxtpx:hr>
          </gpxtpx:TrackPointExtension>
        </extensions>
      </trkpt>
      <trkpt lat="44.14812" lon="5.26635">
        <ele>1076.2</ele>
        <time>2021-06-12T08:09:21Z</time>
        <extensions>
          <gpxtpx:TrackPointExtension xmlns:gpxtpx="http://www.garmin.com/xmlschemas/TrackPointExtension/v1">
            <gpxtpx:hr>112</gpxtpx:hr>
          </gpxtpx:TrackPointExtension>
        </extensions>
      </trkpt>
      <trkpt lat="44.14814" lon="5.26641">
        <ele>1076.2</ele>
        <time>2021-06-12T08:09:57Z</time>
        <extensions>
          <gpxtpx:TrackPointExtension xmlns:gpxtpx="http://www.garmin.com/xmlschemas/TrackPointExtension/v1">
            <gpxtpx:hr>109</gpxtpx:hr>
          </gpxtpx:TrackPointExtension>
        </extensions>
      </trkpt>
      <trkpt lat="44.14813" lon="5.26639">
        <ele>1076.2</ele>
        <time>2021-06-12T08:10:01Z</time>
        <extensions>
          <gpxtpx:TrackPointExtension xmlns:gpxtpx="http://www.garmin.com/xmlschemas/TrackPointExtension/v1">
            <gpxtpx:hr>104</gpxtpx:hr>
          </gpxtpx:TrackPointExtension>
        </extensions>
      </trkpt>
      <trkpt lat="44.14813" lon="5.26639">
        <ele>1076.2</ele>
        <time>2021-06-12T08:10:02Z</time>
        <extensions>
          <gpxtpx:TrackPointExtension xmlns:gpxtpx="http://www.garmin.com/xmlschemas/TrackPointExtension/v1">
            <gpxtpx:hr>104</gpxtpx:hr>
          </gpxtpx:TrackPointExtension>
        </extensions>
      </trkpt>
      <trkpt lat="44.14812" lon="5.26643">
        <ele>1076.2</ele>
        <time>2021-06-12T08:10:15Z</time>
        <extensions>
          <gpxtpx:TrackPointExtension xmlns:gpxtpx="http://www.garmin.com/xmlschemas/TrackPointExtension/v1">
            <gpxtpx:hr>107</gpxtpx:hr>
          </gpxtpx:TrackPointExtension>
        </extensions>
      </trkpt>
      <trkpt lat="44.14814" lon="5.26637">
        <ele>1076.2</ele>
        <time>2021-06-12T08:11:05Z</time>
        <extensions>
          <gpxtpx:TrackPointExtension xmlns:gpxtpx="http://www.garmin.com/xmlschemas/TrackPointExtension/v1">
            <gpxtpx:hr>111</gpxtpx:hr>
          </gpxtpx:TrackPointExtension>
        </extensions>
      </trkpt>
      <trkpt lat="44.14814" lon="5.26638">
        <ele>1076.2</ele>
        <time>2021-06-12T08:11:13Z</time>
        <extensions>
          <gpxtpx:TrackPointExtension xmlns:gpxtpx="http://www.garmin.com/xmlschemas/TrackPointExtension/v1">
            <gpxtpx:hr>108</gpxtpx:hr>
          </gpxtpx:TrackPointExtension>
        </extensions>
      </trkpt>
      <trkpt lat="44.14814" lon="5.26634">
        <ele>1076.2</ele>
        <time>2021-06-12T08:11:50Z</time>
        <extensions>
          <gpxtpx:TrackPointExtension xmlns:gpxtpx="http://www.garmin.com/xmlschemas/TrackPointExtension/v1">
            <gpxtpx:hr>111</gpxtpx:hr>
          </gpxtpx:TrackPointExtension>
        </extensions>
      </trkpt>
      <trkpt lat="44.14812" lon="5.26637">
        <ele>1076.2</ele>
        <time>2021-06-12T08:12:06Z</time>
        <extensions>
          <gpxtpx:TrackPointExtension xmlns:gpxtpx="http://www.garmin.com/xmlschemas/TrackPointExtension/v1">
            <gpxtpx:hr>108</gpxtpx:hr>
          </gpxtpx:TrackPointExtension>
        </extensions>
      </trkpt>
      <trkpt lat="44.14812" lon="5.26638">
        <ele>1076.2</ele>
        <time>2021-06-12T08:12:30Z</time>
        <extensions>
          <gpxtpx:TrackPointExtension xmlns:gpxtpx="http://www.garmin.com/xmlschemas/TrackPointExtension/v1">
            <gpxtpx:hr>104</gpxtpx:hr>
          </gpxtpx:TrackPointExtension>
        </extensions>
      </trkpt>
      <trkpt lat="44.14812" lon="5.26638">
        <ele>1076.2</ele>
        <time>2021-06-12T08:12:32Z</time>
        <extensions>
          <gpxtpx:TrackPointExtension xmlns:gpxtpx="http://www.garmin.com/xmlschemas/TrackPointExtension/v1">
            <gpxtpx:hr>101</gpxtpx:hr>
          </gpxtpx:TrackPointExtension>
        </extensions>
      </trkpt>
      <trkpt lat="44.14812" lon="5.26638">
        <ele>1076.2</ele>
        <time>2021-06-12T08:12:34Z</time>
        <extensions>
          <gpxtpx:TrackPointExtension xmlns:gpxtpx="http://www.garmin.com/xmlschemas/TrackPointExtension/v1">
            <gpxtpx:hr>104</gpxtpx:hr>
          </gpxtpx:TrackPointExtension>
        </extensions>
      </trkpt>
      <trkpt lat="44.14812" lon="5.26637">
        <ele>1076.2</ele>
        <time>2021-06-12T08:12:36Z</time>
        <extensions>
          <gpxtpx:TrackPointExtension xmlns:gpxtpx="http://www.garmin.com/xmlschemas/TrackPointExtension/v1">
            <gpxtpx:hr>107</gpxtpx:hr>
          </gpxtpx:TrackPointExtension>
        </extensions>
      </trkpt>
      <trkpt lat="44.14813" lon="5.26638">
        <ele>1076.2</ele>
        <time>2021-06-12T08:12:48Z</time>
        <extensions>
          <gpxtpx:TrackPointExtension xmlns:gpxtpx="http://www.garmin.com/xmlschemas/TrackPointExtension/v1">
            <gpxtpx:hr>110</gpxtpx:hr>
          </gpxtpx:TrackPointExtension>
        </extensions>
      </trkpt>
      <trkpt lat="44.14813" lon="5.26636">
        <ele>1076.2</ele>
        <time>2021-06-12T08:12:52Z</time>
        <extensions>
          <gpxtpx:TrackPointExtension xmlns:gpxtpx="http://www.garmin.com/xmlschemas/TrackPointExtension/v1">
            <gpxtpx:hr>107</gpxtpx:hr>
          </gpxtpx:TrackPointExtension>
        </extensions>
      </trkpt>
      <trkpt lat="44.14813" lon="5.26636">
        <ele>1076.2</ele>
        <time>2021-06-12T08:12:53Z</time>
        <extensions>
          <gpxtpx:TrackPointExtension xmlns:gpxtpx="http://www.garmin.com/xmlschemas/TrackPointExtension/v1">
            <gpxtpx:hr>104</gpxtpx:hr>
          </gpxtpx:TrackPointExtension>
        </extensions>
      </trkpt>
      <trkpt lat="44.14813" lon="5.26635">
        <ele>1076.2</ele>
        <time>2021-06-12T08:13:03Z</time>
        <extensions>
          <gpxtpx:TrackPointExtension xmlns:gpxtpx="http://www.garmin.com/xmlschemas/TrackPointExtension/v1">
            <gpxtpx:hr>101</gpxtpx:hr>
          </gpxtpx:TrackPointExtension>
        </extensions>
      </trkpt>
      <trkpt lat="44.14813" lon="5.26634">
        <ele>1076.2</ele>
        <time>2021-06-12T08:13:07Z</time>
        <extensions>
          <gpxtpx:TrackPointExtension xmlns:gpxtpx="http://www.garmin.com/xmlschemas/TrackPointExtension/v1">
            <gpxtpx:hr>104</gpxtpx:hr>
          </gpxtpx:TrackPointExtension>
        </extensions>
      </trkpt>
      <trkpt lat="44.14813" lon="5.26634">
        <ele>1076.2</ele>
        <time>2021-06-12T08:13:23Z</time>
        <extensions>
          <gpxtpx:TrackPointExtension xmlns:gpxtpx="http://www.garmin.com/xmlschemas/TrackPointExtension/v1">
            <gpxtpx:hr>107</gpxtpx:hr>
          </gpxtpx:TrackPointExtension>
        </extensions>
      </trkpt>
      <trkpt lat="44.14813" lon="5.26635">
        <ele>1076.2</ele>
        <time>2021-06-12T08:13:25Z</time>
        <extensions>
          <gpxtpx:TrackPointExtension xmlns:gpxtpx="http://www.garmin.com/xmlschemas/TrackPointExtension/v1">
            <gpxtpx:hr>111</gpxtpx:hr>
          </gpxtpx:TrackPointExtension>
        </extensions>
      </trkpt>
      <trkpt lat="44.14813" lon="5.26635">
        <ele>1076.2</ele>
        <time>2021-06-12T08:13:34Z</time>
        <extensions>
          <gpxtpx:TrackPointExtension xmlns:gpxtpx="http://www.garmin.com/xmlschemas/TrackPointExtension/v1">
            <gpxtpx:hr>108</gpxtpx:hr>
          </gpxtpx:TrackPointExtension>
        </extensions>
      </trkpt>
      <trkpt lat="44.14813" lon="5.26635">
        <ele>1076.2</ele>
        <time>2021-06-12T08:13:35Z</time>
        <extensions>
          <gpxtpx:TrackPointExtension xmlns:gpxtpx="http://www.garmin.com/xmlschemas/TrackPointExtension/v1">
            <gpxtpx:hr>104</gpxtpx:hr>
          </gpxtpx:TrackPointExtension>
        </extensions>
      </trkpt>
      <trkpt lat="44.14813" lon="5.26636">
        <ele>1076.2</ele>
        <time>2021-06-12T08:13:38Z</time>
        <extensions>
          <gpxtpx:TrackPointExtension xmlns:gpxtpx="http://www.garmin.com/xmlschemas/TrackPointExtension/v1">
            <gpxtpx:hr>108</gpxtpx:hr>
          </gpxtpx:TrackPointExtension>
        </extensions>
      </trkpt>
      <trkpt lat="44.14813" lon="5.26637">
        <ele>1076.2</ele>
        <time>2021-06-12T08:13:47Z</time>
        <extensions>
          <gpxtpx:TrackPointExtension xmlns:gpxtpx="http://www.garmin.com/xmlschemas/TrackPointExtension/v1">
            <gpxtpx:hr>105</gpxtpx:hr>
          </gpxtpx:TrackPointExtension>
        </extensions>
      </trkpt>
      <trkpt lat="44.14813" lon="5.26638">
        <ele>1076.2</ele>
        <time>2021-06-12T08:14:00Z</time>
        <extensions>
          <gpxtpx:TrackPointExtension xmlns:gpxtpx="http://www.garmin.com/xmlschemas/TrackPointExtension/v1">
            <gpxtpx:hr>102</gpxtpx:hr>
          </gpxtpx:TrackPointExtension>
        </extensions>
      </trkpt>
      <trkpt lat="44.14813" lon="5.26639">
        <ele>1076.2</ele>
        <time>2021-06-12T08:14:03Z</time>
        <extensions>
          <gpxtpx:TrackPointExtension xmlns:gpxtpx="http://www.garmin.com/xmlschemas/TrackPointExtension/v1">
            <gpxtpx:hr>105</gpxtpx:hr>
          </gpxtpx:TrackPointExtension>
        </extensions>
      </trkpt>
      <trkpt lat="44.14813" lon="5.26637">
        <ele>1076.2</ele>
        <time>2021-06-12T08:14:08Z</time>
        <extensions>
          <gpxtpx:TrackPointExtension xmlns:gpxtpx="http://www.garmin.com/xmlschemas/TrackPointExtension/v1">
            <gpxtpx:hr>101</gpxtpx:hr>
          </gpxtpx:TrackPointExtension>
        </extensions>
      </trkpt>
      <trkpt lat="44.14813" lon="5.26637">
        <ele>1076.2</ele>
        <time>2021-06-12T08:14:09Z</time>
        <extensions>
          <gpxtpx:TrackPointExtension xmlns:gpxtpx="http://www.garmin.com/xmlschemas/TrackPointExtension/v1">
            <gpxtpx:hr>101</gpxtpx:hr>
          </gpxtpx:TrackPointExtension>
        </extensions>
      </trkpt>
      <trkpt lat="44.14812" lon="5.26637">
        <ele>1076.2</ele>
        <time>2021-06-12T08:14:12Z</time>
        <extensions>
          <gpxtpx:TrackPointExtension xmlns:gpxtpx="http://www.garmin.com/xmlschemas/TrackPointExtension/v1">
            <gpxtpx:hr>104</gpxtpx:hr>
          </gpxtpx:TrackPointExtension>
        </extensions>
      </trkpt>
      <trkpt lat="44.14812" lon="5.26638">
        <ele>1076.2</ele>
        <time>2021-06-12T08:14:18Z</time>
        <extensions>
          <gpxtpx:TrackPointExtension xmlns:gpxtpx="http://www.garmin.com/xmlschemas/TrackPointExtension/v1">
            <gpxtpx:hr>108</gpxtpx:hr>
          </gpxtpx:TrackPointExtension>
        </extensions>
      </trkpt>
      <trkpt lat="44.1481" lon="5.26633">
        <ele>1076.2</ele>
        <time>2021-06-12T08:14:37Z</time>
        <extensions>
          <gpxtpx:TrackPointExtension xmlns:gpxtpx="http://www.garmin.com/xmlschemas/TrackPointExtension/v1">
            <gpxtpx:hr>105</gpxtpx:hr>
          </gpxtpx:TrackPointExtension>
        </extensions>
      </trkpt>
      <trkpt lat="44.1481" lon="5.26633">
        <ele>1076.2</ele>
        <time>2021-06-12T08:14:39Z</time>
        <extensions>
          <gpxtpx:TrackPointExtension xmlns:gpxtpx="http://www.garmin.com/xmlschemas/TrackPointExtension/v1">
            <gpxtpx:hr>102</gpxtpx:hr>
          </gpxtpx:TrackPointExtension>
        </extensions>
      </trkpt>
      <trkpt lat="44.14809" lon="5.26632">
        <ele>1076.2</ele>
        <time>2021-06-12T08:14:40Z</time>
        <extensions>
          <gpxtpx:TrackPointExtension xmlns:gpxtpx="http://www.garmin.com/xmlschemas/TrackPointExtension/v1">
            <gpxtpx:hr>98</gpxtpx:hr>
          </gpxtpx:TrackPointExtension>
        </extensions>
      </trkpt>
      <trkpt lat="44.14809" lon="5.26631">
        <ele>1076.2</ele>
        <time>2021-06-12T08:14:44Z</time>
        <extensions>
          <gpxtpx:TrackPointExtension xmlns:gpxtpx="http://www.garmin.com/xmlschemas/TrackPointExtension/v1">
            <gpxtpx:hr>102</gpxtpx:hr>
          </gpxtpx:TrackPointExtension>
        </extensions>
      </trkpt>
      <trkpt lat="44.14809" lon="5.26632">
        <ele>1076.2</ele>
        <time>2021-06-12T08:14:45Z</time>
        <extensions>
          <gpxtpx:TrackPointExtension xmlns:gpxtpx="http://www.garmin.com/xmlschemas/TrackPointExtension/v1">
            <gpxtpx:hr>105</gpxtpx:hr>
          </gpxtpx:TrackPointExtension>
        </extensions>
      </trkpt>
      <trkpt lat="44.1481" lon="5.26633">
        <ele>1076.2</ele>
        <time>2021-06-12T08:15:05Z</time>
        <extensions>
          <gpxtpx:TrackPointExtension xmlns:gpxtpx="http://www.garmin.com/xmlschemas/TrackPointExtension/v1">
            <gpxtpx:hr>108</gpxtpx:hr>
          </gpxtpx:TrackPointExtension>
        </extensions>
      </trkpt>
      <trkpt lat="44.1481" lon="5.26633">
        <ele>1076.2</ele>
        <time>2021-06-12T08:15:08Z</time>
        <extensions>
          <gpxtpx:TrackPointExtension xmlns:gpxtpx="http://www.garmin.com/xmlschemas/TrackPointExtension/v1">
            <gpxtpx:hr>105</gpxtpx:hr>
          </gpxtpx:TrackPointExtension>
        </extensions>
      </trkpt>
      <trkpt lat="44.14812" lon="5.26636">
        <ele>1076.2</ele>
        <time>2021-06-12T08:15:31Z</time>
        <extensions>
          <gpxtpx:TrackPointExtension xmlns:gpxtpx="http://www.garmin.com/xmlschemas/TrackPointExtension/v1">
            <gpxtpx:hr>108</gpxtpx:hr>
          </gpxtpx:TrackPointExtension>
        </extensions>
      </trkpt>
      <trkpt lat="44.14812" lon="5.26636">
        <ele>1076.2</ele>
        <time>2021-06-12T08:15:35Z</time>
        <extensions>
          <gpxtpx:TrackPointExtension xmlns:gpxtpx="http://www.garmin.com/xmlschemas/TrackPointExtension/v1">
            <gpxtpx:hr>101</gpxtpx:hr>
          </gpxtpx:TrackPointExtension>
        </extensions>
      </trkpt>
      <trkpt lat="44.14812" lon="5.26635">
        <ele>1076.2</ele>
        <time>2021-06-12T08:15:37Z</time>
        <extensions>
          <gpxtpx:TrackPointExtension xmlns:gpxtpx="http://www.garmin.com/xmlschemas/TrackPointExtension/v1">
            <gpxtpx:hr>96</gpxtpx:hr>
          </gpxtpx:TrackPointExtension>
        </extensions>
      </trkpt>
      <trkpt lat="44.14812" lon="5.26634">
        <ele>1076.2</ele>
        <time>2021-06-12T08:15:41Z</time>
        <extensions>
          <gpxtpx:TrackPointExtension xmlns:gpxtpx="http://www.garmin.com/xmlschemas/TrackPointExtension/v1">
            <gpxtpx:hr>101</gpxtpx:hr>
          </gpxtpx:TrackPointExtension>
        </extensions>
      </trkpt>
      <trkpt lat="44.14812" lon="5.26634">
        <ele>1076.2</ele>
        <time>2021-06-12T08:15:43Z</time>
        <extensions>
          <gpxtpx:TrackPointExtension xmlns:gpxtpx="http://www.garmin.com/xmlschemas/TrackPointExtension/v1">
            <gpxtpx:hr>105</gpxtpx:hr>
          </gpxtpx:TrackPointExtension>
        </extensions>
      </trkpt>
      <trkpt lat="44.14812" lon="5.26633">
        <ele>1076.2</ele>
        <time>2021-06-12T08:16:06Z</time>
        <extensions>
          <gpxtpx:TrackPointExtension xmlns:gpxtpx="http://www.garmin.com/xmlschemas/TrackPointExtension/v1">
            <gpxtpx:hr>108</gpxtpx:hr>
          </gpxtpx:TrackPointExtension>
        </extensions>
      </trkpt>
      <trkpt lat="44.14812" lon="5.26634">
        <ele>1076.2</ele>
        <time>2021-06-12T08:16:10Z</time>
        <extensions>
          <gpxtpx:TrackPointExtension xmlns:gpxtpx="http://www.garmin.com/xmlschemas/TrackPointExtension/v1">
            <gpxtpx:hr>105</gpxtpx:hr>
          </gpxtpx:TrackPointExtension>
        </extensions>
      </trkpt>
      <trkpt lat="44.14812" lon="5.26634">
        <ele>1076.2</ele>
        <time>2021-06-12T08:16:15Z</time>
        <extensions>
          <gpxtpx:TrackPointExtension xmlns:gpxtpx="http://www.garmin.com/xmlschemas/TrackPointExtension/v1">
            <gpxtpx:hr>109</gpxtpx:hr>
          </gpxtpx:TrackPointExtension>
        </extensions>
      </trkpt>
      <trkpt lat="44.14812" lon="5.26635">
        <ele>1076.2</ele>
        <time>2021-06-12T08:16:20Z</time>
        <extensions>
          <gpxtpx:TrackPointExtension xmlns:gpxtpx="http://www.garmin.com/xmlschemas/TrackPointExtension/v1">
            <gpxtpx:hr>106</gpxtpx:hr>
          </gpxtpx:TrackPointExtension>
        </extensions>
      </trkpt>
      <trkpt lat="44.14812" lon="5.26636">
        <ele>1076.2</ele>
        <time>2021-06-12T08:16:22Z</time>
        <extensions>
          <gpxtpx:TrackPointExtension xmlns:gpxtpx="http://www.garmin.com/xmlschemas/TrackPointExtension/v1">
            <gpxtpx:hr>103</gpxtpx:hr>
          </gpxtpx:TrackPointExtension>
        </extensions>
      </trkpt>
      <trkpt lat="44.14811" lon="5.26636">
        <ele>1076.2</ele>
        <time>2021-06-12T08:16:25Z</time>
        <extensions>
          <gpxtpx:TrackPointExtension xmlns:gpxtpx="http://www.garmin.com/xmlschemas/TrackPointExtension/v1">
            <gpxtpx:hr>99</gpxtpx:hr>
          </gpxtpx:TrackPointExtension>
        </extensions>
      </trkpt>
      <trkpt lat="44.14811" lon="5.26635">
        <ele>1076.2</ele>
        <time>2021-06-12T08:16:27Z</time>
        <extensions>
          <gpxtpx:TrackPointExtension xmlns:gpxtpx="http://www.garmin.com/xmlschemas/TrackPointExtension/v1">
            <gpxtpx:hr>102</gpxtpx:hr>
          </gpxtpx:TrackPointExtension>
        </extensions>
      </trkpt>
      <trkpt lat="44.14812" lon="5.26637">
        <ele>1076.2</ele>
        <time>2021-06-12T08:16:46Z</time>
        <extensions>
          <gpxtpx:TrackPointExtension xmlns:gpxtpx="http://www.garmin.com/xmlschemas/TrackPointExtension/v1">
            <gpxtpx:hr>105</gpxtpx:hr>
          </gpxtpx:TrackPointExtension>
        </extensions>
      </trkpt>
      <trkpt lat="44.14817" lon="5.26635">
        <ele>1076.2</ele>
        <time>2021-06-12T08:16:55Z</time>
        <extensions>
          <gpxtpx:TrackPointExtension xmlns:gpxtpx="http://www.garmin.com/xmlschemas/TrackPointExtension/v1">
            <gpxtpx:hr>109</gpxtpx:hr>
          </gpxtpx:TrackPointExtension>
        </extensions>
      </trkpt>
      <trkpt lat="44.14819" lon="5.26633">
        <ele>1076.4</ele>
        <time>2021-06-12T08:16:58Z</time>
        <extensions>
          <gpxtpx:TrackPointExtension xmlns:gpxtpx="http://www.garmin.com/xmlschemas/TrackPointExtension/v1">
            <gpxtpx:hr>112</gpxtpx:hr>
          </gpxtpx:TrackPointExtension>
        </extensions>
      </trkpt>
      <trkpt lat="44.14822" lon="5.26632">
        <ele>1077</ele>
        <time>2021-06-12T08:17:01Z</time>
        <extensions>
          <gpxtpx:TrackPointExtension xmlns:gpxtpx="http://www.garmin.com/xmlschemas/TrackPointExtension/v1">
            <gpxtpx:hr>112</gpxtpx:hr>
          </gpxtpx:TrackPointExtension>
        </extensions>
      </trkpt>
      <trkpt lat="44.14823" lon="5.26631">
        <ele>1076.8</ele>
        <time>2021-06-12T08:17:02Z</time>
        <extensions>
          <gpxtpx:TrackPointExtension xmlns:gpxtpx="http://www.garmin.com/xmlschemas/TrackPointExtension/v1">
            <gpxtpx:hr>112</gpxtpx:hr>
          </gpxtpx:TrackPointExtension>
        </extensions>
      </trkpt>
      <trkpt lat="44.14823" lon="5.2663">
        <ele>1077</ele>
        <time>2021-06-12T08:17:03Z</time>
        <extensions>
          <gpxtpx:TrackPointExtension xmlns:gpxtpx="http://www.garmin.com/xmlschemas/TrackPointExtension/v1">
            <gpxtpx:hr>111</gpxtpx:hr>
          </gpxtpx:TrackPointExtension>
        </extensions>
      </trkpt>
      <trkpt lat="44.14827" lon="5.26629">
        <ele>1077</ele>
        <time>2021-06-12T08:17:07Z</time>
        <extensions>
          <gpxtpx:TrackPointExtension xmlns:gpxtpx="http://www.garmin.com/xmlschemas/TrackPointExtension/v1">
            <gpxtpx:hr>109</gpxtpx:hr>
          </gpxtpx:TrackPointExtension>
        </extensions>
      </trkpt>
      <trkpt lat="44.14828" lon="5.26629">
        <ele>1077</ele>
        <time>2021-06-12T08:17:09Z</time>
        <extensions>
          <gpxtpx:TrackPointExtension xmlns:gpxtpx="http://www.garmin.com/xmlschemas/TrackPointExtension/v1">
            <gpxtpx:hr>110</gpxtpx:hr>
          </gpxtpx:TrackPointExtension>
        </extensions>
      </trkpt>
      <trkpt lat="44.14828" lon="5.26629">
        <ele>1077</ele>
        <time>2021-06-12T08:17:10Z</time>
        <extensions>
          <gpxtpx:TrackPointExtension xmlns:gpxtpx="http://www.garmin.com/xmlschemas/TrackPointExtension/v1">
            <gpxtpx:hr>110</gpxtpx:hr>
          </gpxtpx:TrackPointExtension>
        </extensions>
      </trkpt>
      <trkpt lat="44.14827" lon="5.2663">
        <ele>1077</ele>
        <time>2021-06-12T08:17:12Z</time>
        <extensions>
          <gpxtpx:TrackPointExtension xmlns:gpxtpx="http://www.garmin.com/xmlschemas/TrackPointExtension/v1">
            <gpxtpx:hr>110</gpxtpx:hr>
          </gpxtpx:TrackPointExtension>
        </extensions>
      </trkpt>
      <trkpt lat="44.14832" lon="5.2663">
        <ele>1077</ele>
        <time>2021-06-12T08:17:23Z</time>
        <extensions>
          <gpxtpx:TrackPointExtension xmlns:gpxtpx="http://www.garmin.com/xmlschemas/TrackPointExtension/v1">
            <gpxtpx:hr>110</gpxtpx:hr>
          </gpxtpx:TrackPointExtension>
        </extensions>
      </trkpt>
      <trkpt lat="44.14833" lon="5.2663">
        <ele>1077.2</ele>
        <time>2021-06-12T08:17:24Z</time>
        <extensions>
          <gpxtpx:TrackPointExtension xmlns:gpxtpx="http://www.garmin.com/xmlschemas/TrackPointExtension/v1">
            <gpxtpx:hr>111</gpxtpx:hr>
          </gpxtpx:TrackPointExtension>
        </extensions>
      </trkpt>
      <trkpt lat="44.14839" lon="5.26629">
        <ele>1077.8</ele>
        <time>2021-06-12T08:17:34Z</time>
        <extensions>
          <gpxtpx:TrackPointExtension xmlns:gpxtpx="http://www.garmin.com/xmlschemas/TrackPointExtension/v1">
            <gpxtpx:hr>113</gpxtpx:hr>
          </gpxtpx:TrackPointExtension>
        </extensions>
      </trkpt>
      <trkpt lat="44.1484" lon="5.26629">
        <ele>1078</ele>
        <time>2021-06-12T08:17:35Z</time>
        <extensions>
          <gpxtpx:TrackPointExtension xmlns:gpxtpx="http://www.garmin.com/xmlschemas/TrackPointExtension/v1">
            <gpxtpx:hr>113</gpxtpx:hr>
          </gpxtpx:TrackPointExtension>
        </extensions>
      </trkpt>
      <trkpt lat="44.14848" lon="5.26627">
        <ele>1078.4</ele>
        <time>2021-06-12T08:17:40Z</time>
        <extensions>
          <gpxtpx:TrackPointExtension xmlns:gpxtpx="http://www.garmin.com/xmlschemas/TrackPointExtension/v1">
            <gpxtpx:hr>113</gpxtpx:hr>
          </gpxtpx:TrackPointExtension>
        </extensions>
      </trkpt>
      <trkpt lat="44.14854" lon="5.26623">
        <ele>1078.6</ele>
        <time>2021-06-12T08:17:46Z</time>
        <extensions>
          <gpxtpx:TrackPointExtension xmlns:gpxtpx="http://www.garmin.com/xmlschemas/TrackPointExtension/v1">
            <gpxtpx:hr>113</gpxtpx:hr>
          </gpxtpx:TrackPointExtension>
        </extensions>
      </trkpt>
      <trkpt lat="44.14855" lon="5.26622">
        <ele>1078.6</ele>
        <time>2021-06-12T08:17:48Z</time>
        <extensions>
          <gpxtpx:TrackPointExtension xmlns:gpxtpx="http://www.garmin.com/xmlschemas/TrackPointExtension/v1">
            <gpxtpx:hr>112</gpxtpx:hr>
          </gpxtpx:TrackPointExtension>
        </extensions>
      </trkpt>
      <trkpt lat="44.14856" lon="5.26621">
        <ele>1078.6</ele>
        <time>2021-06-12T08:17:49Z</time>
        <extensions>
          <gpxtpx:TrackPointExtension xmlns:gpxtpx="http://www.garmin.com/xmlschemas/TrackPointExtension/v1">
            <gpxtpx:hr>112</gpxtpx:hr>
          </gpxtpx:TrackPointExtension>
        </extensions>
      </trkpt>
      <trkpt lat="44.14858" lon="5.2662">
        <ele>1079</ele>
        <time>2021-06-12T08:17:52Z</time>
        <extensions>
          <gpxtpx:TrackPointExtension xmlns:gpxtpx="http://www.garmin.com/xmlschemas/TrackPointExtension/v1">
            <gpxtpx:hr>115</gpxtpx:hr>
          </gpxtpx:TrackPointExtension>
        </extensions>
      </trkpt>
      <trkpt lat="44.14859" lon="5.26619">
        <ele>1079.2</ele>
        <time>2021-06-12T08:17:53Z</time>
        <extensions>
          <gpxtpx:TrackPointExtension xmlns:gpxtpx="http://www.garmin.com/xmlschemas/TrackPointExtension/v1">
            <gpxtpx:hr>116</gpxtpx:hr>
          </gpxtpx:TrackPointExtension>
        </extensions>
      </trkpt>
      <trkpt lat="44.14864" lon="5.26615">
        <ele>1079.8</ele>
        <time>2021-06-12T08:17:57Z</time>
        <extensions>
          <gpxtpx:TrackPointExtension xmlns:gpxtpx="http://www.garmin.com/xmlschemas/TrackPointExtension/v1">
            <gpxtpx:hr>119</gpxtpx:hr>
          </gpxtpx:TrackPointExtension>
        </extensions>
      </trkpt>
      <trkpt lat="44.14865" lon="5.26616">
        <ele>1080</ele>
        <time>2021-06-12T08:17:58Z</time>
        <extensions>
          <gpxtpx:TrackPointExtension xmlns:gpxtpx="http://www.garmin.com/xmlschemas/TrackPointExtension/v1">
            <gpxtpx:hr>119</gpxtpx:hr>
          </gpxtpx:TrackPointExtension>
        </extensions>
      </trkpt>
      <trkpt lat="44.14873" lon="5.26621">
        <ele>1080.6</ele>
        <time>2021-06-12T08:18:02Z</time>
        <extensions>
          <gpxtpx:TrackPointExtension xmlns:gpxtpx="http://www.garmin.com/xmlschemas/TrackPointExtension/v1">
            <gpxtpx:hr>122</gpxtpx:hr>
          </gpxtpx:TrackPointExtension>
        </extensions>
      </trkpt>
      <trkpt lat="44.14881" lon="5.26626">
        <ele>1081</ele>
        <time>2021-06-12T08:18:07Z</time>
        <extensions>
          <gpxtpx:TrackPointExtension xmlns:gpxtpx="http://www.garmin.com/xmlschemas/TrackPointExtension/v1">
            <gpxtpx:hr>125</gpxtpx:hr>
          </gpxtpx:TrackPointExtension>
        </extensions>
      </trkpt>
      <trkpt lat="44.14887" lon="5.26632">
        <ele>1081.6</ele>
        <time>2021-06-12T08:18:11Z</time>
        <extensions>
          <gpxtpx:TrackPointExtension xmlns:gpxtpx="http://www.garmin.com/xmlschemas/TrackPointExtension/v1">
            <gpxtpx:hr>128</gpxtpx:hr>
          </gpxtpx:TrackPointExtension>
        </extensions>
      </trkpt>
      <trkpt lat="44.1489" lon="5.26634">
        <ele>1081.8</ele>
        <time>2021-06-12T08:18:13Z</time>
        <extensions>
          <gpxtpx:TrackPointExtension xmlns:gpxtpx="http://www.garmin.com/xmlschemas/TrackPointExtension/v1">
            <gpxtpx:hr>129</gpxtpx:hr>
          </gpxtpx:TrackPointExtension>
        </extensions>
      </trkpt>
      <trkpt lat="44.14892" lon="5.26637">
        <ele>1082</ele>
        <time>2021-06-12T08:18:15Z</time>
        <extensions>
          <gpxtpx:TrackPointExtension xmlns:gpxtpx="http://www.garmin.com/xmlschemas/TrackPointExtension/v1">
            <gpxtpx:hr>129</gpxtpx:hr>
          </gpxtpx:TrackPointExtension>
        </extensions>
      </trkpt>
      <trkpt lat="44.14892" lon="5.26638">
        <ele>1082.2</ele>
        <time>2021-06-12T08:18:16Z</time>
        <extensions>
          <gpxtpx:TrackPointExtension xmlns:gpxtpx="http://www.garmin.com/xmlschemas/TrackPointExtension/v1">
            <gpxtpx:hr>129</gpxtpx:hr>
          </gpxtpx:TrackPointExtension>
        </extensions>
      </trkpt>
      <trkpt lat="44.14893" lon="5.26641">
        <ele>1082.2</ele>
        <time>2021-06-12T08:18:18Z</time>
        <extensions>
          <gpxtpx:TrackPointExtension xmlns:gpxtpx="http://www.garmin.com/xmlschemas/TrackPointExtension/v1">
            <gpxtpx:hr>129</gpxtpx:hr>
          </gpxtpx:TrackPointExtension>
        </extensions>
      </trkpt>
      <trkpt lat="44.14895" lon="5.26645">
        <ele>1082.6</ele>
        <time>2021-06-12T08:18:21Z</time>
        <extensions>
          <gpxtpx:TrackPointExtension xmlns:gpxtpx="http://www.garmin.com/xmlschemas/TrackPointExtension/v1">
            <gpxtpx:hr>130</gpxtpx:hr>
          </gpxtpx:TrackPointExtension>
        </extensions>
      </trkpt>
      <trkpt lat="44.14897" lon="5.26648">
        <ele>1083</ele>
        <time>2021-06-12T08:18:23Z</time>
        <extensions>
          <gpxtpx:TrackPointExtension xmlns:gpxtpx="http://www.garmin.com/xmlschemas/TrackPointExtension/v1">
            <gpxtpx:hr>131</gpxtpx:hr>
          </gpxtpx:TrackPointExtension>
        </extensions>
      </trkpt>
      <trkpt lat="44.14898" lon="5.26648">
        <ele>1083.2</ele>
        <time>2021-06-12T08:18:24Z</time>
        <extensions>
          <gpxtpx:TrackPointExtension xmlns:gpxtpx="http://www.garmin.com/xmlschemas/TrackPointExtension/v1">
            <gpxtpx:hr>132</gpxtpx:hr>
          </gpxtpx:TrackPointExtension>
        </extensions>
      </trkpt>
      <trkpt lat="44.14902" lon="5.26654">
        <ele>1084.2</ele>
        <time>2021-06-12T08:18:28Z</time>
        <extensions>
          <gpxtpx:TrackPointExtension xmlns:gpxtpx="http://www.garmin.com/xmlschemas/TrackPointExtension/v1">
            <gpxtpx:hr>135</gpxtpx:hr>
          </gpxtpx:TrackPointExtension>
        </extensions>
      </trkpt>
      <trkpt lat="44.14902" lon="5.26658">
        <ele>1084.6</ele>
        <time>2021-06-12T08:18:30Z</time>
        <extensions>
          <gpxtpx:TrackPointExtension xmlns:gpxtpx="http://www.garmin.com/xmlschemas/TrackPointExtension/v1">
            <gpxtpx:hr>136</gpxtpx:hr>
          </gpxtpx:TrackPointExtension>
        </extensions>
      </trkpt>
      <trkpt lat="44.14903" lon="5.26664">
        <ele>1085.2</ele>
        <time>2021-06-12T08:18:34Z</time>
        <extensions>
          <gpxtpx:TrackPointExtension xmlns:gpxtpx="http://www.garmin.com/xmlschemas/TrackPointExtension/v1">
            <gpxtpx:hr>138</gpxtpx:hr>
          </gpxtpx:TrackPointExtension>
        </extensions>
      </trkpt>
      <trkpt lat="44.14903" lon="5.26666">
        <ele>1085.4</ele>
        <time>2021-06-12T08:18:35Z</time>
        <extensions>
          <gpxtpx:TrackPointExtension xmlns:gpxtpx="http://www.garmin.com/xmlschemas/TrackPointExtension/v1">
            <gpxtpx:hr>138</gpxtpx:hr>
          </gpxtpx:TrackPointExtension>
        </extensions>
      </trkpt>
      <trkpt lat="44.14904" lon="5.26669">
        <ele>1086</ele>
        <time>2021-06-12T08:18:37Z</time>
        <extensions>
          <gpxtpx:TrackPointExtension xmlns:gpxtpx="http://www.garmin.com/xmlschemas/TrackPointExtension/v1">
            <gpxtpx:hr>139</gpxtpx:hr>
          </gpxtpx:TrackPointExtension>
        </extensions>
      </trkpt>
      <trkpt lat="44.14905" lon="5.26673">
        <ele>1086.6</ele>
        <time>2021-06-12T08:18:40Z</time>
        <extensions>
          <gpxtpx:TrackPointExtension xmlns:gpxtpx="http://www.garmin.com/xmlschemas/TrackPointExtension/v1">
            <gpxtpx:hr>140</gpxtpx:hr>
          </gpxtpx:TrackPointExtension>
        </extensions>
      </trkpt>
      <trkpt lat="44.14906" lon="5.26679">
        <ele>1087</ele>
        <time>2021-06-12T08:18:43Z</time>
        <extensions>
          <gpxtpx:TrackPointExtension xmlns:gpxtpx="http://www.garmin.com/xmlschemas/TrackPointExtension/v1">
            <gpxtpx:hr>140</gpxtpx:hr>
          </gpxtpx:TrackPointExtension>
        </extensions>
      </trkpt>
      <trkpt lat="44.14907" lon="5.26688">
        <ele>1087.8</ele>
        <time>2021-06-12T08:18:47Z</time>
        <extensions>
          <gpxtpx:TrackPointExtension xmlns:gpxtpx="http://www.garmin.com/xmlschemas/TrackPointExtension/v1">
            <gpxtpx:hr>142</gpxtpx:hr>
          </gpxtpx:TrackPointExtension>
        </extensions>
      </trkpt>
      <trkpt lat="44.14908" lon="5.26698">
        <ele>1088.8</ele>
        <time>2021-06-12T08:18:53Z</time>
        <extensions>
          <gpxtpx:TrackPointExtension xmlns:gpxtpx="http://www.garmin.com/xmlschemas/TrackPointExtension/v1">
            <gpxtpx:hr>144</gpxtpx:hr>
          </gpxtpx:TrackPointExtension>
        </extensions>
      </trkpt>
      <trkpt lat="44.14907" lon="5.26702">
        <ele>1089.2</ele>
        <time>2021-06-12T08:18:55Z</time>
        <extensions>
          <gpxtpx:TrackPointExtension xmlns:gpxtpx="http://www.garmin.com/xmlschemas/TrackPointExtension/v1">
            <gpxtpx:hr>144</gpxtpx:hr>
          </gpxtpx:TrackPointExtension>
        </extensions>
      </trkpt>
      <trkpt lat="44.14907" lon="5.26705">
        <ele>1089.4</ele>
        <time>2021-06-12T08:18:57Z</time>
        <extensions>
          <gpxtpx:TrackPointExtension xmlns:gpxtpx="http://www.garmin.com/xmlschemas/TrackPointExtension/v1">
            <gpxtpx:hr>144</gpxtpx:hr>
          </gpxtpx:TrackPointExtension>
        </extensions>
      </trkpt>
      <trkpt lat="44.14906" lon="5.26706">
        <ele>1089.4</ele>
        <time>2021-06-12T08:18:58Z</time>
        <extensions>
          <gpxtpx:TrackPointExtension xmlns:gpxtpx="http://www.garmin.com/xmlschemas/TrackPointExtension/v1">
            <gpxtpx:hr>144</gpxtpx:hr>
          </gpxtpx:TrackPointExtension>
        </extensions>
      </trkpt>
      <trkpt lat="44.14906" lon="5.26707">
        <ele>1089.6</ele>
        <time>2021-06-12T08:18:59Z</time>
        <extensions>
          <gpxtpx:TrackPointExtension xmlns:gpxtpx="http://www.garmin.com/xmlschemas/TrackPointExtension/v1">
            <gpxtpx:hr>144</gpxtpx:hr>
          </gpxtpx:TrackPointExtension>
        </extensions>
      </trkpt>
      <trkpt lat="44.14906" lon="5.26712">
        <ele>1090</ele>
        <time>2021-06-12T08:19:02Z</time>
        <extensions>
          <gpxtpx:TrackPointExtension xmlns:gpxtpx="http://www.garmin.com/xmlschemas/TrackPointExtension/v1">
            <gpxtpx:hr>144</gpxtpx:hr>
          </gpxtpx:TrackPointExtension>
        </extensions>
      </trkpt>
      <trkpt lat="44.14906" lon="5.26714">
        <ele>1090.4</ele>
        <time>2021-06-12T08:19:04Z</time>
        <extensions>
          <gpxtpx:TrackPointExtension xmlns:gpxtpx="http://www.garmin.com/xmlschemas/TrackPointExtension/v1">
            <gpxtpx:hr>144</gpxtpx:hr>
          </gpxtpx:TrackPointExtension>
        </extensions>
      </trkpt>
      <trkpt lat="44.14905" lon="5.26719">
        <ele>1091.2</ele>
        <time>2021-06-12T08:19:09Z</time>
        <extensions>
          <gpxtpx:TrackPointExtension xmlns:gpxtpx="http://www.garmin.com/xmlschemas/TrackPointExtension/v1">
            <gpxtpx:hr>144</gpxtpx:hr>
          </gpxtpx:TrackPointExtension>
        </extensions>
      </trkpt>
      <trkpt lat="44.14905" lon="5.26721">
        <ele>1091.4</ele>
        <time>2021-06-12T08:19:11Z</time>
        <extensions>
          <gpxtpx:TrackPointExtension xmlns:gpxtpx="http://www.garmin.com/xmlschemas/TrackPointExtension/v1">
            <gpxtpx:hr>144</gpxtpx:hr>
          </gpxtpx:TrackPointExtension>
        </extensions>
      </trkpt>
      <trkpt lat="44.14908" lon="5.26725">
        <ele>1091.8</ele>
        <time>2021-06-12T08:19:13Z</time>
        <extensions>
          <gpxtpx:TrackPointExtension xmlns:gpxtpx="http://www.garmin.com/xmlschemas/TrackPointExtension/v1">
            <gpxtpx:hr>143</gpxtpx:hr>
          </gpxtpx:TrackPointExtension>
        </extensions>
      </trkpt>
      <trkpt lat="44.14911" lon="5.2673">
        <ele>1092.2</ele>
        <time>2021-06-12T08:19:16Z</time>
        <extensions>
          <gpxtpx:TrackPointExtension xmlns:gpxtpx="http://www.garmin.com/xmlschemas/TrackPointExtension/v1">
            <gpxtpx:hr>143</gpxtpx:hr>
          </gpxtpx:TrackPointExtension>
        </extensions>
      </trkpt>
      <trkpt lat="44.14913" lon="5.26733">
        <ele>1092.6</ele>
        <time>2021-06-12T08:19:18Z</time>
        <extensions>
          <gpxtpx:TrackPointExtension xmlns:gpxtpx="http://www.garmin.com/xmlschemas/TrackPointExtension/v1">
            <gpxtpx:hr>143</gpxtpx:hr>
          </gpxtpx:TrackPointExtension>
        </extensions>
      </trkpt>
      <trkpt lat="44.14916" lon="5.26739">
        <ele>1093.4</ele>
        <time>2021-06-12T08:19:21Z</time>
        <extensions>
          <gpxtpx:TrackPointExtension xmlns:gpxtpx="http://www.garmin.com/xmlschemas/TrackPointExtension/v1">
            <gpxtpx:hr>144</gpxtpx:hr>
          </gpxtpx:TrackPointExtension>
        </extensions>
      </trkpt>
      <trkpt lat="44.14918" lon="5.26744">
        <ele>1093.8</ele>
        <time>2021-06-12T08:19:24Z</time>
        <extensions>
          <gpxtpx:TrackPointExtension xmlns:gpxtpx="http://www.garmin.com/xmlschemas/TrackPointExtension/v1">
            <gpxtpx:hr>145</gpxtpx:hr>
          </gpxtpx:TrackPointExtension>
        </extensions>
      </trkpt>
      <trkpt lat="44.1492" lon="5.26747">
        <ele>1094</ele>
        <time>2021-06-12T08:19:26Z</time>
        <extensions>
          <gpxtpx:TrackPointExtension xmlns:gpxtpx="http://www.garmin.com/xmlschemas/TrackPointExtension/v1">
            <gpxtpx:hr>146</gpxtpx:hr>
          </gpxtpx:TrackPointExtension>
        </extensions>
      </trkpt>
      <trkpt lat="44.14924" lon="5.26751">
        <ele>1094.4</ele>
        <time>2021-06-12T08:19:29Z</time>
        <extensions>
          <gpxtpx:TrackPointExtension xmlns:gpxtpx="http://www.garmin.com/xmlschemas/TrackPointExtension/v1">
            <gpxtpx:hr>147</gpxtpx:hr>
          </gpxtpx:TrackPointExtension>
        </extensions>
      </trkpt>
      <trkpt lat="44.14931" lon="5.26761">
        <ele>1095.4</ele>
        <time>2021-06-12T08:19:36Z</time>
        <extensions>
          <gpxtpx:TrackPointExtension xmlns:gpxtpx="http://www.garmin.com/xmlschemas/TrackPointExtension/v1">
            <gpxtpx:hr>147</gpxtpx:hr>
          </gpxtpx:TrackPointExtension>
        </extensions>
      </trkpt>
      <trkpt lat="44.14932" lon="5.26762">
        <ele>1095.6</ele>
        <time>2021-06-12T08:19:37Z</time>
        <extensions>
          <gpxtpx:TrackPointExtension xmlns:gpxtpx="http://www.garmin.com/xmlschemas/TrackPointExtension/v1">
            <gpxtpx:hr>147</gpxtpx:hr>
          </gpxtpx:TrackPointExtension>
        </extensions>
      </trkpt>
      <trkpt lat="44.14938" lon="5.2677">
        <ele>1096.4</ele>
        <time>2021-06-12T08:19:44Z</time>
        <extensions>
          <gpxtpx:TrackPointExtension xmlns:gpxtpx="http://www.garmin.com/xmlschemas/TrackPointExtension/v1">
            <gpxtpx:hr>146</gpxtpx:hr>
          </gpxtpx:TrackPointExtension>
        </extensions>
      </trkpt>
      <trkpt lat="44.1494" lon="5.26771">
        <ele>1096.6</ele>
        <time>2021-06-12T08:19:45Z</time>
        <extensions>
          <gpxtpx:TrackPointExtension xmlns:gpxtpx="http://www.garmin.com/xmlschemas/TrackPointExtension/v1">
            <gpxtpx:hr>145</gpxtpx:hr>
          </gpxtpx:TrackPointExtension>
        </extensions>
      </trkpt>
      <trkpt lat="44.14942" lon="5.26772">
        <ele>1097</ele>
        <time>2021-06-12T08:19:48Z</time>
        <extensions>
          <gpxtpx:TrackPointExtension xmlns:gpxtpx="http://www.garmin.com/xmlschemas/TrackPointExtension/v1">
            <gpxtpx:hr>146</gpxtpx:hr>
          </gpxtpx:TrackPointExtension>
        </extensions>
      </trkpt>
      <trkpt lat="44.14945" lon="5.26775">
        <ele>1097.6</ele>
        <time>2021-06-12T08:19:51Z</time>
        <extensions>
          <gpxtpx:TrackPointExtension xmlns:gpxtpx="http://www.garmin.com/xmlschemas/TrackPointExtension/v1">
            <gpxtpx:hr>146</gpxtpx:hr>
          </gpxtpx:TrackPointExtension>
        </extensions>
      </trkpt>
      <trkpt lat="44.14947" lon="5.26777">
        <ele>1098</ele>
        <time>2021-06-12T08:19:53Z</time>
        <extensions>
          <gpxtpx:TrackPointExtension xmlns:gpxtpx="http://www.garmin.com/xmlschemas/TrackPointExtension/v1">
            <gpxtpx:hr>146</gpxtpx:hr>
          </gpxtpx:TrackPointExtension>
        </extensions>
      </trkpt>
      <trkpt lat="44.14949" lon="5.26779">
        <ele>1098.2</ele>
        <time>2021-06-12T08:19:55Z</time>
        <extensions>
          <gpxtpx:TrackPointExtension xmlns:gpxtpx="http://www.garmin.com/xmlschemas/TrackPointExtension/v1">
            <gpxtpx:hr>147</gpxtpx:hr>
          </gpxtpx:TrackPointExtension>
        </extensions>
      </trkpt>
      <trkpt lat="44.14954" lon="5.26782">
        <ele>1098.8</ele>
        <time>2021-06-12T08:19:59Z</time>
        <extensions>
          <gpxtpx:TrackPointExtension xmlns:gpxtpx="http://www.garmin.com/xmlschemas/TrackPointExtension/v1">
            <gpxtpx:hr>146</gpxtpx:hr>
          </gpxtpx:TrackPointExtension>
        </extensions>
      </trkpt>
      <trkpt lat="44.14956" lon="5.26788">
        <ele>1099.2</ele>
        <time>2021-06-12T08:20:03Z</time>
        <extensions>
          <gpxtpx:TrackPointExtension xmlns:gpxtpx="http://www.garmin.com/xmlschemas/TrackPointExtension/v1">
            <gpxtpx:hr>145</gpxtpx:hr>
          </gpxtpx:TrackPointExtension>
        </extensions>
      </trkpt>
      <trkpt lat="44.14958" lon="5.26789">
        <ele>1099.4</ele>
        <time>2021-06-12T08:20:05Z</time>
        <extensions>
          <gpxtpx:TrackPointExtension xmlns:gpxtpx="http://www.garmin.com/xmlschemas/TrackPointExtension/v1">
            <gpxtpx:hr>145</gpxtpx:hr>
          </gpxtpx:TrackPointExtension>
        </extensions>
      </trkpt>
      <trkpt lat="44.14958" lon="5.2679">
        <ele>1099.6</ele>
        <time>2021-06-12T08:20:06Z</time>
        <extensions>
          <gpxtpx:TrackPointExtension xmlns:gpxtpx="http://www.garmin.com/xmlschemas/TrackPointExtension/v1">
            <gpxtpx:hr>145</gpxtpx:hr>
          </gpxtpx:TrackPointExtension>
        </extensions>
      </trkpt>
      <trkpt lat="44.14959" lon="5.26791">
        <ele>1099.6</ele>
        <time>2021-06-12T08:20:07Z</time>
        <extensions>
          <gpxtpx:TrackPointExtension xmlns:gpxtpx="http://www.garmin.com/xmlschemas/TrackPointExtension/v1">
            <gpxtpx:hr>145</gpxtpx:hr>
          </gpxtpx:TrackPointExtension>
        </extensions>
      </trkpt>
      <trkpt lat="44.1496" lon="5.26795">
        <ele>1099.8</ele>
        <time>2021-06-12T08:20:09Z</time>
        <extensions>
          <gpxtpx:TrackPointExtension xmlns:gpxtpx="http://www.garmin.com/xmlschemas/TrackPointExtension/v1">
            <gpxtpx:hr>142</gpxtpx:hr>
          </gpxtpx:TrackPointExtension>
        </extensions>
      </trkpt>
      <trkpt lat="44.1496" lon="5.26797">
        <ele>1100</ele>
        <time>2021-06-12T08:20:10Z</time>
        <extensions>
          <gpxtpx:TrackPointExtension xmlns:gpxtpx="http://www.garmin.com/xmlschemas/TrackPointExtension/v1">
            <gpxtpx:hr>142</gpxtpx:hr>
          </gpxtpx:TrackPointExtension>
        </extensions>
      </trkpt>
      <trkpt lat="44.14962" lon="5.26799">
        <ele>1100.4</ele>
        <time>2021-06-12T08:20:12Z</time>
        <extensions>
          <gpxtpx:TrackPointExtension xmlns:gpxtpx="http://www.garmin.com/xmlschemas/TrackPointExtension/v1">
            <gpxtpx:hr>142</gpxtpx:hr>
          </gpxtpx:TrackPointExtension>
        </extensions>
      </trkpt>
      <trkpt lat="44.14966" lon="5.26802">
        <ele>1101</ele>
        <time>2021-06-12T08:20:16Z</time>
        <extensions>
          <gpxtpx:TrackPointExtension xmlns:gpxtpx="http://www.garmin.com/xmlschemas/TrackPointExtension/v1">
            <gpxtpx:hr>143</gpxtpx:hr>
          </gpxtpx:TrackPointExtension>
        </extensions>
      </trkpt>
      <trkpt lat="44.14967" lon="5.26804">
        <ele>1101.2</ele>
        <time>2021-06-12T08:20:18Z</time>
        <extensions>
          <gpxtpx:TrackPointExtension xmlns:gpxtpx="http://www.garmin.com/xmlschemas/TrackPointExtension/v1">
            <gpxtpx:hr>143</gpxtpx:hr>
          </gpxtpx:TrackPointExtension>
        </extensions>
      </trkpt>
      <trkpt lat="44.14968" lon="5.26806">
        <ele>1101.6</ele>
        <time>2021-06-12T08:20:20Z</time>
        <extensions>
          <gpxtpx:TrackPointExtension xmlns:gpxtpx="http://www.garmin.com/xmlschemas/TrackPointExtension/v1">
            <gpxtpx:hr>144</gpxtpx:hr>
          </gpxtpx:TrackPointExtension>
        </extensions>
      </trkpt>
      <trkpt lat="44.14967" lon="5.26809">
        <ele>1101.8</ele>
        <time>2021-06-12T08:20:22Z</time>
        <extensions>
          <gpxtpx:TrackPointExtension xmlns:gpxtpx="http://www.garmin.com/xmlschemas/TrackPointExtension/v1">
            <gpxtpx:hr>144</gpxtpx:hr>
          </gpxtpx:TrackPointExtension>
        </extensions>
      </trkpt>
      <trkpt lat="44.14967" lon="5.26811">
        <ele>1101.8</ele>
        <time>2021-06-12T08:20:23Z</time>
        <extensions>
          <gpxtpx:TrackPointExtension xmlns:gpxtpx="http://www.garmin.com/xmlschemas/TrackPointExtension/v1">
            <gpxtpx:hr>144</gpxtpx:hr>
          </gpxtpx:TrackPointExtension>
        </extensions>
      </trkpt>
      <trkpt lat="44.14967" lon="5.26816">
        <ele>1101.8</ele>
        <time>2021-06-12T08:20:25Z</time>
        <extensions>
          <gpxtpx:TrackPointExtension xmlns:gpxtpx="http://www.garmin.com/xmlschemas/TrackPointExtension/v1">
            <gpxtpx:hr>143</gpxtpx:hr>
          </gpxtpx:TrackPointExtension>
        </extensions>
      </trkpt>
      <trkpt lat="44.14968" lon="5.26818">
        <ele>1102</ele>
        <time>2021-06-12T08:20:26Z</time>
        <extensions>
          <gpxtpx:TrackPointExtension xmlns:gpxtpx="http://www.garmin.com/xmlschemas/TrackPointExtension/v1">
            <gpxtpx:hr>143</gpxtpx:hr>
          </gpxtpx:TrackPointExtension>
        </extensions>
      </trkpt>
      <trkpt lat="44.14968" lon="5.26819">
        <ele>1102</ele>
        <time>2021-06-12T08:20:27Z</time>
        <extensions>
          <gpxtpx:TrackPointExtension xmlns:gpxtpx="http://www.garmin.com/xmlschemas/TrackPointExtension/v1">
            <gpxtpx:hr>143</gpxtpx:hr>
          </gpxtpx:TrackPointExtension>
        </extensions>
      </trkpt>
      <trkpt lat="44.14971" lon="5.26827">
        <ele>1103.2</ele>
        <time>2021-06-12T08:20:31Z</time>
        <extensions>
          <gpxtpx:TrackPointExtension xmlns:gpxtpx="http://www.garmin.com/xmlschemas/TrackPointExtension/v1">
            <gpxtpx:hr>144</gpxtpx:hr>
          </gpxtpx:TrackPointExtension>
        </extensions>
      </trkpt>
      <trkpt lat="44.14974" lon="5.26841">
        <ele>1104.2</ele>
        <time>2021-06-12T08:20:38Z</time>
        <extensions>
          <gpxtpx:TrackPointExtension xmlns:gpxtpx="http://www.garmin.com/xmlschemas/TrackPointExtension/v1">
            <gpxtpx:hr>146</gpxtpx:hr>
          </gpxtpx:TrackPointExtension>
        </extensions>
      </trkpt>
      <trkpt lat="44.14976" lon="5.26843">
        <ele>1104.6</ele>
        <time>2021-06-12T08:20:40Z</time>
        <extensions>
          <gpxtpx:TrackPointExtension xmlns:gpxtpx="http://www.garmin.com/xmlschemas/TrackPointExtension/v1">
            <gpxtpx:hr>146</gpxtpx:hr>
          </gpxtpx:TrackPointExtension>
        </extensions>
      </trkpt>
      <trkpt lat="44.14978" lon="5.26845">
        <ele>1104.8</ele>
        <time>2021-06-12T08:20:42Z</time>
        <extensions>
          <gpxtpx:TrackPointExtension xmlns:gpxtpx="http://www.garmin.com/xmlschemas/TrackPointExtension/v1">
            <gpxtpx:hr>145</gpxtpx:hr>
          </gpxtpx:TrackPointExtension>
        </extensions>
      </trkpt>
      <trkpt lat="44.1498" lon="5.26846">
        <ele>1105</ele>
        <time>2021-06-12T08:20:44Z</time>
        <extensions>
          <gpxtpx:TrackPointExtension xmlns:gpxtpx="http://www.garmin.com/xmlschemas/TrackPointExtension/v1">
            <gpxtpx:hr>145</gpxtpx:hr>
          </gpxtpx:TrackPointExtension>
        </extensions>
      </trkpt>
      <trkpt lat="44.14981" lon="5.26846">
        <ele>1105.2</ele>
        <time>2021-06-12T08:20:45Z</time>
        <extensions>
          <gpxtpx:TrackPointExtension xmlns:gpxtpx="http://www.garmin.com/xmlschemas/TrackPointExtension/v1">
            <gpxtpx:hr>145</gpxtpx:hr>
          </gpxtpx:TrackPointExtension>
        </extensions>
      </trkpt>
      <trkpt lat="44.14982" lon="5.26847">
        <ele>1105.4</ele>
        <time>2021-06-12T08:20:46Z</time>
        <extensions>
          <gpxtpx:TrackPointExtension xmlns:gpxtpx="http://www.garmin.com/xmlschemas/TrackPointExtension/v1">
            <gpxtpx:hr>145</gpxtpx:hr>
          </gpxtpx:TrackPointExtension>
        </extensions>
      </trkpt>
      <trkpt lat="44.14985" lon="5.26849">
        <ele>1105.8</ele>
        <time>2021-06-12T08:20:49Z</time>
        <extensions>
          <gpxtpx:TrackPointExtension xmlns:gpxtpx="http://www.garmin.com/xmlschemas/TrackPointExtension/v1">
            <gpxtpx:hr>145</gpxtpx:hr>
          </gpxtpx:TrackPointExtension>
        </extensions>
      </trkpt>
      <trkpt lat="44.14988" lon="5.26851">
        <ele>1106.4</ele>
        <time>2021-06-12T08:20:52Z</time>
        <extensions>
          <gpxtpx:TrackPointExtension xmlns:gpxtpx="http://www.garmin.com/xmlschemas/TrackPointExtension/v1">
            <gpxtpx:hr>145</gpxtpx:hr>
          </gpxtpx:TrackPointExtension>
        </extensions>
      </trkpt>
      <trkpt lat="44.14991" lon="5.26853">
        <ele>1107</ele>
        <time>2021-06-12T08:20:54Z</time>
        <extensions>
          <gpxtpx:TrackPointExtension xmlns:gpxtpx="http://www.garmin.com/xmlschemas/TrackPointExtension/v1">
            <gpxtpx:hr>145</gpxtpx:hr>
          </gpxtpx:TrackPointExtension>
        </extensions>
      </trkpt>
      <trkpt lat="44.14993" lon="5.26854">
        <ele>1107.4</ele>
        <time>2021-06-12T08:20:56Z</time>
        <extensions>
          <gpxtpx:TrackPointExtension xmlns:gpxtpx="http://www.garmin.com/xmlschemas/TrackPointExtension/v1">
            <gpxtpx:hr>144</gpxtpx:hr>
          </gpxtpx:TrackPointExtension>
        </extensions>
      </trkpt>
      <trkpt lat="44.14995" lon="5.26855">
        <ele>1107.8</ele>
        <time>2021-06-12T08:20:59Z</time>
        <extensions>
          <gpxtpx:TrackPointExtension xmlns:gpxtpx="http://www.garmin.com/xmlschemas/TrackPointExtension/v1">
            <gpxtpx:hr>144</gpxtpx:hr>
          </gpxtpx:TrackPointExtension>
        </extensions>
      </trkpt>
      <trkpt lat="44.14998" lon="5.26856">
        <ele>1108.4</ele>
        <time>2021-06-12T08:21:01Z</time>
        <extensions>
          <gpxtpx:TrackPointExtension xmlns:gpxtpx="http://www.garmin.com/xmlschemas/TrackPointExtension/v1">
            <gpxtpx:hr>146</gpxtpx:hr>
          </gpxtpx:TrackPointExtension>
        </extensions>
      </trkpt>
      <trkpt lat="44.14999" lon="5.26857">
        <ele>1108.6</ele>
        <time>2021-06-12T08:21:02Z</time>
        <extensions>
          <gpxtpx:TrackPointExtension xmlns:gpxtpx="http://www.garmin.com/xmlschemas/TrackPointExtension/v1">
            <gpxtpx:hr>146</gpxtpx:hr>
          </gpxtpx:TrackPointExtension>
        </extensions>
      </trkpt>
      <trkpt lat="44.15002" lon="5.26859">
        <ele>1109.2</ele>
        <time>2021-06-12T08:21:06Z</time>
        <extensions>
          <gpxtpx:TrackPointExtension xmlns:gpxtpx="http://www.garmin.com/xmlschemas/TrackPointExtension/v1">
            <gpxtpx:hr>146</gpxtpx:hr>
          </gpxtpx:TrackPointExtension>
        </extensions>
      </trkpt>
      <trkpt lat="44.15003" lon="5.2686">
        <ele>1109.6</ele>
        <time>2021-06-12T08:21:08Z</time>
        <extensions>
          <gpxtpx:TrackPointExtension xmlns:gpxtpx="http://www.garmin.com/xmlschemas/TrackPointExtension/v1">
            <gpxtpx:hr>146</gpxtpx:hr>
          </gpxtpx:TrackPointExtension>
        </extensions>
      </trkpt>
      <trkpt lat="44.15008" lon="5.26864">
        <ele>1110.6</ele>
        <time>2021-06-12T08:21:13Z</time>
        <extensions>
          <gpxtpx:TrackPointExtension xmlns:gpxtpx="http://www.garmin.com/xmlschemas/TrackPointExtension/v1">
            <gpxtpx:hr>148</gpxtpx:hr>
          </gpxtpx:TrackPointExtension>
        </extensions>
      </trkpt>
      <trkpt lat="44.1501" lon="5.26865">
        <ele>1111</ele>
        <time>2021-06-12T08:21:15Z</time>
        <extensions>
          <gpxtpx:TrackPointExtension xmlns:gpxtpx="http://www.garmin.com/xmlschemas/TrackPointExtension/v1">
            <gpxtpx:hr>148</gpxtpx:hr>
          </gpxtpx:TrackPointExtension>
        </extensions>
      </trkpt>
      <trkpt lat="44.15012" lon="5.26866">
        <ele>1111.4</ele>
        <time>2021-06-12T08:21:17Z</time>
        <extensions>
          <gpxtpx:TrackPointExtension xmlns:gpxtpx="http://www.garmin.com/xmlschemas/TrackPointExtension/v1">
            <gpxtpx:hr>149</gpxtpx:hr>
          </gpxtpx:TrackPointExtension>
        </extensions>
      </trkpt>
      <trkpt lat="44.15013" lon="5.26868">
        <ele>1111.8</ele>
        <time>2021-06-12T08:21:19Z</time>
        <extensions>
          <gpxtpx:TrackPointExtension xmlns:gpxtpx="http://www.garmin.com/xmlschemas/TrackPointExtension/v1">
            <gpxtpx:hr>148</gpxtpx:hr>
          </gpxtpx:TrackPointExtension>
        </extensions>
      </trkpt>
      <trkpt lat="44.15015" lon="5.26869">
        <ele>1112.2</ele>
        <time>2021-06-12T08:21:21Z</time>
        <extensions>
          <gpxtpx:TrackPointExtension xmlns:gpxtpx="http://www.garmin.com/xmlschemas/TrackPointExtension/v1">
            <gpxtpx:hr>149</gpxtpx:hr>
          </gpxtpx:TrackPointExtension>
        </extensions>
      </trkpt>
      <trkpt lat="44.15019" lon="5.26872">
        <ele>1113</ele>
        <time>2021-06-12T08:21:24Z</time>
        <extensions>
          <gpxtpx:TrackPointExtension xmlns:gpxtpx="http://www.garmin.com/xmlschemas/TrackPointExtension/v1">
            <gpxtpx:hr>149</gpxtpx:hr>
          </gpxtpx:TrackPointExtension>
        </extensions>
      </trkpt>
      <trkpt lat="44.1502" lon="5.26873">
        <ele>1113.2</ele>
        <time>2021-06-12T08:21:25Z</time>
        <extensions>
          <gpxtpx:TrackPointExtension xmlns:gpxtpx="http://www.garmin.com/xmlschemas/TrackPointExtension/v1">
            <gpxtpx:hr>150</gpxtpx:hr>
          </gpxtpx:TrackPointExtension>
        </extensions>
      </trkpt>
      <trkpt lat="44.15023" lon="5.26875">
        <ele>1113.4</ele>
        <time>2021-06-12T08:21:27Z</time>
        <extensions>
          <gpxtpx:TrackPointExtension xmlns:gpxtpx="http://www.garmin.com/xmlschemas/TrackPointExtension/v1">
            <gpxtpx:hr>149</gpxtpx:hr>
          </gpxtpx:TrackPointExtension>
        </extensions>
      </trkpt>
      <trkpt lat="44.15026" lon="5.26876">
        <ele>1113.4</ele>
        <time>2021-06-12T08:21:29Z</time>
        <extensions>
          <gpxtpx:TrackPointExtension xmlns:gpxtpx="http://www.garmin.com/xmlschemas/TrackPointExtension/v1">
            <gpxtpx:hr>150</gpxtpx:hr>
          </gpxtpx:TrackPointExtension>
        </extensions>
      </trkpt>
      <trkpt lat="44.1503" lon="5.26877">
        <ele>1114</ele>
        <time>2021-06-12T08:21:32Z</time>
        <extensions>
          <gpxtpx:TrackPointExtension xmlns:gpxtpx="http://www.garmin.com/xmlschemas/TrackPointExtension/v1">
            <gpxtpx:hr>148</gpxtpx:hr>
          </gpxtpx:TrackPointExtension>
        </extensions>
      </trkpt>
      <trkpt lat="44.15031" lon="5.26878">
        <ele>1114.2</ele>
        <time>2021-06-12T08:21:33Z</time>
        <extensions>
          <gpxtpx:TrackPointExtension xmlns:gpxtpx="http://www.garmin.com/xmlschemas/TrackPointExtension/v1">
            <gpxtpx:hr>149</gpxtpx:hr>
          </gpxtpx:TrackPointExtension>
        </extensions>
      </trkpt>
      <trkpt lat="44.15032" lon="5.26879">
        <ele>1114.4</ele>
        <time>2021-06-12T08:21:34Z</time>
        <extensions>
          <gpxtpx:TrackPointExtension xmlns:gpxtpx="http://www.garmin.com/xmlschemas/TrackPointExtension/v1">
            <gpxtpx:hr>148</gpxtpx:hr>
          </gpxtpx:TrackPointExtension>
        </extensions>
      </trkpt>
      <trkpt lat="44.15035" lon="5.26882">
        <ele>1114.6</ele>
        <time>2021-06-12T08:21:36Z</time>
        <extensions>
          <gpxtpx:TrackPointExtension xmlns:gpxtpx="http://www.garmin.com/xmlschemas/TrackPointExtension/v1">
            <gpxtpx:hr>148</gpxtpx:hr>
          </gpxtpx:TrackPointExtension>
        </extensions>
      </trkpt>
      <trkpt lat="44.15037" lon="5.26884">
        <ele>1115.2</ele>
        <time>2021-06-12T08:21:38Z</time>
        <extensions>
          <gpxtpx:TrackPointExtension xmlns:gpxtpx="http://www.garmin.com/xmlschemas/TrackPointExtension/v1">
            <gpxtpx:hr>149</gpxtpx:hr>
          </gpxtpx:TrackPointExtension>
        </extensions>
      </trkpt>
      <trkpt lat="44.15044" lon="5.26893">
        <ele>1116.2</ele>
        <time>2021-06-12T08:21:44Z</time>
        <extensions>
          <gpxtpx:TrackPointExtension xmlns:gpxtpx="http://www.garmin.com/xmlschemas/TrackPointExtension/v1">
            <gpxtpx:hr>149</gpxtpx:hr>
          </gpxtpx:TrackPointExtension>
        </extensions>
      </trkpt>
      <trkpt lat="44.15045" lon="5.26894">
        <ele>1116.4</ele>
        <time>2021-06-12T08:21:45Z</time>
        <extensions>
          <gpxtpx:TrackPointExtension xmlns:gpxtpx="http://www.garmin.com/xmlschemas/TrackPointExtension/v1">
            <gpxtpx:hr>149</gpxtpx:hr>
          </gpxtpx:TrackPointExtension>
        </extensions>
      </trkpt>
      <trkpt lat="44.1505" lon="5.26903">
        <ele>1117.4</ele>
        <time>2021-06-12T08:21:50Z</time>
        <extensions>
          <gpxtpx:TrackPointExtension xmlns:gpxtpx="http://www.garmin.com/xmlschemas/TrackPointExtension/v1">
            <gpxtpx:hr>150</gpxtpx:hr>
          </gpxtpx:TrackPointExtension>
        </extensions>
      </trkpt>
      <trkpt lat="44.15051" lon="5.26906">
        <ele>1117.8</ele>
        <time>2021-06-12T08:21:52Z</time>
        <extensions>
          <gpxtpx:TrackPointExtension xmlns:gpxtpx="http://www.garmin.com/xmlschemas/TrackPointExtension/v1">
            <gpxtpx:hr>151</gpxtpx:hr>
          </gpxtpx:TrackPointExtension>
        </extensions>
      </trkpt>
      <trkpt lat="44.15055" lon="5.26914">
        <ele>1118.4</ele>
        <time>2021-06-12T08:21:57Z</time>
        <extensions>
          <gpxtpx:TrackPointExtension xmlns:gpxtpx="http://www.garmin.com/xmlschemas/TrackPointExtension/v1">
            <gpxtpx:hr>151</gpxtpx:hr>
          </gpxtpx:TrackPointExtension>
        </extensions>
      </trkpt>
      <trkpt lat="44.15055" lon="5.26916">
        <ele>1118.4</ele>
        <time>2021-06-12T08:21:58Z</time>
        <extensions>
          <gpxtpx:TrackPointExtension xmlns:gpxtpx="http://www.garmin.com/xmlschemas/TrackPointExtension/v1">
            <gpxtpx:hr>151</gpxtpx:hr>
          </gpxtpx:TrackPointExtension>
        </extensions>
      </trkpt>
      <trkpt lat="44.15058" lon="5.26922">
        <ele>1119</ele>
        <time>2021-06-12T08:22:02Z</time>
        <extensions>
          <gpxtpx:TrackPointExtension xmlns:gpxtpx="http://www.garmin.com/xmlschemas/TrackPointExtension/v1">
            <gpxtpx:hr>150</gpxtpx:hr>
          </gpxtpx:TrackPointExtension>
        </extensions>
      </trkpt>
      <trkpt lat="44.15061" lon="5.26926">
        <ele>1119.2</ele>
        <time>2021-06-12T08:22:06Z</time>
        <extensions>
          <gpxtpx:TrackPointExtension xmlns:gpxtpx="http://www.garmin.com/xmlschemas/TrackPointExtension/v1">
            <gpxtpx:hr>152</gpxtpx:hr>
          </gpxtpx:TrackPointExtension>
        </extensions>
      </trkpt>
      <trkpt lat="44.15065" lon="5.26928">
        <ele>1119.6</ele>
        <time>2021-06-12T08:22:09Z</time>
        <extensions>
          <gpxtpx:TrackPointExtension xmlns:gpxtpx="http://www.garmin.com/xmlschemas/TrackPointExtension/v1">
            <gpxtpx:hr>152</gpxtpx:hr>
          </gpxtpx:TrackPointExtension>
        </extensions>
      </trkpt>
      <trkpt lat="44.15069" lon="5.26935">
        <ele>1120</ele>
        <time>2021-06-12T08:22:15Z</time>
        <extensions>
          <gpxtpx:TrackPointExtension xmlns:gpxtpx="http://www.garmin.com/xmlschemas/TrackPointExtension/v1">
            <gpxtpx:hr>150</gpxtpx:hr>
          </gpxtpx:TrackPointExtension>
        </extensions>
      </trkpt>
      <trkpt lat="44.15074" lon="5.2694">
        <ele>1120.4</ele>
        <time>2021-06-12T08:22:20Z</time>
        <extensions>
          <gpxtpx:TrackPointExtension xmlns:gpxtpx="http://www.garmin.com/xmlschemas/TrackPointExtension/v1">
            <gpxtpx:hr>148</gpxtpx:hr>
          </gpxtpx:TrackPointExtension>
        </extensions>
      </trkpt>
      <trkpt lat="44.15075" lon="5.26941">
        <ele>1120.6</ele>
        <time>2021-06-12T08:22:21Z</time>
        <extensions>
          <gpxtpx:TrackPointExtension xmlns:gpxtpx="http://www.garmin.com/xmlschemas/TrackPointExtension/v1">
            <gpxtpx:hr>148</gpxtpx:hr>
          </gpxtpx:TrackPointExtension>
        </extensions>
      </trkpt>
      <trkpt lat="44.15075" lon="5.26943">
        <ele>1120.8</ele>
        <time>2021-06-12T08:22:22Z</time>
        <extensions>
          <gpxtpx:TrackPointExtension xmlns:gpxtpx="http://www.garmin.com/xmlschemas/TrackPointExtension/v1">
            <gpxtpx:hr>149</gpxtpx:hr>
          </gpxtpx:TrackPointExtension>
        </extensions>
      </trkpt>
      <trkpt lat="44.15083" lon="5.26952">
        <ele>1121.8</ele>
        <time>2021-06-12T08:22:28Z</time>
        <extensions>
          <gpxtpx:TrackPointExtension xmlns:gpxtpx="http://www.garmin.com/xmlschemas/TrackPointExtension/v1">
            <gpxtpx:hr>148</gpxtpx:hr>
          </gpxtpx:TrackPointExtension>
        </extensions>
      </trkpt>
      <trkpt lat="44.15085" lon="5.26954">
        <ele>1122</ele>
        <time>2021-06-12T08:22:30Z</time>
        <extensions>
          <gpxtpx:TrackPointExtension xmlns:gpxtpx="http://www.garmin.com/xmlschemas/TrackPointExtension/v1">
            <gpxtpx:hr>149</gpxtpx:hr>
          </gpxtpx:TrackPointExtension>
        </extensions>
      </trkpt>
      <trkpt lat="44.15089" lon="5.26962">
        <ele>1122.6</ele>
        <time>2021-06-12T08:22:36Z</time>
        <extensions>
          <gpxtpx:TrackPointExtension xmlns:gpxtpx="http://www.garmin.com/xmlschemas/TrackPointExtension/v1">
            <gpxtpx:hr>150</gpxtpx:hr>
          </gpxtpx:TrackPointExtension>
        </extensions>
      </trkpt>
      <trkpt lat="44.15092" lon="5.26964">
        <ele>1122.8</ele>
        <time>2021-06-12T08:22:38Z</time>
        <extensions>
          <gpxtpx:TrackPointExtension xmlns:gpxtpx="http://www.garmin.com/xmlschemas/TrackPointExtension/v1">
            <gpxtpx:hr>150</gpxtpx:hr>
          </gpxtpx:TrackPointExtension>
        </extensions>
      </trkpt>
      <trkpt lat="44.15096" lon="5.26977">
        <ele>1123.8</ele>
        <time>2021-06-12T08:22:46Z</time>
        <extensions>
          <gpxtpx:TrackPointExtension xmlns:gpxtpx="http://www.garmin.com/xmlschemas/TrackPointExtension/v1">
            <gpxtpx:hr>148</gpxtpx:hr>
          </gpxtpx:TrackPointExtension>
        </extensions>
      </trkpt>
      <trkpt lat="44.15099" lon="5.26982">
        <ele>1124.4</ele>
        <time>2021-06-12T08:22:50Z</time>
        <extensions>
          <gpxtpx:TrackPointExtension xmlns:gpxtpx="http://www.garmin.com/xmlschemas/TrackPointExtension/v1">
            <gpxtpx:hr>146</gpxtpx:hr>
          </gpxtpx:TrackPointExtension>
        </extensions>
      </trkpt>
      <trkpt lat="44.15101" lon="5.26986">
        <ele>1125.2</ele>
        <time>2021-06-12T08:22:53Z</time>
        <extensions>
          <gpxtpx:TrackPointExtension xmlns:gpxtpx="http://www.garmin.com/xmlschemas/TrackPointExtension/v1">
            <gpxtpx:hr>143</gpxtpx:hr>
          </gpxtpx:TrackPointExtension>
        </extensions>
      </trkpt>
      <trkpt lat="44.15102" lon="5.2699">
        <ele>1125.6</ele>
        <time>2021-06-12T08:22:55Z</time>
        <extensions>
          <gpxtpx:TrackPointExtension xmlns:gpxtpx="http://www.garmin.com/xmlschemas/TrackPointExtension/v1">
            <gpxtpx:hr>143</gpxtpx:hr>
          </gpxtpx:TrackPointExtension>
        </extensions>
      </trkpt>
      <trkpt lat="44.15103" lon="5.26995">
        <ele>1126</ele>
        <time>2021-06-12T08:22:58Z</time>
        <extensions>
          <gpxtpx:TrackPointExtension xmlns:gpxtpx="http://www.garmin.com/xmlschemas/TrackPointExtension/v1">
            <gpxtpx:hr>145</gpxtpx:hr>
          </gpxtpx:TrackPointExtension>
        </extensions>
      </trkpt>
      <trkpt lat="44.15103" lon="5.26996">
        <ele>1126.2</ele>
        <time>2021-06-12T08:22:59Z</time>
        <extensions>
          <gpxtpx:TrackPointExtension xmlns:gpxtpx="http://www.garmin.com/xmlschemas/TrackPointExtension/v1">
            <gpxtpx:hr>145</gpxtpx:hr>
          </gpxtpx:TrackPointExtension>
        </extensions>
      </trkpt>
      <trkpt lat="44.15102" lon="5.27002">
        <ele>1126.8</ele>
        <time>2021-06-12T08:23:02Z</time>
        <extensions>
          <gpxtpx:TrackPointExtension xmlns:gpxtpx="http://www.garmin.com/xmlschemas/TrackPointExtension/v1">
            <gpxtpx:hr>146</gpxtpx:hr>
          </gpxtpx:TrackPointExtension>
        </extensions>
      </trkpt>
      <trkpt lat="44.15102" lon="5.27012">
        <ele>1127.4</ele>
        <time>2021-06-12T08:23:08Z</time>
        <extensions>
          <gpxtpx:TrackPointExtension xmlns:gpxtpx="http://www.garmin.com/xmlschemas/TrackPointExtension/v1">
            <gpxtpx:hr>146</gpxtpx:hr>
          </gpxtpx:TrackPointExtension>
        </extensions>
      </trkpt>
      <trkpt lat="44.15101" lon="5.27016">
        <ele>1128.2</ele>
        <time>2021-06-12T08:23:11Z</time>
        <extensions>
          <gpxtpx:TrackPointExtension xmlns:gpxtpx="http://www.garmin.com/xmlschemas/TrackPointExtension/v1">
            <gpxtpx:hr>147</gpxtpx:hr>
          </gpxtpx:TrackPointExtension>
        </extensions>
      </trkpt>
      <trkpt lat="44.15102" lon="5.27019">
        <ele>1128.4</ele>
        <time>2021-06-12T08:23:13Z</time>
        <extensions>
          <gpxtpx:TrackPointExtension xmlns:gpxtpx="http://www.garmin.com/xmlschemas/TrackPointExtension/v1">
            <gpxtpx:hr>146</gpxtpx:hr>
          </gpxtpx:TrackPointExtension>
        </extensions>
      </trkpt>
      <trkpt lat="44.15101" lon="5.27023">
        <ele>1129</ele>
        <time>2021-06-12T08:23:15Z</time>
        <extensions>
          <gpxtpx:TrackPointExtension xmlns:gpxtpx="http://www.garmin.com/xmlschemas/TrackPointExtension/v1">
            <gpxtpx:hr>147</gpxtpx:hr>
          </gpxtpx:TrackPointExtension>
        </extensions>
      </trkpt>
      <trkpt lat="44.15101" lon="5.27026">
        <ele>1129.4</ele>
        <time>2021-06-12T08:23:17Z</time>
        <extensions>
          <gpxtpx:TrackPointExtension xmlns:gpxtpx="http://www.garmin.com/xmlschemas/TrackPointExtension/v1">
            <gpxtpx:hr>148</gpxtpx:hr>
          </gpxtpx:TrackPointExtension>
        </extensions>
      </trkpt>
      <trkpt lat="44.15101" lon="5.27028">
        <ele>1129.6</ele>
        <time>2021-06-12T08:23:18Z</time>
        <extensions>
          <gpxtpx:TrackPointExtension xmlns:gpxtpx="http://www.garmin.com/xmlschemas/TrackPointExtension/v1">
            <gpxtpx:hr>148</gpxtpx:hr>
          </gpxtpx:TrackPointExtension>
        </extensions>
      </trkpt>
      <trkpt lat="44.15102" lon="5.2704">
        <ele>1130.8</ele>
        <time>2021-06-12T08:23:25Z</time>
        <extensions>
          <gpxtpx:TrackPointExtension xmlns:gpxtpx="http://www.garmin.com/xmlschemas/TrackPointExtension/v1">
            <gpxtpx:hr>147</gpxtpx:hr>
          </gpxtpx:TrackPointExtension>
        </extensions>
      </trkpt>
      <trkpt lat="44.15106" lon="5.27051">
        <ele>1131.8</ele>
        <time>2021-06-12T08:23:31Z</time>
        <extensions>
          <gpxtpx:TrackPointExtension xmlns:gpxtpx="http://www.garmin.com/xmlschemas/TrackPointExtension/v1">
            <gpxtpx:hr>146</gpxtpx:hr>
          </gpxtpx:TrackPointExtension>
        </extensions>
      </trkpt>
      <trkpt lat="44.15108" lon="5.2706">
        <ele>1132.8</ele>
        <time>2021-06-12T08:23:37Z</time>
        <extensions>
          <gpxtpx:TrackPointExtension xmlns:gpxtpx="http://www.garmin.com/xmlschemas/TrackPointExtension/v1">
            <gpxtpx:hr>147</gpxtpx:hr>
          </gpxtpx:TrackPointExtension>
        </extensions>
      </trkpt>
      <trkpt lat="44.15108" lon="5.27061">
        <ele>1133</ele>
        <time>2021-06-12T08:23:38Z</time>
        <extensions>
          <gpxtpx:TrackPointExtension xmlns:gpxtpx="http://www.garmin.com/xmlschemas/TrackPointExtension/v1">
            <gpxtpx:hr>146</gpxtpx:hr>
          </gpxtpx:TrackPointExtension>
        </extensions>
      </trkpt>
      <trkpt lat="44.15109" lon="5.27065">
        <ele>1133.6</ele>
        <time>2021-06-12T08:23:41Z</time>
        <extensions>
          <gpxtpx:TrackPointExtension xmlns:gpxtpx="http://www.garmin.com/xmlschemas/TrackPointExtension/v1">
            <gpxtpx:hr>147</gpxtpx:hr>
          </gpxtpx:TrackPointExtension>
        </extensions>
      </trkpt>
      <trkpt lat="44.1511" lon="5.2707">
        <ele>1134</ele>
        <time>2021-06-12T08:23:44Z</time>
        <extensions>
          <gpxtpx:TrackPointExtension xmlns:gpxtpx="http://www.garmin.com/xmlschemas/TrackPointExtension/v1">
            <gpxtpx:hr>147</gpxtpx:hr>
          </gpxtpx:TrackPointExtension>
        </extensions>
      </trkpt>
      <trkpt lat="44.15111" lon="5.27071">
        <ele>1134.2</ele>
        <time>2021-06-12T08:23:45Z</time>
        <extensions>
          <gpxtpx:TrackPointExtension xmlns:gpxtpx="http://www.garmin.com/xmlschemas/TrackPointExtension/v1">
            <gpxtpx:hr>147</gpxtpx:hr>
          </gpxtpx:TrackPointExtension>
        </extensions>
      </trkpt>
      <trkpt lat="44.15113" lon="5.27078">
        <ele>1135</ele>
        <time>2021-06-12T08:23:50Z</time>
        <extensions>
          <gpxtpx:TrackPointExtension xmlns:gpxtpx="http://www.garmin.com/xmlschemas/TrackPointExtension/v1">
            <gpxtpx:hr>148</gpxtpx:hr>
          </gpxtpx:TrackPointExtension>
        </extensions>
      </trkpt>
      <trkpt lat="44.15116" lon="5.27082">
        <ele>1135.8</ele>
        <time>2021-06-12T08:23:54Z</time>
        <extensions>
          <gpxtpx:TrackPointExtension xmlns:gpxtpx="http://www.garmin.com/xmlschemas/TrackPointExtension/v1">
            <gpxtpx:hr>145</gpxtpx:hr>
          </gpxtpx:TrackPointExtension>
        </extensions>
      </trkpt>
      <trkpt lat="44.15117" lon="5.27084">
        <ele>1136</ele>
        <time>2021-06-12T08:23:55Z</time>
        <extensions>
          <gpxtpx:TrackPointExtension xmlns:gpxtpx="http://www.garmin.com/xmlschemas/TrackPointExtension/v1">
            <gpxtpx:hr>145</gpxtpx:hr>
          </gpxtpx:TrackPointExtension>
        </extensions>
      </trkpt>
      <trkpt lat="44.15118" lon="5.27087">
        <ele>1136.4</ele>
        <time>2021-06-12T08:23:57Z</time>
        <extensions>
          <gpxtpx:TrackPointExtension xmlns:gpxtpx="http://www.garmin.com/xmlschemas/TrackPointExtension/v1">
            <gpxtpx:hr>144</gpxtpx:hr>
          </gpxtpx:TrackPointExtension>
        </extensions>
      </trkpt>
      <trkpt lat="44.15123" lon="5.27091">
        <ele>1137.2</ele>
        <time>2021-06-12T08:24:01Z</time>
        <extensions>
          <gpxtpx:TrackPointExtension xmlns:gpxtpx="http://www.garmin.com/xmlschemas/TrackPointExtension/v1">
            <gpxtpx:hr>145</gpxtpx:hr>
          </gpxtpx:TrackPointExtension>
        </extensions>
      </trkpt>
      <trkpt lat="44.15123" lon="5.27093">
        <ele>1137.6</ele>
        <time>2021-06-12T08:24:03Z</time>
        <extensions>
          <gpxtpx:TrackPointExtension xmlns:gpxtpx="http://www.garmin.com/xmlschemas/TrackPointExtension/v1">
            <gpxtpx:hr>146</gpxtpx:hr>
          </gpxtpx:TrackPointExtension>
        </extensions>
      </trkpt>
      <trkpt lat="44.15124" lon="5.27098">
        <ele>1138.2</ele>
        <time>2021-06-12T08:24:07Z</time>
        <extensions>
          <gpxtpx:TrackPointExtension xmlns:gpxtpx="http://www.garmin.com/xmlschemas/TrackPointExtension/v1">
            <gpxtpx:hr>147</gpxtpx:hr>
          </gpxtpx:TrackPointExtension>
        </extensions>
      </trkpt>
      <trkpt lat="44.15124" lon="5.27099">
        <ele>1138.4</ele>
        <time>2021-06-12T08:24:08Z</time>
        <extensions>
          <gpxtpx:TrackPointExtension xmlns:gpxtpx="http://www.garmin.com/xmlschemas/TrackPointExtension/v1">
            <gpxtpx:hr>148</gpxtpx:hr>
          </gpxtpx:TrackPointExtension>
        </extensions>
      </trkpt>
      <trkpt lat="44.15129" lon="5.27108">
        <ele>1139.2</ele>
        <time>2021-06-12T08:24:14Z</time>
        <extensions>
          <gpxtpx:TrackPointExtension xmlns:gpxtpx="http://www.garmin.com/xmlschemas/TrackPointExtension/v1">
            <gpxtpx:hr>149</gpxtpx:hr>
          </gpxtpx:TrackPointExtension>
        </extensions>
      </trkpt>
      <trkpt lat="44.15131" lon="5.27111">
        <ele>1139.6</ele>
        <time>2021-06-12T08:24:16Z</time>
        <extensions>
          <gpxtpx:TrackPointExtension xmlns:gpxtpx="http://www.garmin.com/xmlschemas/TrackPointExtension/v1">
            <gpxtpx:hr>148</gpxtpx:hr>
          </gpxtpx:TrackPointExtension>
        </extensions>
      </trkpt>
      <trkpt lat="44.15133" lon="5.2712">
        <ele>1140.6</ele>
        <time>2021-06-12T08:24:21Z</time>
        <extensions>
          <gpxtpx:TrackPointExtension xmlns:gpxtpx="http://www.garmin.com/xmlschemas/TrackPointExtension/v1">
            <gpxtpx:hr>149</gpxtpx:hr>
          </gpxtpx:TrackPointExtension>
        </extensions>
      </trkpt>
      <trkpt lat="44.15136" lon="5.27127">
        <ele>1141.4</ele>
        <time>2021-06-12T08:24:26Z</time>
        <extensions>
          <gpxtpx:TrackPointExtension xmlns:gpxtpx="http://www.garmin.com/xmlschemas/TrackPointExtension/v1">
            <gpxtpx:hr>149</gpxtpx:hr>
          </gpxtpx:TrackPointExtension>
        </extensions>
      </trkpt>
      <trkpt lat="44.15137" lon="5.2713">
        <ele>1141.8</ele>
        <time>2021-06-12T08:24:29Z</time>
        <extensions>
          <gpxtpx:TrackPointExtension xmlns:gpxtpx="http://www.garmin.com/xmlschemas/TrackPointExtension/v1">
            <gpxtpx:hr>149</gpxtpx:hr>
          </gpxtpx:TrackPointExtension>
        </extensions>
      </trkpt>
      <trkpt lat="44.15137" lon="5.27133">
        <ele>1142</ele>
        <time>2021-06-12T08:24:31Z</time>
        <extensions>
          <gpxtpx:TrackPointExtension xmlns:gpxtpx="http://www.garmin.com/xmlschemas/TrackPointExtension/v1">
            <gpxtpx:hr>149</gpxtpx:hr>
          </gpxtpx:TrackPointExtension>
        </extensions>
      </trkpt>
      <trkpt lat="44.15138" lon="5.2714">
        <ele>1142.6</ele>
        <time>2021-06-12T08:24:36Z</time>
        <extensions>
          <gpxtpx:TrackPointExtension xmlns:gpxtpx="http://www.garmin.com/xmlschemas/TrackPointExtension/v1">
            <gpxtpx:hr>148</gpxtpx:hr>
          </gpxtpx:TrackPointExtension>
        </extensions>
      </trkpt>
      <trkpt lat="44.15139" lon="5.27141">
        <ele>1142.8</ele>
        <time>2021-06-12T08:24:37Z</time>
        <extensions>
          <gpxtpx:TrackPointExtension xmlns:gpxtpx="http://www.garmin.com/xmlschemas/TrackPointExtension/v1">
            <gpxtpx:hr>148</gpxtpx:hr>
          </gpxtpx:TrackPointExtension>
        </extensions>
      </trkpt>
      <trkpt lat="44.15144" lon="5.27149">
        <ele>1143.8</ele>
        <time>2021-06-12T08:24:43Z</time>
        <extensions>
          <gpxtpx:TrackPointExtension xmlns:gpxtpx="http://www.garmin.com/xmlschemas/TrackPointExtension/v1">
            <gpxtpx:hr>148</gpxtpx:hr>
          </gpxtpx:TrackPointExtension>
        </extensions>
      </trkpt>
      <trkpt lat="44.15145" lon="5.2715">
        <ele>1143.8</ele>
        <time>2021-06-12T08:24:44Z</time>
        <extensions>
          <gpxtpx:TrackPointExtension xmlns:gpxtpx="http://www.garmin.com/xmlschemas/TrackPointExtension/v1">
            <gpxtpx:hr>148</gpxtpx:hr>
          </gpxtpx:TrackPointExtension>
        </extensions>
      </trkpt>
      <trkpt lat="44.15149" lon="5.27154">
        <ele>1144.2</ele>
        <time>2021-06-12T08:24:48Z</time>
        <extensions>
          <gpxtpx:TrackPointExtension xmlns:gpxtpx="http://www.garmin.com/xmlschemas/TrackPointExtension/v1">
            <gpxtpx:hr>147</gpxtpx:hr>
          </gpxtpx:TrackPointExtension>
        </extensions>
      </trkpt>
      <trkpt lat="44.15152" lon="5.27159">
        <ele>1144.8</ele>
        <time>2021-06-12T08:24:51Z</time>
        <extensions>
          <gpxtpx:TrackPointExtension xmlns:gpxtpx="http://www.garmin.com/xmlschemas/TrackPointExtension/v1">
            <gpxtpx:hr>146</gpxtpx:hr>
          </gpxtpx:TrackPointExtension>
        </extensions>
      </trkpt>
      <trkpt lat="44.15154" lon="5.27161">
        <ele>1145</ele>
        <time>2021-06-12T08:24:53Z</time>
        <extensions>
          <gpxtpx:TrackPointExtension xmlns:gpxtpx="http://www.garmin.com/xmlschemas/TrackPointExtension/v1">
            <gpxtpx:hr>145</gpxtpx:hr>
          </gpxtpx:TrackPointExtension>
        </extensions>
      </trkpt>
      <trkpt lat="44.15156" lon="5.27163">
        <ele>1145.2</ele>
        <time>2021-06-12T08:24:55Z</time>
        <extensions>
          <gpxtpx:TrackPointExtension xmlns:gpxtpx="http://www.garmin.com/xmlschemas/TrackPointExtension/v1">
            <gpxtpx:hr>145</gpxtpx:hr>
          </gpxtpx:TrackPointExtension>
        </extensions>
      </trkpt>
      <trkpt lat="44.15157" lon="5.27166">
        <ele>1145.2</ele>
        <time>2021-06-12T08:24:57Z</time>
        <extensions>
          <gpxtpx:TrackPointExtension xmlns:gpxtpx="http://www.garmin.com/xmlschemas/TrackPointExtension/v1">
            <gpxtpx:hr>145</gpxtpx:hr>
          </gpxtpx:TrackPointExtension>
        </extensions>
      </trkpt>
      <trkpt lat="44.15161" lon="5.27174">
        <ele>1145.8</ele>
        <time>2021-06-12T08:25:02Z</time>
        <extensions>
          <gpxtpx:TrackPointExtension xmlns:gpxtpx="http://www.garmin.com/xmlschemas/TrackPointExtension/v1">
            <gpxtpx:hr>144</gpxtpx:hr>
          </gpxtpx:TrackPointExtension>
        </extensions>
      </trkpt>
      <trkpt lat="44.15163" lon="5.27176">
        <ele>1146.2</ele>
        <time>2021-06-12T08:25:03Z</time>
        <extensions>
          <gpxtpx:TrackPointExtension xmlns:gpxtpx="http://www.garmin.com/xmlschemas/TrackPointExtension/v1">
            <gpxtpx:hr>144</gpxtpx:hr>
          </gpxtpx:TrackPointExtension>
        </extensions>
      </trkpt>
      <trkpt lat="44.15168" lon="5.27184">
        <ele>1146.8</ele>
        <time>2021-06-12T08:25:08Z</time>
        <extensions>
          <gpxtpx:TrackPointExtension xmlns:gpxtpx="http://www.garmin.com/xmlschemas/TrackPointExtension/v1">
            <gpxtpx:hr>144</gpxtpx:hr>
          </gpxtpx:TrackPointExtension>
        </extensions>
      </trkpt>
      <trkpt lat="44.15169" lon="5.27189">
        <ele>1147</ele>
        <time>2021-06-12T08:25:11Z</time>
        <extensions>
          <gpxtpx:TrackPointExtension xmlns:gpxtpx="http://www.garmin.com/xmlschemas/TrackPointExtension/v1">
            <gpxtpx:hr>143</gpxtpx:hr>
          </gpxtpx:TrackPointExtension>
        </extensions>
      </trkpt>
      <trkpt lat="44.15169" lon="5.27191">
        <ele>1147.2</ele>
        <time>2021-06-12T08:25:12Z</time>
        <extensions>
          <gpxtpx:TrackPointExtension xmlns:gpxtpx="http://www.garmin.com/xmlschemas/TrackPointExtension/v1">
            <gpxtpx:hr>142</gpxtpx:hr>
          </gpxtpx:TrackPointExtension>
        </extensions>
      </trkpt>
      <trkpt lat="44.15169" lon="5.27196">
        <ele>1147.6</ele>
        <time>2021-06-12T08:25:15Z</time>
        <extensions>
          <gpxtpx:TrackPointExtension xmlns:gpxtpx="http://www.garmin.com/xmlschemas/TrackPointExtension/v1">
            <gpxtpx:hr>141</gpxtpx:hr>
          </gpxtpx:TrackPointExtension>
        </extensions>
      </trkpt>
      <trkpt lat="44.1517" lon="5.272">
        <ele>1147.8</ele>
        <time>2021-06-12T08:25:18Z</time>
        <extensions>
          <gpxtpx:TrackPointExtension xmlns:gpxtpx="http://www.garmin.com/xmlschemas/TrackPointExtension/v1">
            <gpxtpx:hr>140</gpxtpx:hr>
          </gpxtpx:TrackPointExtension>
        </extensions>
      </trkpt>
      <trkpt lat="44.15174" lon="5.27207">
        <ele>1148.2</ele>
        <time>2021-06-12T08:25:21Z</time>
        <extensions>
          <gpxtpx:TrackPointExtension xmlns:gpxtpx="http://www.garmin.com/xmlschemas/TrackPointExtension/v1">
            <gpxtpx:hr>140</gpxtpx:hr>
          </gpxtpx:TrackPointExtension>
        </extensions>
      </trkpt>
      <trkpt lat="44.15178" lon="5.27216">
        <ele>1149</ele>
        <time>2021-06-12T08:25:26Z</time>
        <extensions>
          <gpxtpx:TrackPointExtension xmlns:gpxtpx="http://www.garmin.com/xmlschemas/TrackPointExtension/v1">
            <gpxtpx:hr>139</gpxtpx:hr>
          </gpxtpx:TrackPointExtension>
        </extensions>
      </trkpt>
      <trkpt lat="44.1518" lon="5.27219">
        <ele>1149.2</ele>
        <time>2021-06-12T08:25:28Z</time>
        <extensions>
          <gpxtpx:TrackPointExtension xmlns:gpxtpx="http://www.garmin.com/xmlschemas/TrackPointExtension/v1">
            <gpxtpx:hr>138</gpxtpx:hr>
          </gpxtpx:TrackPointExtension>
        </extensions>
      </trkpt>
      <trkpt lat="44.15183" lon="5.27229">
        <ele>1149.6</ele>
        <time>2021-06-12T08:25:33Z</time>
        <extensions>
          <gpxtpx:TrackPointExtension xmlns:gpxtpx="http://www.garmin.com/xmlschemas/TrackPointExtension/v1">
            <gpxtpx:hr>139</gpxtpx:hr>
          </gpxtpx:TrackPointExtension>
        </extensions>
      </trkpt>
      <trkpt lat="44.15185" lon="5.27238">
        <ele>1150.4</ele>
        <time>2021-06-12T08:25:38Z</time>
        <extensions>
          <gpxtpx:TrackPointExtension xmlns:gpxtpx="http://www.garmin.com/xmlschemas/TrackPointExtension/v1">
            <gpxtpx:hr>138</gpxtpx:hr>
          </gpxtpx:TrackPointExtension>
        </extensions>
      </trkpt>
      <trkpt lat="44.15186" lon="5.27244">
        <ele>1150.6</ele>
        <time>2021-06-12T08:25:41Z</time>
        <extensions>
          <gpxtpx:TrackPointExtension xmlns:gpxtpx="http://www.garmin.com/xmlschemas/TrackPointExtension/v1">
            <gpxtpx:hr>138</gpxtpx:hr>
          </gpxtpx:TrackPointExtension>
        </extensions>
      </trkpt>
      <trkpt lat="44.15192" lon="5.2725">
        <ele>1151.2</ele>
        <time>2021-06-12T08:25:45Z</time>
        <extensions>
          <gpxtpx:TrackPointExtension xmlns:gpxtpx="http://www.garmin.com/xmlschemas/TrackPointExtension/v1">
            <gpxtpx:hr>138</gpxtpx:hr>
          </gpxtpx:TrackPointExtension>
        </extensions>
      </trkpt>
      <trkpt lat="44.15194" lon="5.27254">
        <ele>1151.6</ele>
        <time>2021-06-12T08:25:47Z</time>
        <extensions>
          <gpxtpx:TrackPointExtension xmlns:gpxtpx="http://www.garmin.com/xmlschemas/TrackPointExtension/v1">
            <gpxtpx:hr>138</gpxtpx:hr>
          </gpxtpx:TrackPointExtension>
        </extensions>
      </trkpt>
      <trkpt lat="44.15201" lon="5.27262">
        <ele>1152.6</ele>
        <time>2021-06-12T08:25:54Z</time>
        <extensions>
          <gpxtpx:TrackPointExtension xmlns:gpxtpx="http://www.garmin.com/xmlschemas/TrackPointExtension/v1">
            <gpxtpx:hr>138</gpxtpx:hr>
          </gpxtpx:TrackPointExtension>
        </extensions>
      </trkpt>
      <trkpt lat="44.15204" lon="5.27265">
        <ele>1152.8</ele>
        <time>2021-06-12T08:25:57Z</time>
        <extensions>
          <gpxtpx:TrackPointExtension xmlns:gpxtpx="http://www.garmin.com/xmlschemas/TrackPointExtension/v1">
            <gpxtpx:hr>138</gpxtpx:hr>
          </gpxtpx:TrackPointExtension>
        </extensions>
      </trkpt>
      <trkpt lat="44.15208" lon="5.27267">
        <ele>1153.6</ele>
        <time>2021-06-12T08:26:02Z</time>
        <extensions>
          <gpxtpx:TrackPointExtension xmlns:gpxtpx="http://www.garmin.com/xmlschemas/TrackPointExtension/v1">
            <gpxtpx:hr>138</gpxtpx:hr>
          </gpxtpx:TrackPointExtension>
        </extensions>
      </trkpt>
      <trkpt lat="44.1521" lon="5.2727">
        <ele>1154</ele>
        <time>2021-06-12T08:26:04Z</time>
        <extensions>
          <gpxtpx:TrackPointExtension xmlns:gpxtpx="http://www.garmin.com/xmlschemas/TrackPointExtension/v1">
            <gpxtpx:hr>139</gpxtpx:hr>
          </gpxtpx:TrackPointExtension>
        </extensions>
      </trkpt>
      <trkpt lat="44.15213" lon="5.27274">
        <ele>1154.4</ele>
        <time>2021-06-12T08:26:08Z</time>
        <extensions>
          <gpxtpx:TrackPointExtension xmlns:gpxtpx="http://www.garmin.com/xmlschemas/TrackPointExtension/v1">
            <gpxtpx:hr>139</gpxtpx:hr>
          </gpxtpx:TrackPointExtension>
        </extensions>
      </trkpt>
      <trkpt lat="44.15215" lon="5.27275">
        <ele>1154.8</ele>
        <time>2021-06-12T08:26:10Z</time>
        <extensions>
          <gpxtpx:TrackPointExtension xmlns:gpxtpx="http://www.garmin.com/xmlschemas/TrackPointExtension/v1">
            <gpxtpx:hr>139</gpxtpx:hr>
          </gpxtpx:TrackPointExtension>
        </extensions>
      </trkpt>
      <trkpt lat="44.1522" lon="5.27283">
        <ele>1155.8</ele>
        <time>2021-06-12T08:26:17Z</time>
        <extensions>
          <gpxtpx:TrackPointExtension xmlns:gpxtpx="http://www.garmin.com/xmlschemas/TrackPointExtension/v1">
            <gpxtpx:hr>139</gpxtpx:hr>
          </gpxtpx:TrackPointExtension>
        </extensions>
      </trkpt>
      <trkpt lat="44.15221" lon="5.27285">
        <ele>1156</ele>
        <time>2021-06-12T08:26:19Z</time>
        <extensions>
          <gpxtpx:TrackPointExtension xmlns:gpxtpx="http://www.garmin.com/xmlschemas/TrackPointExtension/v1">
            <gpxtpx:hr>138</gpxtpx:hr>
          </gpxtpx:TrackPointExtension>
        </extensions>
      </trkpt>
      <trkpt lat="44.15225" lon="5.2729">
        <ele>1156.8</ele>
        <time>2021-06-12T08:26:24Z</time>
        <extensions>
          <gpxtpx:TrackPointExtension xmlns:gpxtpx="http://www.garmin.com/xmlschemas/TrackPointExtension/v1">
            <gpxtpx:hr>140</gpxtpx:hr>
          </gpxtpx:TrackPointExtension>
        </extensions>
      </trkpt>
      <trkpt lat="44.15229" lon="5.27296">
        <ele>1157.8</ele>
        <time>2021-06-12T08:26:30Z</time>
        <extensions>
          <gpxtpx:TrackPointExtension xmlns:gpxtpx="http://www.garmin.com/xmlschemas/TrackPointExtension/v1">
            <gpxtpx:hr>140</gpxtpx:hr>
          </gpxtpx:TrackPointExtension>
        </extensions>
      </trkpt>
      <trkpt lat="44.1523" lon="5.27296">
        <ele>1158</ele>
        <time>2021-06-12T08:26:31Z</time>
        <extensions>
          <gpxtpx:TrackPointExtension xmlns:gpxtpx="http://www.garmin.com/xmlschemas/TrackPointExtension/v1">
            <gpxtpx:hr>140</gpxtpx:hr>
          </gpxtpx:TrackPointExtension>
        </extensions>
      </trkpt>
      <trkpt lat="44.15234" lon="5.27303">
        <ele>1159</ele>
        <time>2021-06-12T08:26:37Z</time>
        <extensions>
          <gpxtpx:TrackPointExtension xmlns:gpxtpx="http://www.garmin.com/xmlschemas/TrackPointExtension/v1">
            <gpxtpx:hr>139</gpxtpx:hr>
          </gpxtpx:TrackPointExtension>
        </extensions>
      </trkpt>
      <trkpt lat="44.15239" lon="5.27306">
        <ele>1159.8</ele>
        <time>2021-06-12T08:26:41Z</time>
        <extensions>
          <gpxtpx:TrackPointExtension xmlns:gpxtpx="http://www.garmin.com/xmlschemas/TrackPointExtension/v1">
            <gpxtpx:hr>141</gpxtpx:hr>
          </gpxtpx:TrackPointExtension>
        </extensions>
      </trkpt>
      <trkpt lat="44.15241" lon="5.27307">
        <ele>1160.2</ele>
        <time>2021-06-12T08:26:43Z</time>
        <extensions>
          <gpxtpx:TrackPointExtension xmlns:gpxtpx="http://www.garmin.com/xmlschemas/TrackPointExtension/v1">
            <gpxtpx:hr>142</gpxtpx:hr>
          </gpxtpx:TrackPointExtension>
        </extensions>
      </trkpt>
      <trkpt lat="44.15244" lon="5.27311">
        <ele>1160.6</ele>
        <time>2021-06-12T08:26:46Z</time>
        <extensions>
          <gpxtpx:TrackPointExtension xmlns:gpxtpx="http://www.garmin.com/xmlschemas/TrackPointExtension/v1">
            <gpxtpx:hr>143</gpxtpx:hr>
          </gpxtpx:TrackPointExtension>
        </extensions>
      </trkpt>
      <trkpt lat="44.15245" lon="5.27314">
        <ele>1161.2</ele>
        <time>2021-06-12T08:26:49Z</time>
        <extensions>
          <gpxtpx:TrackPointExtension xmlns:gpxtpx="http://www.garmin.com/xmlschemas/TrackPointExtension/v1">
            <gpxtpx:hr>144</gpxtpx:hr>
          </gpxtpx:TrackPointExtension>
        </extensions>
      </trkpt>
      <trkpt lat="44.15246" lon="5.27317">
        <ele>1161.4</ele>
        <time>2021-06-12T08:26:51Z</time>
        <extensions>
          <gpxtpx:TrackPointExtension xmlns:gpxtpx="http://www.garmin.com/xmlschemas/TrackPointExtension/v1">
            <gpxtpx:hr>144</gpxtpx:hr>
          </gpxtpx:TrackPointExtension>
        </extensions>
      </trkpt>
      <trkpt lat="44.15252" lon="5.27324">
        <ele>1162.2</ele>
        <time>2021-06-12T08:26:57Z</time>
        <extensions>
          <gpxtpx:TrackPointExtension xmlns:gpxtpx="http://www.garmin.com/xmlschemas/TrackPointExtension/v1">
            <gpxtpx:hr>144</gpxtpx:hr>
          </gpxtpx:TrackPointExtension>
        </extensions>
      </trkpt>
      <trkpt lat="44.15258" lon="5.27338">
        <ele>1163.2</ele>
        <time>2021-06-12T08:27:05Z</time>
        <extensions>
          <gpxtpx:TrackPointExtension xmlns:gpxtpx="http://www.garmin.com/xmlschemas/TrackPointExtension/v1">
            <gpxtpx:hr>143</gpxtpx:hr>
          </gpxtpx:TrackPointExtension>
        </extensions>
      </trkpt>
      <trkpt lat="44.15262" lon="5.27344">
        <ele>1163.6</ele>
        <time>2021-06-12T08:27:09Z</time>
        <extensions>
          <gpxtpx:TrackPointExtension xmlns:gpxtpx="http://www.garmin.com/xmlschemas/TrackPointExtension/v1">
            <gpxtpx:hr>143</gpxtpx:hr>
          </gpxtpx:TrackPointExtension>
        </extensions>
      </trkpt>
      <trkpt lat="44.15266" lon="5.27349">
        <ele>1164.2</ele>
        <time>2021-06-12T08:27:14Z</time>
        <extensions>
          <gpxtpx:TrackPointExtension xmlns:gpxtpx="http://www.garmin.com/xmlschemas/TrackPointExtension/v1">
            <gpxtpx:hr>140</gpxtpx:hr>
          </gpxtpx:TrackPointExtension>
        </extensions>
      </trkpt>
      <trkpt lat="44.15267" lon="5.2735">
        <ele>1164.2</ele>
        <time>2021-06-12T08:27:15Z</time>
        <extensions>
          <gpxtpx:TrackPointExtension xmlns:gpxtpx="http://www.garmin.com/xmlschemas/TrackPointExtension/v1">
            <gpxtpx:hr>140</gpxtpx:hr>
          </gpxtpx:TrackPointExtension>
        </extensions>
      </trkpt>
      <trkpt lat="44.15273" lon="5.27358">
        <ele>1165</ele>
        <time>2021-06-12T08:27:22Z</time>
        <extensions>
          <gpxtpx:TrackPointExtension xmlns:gpxtpx="http://www.garmin.com/xmlschemas/TrackPointExtension/v1">
            <gpxtpx:hr>140</gpxtpx:hr>
          </gpxtpx:TrackPointExtension>
        </extensions>
      </trkpt>
      <trkpt lat="44.15274" lon="5.27362">
        <ele>1165.4</ele>
        <time>2021-06-12T08:27:24Z</time>
        <extensions>
          <gpxtpx:TrackPointExtension xmlns:gpxtpx="http://www.garmin.com/xmlschemas/TrackPointExtension/v1">
            <gpxtpx:hr>140</gpxtpx:hr>
          </gpxtpx:TrackPointExtension>
        </extensions>
      </trkpt>
      <trkpt lat="44.15274" lon="5.27363">
        <ele>1165.4</ele>
        <time>2021-06-12T08:27:25Z</time>
        <extensions>
          <gpxtpx:TrackPointExtension xmlns:gpxtpx="http://www.garmin.com/xmlschemas/TrackPointExtension/v1">
            <gpxtpx:hr>140</gpxtpx:hr>
          </gpxtpx:TrackPointExtension>
        </extensions>
      </trkpt>
      <trkpt lat="44.15276" lon="5.27365">
        <ele>1165.6</ele>
        <time>2021-06-12T08:27:27Z</time>
        <extensions>
          <gpxtpx:TrackPointExtension xmlns:gpxtpx="http://www.garmin.com/xmlschemas/TrackPointExtension/v1">
            <gpxtpx:hr>141</gpxtpx:hr>
          </gpxtpx:TrackPointExtension>
        </extensions>
      </trkpt>
      <trkpt lat="44.15281" lon="5.27373">
        <ele>1166.4</ele>
        <time>2021-06-12T08:27:33Z</time>
        <extensions>
          <gpxtpx:TrackPointExtension xmlns:gpxtpx="http://www.garmin.com/xmlschemas/TrackPointExtension/v1">
            <gpxtpx:hr>139</gpxtpx:hr>
          </gpxtpx:TrackPointExtension>
        </extensions>
      </trkpt>
      <trkpt lat="44.15288" lon="5.27381">
        <ele>1167.4</ele>
        <time>2021-06-12T08:27:41Z</time>
        <extensions>
          <gpxtpx:TrackPointExtension xmlns:gpxtpx="http://www.garmin.com/xmlschemas/TrackPointExtension/v1">
            <gpxtpx:hr>139</gpxtpx:hr>
          </gpxtpx:TrackPointExtension>
        </extensions>
      </trkpt>
      <trkpt lat="44.15292" lon="5.27395">
        <ele>1168.4</ele>
        <time>2021-06-12T08:27:48Z</time>
        <extensions>
          <gpxtpx:TrackPointExtension xmlns:gpxtpx="http://www.garmin.com/xmlschemas/TrackPointExtension/v1">
            <gpxtpx:hr>138</gpxtpx:hr>
          </gpxtpx:TrackPointExtension>
        </extensions>
      </trkpt>
      <trkpt lat="44.15293" lon="5.27397">
        <ele>1168.6</ele>
        <time>2021-06-12T08:27:49Z</time>
        <extensions>
          <gpxtpx:TrackPointExtension xmlns:gpxtpx="http://www.garmin.com/xmlschemas/TrackPointExtension/v1">
            <gpxtpx:hr>138</gpxtpx:hr>
          </gpxtpx:TrackPointExtension>
        </extensions>
      </trkpt>
      <trkpt lat="44.153" lon="5.2741">
        <ele>1169.6</ele>
        <time>2021-06-12T08:27:56Z</time>
        <extensions>
          <gpxtpx:TrackPointExtension xmlns:gpxtpx="http://www.garmin.com/xmlschemas/TrackPointExtension/v1">
            <gpxtpx:hr>138</gpxtpx:hr>
          </gpxtpx:TrackPointExtension>
        </extensions>
      </trkpt>
      <trkpt lat="44.15302" lon="5.27414">
        <ele>1170</ele>
        <time>2021-06-12T08:27:59Z</time>
        <extensions>
          <gpxtpx:TrackPointExtension xmlns:gpxtpx="http://www.garmin.com/xmlschemas/TrackPointExtension/v1">
            <gpxtpx:hr>139</gpxtpx:hr>
          </gpxtpx:TrackPointExtension>
        </extensions>
      </trkpt>
      <trkpt lat="44.15304" lon="5.27418">
        <ele>1170.2</ele>
        <time>2021-06-12T08:28:02Z</time>
        <extensions>
          <gpxtpx:TrackPointExtension xmlns:gpxtpx="http://www.garmin.com/xmlschemas/TrackPointExtension/v1">
            <gpxtpx:hr>138</gpxtpx:hr>
          </gpxtpx:TrackPointExtension>
        </extensions>
      </trkpt>
      <trkpt lat="44.15306" lon="5.27419">
        <ele>1170.6</ele>
        <time>2021-06-12T08:28:04Z</time>
        <extensions>
          <gpxtpx:TrackPointExtension xmlns:gpxtpx="http://www.garmin.com/xmlschemas/TrackPointExtension/v1">
            <gpxtpx:hr>138</gpxtpx:hr>
          </gpxtpx:TrackPointExtension>
        </extensions>
      </trkpt>
      <trkpt lat="44.15308" lon="5.27422">
        <ele>1171</ele>
        <time>2021-06-12T08:28:06Z</time>
        <extensions>
          <gpxtpx:TrackPointExtension xmlns:gpxtpx="http://www.garmin.com/xmlschemas/TrackPointExtension/v1">
            <gpxtpx:hr>139</gpxtpx:hr>
          </gpxtpx:TrackPointExtension>
        </extensions>
      </trkpt>
      <trkpt lat="44.15316" lon="5.27436">
        <ele>1171.6</ele>
        <time>2021-06-12T08:28:15Z</time>
        <extensions>
          <gpxtpx:TrackPointExtension xmlns:gpxtpx="http://www.garmin.com/xmlschemas/TrackPointExtension/v1">
            <gpxtpx:hr>137</gpxtpx:hr>
          </gpxtpx:TrackPointExtension>
        </extensions>
      </trkpt>
      <trkpt lat="44.1532" lon="5.27445">
        <ele>1172.8</ele>
        <time>2021-06-12T08:28:22Z</time>
        <extensions>
          <gpxtpx:TrackPointExtension xmlns:gpxtpx="http://www.garmin.com/xmlschemas/TrackPointExtension/v1">
            <gpxtpx:hr>137</gpxtpx:hr>
          </gpxtpx:TrackPointExtension>
        </extensions>
      </trkpt>
      <trkpt lat="44.15321" lon="5.27449">
        <ele>1173</ele>
        <time>2021-06-12T08:28:25Z</time>
        <extensions>
          <gpxtpx:TrackPointExtension xmlns:gpxtpx="http://www.garmin.com/xmlschemas/TrackPointExtension/v1">
            <gpxtpx:hr>137</gpxtpx:hr>
          </gpxtpx:TrackPointExtension>
        </extensions>
      </trkpt>
      <trkpt lat="44.15322" lon="5.27453">
        <ele>1173.4</ele>
        <time>2021-06-12T08:28:28Z</time>
        <extensions>
          <gpxtpx:TrackPointExtension xmlns:gpxtpx="http://www.garmin.com/xmlschemas/TrackPointExtension/v1">
            <gpxtpx:hr>136</gpxtpx:hr>
          </gpxtpx:TrackPointExtension>
        </extensions>
      </trkpt>
      <trkpt lat="44.15324" lon="5.27458">
        <ele>1173.8</ele>
        <time>2021-06-12T08:28:32Z</time>
        <extensions>
          <gpxtpx:TrackPointExtension xmlns:gpxtpx="http://www.garmin.com/xmlschemas/TrackPointExtension/v1">
            <gpxtpx:hr>136</gpxtpx:hr>
          </gpxtpx:TrackPointExtension>
        </extensions>
      </trkpt>
      <trkpt lat="44.15328" lon="5.27463">
        <ele>1174.8</ele>
        <time>2021-06-12T08:28:38Z</time>
        <extensions>
          <gpxtpx:TrackPointExtension xmlns:gpxtpx="http://www.garmin.com/xmlschemas/TrackPointExtension/v1">
            <gpxtpx:hr>135</gpxtpx:hr>
          </gpxtpx:TrackPointExtension>
        </extensions>
      </trkpt>
      <trkpt lat="44.15328" lon="5.27464">
        <ele>1174.8</ele>
        <time>2021-06-12T08:28:39Z</time>
        <extensions>
          <gpxtpx:TrackPointExtension xmlns:gpxtpx="http://www.garmin.com/xmlschemas/TrackPointExtension/v1">
            <gpxtpx:hr>136</gpxtpx:hr>
          </gpxtpx:TrackPointExtension>
        </extensions>
      </trkpt>
      <trkpt lat="44.15331" lon="5.27469">
        <ele>1175.4</ele>
        <time>2021-06-12T08:28:43Z</time>
        <extensions>
          <gpxtpx:TrackPointExtension xmlns:gpxtpx="http://www.garmin.com/xmlschemas/TrackPointExtension/v1">
            <gpxtpx:hr>136</gpxtpx:hr>
          </gpxtpx:TrackPointExtension>
        </extensions>
      </trkpt>
      <trkpt lat="44.15333" lon="5.27472">
        <ele>1175.6</ele>
        <time>2021-06-12T08:28:45Z</time>
        <extensions>
          <gpxtpx:TrackPointExtension xmlns:gpxtpx="http://www.garmin.com/xmlschemas/TrackPointExtension/v1">
            <gpxtpx:hr>136</gpxtpx:hr>
          </gpxtpx:TrackPointExtension>
        </extensions>
      </trkpt>
      <trkpt lat="44.15334" lon="5.27473">
        <ele>1175.8</ele>
        <time>2021-06-12T08:28:46Z</time>
        <extensions>
          <gpxtpx:TrackPointExtension xmlns:gpxtpx="http://www.garmin.com/xmlschemas/TrackPointExtension/v1">
            <gpxtpx:hr>136</gpxtpx:hr>
          </gpxtpx:TrackPointExtension>
        </extensions>
      </trkpt>
      <trkpt lat="44.1534" lon="5.27479">
        <ele>1176.8</ele>
        <time>2021-06-12T08:28:52Z</time>
        <extensions>
          <gpxtpx:TrackPointExtension xmlns:gpxtpx="http://www.garmin.com/xmlschemas/TrackPointExtension/v1">
            <gpxtpx:hr>138</gpxtpx:hr>
          </gpxtpx:TrackPointExtension>
        </extensions>
      </trkpt>
      <trkpt lat="44.15341" lon="5.27481">
        <ele>1177</ele>
        <time>2021-06-12T08:28:53Z</time>
        <extensions>
          <gpxtpx:TrackPointExtension xmlns:gpxtpx="http://www.garmin.com/xmlschemas/TrackPointExtension/v1">
            <gpxtpx:hr>139</gpxtpx:hr>
          </gpxtpx:TrackPointExtension>
        </extensions>
      </trkpt>
      <trkpt lat="44.15341" lon="5.27483">
        <ele>1177.2</ele>
        <time>2021-06-12T08:28:55Z</time>
        <extensions>
          <gpxtpx:TrackPointExtension xmlns:gpxtpx="http://www.garmin.com/xmlschemas/TrackPointExtension/v1">
            <gpxtpx:hr>138</gpxtpx:hr>
          </gpxtpx:TrackPointExtension>
        </extensions>
      </trkpt>
      <trkpt lat="44.15344" lon="5.2749">
        <ele>1178</ele>
        <time>2021-06-12T08:28:59Z</time>
        <extensions>
          <gpxtpx:TrackPointExtension xmlns:gpxtpx="http://www.garmin.com/xmlschemas/TrackPointExtension/v1">
            <gpxtpx:hr>139</gpxtpx:hr>
          </gpxtpx:TrackPointExtension>
        </extensions>
      </trkpt>
      <trkpt lat="44.15345" lon="5.27494">
        <ele>1178.6</ele>
        <time>2021-06-12T08:29:02Z</time>
        <extensions>
          <gpxtpx:TrackPointExtension xmlns:gpxtpx="http://www.garmin.com/xmlschemas/TrackPointExtension/v1">
            <gpxtpx:hr>139</gpxtpx:hr>
          </gpxtpx:TrackPointExtension>
        </extensions>
      </trkpt>
      <trkpt lat="44.1535" lon="5.27497">
        <ele>1179</ele>
        <time>2021-06-12T08:29:05Z</time>
        <extensions>
          <gpxtpx:TrackPointExtension xmlns:gpxtpx="http://www.garmin.com/xmlschemas/TrackPointExtension/v1">
            <gpxtpx:hr>140</gpxtpx:hr>
          </gpxtpx:TrackPointExtension>
        </extensions>
      </trkpt>
      <trkpt lat="44.15351" lon="5.275">
        <ele>1179.4</ele>
        <time>2021-06-12T08:29:07Z</time>
        <extensions>
          <gpxtpx:TrackPointExtension xmlns:gpxtpx="http://www.garmin.com/xmlschemas/TrackPointExtension/v1">
            <gpxtpx:hr>140</gpxtpx:hr>
          </gpxtpx:TrackPointExtension>
        </extensions>
      </trkpt>
      <trkpt lat="44.15351" lon="5.27507">
        <ele>1180.2</ele>
        <time>2021-06-12T08:29:11Z</time>
        <extensions>
          <gpxtpx:TrackPointExtension xmlns:gpxtpx="http://www.garmin.com/xmlschemas/TrackPointExtension/v1">
            <gpxtpx:hr>142</gpxtpx:hr>
          </gpxtpx:TrackPointExtension>
        </extensions>
      </trkpt>
      <trkpt lat="44.15353" lon="5.27516">
        <ele>1181.4</ele>
        <time>2021-06-12T08:29:16Z</time>
        <extensions>
          <gpxtpx:TrackPointExtension xmlns:gpxtpx="http://www.garmin.com/xmlschemas/TrackPointExtension/v1">
            <gpxtpx:hr>141</gpxtpx:hr>
          </gpxtpx:TrackPointExtension>
        </extensions>
      </trkpt>
      <trkpt lat="44.15355" lon="5.27524">
        <ele>1182.6</ele>
        <time>2021-06-12T08:29:22Z</time>
        <extensions>
          <gpxtpx:TrackPointExtension xmlns:gpxtpx="http://www.garmin.com/xmlschemas/TrackPointExtension/v1">
            <gpxtpx:hr>142</gpxtpx:hr>
          </gpxtpx:TrackPointExtension>
        </extensions>
      </trkpt>
      <trkpt lat="44.15361" lon="5.2753">
        <ele>1183.6</ele>
        <time>2021-06-12T08:29:28Z</time>
        <extensions>
          <gpxtpx:TrackPointExtension xmlns:gpxtpx="http://www.garmin.com/xmlschemas/TrackPointExtension/v1">
            <gpxtpx:hr>143</gpxtpx:hr>
          </gpxtpx:TrackPointExtension>
        </extensions>
      </trkpt>
      <trkpt lat="44.15364" lon="5.27533">
        <ele>1184.6</ele>
        <time>2021-06-12T08:29:31Z</time>
        <extensions>
          <gpxtpx:TrackPointExtension xmlns:gpxtpx="http://www.garmin.com/xmlschemas/TrackPointExtension/v1">
            <gpxtpx:hr>143</gpxtpx:hr>
          </gpxtpx:TrackPointExtension>
        </extensions>
      </trkpt>
      <trkpt lat="44.15366" lon="5.27535">
        <ele>1184.6</ele>
        <time>2021-06-12T08:29:33Z</time>
        <extensions>
          <gpxtpx:TrackPointExtension xmlns:gpxtpx="http://www.garmin.com/xmlschemas/TrackPointExtension/v1">
            <gpxtpx:hr>144</gpxtpx:hr>
          </gpxtpx:TrackPointExtension>
        </extensions>
      </trkpt>
      <trkpt lat="44.15368" lon="5.27537">
        <ele>1185</ele>
        <time>2021-06-12T08:29:35Z</time>
        <extensions>
          <gpxtpx:TrackPointExtension xmlns:gpxtpx="http://www.garmin.com/xmlschemas/TrackPointExtension/v1">
            <gpxtpx:hr>143</gpxtpx:hr>
          </gpxtpx:TrackPointExtension>
        </extensions>
      </trkpt>
      <trkpt lat="44.15368" lon="5.27539">
        <ele>1185.4</ele>
        <time>2021-06-12T08:29:37Z</time>
        <extensions>
          <gpxtpx:TrackPointExtension xmlns:gpxtpx="http://www.garmin.com/xmlschemas/TrackPointExtension/v1">
            <gpxtpx:hr>144</gpxtpx:hr>
          </gpxtpx:TrackPointExtension>
        </extensions>
      </trkpt>
      <trkpt lat="44.1537" lon="5.27543">
        <ele>1185.8</ele>
        <time>2021-06-12T08:29:39Z</time>
        <extensions>
          <gpxtpx:TrackPointExtension xmlns:gpxtpx="http://www.garmin.com/xmlschemas/TrackPointExtension/v1">
            <gpxtpx:hr>144</gpxtpx:hr>
          </gpxtpx:TrackPointExtension>
        </extensions>
      </trkpt>
      <trkpt lat="44.15371" lon="5.27545">
        <ele>1186.2</ele>
        <time>2021-06-12T08:29:41Z</time>
        <extensions>
          <gpxtpx:TrackPointExtension xmlns:gpxtpx="http://www.garmin.com/xmlschemas/TrackPointExtension/v1">
            <gpxtpx:hr>144</gpxtpx:hr>
          </gpxtpx:TrackPointExtension>
        </extensions>
      </trkpt>
      <trkpt lat="44.15375" lon="5.27553">
        <ele>1187</ele>
        <time>2021-06-12T08:29:46Z</time>
        <extensions>
          <gpxtpx:TrackPointExtension xmlns:gpxtpx="http://www.garmin.com/xmlschemas/TrackPointExtension/v1">
            <gpxtpx:hr>144</gpxtpx:hr>
          </gpxtpx:TrackPointExtension>
        </extensions>
      </trkpt>
      <trkpt lat="44.15376" lon="5.27555">
        <ele>1187.2</ele>
        <time>2021-06-12T08:29:47Z</time>
        <extensions>
          <gpxtpx:TrackPointExtension xmlns:gpxtpx="http://www.garmin.com/xmlschemas/TrackPointExtension/v1">
            <gpxtpx:hr>144</gpxtpx:hr>
          </gpxtpx:TrackPointExtension>
        </extensions>
      </trkpt>
      <trkpt lat="44.15376" lon="5.27562">
        <ele>1187.8</ele>
        <time>2021-06-12T08:29:51Z</time>
        <extensions>
          <gpxtpx:TrackPointExtension xmlns:gpxtpx="http://www.garmin.com/xmlschemas/TrackPointExtension/v1">
            <gpxtpx:hr>144</gpxtpx:hr>
          </gpxtpx:TrackPointExtension>
        </extensions>
      </trkpt>
      <trkpt lat="44.15376" lon="5.27563">
        <ele>1188</ele>
        <time>2021-06-12T08:29:52Z</time>
        <extensions>
          <gpxtpx:TrackPointExtension xmlns:gpxtpx="http://www.garmin.com/xmlschemas/TrackPointExtension/v1">
            <gpxtpx:hr>144</gpxtpx:hr>
          </gpxtpx:TrackPointExtension>
        </extensions>
      </trkpt>
      <trkpt lat="44.15378" lon="5.27563">
        <ele>1188.2</ele>
        <time>2021-06-12T08:29:53Z</time>
        <extensions>
          <gpxtpx:TrackPointExtension xmlns:gpxtpx="http://www.garmin.com/xmlschemas/TrackPointExtension/v1">
            <gpxtpx:hr>144</gpxtpx:hr>
          </gpxtpx:TrackPointExtension>
        </extensions>
      </trkpt>
      <trkpt lat="44.1538" lon="5.27565">
        <ele>1188.4</ele>
        <time>2021-06-12T08:29:55Z</time>
        <extensions>
          <gpxtpx:TrackPointExtension xmlns:gpxtpx="http://www.garmin.com/xmlschemas/TrackPointExtension/v1">
            <gpxtpx:hr>144</gpxtpx:hr>
          </gpxtpx:TrackPointExtension>
        </extensions>
      </trkpt>
      <trkpt lat="44.15383" lon="5.27567">
        <ele>1188.8</ele>
        <time>2021-06-12T08:29:57Z</time>
        <extensions>
          <gpxtpx:TrackPointExtension xmlns:gpxtpx="http://www.garmin.com/xmlschemas/TrackPointExtension/v1">
            <gpxtpx:hr>145</gpxtpx:hr>
          </gpxtpx:TrackPointExtension>
        </extensions>
      </trkpt>
      <trkpt lat="44.15385" lon="5.2757">
        <ele>1189.2</ele>
        <time>2021-06-12T08:29:59Z</time>
        <extensions>
          <gpxtpx:TrackPointExtension xmlns:gpxtpx="http://www.garmin.com/xmlschemas/TrackPointExtension/v1">
            <gpxtpx:hr>145</gpxtpx:hr>
          </gpxtpx:TrackPointExtension>
        </extensions>
      </trkpt>
      <trkpt lat="44.15386" lon="5.27571">
        <ele>1189.4</ele>
        <time>2021-06-12T08:30:00Z</time>
        <extensions>
          <gpxtpx:TrackPointExtension xmlns:gpxtpx="http://www.garmin.com/xmlschemas/TrackPointExtension/v1">
            <gpxtpx:hr>145</gpxtpx:hr>
          </gpxtpx:TrackPointExtension>
        </extensions>
      </trkpt>
      <trkpt lat="44.15388" lon="5.27575">
        <ele>1190.2</ele>
        <time>2021-06-12T08:30:04Z</time>
        <extensions>
          <gpxtpx:TrackPointExtension xmlns:gpxtpx="http://www.garmin.com/xmlschemas/TrackPointExtension/v1">
            <gpxtpx:hr>147</gpxtpx:hr>
          </gpxtpx:TrackPointExtension>
        </extensions>
      </trkpt>
      <trkpt lat="44.15388" lon="5.27577">
        <ele>1190.2</ele>
        <time>2021-06-12T08:30:05Z</time>
        <extensions>
          <gpxtpx:TrackPointExtension xmlns:gpxtpx="http://www.garmin.com/xmlschemas/TrackPointExtension/v1">
            <gpxtpx:hr>147</gpxtpx:hr>
          </gpxtpx:TrackPointExtension>
        </extensions>
      </trkpt>
      <trkpt lat="44.15392" lon="5.27582">
        <ele>1191.2</ele>
        <time>2021-06-12T08:30:11Z</time>
        <extensions>
          <gpxtpx:TrackPointExtension xmlns:gpxtpx="http://www.garmin.com/xmlschemas/TrackPointExtension/v1">
            <gpxtpx:hr>149</gpxtpx:hr>
          </gpxtpx:TrackPointExtension>
        </extensions>
      </trkpt>
      <trkpt lat="44.15394" lon="5.27587">
        <ele>1192.4</ele>
        <time>2021-06-12T08:30:17Z</time>
        <extensions>
          <gpxtpx:TrackPointExtension xmlns:gpxtpx="http://www.garmin.com/xmlschemas/TrackPointExtension/v1">
            <gpxtpx:hr>148</gpxtpx:hr>
          </gpxtpx:TrackPointExtension>
        </extensions>
      </trkpt>
      <trkpt lat="44.15395" lon="5.27589">
        <ele>1192.8</ele>
        <time>2021-06-12T08:30:19Z</time>
        <extensions>
          <gpxtpx:TrackPointExtension xmlns:gpxtpx="http://www.garmin.com/xmlschemas/TrackPointExtension/v1">
            <gpxtpx:hr>150</gpxtpx:hr>
          </gpxtpx:TrackPointExtension>
        </extensions>
      </trkpt>
      <trkpt lat="44.154" lon="5.27591">
        <ele>1193.6</ele>
        <time>2021-06-12T08:30:23Z</time>
        <extensions>
          <gpxtpx:TrackPointExtension xmlns:gpxtpx="http://www.garmin.com/xmlschemas/TrackPointExtension/v1">
            <gpxtpx:hr>149</gpxtpx:hr>
          </gpxtpx:TrackPointExtension>
        </extensions>
      </trkpt>
      <trkpt lat="44.154" lon="5.27592">
        <ele>1193.8</ele>
        <time>2021-06-12T08:30:24Z</time>
        <extensions>
          <gpxtpx:TrackPointExtension xmlns:gpxtpx="http://www.garmin.com/xmlschemas/TrackPointExtension/v1">
            <gpxtpx:hr>149</gpxtpx:hr>
          </gpxtpx:TrackPointExtension>
        </extensions>
      </trkpt>
      <trkpt lat="44.15403" lon="5.27595">
        <ele>1194.8</ele>
        <time>2021-06-12T08:30:28Z</time>
        <extensions>
          <gpxtpx:TrackPointExtension xmlns:gpxtpx="http://www.garmin.com/xmlschemas/TrackPointExtension/v1">
            <gpxtpx:hr>149</gpxtpx:hr>
          </gpxtpx:TrackPointExtension>
        </extensions>
      </trkpt>
      <trkpt lat="44.15407" lon="5.27604">
        <ele>1195.8</ele>
        <time>2021-06-12T08:30:33Z</time>
        <extensions>
          <gpxtpx:TrackPointExtension xmlns:gpxtpx="http://www.garmin.com/xmlschemas/TrackPointExtension/v1">
            <gpxtpx:hr>151</gpxtpx:hr>
          </gpxtpx:TrackPointExtension>
        </extensions>
      </trkpt>
      <trkpt lat="44.1541" lon="5.27611">
        <ele>1196.6</ele>
        <time>2021-06-12T08:30:38Z</time>
        <extensions>
          <gpxtpx:TrackPointExtension xmlns:gpxtpx="http://www.garmin.com/xmlschemas/TrackPointExtension/v1">
            <gpxtpx:hr>151</gpxtpx:hr>
          </gpxtpx:TrackPointExtension>
        </extensions>
      </trkpt>
      <trkpt lat="44.15412" lon="5.27612">
        <ele>1196.8</ele>
        <time>2021-06-12T08:30:39Z</time>
        <extensions>
          <gpxtpx:TrackPointExtension xmlns:gpxtpx="http://www.garmin.com/xmlschemas/TrackPointExtension/v1">
            <gpxtpx:hr>151</gpxtpx:hr>
          </gpxtpx:TrackPointExtension>
        </extensions>
      </trkpt>
      <trkpt lat="44.15413" lon="5.27612">
        <ele>1197</ele>
        <time>2021-06-12T08:30:40Z</time>
        <extensions>
          <gpxtpx:TrackPointExtension xmlns:gpxtpx="http://www.garmin.com/xmlschemas/TrackPointExtension/v1">
            <gpxtpx:hr>152</gpxtpx:hr>
          </gpxtpx:TrackPointExtension>
        </extensions>
      </trkpt>
      <trkpt lat="44.15418" lon="5.27615">
        <ele>1198</ele>
        <time>2021-06-12T08:30:44Z</time>
        <extensions>
          <gpxtpx:TrackPointExtension xmlns:gpxtpx="http://www.garmin.com/xmlschemas/TrackPointExtension/v1">
            <gpxtpx:hr>151</gpxtpx:hr>
          </gpxtpx:TrackPointExtension>
        </extensions>
      </trkpt>
      <trkpt lat="44.15419" lon="5.27616">
        <ele>1198.4</ele>
        <time>2021-06-12T08:30:46Z</time>
        <extensions>
          <gpxtpx:TrackPointExtension xmlns:gpxtpx="http://www.garmin.com/xmlschemas/TrackPointExtension/v1">
            <gpxtpx:hr>150</gpxtpx:hr>
          </gpxtpx:TrackPointExtension>
        </extensions>
      </trkpt>
      <trkpt lat="44.15422" lon="5.27619">
        <ele>1199.2</ele>
        <time>2021-06-12T08:30:50Z</time>
        <extensions>
          <gpxtpx:TrackPointExtension xmlns:gpxtpx="http://www.garmin.com/xmlschemas/TrackPointExtension/v1">
            <gpxtpx:hr>150</gpxtpx:hr>
          </gpxtpx:TrackPointExtension>
        </extensions>
      </trkpt>
      <trkpt lat="44.15423" lon="5.27621">
        <ele>1199.6</ele>
        <time>2021-06-12T08:30:52Z</time>
        <extensions>
          <gpxtpx:TrackPointExtension xmlns:gpxtpx="http://www.garmin.com/xmlschemas/TrackPointExtension/v1">
            <gpxtpx:hr>150</gpxtpx:hr>
          </gpxtpx:TrackPointExtension>
        </extensions>
      </trkpt>
      <trkpt lat="44.15427" lon="5.27625">
        <ele>1200.4</ele>
        <time>2021-06-12T08:30:56Z</time>
        <extensions>
          <gpxtpx:TrackPointExtension xmlns:gpxtpx="http://www.garmin.com/xmlschemas/TrackPointExtension/v1">
            <gpxtpx:hr>149</gpxtpx:hr>
          </gpxtpx:TrackPointExtension>
        </extensions>
      </trkpt>
      <trkpt lat="44.15428" lon="5.27625">
        <ele>1200.6</ele>
        <time>2021-06-12T08:30:57Z</time>
        <extensions>
          <gpxtpx:TrackPointExtension xmlns:gpxtpx="http://www.garmin.com/xmlschemas/TrackPointExtension/v1">
            <gpxtpx:hr>149</gpxtpx:hr>
          </gpxtpx:TrackPointExtension>
        </extensions>
      </trkpt>
      <trkpt lat="44.15432" lon="5.27627">
        <ele>1201.6</ele>
        <time>2021-06-12T08:31:01Z</time>
        <extensions>
          <gpxtpx:TrackPointExtension xmlns:gpxtpx="http://www.garmin.com/xmlschemas/TrackPointExtension/v1">
            <gpxtpx:hr>150</gpxtpx:hr>
          </gpxtpx:TrackPointExtension>
        </extensions>
      </trkpt>
      <trkpt lat="44.15433" lon="5.27627">
        <ele>1201.8</ele>
        <time>2021-06-12T08:31:02Z</time>
        <extensions>
          <gpxtpx:TrackPointExtension xmlns:gpxtpx="http://www.garmin.com/xmlschemas/TrackPointExtension/v1">
            <gpxtpx:hr>149</gpxtpx:hr>
          </gpxtpx:TrackPointExtension>
        </extensions>
      </trkpt>
      <trkpt lat="44.15435" lon="5.27629">
        <ele>1202.4</ele>
        <time>2021-06-12T08:31:05Z</time>
        <extensions>
          <gpxtpx:TrackPointExtension xmlns:gpxtpx="http://www.garmin.com/xmlschemas/TrackPointExtension/v1">
            <gpxtpx:hr>149</gpxtpx:hr>
          </gpxtpx:TrackPointExtension>
        </extensions>
      </trkpt>
      <trkpt lat="44.15436" lon="5.27629">
        <ele>1202.6</ele>
        <time>2021-06-12T08:31:06Z</time>
        <extensions>
          <gpxtpx:TrackPointExtension xmlns:gpxtpx="http://www.garmin.com/xmlschemas/TrackPointExtension/v1">
            <gpxtpx:hr>149</gpxtpx:hr>
          </gpxtpx:TrackPointExtension>
        </extensions>
      </trkpt>
      <trkpt lat="44.15436" lon="5.2763">
        <ele>1203</ele>
        <time>2021-06-12T08:31:07Z</time>
        <extensions>
          <gpxtpx:TrackPointExtension xmlns:gpxtpx="http://www.garmin.com/xmlschemas/TrackPointExtension/v1">
            <gpxtpx:hr>149</gpxtpx:hr>
          </gpxtpx:TrackPointExtension>
        </extensions>
      </trkpt>
      <trkpt lat="44.15436" lon="5.27631">
        <ele>1203.2</ele>
        <time>2021-06-12T08:31:08Z</time>
        <extensions>
          <gpxtpx:TrackPointExtension xmlns:gpxtpx="http://www.garmin.com/xmlschemas/TrackPointExtension/v1">
            <gpxtpx:hr>150</gpxtpx:hr>
          </gpxtpx:TrackPointExtension>
        </extensions>
      </trkpt>
      <trkpt lat="44.15437" lon="5.27633">
        <ele>1203.6</ele>
        <time>2021-06-12T08:31:10Z</time>
        <extensions>
          <gpxtpx:TrackPointExtension xmlns:gpxtpx="http://www.garmin.com/xmlschemas/TrackPointExtension/v1">
            <gpxtpx:hr>150</gpxtpx:hr>
          </gpxtpx:TrackPointExtension>
        </extensions>
      </trkpt>
      <trkpt lat="44.15437" lon="5.27634">
        <ele>1203.8</ele>
        <time>2021-06-12T08:31:11Z</time>
        <extensions>
          <gpxtpx:TrackPointExtension xmlns:gpxtpx="http://www.garmin.com/xmlschemas/TrackPointExtension/v1">
            <gpxtpx:hr>150</gpxtpx:hr>
          </gpxtpx:TrackPointExtension>
        </extensions>
      </trkpt>
      <trkpt lat="44.15438" lon="5.27636">
        <ele>1204.2</ele>
        <time>2021-06-12T08:31:13Z</time>
        <extensions>
          <gpxtpx:TrackPointExtension xmlns:gpxtpx="http://www.garmin.com/xmlschemas/TrackPointExtension/v1">
            <gpxtpx:hr>150</gpxtpx:hr>
          </gpxtpx:TrackPointExtension>
        </extensions>
      </trkpt>
      <trkpt lat="44.15438" lon="5.27639">
        <ele>1204.6</ele>
        <time>2021-06-12T08:31:15Z</time>
        <extensions>
          <gpxtpx:TrackPointExtension xmlns:gpxtpx="http://www.garmin.com/xmlschemas/TrackPointExtension/v1">
            <gpxtpx:hr>151</gpxtpx:hr>
          </gpxtpx:TrackPointExtension>
        </extensions>
      </trkpt>
      <trkpt lat="44.15438" lon="5.2764">
        <ele>1204.8</ele>
        <time>2021-06-12T08:31:16Z</time>
        <extensions>
          <gpxtpx:TrackPointExtension xmlns:gpxtpx="http://www.garmin.com/xmlschemas/TrackPointExtension/v1">
            <gpxtpx:hr>151</gpxtpx:hr>
          </gpxtpx:TrackPointExtension>
        </extensions>
      </trkpt>
      <trkpt lat="44.15439" lon="5.27642">
        <ele>1205.2</ele>
        <time>2021-06-12T08:31:19Z</time>
        <extensions>
          <gpxtpx:TrackPointExtension xmlns:gpxtpx="http://www.garmin.com/xmlschemas/TrackPointExtension/v1">
            <gpxtpx:hr>152</gpxtpx:hr>
          </gpxtpx:TrackPointExtension>
        </extensions>
      </trkpt>
      <trkpt lat="44.15439" lon="5.27646">
        <ele>1206</ele>
        <time>2021-06-12T08:31:22Z</time>
        <extensions>
          <gpxtpx:TrackPointExtension xmlns:gpxtpx="http://www.garmin.com/xmlschemas/TrackPointExtension/v1">
            <gpxtpx:hr>153</gpxtpx:hr>
          </gpxtpx:TrackPointExtension>
        </extensions>
      </trkpt>
      <trkpt lat="44.15445" lon="5.27651">
        <ele>1207</ele>
        <time>2021-06-12T08:31:27Z</time>
        <extensions>
          <gpxtpx:TrackPointExtension xmlns:gpxtpx="http://www.garmin.com/xmlschemas/TrackPointExtension/v1">
            <gpxtpx:hr>153</gpxtpx:hr>
          </gpxtpx:TrackPointExtension>
        </extensions>
      </trkpt>
      <trkpt lat="44.15445" lon="5.27652">
        <ele>1207.4</ele>
        <time>2021-06-12T08:31:29Z</time>
        <extensions>
          <gpxtpx:TrackPointExtension xmlns:gpxtpx="http://www.garmin.com/xmlschemas/TrackPointExtension/v1">
            <gpxtpx:hr>153</gpxtpx:hr>
          </gpxtpx:TrackPointExtension>
        </extensions>
      </trkpt>
      <trkpt lat="44.15447" lon="5.27654">
        <ele>1208.4</ele>
        <time>2021-06-12T08:31:32Z</time>
        <extensions>
          <gpxtpx:TrackPointExtension xmlns:gpxtpx="http://www.garmin.com/xmlschemas/TrackPointExtension/v1">
            <gpxtpx:hr>153</gpxtpx:hr>
          </gpxtpx:TrackPointExtension>
        </extensions>
      </trkpt>
      <trkpt lat="44.15453" lon="5.27658">
        <ele>1209.4</ele>
        <time>2021-06-12T08:31:37Z</time>
        <extensions>
          <gpxtpx:TrackPointExtension xmlns:gpxtpx="http://www.garmin.com/xmlschemas/TrackPointExtension/v1">
            <gpxtpx:hr>154</gpxtpx:hr>
          </gpxtpx:TrackPointExtension>
        </extensions>
      </trkpt>
      <trkpt lat="44.15454" lon="5.2766">
        <ele>1210</ele>
        <time>2021-06-12T08:31:39Z</time>
        <extensions>
          <gpxtpx:TrackPointExtension xmlns:gpxtpx="http://www.garmin.com/xmlschemas/TrackPointExtension/v1">
            <gpxtpx:hr>154</gpxtpx:hr>
          </gpxtpx:TrackPointExtension>
        </extensions>
      </trkpt>
      <trkpt lat="44.15455" lon="5.2766">
        <ele>1210.2</ele>
        <time>2021-06-12T08:31:40Z</time>
        <extensions>
          <gpxtpx:TrackPointExtension xmlns:gpxtpx="http://www.garmin.com/xmlschemas/TrackPointExtension/v1">
            <gpxtpx:hr>154</gpxtpx:hr>
          </gpxtpx:TrackPointExtension>
        </extensions>
      </trkpt>
      <trkpt lat="44.15456" lon="5.2766">
        <ele>1210.4</ele>
        <time>2021-06-12T08:31:41Z</time>
        <extensions>
          <gpxtpx:TrackPointExtension xmlns:gpxtpx="http://www.garmin.com/xmlschemas/TrackPointExtension/v1">
            <gpxtpx:hr>154</gpxtpx:hr>
          </gpxtpx:TrackPointExtension>
        </extensions>
      </trkpt>
      <trkpt lat="44.15457" lon="5.2766">
        <ele>1210.6</ele>
        <time>2021-06-12T08:31:42Z</time>
        <extensions>
          <gpxtpx:TrackPointExtension xmlns:gpxtpx="http://www.garmin.com/xmlschemas/TrackPointExtension/v1">
            <gpxtpx:hr>154</gpxtpx:hr>
          </gpxtpx:TrackPointExtension>
        </extensions>
      </trkpt>
      <trkpt lat="44.15459" lon="5.27659">
        <ele>1210.8</ele>
        <time>2021-06-12T08:31:43Z</time>
        <extensions>
          <gpxtpx:TrackPointExtension xmlns:gpxtpx="http://www.garmin.com/xmlschemas/TrackPointExtension/v1">
            <gpxtpx:hr>154</gpxtpx:hr>
          </gpxtpx:TrackPointExtension>
        </extensions>
      </trkpt>
      <trkpt lat="44.1546" lon="5.27663">
        <ele>1211.4</ele>
        <time>2021-06-12T08:31:46Z</time>
        <extensions>
          <gpxtpx:TrackPointExtension xmlns:gpxtpx="http://www.garmin.com/xmlschemas/TrackPointExtension/v1">
            <gpxtpx:hr>154</gpxtpx:hr>
          </gpxtpx:TrackPointExtension>
        </extensions>
      </trkpt>
      <trkpt lat="44.15459" lon="5.27668">
        <ele>1211.8</ele>
        <time>2021-06-12T08:31:49Z</time>
        <extensions>
          <gpxtpx:TrackPointExtension xmlns:gpxtpx="http://www.garmin.com/xmlschemas/TrackPointExtension/v1">
            <gpxtpx:hr>154</gpxtpx:hr>
          </gpxtpx:TrackPointExtension>
        </extensions>
      </trkpt>
      <trkpt lat="44.15461" lon="5.27675">
        <ele>1212.8</ele>
        <time>2021-06-12T08:31:53Z</time>
        <extensions>
          <gpxtpx:TrackPointExtension xmlns:gpxtpx="http://www.garmin.com/xmlschemas/TrackPointExtension/v1">
            <gpxtpx:hr>154</gpxtpx:hr>
          </gpxtpx:TrackPointExtension>
        </extensions>
      </trkpt>
      <trkpt lat="44.15462" lon="5.27679">
        <ele>1213.4</ele>
        <time>2021-06-12T08:31:56Z</time>
        <extensions>
          <gpxtpx:TrackPointExtension xmlns:gpxtpx="http://www.garmin.com/xmlschemas/TrackPointExtension/v1">
            <gpxtpx:hr>154</gpxtpx:hr>
          </gpxtpx:TrackPointExtension>
        </extensions>
      </trkpt>
      <trkpt lat="44.15463" lon="5.27681">
        <ele>1213.8</ele>
        <time>2021-06-12T08:31:58Z</time>
        <extensions>
          <gpxtpx:TrackPointExtension xmlns:gpxtpx="http://www.garmin.com/xmlschemas/TrackPointExtension/v1">
            <gpxtpx:hr>153</gpxtpx:hr>
          </gpxtpx:TrackPointExtension>
        </extensions>
      </trkpt>
      <trkpt lat="44.15466" lon="5.27687">
        <ele>1215</ele>
        <time>2021-06-12T08:32:03Z</time>
        <extensions>
          <gpxtpx:TrackPointExtension xmlns:gpxtpx="http://www.garmin.com/xmlschemas/TrackPointExtension/v1">
            <gpxtpx:hr>155</gpxtpx:hr>
          </gpxtpx:TrackPointExtension>
        </extensions>
      </trkpt>
      <trkpt lat="44.15467" lon="5.27688">
        <ele>1215.2</ele>
        <time>2021-06-12T08:32:04Z</time>
        <extensions>
          <gpxtpx:TrackPointExtension xmlns:gpxtpx="http://www.garmin.com/xmlschemas/TrackPointExtension/v1">
            <gpxtpx:hr>155</gpxtpx:hr>
          </gpxtpx:TrackPointExtension>
        </extensions>
      </trkpt>
      <trkpt lat="44.15468" lon="5.2769">
        <ele>1215.8</ele>
        <time>2021-06-12T08:32:06Z</time>
        <extensions>
          <gpxtpx:TrackPointExtension xmlns:gpxtpx="http://www.garmin.com/xmlschemas/TrackPointExtension/v1">
            <gpxtpx:hr>155</gpxtpx:hr>
          </gpxtpx:TrackPointExtension>
        </extensions>
      </trkpt>
      <trkpt lat="44.15469" lon="5.27693">
        <ele>1216.2</ele>
        <time>2021-06-12T08:32:08Z</time>
        <extensions>
          <gpxtpx:TrackPointExtension xmlns:gpxtpx="http://www.garmin.com/xmlschemas/TrackPointExtension/v1">
            <gpxtpx:hr>155</gpxtpx:hr>
          </gpxtpx:TrackPointExtension>
        </extensions>
      </trkpt>
      <trkpt lat="44.15471" lon="5.27696">
        <ele>1217</ele>
        <time>2021-06-12T08:32:11Z</time>
        <extensions>
          <gpxtpx:TrackPointExtension xmlns:gpxtpx="http://www.garmin.com/xmlschemas/TrackPointExtension/v1">
            <gpxtpx:hr>156</gpxtpx:hr>
          </gpxtpx:TrackPointExtension>
        </extensions>
      </trkpt>
      <trkpt lat="44.15474" lon="5.27697">
        <ele>1217.2</ele>
        <time>2021-06-12T08:32:13Z</time>
        <extensions>
          <gpxtpx:TrackPointExtension xmlns:gpxtpx="http://www.garmin.com/xmlschemas/TrackPointExtension/v1">
            <gpxtpx:hr>156</gpxtpx:hr>
          </gpxtpx:TrackPointExtension>
        </extensions>
      </trkpt>
      <trkpt lat="44.15474" lon="5.27699">
        <ele>1217.6</ele>
        <time>2021-06-12T08:32:14Z</time>
        <extensions>
          <gpxtpx:TrackPointExtension xmlns:gpxtpx="http://www.garmin.com/xmlschemas/TrackPointExtension/v1">
            <gpxtpx:hr>156</gpxtpx:hr>
          </gpxtpx:TrackPointExtension>
        </extensions>
      </trkpt>
      <trkpt lat="44.15475" lon="5.277">
        <ele>1217.8</ele>
        <time>2021-06-12T08:32:15Z</time>
        <extensions>
          <gpxtpx:TrackPointExtension xmlns:gpxtpx="http://www.garmin.com/xmlschemas/TrackPointExtension/v1">
            <gpxtpx:hr>155</gpxtpx:hr>
          </gpxtpx:TrackPointExtension>
        </extensions>
      </trkpt>
      <trkpt lat="44.15475" lon="5.27701">
        <ele>1218</ele>
        <time>2021-06-12T08:32:16Z</time>
        <extensions>
          <gpxtpx:TrackPointExtension xmlns:gpxtpx="http://www.garmin.com/xmlschemas/TrackPointExtension/v1">
            <gpxtpx:hr>156</gpxtpx:hr>
          </gpxtpx:TrackPointExtension>
        </extensions>
      </trkpt>
      <trkpt lat="44.15476" lon="5.27703">
        <ele>1218.4</ele>
        <time>2021-06-12T08:32:18Z</time>
        <extensions>
          <gpxtpx:TrackPointExtension xmlns:gpxtpx="http://www.garmin.com/xmlschemas/TrackPointExtension/v1">
            <gpxtpx:hr>157</gpxtpx:hr>
          </gpxtpx:TrackPointExtension>
        </extensions>
      </trkpt>
      <trkpt lat="44.15476" lon="5.27704">
        <ele>1218.6</ele>
        <time>2021-06-12T08:32:19Z</time>
        <extensions>
          <gpxtpx:TrackPointExtension xmlns:gpxtpx="http://www.garmin.com/xmlschemas/TrackPointExtension/v1">
            <gpxtpx:hr>156</gpxtpx:hr>
          </gpxtpx:TrackPointExtension>
        </extensions>
      </trkpt>
      <trkpt lat="44.15476" lon="5.27706">
        <ele>1218.8</ele>
        <time>2021-06-12T08:32:20Z</time>
        <extensions>
          <gpxtpx:TrackPointExtension xmlns:gpxtpx="http://www.garmin.com/xmlschemas/TrackPointExtension/v1">
            <gpxtpx:hr>156</gpxtpx:hr>
          </gpxtpx:TrackPointExtension>
        </extensions>
      </trkpt>
      <trkpt lat="44.15476" lon="5.27706">
        <ele>1219.2</ele>
        <time>2021-06-12T08:32:21Z</time>
        <extensions>
          <gpxtpx:TrackPointExtension xmlns:gpxtpx="http://www.garmin.com/xmlschemas/TrackPointExtension/v1">
            <gpxtpx:hr>156</gpxtpx:hr>
          </gpxtpx:TrackPointExtension>
        </extensions>
      </trkpt>
      <trkpt lat="44.15477" lon="5.27707">
        <ele>1219.4</ele>
        <time>2021-06-12T08:32:22Z</time>
        <extensions>
          <gpxtpx:TrackPointExtension xmlns:gpxtpx="http://www.garmin.com/xmlschemas/TrackPointExtension/v1">
            <gpxtpx:hr>156</gpxtpx:hr>
          </gpxtpx:TrackPointExtension>
        </extensions>
      </trkpt>
      <trkpt lat="44.15477" lon="5.27708">
        <ele>1219.6</ele>
        <time>2021-06-12T08:32:23Z</time>
        <extensions>
          <gpxtpx:TrackPointExtension xmlns:gpxtpx="http://www.garmin.com/xmlschemas/TrackPointExtension/v1">
            <gpxtpx:hr>157</gpxtpx:hr>
          </gpxtpx:TrackPointExtension>
        </extensions>
      </trkpt>
      <trkpt lat="44.15478" lon="5.27712">
        <ele>1220.2</ele>
        <time>2021-06-12T08:32:26Z</time>
        <extensions>
          <gpxtpx:TrackPointExtension xmlns:gpxtpx="http://www.garmin.com/xmlschemas/TrackPointExtension/v1">
            <gpxtpx:hr>156</gpxtpx:hr>
          </gpxtpx:TrackPointExtension>
        </extensions>
      </trkpt>
      <trkpt lat="44.15477" lon="5.27715">
        <ele>1220.6</ele>
        <time>2021-06-12T08:32:28Z</time>
        <extensions>
          <gpxtpx:TrackPointExtension xmlns:gpxtpx="http://www.garmin.com/xmlschemas/TrackPointExtension/v1">
            <gpxtpx:hr>155</gpxtpx:hr>
          </gpxtpx:TrackPointExtension>
        </extensions>
      </trkpt>
      <trkpt lat="44.15477" lon="5.27717">
        <ele>1221</ele>
        <time>2021-06-12T08:32:29Z</time>
        <extensions>
          <gpxtpx:TrackPointExtension xmlns:gpxtpx="http://www.garmin.com/xmlschemas/TrackPointExtension/v1">
            <gpxtpx:hr>156</gpxtpx:hr>
          </gpxtpx:TrackPointExtension>
        </extensions>
      </trkpt>
      <trkpt lat="44.15476" lon="5.27719">
        <ele>1221.2</ele>
        <time>2021-06-12T08:32:31Z</time>
        <extensions>
          <gpxtpx:TrackPointExtension xmlns:gpxtpx="http://www.garmin.com/xmlschemas/TrackPointExtension/v1">
            <gpxtpx:hr>155</gpxtpx:hr>
          </gpxtpx:TrackPointExtension>
        </extensions>
      </trkpt>
      <trkpt lat="44.15477" lon="5.27723">
        <ele>1221.8</ele>
        <time>2021-06-12T08:32:34Z</time>
        <extensions>
          <gpxtpx:TrackPointExtension xmlns:gpxtpx="http://www.garmin.com/xmlschemas/TrackPointExtension/v1">
            <gpxtpx:hr>155</gpxtpx:hr>
          </gpxtpx:TrackPointExtension>
        </extensions>
      </trkpt>
      <trkpt lat="44.15479" lon="5.27726">
        <ele>1222.6</ele>
        <time>2021-06-12T08:32:36Z</time>
        <extensions>
          <gpxtpx:TrackPointExtension xmlns:gpxtpx="http://www.garmin.com/xmlschemas/TrackPointExtension/v1">
            <gpxtpx:hr>155</gpxtpx:hr>
          </gpxtpx:TrackPointExtension>
        </extensions>
      </trkpt>
      <trkpt lat="44.1548" lon="5.27727">
        <ele>1223</ele>
        <time>2021-06-12T08:32:38Z</time>
        <extensions>
          <gpxtpx:TrackPointExtension xmlns:gpxtpx="http://www.garmin.com/xmlschemas/TrackPointExtension/v1">
            <gpxtpx:hr>155</gpxtpx:hr>
          </gpxtpx:TrackPointExtension>
        </extensions>
      </trkpt>
      <trkpt lat="44.15483" lon="5.2773">
        <ele>1223.6</ele>
        <time>2021-06-12T08:32:41Z</time>
        <extensions>
          <gpxtpx:TrackPointExtension xmlns:gpxtpx="http://www.garmin.com/xmlschemas/TrackPointExtension/v1">
            <gpxtpx:hr>156</gpxtpx:hr>
          </gpxtpx:TrackPointExtension>
        </extensions>
      </trkpt>
      <trkpt lat="44.15484" lon="5.27732">
        <ele>1224</ele>
        <time>2021-06-12T08:32:44Z</time>
        <extensions>
          <gpxtpx:TrackPointExtension xmlns:gpxtpx="http://www.garmin.com/xmlschemas/TrackPointExtension/v1">
            <gpxtpx:hr>156</gpxtpx:hr>
          </gpxtpx:TrackPointExtension>
        </extensions>
      </trkpt>
      <trkpt lat="44.15485" lon="5.27734">
        <ele>1224.2</ele>
        <time>2021-06-12T08:32:45Z</time>
        <extensions>
          <gpxtpx:TrackPointExtension xmlns:gpxtpx="http://www.garmin.com/xmlschemas/TrackPointExtension/v1">
            <gpxtpx:hr>156</gpxtpx:hr>
          </gpxtpx:TrackPointExtension>
        </extensions>
      </trkpt>
      <trkpt lat="44.15488" lon="5.27737">
        <ele>1225</ele>
        <time>2021-06-12T08:32:50Z</time>
        <extensions>
          <gpxtpx:TrackPointExtension xmlns:gpxtpx="http://www.garmin.com/xmlschemas/TrackPointExtension/v1">
            <gpxtpx:hr>156</gpxtpx:hr>
          </gpxtpx:TrackPointExtension>
        </extensions>
      </trkpt>
      <trkpt lat="44.1549" lon="5.27739">
        <ele>1225.6</ele>
        <time>2021-06-12T08:32:53Z</time>
        <extensions>
          <gpxtpx:TrackPointExtension xmlns:gpxtpx="http://www.garmin.com/xmlschemas/TrackPointExtension/v1">
            <gpxtpx:hr>155</gpxtpx:hr>
          </gpxtpx:TrackPointExtension>
        </extensions>
      </trkpt>
      <trkpt lat="44.15492" lon="5.27741">
        <ele>1226.2</ele>
        <time>2021-06-12T08:32:56Z</time>
        <extensions>
          <gpxtpx:TrackPointExtension xmlns:gpxtpx="http://www.garmin.com/xmlschemas/TrackPointExtension/v1">
            <gpxtpx:hr>155</gpxtpx:hr>
          </gpxtpx:TrackPointExtension>
        </extensions>
      </trkpt>
      <trkpt lat="44.15493" lon="5.27743">
        <ele>1226.4</ele>
        <time>2021-06-12T08:32:57Z</time>
        <extensions>
          <gpxtpx:TrackPointExtension xmlns:gpxtpx="http://www.garmin.com/xmlschemas/TrackPointExtension/v1">
            <gpxtpx:hr>154</gpxtpx:hr>
          </gpxtpx:TrackPointExtension>
        </extensions>
      </trkpt>
      <trkpt lat="44.15499" lon="5.27753">
        <ele>1227.2</ele>
        <time>2021-06-12T08:33:03Z</time>
        <extensions>
          <gpxtpx:TrackPointExtension xmlns:gpxtpx="http://www.garmin.com/xmlschemas/TrackPointExtension/v1">
            <gpxtpx:hr>153</gpxtpx:hr>
          </gpxtpx:TrackPointExtension>
        </extensions>
      </trkpt>
      <trkpt lat="44.15503" lon="5.27762">
        <ele>1228.2</ele>
        <time>2021-06-12T08:33:10Z</time>
        <extensions>
          <gpxtpx:TrackPointExtension xmlns:gpxtpx="http://www.garmin.com/xmlschemas/TrackPointExtension/v1">
            <gpxtpx:hr>152</gpxtpx:hr>
          </gpxtpx:TrackPointExtension>
        </extensions>
      </trkpt>
      <trkpt lat="44.15505" lon="5.27767">
        <ele>1229</ele>
        <time>2021-06-12T08:33:14Z</time>
        <extensions>
          <gpxtpx:TrackPointExtension xmlns:gpxtpx="http://www.garmin.com/xmlschemas/TrackPointExtension/v1">
            <gpxtpx:hr>152</gpxtpx:hr>
          </gpxtpx:TrackPointExtension>
        </extensions>
      </trkpt>
      <trkpt lat="44.15505" lon="5.2777">
        <ele>1229.4</ele>
        <time>2021-06-12T08:33:16Z</time>
        <extensions>
          <gpxtpx:TrackPointExtension xmlns:gpxtpx="http://www.garmin.com/xmlschemas/TrackPointExtension/v1">
            <gpxtpx:hr>151</gpxtpx:hr>
          </gpxtpx:TrackPointExtension>
        </extensions>
      </trkpt>
      <trkpt lat="44.15506" lon="5.27773">
        <ele>1229.8</ele>
        <time>2021-06-12T08:33:18Z</time>
        <extensions>
          <gpxtpx:TrackPointExtension xmlns:gpxtpx="http://www.garmin.com/xmlschemas/TrackPointExtension/v1">
            <gpxtpx:hr>151</gpxtpx:hr>
          </gpxtpx:TrackPointExtension>
        </extensions>
      </trkpt>
      <trkpt lat="44.15508" lon="5.27773">
        <ele>1230</ele>
        <time>2021-06-12T08:33:20Z</time>
        <extensions>
          <gpxtpx:TrackPointExtension xmlns:gpxtpx="http://www.garmin.com/xmlschemas/TrackPointExtension/v1">
            <gpxtpx:hr>151</gpxtpx:hr>
          </gpxtpx:TrackPointExtension>
        </extensions>
      </trkpt>
      <trkpt lat="44.15508" lon="5.27774">
        <ele>1230</ele>
        <time>2021-06-12T08:33:21Z</time>
        <extensions>
          <gpxtpx:TrackPointExtension xmlns:gpxtpx="http://www.garmin.com/xmlschemas/TrackPointExtension/v1">
            <gpxtpx:hr>151</gpxtpx:hr>
          </gpxtpx:TrackPointExtension>
        </extensions>
      </trkpt>
      <trkpt lat="44.15509" lon="5.27775">
        <ele>1230.4</ele>
        <time>2021-06-12T08:33:23Z</time>
        <extensions>
          <gpxtpx:TrackPointExtension xmlns:gpxtpx="http://www.garmin.com/xmlschemas/TrackPointExtension/v1">
            <gpxtpx:hr>151</gpxtpx:hr>
          </gpxtpx:TrackPointExtension>
        </extensions>
      </trkpt>
      <trkpt lat="44.1551" lon="5.27776">
        <ele>1230.6</ele>
        <time>2021-06-12T08:33:24Z</time>
        <extensions>
          <gpxtpx:TrackPointExtension xmlns:gpxtpx="http://www.garmin.com/xmlschemas/TrackPointExtension/v1">
            <gpxtpx:hr>151</gpxtpx:hr>
          </gpxtpx:TrackPointExtension>
        </extensions>
      </trkpt>
      <trkpt lat="44.15511" lon="5.27777">
        <ele>1230.8</ele>
        <time>2021-06-12T08:33:25Z</time>
        <extensions>
          <gpxtpx:TrackPointExtension xmlns:gpxtpx="http://www.garmin.com/xmlschemas/TrackPointExtension/v1">
            <gpxtpx:hr>151</gpxtpx:hr>
          </gpxtpx:TrackPointExtension>
        </extensions>
      </trkpt>
      <trkpt lat="44.15512" lon="5.27782">
        <ele>1231.2</ele>
        <time>2021-06-12T08:33:28Z</time>
        <extensions>
          <gpxtpx:TrackPointExtension xmlns:gpxtpx="http://www.garmin.com/xmlschemas/TrackPointExtension/v1">
            <gpxtpx:hr>151</gpxtpx:hr>
          </gpxtpx:TrackPointExtension>
        </extensions>
      </trkpt>
      <trkpt lat="44.15515" lon="5.27784">
        <ele>1231.8</ele>
        <time>2021-06-12T08:33:31Z</time>
        <extensions>
          <gpxtpx:TrackPointExtension xmlns:gpxtpx="http://www.garmin.com/xmlschemas/TrackPointExtension/v1">
            <gpxtpx:hr>151</gpxtpx:hr>
          </gpxtpx:TrackPointExtension>
        </extensions>
      </trkpt>
      <trkpt lat="44.15518" lon="5.27787">
        <ele>1232.4</ele>
        <time>2021-06-12T08:33:34Z</time>
        <extensions>
          <gpxtpx:TrackPointExtension xmlns:gpxtpx="http://www.garmin.com/xmlschemas/TrackPointExtension/v1">
            <gpxtpx:hr>150</gpxtpx:hr>
          </gpxtpx:TrackPointExtension>
        </extensions>
      </trkpt>
      <trkpt lat="44.15521" lon="5.27791">
        <ele>1232.8</ele>
        <time>2021-06-12T08:33:37Z</time>
        <extensions>
          <gpxtpx:TrackPointExtension xmlns:gpxtpx="http://www.garmin.com/xmlschemas/TrackPointExtension/v1">
            <gpxtpx:hr>149</gpxtpx:hr>
          </gpxtpx:TrackPointExtension>
        </extensions>
      </trkpt>
      <trkpt lat="44.15524" lon="5.27792">
        <ele>1233.2</ele>
        <time>2021-06-12T08:33:39Z</time>
        <extensions>
          <gpxtpx:TrackPointExtension xmlns:gpxtpx="http://www.garmin.com/xmlschemas/TrackPointExtension/v1">
            <gpxtpx:hr>149</gpxtpx:hr>
          </gpxtpx:TrackPointExtension>
        </extensions>
      </trkpt>
      <trkpt lat="44.15525" lon="5.27792">
        <ele>1233.4</ele>
        <time>2021-06-12T08:33:40Z</time>
        <extensions>
          <gpxtpx:TrackPointExtension xmlns:gpxtpx="http://www.garmin.com/xmlschemas/TrackPointExtension/v1">
            <gpxtpx:hr>149</gpxtpx:hr>
          </gpxtpx:TrackPointExtension>
        </extensions>
      </trkpt>
      <trkpt lat="44.15528" lon="5.27793">
        <ele>1234</ele>
        <time>2021-06-12T08:33:44Z</time>
        <extensions>
          <gpxtpx:TrackPointExtension xmlns:gpxtpx="http://www.garmin.com/xmlschemas/TrackPointExtension/v1">
            <gpxtpx:hr>149</gpxtpx:hr>
          </gpxtpx:TrackPointExtension>
        </extensions>
      </trkpt>
      <trkpt lat="44.15529" lon="5.27794">
        <ele>1234.4</ele>
        <time>2021-06-12T08:33:46Z</time>
        <extensions>
          <gpxtpx:TrackPointExtension xmlns:gpxtpx="http://www.garmin.com/xmlschemas/TrackPointExtension/v1">
            <gpxtpx:hr>149</gpxtpx:hr>
          </gpxtpx:TrackPointExtension>
        </extensions>
      </trkpt>
      <trkpt lat="44.1553" lon="5.27795">
        <ele>1234.6</ele>
        <time>2021-06-12T08:33:47Z</time>
        <extensions>
          <gpxtpx:TrackPointExtension xmlns:gpxtpx="http://www.garmin.com/xmlschemas/TrackPointExtension/v1">
            <gpxtpx:hr>149</gpxtpx:hr>
          </gpxtpx:TrackPointExtension>
        </extensions>
      </trkpt>
      <trkpt lat="44.15531" lon="5.27796">
        <ele>1234.8</ele>
        <time>2021-06-12T08:33:48Z</time>
        <extensions>
          <gpxtpx:TrackPointExtension xmlns:gpxtpx="http://www.garmin.com/xmlschemas/TrackPointExtension/v1">
            <gpxtpx:hr>150</gpxtpx:hr>
          </gpxtpx:TrackPointExtension>
        </extensions>
      </trkpt>
      <trkpt lat="44.15535" lon="5.27797">
        <ele>1235.2</ele>
        <time>2021-06-12T08:33:51Z</time>
        <extensions>
          <gpxtpx:TrackPointExtension xmlns:gpxtpx="http://www.garmin.com/xmlschemas/TrackPointExtension/v1">
            <gpxtpx:hr>149</gpxtpx:hr>
          </gpxtpx:TrackPointExtension>
        </extensions>
      </trkpt>
      <trkpt lat="44.15537" lon="5.27798">
        <ele>1235.4</ele>
        <time>2021-06-12T08:33:52Z</time>
        <extensions>
          <gpxtpx:TrackPointExtension xmlns:gpxtpx="http://www.garmin.com/xmlschemas/TrackPointExtension/v1">
            <gpxtpx:hr>149</gpxtpx:hr>
          </gpxtpx:TrackPointExtension>
        </extensions>
      </trkpt>
      <trkpt lat="44.1554" lon="5.27804">
        <ele>1236.4</ele>
        <time>2021-06-12T08:33:57Z</time>
        <extensions>
          <gpxtpx:TrackPointExtension xmlns:gpxtpx="http://www.garmin.com/xmlschemas/TrackPointExtension/v1">
            <gpxtpx:hr>148</gpxtpx:hr>
          </gpxtpx:TrackPointExtension>
        </extensions>
      </trkpt>
      <trkpt lat="44.15547" lon="5.27812">
        <ele>1237.4</ele>
        <time>2021-06-12T08:34:04Z</time>
        <extensions>
          <gpxtpx:TrackPointExtension xmlns:gpxtpx="http://www.garmin.com/xmlschemas/TrackPointExtension/v1">
            <gpxtpx:hr>147</gpxtpx:hr>
          </gpxtpx:TrackPointExtension>
        </extensions>
      </trkpt>
      <trkpt lat="44.1555" lon="5.27818">
        <ele>1238.4</ele>
        <time>2021-06-12T08:34:09Z</time>
        <extensions>
          <gpxtpx:TrackPointExtension xmlns:gpxtpx="http://www.garmin.com/xmlschemas/TrackPointExtension/v1">
            <gpxtpx:hr>148</gpxtpx:hr>
          </gpxtpx:TrackPointExtension>
        </extensions>
      </trkpt>
      <trkpt lat="44.15551" lon="5.27819">
        <ele>1238.6</ele>
        <time>2021-06-12T08:34:10Z</time>
        <extensions>
          <gpxtpx:TrackPointExtension xmlns:gpxtpx="http://www.garmin.com/xmlschemas/TrackPointExtension/v1">
            <gpxtpx:hr>148</gpxtpx:hr>
          </gpxtpx:TrackPointExtension>
        </extensions>
      </trkpt>
      <trkpt lat="44.15555" lon="5.2782">
        <ele>1239.2</ele>
        <time>2021-06-12T08:34:14Z</time>
        <extensions>
          <gpxtpx:TrackPointExtension xmlns:gpxtpx="http://www.garmin.com/xmlschemas/TrackPointExtension/v1">
            <gpxtpx:hr>148</gpxtpx:hr>
          </gpxtpx:TrackPointExtension>
        </extensions>
      </trkpt>
      <trkpt lat="44.15558" lon="5.27821">
        <ele>1239.8</ele>
        <time>2021-06-12T08:34:17Z</time>
        <extensions>
          <gpxtpx:TrackPointExtension xmlns:gpxtpx="http://www.garmin.com/xmlschemas/TrackPointExtension/v1">
            <gpxtpx:hr>148</gpxtpx:hr>
          </gpxtpx:TrackPointExtension>
        </extensions>
      </trkpt>
      <trkpt lat="44.15563" lon="5.27821">
        <ele>1240.4</ele>
        <time>2021-06-12T08:34:21Z</time>
        <extensions>
          <gpxtpx:TrackPointExtension xmlns:gpxtpx="http://www.garmin.com/xmlschemas/TrackPointExtension/v1">
            <gpxtpx:hr>148</gpxtpx:hr>
          </gpxtpx:TrackPointExtension>
        </extensions>
      </trkpt>
      <trkpt lat="44.15565" lon="5.2782">
        <ele>1240.8</ele>
        <time>2021-06-12T08:34:24Z</time>
        <extensions>
          <gpxtpx:TrackPointExtension xmlns:gpxtpx="http://www.garmin.com/xmlschemas/TrackPointExtension/v1">
            <gpxtpx:hr>147</gpxtpx:hr>
          </gpxtpx:TrackPointExtension>
        </extensions>
      </trkpt>
      <trkpt lat="44.15567" lon="5.27823">
        <ele>1241.4</ele>
        <time>2021-06-12T08:34:27Z</time>
        <extensions>
          <gpxtpx:TrackPointExtension xmlns:gpxtpx="http://www.garmin.com/xmlschemas/TrackPointExtension/v1">
            <gpxtpx:hr>145</gpxtpx:hr>
          </gpxtpx:TrackPointExtension>
        </extensions>
      </trkpt>
      <trkpt lat="44.15569" lon="5.27824">
        <ele>1241.8</ele>
        <time>2021-06-12T08:34:29Z</time>
        <extensions>
          <gpxtpx:TrackPointExtension xmlns:gpxtpx="http://www.garmin.com/xmlschemas/TrackPointExtension/v1">
            <gpxtpx:hr>145</gpxtpx:hr>
          </gpxtpx:TrackPointExtension>
        </extensions>
      </trkpt>
      <trkpt lat="44.15574" lon="5.27826">
        <ele>1242.6</ele>
        <time>2021-06-12T08:34:33Z</time>
        <extensions>
          <gpxtpx:TrackPointExtension xmlns:gpxtpx="http://www.garmin.com/xmlschemas/TrackPointExtension/v1">
            <gpxtpx:hr>144</gpxtpx:hr>
          </gpxtpx:TrackPointExtension>
        </extensions>
      </trkpt>
      <trkpt lat="44.15576" lon="5.27827">
        <ele>1242.8</ele>
        <time>2021-06-12T08:34:34Z</time>
        <extensions>
          <gpxtpx:TrackPointExtension xmlns:gpxtpx="http://www.garmin.com/xmlschemas/TrackPointExtension/v1">
            <gpxtpx:hr>144</gpxtpx:hr>
          </gpxtpx:TrackPointExtension>
        </extensions>
      </trkpt>
      <trkpt lat="44.15578" lon="5.27826">
        <ele>1243</ele>
        <time>2021-06-12T08:34:36Z</time>
        <extensions>
          <gpxtpx:TrackPointExtension xmlns:gpxtpx="http://www.garmin.com/xmlschemas/TrackPointExtension/v1">
            <gpxtpx:hr>144</gpxtpx:hr>
          </gpxtpx:TrackPointExtension>
        </extensions>
      </trkpt>
      <trkpt lat="44.15583" lon="5.27831">
        <ele>1244</ele>
        <time>2021-06-12T08:34:42Z</time>
        <extensions>
          <gpxtpx:TrackPointExtension xmlns:gpxtpx="http://www.garmin.com/xmlschemas/TrackPointExtension/v1">
            <gpxtpx:hr>144</gpxtpx:hr>
          </gpxtpx:TrackPointExtension>
        </extensions>
      </trkpt>
      <trkpt lat="44.15589" lon="5.27831">
        <ele>1245.2</ele>
        <time>2021-06-12T08:34:48Z</time>
        <extensions>
          <gpxtpx:TrackPointExtension xmlns:gpxtpx="http://www.garmin.com/xmlschemas/TrackPointExtension/v1">
            <gpxtpx:hr>147</gpxtpx:hr>
          </gpxtpx:TrackPointExtension>
        </extensions>
      </trkpt>
      <trkpt lat="44.15592" lon="5.27833">
        <ele>1246.2</ele>
        <time>2021-06-12T08:34:53Z</time>
        <extensions>
          <gpxtpx:TrackPointExtension xmlns:gpxtpx="http://www.garmin.com/xmlschemas/TrackPointExtension/v1">
            <gpxtpx:hr>146</gpxtpx:hr>
          </gpxtpx:TrackPointExtension>
        </extensions>
      </trkpt>
      <trkpt lat="44.15593" lon="5.27833">
        <ele>1246.4</ele>
        <time>2021-06-12T08:34:54Z</time>
        <extensions>
          <gpxtpx:TrackPointExtension xmlns:gpxtpx="http://www.garmin.com/xmlschemas/TrackPointExtension/v1">
            <gpxtpx:hr>146</gpxtpx:hr>
          </gpxtpx:TrackPointExtension>
        </extensions>
      </trkpt>
      <trkpt lat="44.15599" lon="5.27838">
        <ele>1247.2</ele>
        <time>2021-06-12T08:34:59Z</time>
        <extensions>
          <gpxtpx:TrackPointExtension xmlns:gpxtpx="http://www.garmin.com/xmlschemas/TrackPointExtension/v1">
            <gpxtpx:hr>145</gpxtpx:hr>
          </gpxtpx:TrackPointExtension>
        </extensions>
      </trkpt>
      <trkpt lat="44.156" lon="5.27839">
        <ele>1247.4</ele>
        <time>2021-06-12T08:35:00Z</time>
        <extensions>
          <gpxtpx:TrackPointExtension xmlns:gpxtpx="http://www.garmin.com/xmlschemas/TrackPointExtension/v1">
            <gpxtpx:hr>146</gpxtpx:hr>
          </gpxtpx:TrackPointExtension>
        </extensions>
      </trkpt>
      <trkpt lat="44.15602" lon="5.27842">
        <ele>1247.8</ele>
        <time>2021-06-12T08:35:03Z</time>
        <extensions>
          <gpxtpx:TrackPointExtension xmlns:gpxtpx="http://www.garmin.com/xmlschemas/TrackPointExtension/v1">
            <gpxtpx:hr>146</gpxtpx:hr>
          </gpxtpx:TrackPointExtension>
        </extensions>
      </trkpt>
      <trkpt lat="44.15606" lon="5.27846">
        <ele>1248.2</ele>
        <time>2021-06-12T08:35:06Z</time>
        <extensions>
          <gpxtpx:TrackPointExtension xmlns:gpxtpx="http://www.garmin.com/xmlschemas/TrackPointExtension/v1">
            <gpxtpx:hr>146</gpxtpx:hr>
          </gpxtpx:TrackPointExtension>
        </extensions>
      </trkpt>
      <trkpt lat="44.15607" lon="5.27847">
        <ele>1248.4</ele>
        <time>2021-06-12T08:35:07Z</time>
        <extensions>
          <gpxtpx:TrackPointExtension xmlns:gpxtpx="http://www.garmin.com/xmlschemas/TrackPointExtension/v1">
            <gpxtpx:hr>147</gpxtpx:hr>
          </gpxtpx:TrackPointExtension>
        </extensions>
      </trkpt>
      <trkpt lat="44.15608" lon="5.27848">
        <ele>1248.8</ele>
        <time>2021-06-12T08:35:09Z</time>
        <extensions>
          <gpxtpx:TrackPointExtension xmlns:gpxtpx="http://www.garmin.com/xmlschemas/TrackPointExtension/v1">
            <gpxtpx:hr>146</gpxtpx:hr>
          </gpxtpx:TrackPointExtension>
        </extensions>
      </trkpt>
      <trkpt lat="44.15612" lon="5.27853">
        <ele>1249.6</ele>
        <time>2021-06-12T08:35:13Z</time>
        <extensions>
          <gpxtpx:TrackPointExtension xmlns:gpxtpx="http://www.garmin.com/xmlschemas/TrackPointExtension/v1">
            <gpxtpx:hr>147</gpxtpx:hr>
          </gpxtpx:TrackPointExtension>
        </extensions>
      </trkpt>
      <trkpt lat="44.15613" lon="5.27854">
        <ele>1249.8</ele>
        <time>2021-06-12T08:35:15Z</time>
        <extensions>
          <gpxtpx:TrackPointExtension xmlns:gpxtpx="http://www.garmin.com/xmlschemas/TrackPointExtension/v1">
            <gpxtpx:hr>148</gpxtpx:hr>
          </gpxtpx:TrackPointExtension>
        </extensions>
      </trkpt>
      <trkpt lat="44.15618" lon="5.27858">
        <ele>1250.6</ele>
        <time>2021-06-12T08:35:21Z</time>
        <extensions>
          <gpxtpx:TrackPointExtension xmlns:gpxtpx="http://www.garmin.com/xmlschemas/TrackPointExtension/v1">
            <gpxtpx:hr>146</gpxtpx:hr>
          </gpxtpx:TrackPointExtension>
        </extensions>
      </trkpt>
      <trkpt lat="44.15618" lon="5.27858">
        <ele>1250.8</ele>
        <time>2021-06-12T08:35:22Z</time>
        <extensions>
          <gpxtpx:TrackPointExtension xmlns:gpxtpx="http://www.garmin.com/xmlschemas/TrackPointExtension/v1">
            <gpxtpx:hr>145</gpxtpx:hr>
          </gpxtpx:TrackPointExtension>
        </extensions>
      </trkpt>
      <trkpt lat="44.15622" lon="5.27859">
        <ele>1251.2</ele>
        <time>2021-06-12T08:35:24Z</time>
        <extensions>
          <gpxtpx:TrackPointExtension xmlns:gpxtpx="http://www.garmin.com/xmlschemas/TrackPointExtension/v1">
            <gpxtpx:hr>146</gpxtpx:hr>
          </gpxtpx:TrackPointExtension>
        </extensions>
      </trkpt>
      <trkpt lat="44.15625" lon="5.27859">
        <ele>1251.2</ele>
        <time>2021-06-12T08:35:25Z</time>
        <extensions>
          <gpxtpx:TrackPointExtension xmlns:gpxtpx="http://www.garmin.com/xmlschemas/TrackPointExtension/v1">
            <gpxtpx:hr>149</gpxtpx:hr>
          </gpxtpx:TrackPointExtension>
        </extensions>
      </trkpt>
      <trkpt lat="44.15629" lon="5.27861">
        <ele>1251.6</ele>
        <time>2021-06-12T08:35:28Z</time>
        <extensions>
          <gpxtpx:TrackPointExtension xmlns:gpxtpx="http://www.garmin.com/xmlschemas/TrackPointExtension/v1">
            <gpxtpx:hr>146</gpxtpx:hr>
          </gpxtpx:TrackPointExtension>
        </extensions>
      </trkpt>
      <trkpt lat="44.15633" lon="5.27862">
        <ele>1252</ele>
        <time>2021-06-12T08:35:31Z</time>
        <extensions>
          <gpxtpx:TrackPointExtension xmlns:gpxtpx="http://www.garmin.com/xmlschemas/TrackPointExtension/v1">
            <gpxtpx:hr>146</gpxtpx:hr>
          </gpxtpx:TrackPointExtension>
        </extensions>
      </trkpt>
      <trkpt lat="44.15638" lon="5.27864">
        <ele>1252.8</ele>
        <time>2021-06-12T08:35:35Z</time>
        <extensions>
          <gpxtpx:TrackPointExtension xmlns:gpxtpx="http://www.garmin.com/xmlschemas/TrackPointExtension/v1">
            <gpxtpx:hr>145</gpxtpx:hr>
          </gpxtpx:TrackPointExtension>
        </extensions>
      </trkpt>
      <trkpt lat="44.1564" lon="5.27865">
        <ele>1253.2</ele>
        <time>2021-06-12T08:35:37Z</time>
        <extensions>
          <gpxtpx:TrackPointExtension xmlns:gpxtpx="http://www.garmin.com/xmlschemas/TrackPointExtension/v1">
            <gpxtpx:hr>145</gpxtpx:hr>
          </gpxtpx:TrackPointExtension>
        </extensions>
      </trkpt>
      <trkpt lat="44.15644" lon="5.27865">
        <ele>1253.6</ele>
        <time>2021-06-12T08:35:41Z</time>
        <extensions>
          <gpxtpx:TrackPointExtension xmlns:gpxtpx="http://www.garmin.com/xmlschemas/TrackPointExtension/v1">
            <gpxtpx:hr>145</gpxtpx:hr>
          </gpxtpx:TrackPointExtension>
        </extensions>
      </trkpt>
      <trkpt lat="44.15644" lon="5.27866">
        <ele>1253.8</ele>
        <time>2021-06-12T08:35:42Z</time>
        <extensions>
          <gpxtpx:TrackPointExtension xmlns:gpxtpx="http://www.garmin.com/xmlschemas/TrackPointExtension/v1">
            <gpxtpx:hr>145</gpxtpx:hr>
          </gpxtpx:TrackPointExtension>
        </extensions>
      </trkpt>
      <trkpt lat="44.15646" lon="5.27867">
        <ele>1254.2</ele>
        <time>2021-06-12T08:35:44Z</time>
        <extensions>
          <gpxtpx:TrackPointExtension xmlns:gpxtpx="http://www.garmin.com/xmlschemas/TrackPointExtension/v1">
            <gpxtpx:hr>145</gpxtpx:hr>
          </gpxtpx:TrackPointExtension>
        </extensions>
      </trkpt>
      <trkpt lat="44.1565" lon="5.27867">
        <ele>1255</ele>
        <time>2021-06-12T08:35:49Z</time>
        <extensions>
          <gpxtpx:TrackPointExtension xmlns:gpxtpx="http://www.garmin.com/xmlschemas/TrackPointExtension/v1">
            <gpxtpx:hr>145</gpxtpx:hr>
          </gpxtpx:TrackPointExtension>
        </extensions>
      </trkpt>
      <trkpt lat="44.15651" lon="5.27868">
        <ele>1255.2</ele>
        <time>2021-06-12T08:35:50Z</time>
        <extensions>
          <gpxtpx:TrackPointExtension xmlns:gpxtpx="http://www.garmin.com/xmlschemas/TrackPointExtension/v1">
            <gpxtpx:hr>146</gpxtpx:hr>
          </gpxtpx:TrackPointExtension>
        </extensions>
      </trkpt>
      <trkpt lat="44.15659" lon="5.27875">
        <ele>1256.2</ele>
        <time>2021-06-12T08:35:56Z</time>
        <extensions>
          <gpxtpx:TrackPointExtension xmlns:gpxtpx="http://www.garmin.com/xmlschemas/TrackPointExtension/v1">
            <gpxtpx:hr>146</gpxtpx:hr>
          </gpxtpx:TrackPointExtension>
        </extensions>
      </trkpt>
      <trkpt lat="44.15664" lon="5.27878">
        <ele>1256.8</ele>
        <time>2021-06-12T08:36:01Z</time>
        <extensions>
          <gpxtpx:TrackPointExtension xmlns:gpxtpx="http://www.garmin.com/xmlschemas/TrackPointExtension/v1">
            <gpxtpx:hr>144</gpxtpx:hr>
          </gpxtpx:TrackPointExtension>
        </extensions>
      </trkpt>
      <trkpt lat="44.15667" lon="5.27879">
        <ele>1257.2</ele>
        <time>2021-06-12T08:36:03Z</time>
        <extensions>
          <gpxtpx:TrackPointExtension xmlns:gpxtpx="http://www.garmin.com/xmlschemas/TrackPointExtension/v1">
            <gpxtpx:hr>143</gpxtpx:hr>
          </gpxtpx:TrackPointExtension>
        </extensions>
      </trkpt>
      <trkpt lat="44.1567" lon="5.27881">
        <ele>1257.8</ele>
        <time>2021-06-12T08:36:06Z</time>
        <extensions>
          <gpxtpx:TrackPointExtension xmlns:gpxtpx="http://www.garmin.com/xmlschemas/TrackPointExtension/v1">
            <gpxtpx:hr>145</gpxtpx:hr>
          </gpxtpx:TrackPointExtension>
        </extensions>
      </trkpt>
      <trkpt lat="44.15671" lon="5.27884">
        <ele>1258.2</ele>
        <time>2021-06-12T08:36:09Z</time>
        <extensions>
          <gpxtpx:TrackPointExtension xmlns:gpxtpx="http://www.garmin.com/xmlschemas/TrackPointExtension/v1">
            <gpxtpx:hr>143</gpxtpx:hr>
          </gpxtpx:TrackPointExtension>
        </extensions>
      </trkpt>
      <trkpt lat="44.15674" lon="5.27891">
        <ele>1258.8</ele>
        <time>2021-06-12T08:36:12Z</time>
        <extensions>
          <gpxtpx:TrackPointExtension xmlns:gpxtpx="http://www.garmin.com/xmlschemas/TrackPointExtension/v1">
            <gpxtpx:hr>144</gpxtpx:hr>
          </gpxtpx:TrackPointExtension>
        </extensions>
      </trkpt>
      <trkpt lat="44.15676" lon="5.27894">
        <ele>1259.2</ele>
        <time>2021-06-12T08:36:15Z</time>
        <extensions>
          <gpxtpx:TrackPointExtension xmlns:gpxtpx="http://www.garmin.com/xmlschemas/TrackPointExtension/v1">
            <gpxtpx:hr>144</gpxtpx:hr>
          </gpxtpx:TrackPointExtension>
        </extensions>
      </trkpt>
      <trkpt lat="44.15678" lon="5.27895">
        <ele>1259.4</ele>
        <time>2021-06-12T08:36:17Z</time>
        <extensions>
          <gpxtpx:TrackPointExtension xmlns:gpxtpx="http://www.garmin.com/xmlschemas/TrackPointExtension/v1">
            <gpxtpx:hr>145</gpxtpx:hr>
          </gpxtpx:TrackPointExtension>
        </extensions>
      </trkpt>
      <trkpt lat="44.15683" lon="5.27897">
        <ele>1260.4</ele>
        <time>2021-06-12T08:36:21Z</time>
        <extensions>
          <gpxtpx:TrackPointExtension xmlns:gpxtpx="http://www.garmin.com/xmlschemas/TrackPointExtension/v1">
            <gpxtpx:hr>147</gpxtpx:hr>
          </gpxtpx:TrackPointExtension>
        </extensions>
      </trkpt>
      <trkpt lat="44.15687" lon="5.27898">
        <ele>1261.2</ele>
        <time>2021-06-12T08:36:25Z</time>
        <extensions>
          <gpxtpx:TrackPointExtension xmlns:gpxtpx="http://www.garmin.com/xmlschemas/TrackPointExtension/v1">
            <gpxtpx:hr>147</gpxtpx:hr>
          </gpxtpx:TrackPointExtension>
        </extensions>
      </trkpt>
      <trkpt lat="44.15689" lon="5.27899">
        <ele>1261.6</ele>
        <time>2021-06-12T08:36:27Z</time>
        <extensions>
          <gpxtpx:TrackPointExtension xmlns:gpxtpx="http://www.garmin.com/xmlschemas/TrackPointExtension/v1">
            <gpxtpx:hr>148</gpxtpx:hr>
          </gpxtpx:TrackPointExtension>
        </extensions>
      </trkpt>
      <trkpt lat="44.15695" lon="5.27903">
        <ele>1262</ele>
        <time>2021-06-12T08:36:31Z</time>
        <extensions>
          <gpxtpx:TrackPointExtension xmlns:gpxtpx="http://www.garmin.com/xmlschemas/TrackPointExtension/v1">
            <gpxtpx:hr>148</gpxtpx:hr>
          </gpxtpx:TrackPointExtension>
        </extensions>
      </trkpt>
      <trkpt lat="44.15697" lon="5.27905">
        <ele>1262.4</ele>
        <time>2021-06-12T08:36:33Z</time>
        <extensions>
          <gpxtpx:TrackPointExtension xmlns:gpxtpx="http://www.garmin.com/xmlschemas/TrackPointExtension/v1">
            <gpxtpx:hr>148</gpxtpx:hr>
          </gpxtpx:TrackPointExtension>
        </extensions>
      </trkpt>
      <trkpt lat="44.15698" lon="5.27905">
        <ele>1262.6</ele>
        <time>2021-06-12T08:36:34Z</time>
        <extensions>
          <gpxtpx:TrackPointExtension xmlns:gpxtpx="http://www.garmin.com/xmlschemas/TrackPointExtension/v1">
            <gpxtpx:hr>149</gpxtpx:hr>
          </gpxtpx:TrackPointExtension>
        </extensions>
      </trkpt>
      <trkpt lat="44.157" lon="5.27907">
        <ele>1262.8</ele>
        <time>2021-06-12T08:36:36Z</time>
        <extensions>
          <gpxtpx:TrackPointExtension xmlns:gpxtpx="http://www.garmin.com/xmlschemas/TrackPointExtension/v1">
            <gpxtpx:hr>150</gpxtpx:hr>
          </gpxtpx:TrackPointExtension>
        </extensions>
      </trkpt>
      <trkpt lat="44.15701" lon="5.27909">
        <ele>1263</ele>
        <time>2021-06-12T08:36:37Z</time>
        <extensions>
          <gpxtpx:TrackPointExtension xmlns:gpxtpx="http://www.garmin.com/xmlschemas/TrackPointExtension/v1">
            <gpxtpx:hr>150</gpxtpx:hr>
          </gpxtpx:TrackPointExtension>
        </extensions>
      </trkpt>
      <trkpt lat="44.15704" lon="5.2791">
        <ele>1263.6</ele>
        <time>2021-06-12T08:36:40Z</time>
        <extensions>
          <gpxtpx:TrackPointExtension xmlns:gpxtpx="http://www.garmin.com/xmlschemas/TrackPointExtension/v1">
            <gpxtpx:hr>150</gpxtpx:hr>
          </gpxtpx:TrackPointExtension>
        </extensions>
      </trkpt>
      <trkpt lat="44.15709" lon="5.27911">
        <ele>1264</ele>
        <time>2021-06-12T08:36:43Z</time>
        <extensions>
          <gpxtpx:TrackPointExtension xmlns:gpxtpx="http://www.garmin.com/xmlschemas/TrackPointExtension/v1">
            <gpxtpx:hr>150</gpxtpx:hr>
          </gpxtpx:TrackPointExtension>
        </extensions>
      </trkpt>
      <trkpt lat="44.15711" lon="5.27911">
        <ele>1264.4</ele>
        <time>2021-06-12T08:36:45Z</time>
        <extensions>
          <gpxtpx:TrackPointExtension xmlns:gpxtpx="http://www.garmin.com/xmlschemas/TrackPointExtension/v1">
            <gpxtpx:hr>150</gpxtpx:hr>
          </gpxtpx:TrackPointExtension>
        </extensions>
      </trkpt>
      <trkpt lat="44.15712" lon="5.27912">
        <ele>1264.6</ele>
        <time>2021-06-12T08:36:46Z</time>
        <extensions>
          <gpxtpx:TrackPointExtension xmlns:gpxtpx="http://www.garmin.com/xmlschemas/TrackPointExtension/v1">
            <gpxtpx:hr>149</gpxtpx:hr>
          </gpxtpx:TrackPointExtension>
        </extensions>
      </trkpt>
      <trkpt lat="44.15713" lon="5.27912">
        <ele>1264.8</ele>
        <time>2021-06-12T08:36:47Z</time>
        <extensions>
          <gpxtpx:TrackPointExtension xmlns:gpxtpx="http://www.garmin.com/xmlschemas/TrackPointExtension/v1">
            <gpxtpx:hr>149</gpxtpx:hr>
          </gpxtpx:TrackPointExtension>
        </extensions>
      </trkpt>
      <trkpt lat="44.15716" lon="5.27912">
        <ele>1265.4</ele>
        <time>2021-06-12T08:36:51Z</time>
        <extensions>
          <gpxtpx:TrackPointExtension xmlns:gpxtpx="http://www.garmin.com/xmlschemas/TrackPointExtension/v1">
            <gpxtpx:hr>149</gpxtpx:hr>
          </gpxtpx:TrackPointExtension>
        </extensions>
      </trkpt>
      <trkpt lat="44.15718" lon="5.27912">
        <ele>1265.8</ele>
        <time>2021-06-12T08:36:53Z</time>
        <extensions>
          <gpxtpx:TrackPointExtension xmlns:gpxtpx="http://www.garmin.com/xmlschemas/TrackPointExtension/v1">
            <gpxtpx:hr>149</gpxtpx:hr>
          </gpxtpx:TrackPointExtension>
        </extensions>
      </trkpt>
      <trkpt lat="44.15723" lon="5.27915">
        <ele>1266.8</ele>
        <time>2021-06-12T08:37:00Z</time>
        <extensions>
          <gpxtpx:TrackPointExtension xmlns:gpxtpx="http://www.garmin.com/xmlschemas/TrackPointExtension/v1">
            <gpxtpx:hr>148</gpxtpx:hr>
          </gpxtpx:TrackPointExtension>
        </extensions>
      </trkpt>
      <trkpt lat="44.1573" lon="5.27923">
        <ele>1267.8</ele>
        <time>2021-06-12T08:37:07Z</time>
        <extensions>
          <gpxtpx:TrackPointExtension xmlns:gpxtpx="http://www.garmin.com/xmlschemas/TrackPointExtension/v1">
            <gpxtpx:hr>145</gpxtpx:hr>
          </gpxtpx:TrackPointExtension>
        </extensions>
      </trkpt>
      <trkpt lat="44.15731" lon="5.27923">
        <ele>1268</ele>
        <time>2021-06-12T08:37:08Z</time>
        <extensions>
          <gpxtpx:TrackPointExtension xmlns:gpxtpx="http://www.garmin.com/xmlschemas/TrackPointExtension/v1">
            <gpxtpx:hr>144</gpxtpx:hr>
          </gpxtpx:TrackPointExtension>
        </extensions>
      </trkpt>
      <trkpt lat="44.15734" lon="5.27928">
        <ele>1268.8</ele>
        <time>2021-06-12T08:37:13Z</time>
        <extensions>
          <gpxtpx:TrackPointExtension xmlns:gpxtpx="http://www.garmin.com/xmlschemas/TrackPointExtension/v1">
            <gpxtpx:hr>146</gpxtpx:hr>
          </gpxtpx:TrackPointExtension>
        </extensions>
      </trkpt>
      <trkpt lat="44.15738" lon="5.2793">
        <ele>1269.8</ele>
        <time>2021-06-12T08:37:19Z</time>
        <extensions>
          <gpxtpx:TrackPointExtension xmlns:gpxtpx="http://www.garmin.com/xmlschemas/TrackPointExtension/v1">
            <gpxtpx:hr>145</gpxtpx:hr>
          </gpxtpx:TrackPointExtension>
        </extensions>
      </trkpt>
      <trkpt lat="44.15739" lon="5.27931">
        <ele>1270</ele>
        <time>2021-06-12T08:37:20Z</time>
        <extensions>
          <gpxtpx:TrackPointExtension xmlns:gpxtpx="http://www.garmin.com/xmlschemas/TrackPointExtension/v1">
            <gpxtpx:hr>143</gpxtpx:hr>
          </gpxtpx:TrackPointExtension>
        </extensions>
      </trkpt>
      <trkpt lat="44.15744" lon="5.27934">
        <ele>1270.6</ele>
        <time>2021-06-12T08:37:24Z</time>
        <extensions>
          <gpxtpx:TrackPointExtension xmlns:gpxtpx="http://www.garmin.com/xmlschemas/TrackPointExtension/v1">
            <gpxtpx:hr>141</gpxtpx:hr>
          </gpxtpx:TrackPointExtension>
        </extensions>
      </trkpt>
      <trkpt lat="44.15747" lon="5.27933">
        <ele>1271.2</ele>
        <time>2021-06-12T08:37:27Z</time>
        <extensions>
          <gpxtpx:TrackPointExtension xmlns:gpxtpx="http://www.garmin.com/xmlschemas/TrackPointExtension/v1">
            <gpxtpx:hr>139</gpxtpx:hr>
          </gpxtpx:TrackPointExtension>
        </extensions>
      </trkpt>
      <trkpt lat="44.15747" lon="5.27934">
        <ele>1271.2</ele>
        <time>2021-06-12T08:37:28Z</time>
        <extensions>
          <gpxtpx:TrackPointExtension xmlns:gpxtpx="http://www.garmin.com/xmlschemas/TrackPointExtension/v1">
            <gpxtpx:hr>140</gpxtpx:hr>
          </gpxtpx:TrackPointExtension>
        </extensions>
      </trkpt>
      <trkpt lat="44.15751" lon="5.27935">
        <ele>1271.6</ele>
        <time>2021-06-12T08:37:30Z</time>
        <extensions>
          <gpxtpx:TrackPointExtension xmlns:gpxtpx="http://www.garmin.com/xmlschemas/TrackPointExtension/v1">
            <gpxtpx:hr>140</gpxtpx:hr>
          </gpxtpx:TrackPointExtension>
        </extensions>
      </trkpt>
      <trkpt lat="44.15752" lon="5.27936">
        <ele>1271.8</ele>
        <time>2021-06-12T08:37:31Z</time>
        <extensions>
          <gpxtpx:TrackPointExtension xmlns:gpxtpx="http://www.garmin.com/xmlschemas/TrackPointExtension/v1">
            <gpxtpx:hr>141</gpxtpx:hr>
          </gpxtpx:TrackPointExtension>
        </extensions>
      </trkpt>
      <trkpt lat="44.15753" lon="5.27939">
        <ele>1272</ele>
        <time>2021-06-12T08:37:32Z</time>
        <extensions>
          <gpxtpx:TrackPointExtension xmlns:gpxtpx="http://www.garmin.com/xmlschemas/TrackPointExtension/v1">
            <gpxtpx:hr>141</gpxtpx:hr>
          </gpxtpx:TrackPointExtension>
        </extensions>
      </trkpt>
      <trkpt lat="44.15754" lon="5.27941">
        <ele>1272.2</ele>
        <time>2021-06-12T08:37:33Z</time>
        <extensions>
          <gpxtpx:TrackPointExtension xmlns:gpxtpx="http://www.garmin.com/xmlschemas/TrackPointExtension/v1">
            <gpxtpx:hr>141</gpxtpx:hr>
          </gpxtpx:TrackPointExtension>
        </extensions>
      </trkpt>
      <trkpt lat="44.1576" lon="5.27941">
        <ele>1273.4</ele>
        <time>2021-06-12T08:37:39Z</time>
        <extensions>
          <gpxtpx:TrackPointExtension xmlns:gpxtpx="http://www.garmin.com/xmlschemas/TrackPointExtension/v1">
            <gpxtpx:hr>141</gpxtpx:hr>
          </gpxtpx:TrackPointExtension>
        </extensions>
      </trkpt>
      <trkpt lat="44.15763" lon="5.27941">
        <ele>1273.6</ele>
        <time>2021-06-12T08:37:41Z</time>
        <extensions>
          <gpxtpx:TrackPointExtension xmlns:gpxtpx="http://www.garmin.com/xmlschemas/TrackPointExtension/v1">
            <gpxtpx:hr>141</gpxtpx:hr>
          </gpxtpx:TrackPointExtension>
        </extensions>
      </trkpt>
      <trkpt lat="44.15763" lon="5.27941">
        <ele>1273.8</ele>
        <time>2021-06-12T08:37:42Z</time>
        <extensions>
          <gpxtpx:TrackPointExtension xmlns:gpxtpx="http://www.garmin.com/xmlschemas/TrackPointExtension/v1">
            <gpxtpx:hr>141</gpxtpx:hr>
          </gpxtpx:TrackPointExtension>
        </extensions>
      </trkpt>
      <trkpt lat="44.15765" lon="5.27941">
        <ele>1274</ele>
        <time>2021-06-12T08:37:44Z</time>
        <extensions>
          <gpxtpx:TrackPointExtension xmlns:gpxtpx="http://www.garmin.com/xmlschemas/TrackPointExtension/v1">
            <gpxtpx:hr>140</gpxtpx:hr>
          </gpxtpx:TrackPointExtension>
        </extensions>
      </trkpt>
      <trkpt lat="44.15768" lon="5.2794">
        <ele>1274.4</ele>
        <time>2021-06-12T08:37:47Z</time>
        <extensions>
          <gpxtpx:TrackPointExtension xmlns:gpxtpx="http://www.garmin.com/xmlschemas/TrackPointExtension/v1">
            <gpxtpx:hr>141</gpxtpx:hr>
          </gpxtpx:TrackPointExtension>
        </extensions>
      </trkpt>
      <trkpt lat="44.15775" lon="5.2794">
        <ele>1275.2</ele>
        <time>2021-06-12T08:37:53Z</time>
        <extensions>
          <gpxtpx:TrackPointExtension xmlns:gpxtpx="http://www.garmin.com/xmlschemas/TrackPointExtension/v1">
            <gpxtpx:hr>141</gpxtpx:hr>
          </gpxtpx:TrackPointExtension>
        </extensions>
      </trkpt>
      <trkpt lat="44.15778" lon="5.27942">
        <ele>1275.4</ele>
        <time>2021-06-12T08:37:55Z</time>
        <extensions>
          <gpxtpx:TrackPointExtension xmlns:gpxtpx="http://www.garmin.com/xmlschemas/TrackPointExtension/v1">
            <gpxtpx:hr>142</gpxtpx:hr>
          </gpxtpx:TrackPointExtension>
        </extensions>
      </trkpt>
      <trkpt lat="44.15783" lon="5.27945">
        <ele>1275.8</ele>
        <time>2021-06-12T08:37:58Z</time>
        <extensions>
          <gpxtpx:TrackPointExtension xmlns:gpxtpx="http://www.garmin.com/xmlschemas/TrackPointExtension/v1">
            <gpxtpx:hr>142</gpxtpx:hr>
          </gpxtpx:TrackPointExtension>
        </extensions>
      </trkpt>
      <trkpt lat="44.15785" lon="5.27947">
        <ele>1276</ele>
        <time>2021-06-12T08:37:59Z</time>
        <extensions>
          <gpxtpx:TrackPointExtension xmlns:gpxtpx="http://www.garmin.com/xmlschemas/TrackPointExtension/v1">
            <gpxtpx:hr>142</gpxtpx:hr>
          </gpxtpx:TrackPointExtension>
        </extensions>
      </trkpt>
      <trkpt lat="44.1579" lon="5.27952">
        <ele>1276.6</ele>
        <time>2021-06-12T08:38:02Z</time>
        <extensions>
          <gpxtpx:TrackPointExtension xmlns:gpxtpx="http://www.garmin.com/xmlschemas/TrackPointExtension/v1">
            <gpxtpx:hr>143</gpxtpx:hr>
          </gpxtpx:TrackPointExtension>
        </extensions>
      </trkpt>
      <trkpt lat="44.15792" lon="5.27954">
        <ele>1277</ele>
        <time>2021-06-12T08:38:04Z</time>
        <extensions>
          <gpxtpx:TrackPointExtension xmlns:gpxtpx="http://www.garmin.com/xmlschemas/TrackPointExtension/v1">
            <gpxtpx:hr>143</gpxtpx:hr>
          </gpxtpx:TrackPointExtension>
        </extensions>
      </trkpt>
      <trkpt lat="44.15796" lon="5.27956">
        <ele>1277.4</ele>
        <time>2021-06-12T08:38:07Z</time>
        <extensions>
          <gpxtpx:TrackPointExtension xmlns:gpxtpx="http://www.garmin.com/xmlschemas/TrackPointExtension/v1">
            <gpxtpx:hr>143</gpxtpx:hr>
          </gpxtpx:TrackPointExtension>
        </extensions>
      </trkpt>
      <trkpt lat="44.15797" lon="5.27958">
        <ele>1277.8</ele>
        <time>2021-06-12T08:38:09Z</time>
        <extensions>
          <gpxtpx:TrackPointExtension xmlns:gpxtpx="http://www.garmin.com/xmlschemas/TrackPointExtension/v1">
            <gpxtpx:hr>144</gpxtpx:hr>
          </gpxtpx:TrackPointExtension>
        </extensions>
      </trkpt>
      <trkpt lat="44.158" lon="5.27961">
        <ele>1278</ele>
        <time>2021-06-12T08:38:12Z</time>
        <extensions>
          <gpxtpx:TrackPointExtension xmlns:gpxtpx="http://www.garmin.com/xmlschemas/TrackPointExtension/v1">
            <gpxtpx:hr>145</gpxtpx:hr>
          </gpxtpx:TrackPointExtension>
        </extensions>
      </trkpt>
      <trkpt lat="44.15803" lon="5.27962">
        <ele>1278.4</ele>
        <time>2021-06-12T08:38:14Z</time>
        <extensions>
          <gpxtpx:TrackPointExtension xmlns:gpxtpx="http://www.garmin.com/xmlschemas/TrackPointExtension/v1">
            <gpxtpx:hr>144</gpxtpx:hr>
          </gpxtpx:TrackPointExtension>
        </extensions>
      </trkpt>
      <trkpt lat="44.15806" lon="5.27963">
        <ele>1278.8</ele>
        <time>2021-06-12T08:38:16Z</time>
        <extensions>
          <gpxtpx:TrackPointExtension xmlns:gpxtpx="http://www.garmin.com/xmlschemas/TrackPointExtension/v1">
            <gpxtpx:hr>145</gpxtpx:hr>
          </gpxtpx:TrackPointExtension>
        </extensions>
      </trkpt>
      <trkpt lat="44.15809" lon="5.27964">
        <ele>1279.4</ele>
        <time>2021-06-12T08:38:19Z</time>
        <extensions>
          <gpxtpx:TrackPointExtension xmlns:gpxtpx="http://www.garmin.com/xmlschemas/TrackPointExtension/v1">
            <gpxtpx:hr>145</gpxtpx:hr>
          </gpxtpx:TrackPointExtension>
        </extensions>
      </trkpt>
      <trkpt lat="44.15812" lon="5.27964">
        <ele>1279.8</ele>
        <time>2021-06-12T08:38:23Z</time>
        <extensions>
          <gpxtpx:TrackPointExtension xmlns:gpxtpx="http://www.garmin.com/xmlschemas/TrackPointExtension/v1">
            <gpxtpx:hr>145</gpxtpx:hr>
          </gpxtpx:TrackPointExtension>
        </extensions>
      </trkpt>
      <trkpt lat="44.15815" lon="5.27965">
        <ele>1280.2</ele>
        <time>2021-06-12T08:38:26Z</time>
        <extensions>
          <gpxtpx:TrackPointExtension xmlns:gpxtpx="http://www.garmin.com/xmlschemas/TrackPointExtension/v1">
            <gpxtpx:hr>146</gpxtpx:hr>
          </gpxtpx:TrackPointExtension>
        </extensions>
      </trkpt>
      <trkpt lat="44.15818" lon="5.27968">
        <ele>1280.8</ele>
        <time>2021-06-12T08:38:30Z</time>
        <extensions>
          <gpxtpx:TrackPointExtension xmlns:gpxtpx="http://www.garmin.com/xmlschemas/TrackPointExtension/v1">
            <gpxtpx:hr>145</gpxtpx:hr>
          </gpxtpx:TrackPointExtension>
        </extensions>
      </trkpt>
      <trkpt lat="44.15821" lon="5.27968">
        <ele>1281.2</ele>
        <time>2021-06-12T08:38:33Z</time>
        <extensions>
          <gpxtpx:TrackPointExtension xmlns:gpxtpx="http://www.garmin.com/xmlschemas/TrackPointExtension/v1">
            <gpxtpx:hr>145</gpxtpx:hr>
          </gpxtpx:TrackPointExtension>
        </extensions>
      </trkpt>
      <trkpt lat="44.15823" lon="5.27969">
        <ele>1281.8</ele>
        <time>2021-06-12T08:38:37Z</time>
        <extensions>
          <gpxtpx:TrackPointExtension xmlns:gpxtpx="http://www.garmin.com/xmlschemas/TrackPointExtension/v1">
            <gpxtpx:hr>145</gpxtpx:hr>
          </gpxtpx:TrackPointExtension>
        </extensions>
      </trkpt>
      <trkpt lat="44.15829" lon="5.27973">
        <ele>1283</ele>
        <time>2021-06-12T08:38:42Z</time>
        <extensions>
          <gpxtpx:TrackPointExtension xmlns:gpxtpx="http://www.garmin.com/xmlschemas/TrackPointExtension/v1">
            <gpxtpx:hr>147</gpxtpx:hr>
          </gpxtpx:TrackPointExtension>
        </extensions>
      </trkpt>
      <trkpt lat="44.15832" lon="5.27974">
        <ele>1283.4</ele>
        <time>2021-06-12T08:38:45Z</time>
        <extensions>
          <gpxtpx:TrackPointExtension xmlns:gpxtpx="http://www.garmin.com/xmlschemas/TrackPointExtension/v1">
            <gpxtpx:hr>147</gpxtpx:hr>
          </gpxtpx:TrackPointExtension>
        </extensions>
      </trkpt>
      <trkpt lat="44.15835" lon="5.27976">
        <ele>1284</ele>
        <time>2021-06-12T08:38:48Z</time>
        <extensions>
          <gpxtpx:TrackPointExtension xmlns:gpxtpx="http://www.garmin.com/xmlschemas/TrackPointExtension/v1">
            <gpxtpx:hr>146</gpxtpx:hr>
          </gpxtpx:TrackPointExtension>
        </extensions>
      </trkpt>
      <trkpt lat="44.15838" lon="5.27977">
        <ele>1284.4</ele>
        <time>2021-06-12T08:38:51Z</time>
        <extensions>
          <gpxtpx:TrackPointExtension xmlns:gpxtpx="http://www.garmin.com/xmlschemas/TrackPointExtension/v1">
            <gpxtpx:hr>145</gpxtpx:hr>
          </gpxtpx:TrackPointExtension>
        </extensions>
      </trkpt>
      <trkpt lat="44.15839" lon="5.27976">
        <ele>1285</ele>
        <time>2021-06-12T08:38:54Z</time>
        <extensions>
          <gpxtpx:TrackPointExtension xmlns:gpxtpx="http://www.garmin.com/xmlschemas/TrackPointExtension/v1">
            <gpxtpx:hr>145</gpxtpx:hr>
          </gpxtpx:TrackPointExtension>
        </extensions>
      </trkpt>
      <trkpt lat="44.1584" lon="5.27976">
        <ele>1285.2</ele>
        <time>2021-06-12T08:38:55Z</time>
        <extensions>
          <gpxtpx:TrackPointExtension xmlns:gpxtpx="http://www.garmin.com/xmlschemas/TrackPointExtension/v1">
            <gpxtpx:hr>146</gpxtpx:hr>
          </gpxtpx:TrackPointExtension>
        </extensions>
      </trkpt>
      <trkpt lat="44.15845" lon="5.2798">
        <ele>1286.2</ele>
        <time>2021-06-12T08:39:00Z</time>
        <extensions>
          <gpxtpx:TrackPointExtension xmlns:gpxtpx="http://www.garmin.com/xmlschemas/TrackPointExtension/v1">
            <gpxtpx:hr>145</gpxtpx:hr>
          </gpxtpx:TrackPointExtension>
        </extensions>
      </trkpt>
      <trkpt lat="44.1585" lon="5.27985">
        <ele>1287.4</ele>
        <time>2021-06-12T08:39:06Z</time>
        <extensions>
          <gpxtpx:TrackPointExtension xmlns:gpxtpx="http://www.garmin.com/xmlschemas/TrackPointExtension/v1">
            <gpxtpx:hr>147</gpxtpx:hr>
          </gpxtpx:TrackPointExtension>
        </extensions>
      </trkpt>
      <trkpt lat="44.15855" lon="5.27987">
        <ele>1288.2</ele>
        <time>2021-06-12T08:39:10Z</time>
        <extensions>
          <gpxtpx:TrackPointExtension xmlns:gpxtpx="http://www.garmin.com/xmlschemas/TrackPointExtension/v1">
            <gpxtpx:hr>145</gpxtpx:hr>
          </gpxtpx:TrackPointExtension>
        </extensions>
      </trkpt>
      <trkpt lat="44.15856" lon="5.27987">
        <ele>1288.4</ele>
        <time>2021-06-12T08:39:11Z</time>
        <extensions>
          <gpxtpx:TrackPointExtension xmlns:gpxtpx="http://www.garmin.com/xmlschemas/TrackPointExtension/v1">
            <gpxtpx:hr>145</gpxtpx:hr>
          </gpxtpx:TrackPointExtension>
        </extensions>
      </trkpt>
      <trkpt lat="44.1586" lon="5.27989">
        <ele>1289</ele>
        <time>2021-06-12T08:39:15Z</time>
        <extensions>
          <gpxtpx:TrackPointExtension xmlns:gpxtpx="http://www.garmin.com/xmlschemas/TrackPointExtension/v1">
            <gpxtpx:hr>145</gpxtpx:hr>
          </gpxtpx:TrackPointExtension>
        </extensions>
      </trkpt>
      <trkpt lat="44.15861" lon="5.27988">
        <ele>1289.6</ele>
        <time>2021-06-12T08:39:17Z</time>
        <extensions>
          <gpxtpx:TrackPointExtension xmlns:gpxtpx="http://www.garmin.com/xmlschemas/TrackPointExtension/v1">
            <gpxtpx:hr>146</gpxtpx:hr>
          </gpxtpx:TrackPointExtension>
        </extensions>
      </trkpt>
      <trkpt lat="44.15865" lon="5.2799">
        <ele>1290.2</ele>
        <time>2021-06-12T08:39:21Z</time>
        <extensions>
          <gpxtpx:TrackPointExtension xmlns:gpxtpx="http://www.garmin.com/xmlschemas/TrackPointExtension/v1">
            <gpxtpx:hr>147</gpxtpx:hr>
          </gpxtpx:TrackPointExtension>
        </extensions>
      </trkpt>
      <trkpt lat="44.15868" lon="5.27989">
        <ele>1290.8</ele>
        <time>2021-06-12T08:39:24Z</time>
        <extensions>
          <gpxtpx:TrackPointExtension xmlns:gpxtpx="http://www.garmin.com/xmlschemas/TrackPointExtension/v1">
            <gpxtpx:hr>148</gpxtpx:hr>
          </gpxtpx:TrackPointExtension>
        </extensions>
      </trkpt>
      <trkpt lat="44.1587" lon="5.27989">
        <ele>1291</ele>
        <time>2021-06-12T08:39:25Z</time>
        <extensions>
          <gpxtpx:TrackPointExtension xmlns:gpxtpx="http://www.garmin.com/xmlschemas/TrackPointExtension/v1">
            <gpxtpx:hr>148</gpxtpx:hr>
          </gpxtpx:TrackPointExtension>
        </extensions>
      </trkpt>
      <trkpt lat="44.15875" lon="5.27991">
        <ele>1291.8</ele>
        <time>2021-06-12T08:39:29Z</time>
        <extensions>
          <gpxtpx:TrackPointExtension xmlns:gpxtpx="http://www.garmin.com/xmlschemas/TrackPointExtension/v1">
            <gpxtpx:hr>147</gpxtpx:hr>
          </gpxtpx:TrackPointExtension>
        </extensions>
      </trkpt>
      <trkpt lat="44.15876" lon="5.27991">
        <ele>1292</ele>
        <time>2021-06-12T08:39:30Z</time>
        <extensions>
          <gpxtpx:TrackPointExtension xmlns:gpxtpx="http://www.garmin.com/xmlschemas/TrackPointExtension/v1">
            <gpxtpx:hr>147</gpxtpx:hr>
          </gpxtpx:TrackPointExtension>
        </extensions>
      </trkpt>
      <trkpt lat="44.15879" lon="5.27991">
        <ele>1292.6</ele>
        <time>2021-06-12T08:39:33Z</time>
        <extensions>
          <gpxtpx:TrackPointExtension xmlns:gpxtpx="http://www.garmin.com/xmlschemas/TrackPointExtension/v1">
            <gpxtpx:hr>147</gpxtpx:hr>
          </gpxtpx:TrackPointExtension>
        </extensions>
      </trkpt>
      <trkpt lat="44.1588" lon="5.27991">
        <ele>1292.8</ele>
        <time>2021-06-12T08:39:34Z</time>
        <extensions>
          <gpxtpx:TrackPointExtension xmlns:gpxtpx="http://www.garmin.com/xmlschemas/TrackPointExtension/v1">
            <gpxtpx:hr>147</gpxtpx:hr>
          </gpxtpx:TrackPointExtension>
        </extensions>
      </trkpt>
      <trkpt lat="44.15882" lon="5.27993">
        <ele>1293</ele>
        <time>2021-06-12T08:39:35Z</time>
        <extensions>
          <gpxtpx:TrackPointExtension xmlns:gpxtpx="http://www.garmin.com/xmlschemas/TrackPointExtension/v1">
            <gpxtpx:hr>147</gpxtpx:hr>
          </gpxtpx:TrackPointExtension>
        </extensions>
      </trkpt>
      <trkpt lat="44.15883" lon="5.27992">
        <ele>1293.2</ele>
        <time>2021-06-12T08:39:36Z</time>
        <extensions>
          <gpxtpx:TrackPointExtension xmlns:gpxtpx="http://www.garmin.com/xmlschemas/TrackPointExtension/v1">
            <gpxtpx:hr>148</gpxtpx:hr>
          </gpxtpx:TrackPointExtension>
        </extensions>
      </trkpt>
      <trkpt lat="44.15885" lon="5.27994">
        <ele>1294</ele>
        <time>2021-06-12T08:39:39Z</time>
        <extensions>
          <gpxtpx:TrackPointExtension xmlns:gpxtpx="http://www.garmin.com/xmlschemas/TrackPointExtension/v1">
            <gpxtpx:hr>148</gpxtpx:hr>
          </gpxtpx:TrackPointExtension>
        </extensions>
      </trkpt>
      <trkpt lat="44.15886" lon="5.27996">
        <ele>1294.2</ele>
        <time>2021-06-12T08:39:40Z</time>
        <extensions>
          <gpxtpx:TrackPointExtension xmlns:gpxtpx="http://www.garmin.com/xmlschemas/TrackPointExtension/v1">
            <gpxtpx:hr>148</gpxtpx:hr>
          </gpxtpx:TrackPointExtension>
        </extensions>
      </trkpt>
      <trkpt lat="44.15886" lon="5.27996">
        <ele>1294.4</ele>
        <time>2021-06-12T08:39:41Z</time>
        <extensions>
          <gpxtpx:TrackPointExtension xmlns:gpxtpx="http://www.garmin.com/xmlschemas/TrackPointExtension/v1">
            <gpxtpx:hr>149</gpxtpx:hr>
          </gpxtpx:TrackPointExtension>
        </extensions>
      </trkpt>
      <trkpt lat="44.15887" lon="5.27996">
        <ele>1294.8</ele>
        <time>2021-06-12T08:39:43Z</time>
        <extensions>
          <gpxtpx:TrackPointExtension xmlns:gpxtpx="http://www.garmin.com/xmlschemas/TrackPointExtension/v1">
            <gpxtpx:hr>150</gpxtpx:hr>
          </gpxtpx:TrackPointExtension>
        </extensions>
      </trkpt>
      <trkpt lat="44.15888" lon="5.27997">
        <ele>1295.2</ele>
        <time>2021-06-12T08:39:45Z</time>
        <extensions>
          <gpxtpx:TrackPointExtension xmlns:gpxtpx="http://www.garmin.com/xmlschemas/TrackPointExtension/v1">
            <gpxtpx:hr>150</gpxtpx:hr>
          </gpxtpx:TrackPointExtension>
        </extensions>
      </trkpt>
      <trkpt lat="44.15889" lon="5.27998">
        <ele>1295.4</ele>
        <time>2021-06-12T08:39:46Z</time>
        <extensions>
          <gpxtpx:TrackPointExtension xmlns:gpxtpx="http://www.garmin.com/xmlschemas/TrackPointExtension/v1">
            <gpxtpx:hr>151</gpxtpx:hr>
          </gpxtpx:TrackPointExtension>
        </extensions>
      </trkpt>
      <trkpt lat="44.1589" lon="5.27999">
        <ele>1295.6</ele>
        <time>2021-06-12T08:39:47Z</time>
        <extensions>
          <gpxtpx:TrackPointExtension xmlns:gpxtpx="http://www.garmin.com/xmlschemas/TrackPointExtension/v1">
            <gpxtpx:hr>151</gpxtpx:hr>
          </gpxtpx:TrackPointExtension>
        </extensions>
      </trkpt>
      <trkpt lat="44.15893" lon="5.28002">
        <ele>1296.4</ele>
        <time>2021-06-12T08:39:50Z</time>
        <extensions>
          <gpxtpx:TrackPointExtension xmlns:gpxtpx="http://www.garmin.com/xmlschemas/TrackPointExtension/v1">
            <gpxtpx:hr>153</gpxtpx:hr>
          </gpxtpx:TrackPointExtension>
        </extensions>
      </trkpt>
      <trkpt lat="44.15895" lon="5.28003">
        <ele>1296.8</ele>
        <time>2021-06-12T08:39:53Z</time>
        <extensions>
          <gpxtpx:TrackPointExtension xmlns:gpxtpx="http://www.garmin.com/xmlschemas/TrackPointExtension/v1">
            <gpxtpx:hr>153</gpxtpx:hr>
          </gpxtpx:TrackPointExtension>
        </extensions>
      </trkpt>
      <trkpt lat="44.15897" lon="5.28004">
        <ele>1297</ele>
        <time>2021-06-12T08:39:54Z</time>
        <extensions>
          <gpxtpx:TrackPointExtension xmlns:gpxtpx="http://www.garmin.com/xmlschemas/TrackPointExtension/v1">
            <gpxtpx:hr>153</gpxtpx:hr>
          </gpxtpx:TrackPointExtension>
        </extensions>
      </trkpt>
      <trkpt lat="44.15897" lon="5.28004">
        <ele>1297.4</ele>
        <time>2021-06-12T08:39:55Z</time>
        <extensions>
          <gpxtpx:TrackPointExtension xmlns:gpxtpx="http://www.garmin.com/xmlschemas/TrackPointExtension/v1">
            <gpxtpx:hr>153</gpxtpx:hr>
          </gpxtpx:TrackPointExtension>
        </extensions>
      </trkpt>
      <trkpt lat="44.159" lon="5.28005">
        <ele>1298.4</ele>
        <time>2021-06-12T08:39:59Z</time>
        <extensions>
          <gpxtpx:TrackPointExtension xmlns:gpxtpx="http://www.garmin.com/xmlschemas/TrackPointExtension/v1">
            <gpxtpx:hr>154</gpxtpx:hr>
          </gpxtpx:TrackPointExtension>
        </extensions>
      </trkpt>
      <trkpt lat="44.15904" lon="5.28008">
        <ele>1299.4</ele>
        <time>2021-06-12T08:40:04Z</time>
        <extensions>
          <gpxtpx:TrackPointExtension xmlns:gpxtpx="http://www.garmin.com/xmlschemas/TrackPointExtension/v1">
            <gpxtpx:hr>155</gpxtpx:hr>
          </gpxtpx:TrackPointExtension>
        </extensions>
      </trkpt>
      <trkpt lat="44.15906" lon="5.28009">
        <ele>1299.6</ele>
        <time>2021-06-12T08:40:05Z</time>
        <extensions>
          <gpxtpx:TrackPointExtension xmlns:gpxtpx="http://www.garmin.com/xmlschemas/TrackPointExtension/v1">
            <gpxtpx:hr>155</gpxtpx:hr>
          </gpxtpx:TrackPointExtension>
        </extensions>
      </trkpt>
      <trkpt lat="44.15908" lon="5.2801">
        <ele>1300.2</ele>
        <time>2021-06-12T08:40:07Z</time>
        <extensions>
          <gpxtpx:TrackPointExtension xmlns:gpxtpx="http://www.garmin.com/xmlschemas/TrackPointExtension/v1">
            <gpxtpx:hr>155</gpxtpx:hr>
          </gpxtpx:TrackPointExtension>
        </extensions>
      </trkpt>
      <trkpt lat="44.15911" lon="5.28011">
        <ele>1300.6</ele>
        <time>2021-06-12T08:40:09Z</time>
        <extensions>
          <gpxtpx:TrackPointExtension xmlns:gpxtpx="http://www.garmin.com/xmlschemas/TrackPointExtension/v1">
            <gpxtpx:hr>156</gpxtpx:hr>
          </gpxtpx:TrackPointExtension>
        </extensions>
      </trkpt>
      <trkpt lat="44.15914" lon="5.2801">
        <ele>1301.2</ele>
        <time>2021-06-12T08:40:12Z</time>
        <extensions>
          <gpxtpx:TrackPointExtension xmlns:gpxtpx="http://www.garmin.com/xmlschemas/TrackPointExtension/v1">
            <gpxtpx:hr>156</gpxtpx:hr>
          </gpxtpx:TrackPointExtension>
        </extensions>
      </trkpt>
      <trkpt lat="44.15915" lon="5.2801">
        <ele>1301.6</ele>
        <time>2021-06-12T08:40:14Z</time>
        <extensions>
          <gpxtpx:TrackPointExtension xmlns:gpxtpx="http://www.garmin.com/xmlschemas/TrackPointExtension/v1">
            <gpxtpx:hr>157</gpxtpx:hr>
          </gpxtpx:TrackPointExtension>
        </extensions>
      </trkpt>
      <trkpt lat="44.15916" lon="5.2801">
        <ele>1301.8</ele>
        <time>2021-06-12T08:40:15Z</time>
        <extensions>
          <gpxtpx:TrackPointExtension xmlns:gpxtpx="http://www.garmin.com/xmlschemas/TrackPointExtension/v1">
            <gpxtpx:hr>155</gpxtpx:hr>
          </gpxtpx:TrackPointExtension>
        </extensions>
      </trkpt>
      <trkpt lat="44.15918" lon="5.2801">
        <ele>1302.6</ele>
        <time>2021-06-12T08:40:18Z</time>
        <extensions>
          <gpxtpx:TrackPointExtension xmlns:gpxtpx="http://www.garmin.com/xmlschemas/TrackPointExtension/v1">
            <gpxtpx:hr>157</gpxtpx:hr>
          </gpxtpx:TrackPointExtension>
        </extensions>
      </trkpt>
      <trkpt lat="44.1592" lon="5.28012">
        <ele>1303</ele>
        <time>2021-06-12T08:40:20Z</time>
        <extensions>
          <gpxtpx:TrackPointExtension xmlns:gpxtpx="http://www.garmin.com/xmlschemas/TrackPointExtension/v1">
            <gpxtpx:hr>158</gpxtpx:hr>
          </gpxtpx:TrackPointExtension>
        </extensions>
      </trkpt>
      <trkpt lat="44.1592" lon="5.28013">
        <ele>1303.2</ele>
        <time>2021-06-12T08:40:21Z</time>
        <extensions>
          <gpxtpx:TrackPointExtension xmlns:gpxtpx="http://www.garmin.com/xmlschemas/TrackPointExtension/v1">
            <gpxtpx:hr>158</gpxtpx:hr>
          </gpxtpx:TrackPointExtension>
        </extensions>
      </trkpt>
      <trkpt lat="44.15922" lon="5.28014">
        <ele>1303.8</ele>
        <time>2021-06-12T08:40:24Z</time>
        <extensions>
          <gpxtpx:TrackPointExtension xmlns:gpxtpx="http://www.garmin.com/xmlschemas/TrackPointExtension/v1">
            <gpxtpx:hr>158</gpxtpx:hr>
          </gpxtpx:TrackPointExtension>
        </extensions>
      </trkpt>
      <trkpt lat="44.15924" lon="5.28015">
        <ele>1304.2</ele>
        <time>2021-06-12T08:40:26Z</time>
        <extensions>
          <gpxtpx:TrackPointExtension xmlns:gpxtpx="http://www.garmin.com/xmlschemas/TrackPointExtension/v1">
            <gpxtpx:hr>157</gpxtpx:hr>
          </gpxtpx:TrackPointExtension>
        </extensions>
      </trkpt>
      <trkpt lat="44.15925" lon="5.28016">
        <ele>1304.2</ele>
        <time>2021-06-12T08:40:27Z</time>
        <extensions>
          <gpxtpx:TrackPointExtension xmlns:gpxtpx="http://www.garmin.com/xmlschemas/TrackPointExtension/v1">
            <gpxtpx:hr>157</gpxtpx:hr>
          </gpxtpx:TrackPointExtension>
        </extensions>
      </trkpt>
      <trkpt lat="44.15926" lon="5.28017">
        <ele>1304.4</ele>
        <time>2021-06-12T08:40:28Z</time>
        <extensions>
          <gpxtpx:TrackPointExtension xmlns:gpxtpx="http://www.garmin.com/xmlschemas/TrackPointExtension/v1">
            <gpxtpx:hr>157</gpxtpx:hr>
          </gpxtpx:TrackPointExtension>
        </extensions>
      </trkpt>
      <trkpt lat="44.1593" lon="5.28017">
        <ele>1305.2</ele>
        <time>2021-06-12T08:40:33Z</time>
        <extensions>
          <gpxtpx:TrackPointExtension xmlns:gpxtpx="http://www.garmin.com/xmlschemas/TrackPointExtension/v1">
            <gpxtpx:hr>156</gpxtpx:hr>
          </gpxtpx:TrackPointExtension>
        </extensions>
      </trkpt>
      <trkpt lat="44.15931" lon="5.28016">
        <ele>1306</ele>
        <time>2021-06-12T08:40:37Z</time>
        <extensions>
          <gpxtpx:TrackPointExtension xmlns:gpxtpx="http://www.garmin.com/xmlschemas/TrackPointExtension/v1">
            <gpxtpx:hr>154</gpxtpx:hr>
          </gpxtpx:TrackPointExtension>
        </extensions>
      </trkpt>
      <trkpt lat="44.15932" lon="5.28016">
        <ele>1306.2</ele>
        <time>2021-06-12T08:40:38Z</time>
        <extensions>
          <gpxtpx:TrackPointExtension xmlns:gpxtpx="http://www.garmin.com/xmlschemas/TrackPointExtension/v1">
            <gpxtpx:hr>154</gpxtpx:hr>
          </gpxtpx:TrackPointExtension>
        </extensions>
      </trkpt>
      <trkpt lat="44.15933" lon="5.28016">
        <ele>1306.8</ele>
        <time>2021-06-12T08:40:40Z</time>
        <extensions>
          <gpxtpx:TrackPointExtension xmlns:gpxtpx="http://www.garmin.com/xmlschemas/TrackPointExtension/v1">
            <gpxtpx:hr>154</gpxtpx:hr>
          </gpxtpx:TrackPointExtension>
        </extensions>
      </trkpt>
      <trkpt lat="44.15936" lon="5.28019">
        <ele>1307.2</ele>
        <time>2021-06-12T08:40:43Z</time>
        <extensions>
          <gpxtpx:TrackPointExtension xmlns:gpxtpx="http://www.garmin.com/xmlschemas/TrackPointExtension/v1">
            <gpxtpx:hr>154</gpxtpx:hr>
          </gpxtpx:TrackPointExtension>
        </extensions>
      </trkpt>
      <trkpt lat="44.15938" lon="5.2802">
        <ele>1307.4</ele>
        <time>2021-06-12T08:40:44Z</time>
        <extensions>
          <gpxtpx:TrackPointExtension xmlns:gpxtpx="http://www.garmin.com/xmlschemas/TrackPointExtension/v1">
            <gpxtpx:hr>153</gpxtpx:hr>
          </gpxtpx:TrackPointExtension>
        </extensions>
      </trkpt>
      <trkpt lat="44.15942" lon="5.28022">
        <ele>1308</ele>
        <time>2021-06-12T08:40:48Z</time>
        <extensions>
          <gpxtpx:TrackPointExtension xmlns:gpxtpx="http://www.garmin.com/xmlschemas/TrackPointExtension/v1">
            <gpxtpx:hr>152</gpxtpx:hr>
          </gpxtpx:TrackPointExtension>
        </extensions>
      </trkpt>
      <trkpt lat="44.15945" lon="5.28025">
        <ele>1308.4</ele>
        <time>2021-06-12T08:40:50Z</time>
        <extensions>
          <gpxtpx:TrackPointExtension xmlns:gpxtpx="http://www.garmin.com/xmlschemas/TrackPointExtension/v1">
            <gpxtpx:hr>152</gpxtpx:hr>
          </gpxtpx:TrackPointExtension>
        </extensions>
      </trkpt>
      <trkpt lat="44.15946" lon="5.28025">
        <ele>1308.6</ele>
        <time>2021-06-12T08:40:51Z</time>
        <extensions>
          <gpxtpx:TrackPointExtension xmlns:gpxtpx="http://www.garmin.com/xmlschemas/TrackPointExtension/v1">
            <gpxtpx:hr>152</gpxtpx:hr>
          </gpxtpx:TrackPointExtension>
        </extensions>
      </trkpt>
      <trkpt lat="44.1595" lon="5.28028">
        <ele>1309.2</ele>
        <time>2021-06-12T08:40:54Z</time>
        <extensions>
          <gpxtpx:TrackPointExtension xmlns:gpxtpx="http://www.garmin.com/xmlschemas/TrackPointExtension/v1">
            <gpxtpx:hr>151</gpxtpx:hr>
          </gpxtpx:TrackPointExtension>
        </extensions>
      </trkpt>
      <trkpt lat="44.15952" lon="5.28028">
        <ele>1309.8</ele>
        <time>2021-06-12T08:40:56Z</time>
        <extensions>
          <gpxtpx:TrackPointExtension xmlns:gpxtpx="http://www.garmin.com/xmlschemas/TrackPointExtension/v1">
            <gpxtpx:hr>152</gpxtpx:hr>
          </gpxtpx:TrackPointExtension>
        </extensions>
      </trkpt>
      <trkpt lat="44.15954" lon="5.28029">
        <ele>1310.2</ele>
        <time>2021-06-12T08:40:58Z</time>
        <extensions>
          <gpxtpx:TrackPointExtension xmlns:gpxtpx="http://www.garmin.com/xmlschemas/TrackPointExtension/v1">
            <gpxtpx:hr>152</gpxtpx:hr>
          </gpxtpx:TrackPointExtension>
        </extensions>
      </trkpt>
      <trkpt lat="44.15955" lon="5.28031">
        <ele>1310.2</ele>
        <time>2021-06-12T08:40:59Z</time>
        <extensions>
          <gpxtpx:TrackPointExtension xmlns:gpxtpx="http://www.garmin.com/xmlschemas/TrackPointExtension/v1">
            <gpxtpx:hr>151</gpxtpx:hr>
          </gpxtpx:TrackPointExtension>
        </extensions>
      </trkpt>
      <trkpt lat="44.15956" lon="5.28032">
        <ele>1310.6</ele>
        <time>2021-06-12T08:41:01Z</time>
        <extensions>
          <gpxtpx:TrackPointExtension xmlns:gpxtpx="http://www.garmin.com/xmlschemas/TrackPointExtension/v1">
            <gpxtpx:hr>151</gpxtpx:hr>
          </gpxtpx:TrackPointExtension>
        </extensions>
      </trkpt>
      <trkpt lat="44.15956" lon="5.28032">
        <ele>1310.8</ele>
        <time>2021-06-12T08:41:02Z</time>
        <extensions>
          <gpxtpx:TrackPointExtension xmlns:gpxtpx="http://www.garmin.com/xmlschemas/TrackPointExtension/v1">
            <gpxtpx:hr>151</gpxtpx:hr>
          </gpxtpx:TrackPointExtension>
        </extensions>
      </trkpt>
      <trkpt lat="44.1596" lon="5.28035">
        <ele>1311.4</ele>
        <time>2021-06-12T08:41:05Z</time>
        <extensions>
          <gpxtpx:TrackPointExtension xmlns:gpxtpx="http://www.garmin.com/xmlschemas/TrackPointExtension/v1">
            <gpxtpx:hr>151</gpxtpx:hr>
          </gpxtpx:TrackPointExtension>
        </extensions>
      </trkpt>
      <trkpt lat="44.15961" lon="5.28034">
        <ele>1312</ele>
        <time>2021-06-12T08:41:07Z</time>
        <extensions>
          <gpxtpx:TrackPointExtension xmlns:gpxtpx="http://www.garmin.com/xmlschemas/TrackPointExtension/v1">
            <gpxtpx:hr>152</gpxtpx:hr>
          </gpxtpx:TrackPointExtension>
        </extensions>
      </trkpt>
      <trkpt lat="44.15963" lon="5.28036">
        <ele>1312.2</ele>
        <time>2021-06-12T08:41:09Z</time>
        <extensions>
          <gpxtpx:TrackPointExtension xmlns:gpxtpx="http://www.garmin.com/xmlschemas/TrackPointExtension/v1">
            <gpxtpx:hr>152</gpxtpx:hr>
          </gpxtpx:TrackPointExtension>
        </extensions>
      </trkpt>
      <trkpt lat="44.15968" lon="5.28037">
        <ele>1312.8</ele>
        <time>2021-06-12T08:41:12Z</time>
        <extensions>
          <gpxtpx:TrackPointExtension xmlns:gpxtpx="http://www.garmin.com/xmlschemas/TrackPointExtension/v1">
            <gpxtpx:hr>152</gpxtpx:hr>
          </gpxtpx:TrackPointExtension>
        </extensions>
      </trkpt>
      <trkpt lat="44.15969" lon="5.28035">
        <ele>1313</ele>
        <time>2021-06-12T08:41:13Z</time>
        <extensions>
          <gpxtpx:TrackPointExtension xmlns:gpxtpx="http://www.garmin.com/xmlschemas/TrackPointExtension/v1">
            <gpxtpx:hr>153</gpxtpx:hr>
          </gpxtpx:TrackPointExtension>
        </extensions>
      </trkpt>
      <trkpt lat="44.15973" lon="5.28034">
        <ele>1313.8</ele>
        <time>2021-06-12T08:41:16Z</time>
        <extensions>
          <gpxtpx:TrackPointExtension xmlns:gpxtpx="http://www.garmin.com/xmlschemas/TrackPointExtension/v1">
            <gpxtpx:hr>153</gpxtpx:hr>
          </gpxtpx:TrackPointExtension>
        </extensions>
      </trkpt>
      <trkpt lat="44.15975" lon="5.28035">
        <ele>1314.2</ele>
        <time>2021-06-12T08:41:18Z</time>
        <extensions>
          <gpxtpx:TrackPointExtension xmlns:gpxtpx="http://www.garmin.com/xmlschemas/TrackPointExtension/v1">
            <gpxtpx:hr>154</gpxtpx:hr>
          </gpxtpx:TrackPointExtension>
        </extensions>
      </trkpt>
      <trkpt lat="44.15976" lon="5.28033">
        <ele>1314.6</ele>
        <time>2021-06-12T08:41:20Z</time>
        <extensions>
          <gpxtpx:TrackPointExtension xmlns:gpxtpx="http://www.garmin.com/xmlschemas/TrackPointExtension/v1">
            <gpxtpx:hr>154</gpxtpx:hr>
          </gpxtpx:TrackPointExtension>
        </extensions>
      </trkpt>
      <trkpt lat="44.15981" lon="5.28035">
        <ele>1315.2</ele>
        <time>2021-06-12T08:41:23Z</time>
        <extensions>
          <gpxtpx:TrackPointExtension xmlns:gpxtpx="http://www.garmin.com/xmlschemas/TrackPointExtension/v1">
            <gpxtpx:hr>154</gpxtpx:hr>
          </gpxtpx:TrackPointExtension>
        </extensions>
      </trkpt>
      <trkpt lat="44.15985" lon="5.28034">
        <ele>1316.2</ele>
        <time>2021-06-12T08:41:26Z</time>
        <extensions>
          <gpxtpx:TrackPointExtension xmlns:gpxtpx="http://www.garmin.com/xmlschemas/TrackPointExtension/v1">
            <gpxtpx:hr>155</gpxtpx:hr>
          </gpxtpx:TrackPointExtension>
        </extensions>
      </trkpt>
      <trkpt lat="44.15987" lon="5.28034">
        <ele>1316.4</ele>
        <time>2021-06-12T08:41:28Z</time>
        <extensions>
          <gpxtpx:TrackPointExtension xmlns:gpxtpx="http://www.garmin.com/xmlschemas/TrackPointExtension/v1">
            <gpxtpx:hr>154</gpxtpx:hr>
          </gpxtpx:TrackPointExtension>
        </extensions>
      </trkpt>
      <trkpt lat="44.15993" lon="5.28035">
        <ele>1317</ele>
        <time>2021-06-12T08:41:32Z</time>
        <extensions>
          <gpxtpx:TrackPointExtension xmlns:gpxtpx="http://www.garmin.com/xmlschemas/TrackPointExtension/v1">
            <gpxtpx:hr>153</gpxtpx:hr>
          </gpxtpx:TrackPointExtension>
        </extensions>
      </trkpt>
      <trkpt lat="44.15994" lon="5.28035">
        <ele>1317.4</ele>
        <time>2021-06-12T08:41:33Z</time>
        <extensions>
          <gpxtpx:TrackPointExtension xmlns:gpxtpx="http://www.garmin.com/xmlschemas/TrackPointExtension/v1">
            <gpxtpx:hr>153</gpxtpx:hr>
          </gpxtpx:TrackPointExtension>
        </extensions>
      </trkpt>
      <trkpt lat="44.15996" lon="5.28035">
        <ele>1317.6</ele>
        <time>2021-06-12T08:41:34Z</time>
        <extensions>
          <gpxtpx:TrackPointExtension xmlns:gpxtpx="http://www.garmin.com/xmlschemas/TrackPointExtension/v1">
            <gpxtpx:hr>153</gpxtpx:hr>
          </gpxtpx:TrackPointExtension>
        </extensions>
      </trkpt>
      <trkpt lat="44.15997" lon="5.28037">
        <ele>1317.8</ele>
        <time>2021-06-12T08:41:35Z</time>
        <extensions>
          <gpxtpx:TrackPointExtension xmlns:gpxtpx="http://www.garmin.com/xmlschemas/TrackPointExtension/v1">
            <gpxtpx:hr>153</gpxtpx:hr>
          </gpxtpx:TrackPointExtension>
        </extensions>
      </trkpt>
      <trkpt lat="44.16" lon="5.28039">
        <ele>1318.2</ele>
        <time>2021-06-12T08:41:38Z</time>
        <extensions>
          <gpxtpx:TrackPointExtension xmlns:gpxtpx="http://www.garmin.com/xmlschemas/TrackPointExtension/v1">
            <gpxtpx:hr>152</gpxtpx:hr>
          </gpxtpx:TrackPointExtension>
        </extensions>
      </trkpt>
      <trkpt lat="44.16002" lon="5.28037">
        <ele>1318.6</ele>
        <time>2021-06-12T08:41:40Z</time>
        <extensions>
          <gpxtpx:TrackPointExtension xmlns:gpxtpx="http://www.garmin.com/xmlschemas/TrackPointExtension/v1">
            <gpxtpx:hr>153</gpxtpx:hr>
          </gpxtpx:TrackPointExtension>
        </extensions>
      </trkpt>
      <trkpt lat="44.16006" lon="5.28038">
        <ele>1319.2</ele>
        <time>2021-06-12T08:41:43Z</time>
        <extensions>
          <gpxtpx:TrackPointExtension xmlns:gpxtpx="http://www.garmin.com/xmlschemas/TrackPointExtension/v1">
            <gpxtpx:hr>153</gpxtpx:hr>
          </gpxtpx:TrackPointExtension>
        </extensions>
      </trkpt>
      <trkpt lat="44.1601" lon="5.2804">
        <ele>1319.8</ele>
        <time>2021-06-12T08:41:46Z</time>
        <extensions>
          <gpxtpx:TrackPointExtension xmlns:gpxtpx="http://www.garmin.com/xmlschemas/TrackPointExtension/v1">
            <gpxtpx:hr>153</gpxtpx:hr>
          </gpxtpx:TrackPointExtension>
        </extensions>
      </trkpt>
      <trkpt lat="44.1601" lon="5.28039">
        <ele>1319.8</ele>
        <time>2021-06-12T08:41:47Z</time>
        <extensions>
          <gpxtpx:TrackPointExtension xmlns:gpxtpx="http://www.garmin.com/xmlschemas/TrackPointExtension/v1">
            <gpxtpx:hr>154</gpxtpx:hr>
          </gpxtpx:TrackPointExtension>
        </extensions>
      </trkpt>
      <trkpt lat="44.16011" lon="5.28035">
        <ele>1320.2</ele>
        <time>2021-06-12T08:41:49Z</time>
        <extensions>
          <gpxtpx:TrackPointExtension xmlns:gpxtpx="http://www.garmin.com/xmlschemas/TrackPointExtension/v1">
            <gpxtpx:hr>153</gpxtpx:hr>
          </gpxtpx:TrackPointExtension>
        </extensions>
      </trkpt>
      <trkpt lat="44.16014" lon="5.28033">
        <ele>1320.6</ele>
        <time>2021-06-12T08:41:51Z</time>
        <extensions>
          <gpxtpx:TrackPointExtension xmlns:gpxtpx="http://www.garmin.com/xmlschemas/TrackPointExtension/v1">
            <gpxtpx:hr>153</gpxtpx:hr>
          </gpxtpx:TrackPointExtension>
        </extensions>
      </trkpt>
      <trkpt lat="44.16015" lon="5.28032">
        <ele>1320.8</ele>
        <time>2021-06-12T08:41:52Z</time>
        <extensions>
          <gpxtpx:TrackPointExtension xmlns:gpxtpx="http://www.garmin.com/xmlschemas/TrackPointExtension/v1">
            <gpxtpx:hr>153</gpxtpx:hr>
          </gpxtpx:TrackPointExtension>
        </extensions>
      </trkpt>
      <trkpt lat="44.16019" lon="5.28032">
        <ele>1321.8</ele>
        <time>2021-06-12T08:41:57Z</time>
        <extensions>
          <gpxtpx:TrackPointExtension xmlns:gpxtpx="http://www.garmin.com/xmlschemas/TrackPointExtension/v1">
            <gpxtpx:hr>153</gpxtpx:hr>
          </gpxtpx:TrackPointExtension>
        </extensions>
      </trkpt>
      <trkpt lat="44.1602" lon="5.28032">
        <ele>1322</ele>
        <time>2021-06-12T08:41:58Z</time>
        <extensions>
          <gpxtpx:TrackPointExtension xmlns:gpxtpx="http://www.garmin.com/xmlschemas/TrackPointExtension/v1">
            <gpxtpx:hr>153</gpxtpx:hr>
          </gpxtpx:TrackPointExtension>
        </extensions>
      </trkpt>
      <trkpt lat="44.16021" lon="5.28032">
        <ele>1322.4</ele>
        <time>2021-06-12T08:42:01Z</time>
        <extensions>
          <gpxtpx:TrackPointExtension xmlns:gpxtpx="http://www.garmin.com/xmlschemas/TrackPointExtension/v1">
            <gpxtpx:hr>152</gpxtpx:hr>
          </gpxtpx:TrackPointExtension>
        </extensions>
      </trkpt>
      <trkpt lat="44.16023" lon="5.28032">
        <ele>1323</ele>
        <time>2021-06-12T08:42:03Z</time>
        <extensions>
          <gpxtpx:TrackPointExtension xmlns:gpxtpx="http://www.garmin.com/xmlschemas/TrackPointExtension/v1">
            <gpxtpx:hr>152</gpxtpx:hr>
          </gpxtpx:TrackPointExtension>
        </extensions>
      </trkpt>
      <trkpt lat="44.16026" lon="5.28027">
        <ele>1323.8</ele>
        <time>2021-06-12T08:42:07Z</time>
        <extensions>
          <gpxtpx:TrackPointExtension xmlns:gpxtpx="http://www.garmin.com/xmlschemas/TrackPointExtension/v1">
            <gpxtpx:hr>150</gpxtpx:hr>
          </gpxtpx:TrackPointExtension>
        </extensions>
      </trkpt>
      <trkpt lat="44.16027" lon="5.28023">
        <ele>1324</ele>
        <time>2021-06-12T08:42:08Z</time>
        <extensions>
          <gpxtpx:TrackPointExtension xmlns:gpxtpx="http://www.garmin.com/xmlschemas/TrackPointExtension/v1">
            <gpxtpx:hr>150</gpxtpx:hr>
          </gpxtpx:TrackPointExtension>
        </extensions>
      </trkpt>
      <trkpt lat="44.16028" lon="5.2802">
        <ele>1324.4</ele>
        <time>2021-06-12T08:42:10Z</time>
        <extensions>
          <gpxtpx:TrackPointExtension xmlns:gpxtpx="http://www.garmin.com/xmlschemas/TrackPointExtension/v1">
            <gpxtpx:hr>150</gpxtpx:hr>
          </gpxtpx:TrackPointExtension>
        </extensions>
      </trkpt>
      <trkpt lat="44.1603" lon="5.28019">
        <ele>1324.6</ele>
        <time>2021-06-12T08:42:12Z</time>
        <extensions>
          <gpxtpx:TrackPointExtension xmlns:gpxtpx="http://www.garmin.com/xmlschemas/TrackPointExtension/v1">
            <gpxtpx:hr>150</gpxtpx:hr>
          </gpxtpx:TrackPointExtension>
        </extensions>
      </trkpt>
      <trkpt lat="44.16032" lon="5.28022">
        <ele>1325</ele>
        <time>2021-06-12T08:42:14Z</time>
        <extensions>
          <gpxtpx:TrackPointExtension xmlns:gpxtpx="http://www.garmin.com/xmlschemas/TrackPointExtension/v1">
            <gpxtpx:hr>150</gpxtpx:hr>
          </gpxtpx:TrackPointExtension>
        </extensions>
      </trkpt>
      <trkpt lat="44.16034" lon="5.28024">
        <ele>1325.4</ele>
        <time>2021-06-12T08:42:16Z</time>
        <extensions>
          <gpxtpx:TrackPointExtension xmlns:gpxtpx="http://www.garmin.com/xmlschemas/TrackPointExtension/v1">
            <gpxtpx:hr>151</gpxtpx:hr>
          </gpxtpx:TrackPointExtension>
        </extensions>
      </trkpt>
      <trkpt lat="44.16037" lon="5.28024">
        <ele>1326.2</ele>
        <time>2021-06-12T08:42:20Z</time>
        <extensions>
          <gpxtpx:TrackPointExtension xmlns:gpxtpx="http://www.garmin.com/xmlschemas/TrackPointExtension/v1">
            <gpxtpx:hr>151</gpxtpx:hr>
          </gpxtpx:TrackPointExtension>
        </extensions>
      </trkpt>
      <trkpt lat="44.16043" lon="5.28015">
        <ele>1327.4</ele>
        <time>2021-06-12T08:42:26Z</time>
        <extensions>
          <gpxtpx:TrackPointExtension xmlns:gpxtpx="http://www.garmin.com/xmlschemas/TrackPointExtension/v1">
            <gpxtpx:hr>149</gpxtpx:hr>
          </gpxtpx:TrackPointExtension>
        </extensions>
      </trkpt>
      <trkpt lat="44.16044" lon="5.28015">
        <ele>1327.6</ele>
        <time>2021-06-12T08:42:28Z</time>
        <extensions>
          <gpxtpx:TrackPointExtension xmlns:gpxtpx="http://www.garmin.com/xmlschemas/TrackPointExtension/v1">
            <gpxtpx:hr>148</gpxtpx:hr>
          </gpxtpx:TrackPointExtension>
        </extensions>
      </trkpt>
      <trkpt lat="44.16044" lon="5.28016">
        <ele>1327.8</ele>
        <time>2021-06-12T08:42:29Z</time>
        <extensions>
          <gpxtpx:TrackPointExtension xmlns:gpxtpx="http://www.garmin.com/xmlschemas/TrackPointExtension/v1">
            <gpxtpx:hr>148</gpxtpx:hr>
          </gpxtpx:TrackPointExtension>
        </extensions>
      </trkpt>
      <trkpt lat="44.16045" lon="5.28015">
        <ele>1328</ele>
        <time>2021-06-12T08:42:30Z</time>
        <extensions>
          <gpxtpx:TrackPointExtension xmlns:gpxtpx="http://www.garmin.com/xmlschemas/TrackPointExtension/v1">
            <gpxtpx:hr>148</gpxtpx:hr>
          </gpxtpx:TrackPointExtension>
        </extensions>
      </trkpt>
      <trkpt lat="44.16046" lon="5.28016">
        <ele>1328.2</ele>
        <time>2021-06-12T08:42:31Z</time>
        <extensions>
          <gpxtpx:TrackPointExtension xmlns:gpxtpx="http://www.garmin.com/xmlschemas/TrackPointExtension/v1">
            <gpxtpx:hr>148</gpxtpx:hr>
          </gpxtpx:TrackPointExtension>
        </extensions>
      </trkpt>
      <trkpt lat="44.16047" lon="5.28016">
        <ele>1328.4</ele>
        <time>2021-06-12T08:42:32Z</time>
        <extensions>
          <gpxtpx:TrackPointExtension xmlns:gpxtpx="http://www.garmin.com/xmlschemas/TrackPointExtension/v1">
            <gpxtpx:hr>148</gpxtpx:hr>
          </gpxtpx:TrackPointExtension>
        </extensions>
      </trkpt>
      <trkpt lat="44.16049" lon="5.28016">
        <ele>1328.8</ele>
        <time>2021-06-12T08:42:34Z</time>
        <extensions>
          <gpxtpx:TrackPointExtension xmlns:gpxtpx="http://www.garmin.com/xmlschemas/TrackPointExtension/v1">
            <gpxtpx:hr>149</gpxtpx:hr>
          </gpxtpx:TrackPointExtension>
        </extensions>
      </trkpt>
      <trkpt lat="44.16051" lon="5.28021">
        <ele>1329</ele>
        <time>2021-06-12T08:42:36Z</time>
        <extensions>
          <gpxtpx:TrackPointExtension xmlns:gpxtpx="http://www.garmin.com/xmlschemas/TrackPointExtension/v1">
            <gpxtpx:hr>148</gpxtpx:hr>
          </gpxtpx:TrackPointExtension>
        </extensions>
      </trkpt>
      <trkpt lat="44.16053" lon="5.28023">
        <ele>1329.4</ele>
        <time>2021-06-12T08:42:39Z</time>
        <extensions>
          <gpxtpx:TrackPointExtension xmlns:gpxtpx="http://www.garmin.com/xmlschemas/TrackPointExtension/v1">
            <gpxtpx:hr>149</gpxtpx:hr>
          </gpxtpx:TrackPointExtension>
        </extensions>
      </trkpt>
      <trkpt lat="44.16056" lon="5.28021">
        <ele>1330.6</ele>
        <time>2021-06-12T08:42:44Z</time>
        <extensions>
          <gpxtpx:TrackPointExtension xmlns:gpxtpx="http://www.garmin.com/xmlschemas/TrackPointExtension/v1">
            <gpxtpx:hr>148</gpxtpx:hr>
          </gpxtpx:TrackPointExtension>
        </extensions>
      </trkpt>
      <trkpt lat="44.16058" lon="5.2802">
        <ele>1331</ele>
        <time>2021-06-12T08:42:47Z</time>
        <extensions>
          <gpxtpx:TrackPointExtension xmlns:gpxtpx="http://www.garmin.com/xmlschemas/TrackPointExtension/v1">
            <gpxtpx:hr>148</gpxtpx:hr>
          </gpxtpx:TrackPointExtension>
        </extensions>
      </trkpt>
      <trkpt lat="44.16061" lon="5.2802">
        <ele>1331.6</ele>
        <time>2021-06-12T08:42:50Z</time>
        <extensions>
          <gpxtpx:TrackPointExtension xmlns:gpxtpx="http://www.garmin.com/xmlschemas/TrackPointExtension/v1">
            <gpxtpx:hr>148</gpxtpx:hr>
          </gpxtpx:TrackPointExtension>
        </extensions>
      </trkpt>
      <trkpt lat="44.16061" lon="5.2802">
        <ele>1331.8</ele>
        <time>2021-06-12T08:42:51Z</time>
        <extensions>
          <gpxtpx:TrackPointExtension xmlns:gpxtpx="http://www.garmin.com/xmlschemas/TrackPointExtension/v1">
            <gpxtpx:hr>148</gpxtpx:hr>
          </gpxtpx:TrackPointExtension>
        </extensions>
      </trkpt>
      <trkpt lat="44.16064" lon="5.28018">
        <ele>1332.2</ele>
        <time>2021-06-12T08:42:55Z</time>
        <extensions>
          <gpxtpx:TrackPointExtension xmlns:gpxtpx="http://www.garmin.com/xmlschemas/TrackPointExtension/v1">
            <gpxtpx:hr>148</gpxtpx:hr>
          </gpxtpx:TrackPointExtension>
        </extensions>
      </trkpt>
      <trkpt lat="44.16069" lon="5.28017">
        <ele>1332.8</ele>
        <time>2021-06-12T08:42:58Z</time>
        <extensions>
          <gpxtpx:TrackPointExtension xmlns:gpxtpx="http://www.garmin.com/xmlschemas/TrackPointExtension/v1">
            <gpxtpx:hr>149</gpxtpx:hr>
          </gpxtpx:TrackPointExtension>
        </extensions>
      </trkpt>
      <trkpt lat="44.16073" lon="5.28017">
        <ele>1333.6</ele>
        <time>2021-06-12T08:43:02Z</time>
        <extensions>
          <gpxtpx:TrackPointExtension xmlns:gpxtpx="http://www.garmin.com/xmlschemas/TrackPointExtension/v1">
            <gpxtpx:hr>148</gpxtpx:hr>
          </gpxtpx:TrackPointExtension>
        </extensions>
      </trkpt>
      <trkpt lat="44.16074" lon="5.28016">
        <ele>1333.8</ele>
        <time>2021-06-12T08:43:04Z</time>
        <extensions>
          <gpxtpx:TrackPointExtension xmlns:gpxtpx="http://www.garmin.com/xmlschemas/TrackPointExtension/v1">
            <gpxtpx:hr>148</gpxtpx:hr>
          </gpxtpx:TrackPointExtension>
        </extensions>
      </trkpt>
      <trkpt lat="44.16081" lon="5.2802">
        <ele>1334.6</ele>
        <time>2021-06-12T08:43:09Z</time>
        <extensions>
          <gpxtpx:TrackPointExtension xmlns:gpxtpx="http://www.garmin.com/xmlschemas/TrackPointExtension/v1">
            <gpxtpx:hr>149</gpxtpx:hr>
          </gpxtpx:TrackPointExtension>
        </extensions>
      </trkpt>
      <trkpt lat="44.16084" lon="5.28022">
        <ele>1335</ele>
        <time>2021-06-12T08:43:11Z</time>
        <extensions>
          <gpxtpx:TrackPointExtension xmlns:gpxtpx="http://www.garmin.com/xmlschemas/TrackPointExtension/v1">
            <gpxtpx:hr>148</gpxtpx:hr>
          </gpxtpx:TrackPointExtension>
        </extensions>
      </trkpt>
      <trkpt lat="44.16086" lon="5.28023">
        <ele>1335.4</ele>
        <time>2021-06-12T08:43:13Z</time>
        <extensions>
          <gpxtpx:TrackPointExtension xmlns:gpxtpx="http://www.garmin.com/xmlschemas/TrackPointExtension/v1">
            <gpxtpx:hr>147</gpxtpx:hr>
          </gpxtpx:TrackPointExtension>
        </extensions>
      </trkpt>
      <trkpt lat="44.16089" lon="5.28024">
        <ele>1335.8</ele>
        <time>2021-06-12T08:43:15Z</time>
        <extensions>
          <gpxtpx:TrackPointExtension xmlns:gpxtpx="http://www.garmin.com/xmlschemas/TrackPointExtension/v1">
            <gpxtpx:hr>146</gpxtpx:hr>
          </gpxtpx:TrackPointExtension>
        </extensions>
      </trkpt>
      <trkpt lat="44.1609" lon="5.28025">
        <ele>1336</ele>
        <time>2021-06-12T08:43:16Z</time>
        <extensions>
          <gpxtpx:TrackPointExtension xmlns:gpxtpx="http://www.garmin.com/xmlschemas/TrackPointExtension/v1">
            <gpxtpx:hr>146</gpxtpx:hr>
          </gpxtpx:TrackPointExtension>
        </extensions>
      </trkpt>
      <trkpt lat="44.16092" lon="5.28023">
        <ele>1336.6</ele>
        <time>2021-06-12T08:43:20Z</time>
        <extensions>
          <gpxtpx:TrackPointExtension xmlns:gpxtpx="http://www.garmin.com/xmlschemas/TrackPointExtension/v1">
            <gpxtpx:hr>146</gpxtpx:hr>
          </gpxtpx:TrackPointExtension>
        </extensions>
      </trkpt>
      <trkpt lat="44.16093" lon="5.28019">
        <ele>1337</ele>
        <time>2021-06-12T08:43:22Z</time>
        <extensions>
          <gpxtpx:TrackPointExtension xmlns:gpxtpx="http://www.garmin.com/xmlschemas/TrackPointExtension/v1">
            <gpxtpx:hr>144</gpxtpx:hr>
          </gpxtpx:TrackPointExtension>
        </extensions>
      </trkpt>
      <trkpt lat="44.16094" lon="5.28017">
        <ele>1337.2</ele>
        <time>2021-06-12T08:43:23Z</time>
        <extensions>
          <gpxtpx:TrackPointExtension xmlns:gpxtpx="http://www.garmin.com/xmlschemas/TrackPointExtension/v1">
            <gpxtpx:hr>145</gpxtpx:hr>
          </gpxtpx:TrackPointExtension>
        </extensions>
      </trkpt>
      <trkpt lat="44.16097" lon="5.28012">
        <ele>1338</ele>
        <time>2021-06-12T08:43:27Z</time>
        <extensions>
          <gpxtpx:TrackPointExtension xmlns:gpxtpx="http://www.garmin.com/xmlschemas/TrackPointExtension/v1">
            <gpxtpx:hr>145</gpxtpx:hr>
          </gpxtpx:TrackPointExtension>
        </extensions>
      </trkpt>
      <trkpt lat="44.16099" lon="5.28011">
        <ele>1338.4</ele>
        <time>2021-06-12T08:43:29Z</time>
        <extensions>
          <gpxtpx:TrackPointExtension xmlns:gpxtpx="http://www.garmin.com/xmlschemas/TrackPointExtension/v1">
            <gpxtpx:hr>144</gpxtpx:hr>
          </gpxtpx:TrackPointExtension>
        </extensions>
      </trkpt>
      <trkpt lat="44.16102" lon="5.28013">
        <ele>1338.6</ele>
        <time>2021-06-12T08:43:31Z</time>
        <extensions>
          <gpxtpx:TrackPointExtension xmlns:gpxtpx="http://www.garmin.com/xmlschemas/TrackPointExtension/v1">
            <gpxtpx:hr>144</gpxtpx:hr>
          </gpxtpx:TrackPointExtension>
        </extensions>
      </trkpt>
      <trkpt lat="44.16106" lon="5.28016">
        <ele>1339</ele>
        <time>2021-06-12T08:43:33Z</time>
        <extensions>
          <gpxtpx:TrackPointExtension xmlns:gpxtpx="http://www.garmin.com/xmlschemas/TrackPointExtension/v1">
            <gpxtpx:hr>144</gpxtpx:hr>
          </gpxtpx:TrackPointExtension>
        </extensions>
      </trkpt>
      <trkpt lat="44.1611" lon="5.2802">
        <ele>1339.4</ele>
        <time>2021-06-12T08:43:36Z</time>
        <extensions>
          <gpxtpx:TrackPointExtension xmlns:gpxtpx="http://www.garmin.com/xmlschemas/TrackPointExtension/v1">
            <gpxtpx:hr>145</gpxtpx:hr>
          </gpxtpx:TrackPointExtension>
        </extensions>
      </trkpt>
      <trkpt lat="44.16111" lon="5.28018">
        <ele>1339.6</ele>
        <time>2021-06-12T08:43:37Z</time>
        <extensions>
          <gpxtpx:TrackPointExtension xmlns:gpxtpx="http://www.garmin.com/xmlschemas/TrackPointExtension/v1">
            <gpxtpx:hr>144</gpxtpx:hr>
          </gpxtpx:TrackPointExtension>
        </extensions>
      </trkpt>
      <trkpt lat="44.16111" lon="5.28014">
        <ele>1340</ele>
        <time>2021-06-12T08:43:39Z</time>
        <extensions>
          <gpxtpx:TrackPointExtension xmlns:gpxtpx="http://www.garmin.com/xmlschemas/TrackPointExtension/v1">
            <gpxtpx:hr>144</gpxtpx:hr>
          </gpxtpx:TrackPointExtension>
        </extensions>
      </trkpt>
      <trkpt lat="44.16111" lon="5.28011">
        <ele>1340.4</ele>
        <time>2021-06-12T08:43:41Z</time>
        <extensions>
          <gpxtpx:TrackPointExtension xmlns:gpxtpx="http://www.garmin.com/xmlschemas/TrackPointExtension/v1">
            <gpxtpx:hr>143</gpxtpx:hr>
          </gpxtpx:TrackPointExtension>
        </extensions>
      </trkpt>
      <trkpt lat="44.16112" lon="5.2801">
        <ele>1340.4</ele>
        <time>2021-06-12T08:43:42Z</time>
        <extensions>
          <gpxtpx:TrackPointExtension xmlns:gpxtpx="http://www.garmin.com/xmlschemas/TrackPointExtension/v1">
            <gpxtpx:hr>144</gpxtpx:hr>
          </gpxtpx:TrackPointExtension>
        </extensions>
      </trkpt>
      <trkpt lat="44.16115" lon="5.28011">
        <ele>1340.8</ele>
        <time>2021-06-12T08:43:45Z</time>
        <extensions>
          <gpxtpx:TrackPointExtension xmlns:gpxtpx="http://www.garmin.com/xmlschemas/TrackPointExtension/v1">
            <gpxtpx:hr>144</gpxtpx:hr>
          </gpxtpx:TrackPointExtension>
        </extensions>
      </trkpt>
      <trkpt lat="44.16118" lon="5.28013">
        <ele>1341.6</ele>
        <time>2021-06-12T08:43:48Z</time>
        <extensions>
          <gpxtpx:TrackPointExtension xmlns:gpxtpx="http://www.garmin.com/xmlschemas/TrackPointExtension/v1">
            <gpxtpx:hr>144</gpxtpx:hr>
          </gpxtpx:TrackPointExtension>
        </extensions>
      </trkpt>
      <trkpt lat="44.1612" lon="5.28012">
        <ele>1341.8</ele>
        <time>2021-06-12T08:43:50Z</time>
        <extensions>
          <gpxtpx:TrackPointExtension xmlns:gpxtpx="http://www.garmin.com/xmlschemas/TrackPointExtension/v1">
            <gpxtpx:hr>144</gpxtpx:hr>
          </gpxtpx:TrackPointExtension>
        </extensions>
      </trkpt>
      <trkpt lat="44.16122" lon="5.28009">
        <ele>1342.6</ele>
        <time>2021-06-12T08:43:54Z</time>
        <extensions>
          <gpxtpx:TrackPointExtension xmlns:gpxtpx="http://www.garmin.com/xmlschemas/TrackPointExtension/v1">
            <gpxtpx:hr>144</gpxtpx:hr>
          </gpxtpx:TrackPointExtension>
        </extensions>
      </trkpt>
      <trkpt lat="44.16123" lon="5.28011">
        <ele>1342.8</ele>
        <time>2021-06-12T08:43:55Z</time>
        <extensions>
          <gpxtpx:TrackPointExtension xmlns:gpxtpx="http://www.garmin.com/xmlschemas/TrackPointExtension/v1">
            <gpxtpx:hr>143</gpxtpx:hr>
          </gpxtpx:TrackPointExtension>
        </extensions>
      </trkpt>
      <trkpt lat="44.16126" lon="5.28011">
        <ele>1343.4</ele>
        <time>2021-06-12T08:43:58Z</time>
        <extensions>
          <gpxtpx:TrackPointExtension xmlns:gpxtpx="http://www.garmin.com/xmlschemas/TrackPointExtension/v1">
            <gpxtpx:hr>143</gpxtpx:hr>
          </gpxtpx:TrackPointExtension>
        </extensions>
      </trkpt>
      <trkpt lat="44.16127" lon="5.28008">
        <ele>1343.6</ele>
        <time>2021-06-12T08:44:00Z</time>
        <extensions>
          <gpxtpx:TrackPointExtension xmlns:gpxtpx="http://www.garmin.com/xmlschemas/TrackPointExtension/v1">
            <gpxtpx:hr>143</gpxtpx:hr>
          </gpxtpx:TrackPointExtension>
        </extensions>
      </trkpt>
      <trkpt lat="44.16128" lon="5.28007">
        <ele>1343.8</ele>
        <time>2021-06-12T08:44:01Z</time>
        <extensions>
          <gpxtpx:TrackPointExtension xmlns:gpxtpx="http://www.garmin.com/xmlschemas/TrackPointExtension/v1">
            <gpxtpx:hr>142</gpxtpx:hr>
          </gpxtpx:TrackPointExtension>
        </extensions>
      </trkpt>
      <trkpt lat="44.16131" lon="5.2801">
        <ele>1344.6</ele>
        <time>2021-06-12T08:44:05Z</time>
        <extensions>
          <gpxtpx:TrackPointExtension xmlns:gpxtpx="http://www.garmin.com/xmlschemas/TrackPointExtension/v1">
            <gpxtpx:hr>143</gpxtpx:hr>
          </gpxtpx:TrackPointExtension>
        </extensions>
      </trkpt>
      <trkpt lat="44.16132" lon="5.2801">
        <ele>1344.8</ele>
        <time>2021-06-12T08:44:06Z</time>
        <extensions>
          <gpxtpx:TrackPointExtension xmlns:gpxtpx="http://www.garmin.com/xmlschemas/TrackPointExtension/v1">
            <gpxtpx:hr>143</gpxtpx:hr>
          </gpxtpx:TrackPointExtension>
        </extensions>
      </trkpt>
      <trkpt lat="44.16134" lon="5.28009">
        <ele>1345.2</ele>
        <time>2021-06-12T08:44:09Z</time>
        <extensions>
          <gpxtpx:TrackPointExtension xmlns:gpxtpx="http://www.garmin.com/xmlschemas/TrackPointExtension/v1">
            <gpxtpx:hr>143</gpxtpx:hr>
          </gpxtpx:TrackPointExtension>
        </extensions>
      </trkpt>
      <trkpt lat="44.16139" lon="5.28012">
        <ele>1345.6</ele>
        <time>2021-06-12T08:44:14Z</time>
        <extensions>
          <gpxtpx:TrackPointExtension xmlns:gpxtpx="http://www.garmin.com/xmlschemas/TrackPointExtension/v1">
            <gpxtpx:hr>144</gpxtpx:hr>
          </gpxtpx:TrackPointExtension>
        </extensions>
      </trkpt>
      <trkpt lat="44.1614" lon="5.28012">
        <ele>1345.8</ele>
        <time>2021-06-12T08:44:15Z</time>
        <extensions>
          <gpxtpx:TrackPointExtension xmlns:gpxtpx="http://www.garmin.com/xmlschemas/TrackPointExtension/v1">
            <gpxtpx:hr>144</gpxtpx:hr>
          </gpxtpx:TrackPointExtension>
        </extensions>
      </trkpt>
      <trkpt lat="44.16142" lon="5.28012">
        <ele>1346.2</ele>
        <time>2021-06-12T08:44:17Z</time>
        <extensions>
          <gpxtpx:TrackPointExtension xmlns:gpxtpx="http://www.garmin.com/xmlschemas/TrackPointExtension/v1">
            <gpxtpx:hr>144</gpxtpx:hr>
          </gpxtpx:TrackPointExtension>
        </extensions>
      </trkpt>
      <trkpt lat="44.16142" lon="5.28015">
        <ele>1347</ele>
        <time>2021-06-12T08:44:20Z</time>
        <extensions>
          <gpxtpx:TrackPointExtension xmlns:gpxtpx="http://www.garmin.com/xmlschemas/TrackPointExtension/v1">
            <gpxtpx:hr>145</gpxtpx:hr>
          </gpxtpx:TrackPointExtension>
        </extensions>
      </trkpt>
      <trkpt lat="44.16143" lon="5.28014">
        <ele>1347.2</ele>
        <time>2021-06-12T08:44:22Z</time>
        <extensions>
          <gpxtpx:TrackPointExtension xmlns:gpxtpx="http://www.garmin.com/xmlschemas/TrackPointExtension/v1">
            <gpxtpx:hr>144</gpxtpx:hr>
          </gpxtpx:TrackPointExtension>
        </extensions>
      </trkpt>
      <trkpt lat="44.16145" lon="5.28016">
        <ele>1347.6</ele>
        <time>2021-06-12T08:44:25Z</time>
        <extensions>
          <gpxtpx:TrackPointExtension xmlns:gpxtpx="http://www.garmin.com/xmlschemas/TrackPointExtension/v1">
            <gpxtpx:hr>145</gpxtpx:hr>
          </gpxtpx:TrackPointExtension>
        </extensions>
      </trkpt>
      <trkpt lat="44.16148" lon="5.28015">
        <ele>1348.2</ele>
        <time>2021-06-12T08:44:27Z</time>
        <extensions>
          <gpxtpx:TrackPointExtension xmlns:gpxtpx="http://www.garmin.com/xmlschemas/TrackPointExtension/v1">
            <gpxtpx:hr>146</gpxtpx:hr>
          </gpxtpx:TrackPointExtension>
        </extensions>
      </trkpt>
      <trkpt lat="44.16153" lon="5.28015">
        <ele>1349</ele>
        <time>2021-06-12T08:44:32Z</time>
        <extensions>
          <gpxtpx:TrackPointExtension xmlns:gpxtpx="http://www.garmin.com/xmlschemas/TrackPointExtension/v1">
            <gpxtpx:hr>146</gpxtpx:hr>
          </gpxtpx:TrackPointExtension>
        </extensions>
      </trkpt>
      <trkpt lat="44.16154" lon="5.28015">
        <ele>1349.2</ele>
        <time>2021-06-12T08:44:33Z</time>
        <extensions>
          <gpxtpx:TrackPointExtension xmlns:gpxtpx="http://www.garmin.com/xmlschemas/TrackPointExtension/v1">
            <gpxtpx:hr>145</gpxtpx:hr>
          </gpxtpx:TrackPointExtension>
        </extensions>
      </trkpt>
      <trkpt lat="44.16154" lon="5.28015">
        <ele>1349.2</ele>
        <time>2021-06-12T08:44:34Z</time>
        <extensions>
          <gpxtpx:TrackPointExtension xmlns:gpxtpx="http://www.garmin.com/xmlschemas/TrackPointExtension/v1">
            <gpxtpx:hr>146</gpxtpx:hr>
          </gpxtpx:TrackPointExtension>
        </extensions>
      </trkpt>
      <trkpt lat="44.16157" lon="5.28018">
        <ele>1350.2</ele>
        <time>2021-06-12T08:44:38Z</time>
        <extensions>
          <gpxtpx:TrackPointExtension xmlns:gpxtpx="http://www.garmin.com/xmlschemas/TrackPointExtension/v1">
            <gpxtpx:hr>146</gpxtpx:hr>
          </gpxtpx:TrackPointExtension>
        </extensions>
      </trkpt>
      <trkpt lat="44.16158" lon="5.28017">
        <ele>1350.4</ele>
        <time>2021-06-12T08:44:39Z</time>
        <extensions>
          <gpxtpx:TrackPointExtension xmlns:gpxtpx="http://www.garmin.com/xmlschemas/TrackPointExtension/v1">
            <gpxtpx:hr>147</gpxtpx:hr>
          </gpxtpx:TrackPointExtension>
        </extensions>
      </trkpt>
      <trkpt lat="44.16163" lon="5.28017">
        <ele>1351.6</ele>
        <time>2021-06-12T08:44:45Z</time>
        <extensions>
          <gpxtpx:TrackPointExtension xmlns:gpxtpx="http://www.garmin.com/xmlschemas/TrackPointExtension/v1">
            <gpxtpx:hr>146</gpxtpx:hr>
          </gpxtpx:TrackPointExtension>
        </extensions>
      </trkpt>
      <trkpt lat="44.16165" lon="5.28016">
        <ele>1352.2</ele>
        <time>2021-06-12T08:44:49Z</time>
        <extensions>
          <gpxtpx:TrackPointExtension xmlns:gpxtpx="http://www.garmin.com/xmlschemas/TrackPointExtension/v1">
            <gpxtpx:hr>146</gpxtpx:hr>
          </gpxtpx:TrackPointExtension>
        </extensions>
      </trkpt>
      <trkpt lat="44.16166" lon="5.28014">
        <ele>1352.6</ele>
        <time>2021-06-12T08:44:52Z</time>
        <extensions>
          <gpxtpx:TrackPointExtension xmlns:gpxtpx="http://www.garmin.com/xmlschemas/TrackPointExtension/v1">
            <gpxtpx:hr>146</gpxtpx:hr>
          </gpxtpx:TrackPointExtension>
        </extensions>
      </trkpt>
      <trkpt lat="44.1617" lon="5.28017">
        <ele>1353.6</ele>
        <time>2021-06-12T08:44:57Z</time>
        <extensions>
          <gpxtpx:TrackPointExtension xmlns:gpxtpx="http://www.garmin.com/xmlschemas/TrackPointExtension/v1">
            <gpxtpx:hr>146</gpxtpx:hr>
          </gpxtpx:TrackPointExtension>
        </extensions>
      </trkpt>
      <trkpt lat="44.16172" lon="5.28016">
        <ele>1354</ele>
        <time>2021-06-12T08:44:59Z</time>
        <extensions>
          <gpxtpx:TrackPointExtension xmlns:gpxtpx="http://www.garmin.com/xmlschemas/TrackPointExtension/v1">
            <gpxtpx:hr>146</gpxtpx:hr>
          </gpxtpx:TrackPointExtension>
        </extensions>
      </trkpt>
      <trkpt lat="44.16175" lon="5.28015">
        <ele>1354.4</ele>
        <time>2021-06-12T08:45:02Z</time>
        <extensions>
          <gpxtpx:TrackPointExtension xmlns:gpxtpx="http://www.garmin.com/xmlschemas/TrackPointExtension/v1">
            <gpxtpx:hr>143</gpxtpx:hr>
          </gpxtpx:TrackPointExtension>
        </extensions>
      </trkpt>
      <trkpt lat="44.16178" lon="5.28016">
        <ele>1354.8</ele>
        <time>2021-06-12T08:45:04Z</time>
        <extensions>
          <gpxtpx:TrackPointExtension xmlns:gpxtpx="http://www.garmin.com/xmlschemas/TrackPointExtension/v1">
            <gpxtpx:hr>142</gpxtpx:hr>
          </gpxtpx:TrackPointExtension>
        </extensions>
      </trkpt>
      <trkpt lat="44.16179" lon="5.28017">
        <ele>1355</ele>
        <time>2021-06-12T08:45:05Z</time>
        <extensions>
          <gpxtpx:TrackPointExtension xmlns:gpxtpx="http://www.garmin.com/xmlschemas/TrackPointExtension/v1">
            <gpxtpx:hr>142</gpxtpx:hr>
          </gpxtpx:TrackPointExtension>
        </extensions>
      </trkpt>
      <trkpt lat="44.16181" lon="5.28018">
        <ele>1355.6</ele>
        <time>2021-06-12T08:45:07Z</time>
        <extensions>
          <gpxtpx:TrackPointExtension xmlns:gpxtpx="http://www.garmin.com/xmlschemas/TrackPointExtension/v1">
            <gpxtpx:hr>141</gpxtpx:hr>
          </gpxtpx:TrackPointExtension>
        </extensions>
      </trkpt>
      <trkpt lat="44.16182" lon="5.28018">
        <ele>1355.8</ele>
        <time>2021-06-12T08:45:09Z</time>
        <extensions>
          <gpxtpx:TrackPointExtension xmlns:gpxtpx="http://www.garmin.com/xmlschemas/TrackPointExtension/v1">
            <gpxtpx:hr>140</gpxtpx:hr>
          </gpxtpx:TrackPointExtension>
        </extensions>
      </trkpt>
      <trkpt lat="44.16183" lon="5.28019">
        <ele>1356</ele>
        <time>2021-06-12T08:45:10Z</time>
        <extensions>
          <gpxtpx:TrackPointExtension xmlns:gpxtpx="http://www.garmin.com/xmlschemas/TrackPointExtension/v1">
            <gpxtpx:hr>140</gpxtpx:hr>
          </gpxtpx:TrackPointExtension>
        </extensions>
      </trkpt>
      <trkpt lat="44.16184" lon="5.2802">
        <ele>1356.4</ele>
        <time>2021-06-12T08:45:12Z</time>
        <extensions>
          <gpxtpx:TrackPointExtension xmlns:gpxtpx="http://www.garmin.com/xmlschemas/TrackPointExtension/v1">
            <gpxtpx:hr>140</gpxtpx:hr>
          </gpxtpx:TrackPointExtension>
        </extensions>
      </trkpt>
      <trkpt lat="44.16188" lon="5.28025">
        <ele>1357</ele>
        <time>2021-06-12T08:45:15Z</time>
        <extensions>
          <gpxtpx:TrackPointExtension xmlns:gpxtpx="http://www.garmin.com/xmlschemas/TrackPointExtension/v1">
            <gpxtpx:hr>139</gpxtpx:hr>
          </gpxtpx:TrackPointExtension>
        </extensions>
      </trkpt>
      <trkpt lat="44.1619" lon="5.28027">
        <ele>1357.2</ele>
        <time>2021-06-12T08:45:17Z</time>
        <extensions>
          <gpxtpx:TrackPointExtension xmlns:gpxtpx="http://www.garmin.com/xmlschemas/TrackPointExtension/v1">
            <gpxtpx:hr>140</gpxtpx:hr>
          </gpxtpx:TrackPointExtension>
        </extensions>
      </trkpt>
      <trkpt lat="44.16192" lon="5.28029">
        <ele>1357.8</ele>
        <time>2021-06-12T08:45:20Z</time>
        <extensions>
          <gpxtpx:TrackPointExtension xmlns:gpxtpx="http://www.garmin.com/xmlschemas/TrackPointExtension/v1">
            <gpxtpx:hr>140</gpxtpx:hr>
          </gpxtpx:TrackPointExtension>
        </extensions>
      </trkpt>
      <trkpt lat="44.16195" lon="5.28031">
        <ele>1358</ele>
        <time>2021-06-12T08:45:22Z</time>
        <extensions>
          <gpxtpx:TrackPointExtension xmlns:gpxtpx="http://www.garmin.com/xmlschemas/TrackPointExtension/v1">
            <gpxtpx:hr>141</gpxtpx:hr>
          </gpxtpx:TrackPointExtension>
        </extensions>
      </trkpt>
      <trkpt lat="44.16195" lon="5.28032">
        <ele>1358.2</ele>
        <time>2021-06-12T08:45:23Z</time>
        <extensions>
          <gpxtpx:TrackPointExtension xmlns:gpxtpx="http://www.garmin.com/xmlschemas/TrackPointExtension/v1">
            <gpxtpx:hr>140</gpxtpx:hr>
          </gpxtpx:TrackPointExtension>
        </extensions>
      </trkpt>
      <trkpt lat="44.16197" lon="5.28036">
        <ele>1358.8</ele>
        <time>2021-06-12T08:45:26Z</time>
        <extensions>
          <gpxtpx:TrackPointExtension xmlns:gpxtpx="http://www.garmin.com/xmlschemas/TrackPointExtension/v1">
            <gpxtpx:hr>141</gpxtpx:hr>
          </gpxtpx:TrackPointExtension>
        </extensions>
      </trkpt>
      <trkpt lat="44.16199" lon="5.28037">
        <ele>1359.2</ele>
        <time>2021-06-12T08:45:28Z</time>
        <extensions>
          <gpxtpx:TrackPointExtension xmlns:gpxtpx="http://www.garmin.com/xmlschemas/TrackPointExtension/v1">
            <gpxtpx:hr>142</gpxtpx:hr>
          </gpxtpx:TrackPointExtension>
        </extensions>
      </trkpt>
      <trkpt lat="44.16202" lon="5.28039">
        <ele>1360</ele>
        <time>2021-06-12T08:45:31Z</time>
        <extensions>
          <gpxtpx:TrackPointExtension xmlns:gpxtpx="http://www.garmin.com/xmlschemas/TrackPointExtension/v1">
            <gpxtpx:hr>142</gpxtpx:hr>
          </gpxtpx:TrackPointExtension>
        </extensions>
      </trkpt>
      <trkpt lat="44.16205" lon="5.2804">
        <ele>1360.2</ele>
        <time>2021-06-12T08:45:33Z</time>
        <extensions>
          <gpxtpx:TrackPointExtension xmlns:gpxtpx="http://www.garmin.com/xmlschemas/TrackPointExtension/v1">
            <gpxtpx:hr>142</gpxtpx:hr>
          </gpxtpx:TrackPointExtension>
        </extensions>
      </trkpt>
      <trkpt lat="44.16207" lon="5.2804">
        <ele>1360.6</ele>
        <time>2021-06-12T08:45:35Z</time>
        <extensions>
          <gpxtpx:TrackPointExtension xmlns:gpxtpx="http://www.garmin.com/xmlschemas/TrackPointExtension/v1">
            <gpxtpx:hr>143</gpxtpx:hr>
          </gpxtpx:TrackPointExtension>
        </extensions>
      </trkpt>
      <trkpt lat="44.16211" lon="5.28039">
        <ele>1361.4</ele>
        <time>2021-06-12T08:45:38Z</time>
        <extensions>
          <gpxtpx:TrackPointExtension xmlns:gpxtpx="http://www.garmin.com/xmlschemas/TrackPointExtension/v1">
            <gpxtpx:hr>144</gpxtpx:hr>
          </gpxtpx:TrackPointExtension>
        </extensions>
      </trkpt>
      <trkpt lat="44.16212" lon="5.2804">
        <ele>1361.8</ele>
        <time>2021-06-12T08:45:40Z</time>
        <extensions>
          <gpxtpx:TrackPointExtension xmlns:gpxtpx="http://www.garmin.com/xmlschemas/TrackPointExtension/v1">
            <gpxtpx:hr>144</gpxtpx:hr>
          </gpxtpx:TrackPointExtension>
        </extensions>
      </trkpt>
      <trkpt lat="44.16215" lon="5.2804">
        <ele>1362.6</ele>
        <time>2021-06-12T08:45:43Z</time>
        <extensions>
          <gpxtpx:TrackPointExtension xmlns:gpxtpx="http://www.garmin.com/xmlschemas/TrackPointExtension/v1">
            <gpxtpx:hr>145</gpxtpx:hr>
          </gpxtpx:TrackPointExtension>
        </extensions>
      </trkpt>
      <trkpt lat="44.16218" lon="5.28037">
        <ele>1363.6</ele>
        <time>2021-06-12T08:45:49Z</time>
        <extensions>
          <gpxtpx:TrackPointExtension xmlns:gpxtpx="http://www.garmin.com/xmlschemas/TrackPointExtension/v1">
            <gpxtpx:hr>145</gpxtpx:hr>
          </gpxtpx:TrackPointExtension>
        </extensions>
      </trkpt>
      <trkpt lat="44.16219" lon="5.28038">
        <ele>1363.8</ele>
        <time>2021-06-12T08:45:50Z</time>
        <extensions>
          <gpxtpx:TrackPointExtension xmlns:gpxtpx="http://www.garmin.com/xmlschemas/TrackPointExtension/v1">
            <gpxtpx:hr>145</gpxtpx:hr>
          </gpxtpx:TrackPointExtension>
        </extensions>
      </trkpt>
      <trkpt lat="44.1622" lon="5.28036">
        <ele>1364</ele>
        <time>2021-06-12T08:45:52Z</time>
        <extensions>
          <gpxtpx:TrackPointExtension xmlns:gpxtpx="http://www.garmin.com/xmlschemas/TrackPointExtension/v1">
            <gpxtpx:hr>145</gpxtpx:hr>
          </gpxtpx:TrackPointExtension>
        </extensions>
      </trkpt>
      <trkpt lat="44.16221" lon="5.28037">
        <ele>1364.4</ele>
        <time>2021-06-12T08:45:54Z</time>
        <extensions>
          <gpxtpx:TrackPointExtension xmlns:gpxtpx="http://www.garmin.com/xmlschemas/TrackPointExtension/v1">
            <gpxtpx:hr>145</gpxtpx:hr>
          </gpxtpx:TrackPointExtension>
        </extensions>
      </trkpt>
      <trkpt lat="44.16223" lon="5.28039">
        <ele>1364.6</ele>
        <time>2021-06-12T08:45:56Z</time>
        <extensions>
          <gpxtpx:TrackPointExtension xmlns:gpxtpx="http://www.garmin.com/xmlschemas/TrackPointExtension/v1">
            <gpxtpx:hr>146</gpxtpx:hr>
          </gpxtpx:TrackPointExtension>
        </extensions>
      </trkpt>
      <trkpt lat="44.16225" lon="5.28036">
        <ele>1365.4</ele>
        <time>2021-06-12T08:46:01Z</time>
        <extensions>
          <gpxtpx:TrackPointExtension xmlns:gpxtpx="http://www.garmin.com/xmlschemas/TrackPointExtension/v1">
            <gpxtpx:hr>146</gpxtpx:hr>
          </gpxtpx:TrackPointExtension>
        </extensions>
      </trkpt>
      <trkpt lat="44.16226" lon="5.28035">
        <ele>1365.8</ele>
        <time>2021-06-12T08:46:03Z</time>
        <extensions>
          <gpxtpx:TrackPointExtension xmlns:gpxtpx="http://www.garmin.com/xmlschemas/TrackPointExtension/v1">
            <gpxtpx:hr>146</gpxtpx:hr>
          </gpxtpx:TrackPointExtension>
        </extensions>
      </trkpt>
      <trkpt lat="44.16227" lon="5.28035">
        <ele>1366</ele>
        <time>2021-06-12T08:46:04Z</time>
        <extensions>
          <gpxtpx:TrackPointExtension xmlns:gpxtpx="http://www.garmin.com/xmlschemas/TrackPointExtension/v1">
            <gpxtpx:hr>146</gpxtpx:hr>
          </gpxtpx:TrackPointExtension>
        </extensions>
      </trkpt>
      <trkpt lat="44.16229" lon="5.28034">
        <ele>1367</ele>
        <time>2021-06-12T08:46:09Z</time>
        <extensions>
          <gpxtpx:TrackPointExtension xmlns:gpxtpx="http://www.garmin.com/xmlschemas/TrackPointExtension/v1">
            <gpxtpx:hr>148</gpxtpx:hr>
          </gpxtpx:TrackPointExtension>
        </extensions>
      </trkpt>
      <trkpt lat="44.16233" lon="5.28033">
        <ele>1368</ele>
        <time>2021-06-12T08:46:14Z</time>
        <extensions>
          <gpxtpx:TrackPointExtension xmlns:gpxtpx="http://www.garmin.com/xmlschemas/TrackPointExtension/v1">
            <gpxtpx:hr>149</gpxtpx:hr>
          </gpxtpx:TrackPointExtension>
        </extensions>
      </trkpt>
      <trkpt lat="44.16234" lon="5.28033">
        <ele>1368.4</ele>
        <time>2021-06-12T08:46:15Z</time>
        <extensions>
          <gpxtpx:TrackPointExtension xmlns:gpxtpx="http://www.garmin.com/xmlschemas/TrackPointExtension/v1">
            <gpxtpx:hr>149</gpxtpx:hr>
          </gpxtpx:TrackPointExtension>
        </extensions>
      </trkpt>
      <trkpt lat="44.16237" lon="5.28034">
        <ele>1368.8</ele>
        <time>2021-06-12T08:46:18Z</time>
        <extensions>
          <gpxtpx:TrackPointExtension xmlns:gpxtpx="http://www.garmin.com/xmlschemas/TrackPointExtension/v1">
            <gpxtpx:hr>149</gpxtpx:hr>
          </gpxtpx:TrackPointExtension>
        </extensions>
      </trkpt>
      <trkpt lat="44.16238" lon="5.28034">
        <ele>1369.2</ele>
        <time>2021-06-12T08:46:20Z</time>
        <extensions>
          <gpxtpx:TrackPointExtension xmlns:gpxtpx="http://www.garmin.com/xmlschemas/TrackPointExtension/v1">
            <gpxtpx:hr>149</gpxtpx:hr>
          </gpxtpx:TrackPointExtension>
        </extensions>
      </trkpt>
      <trkpt lat="44.16239" lon="5.28033">
        <ele>1369.4</ele>
        <time>2021-06-12T08:46:21Z</time>
        <extensions>
          <gpxtpx:TrackPointExtension xmlns:gpxtpx="http://www.garmin.com/xmlschemas/TrackPointExtension/v1">
            <gpxtpx:hr>148</gpxtpx:hr>
          </gpxtpx:TrackPointExtension>
        </extensions>
      </trkpt>
      <trkpt lat="44.16241" lon="5.28033">
        <ele>1370.4</ele>
        <time>2021-06-12T08:46:25Z</time>
        <extensions>
          <gpxtpx:TrackPointExtension xmlns:gpxtpx="http://www.garmin.com/xmlschemas/TrackPointExtension/v1">
            <gpxtpx:hr>148</gpxtpx:hr>
          </gpxtpx:TrackPointExtension>
        </extensions>
      </trkpt>
      <trkpt lat="44.16241" lon="5.28032">
        <ele>1370.6</ele>
        <time>2021-06-12T08:46:26Z</time>
        <extensions>
          <gpxtpx:TrackPointExtension xmlns:gpxtpx="http://www.garmin.com/xmlschemas/TrackPointExtension/v1">
            <gpxtpx:hr>148</gpxtpx:hr>
          </gpxtpx:TrackPointExtension>
        </extensions>
      </trkpt>
      <trkpt lat="44.16243" lon="5.28033">
        <ele>1371.4</ele>
        <time>2021-06-12T08:46:30Z</time>
        <extensions>
          <gpxtpx:TrackPointExtension xmlns:gpxtpx="http://www.garmin.com/xmlschemas/TrackPointExtension/v1">
            <gpxtpx:hr>148</gpxtpx:hr>
          </gpxtpx:TrackPointExtension>
        </extensions>
      </trkpt>
      <trkpt lat="44.16248" lon="5.28037">
        <ele>1372.4</ele>
        <time>2021-06-12T08:46:35Z</time>
        <extensions>
          <gpxtpx:TrackPointExtension xmlns:gpxtpx="http://www.garmin.com/xmlschemas/TrackPointExtension/v1">
            <gpxtpx:hr>147</gpxtpx:hr>
          </gpxtpx:TrackPointExtension>
        </extensions>
      </trkpt>
      <trkpt lat="44.1625" lon="5.28036">
        <ele>1372.8</ele>
        <time>2021-06-12T08:46:37Z</time>
        <extensions>
          <gpxtpx:TrackPointExtension xmlns:gpxtpx="http://www.garmin.com/xmlschemas/TrackPointExtension/v1">
            <gpxtpx:hr>148</gpxtpx:hr>
          </gpxtpx:TrackPointExtension>
        </extensions>
      </trkpt>
      <trkpt lat="44.16253" lon="5.28036">
        <ele>1373.2</ele>
        <time>2021-06-12T08:46:40Z</time>
        <extensions>
          <gpxtpx:TrackPointExtension xmlns:gpxtpx="http://www.garmin.com/xmlschemas/TrackPointExtension/v1">
            <gpxtpx:hr>148</gpxtpx:hr>
          </gpxtpx:TrackPointExtension>
        </extensions>
      </trkpt>
      <trkpt lat="44.16254" lon="5.28034">
        <ele>1373.6</ele>
        <time>2021-06-12T08:46:42Z</time>
        <extensions>
          <gpxtpx:TrackPointExtension xmlns:gpxtpx="http://www.garmin.com/xmlschemas/TrackPointExtension/v1">
            <gpxtpx:hr>148</gpxtpx:hr>
          </gpxtpx:TrackPointExtension>
        </extensions>
      </trkpt>
      <trkpt lat="44.16257" lon="5.28035">
        <ele>1374.2</ele>
        <time>2021-06-12T08:46:45Z</time>
        <extensions>
          <gpxtpx:TrackPointExtension xmlns:gpxtpx="http://www.garmin.com/xmlschemas/TrackPointExtension/v1">
            <gpxtpx:hr>148</gpxtpx:hr>
          </gpxtpx:TrackPointExtension>
        </extensions>
      </trkpt>
      <trkpt lat="44.16258" lon="5.28035">
        <ele>1374.6</ele>
        <time>2021-06-12T08:46:47Z</time>
        <extensions>
          <gpxtpx:TrackPointExtension xmlns:gpxtpx="http://www.garmin.com/xmlschemas/TrackPointExtension/v1">
            <gpxtpx:hr>148</gpxtpx:hr>
          </gpxtpx:TrackPointExtension>
        </extensions>
      </trkpt>
      <trkpt lat="44.1626" lon="5.28033">
        <ele>1375.2</ele>
        <time>2021-06-12T08:46:49Z</time>
        <extensions>
          <gpxtpx:TrackPointExtension xmlns:gpxtpx="http://www.garmin.com/xmlschemas/TrackPointExtension/v1">
            <gpxtpx:hr>148</gpxtpx:hr>
          </gpxtpx:TrackPointExtension>
        </extensions>
      </trkpt>
      <trkpt lat="44.16261" lon="5.28033">
        <ele>1375.4</ele>
        <time>2021-06-12T08:46:50Z</time>
        <extensions>
          <gpxtpx:TrackPointExtension xmlns:gpxtpx="http://www.garmin.com/xmlschemas/TrackPointExtension/v1">
            <gpxtpx:hr>148</gpxtpx:hr>
          </gpxtpx:TrackPointExtension>
        </extensions>
      </trkpt>
      <trkpt lat="44.16261" lon="5.28032">
        <ele>1375.4</ele>
        <time>2021-06-12T08:46:51Z</time>
        <extensions>
          <gpxtpx:TrackPointExtension xmlns:gpxtpx="http://www.garmin.com/xmlschemas/TrackPointExtension/v1">
            <gpxtpx:hr>148</gpxtpx:hr>
          </gpxtpx:TrackPointExtension>
        </extensions>
      </trkpt>
      <trkpt lat="44.16262" lon="5.28032">
        <ele>1375.6</ele>
        <time>2021-06-12T08:46:52Z</time>
        <extensions>
          <gpxtpx:TrackPointExtension xmlns:gpxtpx="http://www.garmin.com/xmlschemas/TrackPointExtension/v1">
            <gpxtpx:hr>148</gpxtpx:hr>
          </gpxtpx:TrackPointExtension>
        </extensions>
      </trkpt>
      <trkpt lat="44.16263" lon="5.28032">
        <ele>1375.8</ele>
        <time>2021-06-12T08:46:53Z</time>
        <extensions>
          <gpxtpx:TrackPointExtension xmlns:gpxtpx="http://www.garmin.com/xmlschemas/TrackPointExtension/v1">
            <gpxtpx:hr>149</gpxtpx:hr>
          </gpxtpx:TrackPointExtension>
        </extensions>
      </trkpt>
      <trkpt lat="44.16265" lon="5.28034">
        <ele>1376.4</ele>
        <time>2021-06-12T08:46:56Z</time>
        <extensions>
          <gpxtpx:TrackPointExtension xmlns:gpxtpx="http://www.garmin.com/xmlschemas/TrackPointExtension/v1">
            <gpxtpx:hr>149</gpxtpx:hr>
          </gpxtpx:TrackPointExtension>
        </extensions>
      </trkpt>
      <trkpt lat="44.16266" lon="5.28034">
        <ele>1377</ele>
        <time>2021-06-12T08:46:58Z</time>
        <extensions>
          <gpxtpx:TrackPointExtension xmlns:gpxtpx="http://www.garmin.com/xmlschemas/TrackPointExtension/v1">
            <gpxtpx:hr>150</gpxtpx:hr>
          </gpxtpx:TrackPointExtension>
        </extensions>
      </trkpt>
      <trkpt lat="44.16267" lon="5.28036">
        <ele>1377.2</ele>
        <time>2021-06-12T08:47:00Z</time>
        <extensions>
          <gpxtpx:TrackPointExtension xmlns:gpxtpx="http://www.garmin.com/xmlschemas/TrackPointExtension/v1">
            <gpxtpx:hr>149</gpxtpx:hr>
          </gpxtpx:TrackPointExtension>
        </extensions>
      </trkpt>
      <trkpt lat="44.16268" lon="5.28037">
        <ele>1377.8</ele>
        <time>2021-06-12T08:47:03Z</time>
        <extensions>
          <gpxtpx:TrackPointExtension xmlns:gpxtpx="http://www.garmin.com/xmlschemas/TrackPointExtension/v1">
            <gpxtpx:hr>150</gpxtpx:hr>
          </gpxtpx:TrackPointExtension>
        </extensions>
      </trkpt>
      <trkpt lat="44.16269" lon="5.28038">
        <ele>1378.2</ele>
        <time>2021-06-12T08:47:04Z</time>
        <extensions>
          <gpxtpx:TrackPointExtension xmlns:gpxtpx="http://www.garmin.com/xmlschemas/TrackPointExtension/v1">
            <gpxtpx:hr>150</gpxtpx:hr>
          </gpxtpx:TrackPointExtension>
        </extensions>
      </trkpt>
      <trkpt lat="44.16271" lon="5.28039">
        <ele>1378.8</ele>
        <time>2021-06-12T08:47:06Z</time>
        <extensions>
          <gpxtpx:TrackPointExtension xmlns:gpxtpx="http://www.garmin.com/xmlschemas/TrackPointExtension/v1">
            <gpxtpx:hr>149</gpxtpx:hr>
          </gpxtpx:TrackPointExtension>
        </extensions>
      </trkpt>
      <trkpt lat="44.16272" lon="5.28036">
        <ele>1379.4</ele>
        <time>2021-06-12T08:47:08Z</time>
        <extensions>
          <gpxtpx:TrackPointExtension xmlns:gpxtpx="http://www.garmin.com/xmlschemas/TrackPointExtension/v1">
            <gpxtpx:hr>148</gpxtpx:hr>
          </gpxtpx:TrackPointExtension>
        </extensions>
      </trkpt>
      <trkpt lat="44.16273" lon="5.28037">
        <ele>1379.6</ele>
        <time>2021-06-12T08:47:09Z</time>
        <extensions>
          <gpxtpx:TrackPointExtension xmlns:gpxtpx="http://www.garmin.com/xmlschemas/TrackPointExtension/v1">
            <gpxtpx:hr>148</gpxtpx:hr>
          </gpxtpx:TrackPointExtension>
        </extensions>
      </trkpt>
      <trkpt lat="44.16276" lon="5.28039">
        <ele>1380</ele>
        <time>2021-06-12T08:47:12Z</time>
        <extensions>
          <gpxtpx:TrackPointExtension xmlns:gpxtpx="http://www.garmin.com/xmlschemas/TrackPointExtension/v1">
            <gpxtpx:hr>149</gpxtpx:hr>
          </gpxtpx:TrackPointExtension>
        </extensions>
      </trkpt>
      <trkpt lat="44.16277" lon="5.2804">
        <ele>1380.4</ele>
        <time>2021-06-12T08:47:14Z</time>
        <extensions>
          <gpxtpx:TrackPointExtension xmlns:gpxtpx="http://www.garmin.com/xmlschemas/TrackPointExtension/v1">
            <gpxtpx:hr>149</gpxtpx:hr>
          </gpxtpx:TrackPointExtension>
        </extensions>
      </trkpt>
      <trkpt lat="44.1628" lon="5.2804">
        <ele>1381.4</ele>
        <time>2021-06-12T08:47:19Z</time>
        <extensions>
          <gpxtpx:TrackPointExtension xmlns:gpxtpx="http://www.garmin.com/xmlschemas/TrackPointExtension/v1">
            <gpxtpx:hr>150</gpxtpx:hr>
          </gpxtpx:TrackPointExtension>
        </extensions>
      </trkpt>
      <trkpt lat="44.16283" lon="5.28041">
        <ele>1382.6</ele>
        <time>2021-06-12T08:47:25Z</time>
        <extensions>
          <gpxtpx:TrackPointExtension xmlns:gpxtpx="http://www.garmin.com/xmlschemas/TrackPointExtension/v1">
            <gpxtpx:hr>151</gpxtpx:hr>
          </gpxtpx:TrackPointExtension>
        </extensions>
      </trkpt>
      <trkpt lat="44.16289" lon="5.28047">
        <ele>1383.8</ele>
        <time>2021-06-12T08:47:32Z</time>
        <extensions>
          <gpxtpx:TrackPointExtension xmlns:gpxtpx="http://www.garmin.com/xmlschemas/TrackPointExtension/v1">
            <gpxtpx:hr>152</gpxtpx:hr>
          </gpxtpx:TrackPointExtension>
        </extensions>
      </trkpt>
      <trkpt lat="44.16293" lon="5.28046">
        <ele>1384.8</ele>
        <time>2021-06-12T08:47:37Z</time>
        <extensions>
          <gpxtpx:TrackPointExtension xmlns:gpxtpx="http://www.garmin.com/xmlschemas/TrackPointExtension/v1">
            <gpxtpx:hr>152</gpxtpx:hr>
          </gpxtpx:TrackPointExtension>
        </extensions>
      </trkpt>
      <trkpt lat="44.16293" lon="5.28047">
        <ele>1385</ele>
        <time>2021-06-12T08:47:38Z</time>
        <extensions>
          <gpxtpx:TrackPointExtension xmlns:gpxtpx="http://www.garmin.com/xmlschemas/TrackPointExtension/v1">
            <gpxtpx:hr>151</gpxtpx:hr>
          </gpxtpx:TrackPointExtension>
        </extensions>
      </trkpt>
      <trkpt lat="44.16295" lon="5.28047">
        <ele>1385.4</ele>
        <time>2021-06-12T08:47:40Z</time>
        <extensions>
          <gpxtpx:TrackPointExtension xmlns:gpxtpx="http://www.garmin.com/xmlschemas/TrackPointExtension/v1">
            <gpxtpx:hr>151</gpxtpx:hr>
          </gpxtpx:TrackPointExtension>
        </extensions>
      </trkpt>
      <trkpt lat="44.16299" lon="5.28048">
        <ele>1386</ele>
        <time>2021-06-12T08:47:43Z</time>
        <extensions>
          <gpxtpx:TrackPointExtension xmlns:gpxtpx="http://www.garmin.com/xmlschemas/TrackPointExtension/v1">
            <gpxtpx:hr>151</gpxtpx:hr>
          </gpxtpx:TrackPointExtension>
        </extensions>
      </trkpt>
      <trkpt lat="44.16304" lon="5.28051">
        <ele>1387.2</ele>
        <time>2021-06-12T08:47:48Z</time>
        <extensions>
          <gpxtpx:TrackPointExtension xmlns:gpxtpx="http://www.garmin.com/xmlschemas/TrackPointExtension/v1">
            <gpxtpx:hr>150</gpxtpx:hr>
          </gpxtpx:TrackPointExtension>
        </extensions>
      </trkpt>
      <trkpt lat="44.16307" lon="5.28053">
        <ele>1388.4</ele>
        <time>2021-06-12T08:47:54Z</time>
        <extensions>
          <gpxtpx:TrackPointExtension xmlns:gpxtpx="http://www.garmin.com/xmlschemas/TrackPointExtension/v1">
            <gpxtpx:hr>150</gpxtpx:hr>
          </gpxtpx:TrackPointExtension>
        </extensions>
      </trkpt>
      <trkpt lat="44.1631" lon="5.28052">
        <ele>1389.4</ele>
        <time>2021-06-12T08:47:59Z</time>
        <extensions>
          <gpxtpx:TrackPointExtension xmlns:gpxtpx="http://www.garmin.com/xmlschemas/TrackPointExtension/v1">
            <gpxtpx:hr>152</gpxtpx:hr>
          </gpxtpx:TrackPointExtension>
        </extensions>
      </trkpt>
      <trkpt lat="44.16315" lon="5.28058">
        <ele>1390.4</ele>
        <time>2021-06-12T08:48:04Z</time>
        <extensions>
          <gpxtpx:TrackPointExtension xmlns:gpxtpx="http://www.garmin.com/xmlschemas/TrackPointExtension/v1">
            <gpxtpx:hr>151</gpxtpx:hr>
          </gpxtpx:TrackPointExtension>
        </extensions>
      </trkpt>
      <trkpt lat="44.16316" lon="5.28058">
        <ele>1390.6</ele>
        <time>2021-06-12T08:48:05Z</time>
        <extensions>
          <gpxtpx:TrackPointExtension xmlns:gpxtpx="http://www.garmin.com/xmlschemas/TrackPointExtension/v1">
            <gpxtpx:hr>151</gpxtpx:hr>
          </gpxtpx:TrackPointExtension>
        </extensions>
      </trkpt>
      <trkpt lat="44.16317" lon="5.28058">
        <ele>1390.8</ele>
        <time>2021-06-12T08:48:06Z</time>
        <extensions>
          <gpxtpx:TrackPointExtension xmlns:gpxtpx="http://www.garmin.com/xmlschemas/TrackPointExtension/v1">
            <gpxtpx:hr>151</gpxtpx:hr>
          </gpxtpx:TrackPointExtension>
        </extensions>
      </trkpt>
      <trkpt lat="44.16319" lon="5.28058">
        <ele>1391.2</ele>
        <time>2021-06-12T08:48:08Z</time>
        <extensions>
          <gpxtpx:TrackPointExtension xmlns:gpxtpx="http://www.garmin.com/xmlschemas/TrackPointExtension/v1">
            <gpxtpx:hr>151</gpxtpx:hr>
          </gpxtpx:TrackPointExtension>
        </extensions>
      </trkpt>
      <trkpt lat="44.16319" lon="5.28057">
        <ele>1391.6</ele>
        <time>2021-06-12T08:48:10Z</time>
        <extensions>
          <gpxtpx:TrackPointExtension xmlns:gpxtpx="http://www.garmin.com/xmlschemas/TrackPointExtension/v1">
            <gpxtpx:hr>149</gpxtpx:hr>
          </gpxtpx:TrackPointExtension>
        </extensions>
      </trkpt>
      <trkpt lat="44.16319" lon="5.28055">
        <ele>1392</ele>
        <time>2021-06-12T08:48:12Z</time>
        <extensions>
          <gpxtpx:TrackPointExtension xmlns:gpxtpx="http://www.garmin.com/xmlschemas/TrackPointExtension/v1">
            <gpxtpx:hr>149</gpxtpx:hr>
          </gpxtpx:TrackPointExtension>
        </extensions>
      </trkpt>
      <trkpt lat="44.16321" lon="5.28056">
        <ele>1392.6</ele>
        <time>2021-06-12T08:48:16Z</time>
        <extensions>
          <gpxtpx:TrackPointExtension xmlns:gpxtpx="http://www.garmin.com/xmlschemas/TrackPointExtension/v1">
            <gpxtpx:hr>150</gpxtpx:hr>
          </gpxtpx:TrackPointExtension>
        </extensions>
      </trkpt>
      <trkpt lat="44.16323" lon="5.28057">
        <ele>1393.8</ele>
        <time>2021-06-12T08:48:20Z</time>
        <extensions>
          <gpxtpx:TrackPointExtension xmlns:gpxtpx="http://www.garmin.com/xmlschemas/TrackPointExtension/v1">
            <gpxtpx:hr>150</gpxtpx:hr>
          </gpxtpx:TrackPointExtension>
        </extensions>
      </trkpt>
      <trkpt lat="44.16326" lon="5.2806">
        <ele>1394.8</ele>
        <time>2021-06-12T08:48:25Z</time>
        <extensions>
          <gpxtpx:TrackPointExtension xmlns:gpxtpx="http://www.garmin.com/xmlschemas/TrackPointExtension/v1">
            <gpxtpx:hr>150</gpxtpx:hr>
          </gpxtpx:TrackPointExtension>
        </extensions>
      </trkpt>
      <trkpt lat="44.1633" lon="5.28063">
        <ele>1396</ele>
        <time>2021-06-12T08:48:30Z</time>
        <extensions>
          <gpxtpx:TrackPointExtension xmlns:gpxtpx="http://www.garmin.com/xmlschemas/TrackPointExtension/v1">
            <gpxtpx:hr>151</gpxtpx:hr>
          </gpxtpx:TrackPointExtension>
        </extensions>
      </trkpt>
      <trkpt lat="44.16334" lon="5.28069">
        <ele>1396.8</ele>
        <time>2021-06-12T08:48:34Z</time>
        <extensions>
          <gpxtpx:TrackPointExtension xmlns:gpxtpx="http://www.garmin.com/xmlschemas/TrackPointExtension/v1">
            <gpxtpx:hr>151</gpxtpx:hr>
          </gpxtpx:TrackPointExtension>
        </extensions>
      </trkpt>
      <trkpt lat="44.16335" lon="5.28069">
        <ele>1397</ele>
        <time>2021-06-12T08:48:35Z</time>
        <extensions>
          <gpxtpx:TrackPointExtension xmlns:gpxtpx="http://www.garmin.com/xmlschemas/TrackPointExtension/v1">
            <gpxtpx:hr>151</gpxtpx:hr>
          </gpxtpx:TrackPointExtension>
        </extensions>
      </trkpt>
      <trkpt lat="44.16336" lon="5.2807">
        <ele>1397.2</ele>
        <time>2021-06-12T08:48:36Z</time>
        <extensions>
          <gpxtpx:TrackPointExtension xmlns:gpxtpx="http://www.garmin.com/xmlschemas/TrackPointExtension/v1">
            <gpxtpx:hr>151</gpxtpx:hr>
          </gpxtpx:TrackPointExtension>
        </extensions>
      </trkpt>
      <trkpt lat="44.16338" lon="5.28072">
        <ele>1398.2</ele>
        <time>2021-06-12T08:48:40Z</time>
        <extensions>
          <gpxtpx:TrackPointExtension xmlns:gpxtpx="http://www.garmin.com/xmlschemas/TrackPointExtension/v1">
            <gpxtpx:hr>153</gpxtpx:hr>
          </gpxtpx:TrackPointExtension>
        </extensions>
      </trkpt>
      <trkpt lat="44.16339" lon="5.28073">
        <ele>1398.4</ele>
        <time>2021-06-12T08:48:41Z</time>
        <extensions>
          <gpxtpx:TrackPointExtension xmlns:gpxtpx="http://www.garmin.com/xmlschemas/TrackPointExtension/v1">
            <gpxtpx:hr>153</gpxtpx:hr>
          </gpxtpx:TrackPointExtension>
        </extensions>
      </trkpt>
      <trkpt lat="44.1634" lon="5.28072">
        <ele>1398.6</ele>
        <time>2021-06-12T08:48:42Z</time>
        <extensions>
          <gpxtpx:TrackPointExtension xmlns:gpxtpx="http://www.garmin.com/xmlschemas/TrackPointExtension/v1">
            <gpxtpx:hr>153</gpxtpx:hr>
          </gpxtpx:TrackPointExtension>
        </extensions>
      </trkpt>
      <trkpt lat="44.16343" lon="5.28068">
        <ele>1399.4</ele>
        <time>2021-06-12T08:48:46Z</time>
        <extensions>
          <gpxtpx:TrackPointExtension xmlns:gpxtpx="http://www.garmin.com/xmlschemas/TrackPointExtension/v1">
            <gpxtpx:hr>154</gpxtpx:hr>
          </gpxtpx:TrackPointExtension>
        </extensions>
      </trkpt>
      <trkpt lat="44.16344" lon="5.28066">
        <ele>1399.6</ele>
        <time>2021-06-12T08:48:48Z</time>
        <extensions>
          <gpxtpx:TrackPointExtension xmlns:gpxtpx="http://www.garmin.com/xmlschemas/TrackPointExtension/v1">
            <gpxtpx:hr>154</gpxtpx:hr>
          </gpxtpx:TrackPointExtension>
        </extensions>
      </trkpt>
      <trkpt lat="44.16344" lon="5.28062">
        <ele>1400</ele>
        <time>2021-06-12T08:48:51Z</time>
        <extensions>
          <gpxtpx:TrackPointExtension xmlns:gpxtpx="http://www.garmin.com/xmlschemas/TrackPointExtension/v1">
            <gpxtpx:hr>153</gpxtpx:hr>
          </gpxtpx:TrackPointExtension>
        </extensions>
      </trkpt>
      <trkpt lat="44.16344" lon="5.2806">
        <ele>1400.4</ele>
        <time>2021-06-12T08:48:53Z</time>
        <extensions>
          <gpxtpx:TrackPointExtension xmlns:gpxtpx="http://www.garmin.com/xmlschemas/TrackPointExtension/v1">
            <gpxtpx:hr>153</gpxtpx:hr>
          </gpxtpx:TrackPointExtension>
        </extensions>
      </trkpt>
      <trkpt lat="44.16345" lon="5.28058">
        <ele>1400.8</ele>
        <time>2021-06-12T08:48:55Z</time>
        <extensions>
          <gpxtpx:TrackPointExtension xmlns:gpxtpx="http://www.garmin.com/xmlschemas/TrackPointExtension/v1">
            <gpxtpx:hr>153</gpxtpx:hr>
          </gpxtpx:TrackPointExtension>
        </extensions>
      </trkpt>
      <trkpt lat="44.16346" lon="5.28058">
        <ele>1400.8</ele>
        <time>2021-06-12T08:48:56Z</time>
        <extensions>
          <gpxtpx:TrackPointExtension xmlns:gpxtpx="http://www.garmin.com/xmlschemas/TrackPointExtension/v1">
            <gpxtpx:hr>153</gpxtpx:hr>
          </gpxtpx:TrackPointExtension>
        </extensions>
      </trkpt>
      <trkpt lat="44.16347" lon="5.28058">
        <ele>1401</ele>
        <time>2021-06-12T08:48:57Z</time>
        <extensions>
          <gpxtpx:TrackPointExtension xmlns:gpxtpx="http://www.garmin.com/xmlschemas/TrackPointExtension/v1">
            <gpxtpx:hr>154</gpxtpx:hr>
          </gpxtpx:TrackPointExtension>
        </extensions>
      </trkpt>
      <trkpt lat="44.16349" lon="5.28058">
        <ele>1401.4</ele>
        <time>2021-06-12T08:48:59Z</time>
        <extensions>
          <gpxtpx:TrackPointExtension xmlns:gpxtpx="http://www.garmin.com/xmlschemas/TrackPointExtension/v1">
            <gpxtpx:hr>153</gpxtpx:hr>
          </gpxtpx:TrackPointExtension>
        </extensions>
      </trkpt>
      <trkpt lat="44.1635" lon="5.28057">
        <ele>1401.8</ele>
        <time>2021-06-12T08:49:01Z</time>
        <extensions>
          <gpxtpx:TrackPointExtension xmlns:gpxtpx="http://www.garmin.com/xmlschemas/TrackPointExtension/v1">
            <gpxtpx:hr>154</gpxtpx:hr>
          </gpxtpx:TrackPointExtension>
        </extensions>
      </trkpt>
      <trkpt lat="44.16352" lon="5.28058">
        <ele>1402.2</ele>
        <time>2021-06-12T08:49:03Z</time>
        <extensions>
          <gpxtpx:TrackPointExtension xmlns:gpxtpx="http://www.garmin.com/xmlschemas/TrackPointExtension/v1">
            <gpxtpx:hr>154</gpxtpx:hr>
          </gpxtpx:TrackPointExtension>
        </extensions>
      </trkpt>
      <trkpt lat="44.16353" lon="5.28058">
        <ele>1402.6</ele>
        <time>2021-06-12T08:49:04Z</time>
        <extensions>
          <gpxtpx:TrackPointExtension xmlns:gpxtpx="http://www.garmin.com/xmlschemas/TrackPointExtension/v1">
            <gpxtpx:hr>153</gpxtpx:hr>
          </gpxtpx:TrackPointExtension>
        </extensions>
      </trkpt>
      <trkpt lat="44.16356" lon="5.28058">
        <ele>1403.8</ele>
        <time>2021-06-12T08:49:10Z</time>
        <extensions>
          <gpxtpx:TrackPointExtension xmlns:gpxtpx="http://www.garmin.com/xmlschemas/TrackPointExtension/v1">
            <gpxtpx:hr>154</gpxtpx:hr>
          </gpxtpx:TrackPointExtension>
        </extensions>
      </trkpt>
      <trkpt lat="44.16362" lon="5.28061">
        <ele>1404.8</ele>
        <time>2021-06-12T08:49:16Z</time>
        <extensions>
          <gpxtpx:TrackPointExtension xmlns:gpxtpx="http://www.garmin.com/xmlschemas/TrackPointExtension/v1">
            <gpxtpx:hr>154</gpxtpx:hr>
          </gpxtpx:TrackPointExtension>
        </extensions>
      </trkpt>
      <trkpt lat="44.16363" lon="5.28062">
        <ele>1405</ele>
        <time>2021-06-12T08:49:17Z</time>
        <extensions>
          <gpxtpx:TrackPointExtension xmlns:gpxtpx="http://www.garmin.com/xmlschemas/TrackPointExtension/v1">
            <gpxtpx:hr>154</gpxtpx:hr>
          </gpxtpx:TrackPointExtension>
        </extensions>
      </trkpt>
      <trkpt lat="44.16365" lon="5.28063">
        <ele>1405.6</ele>
        <time>2021-06-12T08:49:19Z</time>
        <extensions>
          <gpxtpx:TrackPointExtension xmlns:gpxtpx="http://www.garmin.com/xmlschemas/TrackPointExtension/v1">
            <gpxtpx:hr>153</gpxtpx:hr>
          </gpxtpx:TrackPointExtension>
        </extensions>
      </trkpt>
      <trkpt lat="44.16366" lon="5.28063">
        <ele>1406</ele>
        <time>2021-06-12T08:49:21Z</time>
        <extensions>
          <gpxtpx:TrackPointExtension xmlns:gpxtpx="http://www.garmin.com/xmlschemas/TrackPointExtension/v1">
            <gpxtpx:hr>153</gpxtpx:hr>
          </gpxtpx:TrackPointExtension>
        </extensions>
      </trkpt>
      <trkpt lat="44.16368" lon="5.28063">
        <ele>1406.2</ele>
        <time>2021-06-12T08:49:22Z</time>
        <extensions>
          <gpxtpx:TrackPointExtension xmlns:gpxtpx="http://www.garmin.com/xmlschemas/TrackPointExtension/v1">
            <gpxtpx:hr>154</gpxtpx:hr>
          </gpxtpx:TrackPointExtension>
        </extensions>
      </trkpt>
      <trkpt lat="44.16369" lon="5.28062">
        <ele>1406.4</ele>
        <time>2021-06-12T08:49:23Z</time>
        <extensions>
          <gpxtpx:TrackPointExtension xmlns:gpxtpx="http://www.garmin.com/xmlschemas/TrackPointExtension/v1">
            <gpxtpx:hr>153</gpxtpx:hr>
          </gpxtpx:TrackPointExtension>
        </extensions>
      </trkpt>
      <trkpt lat="44.1637" lon="5.28062">
        <ele>1406.6</ele>
        <time>2021-06-12T08:49:24Z</time>
        <extensions>
          <gpxtpx:TrackPointExtension xmlns:gpxtpx="http://www.garmin.com/xmlschemas/TrackPointExtension/v1">
            <gpxtpx:hr>153</gpxtpx:hr>
          </gpxtpx:TrackPointExtension>
        </extensions>
      </trkpt>
      <trkpt lat="44.16371" lon="5.28062">
        <ele>1406.8</ele>
        <time>2021-06-12T08:49:25Z</time>
        <extensions>
          <gpxtpx:TrackPointExtension xmlns:gpxtpx="http://www.garmin.com/xmlschemas/TrackPointExtension/v1">
            <gpxtpx:hr>153</gpxtpx:hr>
          </gpxtpx:TrackPointExtension>
        </extensions>
      </trkpt>
      <trkpt lat="44.16372" lon="5.28061">
        <ele>1407</ele>
        <time>2021-06-12T08:49:26Z</time>
        <extensions>
          <gpxtpx:TrackPointExtension xmlns:gpxtpx="http://www.garmin.com/xmlschemas/TrackPointExtension/v1">
            <gpxtpx:hr>153</gpxtpx:hr>
          </gpxtpx:TrackPointExtension>
        </extensions>
      </trkpt>
      <trkpt lat="44.16372" lon="5.2806">
        <ele>1407</ele>
        <time>2021-06-12T08:49:27Z</time>
        <extensions>
          <gpxtpx:TrackPointExtension xmlns:gpxtpx="http://www.garmin.com/xmlschemas/TrackPointExtension/v1">
            <gpxtpx:hr>154</gpxtpx:hr>
          </gpxtpx:TrackPointExtension>
        </extensions>
      </trkpt>
      <trkpt lat="44.16373" lon="5.2806">
        <ele>1407.2</ele>
        <time>2021-06-12T08:49:29Z</time>
        <extensions>
          <gpxtpx:TrackPointExtension xmlns:gpxtpx="http://www.garmin.com/xmlschemas/TrackPointExtension/v1">
            <gpxtpx:hr>153</gpxtpx:hr>
          </gpxtpx:TrackPointExtension>
        </extensions>
      </trkpt>
      <trkpt lat="44.16373" lon="5.28059">
        <ele>1407.6</ele>
        <time>2021-06-12T08:49:31Z</time>
        <extensions>
          <gpxtpx:TrackPointExtension xmlns:gpxtpx="http://www.garmin.com/xmlschemas/TrackPointExtension/v1">
            <gpxtpx:hr>152</gpxtpx:hr>
          </gpxtpx:TrackPointExtension>
        </extensions>
      </trkpt>
      <trkpt lat="44.16374" lon="5.28058">
        <ele>1408</ele>
        <time>2021-06-12T08:49:33Z</time>
        <extensions>
          <gpxtpx:TrackPointExtension xmlns:gpxtpx="http://www.garmin.com/xmlschemas/TrackPointExtension/v1">
            <gpxtpx:hr>152</gpxtpx:hr>
          </gpxtpx:TrackPointExtension>
        </extensions>
      </trkpt>
      <trkpt lat="44.16374" lon="5.28057">
        <ele>1408</ele>
        <time>2021-06-12T08:49:34Z</time>
        <extensions>
          <gpxtpx:TrackPointExtension xmlns:gpxtpx="http://www.garmin.com/xmlschemas/TrackPointExtension/v1">
            <gpxtpx:hr>151</gpxtpx:hr>
          </gpxtpx:TrackPointExtension>
        </extensions>
      </trkpt>
      <trkpt lat="44.16375" lon="5.28058">
        <ele>1408.2</ele>
        <time>2021-06-12T08:49:35Z</time>
        <extensions>
          <gpxtpx:TrackPointExtension xmlns:gpxtpx="http://www.garmin.com/xmlschemas/TrackPointExtension/v1">
            <gpxtpx:hr>151</gpxtpx:hr>
          </gpxtpx:TrackPointExtension>
        </extensions>
      </trkpt>
      <trkpt lat="44.16376" lon="5.28059">
        <ele>1408.2</ele>
        <time>2021-06-12T08:49:36Z</time>
        <extensions>
          <gpxtpx:TrackPointExtension xmlns:gpxtpx="http://www.garmin.com/xmlschemas/TrackPointExtension/v1">
            <gpxtpx:hr>150</gpxtpx:hr>
          </gpxtpx:TrackPointExtension>
        </extensions>
      </trkpt>
      <trkpt lat="44.16378" lon="5.28055">
        <ele>1408.4</ele>
        <time>2021-06-12T08:49:50Z</time>
        <extensions>
          <gpxtpx:TrackPointExtension xmlns:gpxtpx="http://www.garmin.com/xmlschemas/TrackPointExtension/v1">
            <gpxtpx:hr>147</gpxtpx:hr>
          </gpxtpx:TrackPointExtension>
        </extensions>
      </trkpt>
      <trkpt lat="44.16379" lon="5.28057">
        <ele>1408.6</ele>
        <time>2021-06-12T08:49:58Z</time>
        <extensions>
          <gpxtpx:TrackPointExtension xmlns:gpxtpx="http://www.garmin.com/xmlschemas/TrackPointExtension/v1">
            <gpxtpx:hr>144</gpxtpx:hr>
          </gpxtpx:TrackPointExtension>
        </extensions>
      </trkpt>
      <trkpt lat="44.16378" lon="5.28061">
        <ele>1408.6</ele>
        <time>2021-06-12T08:50:06Z</time>
        <extensions>
          <gpxtpx:TrackPointExtension xmlns:gpxtpx="http://www.garmin.com/xmlschemas/TrackPointExtension/v1">
            <gpxtpx:hr>141</gpxtpx:hr>
          </gpxtpx:TrackPointExtension>
        </extensions>
      </trkpt>
      <trkpt lat="44.16378" lon="5.28063">
        <ele>1408.6</ele>
        <time>2021-06-12T08:50:09Z</time>
        <extensions>
          <gpxtpx:TrackPointExtension xmlns:gpxtpx="http://www.garmin.com/xmlschemas/TrackPointExtension/v1">
            <gpxtpx:hr>138</gpxtpx:hr>
          </gpxtpx:TrackPointExtension>
        </extensions>
      </trkpt>
      <trkpt lat="44.16379" lon="5.28064">
        <ele>1408.6</ele>
        <time>2021-06-12T08:50:12Z</time>
        <extensions>
          <gpxtpx:TrackPointExtension xmlns:gpxtpx="http://www.garmin.com/xmlschemas/TrackPointExtension/v1">
            <gpxtpx:hr>135</gpxtpx:hr>
          </gpxtpx:TrackPointExtension>
        </extensions>
      </trkpt>
      <trkpt lat="44.16378" lon="5.28064">
        <ele>1408.4</ele>
        <time>2021-06-12T08:50:20Z</time>
        <extensions>
          <gpxtpx:TrackPointExtension xmlns:gpxtpx="http://www.garmin.com/xmlschemas/TrackPointExtension/v1">
            <gpxtpx:hr>131</gpxtpx:hr>
          </gpxtpx:TrackPointExtension>
        </extensions>
      </trkpt>
      <trkpt lat="44.16379" lon="5.28059">
        <ele>1408.4</ele>
        <time>2021-06-12T08:50:29Z</time>
        <extensions>
          <gpxtpx:TrackPointExtension xmlns:gpxtpx="http://www.garmin.com/xmlschemas/TrackPointExtension/v1">
            <gpxtpx:hr>128</gpxtpx:hr>
          </gpxtpx:TrackPointExtension>
        </extensions>
      </trkpt>
      <trkpt lat="44.16379" lon="5.28059">
        <ele>1408.4</ele>
        <time>2021-06-12T08:50:32Z</time>
        <extensions>
          <gpxtpx:TrackPointExtension xmlns:gpxtpx="http://www.garmin.com/xmlschemas/TrackPointExtension/v1">
            <gpxtpx:hr>125</gpxtpx:hr>
          </gpxtpx:TrackPointExtension>
        </extensions>
      </trkpt>
      <trkpt lat="44.1638" lon="5.2806">
        <ele>1408.4</ele>
        <time>2021-06-12T08:50:41Z</time>
        <extensions>
          <gpxtpx:TrackPointExtension xmlns:gpxtpx="http://www.garmin.com/xmlschemas/TrackPointExtension/v1">
            <gpxtpx:hr>125</gpxtpx:hr>
          </gpxtpx:TrackPointExtension>
        </extensions>
      </trkpt>
      <trkpt lat="44.1638" lon="5.2806">
        <ele>1408.4</ele>
        <time>2021-06-12T08:50:48Z</time>
        <extensions>
          <gpxtpx:TrackPointExtension xmlns:gpxtpx="http://www.garmin.com/xmlschemas/TrackPointExtension/v1">
            <gpxtpx:hr>122</gpxtpx:hr>
          </gpxtpx:TrackPointExtension>
        </extensions>
      </trkpt>
      <trkpt lat="44.16381" lon="5.28059">
        <ele>1408.4</ele>
        <time>2021-06-12T08:50:57Z</time>
        <extensions>
          <gpxtpx:TrackPointExtension xmlns:gpxtpx="http://www.garmin.com/xmlschemas/TrackPointExtension/v1">
            <gpxtpx:hr>119</gpxtpx:hr>
          </gpxtpx:TrackPointExtension>
        </extensions>
      </trkpt>
      <trkpt lat="44.16382" lon="5.28059">
        <ele>1408.4</ele>
        <time>2021-06-12T08:51:02Z</time>
        <extensions>
          <gpxtpx:TrackPointExtension xmlns:gpxtpx="http://www.garmin.com/xmlschemas/TrackPointExtension/v1">
            <gpxtpx:hr>122</gpxtpx:hr>
          </gpxtpx:TrackPointExtension>
        </extensions>
      </trkpt>
      <trkpt lat="44.16382" lon="5.2806">
        <ele>1408.4</ele>
        <time>2021-06-12T08:51:05Z</time>
        <extensions>
          <gpxtpx:TrackPointExtension xmlns:gpxtpx="http://www.garmin.com/xmlschemas/TrackPointExtension/v1">
            <gpxtpx:hr>118</gpxtpx:hr>
          </gpxtpx:TrackPointExtension>
        </extensions>
      </trkpt>
      <trkpt lat="44.16383" lon="5.28062">
        <ele>1408.6</ele>
        <time>2021-06-12T08:51:11Z</time>
        <extensions>
          <gpxtpx:TrackPointExtension xmlns:gpxtpx="http://www.garmin.com/xmlschemas/TrackPointExtension/v1">
            <gpxtpx:hr>121</gpxtpx:hr>
          </gpxtpx:TrackPointExtension>
        </extensions>
      </trkpt>
      <trkpt lat="44.16382" lon="5.28061">
        <ele>1408.6</ele>
        <time>2021-06-12T08:51:14Z</time>
        <extensions>
          <gpxtpx:TrackPointExtension xmlns:gpxtpx="http://www.garmin.com/xmlschemas/TrackPointExtension/v1">
            <gpxtpx:hr>124</gpxtpx:hr>
          </gpxtpx:TrackPointExtension>
        </extensions>
      </trkpt>
      <trkpt lat="44.16381" lon="5.28059">
        <ele>1408.6</ele>
        <time>2021-06-12T08:51:23Z</time>
        <extensions>
          <gpxtpx:TrackPointExtension xmlns:gpxtpx="http://www.garmin.com/xmlschemas/TrackPointExtension/v1">
            <gpxtpx:hr>121</gpxtpx:hr>
          </gpxtpx:TrackPointExtension>
        </extensions>
      </trkpt>
      <trkpt lat="44.1638" lon="5.2806">
        <ele>1408.6</ele>
        <time>2021-06-12T08:51:35Z</time>
        <extensions>
          <gpxtpx:TrackPointExtension xmlns:gpxtpx="http://www.garmin.com/xmlschemas/TrackPointExtension/v1">
            <gpxtpx:hr>116</gpxtpx:hr>
          </gpxtpx:TrackPointExtension>
        </extensions>
      </trkpt>
      <trkpt lat="44.1638" lon="5.28063">
        <ele>1408.6</ele>
        <time>2021-06-12T08:51:41Z</time>
        <extensions>
          <gpxtpx:TrackPointExtension xmlns:gpxtpx="http://www.garmin.com/xmlschemas/TrackPointExtension/v1">
            <gpxtpx:hr>119</gpxtpx:hr>
          </gpxtpx:TrackPointExtension>
        </extensions>
      </trkpt>
      <trkpt lat="44.16379" lon="5.28063">
        <ele>1408.6</ele>
        <time>2021-06-12T08:51:46Z</time>
        <extensions>
          <gpxtpx:TrackPointExtension xmlns:gpxtpx="http://www.garmin.com/xmlschemas/TrackPointExtension/v1">
            <gpxtpx:hr>122</gpxtpx:hr>
          </gpxtpx:TrackPointExtension>
        </extensions>
      </trkpt>
      <trkpt lat="44.16379" lon="5.28072">
        <ele>1408.6</ele>
        <time>2021-06-12T08:52:01Z</time>
        <extensions>
          <gpxtpx:TrackPointExtension xmlns:gpxtpx="http://www.garmin.com/xmlschemas/TrackPointExtension/v1">
            <gpxtpx:hr>118</gpxtpx:hr>
          </gpxtpx:TrackPointExtension>
        </extensions>
      </trkpt>
      <trkpt lat="44.16379" lon="5.28068">
        <ele>1408.6</ele>
        <time>2021-06-12T08:52:03Z</time>
        <extensions>
          <gpxtpx:TrackPointExtension xmlns:gpxtpx="http://www.garmin.com/xmlschemas/TrackPointExtension/v1">
            <gpxtpx:hr>115</gpxtpx:hr>
          </gpxtpx:TrackPointExtension>
        </extensions>
      </trkpt>
      <trkpt lat="44.16378" lon="5.28065">
        <ele>1408.6</ele>
        <time>2021-06-12T08:52:08Z</time>
        <extensions>
          <gpxtpx:TrackPointExtension xmlns:gpxtpx="http://www.garmin.com/xmlschemas/TrackPointExtension/v1">
            <gpxtpx:hr>118</gpxtpx:hr>
          </gpxtpx:TrackPointExtension>
        </extensions>
      </trkpt>
      <trkpt lat="44.16377" lon="5.28066">
        <ele>1408.6</ele>
        <time>2021-06-12T08:52:15Z</time>
        <extensions>
          <gpxtpx:TrackPointExtension xmlns:gpxtpx="http://www.garmin.com/xmlschemas/TrackPointExtension/v1">
            <gpxtpx:hr>115</gpxtpx:hr>
          </gpxtpx:TrackPointExtension>
        </extensions>
      </trkpt>
      <trkpt lat="44.16377" lon="5.28065">
        <ele>1408.6</ele>
        <time>2021-06-12T08:52:44Z</time>
        <extensions>
          <gpxtpx:TrackPointExtension xmlns:gpxtpx="http://www.garmin.com/xmlschemas/TrackPointExtension/v1">
            <gpxtpx:hr>118</gpxtpx:hr>
          </gpxtpx:TrackPointExtension>
        </extensions>
      </trkpt>
      <trkpt lat="44.16375" lon="5.28068">
        <ele>1408.6</ele>
        <time>2021-06-12T08:52:59Z</time>
        <extensions>
          <gpxtpx:TrackPointExtension xmlns:gpxtpx="http://www.garmin.com/xmlschemas/TrackPointExtension/v1">
            <gpxtpx:hr>113</gpxtpx:hr>
          </gpxtpx:TrackPointExtension>
        </extensions>
      </trkpt>
      <trkpt lat="44.16375" lon="5.28066">
        <ele>1408.6</ele>
        <time>2021-06-12T08:53:04Z</time>
        <extensions>
          <gpxtpx:TrackPointExtension xmlns:gpxtpx="http://www.garmin.com/xmlschemas/TrackPointExtension/v1">
            <gpxtpx:hr>116</gpxtpx:hr>
          </gpxtpx:TrackPointExtension>
        </extensions>
      </trkpt>
      <trkpt lat="44.16376" lon="5.28065">
        <ele>1408.6</ele>
        <time>2021-06-12T08:53:17Z</time>
        <extensions>
          <gpxtpx:TrackPointExtension xmlns:gpxtpx="http://www.garmin.com/xmlschemas/TrackPointExtension/v1">
            <gpxtpx:hr>113</gpxtpx:hr>
          </gpxtpx:TrackPointExtension>
        </extensions>
      </trkpt>
      <trkpt lat="44.16375" lon="5.28059">
        <ele>1408.6</ele>
        <time>2021-06-12T08:53:53Z</time>
        <extensions>
          <gpxtpx:TrackPointExtension xmlns:gpxtpx="http://www.garmin.com/xmlschemas/TrackPointExtension/v1">
            <gpxtpx:hr>110</gpxtpx:hr>
          </gpxtpx:TrackPointExtension>
        </extensions>
      </trkpt>
      <trkpt lat="44.16377" lon="5.28062">
        <ele>1408.6</ele>
        <time>2021-06-12T08:54:40Z</time>
        <extensions>
          <gpxtpx:TrackPointExtension xmlns:gpxtpx="http://www.garmin.com/xmlschemas/TrackPointExtension/v1">
            <gpxtpx:hr>107</gpxtpx:hr>
          </gpxtpx:TrackPointExtension>
        </extensions>
      </trkpt>
      <trkpt lat="44.16378" lon="5.28063">
        <ele>1408.6</ele>
        <time>2021-06-12T08:54:45Z</time>
        <extensions>
          <gpxtpx:TrackPointExtension xmlns:gpxtpx="http://www.garmin.com/xmlschemas/TrackPointExtension/v1">
            <gpxtpx:hr>110</gpxtpx:hr>
          </gpxtpx:TrackPointExtension>
        </extensions>
      </trkpt>
      <trkpt lat="44.16378" lon="5.28063">
        <ele>1408.6</ele>
        <time>2021-06-12T08:54:54Z</time>
        <extensions>
          <gpxtpx:TrackPointExtension xmlns:gpxtpx="http://www.garmin.com/xmlschemas/TrackPointExtension/v1">
            <gpxtpx:hr>113</gpxtpx:hr>
          </gpxtpx:TrackPointExtension>
        </extensions>
      </trkpt>
      <trkpt lat="44.16379" lon="5.28067">
        <ele>1408.6</ele>
        <time>2021-06-12T08:55:34Z</time>
        <extensions>
          <gpxtpx:TrackPointExtension xmlns:gpxtpx="http://www.garmin.com/xmlschemas/TrackPointExtension/v1">
            <gpxtpx:hr>112</gpxtpx:hr>
          </gpxtpx:TrackPointExtension>
        </extensions>
      </trkpt>
      <trkpt lat="44.1638" lon="5.28066">
        <ele>1408.6</ele>
        <time>2021-06-12T08:56:25Z</time>
        <extensions>
          <gpxtpx:TrackPointExtension xmlns:gpxtpx="http://www.garmin.com/xmlschemas/TrackPointExtension/v1">
            <gpxtpx:hr>105</gpxtpx:hr>
          </gpxtpx:TrackPointExtension>
        </extensions>
      </trkpt>
      <trkpt lat="44.16381" lon="5.28064">
        <ele>1408.8</ele>
        <time>2021-06-12T08:56:29Z</time>
        <extensions>
          <gpxtpx:TrackPointExtension xmlns:gpxtpx="http://www.garmin.com/xmlschemas/TrackPointExtension/v1">
            <gpxtpx:hr>102</gpxtpx:hr>
          </gpxtpx:TrackPointExtension>
        </extensions>
      </trkpt>
      <trkpt lat="44.1638" lon="5.28059">
        <ele>1408.8</ele>
        <time>2021-06-12T08:56:33Z</time>
        <extensions>
          <gpxtpx:TrackPointExtension xmlns:gpxtpx="http://www.garmin.com/xmlschemas/TrackPointExtension/v1">
            <gpxtpx:hr>105</gpxtpx:hr>
          </gpxtpx:TrackPointExtension>
        </extensions>
      </trkpt>
      <trkpt lat="44.16379" lon="5.28059">
        <ele>1408.8</ele>
        <time>2021-06-12T08:56:39Z</time>
        <extensions>
          <gpxtpx:TrackPointExtension xmlns:gpxtpx="http://www.garmin.com/xmlschemas/TrackPointExtension/v1">
            <gpxtpx:hr>104</gpxtpx:hr>
          </gpxtpx:TrackPointExtension>
        </extensions>
      </trkpt>
      <trkpt lat="44.16379" lon="5.28059">
        <ele>1408.6</ele>
        <time>2021-06-12T08:56:41Z</time>
        <extensions>
          <gpxtpx:TrackPointExtension xmlns:gpxtpx="http://www.garmin.com/xmlschemas/TrackPointExtension/v1">
            <gpxtpx:hr>104</gpxtpx:hr>
          </gpxtpx:TrackPointExtension>
        </extensions>
      </trkpt>
      <trkpt lat="44.1638" lon="5.2806">
        <ele>1408.8</ele>
        <time>2021-06-12T08:56:45Z</time>
        <extensions>
          <gpxtpx:TrackPointExtension xmlns:gpxtpx="http://www.garmin.com/xmlschemas/TrackPointExtension/v1">
            <gpxtpx:hr>101</gpxtpx:hr>
          </gpxtpx:TrackPointExtension>
        </extensions>
      </trkpt>
      <trkpt lat="44.1638" lon="5.28061">
        <ele>1408.8</ele>
        <time>2021-06-12T08:56:52Z</time>
        <extensions>
          <gpxtpx:TrackPointExtension xmlns:gpxtpx="http://www.garmin.com/xmlschemas/TrackPointExtension/v1">
            <gpxtpx:hr>104</gpxtpx:hr>
          </gpxtpx:TrackPointExtension>
        </extensions>
      </trkpt>
      <trkpt lat="44.1638" lon="5.28063">
        <ele>1408.6</ele>
        <time>2021-06-12T08:57:03Z</time>
        <extensions>
          <gpxtpx:TrackPointExtension xmlns:gpxtpx="http://www.garmin.com/xmlschemas/TrackPointExtension/v1">
            <gpxtpx:hr>108</gpxtpx:hr>
          </gpxtpx:TrackPointExtension>
        </extensions>
      </trkpt>
      <trkpt lat="44.16381" lon="5.28065">
        <ele>1408.8</ele>
        <time>2021-06-12T08:57:07Z</time>
        <extensions>
          <gpxtpx:TrackPointExtension xmlns:gpxtpx="http://www.garmin.com/xmlschemas/TrackPointExtension/v1">
            <gpxtpx:hr>105</gpxtpx:hr>
          </gpxtpx:TrackPointExtension>
        </extensions>
      </trkpt>
      <trkpt lat="44.16381" lon="5.28065">
        <ele>1408.8</ele>
        <time>2021-06-12T08:57:09Z</time>
        <extensions>
          <gpxtpx:TrackPointExtension xmlns:gpxtpx="http://www.garmin.com/xmlschemas/TrackPointExtension/v1">
            <gpxtpx:hr>102</gpxtpx:hr>
          </gpxtpx:TrackPointExtension>
        </extensions>
      </trkpt>
      <trkpt lat="44.1638" lon="5.28068">
        <ele>1408.8</ele>
        <time>2021-06-12T08:57:15Z</time>
        <extensions>
          <gpxtpx:TrackPointExtension xmlns:gpxtpx="http://www.garmin.com/xmlschemas/TrackPointExtension/v1">
            <gpxtpx:hr>99</gpxtpx:hr>
          </gpxtpx:TrackPointExtension>
        </extensions>
      </trkpt>
      <trkpt lat="44.16381" lon="5.28067">
        <ele>1408.8</ele>
        <time>2021-06-12T08:57:20Z</time>
        <extensions>
          <gpxtpx:TrackPointExtension xmlns:gpxtpx="http://www.garmin.com/xmlschemas/TrackPointExtension/v1">
            <gpxtpx:hr>103</gpxtpx:hr>
          </gpxtpx:TrackPointExtension>
        </extensions>
      </trkpt>
      <trkpt lat="44.16381" lon="5.28067">
        <ele>1408.8</ele>
        <time>2021-06-12T08:57:23Z</time>
        <extensions>
          <gpxtpx:TrackPointExtension xmlns:gpxtpx="http://www.garmin.com/xmlschemas/TrackPointExtension/v1">
            <gpxtpx:hr>106</gpxtpx:hr>
          </gpxtpx:TrackPointExtension>
        </extensions>
      </trkpt>
      <trkpt lat="44.16381" lon="5.28068">
        <ele>1409.2</ele>
        <time>2021-06-12T08:57:25Z</time>
        <extensions>
          <gpxtpx:TrackPointExtension xmlns:gpxtpx="http://www.garmin.com/xmlschemas/TrackPointExtension/v1">
            <gpxtpx:hr>109</gpxtpx:hr>
          </gpxtpx:TrackPointExtension>
        </extensions>
      </trkpt>
      <trkpt lat="44.16381" lon="5.28068">
        <ele>1409.4</ele>
        <time>2021-06-12T08:57:28Z</time>
        <extensions>
          <gpxtpx:TrackPointExtension xmlns:gpxtpx="http://www.garmin.com/xmlschemas/TrackPointExtension/v1">
            <gpxtpx:hr>112</gpxtpx:hr>
          </gpxtpx:TrackPointExtension>
        </extensions>
      </trkpt>
      <trkpt lat="44.16381" lon="5.28069">
        <ele>1409.4</ele>
        <time>2021-06-12T08:57:38Z</time>
        <extensions>
          <gpxtpx:TrackPointExtension xmlns:gpxtpx="http://www.garmin.com/xmlschemas/TrackPointExtension/v1">
            <gpxtpx:hr>109</gpxtpx:hr>
          </gpxtpx:TrackPointExtension>
        </extensions>
      </trkpt>
      <trkpt lat="44.16379" lon="5.28069">
        <ele>1409.6</ele>
        <time>2021-06-12T08:57:54Z</time>
        <extensions>
          <gpxtpx:TrackPointExtension xmlns:gpxtpx="http://www.garmin.com/xmlschemas/TrackPointExtension/v1">
            <gpxtpx:hr>112</gpxtpx:hr>
          </gpxtpx:TrackPointExtension>
        </extensions>
      </trkpt>
      <trkpt lat="44.16377" lon="5.28069">
        <ele>1409.6</ele>
        <time>2021-06-12T08:58:00Z</time>
        <extensions>
          <gpxtpx:TrackPointExtension xmlns:gpxtpx="http://www.garmin.com/xmlschemas/TrackPointExtension/v1">
            <gpxtpx:hr>109</gpxtpx:hr>
          </gpxtpx:TrackPointExtension>
        </extensions>
      </trkpt>
      <trkpt lat="44.16378" lon="5.28076">
        <ele>1409.6</ele>
        <time>2021-06-12T08:58:54Z</time>
        <extensions>
          <gpxtpx:TrackPointExtension xmlns:gpxtpx="http://www.garmin.com/xmlschemas/TrackPointExtension/v1">
            <gpxtpx:hr>112</gpxtpx:hr>
          </gpxtpx:TrackPointExtension>
        </extensions>
      </trkpt>
      <trkpt lat="44.16378" lon="5.28071">
        <ele>1409.6</ele>
        <time>2021-06-12T08:59:10Z</time>
        <extensions>
          <gpxtpx:TrackPointExtension xmlns:gpxtpx="http://www.garmin.com/xmlschemas/TrackPointExtension/v1">
            <gpxtpx:hr>108</gpxtpx:hr>
          </gpxtpx:TrackPointExtension>
        </extensions>
      </trkpt>
      <trkpt lat="44.16378" lon="5.28071">
        <ele>1409.6</ele>
        <time>2021-06-12T08:59:11Z</time>
        <extensions>
          <gpxtpx:TrackPointExtension xmlns:gpxtpx="http://www.garmin.com/xmlschemas/TrackPointExtension/v1">
            <gpxtpx:hr>104</gpxtpx:hr>
          </gpxtpx:TrackPointExtension>
        </extensions>
      </trkpt>
      <trkpt lat="44.16379" lon="5.2807">
        <ele>1409.6</ele>
        <time>2021-06-12T08:59:12Z</time>
        <extensions>
          <gpxtpx:TrackPointExtension xmlns:gpxtpx="http://www.garmin.com/xmlschemas/TrackPointExtension/v1">
            <gpxtpx:hr>105</gpxtpx:hr>
          </gpxtpx:TrackPointExtension>
        </extensions>
      </trkpt>
      <trkpt lat="44.16379" lon="5.28068">
        <ele>1409.6</ele>
        <time>2021-06-12T08:59:14Z</time>
        <extensions>
          <gpxtpx:TrackPointExtension xmlns:gpxtpx="http://www.garmin.com/xmlschemas/TrackPointExtension/v1">
            <gpxtpx:hr>108</gpxtpx:hr>
          </gpxtpx:TrackPointExtension>
        </extensions>
      </trkpt>
      <trkpt lat="44.16379" lon="5.28067">
        <ele>1409.6</ele>
        <time>2021-06-12T08:59:42Z</time>
        <extensions>
          <gpxtpx:TrackPointExtension xmlns:gpxtpx="http://www.garmin.com/xmlschemas/TrackPointExtension/v1">
            <gpxtpx:hr>105</gpxtpx:hr>
          </gpxtpx:TrackPointExtension>
        </extensions>
      </trkpt>
      <trkpt lat="44.1638" lon="5.28068">
        <ele>1409.6</ele>
        <time>2021-06-12T08:59:50Z</time>
        <extensions>
          <gpxtpx:TrackPointExtension xmlns:gpxtpx="http://www.garmin.com/xmlschemas/TrackPointExtension/v1">
            <gpxtpx:hr>108</gpxtpx:hr>
          </gpxtpx:TrackPointExtension>
        </extensions>
      </trkpt>
      <trkpt lat="44.1638" lon="5.28067">
        <ele>1409.6</ele>
        <time>2021-06-12T08:59:55Z</time>
        <extensions>
          <gpxtpx:TrackPointExtension xmlns:gpxtpx="http://www.garmin.com/xmlschemas/TrackPointExtension/v1">
            <gpxtpx:hr>105</gpxtpx:hr>
          </gpxtpx:TrackPointExtension>
        </extensions>
      </trkpt>
      <trkpt lat="44.1638" lon="5.28067">
        <ele>1409.6</ele>
        <time>2021-06-12T08:59:56Z</time>
        <extensions>
          <gpxtpx:TrackPointExtension xmlns:gpxtpx="http://www.garmin.com/xmlschemas/TrackPointExtension/v1">
            <gpxtpx:hr>102</gpxtpx:hr>
          </gpxtpx:TrackPointExtension>
        </extensions>
      </trkpt>
      <trkpt lat="44.1638" lon="5.28068">
        <ele>1409.6</ele>
        <time>2021-06-12T08:59:58Z</time>
        <extensions>
          <gpxtpx:TrackPointExtension xmlns:gpxtpx="http://www.garmin.com/xmlschemas/TrackPointExtension/v1">
            <gpxtpx:hr>99</gpxtpx:hr>
          </gpxtpx:TrackPointExtension>
        </extensions>
      </trkpt>
      <trkpt lat="44.1638" lon="5.28067">
        <ele>1409.6</ele>
        <time>2021-06-12T09:00:03Z</time>
        <extensions>
          <gpxtpx:TrackPointExtension xmlns:gpxtpx="http://www.garmin.com/xmlschemas/TrackPointExtension/v1">
            <gpxtpx:hr>102</gpxtpx:hr>
          </gpxtpx:TrackPointExtension>
        </extensions>
      </trkpt>
      <trkpt lat="44.1638" lon="5.2807">
        <ele>1409.6</ele>
        <time>2021-06-12T09:00:15Z</time>
        <extensions>
          <gpxtpx:TrackPointExtension xmlns:gpxtpx="http://www.garmin.com/xmlschemas/TrackPointExtension/v1">
            <gpxtpx:hr>99</gpxtpx:hr>
          </gpxtpx:TrackPointExtension>
        </extensions>
      </trkpt>
      <trkpt lat="44.1638" lon="5.28072">
        <ele>1409.6</ele>
        <time>2021-06-12T09:00:22Z</time>
        <extensions>
          <gpxtpx:TrackPointExtension xmlns:gpxtpx="http://www.garmin.com/xmlschemas/TrackPointExtension/v1">
            <gpxtpx:hr>102</gpxtpx:hr>
          </gpxtpx:TrackPointExtension>
        </extensions>
      </trkpt>
      <trkpt lat="44.1638" lon="5.28073">
        <ele>1409.6</ele>
        <time>2021-06-12T09:00:26Z</time>
        <extensions>
          <gpxtpx:TrackPointExtension xmlns:gpxtpx="http://www.garmin.com/xmlschemas/TrackPointExtension/v1">
            <gpxtpx:hr>99</gpxtpx:hr>
          </gpxtpx:TrackPointExtension>
        </extensions>
      </trkpt>
      <trkpt lat="44.1638" lon="5.28072">
        <ele>1409.6</ele>
        <time>2021-06-12T09:00:31Z</time>
        <extensions>
          <gpxtpx:TrackPointExtension xmlns:gpxtpx="http://www.garmin.com/xmlschemas/TrackPointExtension/v1">
            <gpxtpx:hr>102</gpxtpx:hr>
          </gpxtpx:TrackPointExtension>
        </extensions>
      </trkpt>
      <trkpt lat="44.16379" lon="5.28071">
        <ele>1409.6</ele>
        <time>2021-06-12T09:00:35Z</time>
        <extensions>
          <gpxtpx:TrackPointExtension xmlns:gpxtpx="http://www.garmin.com/xmlschemas/TrackPointExtension/v1">
            <gpxtpx:hr>99</gpxtpx:hr>
          </gpxtpx:TrackPointExtension>
        </extensions>
      </trkpt>
      <trkpt lat="44.16377" lon="5.28067">
        <ele>1409.6</ele>
        <time>2021-06-12T09:01:09Z</time>
        <extensions>
          <gpxtpx:TrackPointExtension xmlns:gpxtpx="http://www.garmin.com/xmlschemas/TrackPointExtension/v1">
            <gpxtpx:hr>102</gpxtpx:hr>
          </gpxtpx:TrackPointExtension>
        </extensions>
      </trkpt>
      <trkpt lat="44.16377" lon="5.28067">
        <ele>1409.6</ele>
        <time>2021-06-12T09:01:13Z</time>
        <extensions>
          <gpxtpx:TrackPointExtension xmlns:gpxtpx="http://www.garmin.com/xmlschemas/TrackPointExtension/v1">
            <gpxtpx:hr>98</gpxtpx:hr>
          </gpxtpx:TrackPointExtension>
        </extensions>
      </trkpt>
      <trkpt lat="44.16377" lon="5.28067">
        <ele>1409.6</ele>
        <time>2021-06-12T09:01:14Z</time>
        <extensions>
          <gpxtpx:TrackPointExtension xmlns:gpxtpx="http://www.garmin.com/xmlschemas/TrackPointExtension/v1">
            <gpxtpx:hr>95</gpxtpx:hr>
          </gpxtpx:TrackPointExtension>
        </extensions>
      </trkpt>
      <trkpt lat="44.16377" lon="5.28066">
        <ele>1409.6</ele>
        <time>2021-06-12T09:01:18Z</time>
        <extensions>
          <gpxtpx:TrackPointExtension xmlns:gpxtpx="http://www.garmin.com/xmlschemas/TrackPointExtension/v1">
            <gpxtpx:hr>101</gpxtpx:hr>
          </gpxtpx:TrackPointExtension>
        </extensions>
      </trkpt>
      <trkpt lat="44.16377" lon="5.28065">
        <ele>1409.6</ele>
        <time>2021-06-12T09:01:20Z</time>
        <extensions>
          <gpxtpx:TrackPointExtension xmlns:gpxtpx="http://www.garmin.com/xmlschemas/TrackPointExtension/v1">
            <gpxtpx:hr>104</gpxtpx:hr>
          </gpxtpx:TrackPointExtension>
        </extensions>
      </trkpt>
      <trkpt lat="44.16377" lon="5.28065">
        <ele>1409.6</ele>
        <time>2021-06-12T09:01:23Z</time>
        <extensions>
          <gpxtpx:TrackPointExtension xmlns:gpxtpx="http://www.garmin.com/xmlschemas/TrackPointExtension/v1">
            <gpxtpx:hr>101</gpxtpx:hr>
          </gpxtpx:TrackPointExtension>
        </extensions>
      </trkpt>
      <trkpt lat="44.16378" lon="5.28064">
        <ele>1409.6</ele>
        <time>2021-06-12T09:01:28Z</time>
        <extensions>
          <gpxtpx:TrackPointExtension xmlns:gpxtpx="http://www.garmin.com/xmlschemas/TrackPointExtension/v1">
            <gpxtpx:hr>104</gpxtpx:hr>
          </gpxtpx:TrackPointExtension>
        </extensions>
      </trkpt>
      <trkpt lat="44.1638" lon="5.28063">
        <ele>1409.6</ele>
        <time>2021-06-12T09:01:41Z</time>
        <extensions>
          <gpxtpx:TrackPointExtension xmlns:gpxtpx="http://www.garmin.com/xmlschemas/TrackPointExtension/v1">
            <gpxtpx:hr>101</gpxtpx:hr>
          </gpxtpx:TrackPointExtension>
        </extensions>
      </trkpt>
      <trkpt lat="44.1638" lon="5.28063">
        <ele>1409.6</ele>
        <time>2021-06-12T09:01:48Z</time>
        <extensions>
          <gpxtpx:TrackPointExtension xmlns:gpxtpx="http://www.garmin.com/xmlschemas/TrackPointExtension/v1">
            <gpxtpx:hr>98</gpxtpx:hr>
          </gpxtpx:TrackPointExtension>
        </extensions>
      </trkpt>
      <trkpt lat="44.1638" lon="5.28063">
        <ele>1409.6</ele>
        <time>2021-06-12T09:01:57Z</time>
        <extensions>
          <gpxtpx:TrackPointExtension xmlns:gpxtpx="http://www.garmin.com/xmlschemas/TrackPointExtension/v1">
            <gpxtpx:hr>102</gpxtpx:hr>
          </gpxtpx:TrackPointExtension>
        </extensions>
      </trkpt>
      <trkpt lat="44.16382" lon="5.28065">
        <ele>1409.6</ele>
        <time>2021-06-12T09:02:02Z</time>
        <extensions>
          <gpxtpx:TrackPointExtension xmlns:gpxtpx="http://www.garmin.com/xmlschemas/TrackPointExtension/v1">
            <gpxtpx:hr>98</gpxtpx:hr>
          </gpxtpx:TrackPointExtension>
        </extensions>
      </trkpt>
      <trkpt lat="44.16382" lon="5.28066">
        <ele>1409.6</ele>
        <time>2021-06-12T09:02:06Z</time>
        <extensions>
          <gpxtpx:TrackPointExtension xmlns:gpxtpx="http://www.garmin.com/xmlschemas/TrackPointExtension/v1">
            <gpxtpx:hr>102</gpxtpx:hr>
          </gpxtpx:TrackPointExtension>
        </extensions>
      </trkpt>
      <trkpt lat="44.16382" lon="5.28065">
        <ele>1409.6</ele>
        <time>2021-06-12T09:02:10Z</time>
        <extensions>
          <gpxtpx:TrackPointExtension xmlns:gpxtpx="http://www.garmin.com/xmlschemas/TrackPointExtension/v1">
            <gpxtpx:hr>105</gpxtpx:hr>
          </gpxtpx:TrackPointExtension>
        </extensions>
      </trkpt>
      <trkpt lat="44.16382" lon="5.28065">
        <ele>1409.6</ele>
        <time>2021-06-12T09:02:13Z</time>
        <extensions>
          <gpxtpx:TrackPointExtension xmlns:gpxtpx="http://www.garmin.com/xmlschemas/TrackPointExtension/v1">
            <gpxtpx:hr>108</gpxtpx:hr>
          </gpxtpx:TrackPointExtension>
        </extensions>
      </trkpt>
      <trkpt lat="44.16382" lon="5.28066">
        <ele>1409.6</ele>
        <time>2021-06-12T09:02:26Z</time>
        <extensions>
          <gpxtpx:TrackPointExtension xmlns:gpxtpx="http://www.garmin.com/xmlschemas/TrackPointExtension/v1">
            <gpxtpx:hr>105</gpxtpx:hr>
          </gpxtpx:TrackPointExtension>
        </extensions>
      </trkpt>
      <trkpt lat="44.16383" lon="5.28065">
        <ele>1409.6</ele>
        <time>2021-06-12T09:02:33Z</time>
        <extensions>
          <gpxtpx:TrackPointExtension xmlns:gpxtpx="http://www.garmin.com/xmlschemas/TrackPointExtension/v1">
            <gpxtpx:hr>101</gpxtpx:hr>
          </gpxtpx:TrackPointExtension>
        </extensions>
      </trkpt>
      <trkpt lat="44.16383" lon="5.28066">
        <ele>1409.6</ele>
        <time>2021-06-12T09:02:34Z</time>
        <extensions>
          <gpxtpx:TrackPointExtension xmlns:gpxtpx="http://www.garmin.com/xmlschemas/TrackPointExtension/v1">
            <gpxtpx:hr>96</gpxtpx:hr>
          </gpxtpx:TrackPointExtension>
        </extensions>
      </trkpt>
      <trkpt lat="44.16383" lon="5.28064">
        <ele>1409.6</ele>
        <time>2021-06-12T09:02:40Z</time>
        <extensions>
          <gpxtpx:TrackPointExtension xmlns:gpxtpx="http://www.garmin.com/xmlschemas/TrackPointExtension/v1">
            <gpxtpx:hr>100</gpxtpx:hr>
          </gpxtpx:TrackPointExtension>
        </extensions>
      </trkpt>
      <trkpt lat="44.16384" lon="5.28063">
        <ele>1409.6</ele>
        <time>2021-06-12T09:02:44Z</time>
        <extensions>
          <gpxtpx:TrackPointExtension xmlns:gpxtpx="http://www.garmin.com/xmlschemas/TrackPointExtension/v1">
            <gpxtpx:hr>103</gpxtpx:hr>
          </gpxtpx:TrackPointExtension>
        </extensions>
      </trkpt>
      <trkpt lat="44.16384" lon="5.28066">
        <ele>1409.6</ele>
        <time>2021-06-12T09:03:02Z</time>
        <extensions>
          <gpxtpx:TrackPointExtension xmlns:gpxtpx="http://www.garmin.com/xmlschemas/TrackPointExtension/v1">
            <gpxtpx:hr>106</gpxtpx:hr>
          </gpxtpx:TrackPointExtension>
        </extensions>
      </trkpt>
      <trkpt lat="44.16383" lon="5.28068">
        <ele>1409.6</ele>
        <time>2021-06-12T09:03:04Z</time>
        <extensions>
          <gpxtpx:TrackPointExtension xmlns:gpxtpx="http://www.garmin.com/xmlschemas/TrackPointExtension/v1">
            <gpxtpx:hr>109</gpxtpx:hr>
          </gpxtpx:TrackPointExtension>
        </extensions>
      </trkpt>
      <trkpt lat="44.16381" lon="5.28066">
        <ele>1409.6</ele>
        <time>2021-06-12T09:03:10Z</time>
        <extensions>
          <gpxtpx:TrackPointExtension xmlns:gpxtpx="http://www.garmin.com/xmlschemas/TrackPointExtension/v1">
            <gpxtpx:hr>106</gpxtpx:hr>
          </gpxtpx:TrackPointExtension>
        </extensions>
      </trkpt>
      <trkpt lat="44.16381" lon="5.28068">
        <ele>1409.6</ele>
        <time>2021-06-12T09:03:20Z</time>
        <extensions>
          <gpxtpx:TrackPointExtension xmlns:gpxtpx="http://www.garmin.com/xmlschemas/TrackPointExtension/v1">
            <gpxtpx:hr>103</gpxtpx:hr>
          </gpxtpx:TrackPointExtension>
        </extensions>
      </trkpt>
      <trkpt lat="44.16382" lon="5.28064">
        <ele>1409.6</ele>
        <time>2021-06-12T09:03:40Z</time>
        <extensions>
          <gpxtpx:TrackPointExtension xmlns:gpxtpx="http://www.garmin.com/xmlschemas/TrackPointExtension/v1">
            <gpxtpx:hr>108</gpxtpx:hr>
          </gpxtpx:TrackPointExtension>
        </extensions>
      </trkpt>
      <trkpt lat="44.16382" lon="5.28064">
        <ele>1409.6</ele>
        <time>2021-06-12T09:03:45Z</time>
        <extensions>
          <gpxtpx:TrackPointExtension xmlns:gpxtpx="http://www.garmin.com/xmlschemas/TrackPointExtension/v1">
            <gpxtpx:hr>104</gpxtpx:hr>
          </gpxtpx:TrackPointExtension>
        </extensions>
      </trkpt>
      <trkpt lat="44.16382" lon="5.28064">
        <ele>1409.6</ele>
        <time>2021-06-12T09:03:51Z</time>
        <extensions>
          <gpxtpx:TrackPointExtension xmlns:gpxtpx="http://www.garmin.com/xmlschemas/TrackPointExtension/v1">
            <gpxtpx:hr>107</gpxtpx:hr>
          </gpxtpx:TrackPointExtension>
        </extensions>
      </trkpt>
      <trkpt lat="44.16382" lon="5.28064">
        <ele>1409.6</ele>
        <time>2021-06-12T09:03:55Z</time>
        <extensions>
          <gpxtpx:TrackPointExtension xmlns:gpxtpx="http://www.garmin.com/xmlschemas/TrackPointExtension/v1">
            <gpxtpx:hr>111</gpxtpx:hr>
          </gpxtpx:TrackPointExtension>
        </extensions>
      </trkpt>
      <trkpt lat="44.16381" lon="5.28062">
        <ele>1409.6</ele>
        <time>2021-06-12T09:04:06Z</time>
        <extensions>
          <gpxtpx:TrackPointExtension xmlns:gpxtpx="http://www.garmin.com/xmlschemas/TrackPointExtension/v1">
            <gpxtpx:hr>107</gpxtpx:hr>
          </gpxtpx:TrackPointExtension>
        </extensions>
      </trkpt>
      <trkpt lat="44.16381" lon="5.28062">
        <ele>1409.6</ele>
        <time>2021-06-12T09:04:08Z</time>
        <extensions>
          <gpxtpx:TrackPointExtension xmlns:gpxtpx="http://www.garmin.com/xmlschemas/TrackPointExtension/v1">
            <gpxtpx:hr>104</gpxtpx:hr>
          </gpxtpx:TrackPointExtension>
        </extensions>
      </trkpt>
      <trkpt lat="44.16381" lon="5.28063">
        <ele>1409.6</ele>
        <time>2021-06-12T09:04:11Z</time>
        <extensions>
          <gpxtpx:TrackPointExtension xmlns:gpxtpx="http://www.garmin.com/xmlschemas/TrackPointExtension/v1">
            <gpxtpx:hr>107</gpxtpx:hr>
          </gpxtpx:TrackPointExtension>
        </extensions>
      </trkpt>
      <trkpt lat="44.1638" lon="5.28065">
        <ele>1409.6</ele>
        <time>2021-06-12T09:04:16Z</time>
        <extensions>
          <gpxtpx:TrackPointExtension xmlns:gpxtpx="http://www.garmin.com/xmlschemas/TrackPointExtension/v1">
            <gpxtpx:hr>103</gpxtpx:hr>
          </gpxtpx:TrackPointExtension>
        </extensions>
      </trkpt>
      <trkpt lat="44.16381" lon="5.28065">
        <ele>1409.6</ele>
        <time>2021-06-12T09:04:20Z</time>
        <extensions>
          <gpxtpx:TrackPointExtension xmlns:gpxtpx="http://www.garmin.com/xmlschemas/TrackPointExtension/v1">
            <gpxtpx:hr>106</gpxtpx:hr>
          </gpxtpx:TrackPointExtension>
        </extensions>
      </trkpt>
      <trkpt lat="44.1638" lon="5.28065">
        <ele>1409.6</ele>
        <time>2021-06-12T09:04:23Z</time>
        <extensions>
          <gpxtpx:TrackPointExtension xmlns:gpxtpx="http://www.garmin.com/xmlschemas/TrackPointExtension/v1">
            <gpxtpx:hr>109</gpxtpx:hr>
          </gpxtpx:TrackPointExtension>
        </extensions>
      </trkpt>
      <trkpt lat="44.16381" lon="5.28065">
        <ele>1409.6</ele>
        <time>2021-06-12T09:04:28Z</time>
        <extensions>
          <gpxtpx:TrackPointExtension xmlns:gpxtpx="http://www.garmin.com/xmlschemas/TrackPointExtension/v1">
            <gpxtpx:hr>104</gpxtpx:hr>
          </gpxtpx:TrackPointExtension>
        </extensions>
      </trkpt>
      <trkpt lat="44.16381" lon="5.28061">
        <ele>1409.6</ele>
        <time>2021-06-12T09:04:49Z</time>
        <extensions>
          <gpxtpx:TrackPointExtension xmlns:gpxtpx="http://www.garmin.com/xmlschemas/TrackPointExtension/v1">
            <gpxtpx:hr>107</gpxtpx:hr>
          </gpxtpx:TrackPointExtension>
        </extensions>
      </trkpt>
      <trkpt lat="44.1638" lon="5.28059">
        <ele>1409.6</ele>
        <time>2021-06-12T09:04:51Z</time>
        <extensions>
          <gpxtpx:TrackPointExtension xmlns:gpxtpx="http://www.garmin.com/xmlschemas/TrackPointExtension/v1">
            <gpxtpx:hr>108</gpxtpx:hr>
          </gpxtpx:TrackPointExtension>
        </extensions>
      </trkpt>
      <trkpt lat="44.1638" lon="5.28052">
        <ele>1410.2</ele>
        <time>2021-06-12T09:04:57Z</time>
        <extensions>
          <gpxtpx:TrackPointExtension xmlns:gpxtpx="http://www.garmin.com/xmlschemas/TrackPointExtension/v1">
            <gpxtpx:hr>110</gpxtpx:hr>
          </gpxtpx:TrackPointExtension>
        </extensions>
      </trkpt>
      <trkpt lat="44.16379" lon="5.2805">
        <ele>1410.6</ele>
        <time>2021-06-12T09:04:59Z</time>
        <extensions>
          <gpxtpx:TrackPointExtension xmlns:gpxtpx="http://www.garmin.com/xmlschemas/TrackPointExtension/v1">
            <gpxtpx:hr>113</gpxtpx:hr>
          </gpxtpx:TrackPointExtension>
        </extensions>
      </trkpt>
      <trkpt lat="44.16377" lon="5.28048">
        <ele>1411.2</ele>
        <time>2021-06-12T09:05:02Z</time>
        <extensions>
          <gpxtpx:TrackPointExtension xmlns:gpxtpx="http://www.garmin.com/xmlschemas/TrackPointExtension/v1">
            <gpxtpx:hr>115</gpxtpx:hr>
          </gpxtpx:TrackPointExtension>
        </extensions>
      </trkpt>
      <trkpt lat="44.16376" lon="5.28047">
        <ele>1411.2</ele>
        <time>2021-06-12T09:05:04Z</time>
        <extensions>
          <gpxtpx:TrackPointExtension xmlns:gpxtpx="http://www.garmin.com/xmlschemas/TrackPointExtension/v1">
            <gpxtpx:hr>117</gpxtpx:hr>
          </gpxtpx:TrackPointExtension>
        </extensions>
      </trkpt>
      <trkpt lat="44.16377" lon="5.28045">
        <ele>1412.2</ele>
        <time>2021-06-12T09:05:08Z</time>
        <extensions>
          <gpxtpx:TrackPointExtension xmlns:gpxtpx="http://www.garmin.com/xmlschemas/TrackPointExtension/v1">
            <gpxtpx:hr>120</gpxtpx:hr>
          </gpxtpx:TrackPointExtension>
        </extensions>
      </trkpt>
      <trkpt lat="44.16377" lon="5.28044">
        <ele>1412.4</ele>
        <time>2021-06-12T09:05:09Z</time>
        <extensions>
          <gpxtpx:TrackPointExtension xmlns:gpxtpx="http://www.garmin.com/xmlschemas/TrackPointExtension/v1">
            <gpxtpx:hr>120</gpxtpx:hr>
          </gpxtpx:TrackPointExtension>
        </extensions>
      </trkpt>
      <trkpt lat="44.16376" lon="5.28042">
        <ele>1413.6</ele>
        <time>2021-06-12T09:05:12Z</time>
        <extensions>
          <gpxtpx:TrackPointExtension xmlns:gpxtpx="http://www.garmin.com/xmlschemas/TrackPointExtension/v1">
            <gpxtpx:hr>123</gpxtpx:hr>
          </gpxtpx:TrackPointExtension>
        </extensions>
      </trkpt>
      <trkpt lat="44.16376" lon="5.28041">
        <ele>1413.8</ele>
        <time>2021-06-12T09:05:13Z</time>
        <extensions>
          <gpxtpx:TrackPointExtension xmlns:gpxtpx="http://www.garmin.com/xmlschemas/TrackPointExtension/v1">
            <gpxtpx:hr>124</gpxtpx:hr>
          </gpxtpx:TrackPointExtension>
        </extensions>
      </trkpt>
      <trkpt lat="44.16375" lon="5.28038">
        <ele>1414.6</ele>
        <time>2021-06-12T09:05:16Z</time>
        <extensions>
          <gpxtpx:TrackPointExtension xmlns:gpxtpx="http://www.garmin.com/xmlschemas/TrackPointExtension/v1">
            <gpxtpx:hr>126</gpxtpx:hr>
          </gpxtpx:TrackPointExtension>
        </extensions>
      </trkpt>
      <trkpt lat="44.16372" lon="5.28034">
        <ele>1415.6</ele>
        <time>2021-06-12T09:05:20Z</time>
        <extensions>
          <gpxtpx:TrackPointExtension xmlns:gpxtpx="http://www.garmin.com/xmlschemas/TrackPointExtension/v1">
            <gpxtpx:hr>129</gpxtpx:hr>
          </gpxtpx:TrackPointExtension>
        </extensions>
      </trkpt>
      <trkpt lat="44.16372" lon="5.28032">
        <ele>1415.6</ele>
        <time>2021-06-12T09:05:21Z</time>
        <extensions>
          <gpxtpx:TrackPointExtension xmlns:gpxtpx="http://www.garmin.com/xmlschemas/TrackPointExtension/v1">
            <gpxtpx:hr>130</gpxtpx:hr>
          </gpxtpx:TrackPointExtension>
        </extensions>
      </trkpt>
      <trkpt lat="44.16371" lon="5.28029">
        <ele>1416.2</ele>
        <time>2021-06-12T09:05:23Z</time>
        <extensions>
          <gpxtpx:TrackPointExtension xmlns:gpxtpx="http://www.garmin.com/xmlschemas/TrackPointExtension/v1">
            <gpxtpx:hr>130</gpxtpx:hr>
          </gpxtpx:TrackPointExtension>
        </extensions>
      </trkpt>
      <trkpt lat="44.16368" lon="5.28025">
        <ele>1416.8</ele>
        <time>2021-06-12T09:05:27Z</time>
        <extensions>
          <gpxtpx:TrackPointExtension xmlns:gpxtpx="http://www.garmin.com/xmlschemas/TrackPointExtension/v1">
            <gpxtpx:hr>132</gpxtpx:hr>
          </gpxtpx:TrackPointExtension>
        </extensions>
      </trkpt>
      <trkpt lat="44.16367" lon="5.28024">
        <ele>1417</ele>
        <time>2021-06-12T09:05:29Z</time>
        <extensions>
          <gpxtpx:TrackPointExtension xmlns:gpxtpx="http://www.garmin.com/xmlschemas/TrackPointExtension/v1">
            <gpxtpx:hr>133</gpxtpx:hr>
          </gpxtpx:TrackPointExtension>
        </extensions>
      </trkpt>
      <trkpt lat="44.16365" lon="5.2802">
        <ele>1417.8</ele>
        <time>2021-06-12T09:05:33Z</time>
        <extensions>
          <gpxtpx:TrackPointExtension xmlns:gpxtpx="http://www.garmin.com/xmlschemas/TrackPointExtension/v1">
            <gpxtpx:hr>134</gpxtpx:hr>
          </gpxtpx:TrackPointExtension>
        </extensions>
      </trkpt>
      <trkpt lat="44.16362" lon="5.28018">
        <ele>1418.2</ele>
        <time>2021-06-12T09:05:36Z</time>
        <extensions>
          <gpxtpx:TrackPointExtension xmlns:gpxtpx="http://www.garmin.com/xmlschemas/TrackPointExtension/v1">
            <gpxtpx:hr>135</gpxtpx:hr>
          </gpxtpx:TrackPointExtension>
        </extensions>
      </trkpt>
      <trkpt lat="44.16361" lon="5.28016">
        <ele>1418.8</ele>
        <time>2021-06-12T09:05:39Z</time>
        <extensions>
          <gpxtpx:TrackPointExtension xmlns:gpxtpx="http://www.garmin.com/xmlschemas/TrackPointExtension/v1">
            <gpxtpx:hr>137</gpxtpx:hr>
          </gpxtpx:TrackPointExtension>
        </extensions>
      </trkpt>
      <trkpt lat="44.16359" lon="5.28013">
        <ele>1419.6</ele>
        <time>2021-06-12T09:05:42Z</time>
        <extensions>
          <gpxtpx:TrackPointExtension xmlns:gpxtpx="http://www.garmin.com/xmlschemas/TrackPointExtension/v1">
            <gpxtpx:hr>137</gpxtpx:hr>
          </gpxtpx:TrackPointExtension>
        </extensions>
      </trkpt>
      <trkpt lat="44.16356" lon="5.2801">
        <ele>1420</ele>
        <time>2021-06-12T09:05:45Z</time>
        <extensions>
          <gpxtpx:TrackPointExtension xmlns:gpxtpx="http://www.garmin.com/xmlschemas/TrackPointExtension/v1">
            <gpxtpx:hr>138</gpxtpx:hr>
          </gpxtpx:TrackPointExtension>
        </extensions>
      </trkpt>
      <trkpt lat="44.16349" lon="5.28005">
        <ele>1420.8</ele>
        <time>2021-06-12T09:05:52Z</time>
        <extensions>
          <gpxtpx:TrackPointExtension xmlns:gpxtpx="http://www.garmin.com/xmlschemas/TrackPointExtension/v1">
            <gpxtpx:hr>138</gpxtpx:hr>
          </gpxtpx:TrackPointExtension>
        </extensions>
      </trkpt>
      <trkpt lat="44.16347" lon="5.28003">
        <ele>1421</ele>
        <time>2021-06-12T09:05:55Z</time>
        <extensions>
          <gpxtpx:TrackPointExtension xmlns:gpxtpx="http://www.garmin.com/xmlschemas/TrackPointExtension/v1">
            <gpxtpx:hr>139</gpxtpx:hr>
          </gpxtpx:TrackPointExtension>
        </extensions>
      </trkpt>
      <trkpt lat="44.16344" lon="5.27996">
        <ele>1422.2</ele>
        <time>2021-06-12T09:06:01Z</time>
        <extensions>
          <gpxtpx:TrackPointExtension xmlns:gpxtpx="http://www.garmin.com/xmlschemas/TrackPointExtension/v1">
            <gpxtpx:hr>140</gpxtpx:hr>
          </gpxtpx:TrackPointExtension>
        </extensions>
      </trkpt>
      <trkpt lat="44.16343" lon="5.27994">
        <ele>1422.8</ele>
        <time>2021-06-12T09:06:03Z</time>
        <extensions>
          <gpxtpx:TrackPointExtension xmlns:gpxtpx="http://www.garmin.com/xmlschemas/TrackPointExtension/v1">
            <gpxtpx:hr>140</gpxtpx:hr>
          </gpxtpx:TrackPointExtension>
        </extensions>
      </trkpt>
      <trkpt lat="44.16341" lon="5.2799">
        <ele>1423.4</ele>
        <time>2021-06-12T09:06:06Z</time>
        <extensions>
          <gpxtpx:TrackPointExtension xmlns:gpxtpx="http://www.garmin.com/xmlschemas/TrackPointExtension/v1">
            <gpxtpx:hr>142</gpxtpx:hr>
          </gpxtpx:TrackPointExtension>
        </extensions>
      </trkpt>
      <trkpt lat="44.1634" lon="5.27989">
        <ele>1423.6</ele>
        <time>2021-06-12T09:06:07Z</time>
        <extensions>
          <gpxtpx:TrackPointExtension xmlns:gpxtpx="http://www.garmin.com/xmlschemas/TrackPointExtension/v1">
            <gpxtpx:hr>141</gpxtpx:hr>
          </gpxtpx:TrackPointExtension>
        </extensions>
      </trkpt>
      <trkpt lat="44.16336" lon="5.27985">
        <ele>1424.2</ele>
        <time>2021-06-12T09:06:12Z</time>
        <extensions>
          <gpxtpx:TrackPointExtension xmlns:gpxtpx="http://www.garmin.com/xmlschemas/TrackPointExtension/v1">
            <gpxtpx:hr>142</gpxtpx:hr>
          </gpxtpx:TrackPointExtension>
        </extensions>
      </trkpt>
      <trkpt lat="44.16334" lon="5.2798">
        <ele>1424.4</ele>
        <time>2021-06-12T09:06:16Z</time>
        <extensions>
          <gpxtpx:TrackPointExtension xmlns:gpxtpx="http://www.garmin.com/xmlschemas/TrackPointExtension/v1">
            <gpxtpx:hr>142</gpxtpx:hr>
          </gpxtpx:TrackPointExtension>
        </extensions>
      </trkpt>
      <trkpt lat="44.16331" lon="5.27975">
        <ele>1425</ele>
        <time>2021-06-12T09:06:21Z</time>
        <extensions>
          <gpxtpx:TrackPointExtension xmlns:gpxtpx="http://www.garmin.com/xmlschemas/TrackPointExtension/v1">
            <gpxtpx:hr>141</gpxtpx:hr>
          </gpxtpx:TrackPointExtension>
        </extensions>
      </trkpt>
      <trkpt lat="44.16329" lon="5.27971">
        <ele>1425.6</ele>
        <time>2021-06-12T09:06:24Z</time>
        <extensions>
          <gpxtpx:TrackPointExtension xmlns:gpxtpx="http://www.garmin.com/xmlschemas/TrackPointExtension/v1">
            <gpxtpx:hr>141</gpxtpx:hr>
          </gpxtpx:TrackPointExtension>
        </extensions>
      </trkpt>
      <trkpt lat="44.16325" lon="5.27964">
        <ele>1426.8</ele>
        <time>2021-06-12T09:06:29Z</time>
        <extensions>
          <gpxtpx:TrackPointExtension xmlns:gpxtpx="http://www.garmin.com/xmlschemas/TrackPointExtension/v1">
            <gpxtpx:hr>141</gpxtpx:hr>
          </gpxtpx:TrackPointExtension>
        </extensions>
      </trkpt>
      <trkpt lat="44.16324" lon="5.2796">
        <ele>1427.2</ele>
        <time>2021-06-12T09:06:32Z</time>
        <extensions>
          <gpxtpx:TrackPointExtension xmlns:gpxtpx="http://www.garmin.com/xmlschemas/TrackPointExtension/v1">
            <gpxtpx:hr>141</gpxtpx:hr>
          </gpxtpx:TrackPointExtension>
        </extensions>
      </trkpt>
      <trkpt lat="44.16321" lon="5.27957">
        <ele>1427.6</ele>
        <time>2021-06-12T09:06:34Z</time>
        <extensions>
          <gpxtpx:TrackPointExtension xmlns:gpxtpx="http://www.garmin.com/xmlschemas/TrackPointExtension/v1">
            <gpxtpx:hr>141</gpxtpx:hr>
          </gpxtpx:TrackPointExtension>
        </extensions>
      </trkpt>
      <trkpt lat="44.16321" lon="5.27956">
        <ele>1428</ele>
        <time>2021-06-12T09:06:35Z</time>
        <extensions>
          <gpxtpx:TrackPointExtension xmlns:gpxtpx="http://www.garmin.com/xmlschemas/TrackPointExtension/v1">
            <gpxtpx:hr>142</gpxtpx:hr>
          </gpxtpx:TrackPointExtension>
        </extensions>
      </trkpt>
      <trkpt lat="44.1632" lon="5.27952">
        <ele>1428.8</ele>
        <time>2021-06-12T09:06:39Z</time>
        <extensions>
          <gpxtpx:TrackPointExtension xmlns:gpxtpx="http://www.garmin.com/xmlschemas/TrackPointExtension/v1">
            <gpxtpx:hr>143</gpxtpx:hr>
          </gpxtpx:TrackPointExtension>
        </extensions>
      </trkpt>
      <trkpt lat="44.16319" lon="5.27949">
        <ele>1429.2</ele>
        <time>2021-06-12T09:06:41Z</time>
        <extensions>
          <gpxtpx:TrackPointExtension xmlns:gpxtpx="http://www.garmin.com/xmlschemas/TrackPointExtension/v1">
            <gpxtpx:hr>143</gpxtpx:hr>
          </gpxtpx:TrackPointExtension>
        </extensions>
      </trkpt>
      <trkpt lat="44.16317" lon="5.27944">
        <ele>1430.2</ele>
        <time>2021-06-12T09:06:46Z</time>
        <extensions>
          <gpxtpx:TrackPointExtension xmlns:gpxtpx="http://www.garmin.com/xmlschemas/TrackPointExtension/v1">
            <gpxtpx:hr>143</gpxtpx:hr>
          </gpxtpx:TrackPointExtension>
        </extensions>
      </trkpt>
      <trkpt lat="44.16314" lon="5.27938">
        <ele>1431.4</ele>
        <time>2021-06-12T09:06:52Z</time>
        <extensions>
          <gpxtpx:TrackPointExtension xmlns:gpxtpx="http://www.garmin.com/xmlschemas/TrackPointExtension/v1">
            <gpxtpx:hr>142</gpxtpx:hr>
          </gpxtpx:TrackPointExtension>
        </extensions>
      </trkpt>
      <trkpt lat="44.16313" lon="5.27938">
        <ele>1431.4</ele>
        <time>2021-06-12T09:06:53Z</time>
        <extensions>
          <gpxtpx:TrackPointExtension xmlns:gpxtpx="http://www.garmin.com/xmlschemas/TrackPointExtension/v1">
            <gpxtpx:hr>142</gpxtpx:hr>
          </gpxtpx:TrackPointExtension>
        </extensions>
      </trkpt>
      <trkpt lat="44.16309" lon="5.27931">
        <ele>1432.2</ele>
        <time>2021-06-12T09:06:58Z</time>
        <extensions>
          <gpxtpx:TrackPointExtension xmlns:gpxtpx="http://www.garmin.com/xmlschemas/TrackPointExtension/v1">
            <gpxtpx:hr>144</gpxtpx:hr>
          </gpxtpx:TrackPointExtension>
        </extensions>
      </trkpt>
      <trkpt lat="44.16308" lon="5.27929">
        <ele>1432.4</ele>
        <time>2021-06-12T09:06:59Z</time>
        <extensions>
          <gpxtpx:TrackPointExtension xmlns:gpxtpx="http://www.garmin.com/xmlschemas/TrackPointExtension/v1">
            <gpxtpx:hr>144</gpxtpx:hr>
          </gpxtpx:TrackPointExtension>
        </extensions>
      </trkpt>
      <trkpt lat="44.16305" lon="5.27918">
        <ele>1433.2</ele>
        <time>2021-06-12T09:07:06Z</time>
        <extensions>
          <gpxtpx:TrackPointExtension xmlns:gpxtpx="http://www.garmin.com/xmlschemas/TrackPointExtension/v1">
            <gpxtpx:hr>144</gpxtpx:hr>
          </gpxtpx:TrackPointExtension>
        </extensions>
      </trkpt>
      <trkpt lat="44.16305" lon="5.27917">
        <ele>1433.4</ele>
        <time>2021-06-12T09:07:07Z</time>
        <extensions>
          <gpxtpx:TrackPointExtension xmlns:gpxtpx="http://www.garmin.com/xmlschemas/TrackPointExtension/v1">
            <gpxtpx:hr>143</gpxtpx:hr>
          </gpxtpx:TrackPointExtension>
        </extensions>
      </trkpt>
      <trkpt lat="44.16302" lon="5.27915">
        <ele>1434.6</ele>
        <time>2021-06-12T09:07:12Z</time>
        <extensions>
          <gpxtpx:TrackPointExtension xmlns:gpxtpx="http://www.garmin.com/xmlschemas/TrackPointExtension/v1">
            <gpxtpx:hr>143</gpxtpx:hr>
          </gpxtpx:TrackPointExtension>
        </extensions>
      </trkpt>
      <trkpt lat="44.16302" lon="5.27914">
        <ele>1435.2</ele>
        <time>2021-06-12T09:07:15Z</time>
        <extensions>
          <gpxtpx:TrackPointExtension xmlns:gpxtpx="http://www.garmin.com/xmlschemas/TrackPointExtension/v1">
            <gpxtpx:hr>142</gpxtpx:hr>
          </gpxtpx:TrackPointExtension>
        </extensions>
      </trkpt>
      <trkpt lat="44.16301" lon="5.27913">
        <ele>1435.6</ele>
        <time>2021-06-12T09:07:17Z</time>
        <extensions>
          <gpxtpx:TrackPointExtension xmlns:gpxtpx="http://www.garmin.com/xmlschemas/TrackPointExtension/v1">
            <gpxtpx:hr>142</gpxtpx:hr>
          </gpxtpx:TrackPointExtension>
        </extensions>
      </trkpt>
      <trkpt lat="44.163" lon="5.27912">
        <ele>1435.8</ele>
        <time>2021-06-12T09:07:18Z</time>
        <extensions>
          <gpxtpx:TrackPointExtension xmlns:gpxtpx="http://www.garmin.com/xmlschemas/TrackPointExtension/v1">
            <gpxtpx:hr>142</gpxtpx:hr>
          </gpxtpx:TrackPointExtension>
        </extensions>
      </trkpt>
      <trkpt lat="44.163" lon="5.2791">
        <ele>1436.2</ele>
        <time>2021-06-12T09:07:21Z</time>
        <extensions>
          <gpxtpx:TrackPointExtension xmlns:gpxtpx="http://www.garmin.com/xmlschemas/TrackPointExtension/v1">
            <gpxtpx:hr>143</gpxtpx:hr>
          </gpxtpx:TrackPointExtension>
        </extensions>
      </trkpt>
      <trkpt lat="44.16298" lon="5.27907">
        <ele>1436.8</ele>
        <time>2021-06-12T09:07:24Z</time>
        <extensions>
          <gpxtpx:TrackPointExtension xmlns:gpxtpx="http://www.garmin.com/xmlschemas/TrackPointExtension/v1">
            <gpxtpx:hr>143</gpxtpx:hr>
          </gpxtpx:TrackPointExtension>
        </extensions>
      </trkpt>
      <trkpt lat="44.16296" lon="5.27902">
        <ele>1438</ele>
        <time>2021-06-12T09:07:29Z</time>
        <extensions>
          <gpxtpx:TrackPointExtension xmlns:gpxtpx="http://www.garmin.com/xmlschemas/TrackPointExtension/v1">
            <gpxtpx:hr>143</gpxtpx:hr>
          </gpxtpx:TrackPointExtension>
        </extensions>
      </trkpt>
      <trkpt lat="44.16297" lon="5.27901">
        <ele>1438.2</ele>
        <time>2021-06-12T09:07:30Z</time>
        <extensions>
          <gpxtpx:TrackPointExtension xmlns:gpxtpx="http://www.garmin.com/xmlschemas/TrackPointExtension/v1">
            <gpxtpx:hr>142</gpxtpx:hr>
          </gpxtpx:TrackPointExtension>
        </extensions>
      </trkpt>
      <trkpt lat="44.16297" lon="5.27898">
        <ele>1438.6</ele>
        <time>2021-06-12T09:07:32Z</time>
        <extensions>
          <gpxtpx:TrackPointExtension xmlns:gpxtpx="http://www.garmin.com/xmlschemas/TrackPointExtension/v1">
            <gpxtpx:hr>142</gpxtpx:hr>
          </gpxtpx:TrackPointExtension>
        </extensions>
      </trkpt>
      <trkpt lat="44.16296" lon="5.27897">
        <ele>1438.8</ele>
        <time>2021-06-12T09:07:33Z</time>
        <extensions>
          <gpxtpx:TrackPointExtension xmlns:gpxtpx="http://www.garmin.com/xmlschemas/TrackPointExtension/v1">
            <gpxtpx:hr>142</gpxtpx:hr>
          </gpxtpx:TrackPointExtension>
        </extensions>
      </trkpt>
      <trkpt lat="44.16296" lon="5.27895">
        <ele>1439</ele>
        <time>2021-06-12T09:07:34Z</time>
        <extensions>
          <gpxtpx:TrackPointExtension xmlns:gpxtpx="http://www.garmin.com/xmlschemas/TrackPointExtension/v1">
            <gpxtpx:hr>142</gpxtpx:hr>
          </gpxtpx:TrackPointExtension>
        </extensions>
      </trkpt>
      <trkpt lat="44.16295" lon="5.27889">
        <ele>1440</ele>
        <time>2021-06-12T09:07:37Z</time>
        <extensions>
          <gpxtpx:TrackPointExtension xmlns:gpxtpx="http://www.garmin.com/xmlschemas/TrackPointExtension/v1">
            <gpxtpx:hr>143</gpxtpx:hr>
          </gpxtpx:TrackPointExtension>
        </extensions>
      </trkpt>
      <trkpt lat="44.16295" lon="5.27888">
        <ele>1440.2</ele>
        <time>2021-06-12T09:07:38Z</time>
        <extensions>
          <gpxtpx:TrackPointExtension xmlns:gpxtpx="http://www.garmin.com/xmlschemas/TrackPointExtension/v1">
            <gpxtpx:hr>143</gpxtpx:hr>
          </gpxtpx:TrackPointExtension>
        </extensions>
      </trkpt>
      <trkpt lat="44.16294" lon="5.27872">
        <ele>1440.6</ele>
        <time>2021-06-12T09:07:47Z</time>
        <extensions>
          <gpxtpx:TrackPointExtension xmlns:gpxtpx="http://www.garmin.com/xmlschemas/TrackPointExtension/v1">
            <gpxtpx:hr>142</gpxtpx:hr>
          </gpxtpx:TrackPointExtension>
        </extensions>
      </trkpt>
      <trkpt lat="44.16295" lon="5.27868">
        <ele>1440.6</ele>
        <time>2021-06-12T09:07:50Z</time>
        <extensions>
          <gpxtpx:TrackPointExtension xmlns:gpxtpx="http://www.garmin.com/xmlschemas/TrackPointExtension/v1">
            <gpxtpx:hr>143</gpxtpx:hr>
          </gpxtpx:TrackPointExtension>
        </extensions>
      </trkpt>
      <trkpt lat="44.16296" lon="5.27867">
        <ele>1440.8</ele>
        <time>2021-06-12T09:07:51Z</time>
        <extensions>
          <gpxtpx:TrackPointExtension xmlns:gpxtpx="http://www.garmin.com/xmlschemas/TrackPointExtension/v1">
            <gpxtpx:hr>143</gpxtpx:hr>
          </gpxtpx:TrackPointExtension>
        </extensions>
      </trkpt>
      <trkpt lat="44.16296" lon="5.27865">
        <ele>1441</ele>
        <time>2021-06-12T09:07:53Z</time>
        <extensions>
          <gpxtpx:TrackPointExtension xmlns:gpxtpx="http://www.garmin.com/xmlschemas/TrackPointExtension/v1">
            <gpxtpx:hr>142</gpxtpx:hr>
          </gpxtpx:TrackPointExtension>
        </extensions>
      </trkpt>
      <trkpt lat="44.16296" lon="5.27864">
        <ele>1441.2</ele>
        <time>2021-06-12T09:07:54Z</time>
        <extensions>
          <gpxtpx:TrackPointExtension xmlns:gpxtpx="http://www.garmin.com/xmlschemas/TrackPointExtension/v1">
            <gpxtpx:hr>142</gpxtpx:hr>
          </gpxtpx:TrackPointExtension>
        </extensions>
      </trkpt>
      <trkpt lat="44.16297" lon="5.27863">
        <ele>1441.4</ele>
        <time>2021-06-12T09:07:55Z</time>
        <extensions>
          <gpxtpx:TrackPointExtension xmlns:gpxtpx="http://www.garmin.com/xmlschemas/TrackPointExtension/v1">
            <gpxtpx:hr>142</gpxtpx:hr>
          </gpxtpx:TrackPointExtension>
        </extensions>
      </trkpt>
      <trkpt lat="44.16297" lon="5.27864">
        <ele>1441.6</ele>
        <time>2021-06-12T09:07:56Z</time>
        <extensions>
          <gpxtpx:TrackPointExtension xmlns:gpxtpx="http://www.garmin.com/xmlschemas/TrackPointExtension/v1">
            <gpxtpx:hr>142</gpxtpx:hr>
          </gpxtpx:TrackPointExtension>
        </extensions>
      </trkpt>
      <trkpt lat="44.16299" lon="5.27867">
        <ele>1442.2</ele>
        <time>2021-06-12T09:07:59Z</time>
        <extensions>
          <gpxtpx:TrackPointExtension xmlns:gpxtpx="http://www.garmin.com/xmlschemas/TrackPointExtension/v1">
            <gpxtpx:hr>142</gpxtpx:hr>
          </gpxtpx:TrackPointExtension>
        </extensions>
      </trkpt>
      <trkpt lat="44.16299" lon="5.27868">
        <ele>1442.6</ele>
        <time>2021-06-12T09:08:00Z</time>
        <extensions>
          <gpxtpx:TrackPointExtension xmlns:gpxtpx="http://www.garmin.com/xmlschemas/TrackPointExtension/v1">
            <gpxtpx:hr>143</gpxtpx:hr>
          </gpxtpx:TrackPointExtension>
        </extensions>
      </trkpt>
      <trkpt lat="44.163" lon="5.27868">
        <ele>1443</ele>
        <time>2021-06-12T09:08:01Z</time>
        <extensions>
          <gpxtpx:TrackPointExtension xmlns:gpxtpx="http://www.garmin.com/xmlschemas/TrackPointExtension/v1">
            <gpxtpx:hr>143</gpxtpx:hr>
          </gpxtpx:TrackPointExtension>
        </extensions>
      </trkpt>
      <trkpt lat="44.16301" lon="5.27869">
        <ele>1443.2</ele>
        <time>2021-06-12T09:08:02Z</time>
        <extensions>
          <gpxtpx:TrackPointExtension xmlns:gpxtpx="http://www.garmin.com/xmlschemas/TrackPointExtension/v1">
            <gpxtpx:hr>144</gpxtpx:hr>
          </gpxtpx:TrackPointExtension>
        </extensions>
      </trkpt>
      <trkpt lat="44.16302" lon="5.27869">
        <ele>1443.6</ele>
        <time>2021-06-12T09:08:04Z</time>
        <extensions>
          <gpxtpx:TrackPointExtension xmlns:gpxtpx="http://www.garmin.com/xmlschemas/TrackPointExtension/v1">
            <gpxtpx:hr>145</gpxtpx:hr>
          </gpxtpx:TrackPointExtension>
        </extensions>
      </trkpt>
      <trkpt lat="44.16303" lon="5.27869">
        <ele>1443.8</ele>
        <time>2021-06-12T09:08:05Z</time>
        <extensions>
          <gpxtpx:TrackPointExtension xmlns:gpxtpx="http://www.garmin.com/xmlschemas/TrackPointExtension/v1">
            <gpxtpx:hr>145</gpxtpx:hr>
          </gpxtpx:TrackPointExtension>
        </extensions>
      </trkpt>
      <trkpt lat="44.16303" lon="5.2787">
        <ele>1444</ele>
        <time>2021-06-12T09:08:06Z</time>
        <extensions>
          <gpxtpx:TrackPointExtension xmlns:gpxtpx="http://www.garmin.com/xmlschemas/TrackPointExtension/v1">
            <gpxtpx:hr>146</gpxtpx:hr>
          </gpxtpx:TrackPointExtension>
        </extensions>
      </trkpt>
      <trkpt lat="44.16305" lon="5.2787">
        <ele>1444.8</ele>
        <time>2021-06-12T09:08:09Z</time>
        <extensions>
          <gpxtpx:TrackPointExtension xmlns:gpxtpx="http://www.garmin.com/xmlschemas/TrackPointExtension/v1">
            <gpxtpx:hr>147</gpxtpx:hr>
          </gpxtpx:TrackPointExtension>
        </extensions>
      </trkpt>
      <trkpt lat="44.16306" lon="5.27871">
        <ele>1445.4</ele>
        <time>2021-06-12T09:08:11Z</time>
        <extensions>
          <gpxtpx:TrackPointExtension xmlns:gpxtpx="http://www.garmin.com/xmlschemas/TrackPointExtension/v1">
            <gpxtpx:hr>147</gpxtpx:hr>
          </gpxtpx:TrackPointExtension>
        </extensions>
      </trkpt>
      <trkpt lat="44.16308" lon="5.27871">
        <ele>1445.8</ele>
        <time>2021-06-12T09:08:13Z</time>
        <extensions>
          <gpxtpx:TrackPointExtension xmlns:gpxtpx="http://www.garmin.com/xmlschemas/TrackPointExtension/v1">
            <gpxtpx:hr>148</gpxtpx:hr>
          </gpxtpx:TrackPointExtension>
        </extensions>
      </trkpt>
      <trkpt lat="44.1631" lon="5.27873">
        <ele>1446.4</ele>
        <time>2021-06-12T09:08:15Z</time>
        <extensions>
          <gpxtpx:TrackPointExtension xmlns:gpxtpx="http://www.garmin.com/xmlschemas/TrackPointExtension/v1">
            <gpxtpx:hr>149</gpxtpx:hr>
          </gpxtpx:TrackPointExtension>
        </extensions>
      </trkpt>
      <trkpt lat="44.16311" lon="5.27874">
        <ele>1446.8</ele>
        <time>2021-06-12T09:08:16Z</time>
        <extensions>
          <gpxtpx:TrackPointExtension xmlns:gpxtpx="http://www.garmin.com/xmlschemas/TrackPointExtension/v1">
            <gpxtpx:hr>149</gpxtpx:hr>
          </gpxtpx:TrackPointExtension>
        </extensions>
      </trkpt>
      <trkpt lat="44.16313" lon="5.27874">
        <ele>1447.2</ele>
        <time>2021-06-12T09:08:17Z</time>
        <extensions>
          <gpxtpx:TrackPointExtension xmlns:gpxtpx="http://www.garmin.com/xmlschemas/TrackPointExtension/v1">
            <gpxtpx:hr>149</gpxtpx:hr>
          </gpxtpx:TrackPointExtension>
        </extensions>
      </trkpt>
      <trkpt lat="44.16315" lon="5.27874">
        <ele>1447.8</ele>
        <time>2021-06-12T09:08:20Z</time>
        <extensions>
          <gpxtpx:TrackPointExtension xmlns:gpxtpx="http://www.garmin.com/xmlschemas/TrackPointExtension/v1">
            <gpxtpx:hr>150</gpxtpx:hr>
          </gpxtpx:TrackPointExtension>
        </extensions>
      </trkpt>
      <trkpt lat="44.16318" lon="5.27872">
        <ele>1448.2</ele>
        <time>2021-06-12T09:08:22Z</time>
        <extensions>
          <gpxtpx:TrackPointExtension xmlns:gpxtpx="http://www.garmin.com/xmlschemas/TrackPointExtension/v1">
            <gpxtpx:hr>151</gpxtpx:hr>
          </gpxtpx:TrackPointExtension>
        </extensions>
      </trkpt>
      <trkpt lat="44.16319" lon="5.27871">
        <ele>1448.4</ele>
        <time>2021-06-12T09:08:23Z</time>
        <extensions>
          <gpxtpx:TrackPointExtension xmlns:gpxtpx="http://www.garmin.com/xmlschemas/TrackPointExtension/v1">
            <gpxtpx:hr>152</gpxtpx:hr>
          </gpxtpx:TrackPointExtension>
        </extensions>
      </trkpt>
      <trkpt lat="44.1632" lon="5.27871">
        <ele>1448.8</ele>
        <time>2021-06-12T09:08:25Z</time>
        <extensions>
          <gpxtpx:TrackPointExtension xmlns:gpxtpx="http://www.garmin.com/xmlschemas/TrackPointExtension/v1">
            <gpxtpx:hr>152</gpxtpx:hr>
          </gpxtpx:TrackPointExtension>
        </extensions>
      </trkpt>
      <trkpt lat="44.16322" lon="5.2787">
        <ele>1449.4</ele>
        <time>2021-06-12T09:08:28Z</time>
        <extensions>
          <gpxtpx:TrackPointExtension xmlns:gpxtpx="http://www.garmin.com/xmlschemas/TrackPointExtension/v1">
            <gpxtpx:hr>152</gpxtpx:hr>
          </gpxtpx:TrackPointExtension>
        </extensions>
      </trkpt>
      <trkpt lat="44.16322" lon="5.27869">
        <ele>1449.6</ele>
        <time>2021-06-12T09:08:29Z</time>
        <extensions>
          <gpxtpx:TrackPointExtension xmlns:gpxtpx="http://www.garmin.com/xmlschemas/TrackPointExtension/v1">
            <gpxtpx:hr>153</gpxtpx:hr>
          </gpxtpx:TrackPointExtension>
        </extensions>
      </trkpt>
      <trkpt lat="44.16322" lon="5.27868">
        <ele>1450</ele>
        <time>2021-06-12T09:08:31Z</time>
        <extensions>
          <gpxtpx:TrackPointExtension xmlns:gpxtpx="http://www.garmin.com/xmlschemas/TrackPointExtension/v1">
            <gpxtpx:hr>152</gpxtpx:hr>
          </gpxtpx:TrackPointExtension>
        </extensions>
      </trkpt>
      <trkpt lat="44.16323" lon="5.27866">
        <ele>1450.4</ele>
        <time>2021-06-12T09:08:33Z</time>
        <extensions>
          <gpxtpx:TrackPointExtension xmlns:gpxtpx="http://www.garmin.com/xmlschemas/TrackPointExtension/v1">
            <gpxtpx:hr>153</gpxtpx:hr>
          </gpxtpx:TrackPointExtension>
        </extensions>
      </trkpt>
      <trkpt lat="44.16323" lon="5.27865">
        <ele>1450.6</ele>
        <time>2021-06-12T09:08:34Z</time>
        <extensions>
          <gpxtpx:TrackPointExtension xmlns:gpxtpx="http://www.garmin.com/xmlschemas/TrackPointExtension/v1">
            <gpxtpx:hr>152</gpxtpx:hr>
          </gpxtpx:TrackPointExtension>
        </extensions>
      </trkpt>
      <trkpt lat="44.16323" lon="5.27864">
        <ele>1450.8</ele>
        <time>2021-06-12T09:08:36Z</time>
        <extensions>
          <gpxtpx:TrackPointExtension xmlns:gpxtpx="http://www.garmin.com/xmlschemas/TrackPointExtension/v1">
            <gpxtpx:hr>152</gpxtpx:hr>
          </gpxtpx:TrackPointExtension>
        </extensions>
      </trkpt>
      <trkpt lat="44.16323" lon="5.27862">
        <ele>1451.6</ele>
        <time>2021-06-12T09:08:40Z</time>
        <extensions>
          <gpxtpx:TrackPointExtension xmlns:gpxtpx="http://www.garmin.com/xmlschemas/TrackPointExtension/v1">
            <gpxtpx:hr>151</gpxtpx:hr>
          </gpxtpx:TrackPointExtension>
        </extensions>
      </trkpt>
      <trkpt lat="44.16322" lon="5.27858">
        <ele>1452.6</ele>
        <time>2021-06-12T09:08:48Z</time>
        <extensions>
          <gpxtpx:TrackPointExtension xmlns:gpxtpx="http://www.garmin.com/xmlschemas/TrackPointExtension/v1">
            <gpxtpx:hr>151</gpxtpx:hr>
          </gpxtpx:TrackPointExtension>
        </extensions>
      </trkpt>
      <trkpt lat="44.16325" lon="5.27854">
        <ele>1453.2</ele>
        <time>2021-06-12T09:08:57Z</time>
        <extensions>
          <gpxtpx:TrackPointExtension xmlns:gpxtpx="http://www.garmin.com/xmlschemas/TrackPointExtension/v1">
            <gpxtpx:hr>148</gpxtpx:hr>
          </gpxtpx:TrackPointExtension>
        </extensions>
      </trkpt>
      <trkpt lat="44.16326" lon="5.27851">
        <ele>1453.8</ele>
        <time>2021-06-12T09:09:00Z</time>
        <extensions>
          <gpxtpx:TrackPointExtension xmlns:gpxtpx="http://www.garmin.com/xmlschemas/TrackPointExtension/v1">
            <gpxtpx:hr>149</gpxtpx:hr>
          </gpxtpx:TrackPointExtension>
        </extensions>
      </trkpt>
      <trkpt lat="44.16329" lon="5.27845">
        <ele>1454.8</ele>
        <time>2021-06-12T09:09:05Z</time>
        <extensions>
          <gpxtpx:TrackPointExtension xmlns:gpxtpx="http://www.garmin.com/xmlschemas/TrackPointExtension/v1">
            <gpxtpx:hr>149</gpxtpx:hr>
          </gpxtpx:TrackPointExtension>
        </extensions>
      </trkpt>
      <trkpt lat="44.16329" lon="5.27842">
        <ele>1455.4</ele>
        <time>2021-06-12T09:09:07Z</time>
        <extensions>
          <gpxtpx:TrackPointExtension xmlns:gpxtpx="http://www.garmin.com/xmlschemas/TrackPointExtension/v1">
            <gpxtpx:hr>149</gpxtpx:hr>
          </gpxtpx:TrackPointExtension>
        </extensions>
      </trkpt>
      <trkpt lat="44.16329" lon="5.27841">
        <ele>1455.6</ele>
        <time>2021-06-12T09:09:08Z</time>
        <extensions>
          <gpxtpx:TrackPointExtension xmlns:gpxtpx="http://www.garmin.com/xmlschemas/TrackPointExtension/v1">
            <gpxtpx:hr>149</gpxtpx:hr>
          </gpxtpx:TrackPointExtension>
        </extensions>
      </trkpt>
      <trkpt lat="44.16329" lon="5.2784">
        <ele>1455.8</ele>
        <time>2021-06-12T09:09:09Z</time>
        <extensions>
          <gpxtpx:TrackPointExtension xmlns:gpxtpx="http://www.garmin.com/xmlschemas/TrackPointExtension/v1">
            <gpxtpx:hr>150</gpxtpx:hr>
          </gpxtpx:TrackPointExtension>
        </extensions>
      </trkpt>
      <trkpt lat="44.1633" lon="5.27839">
        <ele>1456</ele>
        <time>2021-06-12T09:09:10Z</time>
        <extensions>
          <gpxtpx:TrackPointExtension xmlns:gpxtpx="http://www.garmin.com/xmlschemas/TrackPointExtension/v1">
            <gpxtpx:hr>149</gpxtpx:hr>
          </gpxtpx:TrackPointExtension>
        </extensions>
      </trkpt>
      <trkpt lat="44.16331" lon="5.27838">
        <ele>1456.4</ele>
        <time>2021-06-12T09:09:11Z</time>
        <extensions>
          <gpxtpx:TrackPointExtension xmlns:gpxtpx="http://www.garmin.com/xmlschemas/TrackPointExtension/v1">
            <gpxtpx:hr>149</gpxtpx:hr>
          </gpxtpx:TrackPointExtension>
        </extensions>
      </trkpt>
      <trkpt lat="44.16332" lon="5.27839">
        <ele>1456.6</ele>
        <time>2021-06-12T09:09:12Z</time>
        <extensions>
          <gpxtpx:TrackPointExtension xmlns:gpxtpx="http://www.garmin.com/xmlschemas/TrackPointExtension/v1">
            <gpxtpx:hr>149</gpxtpx:hr>
          </gpxtpx:TrackPointExtension>
        </extensions>
      </trkpt>
      <trkpt lat="44.16333" lon="5.27839">
        <ele>1456.8</ele>
        <time>2021-06-12T09:09:13Z</time>
        <extensions>
          <gpxtpx:TrackPointExtension xmlns:gpxtpx="http://www.garmin.com/xmlschemas/TrackPointExtension/v1">
            <gpxtpx:hr>149</gpxtpx:hr>
          </gpxtpx:TrackPointExtension>
        </extensions>
      </trkpt>
      <trkpt lat="44.16334" lon="5.2784">
        <ele>1457.2</ele>
        <time>2021-06-12T09:09:15Z</time>
        <extensions>
          <gpxtpx:TrackPointExtension xmlns:gpxtpx="http://www.garmin.com/xmlschemas/TrackPointExtension/v1">
            <gpxtpx:hr>148</gpxtpx:hr>
          </gpxtpx:TrackPointExtension>
        </extensions>
      </trkpt>
      <trkpt lat="44.16337" lon="5.27842">
        <ele>1457.8</ele>
        <time>2021-06-12T09:09:18Z</time>
        <extensions>
          <gpxtpx:TrackPointExtension xmlns:gpxtpx="http://www.garmin.com/xmlschemas/TrackPointExtension/v1">
            <gpxtpx:hr>149</gpxtpx:hr>
          </gpxtpx:TrackPointExtension>
        </extensions>
      </trkpt>
      <trkpt lat="44.16339" lon="5.27843">
        <ele>1458</ele>
        <time>2021-06-12T09:09:19Z</time>
        <extensions>
          <gpxtpx:TrackPointExtension xmlns:gpxtpx="http://www.garmin.com/xmlschemas/TrackPointExtension/v1">
            <gpxtpx:hr>149</gpxtpx:hr>
          </gpxtpx:TrackPointExtension>
        </extensions>
      </trkpt>
      <trkpt lat="44.1634" lon="5.27845">
        <ele>1458.2</ele>
        <time>2021-06-12T09:09:20Z</time>
        <extensions>
          <gpxtpx:TrackPointExtension xmlns:gpxtpx="http://www.garmin.com/xmlschemas/TrackPointExtension/v1">
            <gpxtpx:hr>149</gpxtpx:hr>
          </gpxtpx:TrackPointExtension>
        </extensions>
      </trkpt>
      <trkpt lat="44.16342" lon="5.27847">
        <ele>1458.8</ele>
        <time>2021-06-12T09:09:22Z</time>
        <extensions>
          <gpxtpx:TrackPointExtension xmlns:gpxtpx="http://www.garmin.com/xmlschemas/TrackPointExtension/v1">
            <gpxtpx:hr>147</gpxtpx:hr>
          </gpxtpx:TrackPointExtension>
        </extensions>
      </trkpt>
      <trkpt lat="44.16346" lon="5.2785">
        <ele>1459.6</ele>
        <time>2021-06-12T09:09:25Z</time>
        <extensions>
          <gpxtpx:TrackPointExtension xmlns:gpxtpx="http://www.garmin.com/xmlschemas/TrackPointExtension/v1">
            <gpxtpx:hr>148</gpxtpx:hr>
          </gpxtpx:TrackPointExtension>
        </extensions>
      </trkpt>
      <trkpt lat="44.16348" lon="5.27853">
        <ele>1460</ele>
        <time>2021-06-12T09:09:27Z</time>
        <extensions>
          <gpxtpx:TrackPointExtension xmlns:gpxtpx="http://www.garmin.com/xmlschemas/TrackPointExtension/v1">
            <gpxtpx:hr>148</gpxtpx:hr>
          </gpxtpx:TrackPointExtension>
        </extensions>
      </trkpt>
      <trkpt lat="44.16349" lon="5.27853">
        <ele>1460.2</ele>
        <time>2021-06-12T09:09:28Z</time>
        <extensions>
          <gpxtpx:TrackPointExtension xmlns:gpxtpx="http://www.garmin.com/xmlschemas/TrackPointExtension/v1">
            <gpxtpx:hr>148</gpxtpx:hr>
          </gpxtpx:TrackPointExtension>
        </extensions>
      </trkpt>
      <trkpt lat="44.1635" lon="5.27854">
        <ele>1460.4</ele>
        <time>2021-06-12T09:09:29Z</time>
        <extensions>
          <gpxtpx:TrackPointExtension xmlns:gpxtpx="http://www.garmin.com/xmlschemas/TrackPointExtension/v1">
            <gpxtpx:hr>149</gpxtpx:hr>
          </gpxtpx:TrackPointExtension>
        </extensions>
      </trkpt>
      <trkpt lat="44.16351" lon="5.27855">
        <ele>1460.8</ele>
        <time>2021-06-12T09:09:30Z</time>
        <extensions>
          <gpxtpx:TrackPointExtension xmlns:gpxtpx="http://www.garmin.com/xmlschemas/TrackPointExtension/v1">
            <gpxtpx:hr>149</gpxtpx:hr>
          </gpxtpx:TrackPointExtension>
        </extensions>
      </trkpt>
      <trkpt lat="44.16353" lon="5.27855">
        <ele>1461</ele>
        <time>2021-06-12T09:09:31Z</time>
        <extensions>
          <gpxtpx:TrackPointExtension xmlns:gpxtpx="http://www.garmin.com/xmlschemas/TrackPointExtension/v1">
            <gpxtpx:hr>149</gpxtpx:hr>
          </gpxtpx:TrackPointExtension>
        </extensions>
      </trkpt>
      <trkpt lat="44.16354" lon="5.27856">
        <ele>1461.2</ele>
        <time>2021-06-12T09:09:32Z</time>
        <extensions>
          <gpxtpx:TrackPointExtension xmlns:gpxtpx="http://www.garmin.com/xmlschemas/TrackPointExtension/v1">
            <gpxtpx:hr>150</gpxtpx:hr>
          </gpxtpx:TrackPointExtension>
        </extensions>
      </trkpt>
      <trkpt lat="44.16355" lon="5.27858">
        <ele>1461.8</ele>
        <time>2021-06-12T09:09:34Z</time>
        <extensions>
          <gpxtpx:TrackPointExtension xmlns:gpxtpx="http://www.garmin.com/xmlschemas/TrackPointExtension/v1">
            <gpxtpx:hr>150</gpxtpx:hr>
          </gpxtpx:TrackPointExtension>
        </extensions>
      </trkpt>
      <trkpt lat="44.16357" lon="5.27859">
        <ele>1462</ele>
        <time>2021-06-12T09:09:35Z</time>
        <extensions>
          <gpxtpx:TrackPointExtension xmlns:gpxtpx="http://www.garmin.com/xmlschemas/TrackPointExtension/v1">
            <gpxtpx:hr>150</gpxtpx:hr>
          </gpxtpx:TrackPointExtension>
        </extensions>
      </trkpt>
      <trkpt lat="44.16358" lon="5.27862">
        <ele>1462.6</ele>
        <time>2021-06-12T09:09:37Z</time>
        <extensions>
          <gpxtpx:TrackPointExtension xmlns:gpxtpx="http://www.garmin.com/xmlschemas/TrackPointExtension/v1">
            <gpxtpx:hr>151</gpxtpx:hr>
          </gpxtpx:TrackPointExtension>
        </extensions>
      </trkpt>
      <trkpt lat="44.16359" lon="5.27863">
        <ele>1463.2</ele>
        <time>2021-06-12T09:09:39Z</time>
        <extensions>
          <gpxtpx:TrackPointExtension xmlns:gpxtpx="http://www.garmin.com/xmlschemas/TrackPointExtension/v1">
            <gpxtpx:hr>151</gpxtpx:hr>
          </gpxtpx:TrackPointExtension>
        </extensions>
      </trkpt>
      <trkpt lat="44.16359" lon="5.27863">
        <ele>1463.6</ele>
        <time>2021-06-12T09:09:40Z</time>
        <extensions>
          <gpxtpx:TrackPointExtension xmlns:gpxtpx="http://www.garmin.com/xmlschemas/TrackPointExtension/v1">
            <gpxtpx:hr>151</gpxtpx:hr>
          </gpxtpx:TrackPointExtension>
        </extensions>
      </trkpt>
      <trkpt lat="44.1636" lon="5.27863">
        <ele>1463.8</ele>
        <time>2021-06-12T09:09:41Z</time>
        <extensions>
          <gpxtpx:TrackPointExtension xmlns:gpxtpx="http://www.garmin.com/xmlschemas/TrackPointExtension/v1">
            <gpxtpx:hr>151</gpxtpx:hr>
          </gpxtpx:TrackPointExtension>
        </extensions>
      </trkpt>
      <trkpt lat="44.1636" lon="5.27864">
        <ele>1464</ele>
        <time>2021-06-12T09:09:42Z</time>
        <extensions>
          <gpxtpx:TrackPointExtension xmlns:gpxtpx="http://www.garmin.com/xmlschemas/TrackPointExtension/v1">
            <gpxtpx:hr>151</gpxtpx:hr>
          </gpxtpx:TrackPointExtension>
        </extensions>
      </trkpt>
      <trkpt lat="44.16362" lon="5.27865">
        <ele>1464.4</ele>
        <time>2021-06-12T09:09:44Z</time>
        <extensions>
          <gpxtpx:TrackPointExtension xmlns:gpxtpx="http://www.garmin.com/xmlschemas/TrackPointExtension/v1">
            <gpxtpx:hr>151</gpxtpx:hr>
          </gpxtpx:TrackPointExtension>
        </extensions>
      </trkpt>
      <trkpt lat="44.16363" lon="5.27866">
        <ele>1464.6</ele>
        <time>2021-06-12T09:09:45Z</time>
        <extensions>
          <gpxtpx:TrackPointExtension xmlns:gpxtpx="http://www.garmin.com/xmlschemas/TrackPointExtension/v1">
            <gpxtpx:hr>152</gpxtpx:hr>
          </gpxtpx:TrackPointExtension>
        </extensions>
      </trkpt>
      <trkpt lat="44.16363" lon="5.27867">
        <ele>1464.8</ele>
        <time>2021-06-12T09:09:46Z</time>
        <extensions>
          <gpxtpx:TrackPointExtension xmlns:gpxtpx="http://www.garmin.com/xmlschemas/TrackPointExtension/v1">
            <gpxtpx:hr>152</gpxtpx:hr>
          </gpxtpx:TrackPointExtension>
        </extensions>
      </trkpt>
      <trkpt lat="44.16362" lon="5.27868">
        <ele>1465.2</ele>
        <time>2021-06-12T09:09:48Z</time>
        <extensions>
          <gpxtpx:TrackPointExtension xmlns:gpxtpx="http://www.garmin.com/xmlschemas/TrackPointExtension/v1">
            <gpxtpx:hr>152</gpxtpx:hr>
          </gpxtpx:TrackPointExtension>
        </extensions>
      </trkpt>
      <trkpt lat="44.16358" lon="5.27865">
        <ele>1465.2</ele>
        <time>2021-06-12T09:09:56Z</time>
        <extensions>
          <gpxtpx:TrackPointExtension xmlns:gpxtpx="http://www.garmin.com/xmlschemas/TrackPointExtension/v1">
            <gpxtpx:hr>151</gpxtpx:hr>
          </gpxtpx:TrackPointExtension>
        </extensions>
      </trkpt>
      <trkpt lat="44.16359" lon="5.27867">
        <ele>1465.2</ele>
        <time>2021-06-12T09:10:04Z</time>
        <extensions>
          <gpxtpx:TrackPointExtension xmlns:gpxtpx="http://www.garmin.com/xmlschemas/TrackPointExtension/v1">
            <gpxtpx:hr>148</gpxtpx:hr>
          </gpxtpx:TrackPointExtension>
        </extensions>
      </trkpt>
      <trkpt lat="44.16357" lon="5.27865">
        <ele>1465.2</ele>
        <time>2021-06-12T09:10:13Z</time>
        <extensions>
          <gpxtpx:TrackPointExtension xmlns:gpxtpx="http://www.garmin.com/xmlschemas/TrackPointExtension/v1">
            <gpxtpx:hr>145</gpxtpx:hr>
          </gpxtpx:TrackPointExtension>
        </extensions>
      </trkpt>
      <trkpt lat="44.16358" lon="5.27865">
        <ele>1465.2</ele>
        <time>2021-06-12T09:10:25Z</time>
        <extensions>
          <gpxtpx:TrackPointExtension xmlns:gpxtpx="http://www.garmin.com/xmlschemas/TrackPointExtension/v1">
            <gpxtpx:hr>142</gpxtpx:hr>
          </gpxtpx:TrackPointExtension>
        </extensions>
      </trkpt>
      <trkpt lat="44.16358" lon="5.27864">
        <ele>1465.2</ele>
        <time>2021-06-12T09:10:26Z</time>
        <extensions>
          <gpxtpx:TrackPointExtension xmlns:gpxtpx="http://www.garmin.com/xmlschemas/TrackPointExtension/v1">
            <gpxtpx:hr>141</gpxtpx:hr>
          </gpxtpx:TrackPointExtension>
        </extensions>
      </trkpt>
      <trkpt lat="44.16359" lon="5.27863">
        <ele>1465</ele>
        <time>2021-06-12T09:10:28Z</time>
        <extensions>
          <gpxtpx:TrackPointExtension xmlns:gpxtpx="http://www.garmin.com/xmlschemas/TrackPointExtension/v1">
            <gpxtpx:hr>140</gpxtpx:hr>
          </gpxtpx:TrackPointExtension>
        </extensions>
      </trkpt>
      <trkpt lat="44.16359" lon="5.27862">
        <ele>1465.2</ele>
        <time>2021-06-12T09:10:31Z</time>
        <extensions>
          <gpxtpx:TrackPointExtension xmlns:gpxtpx="http://www.garmin.com/xmlschemas/TrackPointExtension/v1">
            <gpxtpx:hr>139</gpxtpx:hr>
          </gpxtpx:TrackPointExtension>
        </extensions>
      </trkpt>
      <trkpt lat="44.16359" lon="5.27863">
        <ele>1465.2</ele>
        <time>2021-06-12T09:10:35Z</time>
        <extensions>
          <gpxtpx:TrackPointExtension xmlns:gpxtpx="http://www.garmin.com/xmlschemas/TrackPointExtension/v1">
            <gpxtpx:hr>142</gpxtpx:hr>
          </gpxtpx:TrackPointExtension>
        </extensions>
      </trkpt>
      <trkpt lat="44.16359" lon="5.27861">
        <ele>1465.2</ele>
        <time>2021-06-12T09:10:38Z</time>
        <extensions>
          <gpxtpx:TrackPointExtension xmlns:gpxtpx="http://www.garmin.com/xmlschemas/TrackPointExtension/v1">
            <gpxtpx:hr>138</gpxtpx:hr>
          </gpxtpx:TrackPointExtension>
        </extensions>
      </trkpt>
      <trkpt lat="44.16359" lon="5.27862">
        <ele>1465.2</ele>
        <time>2021-06-12T09:10:39Z</time>
        <extensions>
          <gpxtpx:TrackPointExtension xmlns:gpxtpx="http://www.garmin.com/xmlschemas/TrackPointExtension/v1">
            <gpxtpx:hr>133</gpxtpx:hr>
          </gpxtpx:TrackPointExtension>
        </extensions>
      </trkpt>
      <trkpt lat="44.1636" lon="5.27861">
        <ele>1465.4</ele>
        <time>2021-06-12T09:10:45Z</time>
        <extensions>
          <gpxtpx:TrackPointExtension xmlns:gpxtpx="http://www.garmin.com/xmlschemas/TrackPointExtension/v1">
            <gpxtpx:hr>136</gpxtpx:hr>
          </gpxtpx:TrackPointExtension>
        </extensions>
      </trkpt>
      <trkpt lat="44.16361" lon="5.27861">
        <ele>1465.6</ele>
        <time>2021-06-12T09:10:46Z</time>
        <extensions>
          <gpxtpx:TrackPointExtension xmlns:gpxtpx="http://www.garmin.com/xmlschemas/TrackPointExtension/v1">
            <gpxtpx:hr>136</gpxtpx:hr>
          </gpxtpx:TrackPointExtension>
        </extensions>
      </trkpt>
      <trkpt lat="44.16361" lon="5.27862">
        <ele>1466</ele>
        <time>2021-06-12T09:10:49Z</time>
        <extensions>
          <gpxtpx:TrackPointExtension xmlns:gpxtpx="http://www.garmin.com/xmlschemas/TrackPointExtension/v1">
            <gpxtpx:hr>133</gpxtpx:hr>
          </gpxtpx:TrackPointExtension>
        </extensions>
      </trkpt>
      <trkpt lat="44.16364" lon="5.27862">
        <ele>1466.6</ele>
        <time>2021-06-12T09:10:53Z</time>
        <extensions>
          <gpxtpx:TrackPointExtension xmlns:gpxtpx="http://www.garmin.com/xmlschemas/TrackPointExtension/v1">
            <gpxtpx:hr>134</gpxtpx:hr>
          </gpxtpx:TrackPointExtension>
        </extensions>
      </trkpt>
      <trkpt lat="44.16369" lon="5.27862">
        <ele>1467.8</ele>
        <time>2021-06-12T09:10:57Z</time>
        <extensions>
          <gpxtpx:TrackPointExtension xmlns:gpxtpx="http://www.garmin.com/xmlschemas/TrackPointExtension/v1">
            <gpxtpx:hr>136</gpxtpx:hr>
          </gpxtpx:TrackPointExtension>
        </extensions>
      </trkpt>
      <trkpt lat="44.16371" lon="5.27859">
        <ele>1468.8</ele>
        <time>2021-06-12T09:11:02Z</time>
        <extensions>
          <gpxtpx:TrackPointExtension xmlns:gpxtpx="http://www.garmin.com/xmlschemas/TrackPointExtension/v1">
            <gpxtpx:hr>137</gpxtpx:hr>
          </gpxtpx:TrackPointExtension>
        </extensions>
      </trkpt>
      <trkpt lat="44.16372" lon="5.27855">
        <ele>1470</ele>
        <time>2021-06-12T09:11:07Z</time>
        <extensions>
          <gpxtpx:TrackPointExtension xmlns:gpxtpx="http://www.garmin.com/xmlschemas/TrackPointExtension/v1">
            <gpxtpx:hr>139</gpxtpx:hr>
          </gpxtpx:TrackPointExtension>
        </extensions>
      </trkpt>
      <trkpt lat="44.16374" lon="5.27856">
        <ele>1471.2</ele>
        <time>2021-06-12T09:11:11Z</time>
        <extensions>
          <gpxtpx:TrackPointExtension xmlns:gpxtpx="http://www.garmin.com/xmlschemas/TrackPointExtension/v1">
            <gpxtpx:hr>141</gpxtpx:hr>
          </gpxtpx:TrackPointExtension>
        </extensions>
      </trkpt>
      <trkpt lat="44.16375" lon="5.27856">
        <ele>1471.4</ele>
        <time>2021-06-12T09:11:13Z</time>
        <extensions>
          <gpxtpx:TrackPointExtension xmlns:gpxtpx="http://www.garmin.com/xmlschemas/TrackPointExtension/v1">
            <gpxtpx:hr>141</gpxtpx:hr>
          </gpxtpx:TrackPointExtension>
        </extensions>
      </trkpt>
      <trkpt lat="44.16377" lon="5.27858">
        <ele>1472.2</ele>
        <time>2021-06-12T09:11:17Z</time>
        <extensions>
          <gpxtpx:TrackPointExtension xmlns:gpxtpx="http://www.garmin.com/xmlschemas/TrackPointExtension/v1">
            <gpxtpx:hr>142</gpxtpx:hr>
          </gpxtpx:TrackPointExtension>
        </extensions>
      </trkpt>
      <trkpt lat="44.1638" lon="5.2786">
        <ele>1473.4</ele>
        <time>2021-06-12T09:11:21Z</time>
        <extensions>
          <gpxtpx:TrackPointExtension xmlns:gpxtpx="http://www.garmin.com/xmlschemas/TrackPointExtension/v1">
            <gpxtpx:hr>143</gpxtpx:hr>
          </gpxtpx:TrackPointExtension>
        </extensions>
      </trkpt>
      <trkpt lat="44.16382" lon="5.27861">
        <ele>1474</ele>
        <time>2021-06-12T09:11:23Z</time>
        <extensions>
          <gpxtpx:TrackPointExtension xmlns:gpxtpx="http://www.garmin.com/xmlschemas/TrackPointExtension/v1">
            <gpxtpx:hr>143</gpxtpx:hr>
          </gpxtpx:TrackPointExtension>
        </extensions>
      </trkpt>
      <trkpt lat="44.16382" lon="5.2786">
        <ele>1474.6</ele>
        <time>2021-06-12T09:11:25Z</time>
        <extensions>
          <gpxtpx:TrackPointExtension xmlns:gpxtpx="http://www.garmin.com/xmlschemas/TrackPointExtension/v1">
            <gpxtpx:hr>143</gpxtpx:hr>
          </gpxtpx:TrackPointExtension>
        </extensions>
      </trkpt>
      <trkpt lat="44.16383" lon="5.2786">
        <ele>1475</ele>
        <time>2021-06-12T09:11:26Z</time>
        <extensions>
          <gpxtpx:TrackPointExtension xmlns:gpxtpx="http://www.garmin.com/xmlschemas/TrackPointExtension/v1">
            <gpxtpx:hr>144</gpxtpx:hr>
          </gpxtpx:TrackPointExtension>
        </extensions>
      </trkpt>
      <trkpt lat="44.16385" lon="5.27859">
        <ele>1475.8</ele>
        <time>2021-06-12T09:11:29Z</time>
        <extensions>
          <gpxtpx:TrackPointExtension xmlns:gpxtpx="http://www.garmin.com/xmlschemas/TrackPointExtension/v1">
            <gpxtpx:hr>146</gpxtpx:hr>
          </gpxtpx:TrackPointExtension>
        </extensions>
      </trkpt>
      <trkpt lat="44.16388" lon="5.27855">
        <ele>1477</ele>
        <time>2021-06-12T09:11:36Z</time>
        <extensions>
          <gpxtpx:TrackPointExtension xmlns:gpxtpx="http://www.garmin.com/xmlschemas/TrackPointExtension/v1">
            <gpxtpx:hr>149</gpxtpx:hr>
          </gpxtpx:TrackPointExtension>
        </extensions>
      </trkpt>
      <trkpt lat="44.16389" lon="5.27849">
        <ele>1478.2</ele>
        <time>2021-06-12T09:11:41Z</time>
        <extensions>
          <gpxtpx:TrackPointExtension xmlns:gpxtpx="http://www.garmin.com/xmlschemas/TrackPointExtension/v1">
            <gpxtpx:hr>150</gpxtpx:hr>
          </gpxtpx:TrackPointExtension>
        </extensions>
      </trkpt>
      <trkpt lat="44.1639" lon="5.27848">
        <ele>1479.2</ele>
        <time>2021-06-12T09:11:44Z</time>
        <extensions>
          <gpxtpx:TrackPointExtension xmlns:gpxtpx="http://www.garmin.com/xmlschemas/TrackPointExtension/v1">
            <gpxtpx:hr>151</gpxtpx:hr>
          </gpxtpx:TrackPointExtension>
        </extensions>
      </trkpt>
      <trkpt lat="44.16391" lon="5.27846">
        <ele>1479.8</ele>
        <time>2021-06-12T09:11:47Z</time>
        <extensions>
          <gpxtpx:TrackPointExtension xmlns:gpxtpx="http://www.garmin.com/xmlschemas/TrackPointExtension/v1">
            <gpxtpx:hr>152</gpxtpx:hr>
          </gpxtpx:TrackPointExtension>
        </extensions>
      </trkpt>
      <trkpt lat="44.16393" lon="5.27844">
        <ele>1480.2</ele>
        <time>2021-06-12T09:11:49Z</time>
        <extensions>
          <gpxtpx:TrackPointExtension xmlns:gpxtpx="http://www.garmin.com/xmlschemas/TrackPointExtension/v1">
            <gpxtpx:hr>152</gpxtpx:hr>
          </gpxtpx:TrackPointExtension>
        </extensions>
      </trkpt>
      <trkpt lat="44.16395" lon="5.2784">
        <ele>1481.2</ele>
        <time>2021-06-12T09:11:53Z</time>
        <extensions>
          <gpxtpx:TrackPointExtension xmlns:gpxtpx="http://www.garmin.com/xmlschemas/TrackPointExtension/v1">
            <gpxtpx:hr>152</gpxtpx:hr>
          </gpxtpx:TrackPointExtension>
        </extensions>
      </trkpt>
      <trkpt lat="44.16395" lon="5.2784">
        <ele>1481.4</ele>
        <time>2021-06-12T09:11:54Z</time>
        <extensions>
          <gpxtpx:TrackPointExtension xmlns:gpxtpx="http://www.garmin.com/xmlschemas/TrackPointExtension/v1">
            <gpxtpx:hr>152</gpxtpx:hr>
          </gpxtpx:TrackPointExtension>
        </extensions>
      </trkpt>
      <trkpt lat="44.16397" lon="5.27835">
        <ele>1482.6</ele>
        <time>2021-06-12T09:11:59Z</time>
        <extensions>
          <gpxtpx:TrackPointExtension xmlns:gpxtpx="http://www.garmin.com/xmlschemas/TrackPointExtension/v1">
            <gpxtpx:hr>153</gpxtpx:hr>
          </gpxtpx:TrackPointExtension>
        </extensions>
      </trkpt>
      <trkpt lat="44.16399" lon="5.27833">
        <ele>1483.6</ele>
        <time>2021-06-12T09:12:02Z</time>
        <extensions>
          <gpxtpx:TrackPointExtension xmlns:gpxtpx="http://www.garmin.com/xmlschemas/TrackPointExtension/v1">
            <gpxtpx:hr>154</gpxtpx:hr>
          </gpxtpx:TrackPointExtension>
        </extensions>
      </trkpt>
      <trkpt lat="44.164" lon="5.27828">
        <ele>1484.8</ele>
        <time>2021-06-12T09:12:08Z</time>
        <extensions>
          <gpxtpx:TrackPointExtension xmlns:gpxtpx="http://www.garmin.com/xmlschemas/TrackPointExtension/v1">
            <gpxtpx:hr>155</gpxtpx:hr>
          </gpxtpx:TrackPointExtension>
        </extensions>
      </trkpt>
      <trkpt lat="44.16401" lon="5.27828">
        <ele>1485.2</ele>
        <time>2021-06-12T09:12:09Z</time>
        <extensions>
          <gpxtpx:TrackPointExtension xmlns:gpxtpx="http://www.garmin.com/xmlschemas/TrackPointExtension/v1">
            <gpxtpx:hr>155</gpxtpx:hr>
          </gpxtpx:TrackPointExtension>
        </extensions>
      </trkpt>
      <trkpt lat="44.16402" lon="5.27824">
        <ele>1486</ele>
        <time>2021-06-12T09:12:13Z</time>
        <extensions>
          <gpxtpx:TrackPointExtension xmlns:gpxtpx="http://www.garmin.com/xmlschemas/TrackPointExtension/v1">
            <gpxtpx:hr>156</gpxtpx:hr>
          </gpxtpx:TrackPointExtension>
        </extensions>
      </trkpt>
      <trkpt lat="44.16406" lon="5.27822">
        <ele>1487.2</ele>
        <time>2021-06-12T09:12:18Z</time>
        <extensions>
          <gpxtpx:TrackPointExtension xmlns:gpxtpx="http://www.garmin.com/xmlschemas/TrackPointExtension/v1">
            <gpxtpx:hr>156</gpxtpx:hr>
          </gpxtpx:TrackPointExtension>
        </extensions>
      </trkpt>
      <trkpt lat="44.16408" lon="5.27821">
        <ele>1488.2</ele>
        <time>2021-06-12T09:12:24Z</time>
        <extensions>
          <gpxtpx:TrackPointExtension xmlns:gpxtpx="http://www.garmin.com/xmlschemas/TrackPointExtension/v1">
            <gpxtpx:hr>155</gpxtpx:hr>
          </gpxtpx:TrackPointExtension>
        </extensions>
      </trkpt>
      <trkpt lat="44.16408" lon="5.27821">
        <ele>1488.4</ele>
        <time>2021-06-12T09:12:25Z</time>
        <extensions>
          <gpxtpx:TrackPointExtension xmlns:gpxtpx="http://www.garmin.com/xmlschemas/TrackPointExtension/v1">
            <gpxtpx:hr>154</gpxtpx:hr>
          </gpxtpx:TrackPointExtension>
        </extensions>
      </trkpt>
      <trkpt lat="44.16408" lon="5.27819">
        <ele>1488.6</ele>
        <time>2021-06-12T09:12:29Z</time>
        <extensions>
          <gpxtpx:TrackPointExtension xmlns:gpxtpx="http://www.garmin.com/xmlschemas/TrackPointExtension/v1">
            <gpxtpx:hr>155</gpxtpx:hr>
          </gpxtpx:TrackPointExtension>
        </extensions>
      </trkpt>
      <trkpt lat="44.16408" lon="5.27817">
        <ele>1488.8</ele>
        <time>2021-06-12T09:12:30Z</time>
        <extensions>
          <gpxtpx:TrackPointExtension xmlns:gpxtpx="http://www.garmin.com/xmlschemas/TrackPointExtension/v1">
            <gpxtpx:hr>155</gpxtpx:hr>
          </gpxtpx:TrackPointExtension>
        </extensions>
      </trkpt>
      <trkpt lat="44.16407" lon="5.27811">
        <ele>1489.6</ele>
        <time>2021-06-12T09:12:35Z</time>
        <extensions>
          <gpxtpx:TrackPointExtension xmlns:gpxtpx="http://www.garmin.com/xmlschemas/TrackPointExtension/v1">
            <gpxtpx:hr>153</gpxtpx:hr>
          </gpxtpx:TrackPointExtension>
        </extensions>
      </trkpt>
      <trkpt lat="44.16407" lon="5.2781">
        <ele>1489.8</ele>
        <time>2021-06-12T09:12:36Z</time>
        <extensions>
          <gpxtpx:TrackPointExtension xmlns:gpxtpx="http://www.garmin.com/xmlschemas/TrackPointExtension/v1">
            <gpxtpx:hr>154</gpxtpx:hr>
          </gpxtpx:TrackPointExtension>
        </extensions>
      </trkpt>
      <trkpt lat="44.16408" lon="5.27807">
        <ele>1490.2</ele>
        <time>2021-06-12T09:12:38Z</time>
        <extensions>
          <gpxtpx:TrackPointExtension xmlns:gpxtpx="http://www.garmin.com/xmlschemas/TrackPointExtension/v1">
            <gpxtpx:hr>154</gpxtpx:hr>
          </gpxtpx:TrackPointExtension>
        </extensions>
      </trkpt>
      <trkpt lat="44.16409" lon="5.27807">
        <ele>1490.4</ele>
        <time>2021-06-12T09:12:39Z</time>
        <extensions>
          <gpxtpx:TrackPointExtension xmlns:gpxtpx="http://www.garmin.com/xmlschemas/TrackPointExtension/v1">
            <gpxtpx:hr>153</gpxtpx:hr>
          </gpxtpx:TrackPointExtension>
        </extensions>
      </trkpt>
      <trkpt lat="44.16409" lon="5.27806">
        <ele>1490.6</ele>
        <time>2021-06-12T09:12:40Z</time>
        <extensions>
          <gpxtpx:TrackPointExtension xmlns:gpxtpx="http://www.garmin.com/xmlschemas/TrackPointExtension/v1">
            <gpxtpx:hr>152</gpxtpx:hr>
          </gpxtpx:TrackPointExtension>
        </extensions>
      </trkpt>
      <trkpt lat="44.16412" lon="5.27802">
        <ele>1491.6</ele>
        <time>2021-06-12T09:12:46Z</time>
        <extensions>
          <gpxtpx:TrackPointExtension xmlns:gpxtpx="http://www.garmin.com/xmlschemas/TrackPointExtension/v1">
            <gpxtpx:hr>152</gpxtpx:hr>
          </gpxtpx:TrackPointExtension>
        </extensions>
      </trkpt>
      <trkpt lat="44.16414" lon="5.27796">
        <ele>1492.8</ele>
        <time>2021-06-12T09:12:53Z</time>
        <extensions>
          <gpxtpx:TrackPointExtension xmlns:gpxtpx="http://www.garmin.com/xmlschemas/TrackPointExtension/v1">
            <gpxtpx:hr>152</gpxtpx:hr>
          </gpxtpx:TrackPointExtension>
        </extensions>
      </trkpt>
      <trkpt lat="44.16415" lon="5.27794">
        <ele>1493.6</ele>
        <time>2021-06-12T09:12:57Z</time>
        <extensions>
          <gpxtpx:TrackPointExtension xmlns:gpxtpx="http://www.garmin.com/xmlschemas/TrackPointExtension/v1">
            <gpxtpx:hr>153</gpxtpx:hr>
          </gpxtpx:TrackPointExtension>
        </extensions>
      </trkpt>
      <trkpt lat="44.16416" lon="5.27793">
        <ele>1493.8</ele>
        <time>2021-06-12T09:12:58Z</time>
        <extensions>
          <gpxtpx:TrackPointExtension xmlns:gpxtpx="http://www.garmin.com/xmlschemas/TrackPointExtension/v1">
            <gpxtpx:hr>153</gpxtpx:hr>
          </gpxtpx:TrackPointExtension>
        </extensions>
      </trkpt>
      <trkpt lat="44.16417" lon="5.27792">
        <ele>1494</ele>
        <time>2021-06-12T09:12:59Z</time>
        <extensions>
          <gpxtpx:TrackPointExtension xmlns:gpxtpx="http://www.garmin.com/xmlschemas/TrackPointExtension/v1">
            <gpxtpx:hr>153</gpxtpx:hr>
          </gpxtpx:TrackPointExtension>
        </extensions>
      </trkpt>
      <trkpt lat="44.16421" lon="5.27792">
        <ele>1495</ele>
        <time>2021-06-12T09:13:03Z</time>
        <extensions>
          <gpxtpx:TrackPointExtension xmlns:gpxtpx="http://www.garmin.com/xmlschemas/TrackPointExtension/v1">
            <gpxtpx:hr>154</gpxtpx:hr>
          </gpxtpx:TrackPointExtension>
        </extensions>
      </trkpt>
      <trkpt lat="44.16422" lon="5.27792">
        <ele>1495.2</ele>
        <time>2021-06-12T09:13:04Z</time>
        <extensions>
          <gpxtpx:TrackPointExtension xmlns:gpxtpx="http://www.garmin.com/xmlschemas/TrackPointExtension/v1">
            <gpxtpx:hr>154</gpxtpx:hr>
          </gpxtpx:TrackPointExtension>
        </extensions>
      </trkpt>
      <trkpt lat="44.16426" lon="5.27794">
        <ele>1496</ele>
        <time>2021-06-12T09:13:08Z</time>
        <extensions>
          <gpxtpx:TrackPointExtension xmlns:gpxtpx="http://www.garmin.com/xmlschemas/TrackPointExtension/v1">
            <gpxtpx:hr>153</gpxtpx:hr>
          </gpxtpx:TrackPointExtension>
        </extensions>
      </trkpt>
      <trkpt lat="44.16427" lon="5.27794">
        <ele>1496.2</ele>
        <time>2021-06-12T09:13:09Z</time>
        <extensions>
          <gpxtpx:TrackPointExtension xmlns:gpxtpx="http://www.garmin.com/xmlschemas/TrackPointExtension/v1">
            <gpxtpx:hr>154</gpxtpx:hr>
          </gpxtpx:TrackPointExtension>
        </extensions>
      </trkpt>
      <trkpt lat="44.16427" lon="5.27795">
        <ele>1496.2</ele>
        <time>2021-06-12T09:13:10Z</time>
        <extensions>
          <gpxtpx:TrackPointExtension xmlns:gpxtpx="http://www.garmin.com/xmlschemas/TrackPointExtension/v1">
            <gpxtpx:hr>153</gpxtpx:hr>
          </gpxtpx:TrackPointExtension>
        </extensions>
      </trkpt>
      <trkpt lat="44.16428" lon="5.27796">
        <ele>1496.8</ele>
        <time>2021-06-12T09:13:12Z</time>
        <extensions>
          <gpxtpx:TrackPointExtension xmlns:gpxtpx="http://www.garmin.com/xmlschemas/TrackPointExtension/v1">
            <gpxtpx:hr>153</gpxtpx:hr>
          </gpxtpx:TrackPointExtension>
        </extensions>
      </trkpt>
      <trkpt lat="44.16429" lon="5.27796">
        <ele>1497</ele>
        <time>2021-06-12T09:13:13Z</time>
        <extensions>
          <gpxtpx:TrackPointExtension xmlns:gpxtpx="http://www.garmin.com/xmlschemas/TrackPointExtension/v1">
            <gpxtpx:hr>153</gpxtpx:hr>
          </gpxtpx:TrackPointExtension>
        </extensions>
      </trkpt>
      <trkpt lat="44.1643" lon="5.27796">
        <ele>1497.2</ele>
        <time>2021-06-12T09:13:14Z</time>
        <extensions>
          <gpxtpx:TrackPointExtension xmlns:gpxtpx="http://www.garmin.com/xmlschemas/TrackPointExtension/v1">
            <gpxtpx:hr>153</gpxtpx:hr>
          </gpxtpx:TrackPointExtension>
        </extensions>
      </trkpt>
      <trkpt lat="44.16432" lon="5.27798">
        <ele>1497.6</ele>
        <time>2021-06-12T09:13:17Z</time>
        <extensions>
          <gpxtpx:TrackPointExtension xmlns:gpxtpx="http://www.garmin.com/xmlschemas/TrackPointExtension/v1">
            <gpxtpx:hr>153</gpxtpx:hr>
          </gpxtpx:TrackPointExtension>
        </extensions>
      </trkpt>
      <trkpt lat="44.16435" lon="5.278">
        <ele>1498.4</ele>
        <time>2021-06-12T09:13:20Z</time>
        <extensions>
          <gpxtpx:TrackPointExtension xmlns:gpxtpx="http://www.garmin.com/xmlschemas/TrackPointExtension/v1">
            <gpxtpx:hr>153</gpxtpx:hr>
          </gpxtpx:TrackPointExtension>
        </extensions>
      </trkpt>
      <trkpt lat="44.1644" lon="5.278">
        <ele>1498.8</ele>
        <time>2021-06-12T09:13:23Z</time>
        <extensions>
          <gpxtpx:TrackPointExtension xmlns:gpxtpx="http://www.garmin.com/xmlschemas/TrackPointExtension/v1">
            <gpxtpx:hr>152</gpxtpx:hr>
          </gpxtpx:TrackPointExtension>
        </extensions>
      </trkpt>
      <trkpt lat="44.16442" lon="5.27798">
        <ele>1499.4</ele>
        <time>2021-06-12T09:13:26Z</time>
        <extensions>
          <gpxtpx:TrackPointExtension xmlns:gpxtpx="http://www.garmin.com/xmlschemas/TrackPointExtension/v1">
            <gpxtpx:hr>153</gpxtpx:hr>
          </gpxtpx:TrackPointExtension>
        </extensions>
      </trkpt>
      <trkpt lat="44.16443" lon="5.27799">
        <ele>1499.6</ele>
        <time>2021-06-12T09:13:27Z</time>
        <extensions>
          <gpxtpx:TrackPointExtension xmlns:gpxtpx="http://www.garmin.com/xmlschemas/TrackPointExtension/v1">
            <gpxtpx:hr>153</gpxtpx:hr>
          </gpxtpx:TrackPointExtension>
        </extensions>
      </trkpt>
      <trkpt lat="44.16445" lon="5.278">
        <ele>1500</ele>
        <time>2021-06-12T09:13:29Z</time>
        <extensions>
          <gpxtpx:TrackPointExtension xmlns:gpxtpx="http://www.garmin.com/xmlschemas/TrackPointExtension/v1">
            <gpxtpx:hr>153</gpxtpx:hr>
          </gpxtpx:TrackPointExtension>
        </extensions>
      </trkpt>
      <trkpt lat="44.16445" lon="5.278">
        <ele>1500.4</ele>
        <time>2021-06-12T09:13:30Z</time>
        <extensions>
          <gpxtpx:TrackPointExtension xmlns:gpxtpx="http://www.garmin.com/xmlschemas/TrackPointExtension/v1">
            <gpxtpx:hr>153</gpxtpx:hr>
          </gpxtpx:TrackPointExtension>
        </extensions>
      </trkpt>
      <trkpt lat="44.16445" lon="5.27801">
        <ele>1500.6</ele>
        <time>2021-06-12T09:13:31Z</time>
        <extensions>
          <gpxtpx:TrackPointExtension xmlns:gpxtpx="http://www.garmin.com/xmlschemas/TrackPointExtension/v1">
            <gpxtpx:hr>153</gpxtpx:hr>
          </gpxtpx:TrackPointExtension>
        </extensions>
      </trkpt>
      <trkpt lat="44.16447" lon="5.27801">
        <ele>1501.4</ele>
        <time>2021-06-12T09:13:34Z</time>
        <extensions>
          <gpxtpx:TrackPointExtension xmlns:gpxtpx="http://www.garmin.com/xmlschemas/TrackPointExtension/v1">
            <gpxtpx:hr>153</gpxtpx:hr>
          </gpxtpx:TrackPointExtension>
        </extensions>
      </trkpt>
      <trkpt lat="44.16449" lon="5.27801">
        <ele>1501.8</ele>
        <time>2021-06-12T09:13:36Z</time>
        <extensions>
          <gpxtpx:TrackPointExtension xmlns:gpxtpx="http://www.garmin.com/xmlschemas/TrackPointExtension/v1">
            <gpxtpx:hr>154</gpxtpx:hr>
          </gpxtpx:TrackPointExtension>
        </extensions>
      </trkpt>
      <trkpt lat="44.1645" lon="5.27802">
        <ele>1502.6</ele>
        <time>2021-06-12T09:13:38Z</time>
        <extensions>
          <gpxtpx:TrackPointExtension xmlns:gpxtpx="http://www.garmin.com/xmlschemas/TrackPointExtension/v1">
            <gpxtpx:hr>154</gpxtpx:hr>
          </gpxtpx:TrackPointExtension>
        </extensions>
      </trkpt>
      <trkpt lat="44.16451" lon="5.27802">
        <ele>1502.8</ele>
        <time>2021-06-12T09:13:39Z</time>
        <extensions>
          <gpxtpx:TrackPointExtension xmlns:gpxtpx="http://www.garmin.com/xmlschemas/TrackPointExtension/v1">
            <gpxtpx:hr>154</gpxtpx:hr>
          </gpxtpx:TrackPointExtension>
        </extensions>
      </trkpt>
      <trkpt lat="44.16452" lon="5.27803">
        <ele>1503</ele>
        <time>2021-06-12T09:13:40Z</time>
        <extensions>
          <gpxtpx:TrackPointExtension xmlns:gpxtpx="http://www.garmin.com/xmlschemas/TrackPointExtension/v1">
            <gpxtpx:hr>154</gpxtpx:hr>
          </gpxtpx:TrackPointExtension>
        </extensions>
      </trkpt>
      <trkpt lat="44.16454" lon="5.27803">
        <ele>1503.6</ele>
        <time>2021-06-12T09:13:43Z</time>
        <extensions>
          <gpxtpx:TrackPointExtension xmlns:gpxtpx="http://www.garmin.com/xmlschemas/TrackPointExtension/v1">
            <gpxtpx:hr>154</gpxtpx:hr>
          </gpxtpx:TrackPointExtension>
        </extensions>
      </trkpt>
      <trkpt lat="44.16456" lon="5.27803">
        <ele>1504</ele>
        <time>2021-06-12T09:13:45Z</time>
        <extensions>
          <gpxtpx:TrackPointExtension xmlns:gpxtpx="http://www.garmin.com/xmlschemas/TrackPointExtension/v1">
            <gpxtpx:hr>154</gpxtpx:hr>
          </gpxtpx:TrackPointExtension>
        </extensions>
      </trkpt>
      <trkpt lat="44.16456" lon="5.27804">
        <ele>1504.4</ele>
        <time>2021-06-12T09:13:46Z</time>
        <extensions>
          <gpxtpx:TrackPointExtension xmlns:gpxtpx="http://www.garmin.com/xmlschemas/TrackPointExtension/v1">
            <gpxtpx:hr>154</gpxtpx:hr>
          </gpxtpx:TrackPointExtension>
        </extensions>
      </trkpt>
      <trkpt lat="44.16458" lon="5.27806">
        <ele>1505</ele>
        <time>2021-06-12T09:13:49Z</time>
        <extensions>
          <gpxtpx:TrackPointExtension xmlns:gpxtpx="http://www.garmin.com/xmlschemas/TrackPointExtension/v1">
            <gpxtpx:hr>152</gpxtpx:hr>
          </gpxtpx:TrackPointExtension>
        </extensions>
      </trkpt>
      <trkpt lat="44.16458" lon="5.27807">
        <ele>1505.2</ele>
        <time>2021-06-12T09:13:50Z</time>
        <extensions>
          <gpxtpx:TrackPointExtension xmlns:gpxtpx="http://www.garmin.com/xmlschemas/TrackPointExtension/v1">
            <gpxtpx:hr>153</gpxtpx:hr>
          </gpxtpx:TrackPointExtension>
        </extensions>
      </trkpt>
      <trkpt lat="44.16462" lon="5.27811">
        <ele>1506.2</ele>
        <time>2021-06-12T09:13:55Z</time>
        <extensions>
          <gpxtpx:TrackPointExtension xmlns:gpxtpx="http://www.garmin.com/xmlschemas/TrackPointExtension/v1">
            <gpxtpx:hr>152</gpxtpx:hr>
          </gpxtpx:TrackPointExtension>
        </extensions>
      </trkpt>
      <trkpt lat="44.16465" lon="5.27813">
        <ele>1507</ele>
        <time>2021-06-12T09:13:58Z</time>
        <extensions>
          <gpxtpx:TrackPointExtension xmlns:gpxtpx="http://www.garmin.com/xmlschemas/TrackPointExtension/v1">
            <gpxtpx:hr>152</gpxtpx:hr>
          </gpxtpx:TrackPointExtension>
        </extensions>
      </trkpt>
      <trkpt lat="44.16466" lon="5.27813">
        <ele>1507.4</ele>
        <time>2021-06-12T09:14:00Z</time>
        <extensions>
          <gpxtpx:TrackPointExtension xmlns:gpxtpx="http://www.garmin.com/xmlschemas/TrackPointExtension/v1">
            <gpxtpx:hr>153</gpxtpx:hr>
          </gpxtpx:TrackPointExtension>
        </extensions>
      </trkpt>
      <trkpt lat="44.16468" lon="5.27811">
        <ele>1507.8</ele>
        <time>2021-06-12T09:14:02Z</time>
        <extensions>
          <gpxtpx:TrackPointExtension xmlns:gpxtpx="http://www.garmin.com/xmlschemas/TrackPointExtension/v1">
            <gpxtpx:hr>153</gpxtpx:hr>
          </gpxtpx:TrackPointExtension>
        </extensions>
      </trkpt>
      <trkpt lat="44.16469" lon="5.27811">
        <ele>1508</ele>
        <time>2021-06-12T09:14:03Z</time>
        <extensions>
          <gpxtpx:TrackPointExtension xmlns:gpxtpx="http://www.garmin.com/xmlschemas/TrackPointExtension/v1">
            <gpxtpx:hr>153</gpxtpx:hr>
          </gpxtpx:TrackPointExtension>
        </extensions>
      </trkpt>
      <trkpt lat="44.16469" lon="5.2781">
        <ele>1508.2</ele>
        <time>2021-06-12T09:14:04Z</time>
        <extensions>
          <gpxtpx:TrackPointExtension xmlns:gpxtpx="http://www.garmin.com/xmlschemas/TrackPointExtension/v1">
            <gpxtpx:hr>154</gpxtpx:hr>
          </gpxtpx:TrackPointExtension>
        </extensions>
      </trkpt>
      <trkpt lat="44.1647" lon="5.27809">
        <ele>1508.4</ele>
        <time>2021-06-12T09:14:05Z</time>
        <extensions>
          <gpxtpx:TrackPointExtension xmlns:gpxtpx="http://www.garmin.com/xmlschemas/TrackPointExtension/v1">
            <gpxtpx:hr>154</gpxtpx:hr>
          </gpxtpx:TrackPointExtension>
        </extensions>
      </trkpt>
      <trkpt lat="44.1647" lon="5.27808">
        <ele>1508.6</ele>
        <time>2021-06-12T09:14:06Z</time>
        <extensions>
          <gpxtpx:TrackPointExtension xmlns:gpxtpx="http://www.garmin.com/xmlschemas/TrackPointExtension/v1">
            <gpxtpx:hr>154</gpxtpx:hr>
          </gpxtpx:TrackPointExtension>
        </extensions>
      </trkpt>
      <trkpt lat="44.16471" lon="5.27808">
        <ele>1508.8</ele>
        <time>2021-06-12T09:14:08Z</time>
        <extensions>
          <gpxtpx:TrackPointExtension xmlns:gpxtpx="http://www.garmin.com/xmlschemas/TrackPointExtension/v1">
            <gpxtpx:hr>154</gpxtpx:hr>
          </gpxtpx:TrackPointExtension>
        </extensions>
      </trkpt>
      <trkpt lat="44.16474" lon="5.27807">
        <ele>1509.6</ele>
        <time>2021-06-12T09:14:12Z</time>
        <extensions>
          <gpxtpx:TrackPointExtension xmlns:gpxtpx="http://www.garmin.com/xmlschemas/TrackPointExtension/v1">
            <gpxtpx:hr>154</gpxtpx:hr>
          </gpxtpx:TrackPointExtension>
        </extensions>
      </trkpt>
      <trkpt lat="44.16475" lon="5.27807">
        <ele>1509.8</ele>
        <time>2021-06-12T09:14:13Z</time>
        <extensions>
          <gpxtpx:TrackPointExtension xmlns:gpxtpx="http://www.garmin.com/xmlschemas/TrackPointExtension/v1">
            <gpxtpx:hr>154</gpxtpx:hr>
          </gpxtpx:TrackPointExtension>
        </extensions>
      </trkpt>
      <trkpt lat="44.16478" lon="5.27808">
        <ele>1510.8</ele>
        <time>2021-06-12T09:14:17Z</time>
        <extensions>
          <gpxtpx:TrackPointExtension xmlns:gpxtpx="http://www.garmin.com/xmlschemas/TrackPointExtension/v1">
            <gpxtpx:hr>155</gpxtpx:hr>
          </gpxtpx:TrackPointExtension>
        </extensions>
      </trkpt>
      <trkpt lat="44.16479" lon="5.27807">
        <ele>1511</ele>
        <time>2021-06-12T09:14:18Z</time>
        <extensions>
          <gpxtpx:TrackPointExtension xmlns:gpxtpx="http://www.garmin.com/xmlschemas/TrackPointExtension/v1">
            <gpxtpx:hr>155</gpxtpx:hr>
          </gpxtpx:TrackPointExtension>
        </extensions>
      </trkpt>
      <trkpt lat="44.16482" lon="5.27806">
        <ele>1511.2</ele>
        <time>2021-06-12T09:14:20Z</time>
        <extensions>
          <gpxtpx:TrackPointExtension xmlns:gpxtpx="http://www.garmin.com/xmlschemas/TrackPointExtension/v1">
            <gpxtpx:hr>155</gpxtpx:hr>
          </gpxtpx:TrackPointExtension>
        </extensions>
      </trkpt>
      <trkpt lat="44.16483" lon="5.27805">
        <ele>1511.6</ele>
        <time>2021-06-12T09:14:22Z</time>
        <extensions>
          <gpxtpx:TrackPointExtension xmlns:gpxtpx="http://www.garmin.com/xmlschemas/TrackPointExtension/v1">
            <gpxtpx:hr>155</gpxtpx:hr>
          </gpxtpx:TrackPointExtension>
        </extensions>
      </trkpt>
      <trkpt lat="44.16484" lon="5.27805">
        <ele>1511.8</ele>
        <time>2021-06-12T09:14:23Z</time>
        <extensions>
          <gpxtpx:TrackPointExtension xmlns:gpxtpx="http://www.garmin.com/xmlschemas/TrackPointExtension/v1">
            <gpxtpx:hr>155</gpxtpx:hr>
          </gpxtpx:TrackPointExtension>
        </extensions>
      </trkpt>
      <trkpt lat="44.16484" lon="5.27804">
        <ele>1512</ele>
        <time>2021-06-12T09:14:24Z</time>
        <extensions>
          <gpxtpx:TrackPointExtension xmlns:gpxtpx="http://www.garmin.com/xmlschemas/TrackPointExtension/v1">
            <gpxtpx:hr>155</gpxtpx:hr>
          </gpxtpx:TrackPointExtension>
        </extensions>
      </trkpt>
      <trkpt lat="44.16484" lon="5.27804">
        <ele>1512.2</ele>
        <time>2021-06-12T09:14:25Z</time>
        <extensions>
          <gpxtpx:TrackPointExtension xmlns:gpxtpx="http://www.garmin.com/xmlschemas/TrackPointExtension/v1">
            <gpxtpx:hr>156</gpxtpx:hr>
          </gpxtpx:TrackPointExtension>
        </extensions>
      </trkpt>
      <trkpt lat="44.16485" lon="5.27804">
        <ele>1512.4</ele>
        <time>2021-06-12T09:14:26Z</time>
        <extensions>
          <gpxtpx:TrackPointExtension xmlns:gpxtpx="http://www.garmin.com/xmlschemas/TrackPointExtension/v1">
            <gpxtpx:hr>156</gpxtpx:hr>
          </gpxtpx:TrackPointExtension>
        </extensions>
      </trkpt>
      <trkpt lat="44.16486" lon="5.27805">
        <ele>1512.6</ele>
        <time>2021-06-12T09:14:27Z</time>
        <extensions>
          <gpxtpx:TrackPointExtension xmlns:gpxtpx="http://www.garmin.com/xmlschemas/TrackPointExtension/v1">
            <gpxtpx:hr>155</gpxtpx:hr>
          </gpxtpx:TrackPointExtension>
        </extensions>
      </trkpt>
      <trkpt lat="44.16488" lon="5.27809">
        <ele>1513</ele>
        <time>2021-06-12T09:14:30Z</time>
        <extensions>
          <gpxtpx:TrackPointExtension xmlns:gpxtpx="http://www.garmin.com/xmlschemas/TrackPointExtension/v1">
            <gpxtpx:hr>155</gpxtpx:hr>
          </gpxtpx:TrackPointExtension>
        </extensions>
      </trkpt>
      <trkpt lat="44.16489" lon="5.2781">
        <ele>1513</ele>
        <time>2021-06-12T09:14:31Z</time>
        <extensions>
          <gpxtpx:TrackPointExtension xmlns:gpxtpx="http://www.garmin.com/xmlschemas/TrackPointExtension/v1">
            <gpxtpx:hr>155</gpxtpx:hr>
          </gpxtpx:TrackPointExtension>
        </extensions>
      </trkpt>
      <trkpt lat="44.1649" lon="5.27812">
        <ele>1513.4</ele>
        <time>2021-06-12T09:14:33Z</time>
        <extensions>
          <gpxtpx:TrackPointExtension xmlns:gpxtpx="http://www.garmin.com/xmlschemas/TrackPointExtension/v1">
            <gpxtpx:hr>155</gpxtpx:hr>
          </gpxtpx:TrackPointExtension>
        </extensions>
      </trkpt>
      <trkpt lat="44.16492" lon="5.27813">
        <ele>1513.8</ele>
        <time>2021-06-12T09:14:35Z</time>
        <extensions>
          <gpxtpx:TrackPointExtension xmlns:gpxtpx="http://www.garmin.com/xmlschemas/TrackPointExtension/v1">
            <gpxtpx:hr>154</gpxtpx:hr>
          </gpxtpx:TrackPointExtension>
        </extensions>
      </trkpt>
      <trkpt lat="44.16493" lon="5.27813">
        <ele>1514</ele>
        <time>2021-06-12T09:14:36Z</time>
        <extensions>
          <gpxtpx:TrackPointExtension xmlns:gpxtpx="http://www.garmin.com/xmlschemas/TrackPointExtension/v1">
            <gpxtpx:hr>154</gpxtpx:hr>
          </gpxtpx:TrackPointExtension>
        </extensions>
      </trkpt>
      <trkpt lat="44.16495" lon="5.27813">
        <ele>1514.2</ele>
        <time>2021-06-12T09:14:37Z</time>
        <extensions>
          <gpxtpx:TrackPointExtension xmlns:gpxtpx="http://www.garmin.com/xmlschemas/TrackPointExtension/v1">
            <gpxtpx:hr>154</gpxtpx:hr>
          </gpxtpx:TrackPointExtension>
        </extensions>
      </trkpt>
      <trkpt lat="44.16495" lon="5.27814">
        <ele>1514.4</ele>
        <time>2021-06-12T09:14:38Z</time>
        <extensions>
          <gpxtpx:TrackPointExtension xmlns:gpxtpx="http://www.garmin.com/xmlschemas/TrackPointExtension/v1">
            <gpxtpx:hr>154</gpxtpx:hr>
          </gpxtpx:TrackPointExtension>
        </extensions>
      </trkpt>
      <trkpt lat="44.16497" lon="5.27815">
        <ele>1514.6</ele>
        <time>2021-06-12T09:14:39Z</time>
        <extensions>
          <gpxtpx:TrackPointExtension xmlns:gpxtpx="http://www.garmin.com/xmlschemas/TrackPointExtension/v1">
            <gpxtpx:hr>154</gpxtpx:hr>
          </gpxtpx:TrackPointExtension>
        </extensions>
      </trkpt>
      <trkpt lat="44.16499" lon="5.27815">
        <ele>1515</ele>
        <time>2021-06-12T09:14:41Z</time>
        <extensions>
          <gpxtpx:TrackPointExtension xmlns:gpxtpx="http://www.garmin.com/xmlschemas/TrackPointExtension/v1">
            <gpxtpx:hr>154</gpxtpx:hr>
          </gpxtpx:TrackPointExtension>
        </extensions>
      </trkpt>
      <trkpt lat="44.165" lon="5.27815">
        <ele>1515.2</ele>
        <time>2021-06-12T09:14:42Z</time>
        <extensions>
          <gpxtpx:TrackPointExtension xmlns:gpxtpx="http://www.garmin.com/xmlschemas/TrackPointExtension/v1">
            <gpxtpx:hr>154</gpxtpx:hr>
          </gpxtpx:TrackPointExtension>
        </extensions>
      </trkpt>
      <trkpt lat="44.16503" lon="5.27816">
        <ele>1516</ele>
        <time>2021-06-12T09:14:46Z</time>
        <extensions>
          <gpxtpx:TrackPointExtension xmlns:gpxtpx="http://www.garmin.com/xmlschemas/TrackPointExtension/v1">
            <gpxtpx:hr>154</gpxtpx:hr>
          </gpxtpx:TrackPointExtension>
        </extensions>
      </trkpt>
      <trkpt lat="44.16504" lon="5.27817">
        <ele>1516.2</ele>
        <time>2021-06-12T09:14:47Z</time>
        <extensions>
          <gpxtpx:TrackPointExtension xmlns:gpxtpx="http://www.garmin.com/xmlschemas/TrackPointExtension/v1">
            <gpxtpx:hr>154</gpxtpx:hr>
          </gpxtpx:TrackPointExtension>
        </extensions>
      </trkpt>
      <trkpt lat="44.16505" lon="5.27817">
        <ele>1516.4</ele>
        <time>2021-06-12T09:14:48Z</time>
        <extensions>
          <gpxtpx:TrackPointExtension xmlns:gpxtpx="http://www.garmin.com/xmlschemas/TrackPointExtension/v1">
            <gpxtpx:hr>154</gpxtpx:hr>
          </gpxtpx:TrackPointExtension>
        </extensions>
      </trkpt>
      <trkpt lat="44.16506" lon="5.27817">
        <ele>1516.8</ele>
        <time>2021-06-12T09:14:51Z</time>
        <extensions>
          <gpxtpx:TrackPointExtension xmlns:gpxtpx="http://www.garmin.com/xmlschemas/TrackPointExtension/v1">
            <gpxtpx:hr>154</gpxtpx:hr>
          </gpxtpx:TrackPointExtension>
        </extensions>
      </trkpt>
      <trkpt lat="44.16507" lon="5.27818">
        <ele>1517.2</ele>
        <time>2021-06-12T09:14:53Z</time>
        <extensions>
          <gpxtpx:TrackPointExtension xmlns:gpxtpx="http://www.garmin.com/xmlschemas/TrackPointExtension/v1">
            <gpxtpx:hr>154</gpxtpx:hr>
          </gpxtpx:TrackPointExtension>
        </extensions>
      </trkpt>
      <trkpt lat="44.16508" lon="5.27819">
        <ele>1517.4</ele>
        <time>2021-06-12T09:14:54Z</time>
        <extensions>
          <gpxtpx:TrackPointExtension xmlns:gpxtpx="http://www.garmin.com/xmlschemas/TrackPointExtension/v1">
            <gpxtpx:hr>154</gpxtpx:hr>
          </gpxtpx:TrackPointExtension>
        </extensions>
      </trkpt>
      <trkpt lat="44.1651" lon="5.27822">
        <ele>1517.8</ele>
        <time>2021-06-12T09:14:56Z</time>
        <extensions>
          <gpxtpx:TrackPointExtension xmlns:gpxtpx="http://www.garmin.com/xmlschemas/TrackPointExtension/v1">
            <gpxtpx:hr>153</gpxtpx:hr>
          </gpxtpx:TrackPointExtension>
        </extensions>
      </trkpt>
      <trkpt lat="44.16511" lon="5.27824">
        <ele>1518</ele>
        <time>2021-06-12T09:14:57Z</time>
        <extensions>
          <gpxtpx:TrackPointExtension xmlns:gpxtpx="http://www.garmin.com/xmlschemas/TrackPointExtension/v1">
            <gpxtpx:hr>154</gpxtpx:hr>
          </gpxtpx:TrackPointExtension>
        </extensions>
      </trkpt>
      <trkpt lat="44.16511" lon="5.27825">
        <ele>1518.2</ele>
        <time>2021-06-12T09:14:58Z</time>
        <extensions>
          <gpxtpx:TrackPointExtension xmlns:gpxtpx="http://www.garmin.com/xmlschemas/TrackPointExtension/v1">
            <gpxtpx:hr>153</gpxtpx:hr>
          </gpxtpx:TrackPointExtension>
        </extensions>
      </trkpt>
      <trkpt lat="44.16513" lon="5.27828">
        <ele>1518.8</ele>
        <time>2021-06-12T09:15:01Z</time>
        <extensions>
          <gpxtpx:TrackPointExtension xmlns:gpxtpx="http://www.garmin.com/xmlschemas/TrackPointExtension/v1">
            <gpxtpx:hr>154</gpxtpx:hr>
          </gpxtpx:TrackPointExtension>
        </extensions>
      </trkpt>
      <trkpt lat="44.16515" lon="5.27829">
        <ele>1519.2</ele>
        <time>2021-06-12T09:15:03Z</time>
        <extensions>
          <gpxtpx:TrackPointExtension xmlns:gpxtpx="http://www.garmin.com/xmlschemas/TrackPointExtension/v1">
            <gpxtpx:hr>154</gpxtpx:hr>
          </gpxtpx:TrackPointExtension>
        </extensions>
      </trkpt>
      <trkpt lat="44.16516" lon="5.2783">
        <ele>1519.4</ele>
        <time>2021-06-12T09:15:05Z</time>
        <extensions>
          <gpxtpx:TrackPointExtension xmlns:gpxtpx="http://www.garmin.com/xmlschemas/TrackPointExtension/v1">
            <gpxtpx:hr>153</gpxtpx:hr>
          </gpxtpx:TrackPointExtension>
        </extensions>
      </trkpt>
      <trkpt lat="44.16518" lon="5.2783">
        <ele>1519.6</ele>
        <time>2021-06-12T09:15:07Z</time>
        <extensions>
          <gpxtpx:TrackPointExtension xmlns:gpxtpx="http://www.garmin.com/xmlschemas/TrackPointExtension/v1">
            <gpxtpx:hr>153</gpxtpx:hr>
          </gpxtpx:TrackPointExtension>
        </extensions>
      </trkpt>
      <trkpt lat="44.16519" lon="5.2783">
        <ele>1519.8</ele>
        <time>2021-06-12T09:15:09Z</time>
        <extensions>
          <gpxtpx:TrackPointExtension xmlns:gpxtpx="http://www.garmin.com/xmlschemas/TrackPointExtension/v1">
            <gpxtpx:hr>154</gpxtpx:hr>
          </gpxtpx:TrackPointExtension>
        </extensions>
      </trkpt>
      <trkpt lat="44.16522" lon="5.27832">
        <ele>1520.4</ele>
        <time>2021-06-12T09:15:12Z</time>
        <extensions>
          <gpxtpx:TrackPointExtension xmlns:gpxtpx="http://www.garmin.com/xmlschemas/TrackPointExtension/v1">
            <gpxtpx:hr>152</gpxtpx:hr>
          </gpxtpx:TrackPointExtension>
        </extensions>
      </trkpt>
      <trkpt lat="44.16526" lon="5.27834">
        <ele>1521.4</ele>
        <time>2021-06-12T09:15:17Z</time>
        <extensions>
          <gpxtpx:TrackPointExtension xmlns:gpxtpx="http://www.garmin.com/xmlschemas/TrackPointExtension/v1">
            <gpxtpx:hr>152</gpxtpx:hr>
          </gpxtpx:TrackPointExtension>
        </extensions>
      </trkpt>
      <trkpt lat="44.16527" lon="5.27833">
        <ele>1521.6</ele>
        <time>2021-06-12T09:15:18Z</time>
        <extensions>
          <gpxtpx:TrackPointExtension xmlns:gpxtpx="http://www.garmin.com/xmlschemas/TrackPointExtension/v1">
            <gpxtpx:hr>152</gpxtpx:hr>
          </gpxtpx:TrackPointExtension>
        </extensions>
      </trkpt>
      <trkpt lat="44.1653" lon="5.27828">
        <ele>1522.6</ele>
        <time>2021-06-12T09:15:25Z</time>
        <extensions>
          <gpxtpx:TrackPointExtension xmlns:gpxtpx="http://www.garmin.com/xmlschemas/TrackPointExtension/v1">
            <gpxtpx:hr>151</gpxtpx:hr>
          </gpxtpx:TrackPointExtension>
        </extensions>
      </trkpt>
      <trkpt lat="44.16533" lon="5.27824">
        <ele>1523.6</ele>
        <time>2021-06-12T09:15:30Z</time>
        <extensions>
          <gpxtpx:TrackPointExtension xmlns:gpxtpx="http://www.garmin.com/xmlschemas/TrackPointExtension/v1">
            <gpxtpx:hr>150</gpxtpx:hr>
          </gpxtpx:TrackPointExtension>
        </extensions>
      </trkpt>
      <trkpt lat="44.16535" lon="5.27819">
        <ele>1524.8</ele>
        <time>2021-06-12T09:15:34Z</time>
        <extensions>
          <gpxtpx:TrackPointExtension xmlns:gpxtpx="http://www.garmin.com/xmlschemas/TrackPointExtension/v1">
            <gpxtpx:hr>149</gpxtpx:hr>
          </gpxtpx:TrackPointExtension>
        </extensions>
      </trkpt>
      <trkpt lat="44.16537" lon="5.27818">
        <ele>1525.2</ele>
        <time>2021-06-12T09:15:37Z</time>
        <extensions>
          <gpxtpx:TrackPointExtension xmlns:gpxtpx="http://www.garmin.com/xmlschemas/TrackPointExtension/v1">
            <gpxtpx:hr>150</gpxtpx:hr>
          </gpxtpx:TrackPointExtension>
        </extensions>
      </trkpt>
      <trkpt lat="44.16539" lon="5.27817">
        <ele>1525.2</ele>
        <time>2021-06-12T09:15:39Z</time>
        <extensions>
          <gpxtpx:TrackPointExtension xmlns:gpxtpx="http://www.garmin.com/xmlschemas/TrackPointExtension/v1">
            <gpxtpx:hr>150</gpxtpx:hr>
          </gpxtpx:TrackPointExtension>
        </extensions>
      </trkpt>
      <trkpt lat="44.1654" lon="5.27815">
        <ele>1525.8</ele>
        <time>2021-06-12T09:15:42Z</time>
        <extensions>
          <gpxtpx:TrackPointExtension xmlns:gpxtpx="http://www.garmin.com/xmlschemas/TrackPointExtension/v1">
            <gpxtpx:hr>150</gpxtpx:hr>
          </gpxtpx:TrackPointExtension>
        </extensions>
      </trkpt>
      <trkpt lat="44.16541" lon="5.27812">
        <ele>1526.4</ele>
        <time>2021-06-12T09:15:44Z</time>
        <extensions>
          <gpxtpx:TrackPointExtension xmlns:gpxtpx="http://www.garmin.com/xmlschemas/TrackPointExtension/v1">
            <gpxtpx:hr>151</gpxtpx:hr>
          </gpxtpx:TrackPointExtension>
        </extensions>
      </trkpt>
      <trkpt lat="44.16542" lon="5.27811">
        <ele>1526.4</ele>
        <time>2021-06-12T09:15:45Z</time>
        <extensions>
          <gpxtpx:TrackPointExtension xmlns:gpxtpx="http://www.garmin.com/xmlschemas/TrackPointExtension/v1">
            <gpxtpx:hr>150</gpxtpx:hr>
          </gpxtpx:TrackPointExtension>
        </extensions>
      </trkpt>
      <trkpt lat="44.16542" lon="5.2781">
        <ele>1526.6</ele>
        <time>2021-06-12T09:15:46Z</time>
        <extensions>
          <gpxtpx:TrackPointExtension xmlns:gpxtpx="http://www.garmin.com/xmlschemas/TrackPointExtension/v1">
            <gpxtpx:hr>151</gpxtpx:hr>
          </gpxtpx:TrackPointExtension>
        </extensions>
      </trkpt>
      <trkpt lat="44.16542" lon="5.27806">
        <ele>1527</ele>
        <time>2021-06-12T09:15:48Z</time>
        <extensions>
          <gpxtpx:TrackPointExtension xmlns:gpxtpx="http://www.garmin.com/xmlschemas/TrackPointExtension/v1">
            <gpxtpx:hr>150</gpxtpx:hr>
          </gpxtpx:TrackPointExtension>
        </extensions>
      </trkpt>
      <trkpt lat="44.16543" lon="5.27805">
        <ele>1527</ele>
        <time>2021-06-12T09:15:49Z</time>
        <extensions>
          <gpxtpx:TrackPointExtension xmlns:gpxtpx="http://www.garmin.com/xmlschemas/TrackPointExtension/v1">
            <gpxtpx:hr>149</gpxtpx:hr>
          </gpxtpx:TrackPointExtension>
        </extensions>
      </trkpt>
      <trkpt lat="44.16545" lon="5.278">
        <ele>1527.4</ele>
        <time>2021-06-12T09:15:53Z</time>
        <extensions>
          <gpxtpx:TrackPointExtension xmlns:gpxtpx="http://www.garmin.com/xmlschemas/TrackPointExtension/v1">
            <gpxtpx:hr>148</gpxtpx:hr>
          </gpxtpx:TrackPointExtension>
        </extensions>
      </trkpt>
      <trkpt lat="44.16546" lon="5.27795">
        <ele>1528</ele>
        <time>2021-06-12T09:15:56Z</time>
        <extensions>
          <gpxtpx:TrackPointExtension xmlns:gpxtpx="http://www.garmin.com/xmlschemas/TrackPointExtension/v1">
            <gpxtpx:hr>147</gpxtpx:hr>
          </gpxtpx:TrackPointExtension>
        </extensions>
      </trkpt>
      <trkpt lat="44.16549" lon="5.27785">
        <ele>1528.8</ele>
        <time>2021-06-12T09:16:03Z</time>
        <extensions>
          <gpxtpx:TrackPointExtension xmlns:gpxtpx="http://www.garmin.com/xmlschemas/TrackPointExtension/v1">
            <gpxtpx:hr>145</gpxtpx:hr>
          </gpxtpx:TrackPointExtension>
        </extensions>
      </trkpt>
      <trkpt lat="44.16552" lon="5.27783">
        <ele>1529.2</ele>
        <time>2021-06-12T09:16:07Z</time>
        <extensions>
          <gpxtpx:TrackPointExtension xmlns:gpxtpx="http://www.garmin.com/xmlschemas/TrackPointExtension/v1">
            <gpxtpx:hr>147</gpxtpx:hr>
          </gpxtpx:TrackPointExtension>
        </extensions>
      </trkpt>
      <trkpt lat="44.16558" lon="5.27784">
        <ele>1530.2</ele>
        <time>2021-06-12T09:16:13Z</time>
        <extensions>
          <gpxtpx:TrackPointExtension xmlns:gpxtpx="http://www.garmin.com/xmlschemas/TrackPointExtension/v1">
            <gpxtpx:hr>147</gpxtpx:hr>
          </gpxtpx:TrackPointExtension>
        </extensions>
      </trkpt>
      <trkpt lat="44.16563" lon="5.27785">
        <ele>1531.2</ele>
        <time>2021-06-12T09:16:19Z</time>
        <extensions>
          <gpxtpx:TrackPointExtension xmlns:gpxtpx="http://www.garmin.com/xmlschemas/TrackPointExtension/v1">
            <gpxtpx:hr>147</gpxtpx:hr>
          </gpxtpx:TrackPointExtension>
        </extensions>
      </trkpt>
      <trkpt lat="44.16564" lon="5.27786">
        <ele>1531.4</ele>
        <time>2021-06-12T09:16:20Z</time>
        <extensions>
          <gpxtpx:TrackPointExtension xmlns:gpxtpx="http://www.garmin.com/xmlschemas/TrackPointExtension/v1">
            <gpxtpx:hr>146</gpxtpx:hr>
          </gpxtpx:TrackPointExtension>
        </extensions>
      </trkpt>
      <trkpt lat="44.16566" lon="5.27787">
        <ele>1531.8</ele>
        <time>2021-06-12T09:16:23Z</time>
        <extensions>
          <gpxtpx:TrackPointExtension xmlns:gpxtpx="http://www.garmin.com/xmlschemas/TrackPointExtension/v1">
            <gpxtpx:hr>147</gpxtpx:hr>
          </gpxtpx:TrackPointExtension>
        </extensions>
      </trkpt>
      <trkpt lat="44.16568" lon="5.27787">
        <ele>1532.4</ele>
        <time>2021-06-12T09:16:25Z</time>
        <extensions>
          <gpxtpx:TrackPointExtension xmlns:gpxtpx="http://www.garmin.com/xmlschemas/TrackPointExtension/v1">
            <gpxtpx:hr>147</gpxtpx:hr>
          </gpxtpx:TrackPointExtension>
        </extensions>
      </trkpt>
      <trkpt lat="44.16572" lon="5.27792">
        <ele>1533.4</ele>
        <time>2021-06-12T09:16:31Z</time>
        <extensions>
          <gpxtpx:TrackPointExtension xmlns:gpxtpx="http://www.garmin.com/xmlschemas/TrackPointExtension/v1">
            <gpxtpx:hr>147</gpxtpx:hr>
          </gpxtpx:TrackPointExtension>
        </extensions>
      </trkpt>
      <trkpt lat="44.16575" lon="5.27794">
        <ele>1534.2</ele>
        <time>2021-06-12T09:16:35Z</time>
        <extensions>
          <gpxtpx:TrackPointExtension xmlns:gpxtpx="http://www.garmin.com/xmlschemas/TrackPointExtension/v1">
            <gpxtpx:hr>148</gpxtpx:hr>
          </gpxtpx:TrackPointExtension>
        </extensions>
      </trkpt>
      <trkpt lat="44.16577" lon="5.27796">
        <ele>1534.6</ele>
        <time>2021-06-12T09:16:37Z</time>
        <extensions>
          <gpxtpx:TrackPointExtension xmlns:gpxtpx="http://www.garmin.com/xmlschemas/TrackPointExtension/v1">
            <gpxtpx:hr>148</gpxtpx:hr>
          </gpxtpx:TrackPointExtension>
        </extensions>
      </trkpt>
      <trkpt lat="44.16578" lon="5.27797">
        <ele>1534.8</ele>
        <time>2021-06-12T09:16:38Z</time>
        <extensions>
          <gpxtpx:TrackPointExtension xmlns:gpxtpx="http://www.garmin.com/xmlschemas/TrackPointExtension/v1">
            <gpxtpx:hr>149</gpxtpx:hr>
          </gpxtpx:TrackPointExtension>
        </extensions>
      </trkpt>
      <trkpt lat="44.1658" lon="5.278">
        <ele>1535.4</ele>
        <time>2021-06-12T09:16:41Z</time>
        <extensions>
          <gpxtpx:TrackPointExtension xmlns:gpxtpx="http://www.garmin.com/xmlschemas/TrackPointExtension/v1">
            <gpxtpx:hr>149</gpxtpx:hr>
          </gpxtpx:TrackPointExtension>
        </extensions>
      </trkpt>
      <trkpt lat="44.16581" lon="5.27801">
        <ele>1535.6</ele>
        <time>2021-06-12T09:16:42Z</time>
        <extensions>
          <gpxtpx:TrackPointExtension xmlns:gpxtpx="http://www.garmin.com/xmlschemas/TrackPointExtension/v1">
            <gpxtpx:hr>150</gpxtpx:hr>
          </gpxtpx:TrackPointExtension>
        </extensions>
      </trkpt>
      <trkpt lat="44.16582" lon="5.27802">
        <ele>1535.8</ele>
        <time>2021-06-12T09:16:43Z</time>
        <extensions>
          <gpxtpx:TrackPointExtension xmlns:gpxtpx="http://www.garmin.com/xmlschemas/TrackPointExtension/v1">
            <gpxtpx:hr>150</gpxtpx:hr>
          </gpxtpx:TrackPointExtension>
        </extensions>
      </trkpt>
      <trkpt lat="44.16584" lon="5.27803">
        <ele>1536</ele>
        <time>2021-06-12T09:16:45Z</time>
        <extensions>
          <gpxtpx:TrackPointExtension xmlns:gpxtpx="http://www.garmin.com/xmlschemas/TrackPointExtension/v1">
            <gpxtpx:hr>151</gpxtpx:hr>
          </gpxtpx:TrackPointExtension>
        </extensions>
      </trkpt>
      <trkpt lat="44.16588" lon="5.27805">
        <ele>1536.6</ele>
        <time>2021-06-12T09:16:48Z</time>
        <extensions>
          <gpxtpx:TrackPointExtension xmlns:gpxtpx="http://www.garmin.com/xmlschemas/TrackPointExtension/v1">
            <gpxtpx:hr>150</gpxtpx:hr>
          </gpxtpx:TrackPointExtension>
        </extensions>
      </trkpt>
      <trkpt lat="44.16588" lon="5.27806">
        <ele>1536.6</ele>
        <time>2021-06-12T09:16:49Z</time>
        <extensions>
          <gpxtpx:TrackPointExtension xmlns:gpxtpx="http://www.garmin.com/xmlschemas/TrackPointExtension/v1">
            <gpxtpx:hr>150</gpxtpx:hr>
          </gpxtpx:TrackPointExtension>
        </extensions>
      </trkpt>
      <trkpt lat="44.16589" lon="5.27807">
        <ele>1536.8</ele>
        <time>2021-06-12T09:16:50Z</time>
        <extensions>
          <gpxtpx:TrackPointExtension xmlns:gpxtpx="http://www.garmin.com/xmlschemas/TrackPointExtension/v1">
            <gpxtpx:hr>151</gpxtpx:hr>
          </gpxtpx:TrackPointExtension>
        </extensions>
      </trkpt>
      <trkpt lat="44.16591" lon="5.27809">
        <ele>1537.2</ele>
        <time>2021-06-12T09:16:52Z</time>
        <extensions>
          <gpxtpx:TrackPointExtension xmlns:gpxtpx="http://www.garmin.com/xmlschemas/TrackPointExtension/v1">
            <gpxtpx:hr>150</gpxtpx:hr>
          </gpxtpx:TrackPointExtension>
        </extensions>
      </trkpt>
      <trkpt lat="44.16593" lon="5.27811">
        <ele>1537.8</ele>
        <time>2021-06-12T09:16:55Z</time>
        <extensions>
          <gpxtpx:TrackPointExtension xmlns:gpxtpx="http://www.garmin.com/xmlschemas/TrackPointExtension/v1">
            <gpxtpx:hr>149</gpxtpx:hr>
          </gpxtpx:TrackPointExtension>
        </extensions>
      </trkpt>
      <trkpt lat="44.16595" lon="5.27813">
        <ele>1538.4</ele>
        <time>2021-06-12T09:16:58Z</time>
        <extensions>
          <gpxtpx:TrackPointExtension xmlns:gpxtpx="http://www.garmin.com/xmlschemas/TrackPointExtension/v1">
            <gpxtpx:hr>148</gpxtpx:hr>
          </gpxtpx:TrackPointExtension>
        </extensions>
      </trkpt>
      <trkpt lat="44.16598" lon="5.27814">
        <ele>1539</ele>
        <time>2021-06-12T09:17:01Z</time>
        <extensions>
          <gpxtpx:TrackPointExtension xmlns:gpxtpx="http://www.garmin.com/xmlschemas/TrackPointExtension/v1">
            <gpxtpx:hr>148</gpxtpx:hr>
          </gpxtpx:TrackPointExtension>
        </extensions>
      </trkpt>
      <trkpt lat="44.16599" lon="5.27815">
        <ele>1539.2</ele>
        <time>2021-06-12T09:17:02Z</time>
        <extensions>
          <gpxtpx:TrackPointExtension xmlns:gpxtpx="http://www.garmin.com/xmlschemas/TrackPointExtension/v1">
            <gpxtpx:hr>148</gpxtpx:hr>
          </gpxtpx:TrackPointExtension>
        </extensions>
      </trkpt>
      <trkpt lat="44.16601" lon="5.27819">
        <ele>1540</ele>
        <time>2021-06-12T09:17:07Z</time>
        <extensions>
          <gpxtpx:TrackPointExtension xmlns:gpxtpx="http://www.garmin.com/xmlschemas/TrackPointExtension/v1">
            <gpxtpx:hr>145</gpxtpx:hr>
          </gpxtpx:TrackPointExtension>
        </extensions>
      </trkpt>
      <trkpt lat="44.16601" lon="5.27819">
        <ele>1540</ele>
        <time>2021-06-12T09:17:08Z</time>
        <extensions>
          <gpxtpx:TrackPointExtension xmlns:gpxtpx="http://www.garmin.com/xmlschemas/TrackPointExtension/v1">
            <gpxtpx:hr>145</gpxtpx:hr>
          </gpxtpx:TrackPointExtension>
        </extensions>
      </trkpt>
      <trkpt lat="44.16604" lon="5.2782">
        <ele>1540.4</ele>
        <time>2021-06-12T09:17:11Z</time>
        <extensions>
          <gpxtpx:TrackPointExtension xmlns:gpxtpx="http://www.garmin.com/xmlschemas/TrackPointExtension/v1">
            <gpxtpx:hr>143</gpxtpx:hr>
          </gpxtpx:TrackPointExtension>
        </extensions>
      </trkpt>
      <trkpt lat="44.16605" lon="5.27821">
        <ele>1540.8</ele>
        <time>2021-06-12T09:17:13Z</time>
        <extensions>
          <gpxtpx:TrackPointExtension xmlns:gpxtpx="http://www.garmin.com/xmlschemas/TrackPointExtension/v1">
            <gpxtpx:hr>142</gpxtpx:hr>
          </gpxtpx:TrackPointExtension>
        </extensions>
      </trkpt>
      <trkpt lat="44.16606" lon="5.27822">
        <ele>1541</ele>
        <time>2021-06-12T09:17:14Z</time>
        <extensions>
          <gpxtpx:TrackPointExtension xmlns:gpxtpx="http://www.garmin.com/xmlschemas/TrackPointExtension/v1">
            <gpxtpx:hr>141</gpxtpx:hr>
          </gpxtpx:TrackPointExtension>
        </extensions>
      </trkpt>
      <trkpt lat="44.16607" lon="5.27822">
        <ele>1541</ele>
        <time>2021-06-12T09:17:15Z</time>
        <extensions>
          <gpxtpx:TrackPointExtension xmlns:gpxtpx="http://www.garmin.com/xmlschemas/TrackPointExtension/v1">
            <gpxtpx:hr>141</gpxtpx:hr>
          </gpxtpx:TrackPointExtension>
        </extensions>
      </trkpt>
      <trkpt lat="44.16608" lon="5.27823">
        <ele>1541.4</ele>
        <time>2021-06-12T09:17:17Z</time>
        <extensions>
          <gpxtpx:TrackPointExtension xmlns:gpxtpx="http://www.garmin.com/xmlschemas/TrackPointExtension/v1">
            <gpxtpx:hr>142</gpxtpx:hr>
          </gpxtpx:TrackPointExtension>
        </extensions>
      </trkpt>
      <trkpt lat="44.1661" lon="5.27824">
        <ele>1541.8</ele>
        <time>2021-06-12T09:17:20Z</time>
        <extensions>
          <gpxtpx:TrackPointExtension xmlns:gpxtpx="http://www.garmin.com/xmlschemas/TrackPointExtension/v1">
            <gpxtpx:hr>143</gpxtpx:hr>
          </gpxtpx:TrackPointExtension>
        </extensions>
      </trkpt>
      <trkpt lat="44.16612" lon="5.27825">
        <ele>1542</ele>
        <time>2021-06-12T09:17:22Z</time>
        <extensions>
          <gpxtpx:TrackPointExtension xmlns:gpxtpx="http://www.garmin.com/xmlschemas/TrackPointExtension/v1">
            <gpxtpx:hr>144</gpxtpx:hr>
          </gpxtpx:TrackPointExtension>
        </extensions>
      </trkpt>
      <trkpt lat="44.16612" lon="5.27825">
        <ele>1542.2</ele>
        <time>2021-06-12T09:17:23Z</time>
        <extensions>
          <gpxtpx:TrackPointExtension xmlns:gpxtpx="http://www.garmin.com/xmlschemas/TrackPointExtension/v1">
            <gpxtpx:hr>144</gpxtpx:hr>
          </gpxtpx:TrackPointExtension>
        </extensions>
      </trkpt>
      <trkpt lat="44.16613" lon="5.27826">
        <ele>1542.2</ele>
        <time>2021-06-12T09:17:24Z</time>
        <extensions>
          <gpxtpx:TrackPointExtension xmlns:gpxtpx="http://www.garmin.com/xmlschemas/TrackPointExtension/v1">
            <gpxtpx:hr>144</gpxtpx:hr>
          </gpxtpx:TrackPointExtension>
        </extensions>
      </trkpt>
      <trkpt lat="44.16618" lon="5.27829">
        <ele>1542.8</ele>
        <time>2021-06-12T09:17:29Z</time>
        <extensions>
          <gpxtpx:TrackPointExtension xmlns:gpxtpx="http://www.garmin.com/xmlschemas/TrackPointExtension/v1">
            <gpxtpx:hr>145</gpxtpx:hr>
          </gpxtpx:TrackPointExtension>
        </extensions>
      </trkpt>
      <trkpt lat="44.16619" lon="5.2783">
        <ele>1543.2</ele>
        <time>2021-06-12T09:17:31Z</time>
        <extensions>
          <gpxtpx:TrackPointExtension xmlns:gpxtpx="http://www.garmin.com/xmlschemas/TrackPointExtension/v1">
            <gpxtpx:hr>145</gpxtpx:hr>
          </gpxtpx:TrackPointExtension>
        </extensions>
      </trkpt>
      <trkpt lat="44.1662" lon="5.2783">
        <ele>1543.6</ele>
        <time>2021-06-12T09:17:33Z</time>
        <extensions>
          <gpxtpx:TrackPointExtension xmlns:gpxtpx="http://www.garmin.com/xmlschemas/TrackPointExtension/v1">
            <gpxtpx:hr>145</gpxtpx:hr>
          </gpxtpx:TrackPointExtension>
        </extensions>
      </trkpt>
      <trkpt lat="44.16621" lon="5.2783">
        <ele>1544</ele>
        <time>2021-06-12T09:17:36Z</time>
        <extensions>
          <gpxtpx:TrackPointExtension xmlns:gpxtpx="http://www.garmin.com/xmlschemas/TrackPointExtension/v1">
            <gpxtpx:hr>145</gpxtpx:hr>
          </gpxtpx:TrackPointExtension>
        </extensions>
      </trkpt>
      <trkpt lat="44.16622" lon="5.27831">
        <ele>1544.2</ele>
        <time>2021-06-12T09:17:37Z</time>
        <extensions>
          <gpxtpx:TrackPointExtension xmlns:gpxtpx="http://www.garmin.com/xmlschemas/TrackPointExtension/v1">
            <gpxtpx:hr>144</gpxtpx:hr>
          </gpxtpx:TrackPointExtension>
        </extensions>
      </trkpt>
      <trkpt lat="44.16625" lon="5.27831">
        <ele>1544.6</ele>
        <time>2021-06-12T09:17:41Z</time>
        <extensions>
          <gpxtpx:TrackPointExtension xmlns:gpxtpx="http://www.garmin.com/xmlschemas/TrackPointExtension/v1">
            <gpxtpx:hr>143</gpxtpx:hr>
          </gpxtpx:TrackPointExtension>
        </extensions>
      </trkpt>
      <trkpt lat="44.16629" lon="5.27833">
        <ele>1545.4</ele>
        <time>2021-06-12T09:17:45Z</time>
        <extensions>
          <gpxtpx:TrackPointExtension xmlns:gpxtpx="http://www.garmin.com/xmlschemas/TrackPointExtension/v1">
            <gpxtpx:hr>143</gpxtpx:hr>
          </gpxtpx:TrackPointExtension>
        </extensions>
      </trkpt>
      <trkpt lat="44.16632" lon="5.27837">
        <ele>1546.2</ele>
        <time>2021-06-12T09:17:49Z</time>
        <extensions>
          <gpxtpx:TrackPointExtension xmlns:gpxtpx="http://www.garmin.com/xmlschemas/TrackPointExtension/v1">
            <gpxtpx:hr>145</gpxtpx:hr>
          </gpxtpx:TrackPointExtension>
        </extensions>
      </trkpt>
      <trkpt lat="44.16633" lon="5.27838">
        <ele>1546.4</ele>
        <time>2021-06-12T09:17:50Z</time>
        <extensions>
          <gpxtpx:TrackPointExtension xmlns:gpxtpx="http://www.garmin.com/xmlschemas/TrackPointExtension/v1">
            <gpxtpx:hr>145</gpxtpx:hr>
          </gpxtpx:TrackPointExtension>
        </extensions>
      </trkpt>
      <trkpt lat="44.16635" lon="5.27839">
        <ele>1546.8</ele>
        <time>2021-06-12T09:17:52Z</time>
        <extensions>
          <gpxtpx:TrackPointExtension xmlns:gpxtpx="http://www.garmin.com/xmlschemas/TrackPointExtension/v1">
            <gpxtpx:hr>146</gpxtpx:hr>
          </gpxtpx:TrackPointExtension>
        </extensions>
      </trkpt>
      <trkpt lat="44.16637" lon="5.2784">
        <ele>1547.4</ele>
        <time>2021-06-12T09:17:55Z</time>
        <extensions>
          <gpxtpx:TrackPointExtension xmlns:gpxtpx="http://www.garmin.com/xmlschemas/TrackPointExtension/v1">
            <gpxtpx:hr>146</gpxtpx:hr>
          </gpxtpx:TrackPointExtension>
        </extensions>
      </trkpt>
      <trkpt lat="44.16638" lon="5.2784">
        <ele>1547.6</ele>
        <time>2021-06-12T09:17:56Z</time>
        <extensions>
          <gpxtpx:TrackPointExtension xmlns:gpxtpx="http://www.garmin.com/xmlschemas/TrackPointExtension/v1">
            <gpxtpx:hr>146</gpxtpx:hr>
          </gpxtpx:TrackPointExtension>
        </extensions>
      </trkpt>
      <trkpt lat="44.1664" lon="5.27842">
        <ele>1548</ele>
        <time>2021-06-12T09:17:58Z</time>
        <extensions>
          <gpxtpx:TrackPointExtension xmlns:gpxtpx="http://www.garmin.com/xmlschemas/TrackPointExtension/v1">
            <gpxtpx:hr>146</gpxtpx:hr>
          </gpxtpx:TrackPointExtension>
        </extensions>
      </trkpt>
      <trkpt lat="44.16641" lon="5.27842">
        <ele>1548.2</ele>
        <time>2021-06-12T09:17:59Z</time>
        <extensions>
          <gpxtpx:TrackPointExtension xmlns:gpxtpx="http://www.garmin.com/xmlschemas/TrackPointExtension/v1">
            <gpxtpx:hr>146</gpxtpx:hr>
          </gpxtpx:TrackPointExtension>
        </extensions>
      </trkpt>
      <trkpt lat="44.16643" lon="5.27843">
        <ele>1548.8</ele>
        <time>2021-06-12T09:18:02Z</time>
        <extensions>
          <gpxtpx:TrackPointExtension xmlns:gpxtpx="http://www.garmin.com/xmlschemas/TrackPointExtension/v1">
            <gpxtpx:hr>146</gpxtpx:hr>
          </gpxtpx:TrackPointExtension>
        </extensions>
      </trkpt>
      <trkpt lat="44.16646" lon="5.27844">
        <ele>1549.4</ele>
        <time>2021-06-12T09:18:05Z</time>
        <extensions>
          <gpxtpx:TrackPointExtension xmlns:gpxtpx="http://www.garmin.com/xmlschemas/TrackPointExtension/v1">
            <gpxtpx:hr>146</gpxtpx:hr>
          </gpxtpx:TrackPointExtension>
        </extensions>
      </trkpt>
      <trkpt lat="44.16647" lon="5.27843">
        <ele>1549.6</ele>
        <time>2021-06-12T09:18:07Z</time>
        <extensions>
          <gpxtpx:TrackPointExtension xmlns:gpxtpx="http://www.garmin.com/xmlschemas/TrackPointExtension/v1">
            <gpxtpx:hr>147</gpxtpx:hr>
          </gpxtpx:TrackPointExtension>
        </extensions>
      </trkpt>
      <trkpt lat="44.16648" lon="5.27844">
        <ele>1549.8</ele>
        <time>2021-06-12T09:18:08Z</time>
        <extensions>
          <gpxtpx:TrackPointExtension xmlns:gpxtpx="http://www.garmin.com/xmlschemas/TrackPointExtension/v1">
            <gpxtpx:hr>147</gpxtpx:hr>
          </gpxtpx:TrackPointExtension>
        </extensions>
      </trkpt>
      <trkpt lat="44.16651" lon="5.27842">
        <ele>1550.6</ele>
        <time>2021-06-12T09:18:13Z</time>
        <extensions>
          <gpxtpx:TrackPointExtension xmlns:gpxtpx="http://www.garmin.com/xmlschemas/TrackPointExtension/v1">
            <gpxtpx:hr>147</gpxtpx:hr>
          </gpxtpx:TrackPointExtension>
        </extensions>
      </trkpt>
      <trkpt lat="44.16653" lon="5.27842">
        <ele>1550.8</ele>
        <time>2021-06-12T09:18:14Z</time>
        <extensions>
          <gpxtpx:TrackPointExtension xmlns:gpxtpx="http://www.garmin.com/xmlschemas/TrackPointExtension/v1">
            <gpxtpx:hr>146</gpxtpx:hr>
          </gpxtpx:TrackPointExtension>
        </extensions>
      </trkpt>
      <trkpt lat="44.16654" lon="5.27842">
        <ele>1551</ele>
        <time>2021-06-12T09:18:15Z</time>
        <extensions>
          <gpxtpx:TrackPointExtension xmlns:gpxtpx="http://www.garmin.com/xmlschemas/TrackPointExtension/v1">
            <gpxtpx:hr>147</gpxtpx:hr>
          </gpxtpx:TrackPointExtension>
        </extensions>
      </trkpt>
      <trkpt lat="44.16656" lon="5.27841">
        <ele>1551.4</ele>
        <time>2021-06-12T09:18:18Z</time>
        <extensions>
          <gpxtpx:TrackPointExtension xmlns:gpxtpx="http://www.garmin.com/xmlschemas/TrackPointExtension/v1">
            <gpxtpx:hr>147</gpxtpx:hr>
          </gpxtpx:TrackPointExtension>
        </extensions>
      </trkpt>
      <trkpt lat="44.16658" lon="5.2784">
        <ele>1552</ele>
        <time>2021-06-12T09:18:22Z</time>
        <extensions>
          <gpxtpx:TrackPointExtension xmlns:gpxtpx="http://www.garmin.com/xmlschemas/TrackPointExtension/v1">
            <gpxtpx:hr>146</gpxtpx:hr>
          </gpxtpx:TrackPointExtension>
        </extensions>
      </trkpt>
      <trkpt lat="44.16659" lon="5.2784">
        <ele>1552.4</ele>
        <time>2021-06-12T09:18:24Z</time>
        <extensions>
          <gpxtpx:TrackPointExtension xmlns:gpxtpx="http://www.garmin.com/xmlschemas/TrackPointExtension/v1">
            <gpxtpx:hr>146</gpxtpx:hr>
          </gpxtpx:TrackPointExtension>
        </extensions>
      </trkpt>
      <trkpt lat="44.16664" lon="5.2784">
        <ele>1553.2</ele>
        <time>2021-06-12T09:18:29Z</time>
        <extensions>
          <gpxtpx:TrackPointExtension xmlns:gpxtpx="http://www.garmin.com/xmlschemas/TrackPointExtension/v1">
            <gpxtpx:hr>146</gpxtpx:hr>
          </gpxtpx:TrackPointExtension>
        </extensions>
      </trkpt>
      <trkpt lat="44.16668" lon="5.27837">
        <ele>1554.2</ele>
        <time>2021-06-12T09:18:34Z</time>
        <extensions>
          <gpxtpx:TrackPointExtension xmlns:gpxtpx="http://www.garmin.com/xmlschemas/TrackPointExtension/v1">
            <gpxtpx:hr>145</gpxtpx:hr>
          </gpxtpx:TrackPointExtension>
        </extensions>
      </trkpt>
      <trkpt lat="44.16673" lon="5.27834">
        <ele>1555.4</ele>
        <time>2021-06-12T09:18:40Z</time>
        <extensions>
          <gpxtpx:TrackPointExtension xmlns:gpxtpx="http://www.garmin.com/xmlschemas/TrackPointExtension/v1">
            <gpxtpx:hr>146</gpxtpx:hr>
          </gpxtpx:TrackPointExtension>
        </extensions>
      </trkpt>
      <trkpt lat="44.16677" lon="5.27832">
        <ele>1556.6</ele>
        <time>2021-06-12T09:18:47Z</time>
        <extensions>
          <gpxtpx:TrackPointExtension xmlns:gpxtpx="http://www.garmin.com/xmlschemas/TrackPointExtension/v1">
            <gpxtpx:hr>146</gpxtpx:hr>
          </gpxtpx:TrackPointExtension>
        </extensions>
      </trkpt>
      <trkpt lat="44.16683" lon="5.27828">
        <ele>1557.8</ele>
        <time>2021-06-12T09:18:55Z</time>
        <extensions>
          <gpxtpx:TrackPointExtension xmlns:gpxtpx="http://www.garmin.com/xmlschemas/TrackPointExtension/v1">
            <gpxtpx:hr>147</gpxtpx:hr>
          </gpxtpx:TrackPointExtension>
        </extensions>
      </trkpt>
      <trkpt lat="44.16685" lon="5.27828">
        <ele>1558.2</ele>
        <time>2021-06-12T09:18:57Z</time>
        <extensions>
          <gpxtpx:TrackPointExtension xmlns:gpxtpx="http://www.garmin.com/xmlschemas/TrackPointExtension/v1">
            <gpxtpx:hr>148</gpxtpx:hr>
          </gpxtpx:TrackPointExtension>
        </extensions>
      </trkpt>
      <trkpt lat="44.16686" lon="5.2783">
        <ele>1558.8</ele>
        <time>2021-06-12T09:19:01Z</time>
        <extensions>
          <gpxtpx:TrackPointExtension xmlns:gpxtpx="http://www.garmin.com/xmlschemas/TrackPointExtension/v1">
            <gpxtpx:hr>148</gpxtpx:hr>
          </gpxtpx:TrackPointExtension>
        </extensions>
      </trkpt>
      <trkpt lat="44.16688" lon="5.27834">
        <ele>1559.8</ele>
        <time>2021-06-12T09:19:06Z</time>
        <extensions>
          <gpxtpx:TrackPointExtension xmlns:gpxtpx="http://www.garmin.com/xmlschemas/TrackPointExtension/v1">
            <gpxtpx:hr>146</gpxtpx:hr>
          </gpxtpx:TrackPointExtension>
        </extensions>
      </trkpt>
      <trkpt lat="44.16689" lon="5.27835">
        <ele>1560</ele>
        <time>2021-06-12T09:19:07Z</time>
        <extensions>
          <gpxtpx:TrackPointExtension xmlns:gpxtpx="http://www.garmin.com/xmlschemas/TrackPointExtension/v1">
            <gpxtpx:hr>145</gpxtpx:hr>
          </gpxtpx:TrackPointExtension>
        </extensions>
      </trkpt>
      <trkpt lat="44.16693" lon="5.2784">
        <ele>1561</ele>
        <time>2021-06-12T09:19:13Z</time>
        <extensions>
          <gpxtpx:TrackPointExtension xmlns:gpxtpx="http://www.garmin.com/xmlschemas/TrackPointExtension/v1">
            <gpxtpx:hr>145</gpxtpx:hr>
          </gpxtpx:TrackPointExtension>
        </extensions>
      </trkpt>
      <trkpt lat="44.16696" lon="5.27845">
        <ele>1562.2</ele>
        <time>2021-06-12T09:19:19Z</time>
        <extensions>
          <gpxtpx:TrackPointExtension xmlns:gpxtpx="http://www.garmin.com/xmlschemas/TrackPointExtension/v1">
            <gpxtpx:hr>145</gpxtpx:hr>
          </gpxtpx:TrackPointExtension>
        </extensions>
      </trkpt>
      <trkpt lat="44.16699" lon="5.27851">
        <ele>1563.2</ele>
        <time>2021-06-12T09:19:25Z</time>
        <extensions>
          <gpxtpx:TrackPointExtension xmlns:gpxtpx="http://www.garmin.com/xmlschemas/TrackPointExtension/v1">
            <gpxtpx:hr>144</gpxtpx:hr>
          </gpxtpx:TrackPointExtension>
        </extensions>
      </trkpt>
      <trkpt lat="44.16703" lon="5.27853">
        <ele>1564.4</ele>
        <time>2021-06-12T09:19:32Z</time>
        <extensions>
          <gpxtpx:TrackPointExtension xmlns:gpxtpx="http://www.garmin.com/xmlschemas/TrackPointExtension/v1">
            <gpxtpx:hr>144</gpxtpx:hr>
          </gpxtpx:TrackPointExtension>
        </extensions>
      </trkpt>
      <trkpt lat="44.16706" lon="5.27859">
        <ele>1565.4</ele>
        <time>2021-06-12T09:19:38Z</time>
        <extensions>
          <gpxtpx:TrackPointExtension xmlns:gpxtpx="http://www.garmin.com/xmlschemas/TrackPointExtension/v1">
            <gpxtpx:hr>145</gpxtpx:hr>
          </gpxtpx:TrackPointExtension>
        </extensions>
      </trkpt>
      <trkpt lat="44.16708" lon="5.27863">
        <ele>1566</ele>
        <time>2021-06-12T09:19:41Z</time>
        <extensions>
          <gpxtpx:TrackPointExtension xmlns:gpxtpx="http://www.garmin.com/xmlschemas/TrackPointExtension/v1">
            <gpxtpx:hr>146</gpxtpx:hr>
          </gpxtpx:TrackPointExtension>
        </extensions>
      </trkpt>
      <trkpt lat="44.1671" lon="5.2787">
        <ele>1566.6</ele>
        <time>2021-06-12T09:19:46Z</time>
        <extensions>
          <gpxtpx:TrackPointExtension xmlns:gpxtpx="http://www.garmin.com/xmlschemas/TrackPointExtension/v1">
            <gpxtpx:hr>147</gpxtpx:hr>
          </gpxtpx:TrackPointExtension>
        </extensions>
      </trkpt>
      <trkpt lat="44.16709" lon="5.27873">
        <ele>1567</ele>
        <time>2021-06-12T09:19:49Z</time>
        <extensions>
          <gpxtpx:TrackPointExtension xmlns:gpxtpx="http://www.garmin.com/xmlschemas/TrackPointExtension/v1">
            <gpxtpx:hr>146</gpxtpx:hr>
          </gpxtpx:TrackPointExtension>
        </extensions>
      </trkpt>
      <trkpt lat="44.16709" lon="5.27873">
        <ele>1567</ele>
        <time>2021-06-12T09:19:50Z</time>
        <extensions>
          <gpxtpx:TrackPointExtension xmlns:gpxtpx="http://www.garmin.com/xmlschemas/TrackPointExtension/v1">
            <gpxtpx:hr>146</gpxtpx:hr>
          </gpxtpx:TrackPointExtension>
        </extensions>
      </trkpt>
      <trkpt lat="44.16709" lon="5.27873">
        <ele>1567.2</ele>
        <time>2021-06-12T09:19:51Z</time>
        <extensions>
          <gpxtpx:TrackPointExtension xmlns:gpxtpx="http://www.garmin.com/xmlschemas/TrackPointExtension/v1">
            <gpxtpx:hr>146</gpxtpx:hr>
          </gpxtpx:TrackPointExtension>
        </extensions>
      </trkpt>
      <trkpt lat="44.1671" lon="5.27874">
        <ele>1567.6</ele>
        <time>2021-06-12T09:19:53Z</time>
        <extensions>
          <gpxtpx:TrackPointExtension xmlns:gpxtpx="http://www.garmin.com/xmlschemas/TrackPointExtension/v1">
            <gpxtpx:hr>146</gpxtpx:hr>
          </gpxtpx:TrackPointExtension>
        </extensions>
      </trkpt>
      <trkpt lat="44.1671" lon="5.27874">
        <ele>1567.8</ele>
        <time>2021-06-12T09:19:54Z</time>
        <extensions>
          <gpxtpx:TrackPointExtension xmlns:gpxtpx="http://www.garmin.com/xmlschemas/TrackPointExtension/v1">
            <gpxtpx:hr>146</gpxtpx:hr>
          </gpxtpx:TrackPointExtension>
        </extensions>
      </trkpt>
      <trkpt lat="44.16713" lon="5.27878">
        <ele>1568.6</ele>
        <time>2021-06-12T09:19:59Z</time>
        <extensions>
          <gpxtpx:TrackPointExtension xmlns:gpxtpx="http://www.garmin.com/xmlschemas/TrackPointExtension/v1">
            <gpxtpx:hr>144</gpxtpx:hr>
          </gpxtpx:TrackPointExtension>
        </extensions>
      </trkpt>
      <trkpt lat="44.16715" lon="5.27881">
        <ele>1569.6</ele>
        <time>2021-06-12T09:20:04Z</time>
        <extensions>
          <gpxtpx:TrackPointExtension xmlns:gpxtpx="http://www.garmin.com/xmlschemas/TrackPointExtension/v1">
            <gpxtpx:hr>143</gpxtpx:hr>
          </gpxtpx:TrackPointExtension>
        </extensions>
      </trkpt>
      <trkpt lat="44.16715" lon="5.27882">
        <ele>1569.8</ele>
        <time>2021-06-12T09:20:05Z</time>
        <extensions>
          <gpxtpx:TrackPointExtension xmlns:gpxtpx="http://www.garmin.com/xmlschemas/TrackPointExtension/v1">
            <gpxtpx:hr>143</gpxtpx:hr>
          </gpxtpx:TrackPointExtension>
        </extensions>
      </trkpt>
      <trkpt lat="44.16716" lon="5.27882">
        <ele>1570</ele>
        <time>2021-06-12T09:20:06Z</time>
        <extensions>
          <gpxtpx:TrackPointExtension xmlns:gpxtpx="http://www.garmin.com/xmlschemas/TrackPointExtension/v1">
            <gpxtpx:hr>143</gpxtpx:hr>
          </gpxtpx:TrackPointExtension>
        </extensions>
      </trkpt>
      <trkpt lat="44.16719" lon="5.27884">
        <ele>1571.2</ele>
        <time>2021-06-12T09:20:11Z</time>
        <extensions>
          <gpxtpx:TrackPointExtension xmlns:gpxtpx="http://www.garmin.com/xmlschemas/TrackPointExtension/v1">
            <gpxtpx:hr>143</gpxtpx:hr>
          </gpxtpx:TrackPointExtension>
        </extensions>
      </trkpt>
      <trkpt lat="44.16722" lon="5.2789">
        <ele>1572.2</ele>
        <time>2021-06-12T09:20:17Z</time>
        <extensions>
          <gpxtpx:TrackPointExtension xmlns:gpxtpx="http://www.garmin.com/xmlschemas/TrackPointExtension/v1">
            <gpxtpx:hr>144</gpxtpx:hr>
          </gpxtpx:TrackPointExtension>
        </extensions>
      </trkpt>
      <trkpt lat="44.16726" lon="5.27896">
        <ele>1573</ele>
        <time>2021-06-12T09:20:25Z</time>
        <extensions>
          <gpxtpx:TrackPointExtension xmlns:gpxtpx="http://www.garmin.com/xmlschemas/TrackPointExtension/v1">
            <gpxtpx:hr>145</gpxtpx:hr>
          </gpxtpx:TrackPointExtension>
        </extensions>
      </trkpt>
      <trkpt lat="44.16727" lon="5.27897">
        <ele>1573.4</ele>
        <time>2021-06-12T09:20:26Z</time>
        <extensions>
          <gpxtpx:TrackPointExtension xmlns:gpxtpx="http://www.garmin.com/xmlschemas/TrackPointExtension/v1">
            <gpxtpx:hr>146</gpxtpx:hr>
          </gpxtpx:TrackPointExtension>
        </extensions>
      </trkpt>
      <trkpt lat="44.16729" lon="5.27899">
        <ele>1573.8</ele>
        <time>2021-06-12T09:20:28Z</time>
        <extensions>
          <gpxtpx:TrackPointExtension xmlns:gpxtpx="http://www.garmin.com/xmlschemas/TrackPointExtension/v1">
            <gpxtpx:hr>144</gpxtpx:hr>
          </gpxtpx:TrackPointExtension>
        </extensions>
      </trkpt>
      <trkpt lat="44.16731" lon="5.27902">
        <ele>1574.4</ele>
        <time>2021-06-12T09:20:31Z</time>
        <extensions>
          <gpxtpx:TrackPointExtension xmlns:gpxtpx="http://www.garmin.com/xmlschemas/TrackPointExtension/v1">
            <gpxtpx:hr>144</gpxtpx:hr>
          </gpxtpx:TrackPointExtension>
        </extensions>
      </trkpt>
      <trkpt lat="44.16732" lon="5.27904">
        <ele>1574.6</ele>
        <time>2021-06-12T09:20:33Z</time>
        <extensions>
          <gpxtpx:TrackPointExtension xmlns:gpxtpx="http://www.garmin.com/xmlschemas/TrackPointExtension/v1">
            <gpxtpx:hr>144</gpxtpx:hr>
          </gpxtpx:TrackPointExtension>
        </extensions>
      </trkpt>
      <trkpt lat="44.16732" lon="5.27906">
        <ele>1574.8</ele>
        <time>2021-06-12T09:20:34Z</time>
        <extensions>
          <gpxtpx:TrackPointExtension xmlns:gpxtpx="http://www.garmin.com/xmlschemas/TrackPointExtension/v1">
            <gpxtpx:hr>144</gpxtpx:hr>
          </gpxtpx:TrackPointExtension>
        </extensions>
      </trkpt>
      <trkpt lat="44.16733" lon="5.27907">
        <ele>1575</ele>
        <time>2021-06-12T09:20:35Z</time>
        <extensions>
          <gpxtpx:TrackPointExtension xmlns:gpxtpx="http://www.garmin.com/xmlschemas/TrackPointExtension/v1">
            <gpxtpx:hr>144</gpxtpx:hr>
          </gpxtpx:TrackPointExtension>
        </extensions>
      </trkpt>
      <trkpt lat="44.16732" lon="5.27909">
        <ele>1575.4</ele>
        <time>2021-06-12T09:20:38Z</time>
        <extensions>
          <gpxtpx:TrackPointExtension xmlns:gpxtpx="http://www.garmin.com/xmlschemas/TrackPointExtension/v1">
            <gpxtpx:hr>144</gpxtpx:hr>
          </gpxtpx:TrackPointExtension>
        </extensions>
      </trkpt>
      <trkpt lat="44.16733" lon="5.27909">
        <ele>1575.6</ele>
        <time>2021-06-12T09:20:39Z</time>
        <extensions>
          <gpxtpx:TrackPointExtension xmlns:gpxtpx="http://www.garmin.com/xmlschemas/TrackPointExtension/v1">
            <gpxtpx:hr>144</gpxtpx:hr>
          </gpxtpx:TrackPointExtension>
        </extensions>
      </trkpt>
      <trkpt lat="44.16734" lon="5.27913">
        <ele>1576.4</ele>
        <time>2021-06-12T09:20:44Z</time>
        <extensions>
          <gpxtpx:TrackPointExtension xmlns:gpxtpx="http://www.garmin.com/xmlschemas/TrackPointExtension/v1">
            <gpxtpx:hr>144</gpxtpx:hr>
          </gpxtpx:TrackPointExtension>
        </extensions>
      </trkpt>
      <trkpt lat="44.16735" lon="5.27914">
        <ele>1576.6</ele>
        <time>2021-06-12T09:20:45Z</time>
        <extensions>
          <gpxtpx:TrackPointExtension xmlns:gpxtpx="http://www.garmin.com/xmlschemas/TrackPointExtension/v1">
            <gpxtpx:hr>144</gpxtpx:hr>
          </gpxtpx:TrackPointExtension>
        </extensions>
      </trkpt>
      <trkpt lat="44.16736" lon="5.27916">
        <ele>1576.8</ele>
        <time>2021-06-12T09:20:47Z</time>
        <extensions>
          <gpxtpx:TrackPointExtension xmlns:gpxtpx="http://www.garmin.com/xmlschemas/TrackPointExtension/v1">
            <gpxtpx:hr>145</gpxtpx:hr>
          </gpxtpx:TrackPointExtension>
        </extensions>
      </trkpt>
      <trkpt lat="44.16738" lon="5.27918">
        <ele>1577.6</ele>
        <time>2021-06-12T09:20:51Z</time>
        <extensions>
          <gpxtpx:TrackPointExtension xmlns:gpxtpx="http://www.garmin.com/xmlschemas/TrackPointExtension/v1">
            <gpxtpx:hr>145</gpxtpx:hr>
          </gpxtpx:TrackPointExtension>
        </extensions>
      </trkpt>
      <trkpt lat="44.16743" lon="5.2792">
        <ele>1578.8</ele>
        <time>2021-06-12T09:20:59Z</time>
        <extensions>
          <gpxtpx:TrackPointExtension xmlns:gpxtpx="http://www.garmin.com/xmlschemas/TrackPointExtension/v1">
            <gpxtpx:hr>145</gpxtpx:hr>
          </gpxtpx:TrackPointExtension>
        </extensions>
      </trkpt>
      <trkpt lat="44.16746" lon="5.27918">
        <ele>1580</ele>
        <time>2021-06-12T09:21:04Z</time>
        <extensions>
          <gpxtpx:TrackPointExtension xmlns:gpxtpx="http://www.garmin.com/xmlschemas/TrackPointExtension/v1">
            <gpxtpx:hr>144</gpxtpx:hr>
          </gpxtpx:TrackPointExtension>
        </extensions>
      </trkpt>
      <trkpt lat="44.16747" lon="5.27917">
        <ele>1580.4</ele>
        <time>2021-06-12T09:21:06Z</time>
        <extensions>
          <gpxtpx:TrackPointExtension xmlns:gpxtpx="http://www.garmin.com/xmlschemas/TrackPointExtension/v1">
            <gpxtpx:hr>144</gpxtpx:hr>
          </gpxtpx:TrackPointExtension>
        </extensions>
      </trkpt>
      <trkpt lat="44.1675" lon="5.27913">
        <ele>1581.2</ele>
        <time>2021-06-12T09:21:12Z</time>
        <extensions>
          <gpxtpx:TrackPointExtension xmlns:gpxtpx="http://www.garmin.com/xmlschemas/TrackPointExtension/v1">
            <gpxtpx:hr>143</gpxtpx:hr>
          </gpxtpx:TrackPointExtension>
        </extensions>
      </trkpt>
      <trkpt lat="44.16753" lon="5.27915">
        <ele>1581.8</ele>
        <time>2021-06-12T09:21:15Z</time>
        <extensions>
          <gpxtpx:TrackPointExtension xmlns:gpxtpx="http://www.garmin.com/xmlschemas/TrackPointExtension/v1">
            <gpxtpx:hr>144</gpxtpx:hr>
          </gpxtpx:TrackPointExtension>
        </extensions>
      </trkpt>
      <trkpt lat="44.16754" lon="5.27916">
        <ele>1582.2</ele>
        <time>2021-06-12T09:21:17Z</time>
        <extensions>
          <gpxtpx:TrackPointExtension xmlns:gpxtpx="http://www.garmin.com/xmlschemas/TrackPointExtension/v1">
            <gpxtpx:hr>145</gpxtpx:hr>
          </gpxtpx:TrackPointExtension>
        </extensions>
      </trkpt>
      <trkpt lat="44.16757" lon="5.27917">
        <ele>1582.8</ele>
        <time>2021-06-12T09:21:20Z</time>
        <extensions>
          <gpxtpx:TrackPointExtension xmlns:gpxtpx="http://www.garmin.com/xmlschemas/TrackPointExtension/v1">
            <gpxtpx:hr>145</gpxtpx:hr>
          </gpxtpx:TrackPointExtension>
        </extensions>
      </trkpt>
      <trkpt lat="44.16757" lon="5.27918">
        <ele>1583</ele>
        <time>2021-06-12T09:21:22Z</time>
        <extensions>
          <gpxtpx:TrackPointExtension xmlns:gpxtpx="http://www.garmin.com/xmlschemas/TrackPointExtension/v1">
            <gpxtpx:hr>145</gpxtpx:hr>
          </gpxtpx:TrackPointExtension>
        </extensions>
      </trkpt>
      <trkpt lat="44.16758" lon="5.27919">
        <ele>1583.2</ele>
        <time>2021-06-12T09:21:23Z</time>
        <extensions>
          <gpxtpx:TrackPointExtension xmlns:gpxtpx="http://www.garmin.com/xmlschemas/TrackPointExtension/v1">
            <gpxtpx:hr>145</gpxtpx:hr>
          </gpxtpx:TrackPointExtension>
        </extensions>
      </trkpt>
      <trkpt lat="44.16761" lon="5.27915">
        <ele>1584.4</ele>
        <time>2021-06-12T09:21:29Z</time>
        <extensions>
          <gpxtpx:TrackPointExtension xmlns:gpxtpx="http://www.garmin.com/xmlschemas/TrackPointExtension/v1">
            <gpxtpx:hr>146</gpxtpx:hr>
          </gpxtpx:TrackPointExtension>
        </extensions>
      </trkpt>
      <trkpt lat="44.16764" lon="5.27905">
        <ele>1585.4</ele>
        <time>2021-06-12T09:21:37Z</time>
        <extensions>
          <gpxtpx:TrackPointExtension xmlns:gpxtpx="http://www.garmin.com/xmlschemas/TrackPointExtension/v1">
            <gpxtpx:hr>145</gpxtpx:hr>
          </gpxtpx:TrackPointExtension>
        </extensions>
      </trkpt>
      <trkpt lat="44.16764" lon="5.27904">
        <ele>1585.6</ele>
        <time>2021-06-12T09:21:38Z</time>
        <extensions>
          <gpxtpx:TrackPointExtension xmlns:gpxtpx="http://www.garmin.com/xmlschemas/TrackPointExtension/v1">
            <gpxtpx:hr>145</gpxtpx:hr>
          </gpxtpx:TrackPointExtension>
        </extensions>
      </trkpt>
      <trkpt lat="44.16763" lon="5.27899">
        <ele>1585.8</ele>
        <time>2021-06-12T09:21:41Z</time>
        <extensions>
          <gpxtpx:TrackPointExtension xmlns:gpxtpx="http://www.garmin.com/xmlschemas/TrackPointExtension/v1">
            <gpxtpx:hr>145</gpxtpx:hr>
          </gpxtpx:TrackPointExtension>
        </extensions>
      </trkpt>
      <trkpt lat="44.16766" lon="5.27888">
        <ele>1586.6</ele>
        <time>2021-06-12T09:21:48Z</time>
        <extensions>
          <gpxtpx:TrackPointExtension xmlns:gpxtpx="http://www.garmin.com/xmlschemas/TrackPointExtension/v1">
            <gpxtpx:hr>144</gpxtpx:hr>
          </gpxtpx:TrackPointExtension>
        </extensions>
      </trkpt>
      <trkpt lat="44.16766" lon="5.27887">
        <ele>1586.8</ele>
        <time>2021-06-12T09:21:49Z</time>
        <extensions>
          <gpxtpx:TrackPointExtension xmlns:gpxtpx="http://www.garmin.com/xmlschemas/TrackPointExtension/v1">
            <gpxtpx:hr>144</gpxtpx:hr>
          </gpxtpx:TrackPointExtension>
        </extensions>
      </trkpt>
      <trkpt lat="44.16768" lon="5.27879">
        <ele>1587.6</ele>
        <time>2021-06-12T09:21:55Z</time>
        <extensions>
          <gpxtpx:TrackPointExtension xmlns:gpxtpx="http://www.garmin.com/xmlschemas/TrackPointExtension/v1">
            <gpxtpx:hr>143</gpxtpx:hr>
          </gpxtpx:TrackPointExtension>
        </extensions>
      </trkpt>
      <trkpt lat="44.16767" lon="5.27872">
        <ele>1587.8</ele>
        <time>2021-06-12T09:21:59Z</time>
        <extensions>
          <gpxtpx:TrackPointExtension xmlns:gpxtpx="http://www.garmin.com/xmlschemas/TrackPointExtension/v1">
            <gpxtpx:hr>141</gpxtpx:hr>
          </gpxtpx:TrackPointExtension>
        </extensions>
      </trkpt>
      <trkpt lat="44.16769" lon="5.27865">
        <ele>1587.8</ele>
        <time>2021-06-12T09:22:04Z</time>
        <extensions>
          <gpxtpx:TrackPointExtension xmlns:gpxtpx="http://www.garmin.com/xmlschemas/TrackPointExtension/v1">
            <gpxtpx:hr>140</gpxtpx:hr>
          </gpxtpx:TrackPointExtension>
        </extensions>
      </trkpt>
      <trkpt lat="44.16774" lon="5.27858">
        <ele>1588.4</ele>
        <time>2021-06-12T09:22:11Z</time>
        <extensions>
          <gpxtpx:TrackPointExtension xmlns:gpxtpx="http://www.garmin.com/xmlschemas/TrackPointExtension/v1">
            <gpxtpx:hr>139</gpxtpx:hr>
          </gpxtpx:TrackPointExtension>
        </extensions>
      </trkpt>
      <trkpt lat="44.16776" lon="5.27855">
        <ele>1588.6</ele>
        <time>2021-06-12T09:22:13Z</time>
        <extensions>
          <gpxtpx:TrackPointExtension xmlns:gpxtpx="http://www.garmin.com/xmlschemas/TrackPointExtension/v1">
            <gpxtpx:hr>139</gpxtpx:hr>
          </gpxtpx:TrackPointExtension>
        </extensions>
      </trkpt>
      <trkpt lat="44.16779" lon="5.27849">
        <ele>1589.8</ele>
        <time>2021-06-12T09:22:20Z</time>
        <extensions>
          <gpxtpx:TrackPointExtension xmlns:gpxtpx="http://www.garmin.com/xmlschemas/TrackPointExtension/v1">
            <gpxtpx:hr>138</gpxtpx:hr>
          </gpxtpx:TrackPointExtension>
        </extensions>
      </trkpt>
      <trkpt lat="44.16782" lon="5.27847">
        <ele>1590.4</ele>
        <time>2021-06-12T09:22:23Z</time>
        <extensions>
          <gpxtpx:TrackPointExtension xmlns:gpxtpx="http://www.garmin.com/xmlschemas/TrackPointExtension/v1">
            <gpxtpx:hr>139</gpxtpx:hr>
          </gpxtpx:TrackPointExtension>
        </extensions>
      </trkpt>
      <trkpt lat="44.16782" lon="5.27845">
        <ele>1590.8</ele>
        <time>2021-06-12T09:22:25Z</time>
        <extensions>
          <gpxtpx:TrackPointExtension xmlns:gpxtpx="http://www.garmin.com/xmlschemas/TrackPointExtension/v1">
            <gpxtpx:hr>139</gpxtpx:hr>
          </gpxtpx:TrackPointExtension>
        </extensions>
      </trkpt>
      <trkpt lat="44.16785" lon="5.27841">
        <ele>1591.4</ele>
        <time>2021-06-12T09:22:29Z</time>
        <extensions>
          <gpxtpx:TrackPointExtension xmlns:gpxtpx="http://www.garmin.com/xmlschemas/TrackPointExtension/v1">
            <gpxtpx:hr>140</gpxtpx:hr>
          </gpxtpx:TrackPointExtension>
        </extensions>
      </trkpt>
      <trkpt lat="44.16785" lon="5.2784">
        <ele>1591.8</ele>
        <time>2021-06-12T09:22:31Z</time>
        <extensions>
          <gpxtpx:TrackPointExtension xmlns:gpxtpx="http://www.garmin.com/xmlschemas/TrackPointExtension/v1">
            <gpxtpx:hr>141</gpxtpx:hr>
          </gpxtpx:TrackPointExtension>
        </extensions>
      </trkpt>
      <trkpt lat="44.16786" lon="5.27837">
        <ele>1592.2</ele>
        <time>2021-06-12T09:22:33Z</time>
        <extensions>
          <gpxtpx:TrackPointExtension xmlns:gpxtpx="http://www.garmin.com/xmlschemas/TrackPointExtension/v1">
            <gpxtpx:hr>142</gpxtpx:hr>
          </gpxtpx:TrackPointExtension>
        </extensions>
      </trkpt>
      <trkpt lat="44.16786" lon="5.27834">
        <ele>1592.6</ele>
        <time>2021-06-12T09:22:35Z</time>
        <extensions>
          <gpxtpx:TrackPointExtension xmlns:gpxtpx="http://www.garmin.com/xmlschemas/TrackPointExtension/v1">
            <gpxtpx:hr>142</gpxtpx:hr>
          </gpxtpx:TrackPointExtension>
        </extensions>
      </trkpt>
      <trkpt lat="44.16787" lon="5.27833">
        <ele>1592.8</ele>
        <time>2021-06-12T09:22:36Z</time>
        <extensions>
          <gpxtpx:TrackPointExtension xmlns:gpxtpx="http://www.garmin.com/xmlschemas/TrackPointExtension/v1">
            <gpxtpx:hr>142</gpxtpx:hr>
          </gpxtpx:TrackPointExtension>
        </extensions>
      </trkpt>
      <trkpt lat="44.16788" lon="5.27832">
        <ele>1592.8</ele>
        <time>2021-06-12T09:22:37Z</time>
        <extensions>
          <gpxtpx:TrackPointExtension xmlns:gpxtpx="http://www.garmin.com/xmlschemas/TrackPointExtension/v1">
            <gpxtpx:hr>142</gpxtpx:hr>
          </gpxtpx:TrackPointExtension>
        </extensions>
      </trkpt>
      <trkpt lat="44.16788" lon="5.27832">
        <ele>1593</ele>
        <time>2021-06-12T09:22:38Z</time>
        <extensions>
          <gpxtpx:TrackPointExtension xmlns:gpxtpx="http://www.garmin.com/xmlschemas/TrackPointExtension/v1">
            <gpxtpx:hr>142</gpxtpx:hr>
          </gpxtpx:TrackPointExtension>
        </extensions>
      </trkpt>
      <trkpt lat="44.16789" lon="5.27832">
        <ele>1593.2</ele>
        <time>2021-06-12T09:22:39Z</time>
        <extensions>
          <gpxtpx:TrackPointExtension xmlns:gpxtpx="http://www.garmin.com/xmlschemas/TrackPointExtension/v1">
            <gpxtpx:hr>142</gpxtpx:hr>
          </gpxtpx:TrackPointExtension>
        </extensions>
      </trkpt>
      <trkpt lat="44.16791" lon="5.27829">
        <ele>1594</ele>
        <time>2021-06-12T09:22:43Z</time>
        <extensions>
          <gpxtpx:TrackPointExtension xmlns:gpxtpx="http://www.garmin.com/xmlschemas/TrackPointExtension/v1">
            <gpxtpx:hr>143</gpxtpx:hr>
          </gpxtpx:TrackPointExtension>
        </extensions>
      </trkpt>
      <trkpt lat="44.16792" lon="5.27827">
        <ele>1594.4</ele>
        <time>2021-06-12T09:22:44Z</time>
        <extensions>
          <gpxtpx:TrackPointExtension xmlns:gpxtpx="http://www.garmin.com/xmlschemas/TrackPointExtension/v1">
            <gpxtpx:hr>143</gpxtpx:hr>
          </gpxtpx:TrackPointExtension>
        </extensions>
      </trkpt>
      <trkpt lat="44.16792" lon="5.27824">
        <ele>1594.8</ele>
        <time>2021-06-12T09:22:46Z</time>
        <extensions>
          <gpxtpx:TrackPointExtension xmlns:gpxtpx="http://www.garmin.com/xmlschemas/TrackPointExtension/v1">
            <gpxtpx:hr>145</gpxtpx:hr>
          </gpxtpx:TrackPointExtension>
        </extensions>
      </trkpt>
      <trkpt lat="44.16793" lon="5.27823">
        <ele>1595.2</ele>
        <time>2021-06-12T09:22:48Z</time>
        <extensions>
          <gpxtpx:TrackPointExtension xmlns:gpxtpx="http://www.garmin.com/xmlschemas/TrackPointExtension/v1">
            <gpxtpx:hr>145</gpxtpx:hr>
          </gpxtpx:TrackPointExtension>
        </extensions>
      </trkpt>
      <trkpt lat="44.16793" lon="5.27821">
        <ele>1595.4</ele>
        <time>2021-06-12T09:22:50Z</time>
        <extensions>
          <gpxtpx:TrackPointExtension xmlns:gpxtpx="http://www.garmin.com/xmlschemas/TrackPointExtension/v1">
            <gpxtpx:hr>146</gpxtpx:hr>
          </gpxtpx:TrackPointExtension>
        </extensions>
      </trkpt>
      <trkpt lat="44.16793" lon="5.27816">
        <ele>1596.2</ele>
        <time>2021-06-12T09:22:54Z</time>
        <extensions>
          <gpxtpx:TrackPointExtension xmlns:gpxtpx="http://www.garmin.com/xmlschemas/TrackPointExtension/v1">
            <gpxtpx:hr>146</gpxtpx:hr>
          </gpxtpx:TrackPointExtension>
        </extensions>
      </trkpt>
      <trkpt lat="44.16793" lon="5.27814">
        <ele>1596.4</ele>
        <time>2021-06-12T09:22:55Z</time>
        <extensions>
          <gpxtpx:TrackPointExtension xmlns:gpxtpx="http://www.garmin.com/xmlschemas/TrackPointExtension/v1">
            <gpxtpx:hr>146</gpxtpx:hr>
          </gpxtpx:TrackPointExtension>
        </extensions>
      </trkpt>
      <trkpt lat="44.16793" lon="5.27808">
        <ele>1597.2</ele>
        <time>2021-06-12T09:23:00Z</time>
        <extensions>
          <gpxtpx:TrackPointExtension xmlns:gpxtpx="http://www.garmin.com/xmlschemas/TrackPointExtension/v1">
            <gpxtpx:hr>146</gpxtpx:hr>
          </gpxtpx:TrackPointExtension>
        </extensions>
      </trkpt>
      <trkpt lat="44.16793" lon="5.27806">
        <ele>1597.4</ele>
        <time>2021-06-12T09:23:01Z</time>
        <extensions>
          <gpxtpx:TrackPointExtension xmlns:gpxtpx="http://www.garmin.com/xmlschemas/TrackPointExtension/v1">
            <gpxtpx:hr>147</gpxtpx:hr>
          </gpxtpx:TrackPointExtension>
        </extensions>
      </trkpt>
      <trkpt lat="44.16793" lon="5.278">
        <ele>1598</ele>
        <time>2021-06-12T09:23:05Z</time>
        <extensions>
          <gpxtpx:TrackPointExtension xmlns:gpxtpx="http://www.garmin.com/xmlschemas/TrackPointExtension/v1">
            <gpxtpx:hr>146</gpxtpx:hr>
          </gpxtpx:TrackPointExtension>
        </extensions>
      </trkpt>
      <trkpt lat="44.16794" lon="5.27797">
        <ele>1598.4</ele>
        <time>2021-06-12T09:23:07Z</time>
        <extensions>
          <gpxtpx:TrackPointExtension xmlns:gpxtpx="http://www.garmin.com/xmlschemas/TrackPointExtension/v1">
            <gpxtpx:hr>146</gpxtpx:hr>
          </gpxtpx:TrackPointExtension>
        </extensions>
      </trkpt>
      <trkpt lat="44.16794" lon="5.27792">
        <ele>1599.2</ele>
        <time>2021-06-12T09:23:12Z</time>
        <extensions>
          <gpxtpx:TrackPointExtension xmlns:gpxtpx="http://www.garmin.com/xmlschemas/TrackPointExtension/v1">
            <gpxtpx:hr>145</gpxtpx:hr>
          </gpxtpx:TrackPointExtension>
        </extensions>
      </trkpt>
      <trkpt lat="44.16794" lon="5.27791">
        <ele>1599.4</ele>
        <time>2021-06-12T09:23:13Z</time>
        <extensions>
          <gpxtpx:TrackPointExtension xmlns:gpxtpx="http://www.garmin.com/xmlschemas/TrackPointExtension/v1">
            <gpxtpx:hr>145</gpxtpx:hr>
          </gpxtpx:TrackPointExtension>
        </extensions>
      </trkpt>
      <trkpt lat="44.16794" lon="5.27789">
        <ele>1599.6</ele>
        <time>2021-06-12T09:23:14Z</time>
        <extensions>
          <gpxtpx:TrackPointExtension xmlns:gpxtpx="http://www.garmin.com/xmlschemas/TrackPointExtension/v1">
            <gpxtpx:hr>145</gpxtpx:hr>
          </gpxtpx:TrackPointExtension>
        </extensions>
      </trkpt>
      <trkpt lat="44.16794" lon="5.27782">
        <ele>1600.2</ele>
        <time>2021-06-12T09:23:18Z</time>
        <extensions>
          <gpxtpx:TrackPointExtension xmlns:gpxtpx="http://www.garmin.com/xmlschemas/TrackPointExtension/v1">
            <gpxtpx:hr>146</gpxtpx:hr>
          </gpxtpx:TrackPointExtension>
        </extensions>
      </trkpt>
      <trkpt lat="44.16794" lon="5.27781">
        <ele>1600.4</ele>
        <time>2021-06-12T09:23:19Z</time>
        <extensions>
          <gpxtpx:TrackPointExtension xmlns:gpxtpx="http://www.garmin.com/xmlschemas/TrackPointExtension/v1">
            <gpxtpx:hr>146</gpxtpx:hr>
          </gpxtpx:TrackPointExtension>
        </extensions>
      </trkpt>
      <trkpt lat="44.16794" lon="5.2778">
        <ele>1600.4</ele>
        <time>2021-06-12T09:23:20Z</time>
        <extensions>
          <gpxtpx:TrackPointExtension xmlns:gpxtpx="http://www.garmin.com/xmlschemas/TrackPointExtension/v1">
            <gpxtpx:hr>147</gpxtpx:hr>
          </gpxtpx:TrackPointExtension>
        </extensions>
      </trkpt>
      <trkpt lat="44.16795" lon="5.27777">
        <ele>1600.8</ele>
        <time>2021-06-12T09:23:23Z</time>
        <extensions>
          <gpxtpx:TrackPointExtension xmlns:gpxtpx="http://www.garmin.com/xmlschemas/TrackPointExtension/v1">
            <gpxtpx:hr>146</gpxtpx:hr>
          </gpxtpx:TrackPointExtension>
        </extensions>
      </trkpt>
      <trkpt lat="44.16795" lon="5.27773">
        <ele>1601.2</ele>
        <time>2021-06-12T09:23:26Z</time>
        <extensions>
          <gpxtpx:TrackPointExtension xmlns:gpxtpx="http://www.garmin.com/xmlschemas/TrackPointExtension/v1">
            <gpxtpx:hr>147</gpxtpx:hr>
          </gpxtpx:TrackPointExtension>
        </extensions>
      </trkpt>
      <trkpt lat="44.16795" lon="5.27769">
        <ele>1601.4</ele>
        <time>2021-06-12T09:23:29Z</time>
        <extensions>
          <gpxtpx:TrackPointExtension xmlns:gpxtpx="http://www.garmin.com/xmlschemas/TrackPointExtension/v1">
            <gpxtpx:hr>144</gpxtpx:hr>
          </gpxtpx:TrackPointExtension>
        </extensions>
      </trkpt>
      <trkpt lat="44.16795" lon="5.27768">
        <ele>1601.4</ele>
        <time>2021-06-12T09:23:30Z</time>
        <extensions>
          <gpxtpx:TrackPointExtension xmlns:gpxtpx="http://www.garmin.com/xmlschemas/TrackPointExtension/v1">
            <gpxtpx:hr>144</gpxtpx:hr>
          </gpxtpx:TrackPointExtension>
        </extensions>
      </trkpt>
      <trkpt lat="44.16795" lon="5.27758">
        <ele>1602.2</ele>
        <time>2021-06-12T09:23:38Z</time>
        <extensions>
          <gpxtpx:TrackPointExtension xmlns:gpxtpx="http://www.garmin.com/xmlschemas/TrackPointExtension/v1">
            <gpxtpx:hr>143</gpxtpx:hr>
          </gpxtpx:TrackPointExtension>
        </extensions>
      </trkpt>
      <trkpt lat="44.16795" lon="5.27755">
        <ele>1602.4</ele>
        <time>2021-06-12T09:23:40Z</time>
        <extensions>
          <gpxtpx:TrackPointExtension xmlns:gpxtpx="http://www.garmin.com/xmlschemas/TrackPointExtension/v1">
            <gpxtpx:hr>142</gpxtpx:hr>
          </gpxtpx:TrackPointExtension>
        </extensions>
      </trkpt>
      <trkpt lat="44.16796" lon="5.27753">
        <ele>1602.6</ele>
        <time>2021-06-12T09:23:42Z</time>
        <extensions>
          <gpxtpx:TrackPointExtension xmlns:gpxtpx="http://www.garmin.com/xmlschemas/TrackPointExtension/v1">
            <gpxtpx:hr>142</gpxtpx:hr>
          </gpxtpx:TrackPointExtension>
        </extensions>
      </trkpt>
      <trkpt lat="44.16796" lon="5.27752">
        <ele>1602.8</ele>
        <time>2021-06-12T09:23:43Z</time>
        <extensions>
          <gpxtpx:TrackPointExtension xmlns:gpxtpx="http://www.garmin.com/xmlschemas/TrackPointExtension/v1">
            <gpxtpx:hr>142</gpxtpx:hr>
          </gpxtpx:TrackPointExtension>
        </extensions>
      </trkpt>
      <trkpt lat="44.16798" lon="5.27746">
        <ele>1603.4</ele>
        <time>2021-06-12T09:23:48Z</time>
        <extensions>
          <gpxtpx:TrackPointExtension xmlns:gpxtpx="http://www.garmin.com/xmlschemas/TrackPointExtension/v1">
            <gpxtpx:hr>142</gpxtpx:hr>
          </gpxtpx:TrackPointExtension>
        </extensions>
      </trkpt>
      <trkpt lat="44.16798" lon="5.27744">
        <ele>1603.6</ele>
        <time>2021-06-12T09:23:50Z</time>
        <extensions>
          <gpxtpx:TrackPointExtension xmlns:gpxtpx="http://www.garmin.com/xmlschemas/TrackPointExtension/v1">
            <gpxtpx:hr>141</gpxtpx:hr>
          </gpxtpx:TrackPointExtension>
        </extensions>
      </trkpt>
      <trkpt lat="44.168" lon="5.27741">
        <ele>1604.4</ele>
        <time>2021-06-12T09:23:53Z</time>
        <extensions>
          <gpxtpx:TrackPointExtension xmlns:gpxtpx="http://www.garmin.com/xmlschemas/TrackPointExtension/v1">
            <gpxtpx:hr>140</gpxtpx:hr>
          </gpxtpx:TrackPointExtension>
        </extensions>
      </trkpt>
      <trkpt lat="44.168" lon="5.27739">
        <ele>1604.8</ele>
        <time>2021-06-12T09:23:55Z</time>
        <extensions>
          <gpxtpx:TrackPointExtension xmlns:gpxtpx="http://www.garmin.com/xmlschemas/TrackPointExtension/v1">
            <gpxtpx:hr>139</gpxtpx:hr>
          </gpxtpx:TrackPointExtension>
        </extensions>
      </trkpt>
      <trkpt lat="44.16802" lon="5.27735">
        <ele>1605.4</ele>
        <time>2021-06-12T09:23:59Z</time>
        <extensions>
          <gpxtpx:TrackPointExtension xmlns:gpxtpx="http://www.garmin.com/xmlschemas/TrackPointExtension/v1">
            <gpxtpx:hr>140</gpxtpx:hr>
          </gpxtpx:TrackPointExtension>
        </extensions>
      </trkpt>
      <trkpt lat="44.16803" lon="5.27732">
        <ele>1606</ele>
        <time>2021-06-12T09:24:03Z</time>
        <extensions>
          <gpxtpx:TrackPointExtension xmlns:gpxtpx="http://www.garmin.com/xmlschemas/TrackPointExtension/v1">
            <gpxtpx:hr>140</gpxtpx:hr>
          </gpxtpx:TrackPointExtension>
        </extensions>
      </trkpt>
      <trkpt lat="44.16806" lon="5.27723">
        <ele>1607</ele>
        <time>2021-06-12T09:24:10Z</time>
        <extensions>
          <gpxtpx:TrackPointExtension xmlns:gpxtpx="http://www.garmin.com/xmlschemas/TrackPointExtension/v1">
            <gpxtpx:hr>141</gpxtpx:hr>
          </gpxtpx:TrackPointExtension>
        </extensions>
      </trkpt>
      <trkpt lat="44.16809" lon="5.27718">
        <ele>1608.2</ele>
        <time>2021-06-12T09:24:16Z</time>
        <extensions>
          <gpxtpx:TrackPointExtension xmlns:gpxtpx="http://www.garmin.com/xmlschemas/TrackPointExtension/v1">
            <gpxtpx:hr>142</gpxtpx:hr>
          </gpxtpx:TrackPointExtension>
        </extensions>
      </trkpt>
      <trkpt lat="44.16811" lon="5.27709">
        <ele>1609.2</ele>
        <time>2021-06-12T09:24:24Z</time>
        <extensions>
          <gpxtpx:TrackPointExtension xmlns:gpxtpx="http://www.garmin.com/xmlschemas/TrackPointExtension/v1">
            <gpxtpx:hr>142</gpxtpx:hr>
          </gpxtpx:TrackPointExtension>
        </extensions>
      </trkpt>
      <trkpt lat="44.16811" lon="5.27706">
        <ele>1609.6</ele>
        <time>2021-06-12T09:24:26Z</time>
        <extensions>
          <gpxtpx:TrackPointExtension xmlns:gpxtpx="http://www.garmin.com/xmlschemas/TrackPointExtension/v1">
            <gpxtpx:hr>142</gpxtpx:hr>
          </gpxtpx:TrackPointExtension>
        </extensions>
      </trkpt>
      <trkpt lat="44.16811" lon="5.27705">
        <ele>1609.6</ele>
        <time>2021-06-12T09:24:27Z</time>
        <extensions>
          <gpxtpx:TrackPointExtension xmlns:gpxtpx="http://www.garmin.com/xmlschemas/TrackPointExtension/v1">
            <gpxtpx:hr>142</gpxtpx:hr>
          </gpxtpx:TrackPointExtension>
        </extensions>
      </trkpt>
      <trkpt lat="44.16812" lon="5.277">
        <ele>1610</ele>
        <time>2021-06-12T09:24:31Z</time>
        <extensions>
          <gpxtpx:TrackPointExtension xmlns:gpxtpx="http://www.garmin.com/xmlschemas/TrackPointExtension/v1">
            <gpxtpx:hr>142</gpxtpx:hr>
          </gpxtpx:TrackPointExtension>
        </extensions>
      </trkpt>
      <trkpt lat="44.16813" lon="5.27698">
        <ele>1610.2</ele>
        <time>2021-06-12T09:24:33Z</time>
        <extensions>
          <gpxtpx:TrackPointExtension xmlns:gpxtpx="http://www.garmin.com/xmlschemas/TrackPointExtension/v1">
            <gpxtpx:hr>142</gpxtpx:hr>
          </gpxtpx:TrackPointExtension>
        </extensions>
      </trkpt>
      <trkpt lat="44.16814" lon="5.27695">
        <ele>1610.6</ele>
        <time>2021-06-12T09:24:35Z</time>
        <extensions>
          <gpxtpx:TrackPointExtension xmlns:gpxtpx="http://www.garmin.com/xmlschemas/TrackPointExtension/v1">
            <gpxtpx:hr>142</gpxtpx:hr>
          </gpxtpx:TrackPointExtension>
        </extensions>
      </trkpt>
      <trkpt lat="44.16814" lon="5.27694">
        <ele>1610.8</ele>
        <time>2021-06-12T09:24:36Z</time>
        <extensions>
          <gpxtpx:TrackPointExtension xmlns:gpxtpx="http://www.garmin.com/xmlschemas/TrackPointExtension/v1">
            <gpxtpx:hr>142</gpxtpx:hr>
          </gpxtpx:TrackPointExtension>
        </extensions>
      </trkpt>
      <trkpt lat="44.16815" lon="5.27689">
        <ele>1611.2</ele>
        <time>2021-06-12T09:24:40Z</time>
        <extensions>
          <gpxtpx:TrackPointExtension xmlns:gpxtpx="http://www.garmin.com/xmlschemas/TrackPointExtension/v1">
            <gpxtpx:hr>142</gpxtpx:hr>
          </gpxtpx:TrackPointExtension>
        </extensions>
      </trkpt>
      <trkpt lat="44.16817" lon="5.27684">
        <ele>1612</ele>
        <time>2021-06-12T09:24:45Z</time>
        <extensions>
          <gpxtpx:TrackPointExtension xmlns:gpxtpx="http://www.garmin.com/xmlschemas/TrackPointExtension/v1">
            <gpxtpx:hr>142</gpxtpx:hr>
          </gpxtpx:TrackPointExtension>
        </extensions>
      </trkpt>
      <trkpt lat="44.16817" lon="5.27683">
        <ele>1612</ele>
        <time>2021-06-12T09:24:46Z</time>
        <extensions>
          <gpxtpx:TrackPointExtension xmlns:gpxtpx="http://www.garmin.com/xmlschemas/TrackPointExtension/v1">
            <gpxtpx:hr>141</gpxtpx:hr>
          </gpxtpx:TrackPointExtension>
        </extensions>
      </trkpt>
      <trkpt lat="44.16818" lon="5.27682">
        <ele>1612.2</ele>
        <time>2021-06-12T09:24:47Z</time>
        <extensions>
          <gpxtpx:TrackPointExtension xmlns:gpxtpx="http://www.garmin.com/xmlschemas/TrackPointExtension/v1">
            <gpxtpx:hr>141</gpxtpx:hr>
          </gpxtpx:TrackPointExtension>
        </extensions>
      </trkpt>
      <trkpt lat="44.16818" lon="5.27682">
        <ele>1612.4</ele>
        <time>2021-06-12T09:24:48Z</time>
        <extensions>
          <gpxtpx:TrackPointExtension xmlns:gpxtpx="http://www.garmin.com/xmlschemas/TrackPointExtension/v1">
            <gpxtpx:hr>141</gpxtpx:hr>
          </gpxtpx:TrackPointExtension>
        </extensions>
      </trkpt>
      <trkpt lat="44.16819" lon="5.27681">
        <ele>1612.4</ele>
        <time>2021-06-12T09:24:49Z</time>
        <extensions>
          <gpxtpx:TrackPointExtension xmlns:gpxtpx="http://www.garmin.com/xmlschemas/TrackPointExtension/v1">
            <gpxtpx:hr>141</gpxtpx:hr>
          </gpxtpx:TrackPointExtension>
        </extensions>
      </trkpt>
      <trkpt lat="44.16822" lon="5.27677">
        <ele>1613.4</ele>
        <time>2021-06-12T09:24:54Z</time>
        <extensions>
          <gpxtpx:TrackPointExtension xmlns:gpxtpx="http://www.garmin.com/xmlschemas/TrackPointExtension/v1">
            <gpxtpx:hr>140</gpxtpx:hr>
          </gpxtpx:TrackPointExtension>
        </extensions>
      </trkpt>
      <trkpt lat="44.16823" lon="5.27675">
        <ele>1613.8</ele>
        <time>2021-06-12T09:24:56Z</time>
        <extensions>
          <gpxtpx:TrackPointExtension xmlns:gpxtpx="http://www.garmin.com/xmlschemas/TrackPointExtension/v1">
            <gpxtpx:hr>140</gpxtpx:hr>
          </gpxtpx:TrackPointExtension>
        </extensions>
      </trkpt>
      <trkpt lat="44.16824" lon="5.2767">
        <ele>1614.4</ele>
        <time>2021-06-12T09:25:01Z</time>
        <extensions>
          <gpxtpx:TrackPointExtension xmlns:gpxtpx="http://www.garmin.com/xmlschemas/TrackPointExtension/v1">
            <gpxtpx:hr>141</gpxtpx:hr>
          </gpxtpx:TrackPointExtension>
        </extensions>
      </trkpt>
      <trkpt lat="44.16826" lon="5.27668">
        <ele>1615</ele>
        <time>2021-06-12T09:25:04Z</time>
        <extensions>
          <gpxtpx:TrackPointExtension xmlns:gpxtpx="http://www.garmin.com/xmlschemas/TrackPointExtension/v1">
            <gpxtpx:hr>141</gpxtpx:hr>
          </gpxtpx:TrackPointExtension>
        </extensions>
      </trkpt>
      <trkpt lat="44.16828" lon="5.27664">
        <ele>1615.4</ele>
        <time>2021-06-12T09:25:08Z</time>
        <extensions>
          <gpxtpx:TrackPointExtension xmlns:gpxtpx="http://www.garmin.com/xmlschemas/TrackPointExtension/v1">
            <gpxtpx:hr>141</gpxtpx:hr>
          </gpxtpx:TrackPointExtension>
        </extensions>
      </trkpt>
      <trkpt lat="44.16829" lon="5.27664">
        <ele>1615.6</ele>
        <time>2021-06-12T09:25:09Z</time>
        <extensions>
          <gpxtpx:TrackPointExtension xmlns:gpxtpx="http://www.garmin.com/xmlschemas/TrackPointExtension/v1">
            <gpxtpx:hr>140</gpxtpx:hr>
          </gpxtpx:TrackPointExtension>
        </extensions>
      </trkpt>
      <trkpt lat="44.16829" lon="5.27663">
        <ele>1615.8</ele>
        <time>2021-06-12T09:25:10Z</time>
        <extensions>
          <gpxtpx:TrackPointExtension xmlns:gpxtpx="http://www.garmin.com/xmlschemas/TrackPointExtension/v1">
            <gpxtpx:hr>139</gpxtpx:hr>
          </gpxtpx:TrackPointExtension>
        </extensions>
      </trkpt>
      <trkpt lat="44.16831" lon="5.27659">
        <ele>1616.4</ele>
        <time>2021-06-12T09:25:14Z</time>
        <extensions>
          <gpxtpx:TrackPointExtension xmlns:gpxtpx="http://www.garmin.com/xmlschemas/TrackPointExtension/v1">
            <gpxtpx:hr>139</gpxtpx:hr>
          </gpxtpx:TrackPointExtension>
        </extensions>
      </trkpt>
      <trkpt lat="44.16832" lon="5.27657">
        <ele>1616.6</ele>
        <time>2021-06-12T09:25:16Z</time>
        <extensions>
          <gpxtpx:TrackPointExtension xmlns:gpxtpx="http://www.garmin.com/xmlschemas/TrackPointExtension/v1">
            <gpxtpx:hr>139</gpxtpx:hr>
          </gpxtpx:TrackPointExtension>
        </extensions>
      </trkpt>
      <trkpt lat="44.16832" lon="5.27656">
        <ele>1616.8</ele>
        <time>2021-06-12T09:25:17Z</time>
        <extensions>
          <gpxtpx:TrackPointExtension xmlns:gpxtpx="http://www.garmin.com/xmlschemas/TrackPointExtension/v1">
            <gpxtpx:hr>139</gpxtpx:hr>
          </gpxtpx:TrackPointExtension>
        </extensions>
      </trkpt>
      <trkpt lat="44.16834" lon="5.27654">
        <ele>1617.4</ele>
        <time>2021-06-12T09:25:20Z</time>
        <extensions>
          <gpxtpx:TrackPointExtension xmlns:gpxtpx="http://www.garmin.com/xmlschemas/TrackPointExtension/v1">
            <gpxtpx:hr>140</gpxtpx:hr>
          </gpxtpx:TrackPointExtension>
        </extensions>
      </trkpt>
      <trkpt lat="44.16835" lon="5.27651">
        <ele>1617.6</ele>
        <time>2021-06-12T09:25:23Z</time>
        <extensions>
          <gpxtpx:TrackPointExtension xmlns:gpxtpx="http://www.garmin.com/xmlschemas/TrackPointExtension/v1">
            <gpxtpx:hr>139</gpxtpx:hr>
          </gpxtpx:TrackPointExtension>
        </extensions>
      </trkpt>
      <trkpt lat="44.16838" lon="5.27648">
        <ele>1618.4</ele>
        <time>2021-06-12T09:25:28Z</time>
        <extensions>
          <gpxtpx:TrackPointExtension xmlns:gpxtpx="http://www.garmin.com/xmlschemas/TrackPointExtension/v1">
            <gpxtpx:hr>137</gpxtpx:hr>
          </gpxtpx:TrackPointExtension>
        </extensions>
      </trkpt>
      <trkpt lat="44.16838" lon="5.27648">
        <ele>1618.4</ele>
        <time>2021-06-12T09:25:29Z</time>
        <extensions>
          <gpxtpx:TrackPointExtension xmlns:gpxtpx="http://www.garmin.com/xmlschemas/TrackPointExtension/v1">
            <gpxtpx:hr>137</gpxtpx:hr>
          </gpxtpx:TrackPointExtension>
        </extensions>
      </trkpt>
      <trkpt lat="44.1684" lon="5.27647">
        <ele>1618.8</ele>
        <time>2021-06-12T09:25:31Z</time>
        <extensions>
          <gpxtpx:TrackPointExtension xmlns:gpxtpx="http://www.garmin.com/xmlschemas/TrackPointExtension/v1">
            <gpxtpx:hr>136</gpxtpx:hr>
          </gpxtpx:TrackPointExtension>
        </extensions>
      </trkpt>
      <trkpt lat="44.16843" lon="5.27647">
        <ele>1620</ele>
        <time>2021-06-12T09:25:36Z</time>
        <extensions>
          <gpxtpx:TrackPointExtension xmlns:gpxtpx="http://www.garmin.com/xmlschemas/TrackPointExtension/v1">
            <gpxtpx:hr>138</gpxtpx:hr>
          </gpxtpx:TrackPointExtension>
        </extensions>
      </trkpt>
      <trkpt lat="44.16845" lon="5.27644">
        <ele>1620.8</ele>
        <time>2021-06-12T09:25:41Z</time>
        <extensions>
          <gpxtpx:TrackPointExtension xmlns:gpxtpx="http://www.garmin.com/xmlschemas/TrackPointExtension/v1">
            <gpxtpx:hr>140</gpxtpx:hr>
          </gpxtpx:TrackPointExtension>
        </extensions>
      </trkpt>
      <trkpt lat="44.16846" lon="5.27642">
        <ele>1621</ele>
        <time>2021-06-12T09:25:43Z</time>
        <extensions>
          <gpxtpx:TrackPointExtension xmlns:gpxtpx="http://www.garmin.com/xmlschemas/TrackPointExtension/v1">
            <gpxtpx:hr>140</gpxtpx:hr>
          </gpxtpx:TrackPointExtension>
        </extensions>
      </trkpt>
      <trkpt lat="44.16848" lon="5.27638">
        <ele>1621.8</ele>
        <time>2021-06-12T09:25:48Z</time>
        <extensions>
          <gpxtpx:TrackPointExtension xmlns:gpxtpx="http://www.garmin.com/xmlschemas/TrackPointExtension/v1">
            <gpxtpx:hr>141</gpxtpx:hr>
          </gpxtpx:TrackPointExtension>
        </extensions>
      </trkpt>
      <trkpt lat="44.1685" lon="5.27637">
        <ele>1622.2</ele>
        <time>2021-06-12T09:25:51Z</time>
        <extensions>
          <gpxtpx:TrackPointExtension xmlns:gpxtpx="http://www.garmin.com/xmlschemas/TrackPointExtension/v1">
            <gpxtpx:hr>141</gpxtpx:hr>
          </gpxtpx:TrackPointExtension>
        </extensions>
      </trkpt>
      <trkpt lat="44.16851" lon="5.27637">
        <ele>1622.4</ele>
        <time>2021-06-12T09:25:52Z</time>
        <extensions>
          <gpxtpx:TrackPointExtension xmlns:gpxtpx="http://www.garmin.com/xmlschemas/TrackPointExtension/v1">
            <gpxtpx:hr>141</gpxtpx:hr>
          </gpxtpx:TrackPointExtension>
        </extensions>
      </trkpt>
      <trkpt lat="44.16853" lon="5.27632">
        <ele>1623.4</ele>
        <time>2021-06-12T09:25:57Z</time>
        <extensions>
          <gpxtpx:TrackPointExtension xmlns:gpxtpx="http://www.garmin.com/xmlschemas/TrackPointExtension/v1">
            <gpxtpx:hr>142</gpxtpx:hr>
          </gpxtpx:TrackPointExtension>
        </extensions>
      </trkpt>
      <trkpt lat="44.16856" lon="5.2762">
        <ele>1624.4</ele>
        <time>2021-06-12T09:26:05Z</time>
        <extensions>
          <gpxtpx:TrackPointExtension xmlns:gpxtpx="http://www.garmin.com/xmlschemas/TrackPointExtension/v1">
            <gpxtpx:hr>142</gpxtpx:hr>
          </gpxtpx:TrackPointExtension>
        </extensions>
      </trkpt>
      <trkpt lat="44.1686" lon="5.276">
        <ele>1625.2</ele>
        <time>2021-06-12T09:26:20Z</time>
        <extensions>
          <gpxtpx:TrackPointExtension xmlns:gpxtpx="http://www.garmin.com/xmlschemas/TrackPointExtension/v1">
            <gpxtpx:hr>141</gpxtpx:hr>
          </gpxtpx:TrackPointExtension>
        </extensions>
      </trkpt>
      <trkpt lat="44.16861" lon="5.27599">
        <ele>1625.4</ele>
        <time>2021-06-12T09:26:21Z</time>
        <extensions>
          <gpxtpx:TrackPointExtension xmlns:gpxtpx="http://www.garmin.com/xmlschemas/TrackPointExtension/v1">
            <gpxtpx:hr>141</gpxtpx:hr>
          </gpxtpx:TrackPointExtension>
        </extensions>
      </trkpt>
      <trkpt lat="44.16861" lon="5.27598">
        <ele>1625.6</ele>
        <time>2021-06-12T09:26:22Z</time>
        <extensions>
          <gpxtpx:TrackPointExtension xmlns:gpxtpx="http://www.garmin.com/xmlschemas/TrackPointExtension/v1">
            <gpxtpx:hr>141</gpxtpx:hr>
          </gpxtpx:TrackPointExtension>
        </extensions>
      </trkpt>
      <trkpt lat="44.16862" lon="5.27596">
        <ele>1625.8</ele>
        <time>2021-06-12T09:26:23Z</time>
        <extensions>
          <gpxtpx:TrackPointExtension xmlns:gpxtpx="http://www.garmin.com/xmlschemas/TrackPointExtension/v1">
            <gpxtpx:hr>141</gpxtpx:hr>
          </gpxtpx:TrackPointExtension>
        </extensions>
      </trkpt>
      <trkpt lat="44.16862" lon="5.27594">
        <ele>1626.2</ele>
        <time>2021-06-12T09:26:25Z</time>
        <extensions>
          <gpxtpx:TrackPointExtension xmlns:gpxtpx="http://www.garmin.com/xmlschemas/TrackPointExtension/v1">
            <gpxtpx:hr>141</gpxtpx:hr>
          </gpxtpx:TrackPointExtension>
        </extensions>
      </trkpt>
      <trkpt lat="44.16863" lon="5.27592">
        <ele>1626.4</ele>
        <time>2021-06-12T09:26:27Z</time>
        <extensions>
          <gpxtpx:TrackPointExtension xmlns:gpxtpx="http://www.garmin.com/xmlschemas/TrackPointExtension/v1">
            <gpxtpx:hr>142</gpxtpx:hr>
          </gpxtpx:TrackPointExtension>
        </extensions>
      </trkpt>
      <trkpt lat="44.16865" lon="5.27587">
        <ele>1627</ele>
        <time>2021-06-12T09:26:32Z</time>
        <extensions>
          <gpxtpx:TrackPointExtension xmlns:gpxtpx="http://www.garmin.com/xmlschemas/TrackPointExtension/v1">
            <gpxtpx:hr>142</gpxtpx:hr>
          </gpxtpx:TrackPointExtension>
        </extensions>
      </trkpt>
      <trkpt lat="44.16867" lon="5.27585">
        <ele>1627.6</ele>
        <time>2021-06-12T09:26:35Z</time>
        <extensions>
          <gpxtpx:TrackPointExtension xmlns:gpxtpx="http://www.garmin.com/xmlschemas/TrackPointExtension/v1">
            <gpxtpx:hr>141</gpxtpx:hr>
          </gpxtpx:TrackPointExtension>
        </extensions>
      </trkpt>
      <trkpt lat="44.16868" lon="5.27583">
        <ele>1628</ele>
        <time>2021-06-12T09:26:37Z</time>
        <extensions>
          <gpxtpx:TrackPointExtension xmlns:gpxtpx="http://www.garmin.com/xmlschemas/TrackPointExtension/v1">
            <gpxtpx:hr>140</gpxtpx:hr>
          </gpxtpx:TrackPointExtension>
        </extensions>
      </trkpt>
      <trkpt lat="44.16869" lon="5.2758">
        <ele>1628.4</ele>
        <time>2021-06-12T09:26:40Z</time>
        <extensions>
          <gpxtpx:TrackPointExtension xmlns:gpxtpx="http://www.garmin.com/xmlschemas/TrackPointExtension/v1">
            <gpxtpx:hr>141</gpxtpx:hr>
          </gpxtpx:TrackPointExtension>
        </extensions>
      </trkpt>
      <trkpt lat="44.1687" lon="5.27578">
        <ele>1628.8</ele>
        <time>2021-06-12T09:26:42Z</time>
        <extensions>
          <gpxtpx:TrackPointExtension xmlns:gpxtpx="http://www.garmin.com/xmlschemas/TrackPointExtension/v1">
            <gpxtpx:hr>141</gpxtpx:hr>
          </gpxtpx:TrackPointExtension>
        </extensions>
      </trkpt>
      <trkpt lat="44.16872" lon="5.27576">
        <ele>1629</ele>
        <time>2021-06-12T09:26:44Z</time>
        <extensions>
          <gpxtpx:TrackPointExtension xmlns:gpxtpx="http://www.garmin.com/xmlschemas/TrackPointExtension/v1">
            <gpxtpx:hr>141</gpxtpx:hr>
          </gpxtpx:TrackPointExtension>
        </extensions>
      </trkpt>
      <trkpt lat="44.16874" lon="5.27574">
        <ele>1629.8</ele>
        <time>2021-06-12T09:26:47Z</time>
        <extensions>
          <gpxtpx:TrackPointExtension xmlns:gpxtpx="http://www.garmin.com/xmlschemas/TrackPointExtension/v1">
            <gpxtpx:hr>139</gpxtpx:hr>
          </gpxtpx:TrackPointExtension>
        </extensions>
      </trkpt>
      <trkpt lat="44.16875" lon="5.2757">
        <ele>1630.4</ele>
        <time>2021-06-12T09:26:51Z</time>
        <extensions>
          <gpxtpx:TrackPointExtension xmlns:gpxtpx="http://www.garmin.com/xmlschemas/TrackPointExtension/v1">
            <gpxtpx:hr>139</gpxtpx:hr>
          </gpxtpx:TrackPointExtension>
        </extensions>
      </trkpt>
      <trkpt lat="44.16877" lon="5.27568">
        <ele>1630.8</ele>
        <time>2021-06-12T09:26:54Z</time>
        <extensions>
          <gpxtpx:TrackPointExtension xmlns:gpxtpx="http://www.garmin.com/xmlschemas/TrackPointExtension/v1">
            <gpxtpx:hr>139</gpxtpx:hr>
          </gpxtpx:TrackPointExtension>
        </extensions>
      </trkpt>
      <trkpt lat="44.1688" lon="5.27563">
        <ele>1632</ele>
        <time>2021-06-12T09:27:00Z</time>
        <extensions>
          <gpxtpx:TrackPointExtension xmlns:gpxtpx="http://www.garmin.com/xmlschemas/TrackPointExtension/v1">
            <gpxtpx:hr>140</gpxtpx:hr>
          </gpxtpx:TrackPointExtension>
        </extensions>
      </trkpt>
      <trkpt lat="44.16881" lon="5.27561">
        <ele>1632.2</ele>
        <time>2021-06-12T09:27:02Z</time>
        <extensions>
          <gpxtpx:TrackPointExtension xmlns:gpxtpx="http://www.garmin.com/xmlschemas/TrackPointExtension/v1">
            <gpxtpx:hr>141</gpxtpx:hr>
          </gpxtpx:TrackPointExtension>
        </extensions>
      </trkpt>
      <trkpt lat="44.16882" lon="5.27556">
        <ele>1633</ele>
        <time>2021-06-12T09:27:06Z</time>
        <extensions>
          <gpxtpx:TrackPointExtension xmlns:gpxtpx="http://www.garmin.com/xmlschemas/TrackPointExtension/v1">
            <gpxtpx:hr>141</gpxtpx:hr>
          </gpxtpx:TrackPointExtension>
        </extensions>
      </trkpt>
      <trkpt lat="44.16882" lon="5.27554">
        <ele>1633</ele>
        <time>2021-06-12T09:27:07Z</time>
        <extensions>
          <gpxtpx:TrackPointExtension xmlns:gpxtpx="http://www.garmin.com/xmlschemas/TrackPointExtension/v1">
            <gpxtpx:hr>141</gpxtpx:hr>
          </gpxtpx:TrackPointExtension>
        </extensions>
      </trkpt>
      <trkpt lat="44.16885" lon="5.27546">
        <ele>1634</ele>
        <time>2021-06-12T09:27:14Z</time>
        <extensions>
          <gpxtpx:TrackPointExtension xmlns:gpxtpx="http://www.garmin.com/xmlschemas/TrackPointExtension/v1">
            <gpxtpx:hr>143</gpxtpx:hr>
          </gpxtpx:TrackPointExtension>
        </extensions>
      </trkpt>
      <trkpt lat="44.16887" lon="5.27537">
        <ele>1635.2</ele>
        <time>2021-06-12T09:27:21Z</time>
        <extensions>
          <gpxtpx:TrackPointExtension xmlns:gpxtpx="http://www.garmin.com/xmlschemas/TrackPointExtension/v1">
            <gpxtpx:hr>142</gpxtpx:hr>
          </gpxtpx:TrackPointExtension>
        </extensions>
      </trkpt>
      <trkpt lat="44.16888" lon="5.27534">
        <ele>1635.6</ele>
        <time>2021-06-12T09:27:24Z</time>
        <extensions>
          <gpxtpx:TrackPointExtension xmlns:gpxtpx="http://www.garmin.com/xmlschemas/TrackPointExtension/v1">
            <gpxtpx:hr>140</gpxtpx:hr>
          </gpxtpx:TrackPointExtension>
        </extensions>
      </trkpt>
      <trkpt lat="44.16888" lon="5.27531">
        <ele>1635.8</ele>
        <time>2021-06-12T09:27:26Z</time>
        <extensions>
          <gpxtpx:TrackPointExtension xmlns:gpxtpx="http://www.garmin.com/xmlschemas/TrackPointExtension/v1">
            <gpxtpx:hr>138</gpxtpx:hr>
          </gpxtpx:TrackPointExtension>
        </extensions>
      </trkpt>
      <trkpt lat="44.16889" lon="5.27527">
        <ele>1636.2</ele>
        <time>2021-06-12T09:27:29Z</time>
        <extensions>
          <gpxtpx:TrackPointExtension xmlns:gpxtpx="http://www.garmin.com/xmlschemas/TrackPointExtension/v1">
            <gpxtpx:hr>137</gpxtpx:hr>
          </gpxtpx:TrackPointExtension>
        </extensions>
      </trkpt>
      <trkpt lat="44.1689" lon="5.27522">
        <ele>1636.6</ele>
        <time>2021-06-12T09:27:33Z</time>
        <extensions>
          <gpxtpx:TrackPointExtension xmlns:gpxtpx="http://www.garmin.com/xmlschemas/TrackPointExtension/v1">
            <gpxtpx:hr>136</gpxtpx:hr>
          </gpxtpx:TrackPointExtension>
        </extensions>
      </trkpt>
      <trkpt lat="44.1689" lon="5.27521">
        <ele>1636.8</ele>
        <time>2021-06-12T09:27:34Z</time>
        <extensions>
          <gpxtpx:TrackPointExtension xmlns:gpxtpx="http://www.garmin.com/xmlschemas/TrackPointExtension/v1">
            <gpxtpx:hr>137</gpxtpx:hr>
          </gpxtpx:TrackPointExtension>
        </extensions>
      </trkpt>
      <trkpt lat="44.16893" lon="5.27518">
        <ele>1637.2</ele>
        <time>2021-06-12T09:27:38Z</time>
        <extensions>
          <gpxtpx:TrackPointExtension xmlns:gpxtpx="http://www.garmin.com/xmlschemas/TrackPointExtension/v1">
            <gpxtpx:hr>137</gpxtpx:hr>
          </gpxtpx:TrackPointExtension>
        </extensions>
      </trkpt>
      <trkpt lat="44.16893" lon="5.27517">
        <ele>1637.4</ele>
        <time>2021-06-12T09:27:39Z</time>
        <extensions>
          <gpxtpx:TrackPointExtension xmlns:gpxtpx="http://www.garmin.com/xmlschemas/TrackPointExtension/v1">
            <gpxtpx:hr>137</gpxtpx:hr>
          </gpxtpx:TrackPointExtension>
        </extensions>
      </trkpt>
      <trkpt lat="44.16897" lon="5.27512">
        <ele>1638.4</ele>
        <time>2021-06-12T09:27:46Z</time>
        <extensions>
          <gpxtpx:TrackPointExtension xmlns:gpxtpx="http://www.garmin.com/xmlschemas/TrackPointExtension/v1">
            <gpxtpx:hr>136</gpxtpx:hr>
          </gpxtpx:TrackPointExtension>
        </extensions>
      </trkpt>
      <trkpt lat="44.16898" lon="5.27507">
        <ele>1639</ele>
        <time>2021-06-12T09:27:50Z</time>
        <extensions>
          <gpxtpx:TrackPointExtension xmlns:gpxtpx="http://www.garmin.com/xmlschemas/TrackPointExtension/v1">
            <gpxtpx:hr>136</gpxtpx:hr>
          </gpxtpx:TrackPointExtension>
        </extensions>
      </trkpt>
      <trkpt lat="44.169" lon="5.27504">
        <ele>1639.4</ele>
        <time>2021-06-12T09:27:53Z</time>
        <extensions>
          <gpxtpx:TrackPointExtension xmlns:gpxtpx="http://www.garmin.com/xmlschemas/TrackPointExtension/v1">
            <gpxtpx:hr>137</gpxtpx:hr>
          </gpxtpx:TrackPointExtension>
        </extensions>
      </trkpt>
      <trkpt lat="44.16904" lon="5.27495">
        <ele>1640.4</ele>
        <time>2021-06-12T09:28:02Z</time>
        <extensions>
          <gpxtpx:TrackPointExtension xmlns:gpxtpx="http://www.garmin.com/xmlschemas/TrackPointExtension/v1">
            <gpxtpx:hr>138</gpxtpx:hr>
          </gpxtpx:TrackPointExtension>
        </extensions>
      </trkpt>
      <trkpt lat="44.16907" lon="5.27491">
        <ele>1641</ele>
        <time>2021-06-12T09:28:06Z</time>
        <extensions>
          <gpxtpx:TrackPointExtension xmlns:gpxtpx="http://www.garmin.com/xmlschemas/TrackPointExtension/v1">
            <gpxtpx:hr>140</gpxtpx:hr>
          </gpxtpx:TrackPointExtension>
        </extensions>
      </trkpt>
      <trkpt lat="44.16908" lon="5.27492">
        <ele>1641.4</ele>
        <time>2021-06-12T09:28:08Z</time>
        <extensions>
          <gpxtpx:TrackPointExtension xmlns:gpxtpx="http://www.garmin.com/xmlschemas/TrackPointExtension/v1">
            <gpxtpx:hr>140</gpxtpx:hr>
          </gpxtpx:TrackPointExtension>
        </extensions>
      </trkpt>
      <trkpt lat="44.16911" lon="5.27493">
        <ele>1642</ele>
        <time>2021-06-12T09:28:11Z</time>
        <extensions>
          <gpxtpx:TrackPointExtension xmlns:gpxtpx="http://www.garmin.com/xmlschemas/TrackPointExtension/v1">
            <gpxtpx:hr>141</gpxtpx:hr>
          </gpxtpx:TrackPointExtension>
        </extensions>
      </trkpt>
      <trkpt lat="44.16912" lon="5.27493">
        <ele>1642.4</ele>
        <time>2021-06-12T09:28:13Z</time>
        <extensions>
          <gpxtpx:TrackPointExtension xmlns:gpxtpx="http://www.garmin.com/xmlschemas/TrackPointExtension/v1">
            <gpxtpx:hr>142</gpxtpx:hr>
          </gpxtpx:TrackPointExtension>
        </extensions>
      </trkpt>
      <trkpt lat="44.16914" lon="5.27492">
        <ele>1642.6</ele>
        <time>2021-06-12T09:28:14Z</time>
        <extensions>
          <gpxtpx:TrackPointExtension xmlns:gpxtpx="http://www.garmin.com/xmlschemas/TrackPointExtension/v1">
            <gpxtpx:hr>142</gpxtpx:hr>
          </gpxtpx:TrackPointExtension>
        </extensions>
      </trkpt>
      <trkpt lat="44.16915" lon="5.27491">
        <ele>1643</ele>
        <time>2021-06-12T09:28:16Z</time>
        <extensions>
          <gpxtpx:TrackPointExtension xmlns:gpxtpx="http://www.garmin.com/xmlschemas/TrackPointExtension/v1">
            <gpxtpx:hr>142</gpxtpx:hr>
          </gpxtpx:TrackPointExtension>
        </extensions>
      </trkpt>
      <trkpt lat="44.16916" lon="5.27489">
        <ele>1643.4</ele>
        <time>2021-06-12T09:28:18Z</time>
        <extensions>
          <gpxtpx:TrackPointExtension xmlns:gpxtpx="http://www.garmin.com/xmlschemas/TrackPointExtension/v1">
            <gpxtpx:hr>143</gpxtpx:hr>
          </gpxtpx:TrackPointExtension>
        </extensions>
      </trkpt>
      <trkpt lat="44.16916" lon="5.27489">
        <ele>1643.4</ele>
        <time>2021-06-12T09:28:19Z</time>
        <extensions>
          <gpxtpx:TrackPointExtension xmlns:gpxtpx="http://www.garmin.com/xmlschemas/TrackPointExtension/v1">
            <gpxtpx:hr>143</gpxtpx:hr>
          </gpxtpx:TrackPointExtension>
        </extensions>
      </trkpt>
      <trkpt lat="44.16917" lon="5.27488">
        <ele>1643.6</ele>
        <time>2021-06-12T09:28:20Z</time>
        <extensions>
          <gpxtpx:TrackPointExtension xmlns:gpxtpx="http://www.garmin.com/xmlschemas/TrackPointExtension/v1">
            <gpxtpx:hr>142</gpxtpx:hr>
          </gpxtpx:TrackPointExtension>
        </extensions>
      </trkpt>
      <trkpt lat="44.16917" lon="5.27486">
        <ele>1643.6</ele>
        <time>2021-06-12T09:28:21Z</time>
        <extensions>
          <gpxtpx:TrackPointExtension xmlns:gpxtpx="http://www.garmin.com/xmlschemas/TrackPointExtension/v1">
            <gpxtpx:hr>143</gpxtpx:hr>
          </gpxtpx:TrackPointExtension>
        </extensions>
      </trkpt>
      <trkpt lat="44.16917" lon="5.27483">
        <ele>1643.8</ele>
        <time>2021-06-12T09:28:23Z</time>
        <extensions>
          <gpxtpx:TrackPointExtension xmlns:gpxtpx="http://www.garmin.com/xmlschemas/TrackPointExtension/v1">
            <gpxtpx:hr>143</gpxtpx:hr>
          </gpxtpx:TrackPointExtension>
        </extensions>
      </trkpt>
      <trkpt lat="44.16918" lon="5.27475">
        <ele>1644.2</ele>
        <time>2021-06-12T09:28:28Z</time>
        <extensions>
          <gpxtpx:TrackPointExtension xmlns:gpxtpx="http://www.garmin.com/xmlschemas/TrackPointExtension/v1">
            <gpxtpx:hr>142</gpxtpx:hr>
          </gpxtpx:TrackPointExtension>
        </extensions>
      </trkpt>
      <trkpt lat="44.16919" lon="5.27465">
        <ele>1644.6</ele>
        <time>2021-06-12T09:28:34Z</time>
        <extensions>
          <gpxtpx:TrackPointExtension xmlns:gpxtpx="http://www.garmin.com/xmlschemas/TrackPointExtension/v1">
            <gpxtpx:hr>139</gpxtpx:hr>
          </gpxtpx:TrackPointExtension>
        </extensions>
      </trkpt>
      <trkpt lat="44.1692" lon="5.27462">
        <ele>1644.8</ele>
        <time>2021-06-12T09:28:36Z</time>
        <extensions>
          <gpxtpx:TrackPointExtension xmlns:gpxtpx="http://www.garmin.com/xmlschemas/TrackPointExtension/v1">
            <gpxtpx:hr>139</gpxtpx:hr>
          </gpxtpx:TrackPointExtension>
        </extensions>
      </trkpt>
      <trkpt lat="44.16923" lon="5.27457">
        <ele>1645</ele>
        <time>2021-06-12T09:28:41Z</time>
        <extensions>
          <gpxtpx:TrackPointExtension xmlns:gpxtpx="http://www.garmin.com/xmlschemas/TrackPointExtension/v1">
            <gpxtpx:hr>138</gpxtpx:hr>
          </gpxtpx:TrackPointExtension>
        </extensions>
      </trkpt>
      <trkpt lat="44.16924" lon="5.27456">
        <ele>1645.2</ele>
        <time>2021-06-12T09:28:43Z</time>
        <extensions>
          <gpxtpx:TrackPointExtension xmlns:gpxtpx="http://www.garmin.com/xmlschemas/TrackPointExtension/v1">
            <gpxtpx:hr>138</gpxtpx:hr>
          </gpxtpx:TrackPointExtension>
        </extensions>
      </trkpt>
      <trkpt lat="44.16928" lon="5.27454">
        <ele>1645.8</ele>
        <time>2021-06-12T09:28:48Z</time>
        <extensions>
          <gpxtpx:TrackPointExtension xmlns:gpxtpx="http://www.garmin.com/xmlschemas/TrackPointExtension/v1">
            <gpxtpx:hr>138</gpxtpx:hr>
          </gpxtpx:TrackPointExtension>
        </extensions>
      </trkpt>
      <trkpt lat="44.16929" lon="5.27453">
        <ele>1646</ele>
        <time>2021-06-12T09:28:50Z</time>
        <extensions>
          <gpxtpx:TrackPointExtension xmlns:gpxtpx="http://www.garmin.com/xmlschemas/TrackPointExtension/v1">
            <gpxtpx:hr>138</gpxtpx:hr>
          </gpxtpx:TrackPointExtension>
        </extensions>
      </trkpt>
      <trkpt lat="44.16929" lon="5.27452">
        <ele>1646.2</ele>
        <time>2021-06-12T09:28:51Z</time>
        <extensions>
          <gpxtpx:TrackPointExtension xmlns:gpxtpx="http://www.garmin.com/xmlschemas/TrackPointExtension/v1">
            <gpxtpx:hr>138</gpxtpx:hr>
          </gpxtpx:TrackPointExtension>
        </extensions>
      </trkpt>
      <trkpt lat="44.16931" lon="5.2745">
        <ele>1646.6</ele>
        <time>2021-06-12T09:28:54Z</time>
        <extensions>
          <gpxtpx:TrackPointExtension xmlns:gpxtpx="http://www.garmin.com/xmlschemas/TrackPointExtension/v1">
            <gpxtpx:hr>137</gpxtpx:hr>
          </gpxtpx:TrackPointExtension>
        </extensions>
      </trkpt>
      <trkpt lat="44.16932" lon="5.27449">
        <ele>1646.8</ele>
        <time>2021-06-12T09:28:55Z</time>
        <extensions>
          <gpxtpx:TrackPointExtension xmlns:gpxtpx="http://www.garmin.com/xmlschemas/TrackPointExtension/v1">
            <gpxtpx:hr>137</gpxtpx:hr>
          </gpxtpx:TrackPointExtension>
        </extensions>
      </trkpt>
      <trkpt lat="44.16933" lon="5.27448">
        <ele>1646.8</ele>
        <time>2021-06-12T09:28:56Z</time>
        <extensions>
          <gpxtpx:TrackPointExtension xmlns:gpxtpx="http://www.garmin.com/xmlschemas/TrackPointExtension/v1">
            <gpxtpx:hr>137</gpxtpx:hr>
          </gpxtpx:TrackPointExtension>
        </extensions>
      </trkpt>
      <trkpt lat="44.16933" lon="5.27446">
        <ele>1647</ele>
        <time>2021-06-12T09:28:57Z</time>
        <extensions>
          <gpxtpx:TrackPointExtension xmlns:gpxtpx="http://www.garmin.com/xmlschemas/TrackPointExtension/v1">
            <gpxtpx:hr>137</gpxtpx:hr>
          </gpxtpx:TrackPointExtension>
        </extensions>
      </trkpt>
      <trkpt lat="44.16935" lon="5.27442">
        <ele>1647.4</ele>
        <time>2021-06-12T09:29:01Z</time>
        <extensions>
          <gpxtpx:TrackPointExtension xmlns:gpxtpx="http://www.garmin.com/xmlschemas/TrackPointExtension/v1">
            <gpxtpx:hr>138</gpxtpx:hr>
          </gpxtpx:TrackPointExtension>
        </extensions>
      </trkpt>
      <trkpt lat="44.16936" lon="5.2744">
        <ele>1647.6</ele>
        <time>2021-06-12T09:29:03Z</time>
        <extensions>
          <gpxtpx:TrackPointExtension xmlns:gpxtpx="http://www.garmin.com/xmlschemas/TrackPointExtension/v1">
            <gpxtpx:hr>138</gpxtpx:hr>
          </gpxtpx:TrackPointExtension>
        </extensions>
      </trkpt>
      <trkpt lat="44.16937" lon="5.27437">
        <ele>1648</ele>
        <time>2021-06-12T09:29:05Z</time>
        <extensions>
          <gpxtpx:TrackPointExtension xmlns:gpxtpx="http://www.garmin.com/xmlschemas/TrackPointExtension/v1">
            <gpxtpx:hr>138</gpxtpx:hr>
          </gpxtpx:TrackPointExtension>
        </extensions>
      </trkpt>
      <trkpt lat="44.16941" lon="5.27427">
        <ele>1649</ele>
        <time>2021-06-12T09:29:14Z</time>
        <extensions>
          <gpxtpx:TrackPointExtension xmlns:gpxtpx="http://www.garmin.com/xmlschemas/TrackPointExtension/v1">
            <gpxtpx:hr>137</gpxtpx:hr>
          </gpxtpx:TrackPointExtension>
        </extensions>
      </trkpt>
      <trkpt lat="44.16944" lon="5.27422">
        <ele>1649.6</ele>
        <time>2021-06-12T09:29:20Z</time>
        <extensions>
          <gpxtpx:TrackPointExtension xmlns:gpxtpx="http://www.garmin.com/xmlschemas/TrackPointExtension/v1">
            <gpxtpx:hr>140</gpxtpx:hr>
          </gpxtpx:TrackPointExtension>
        </extensions>
      </trkpt>
      <trkpt lat="44.16946" lon="5.2742">
        <ele>1650</ele>
        <time>2021-06-12T09:29:23Z</time>
        <extensions>
          <gpxtpx:TrackPointExtension xmlns:gpxtpx="http://www.garmin.com/xmlschemas/TrackPointExtension/v1">
            <gpxtpx:hr>140</gpxtpx:hr>
          </gpxtpx:TrackPointExtension>
        </extensions>
      </trkpt>
      <trkpt lat="44.16947" lon="5.2742">
        <ele>1650.4</ele>
        <time>2021-06-12T09:29:25Z</time>
        <extensions>
          <gpxtpx:TrackPointExtension xmlns:gpxtpx="http://www.garmin.com/xmlschemas/TrackPointExtension/v1">
            <gpxtpx:hr>140</gpxtpx:hr>
          </gpxtpx:TrackPointExtension>
        </extensions>
      </trkpt>
      <trkpt lat="44.16951" lon="5.27416">
        <ele>1650.8</ele>
        <time>2021-06-12T09:29:30Z</time>
        <extensions>
          <gpxtpx:TrackPointExtension xmlns:gpxtpx="http://www.garmin.com/xmlschemas/TrackPointExtension/v1">
            <gpxtpx:hr>140</gpxtpx:hr>
          </gpxtpx:TrackPointExtension>
        </extensions>
      </trkpt>
      <trkpt lat="44.16952" lon="5.27414">
        <ele>1651.4</ele>
        <time>2021-06-12T09:29:32Z</time>
        <extensions>
          <gpxtpx:TrackPointExtension xmlns:gpxtpx="http://www.garmin.com/xmlschemas/TrackPointExtension/v1">
            <gpxtpx:hr>140</gpxtpx:hr>
          </gpxtpx:TrackPointExtension>
        </extensions>
      </trkpt>
      <trkpt lat="44.16953" lon="5.27414">
        <ele>1651.6</ele>
        <time>2021-06-12T09:29:33Z</time>
        <extensions>
          <gpxtpx:TrackPointExtension xmlns:gpxtpx="http://www.garmin.com/xmlschemas/TrackPointExtension/v1">
            <gpxtpx:hr>139</gpxtpx:hr>
          </gpxtpx:TrackPointExtension>
        </extensions>
      </trkpt>
      <trkpt lat="44.16957" lon="5.27412">
        <ele>1652.2</ele>
        <time>2021-06-12T09:29:37Z</time>
        <extensions>
          <gpxtpx:TrackPointExtension xmlns:gpxtpx="http://www.garmin.com/xmlschemas/TrackPointExtension/v1">
            <gpxtpx:hr>138</gpxtpx:hr>
          </gpxtpx:TrackPointExtension>
        </extensions>
      </trkpt>
      <trkpt lat="44.16959" lon="5.2741">
        <ele>1652.4</ele>
        <time>2021-06-12T09:29:39Z</time>
        <extensions>
          <gpxtpx:TrackPointExtension xmlns:gpxtpx="http://www.garmin.com/xmlschemas/TrackPointExtension/v1">
            <gpxtpx:hr>138</gpxtpx:hr>
          </gpxtpx:TrackPointExtension>
        </extensions>
      </trkpt>
      <trkpt lat="44.1696" lon="5.27409">
        <ele>1652.6</ele>
        <time>2021-06-12T09:29:41Z</time>
        <extensions>
          <gpxtpx:TrackPointExtension xmlns:gpxtpx="http://www.garmin.com/xmlschemas/TrackPointExtension/v1">
            <gpxtpx:hr>137</gpxtpx:hr>
          </gpxtpx:TrackPointExtension>
        </extensions>
      </trkpt>
      <trkpt lat="44.16962" lon="5.27406">
        <ele>1652.8</ele>
        <time>2021-06-12T09:29:44Z</time>
        <extensions>
          <gpxtpx:TrackPointExtension xmlns:gpxtpx="http://www.garmin.com/xmlschemas/TrackPointExtension/v1">
            <gpxtpx:hr>136</gpxtpx:hr>
          </gpxtpx:TrackPointExtension>
        </extensions>
      </trkpt>
      <trkpt lat="44.16962" lon="5.27405">
        <ele>1653</ele>
        <time>2021-06-12T09:29:47Z</time>
        <extensions>
          <gpxtpx:TrackPointExtension xmlns:gpxtpx="http://www.garmin.com/xmlschemas/TrackPointExtension/v1">
            <gpxtpx:hr>134</gpxtpx:hr>
          </gpxtpx:TrackPointExtension>
        </extensions>
      </trkpt>
      <trkpt lat="44.16962" lon="5.27405">
        <ele>1653.4</ele>
        <time>2021-06-12T09:29:57Z</time>
        <extensions>
          <gpxtpx:TrackPointExtension xmlns:gpxtpx="http://www.garmin.com/xmlschemas/TrackPointExtension/v1">
            <gpxtpx:hr>131</gpxtpx:hr>
          </gpxtpx:TrackPointExtension>
        </extensions>
      </trkpt>
      <trkpt lat="44.16962" lon="5.27405">
        <ele>1653.4</ele>
        <time>2021-06-12T09:30:05Z</time>
        <extensions>
          <gpxtpx:TrackPointExtension xmlns:gpxtpx="http://www.garmin.com/xmlschemas/TrackPointExtension/v1">
            <gpxtpx:hr>128</gpxtpx:hr>
          </gpxtpx:TrackPointExtension>
        </extensions>
      </trkpt>
      <trkpt lat="44.16962" lon="5.27405">
        <ele>1653.4</ele>
        <time>2021-06-12T09:30:08Z</time>
        <extensions>
          <gpxtpx:TrackPointExtension xmlns:gpxtpx="http://www.garmin.com/xmlschemas/TrackPointExtension/v1">
            <gpxtpx:hr>124</gpxtpx:hr>
          </gpxtpx:TrackPointExtension>
        </extensions>
      </trkpt>
      <trkpt lat="44.16964" lon="5.27404">
        <ele>1653.4</ele>
        <time>2021-06-12T09:30:10Z</time>
        <extensions>
          <gpxtpx:TrackPointExtension xmlns:gpxtpx="http://www.garmin.com/xmlschemas/TrackPointExtension/v1">
            <gpxtpx:hr>123</gpxtpx:hr>
          </gpxtpx:TrackPointExtension>
        </extensions>
      </trkpt>
      <trkpt lat="44.16965" lon="5.27401">
        <ele>1653.4</ele>
        <time>2021-06-12T09:30:13Z</time>
        <extensions>
          <gpxtpx:TrackPointExtension xmlns:gpxtpx="http://www.garmin.com/xmlschemas/TrackPointExtension/v1">
            <gpxtpx:hr>123</gpxtpx:hr>
          </gpxtpx:TrackPointExtension>
        </extensions>
      </trkpt>
      <trkpt lat="44.16965" lon="5.274">
        <ele>1653.4</ele>
        <time>2021-06-12T09:30:14Z</time>
        <extensions>
          <gpxtpx:TrackPointExtension xmlns:gpxtpx="http://www.garmin.com/xmlschemas/TrackPointExtension/v1">
            <gpxtpx:hr>123</gpxtpx:hr>
          </gpxtpx:TrackPointExtension>
        </extensions>
      </trkpt>
      <trkpt lat="44.16966" lon="5.27396">
        <ele>1653.8</ele>
        <time>2021-06-12T09:30:17Z</time>
        <extensions>
          <gpxtpx:TrackPointExtension xmlns:gpxtpx="http://www.garmin.com/xmlschemas/TrackPointExtension/v1">
            <gpxtpx:hr>123</gpxtpx:hr>
          </gpxtpx:TrackPointExtension>
        </extensions>
      </trkpt>
      <trkpt lat="44.16968" lon="5.27392">
        <ele>1654.4</ele>
        <time>2021-06-12T09:30:22Z</time>
        <extensions>
          <gpxtpx:TrackPointExtension xmlns:gpxtpx="http://www.garmin.com/xmlschemas/TrackPointExtension/v1">
            <gpxtpx:hr>123</gpxtpx:hr>
          </gpxtpx:TrackPointExtension>
        </extensions>
      </trkpt>
      <trkpt lat="44.16969" lon="5.2739">
        <ele>1654.6</ele>
        <time>2021-06-12T09:30:24Z</time>
        <extensions>
          <gpxtpx:TrackPointExtension xmlns:gpxtpx="http://www.garmin.com/xmlschemas/TrackPointExtension/v1">
            <gpxtpx:hr>123</gpxtpx:hr>
          </gpxtpx:TrackPointExtension>
        </extensions>
      </trkpt>
      <trkpt lat="44.16972" lon="5.27385">
        <ele>1655.4</ele>
        <time>2021-06-12T09:30:30Z</time>
        <extensions>
          <gpxtpx:TrackPointExtension xmlns:gpxtpx="http://www.garmin.com/xmlschemas/TrackPointExtension/v1">
            <gpxtpx:hr>126</gpxtpx:hr>
          </gpxtpx:TrackPointExtension>
        </extensions>
      </trkpt>
      <trkpt lat="44.16972" lon="5.27384">
        <ele>1655.6</ele>
        <time>2021-06-12T09:30:31Z</time>
        <extensions>
          <gpxtpx:TrackPointExtension xmlns:gpxtpx="http://www.garmin.com/xmlschemas/TrackPointExtension/v1">
            <gpxtpx:hr>126</gpxtpx:hr>
          </gpxtpx:TrackPointExtension>
        </extensions>
      </trkpt>
      <trkpt lat="44.16973" lon="5.2738">
        <ele>1656</ele>
        <time>2021-06-12T09:30:34Z</time>
        <extensions>
          <gpxtpx:TrackPointExtension xmlns:gpxtpx="http://www.garmin.com/xmlschemas/TrackPointExtension/v1">
            <gpxtpx:hr>127</gpxtpx:hr>
          </gpxtpx:TrackPointExtension>
        </extensions>
      </trkpt>
      <trkpt lat="44.16976" lon="5.27376">
        <ele>1656.6</ele>
        <time>2021-06-12T09:30:39Z</time>
        <extensions>
          <gpxtpx:TrackPointExtension xmlns:gpxtpx="http://www.garmin.com/xmlschemas/TrackPointExtension/v1">
            <gpxtpx:hr>128</gpxtpx:hr>
          </gpxtpx:TrackPointExtension>
        </extensions>
      </trkpt>
      <trkpt lat="44.16976" lon="5.27375">
        <ele>1656.6</ele>
        <time>2021-06-12T09:30:40Z</time>
        <extensions>
          <gpxtpx:TrackPointExtension xmlns:gpxtpx="http://www.garmin.com/xmlschemas/TrackPointExtension/v1">
            <gpxtpx:hr>128</gpxtpx:hr>
          </gpxtpx:TrackPointExtension>
        </extensions>
      </trkpt>
      <trkpt lat="44.16977" lon="5.27374">
        <ele>1656.6</ele>
        <time>2021-06-12T09:30:41Z</time>
        <extensions>
          <gpxtpx:TrackPointExtension xmlns:gpxtpx="http://www.garmin.com/xmlschemas/TrackPointExtension/v1">
            <gpxtpx:hr>128</gpxtpx:hr>
          </gpxtpx:TrackPointExtension>
        </extensions>
      </trkpt>
      <trkpt lat="44.16977" lon="5.27373">
        <ele>1656.6</ele>
        <time>2021-06-12T09:30:42Z</time>
        <extensions>
          <gpxtpx:TrackPointExtension xmlns:gpxtpx="http://www.garmin.com/xmlschemas/TrackPointExtension/v1">
            <gpxtpx:hr>129</gpxtpx:hr>
          </gpxtpx:TrackPointExtension>
        </extensions>
      </trkpt>
      <trkpt lat="44.16978" lon="5.2737">
        <ele>1657</ele>
        <time>2021-06-12T09:30:45Z</time>
        <extensions>
          <gpxtpx:TrackPointExtension xmlns:gpxtpx="http://www.garmin.com/xmlschemas/TrackPointExtension/v1">
            <gpxtpx:hr>128</gpxtpx:hr>
          </gpxtpx:TrackPointExtension>
        </extensions>
      </trkpt>
      <trkpt lat="44.16979" lon="5.27367">
        <ele>1657.6</ele>
        <time>2021-06-12T09:30:48Z</time>
        <extensions>
          <gpxtpx:TrackPointExtension xmlns:gpxtpx="http://www.garmin.com/xmlschemas/TrackPointExtension/v1">
            <gpxtpx:hr>128</gpxtpx:hr>
          </gpxtpx:TrackPointExtension>
        </extensions>
      </trkpt>
      <trkpt lat="44.1698" lon="5.27365">
        <ele>1658</ele>
        <time>2021-06-12T09:30:50Z</time>
        <extensions>
          <gpxtpx:TrackPointExtension xmlns:gpxtpx="http://www.garmin.com/xmlschemas/TrackPointExtension/v1">
            <gpxtpx:hr>128</gpxtpx:hr>
          </gpxtpx:TrackPointExtension>
        </extensions>
      </trkpt>
      <trkpt lat="44.16981" lon="5.27362">
        <ele>1658.2</ele>
        <time>2021-06-12T09:30:53Z</time>
        <extensions>
          <gpxtpx:TrackPointExtension xmlns:gpxtpx="http://www.garmin.com/xmlschemas/TrackPointExtension/v1">
            <gpxtpx:hr>127</gpxtpx:hr>
          </gpxtpx:TrackPointExtension>
        </extensions>
      </trkpt>
      <trkpt lat="44.16983" lon="5.2736">
        <ele>1658.6</ele>
        <time>2021-06-12T09:30:55Z</time>
        <extensions>
          <gpxtpx:TrackPointExtension xmlns:gpxtpx="http://www.garmin.com/xmlschemas/TrackPointExtension/v1">
            <gpxtpx:hr>128</gpxtpx:hr>
          </gpxtpx:TrackPointExtension>
        </extensions>
      </trkpt>
      <trkpt lat="44.16984" lon="5.2736">
        <ele>1658.6</ele>
        <time>2021-06-12T09:30:56Z</time>
        <extensions>
          <gpxtpx:TrackPointExtension xmlns:gpxtpx="http://www.garmin.com/xmlschemas/TrackPointExtension/v1">
            <gpxtpx:hr>128</gpxtpx:hr>
          </gpxtpx:TrackPointExtension>
        </extensions>
      </trkpt>
      <trkpt lat="44.16985" lon="5.2736">
        <ele>1658.8</ele>
        <time>2021-06-12T09:30:57Z</time>
        <extensions>
          <gpxtpx:TrackPointExtension xmlns:gpxtpx="http://www.garmin.com/xmlschemas/TrackPointExtension/v1">
            <gpxtpx:hr>129</gpxtpx:hr>
          </gpxtpx:TrackPointExtension>
        </extensions>
      </trkpt>
      <trkpt lat="44.16987" lon="5.27358">
        <ele>1659.2</ele>
        <time>2021-06-12T09:31:00Z</time>
        <extensions>
          <gpxtpx:TrackPointExtension xmlns:gpxtpx="http://www.garmin.com/xmlschemas/TrackPointExtension/v1">
            <gpxtpx:hr>130</gpxtpx:hr>
          </gpxtpx:TrackPointExtension>
        </extensions>
      </trkpt>
      <trkpt lat="44.16988" lon="5.27356">
        <ele>1659.6</ele>
        <time>2021-06-12T09:31:02Z</time>
        <extensions>
          <gpxtpx:TrackPointExtension xmlns:gpxtpx="http://www.garmin.com/xmlschemas/TrackPointExtension/v1">
            <gpxtpx:hr>129</gpxtpx:hr>
          </gpxtpx:TrackPointExtension>
        </extensions>
      </trkpt>
      <trkpt lat="44.16988" lon="5.27355">
        <ele>1659.6</ele>
        <time>2021-06-12T09:31:03Z</time>
        <extensions>
          <gpxtpx:TrackPointExtension xmlns:gpxtpx="http://www.garmin.com/xmlschemas/TrackPointExtension/v1">
            <gpxtpx:hr>130</gpxtpx:hr>
          </gpxtpx:TrackPointExtension>
        </extensions>
      </trkpt>
      <trkpt lat="44.16989" lon="5.27354">
        <ele>1659.8</ele>
        <time>2021-06-12T09:31:04Z</time>
        <extensions>
          <gpxtpx:TrackPointExtension xmlns:gpxtpx="http://www.garmin.com/xmlschemas/TrackPointExtension/v1">
            <gpxtpx:hr>130</gpxtpx:hr>
          </gpxtpx:TrackPointExtension>
        </extensions>
      </trkpt>
      <trkpt lat="44.1699" lon="5.27352">
        <ele>1660.2</ele>
        <time>2021-06-12T09:31:07Z</time>
        <extensions>
          <gpxtpx:TrackPointExtension xmlns:gpxtpx="http://www.garmin.com/xmlschemas/TrackPointExtension/v1">
            <gpxtpx:hr>131</gpxtpx:hr>
          </gpxtpx:TrackPointExtension>
        </extensions>
      </trkpt>
      <trkpt lat="44.16993" lon="5.27349">
        <ele>1660.8</ele>
        <time>2021-06-12T09:31:11Z</time>
        <extensions>
          <gpxtpx:TrackPointExtension xmlns:gpxtpx="http://www.garmin.com/xmlschemas/TrackPointExtension/v1">
            <gpxtpx:hr>133</gpxtpx:hr>
          </gpxtpx:TrackPointExtension>
        </extensions>
      </trkpt>
      <trkpt lat="44.16994" lon="5.27348">
        <ele>1661</ele>
        <time>2021-06-12T09:31:12Z</time>
        <extensions>
          <gpxtpx:TrackPointExtension xmlns:gpxtpx="http://www.garmin.com/xmlschemas/TrackPointExtension/v1">
            <gpxtpx:hr>132</gpxtpx:hr>
          </gpxtpx:TrackPointExtension>
        </extensions>
      </trkpt>
      <trkpt lat="44.16995" lon="5.27344">
        <ele>1661.4</ele>
        <time>2021-06-12T09:31:15Z</time>
        <extensions>
          <gpxtpx:TrackPointExtension xmlns:gpxtpx="http://www.garmin.com/xmlschemas/TrackPointExtension/v1">
            <gpxtpx:hr>133</gpxtpx:hr>
          </gpxtpx:TrackPointExtension>
        </extensions>
      </trkpt>
      <trkpt lat="44.16995" lon="5.27341">
        <ele>1661.6</ele>
        <time>2021-06-12T09:31:17Z</time>
        <extensions>
          <gpxtpx:TrackPointExtension xmlns:gpxtpx="http://www.garmin.com/xmlschemas/TrackPointExtension/v1">
            <gpxtpx:hr>133</gpxtpx:hr>
          </gpxtpx:TrackPointExtension>
        </extensions>
      </trkpt>
      <trkpt lat="44.16996" lon="5.27337">
        <ele>1662</ele>
        <time>2021-06-12T09:31:20Z</time>
        <extensions>
          <gpxtpx:TrackPointExtension xmlns:gpxtpx="http://www.garmin.com/xmlschemas/TrackPointExtension/v1">
            <gpxtpx:hr>133</gpxtpx:hr>
          </gpxtpx:TrackPointExtension>
        </extensions>
      </trkpt>
      <trkpt lat="44.16997" lon="5.27333">
        <ele>1662.4</ele>
        <time>2021-06-12T09:31:23Z</time>
        <extensions>
          <gpxtpx:TrackPointExtension xmlns:gpxtpx="http://www.garmin.com/xmlschemas/TrackPointExtension/v1">
            <gpxtpx:hr>133</gpxtpx:hr>
          </gpxtpx:TrackPointExtension>
        </extensions>
      </trkpt>
      <trkpt lat="44.16998" lon="5.2733">
        <ele>1662.6</ele>
        <time>2021-06-12T09:31:25Z</time>
        <extensions>
          <gpxtpx:TrackPointExtension xmlns:gpxtpx="http://www.garmin.com/xmlschemas/TrackPointExtension/v1">
            <gpxtpx:hr>133</gpxtpx:hr>
          </gpxtpx:TrackPointExtension>
        </extensions>
      </trkpt>
      <trkpt lat="44.17" lon="5.27327">
        <ele>1663</ele>
        <time>2021-06-12T09:31:28Z</time>
        <extensions>
          <gpxtpx:TrackPointExtension xmlns:gpxtpx="http://www.garmin.com/xmlschemas/TrackPointExtension/v1">
            <gpxtpx:hr>133</gpxtpx:hr>
          </gpxtpx:TrackPointExtension>
        </extensions>
      </trkpt>
      <trkpt lat="44.17001" lon="5.27324">
        <ele>1663.2</ele>
        <time>2021-06-12T09:31:30Z</time>
        <extensions>
          <gpxtpx:TrackPointExtension xmlns:gpxtpx="http://www.garmin.com/xmlschemas/TrackPointExtension/v1">
            <gpxtpx:hr>134</gpxtpx:hr>
          </gpxtpx:TrackPointExtension>
        </extensions>
      </trkpt>
      <trkpt lat="44.17003" lon="5.27321">
        <ele>1663.6</ele>
        <time>2021-06-12T09:31:33Z</time>
        <extensions>
          <gpxtpx:TrackPointExtension xmlns:gpxtpx="http://www.garmin.com/xmlschemas/TrackPointExtension/v1">
            <gpxtpx:hr>134</gpxtpx:hr>
          </gpxtpx:TrackPointExtension>
        </extensions>
      </trkpt>
      <trkpt lat="44.17005" lon="5.27317">
        <ele>1664.2</ele>
        <time>2021-06-12T09:31:37Z</time>
        <extensions>
          <gpxtpx:TrackPointExtension xmlns:gpxtpx="http://www.garmin.com/xmlschemas/TrackPointExtension/v1">
            <gpxtpx:hr>134</gpxtpx:hr>
          </gpxtpx:TrackPointExtension>
        </extensions>
      </trkpt>
      <trkpt lat="44.17007" lon="5.27314">
        <ele>1664.4</ele>
        <time>2021-06-12T09:31:40Z</time>
        <extensions>
          <gpxtpx:TrackPointExtension xmlns:gpxtpx="http://www.garmin.com/xmlschemas/TrackPointExtension/v1">
            <gpxtpx:hr>133</gpxtpx:hr>
          </gpxtpx:TrackPointExtension>
        </extensions>
      </trkpt>
      <trkpt lat="44.17008" lon="5.27307">
        <ele>1665.2</ele>
        <time>2021-06-12T09:31:46Z</time>
        <extensions>
          <gpxtpx:TrackPointExtension xmlns:gpxtpx="http://www.garmin.com/xmlschemas/TrackPointExtension/v1">
            <gpxtpx:hr>132</gpxtpx:hr>
          </gpxtpx:TrackPointExtension>
        </extensions>
      </trkpt>
      <trkpt lat="44.1701" lon="5.27301">
        <ele>1665.8</ele>
        <time>2021-06-12T09:31:51Z</time>
        <extensions>
          <gpxtpx:TrackPointExtension xmlns:gpxtpx="http://www.garmin.com/xmlschemas/TrackPointExtension/v1">
            <gpxtpx:hr>132</gpxtpx:hr>
          </gpxtpx:TrackPointExtension>
        </extensions>
      </trkpt>
      <trkpt lat="44.17012" lon="5.27298">
        <ele>1666</ele>
        <time>2021-06-12T09:31:54Z</time>
        <extensions>
          <gpxtpx:TrackPointExtension xmlns:gpxtpx="http://www.garmin.com/xmlschemas/TrackPointExtension/v1">
            <gpxtpx:hr>132</gpxtpx:hr>
          </gpxtpx:TrackPointExtension>
        </extensions>
      </trkpt>
      <trkpt lat="44.17014" lon="5.27294">
        <ele>1666.2</ele>
        <time>2021-06-12T09:31:57Z</time>
        <extensions>
          <gpxtpx:TrackPointExtension xmlns:gpxtpx="http://www.garmin.com/xmlschemas/TrackPointExtension/v1">
            <gpxtpx:hr>132</gpxtpx:hr>
          </gpxtpx:TrackPointExtension>
        </extensions>
      </trkpt>
      <trkpt lat="44.17017" lon="5.2728">
        <ele>1667.2</ele>
        <time>2021-06-12T09:32:06Z</time>
        <extensions>
          <gpxtpx:TrackPointExtension xmlns:gpxtpx="http://www.garmin.com/xmlschemas/TrackPointExtension/v1">
            <gpxtpx:hr>130</gpxtpx:hr>
          </gpxtpx:TrackPointExtension>
        </extensions>
      </trkpt>
      <trkpt lat="44.17021" lon="5.27273">
        <ele>1668</ele>
        <time>2021-06-12T09:32:13Z</time>
        <extensions>
          <gpxtpx:TrackPointExtension xmlns:gpxtpx="http://www.garmin.com/xmlschemas/TrackPointExtension/v1">
            <gpxtpx:hr>131</gpxtpx:hr>
          </gpxtpx:TrackPointExtension>
        </extensions>
      </trkpt>
      <trkpt lat="44.17022" lon="5.27272">
        <ele>1668.2</ele>
        <time>2021-06-12T09:32:15Z</time>
        <extensions>
          <gpxtpx:TrackPointExtension xmlns:gpxtpx="http://www.garmin.com/xmlschemas/TrackPointExtension/v1">
            <gpxtpx:hr>130</gpxtpx:hr>
          </gpxtpx:TrackPointExtension>
        </extensions>
      </trkpt>
      <trkpt lat="44.17028" lon="5.27264">
        <ele>1669.2</ele>
        <time>2021-06-12T09:32:25Z</time>
        <extensions>
          <gpxtpx:TrackPointExtension xmlns:gpxtpx="http://www.garmin.com/xmlschemas/TrackPointExtension/v1">
            <gpxtpx:hr>129</gpxtpx:hr>
          </gpxtpx:TrackPointExtension>
        </extensions>
      </trkpt>
      <trkpt lat="44.17029" lon="5.27263">
        <ele>1669.6</ele>
        <time>2021-06-12T09:32:27Z</time>
        <extensions>
          <gpxtpx:TrackPointExtension xmlns:gpxtpx="http://www.garmin.com/xmlschemas/TrackPointExtension/v1">
            <gpxtpx:hr>129</gpxtpx:hr>
          </gpxtpx:TrackPointExtension>
        </extensions>
      </trkpt>
      <trkpt lat="44.17031" lon="5.27261">
        <ele>1669.8</ele>
        <time>2021-06-12T09:32:29Z</time>
        <extensions>
          <gpxtpx:TrackPointExtension xmlns:gpxtpx="http://www.garmin.com/xmlschemas/TrackPointExtension/v1">
            <gpxtpx:hr>129</gpxtpx:hr>
          </gpxtpx:TrackPointExtension>
        </extensions>
      </trkpt>
      <trkpt lat="44.17033" lon="5.27258">
        <ele>1670</ele>
        <time>2021-06-12T09:32:33Z</time>
        <extensions>
          <gpxtpx:TrackPointExtension xmlns:gpxtpx="http://www.garmin.com/xmlschemas/TrackPointExtension/v1">
            <gpxtpx:hr>129</gpxtpx:hr>
          </gpxtpx:TrackPointExtension>
        </extensions>
      </trkpt>
      <trkpt lat="44.17034" lon="5.27257">
        <ele>1670.4</ele>
        <time>2021-06-12T09:32:35Z</time>
        <extensions>
          <gpxtpx:TrackPointExtension xmlns:gpxtpx="http://www.garmin.com/xmlschemas/TrackPointExtension/v1">
            <gpxtpx:hr>130</gpxtpx:hr>
          </gpxtpx:TrackPointExtension>
        </extensions>
      </trkpt>
      <trkpt lat="44.17035" lon="5.27256">
        <ele>1670.4</ele>
        <time>2021-06-12T09:32:36Z</time>
        <extensions>
          <gpxtpx:TrackPointExtension xmlns:gpxtpx="http://www.garmin.com/xmlschemas/TrackPointExtension/v1">
            <gpxtpx:hr>129</gpxtpx:hr>
          </gpxtpx:TrackPointExtension>
        </extensions>
      </trkpt>
      <trkpt lat="44.17036" lon="5.27254">
        <ele>1670.6</ele>
        <time>2021-06-12T09:32:38Z</time>
        <extensions>
          <gpxtpx:TrackPointExtension xmlns:gpxtpx="http://www.garmin.com/xmlschemas/TrackPointExtension/v1">
            <gpxtpx:hr>129</gpxtpx:hr>
          </gpxtpx:TrackPointExtension>
        </extensions>
      </trkpt>
      <trkpt lat="44.17037" lon="5.27252">
        <ele>1670.8</ele>
        <time>2021-06-12T09:32:40Z</time>
        <extensions>
          <gpxtpx:TrackPointExtension xmlns:gpxtpx="http://www.garmin.com/xmlschemas/TrackPointExtension/v1">
            <gpxtpx:hr>130</gpxtpx:hr>
          </gpxtpx:TrackPointExtension>
        </extensions>
      </trkpt>
      <trkpt lat="44.17039" lon="5.2725">
        <ele>1671.4</ele>
        <time>2021-06-12T09:32:43Z</time>
        <extensions>
          <gpxtpx:TrackPointExtension xmlns:gpxtpx="http://www.garmin.com/xmlschemas/TrackPointExtension/v1">
            <gpxtpx:hr>131</gpxtpx:hr>
          </gpxtpx:TrackPointExtension>
        </extensions>
      </trkpt>
      <trkpt lat="44.1704" lon="5.27249">
        <ele>1671.4</ele>
        <time>2021-06-12T09:32:44Z</time>
        <extensions>
          <gpxtpx:TrackPointExtension xmlns:gpxtpx="http://www.garmin.com/xmlschemas/TrackPointExtension/v1">
            <gpxtpx:hr>131</gpxtpx:hr>
          </gpxtpx:TrackPointExtension>
        </extensions>
      </trkpt>
      <trkpt lat="44.17041" lon="5.27248">
        <ele>1671.8</ele>
        <time>2021-06-12T09:32:46Z</time>
        <extensions>
          <gpxtpx:TrackPointExtension xmlns:gpxtpx="http://www.garmin.com/xmlschemas/TrackPointExtension/v1">
            <gpxtpx:hr>131</gpxtpx:hr>
          </gpxtpx:TrackPointExtension>
        </extensions>
      </trkpt>
      <trkpt lat="44.17041" lon="5.27246">
        <ele>1671.8</ele>
        <time>2021-06-12T09:32:47Z</time>
        <extensions>
          <gpxtpx:TrackPointExtension xmlns:gpxtpx="http://www.garmin.com/xmlschemas/TrackPointExtension/v1">
            <gpxtpx:hr>131</gpxtpx:hr>
          </gpxtpx:TrackPointExtension>
        </extensions>
      </trkpt>
      <trkpt lat="44.17042" lon="5.27244">
        <ele>1672</ele>
        <time>2021-06-12T09:32:49Z</time>
        <extensions>
          <gpxtpx:TrackPointExtension xmlns:gpxtpx="http://www.garmin.com/xmlschemas/TrackPointExtension/v1">
            <gpxtpx:hr>131</gpxtpx:hr>
          </gpxtpx:TrackPointExtension>
        </extensions>
      </trkpt>
      <trkpt lat="44.17044" lon="5.27242">
        <ele>1672.2</ele>
        <time>2021-06-12T09:32:51Z</time>
        <extensions>
          <gpxtpx:TrackPointExtension xmlns:gpxtpx="http://www.garmin.com/xmlschemas/TrackPointExtension/v1">
            <gpxtpx:hr>132</gpxtpx:hr>
          </gpxtpx:TrackPointExtension>
        </extensions>
      </trkpt>
      <trkpt lat="44.17045" lon="5.2724">
        <ele>1672.6</ele>
        <time>2021-06-12T09:32:53Z</time>
        <extensions>
          <gpxtpx:TrackPointExtension xmlns:gpxtpx="http://www.garmin.com/xmlschemas/TrackPointExtension/v1">
            <gpxtpx:hr>132</gpxtpx:hr>
          </gpxtpx:TrackPointExtension>
        </extensions>
      </trkpt>
      <trkpt lat="44.17046" lon="5.2724">
        <ele>1672.8</ele>
        <time>2021-06-12T09:32:54Z</time>
        <extensions>
          <gpxtpx:TrackPointExtension xmlns:gpxtpx="http://www.garmin.com/xmlschemas/TrackPointExtension/v1">
            <gpxtpx:hr>133</gpxtpx:hr>
          </gpxtpx:TrackPointExtension>
        </extensions>
      </trkpt>
      <trkpt lat="44.1705" lon="5.27234">
        <ele>1673.6</ele>
        <time>2021-06-12T09:33:00Z</time>
        <extensions>
          <gpxtpx:TrackPointExtension xmlns:gpxtpx="http://www.garmin.com/xmlschemas/TrackPointExtension/v1">
            <gpxtpx:hr>134</gpxtpx:hr>
          </gpxtpx:TrackPointExtension>
        </extensions>
      </trkpt>
      <trkpt lat="44.1705" lon="5.27232">
        <ele>1673.8</ele>
        <time>2021-06-12T09:33:01Z</time>
        <extensions>
          <gpxtpx:TrackPointExtension xmlns:gpxtpx="http://www.garmin.com/xmlschemas/TrackPointExtension/v1">
            <gpxtpx:hr>134</gpxtpx:hr>
          </gpxtpx:TrackPointExtension>
        </extensions>
      </trkpt>
      <trkpt lat="44.17052" lon="5.27229">
        <ele>1674.2</ele>
        <time>2021-06-12T09:33:04Z</time>
        <extensions>
          <gpxtpx:TrackPointExtension xmlns:gpxtpx="http://www.garmin.com/xmlschemas/TrackPointExtension/v1">
            <gpxtpx:hr>135</gpxtpx:hr>
          </gpxtpx:TrackPointExtension>
        </extensions>
      </trkpt>
      <trkpt lat="44.17054" lon="5.27227">
        <ele>1674.4</ele>
        <time>2021-06-12T09:33:06Z</time>
        <extensions>
          <gpxtpx:TrackPointExtension xmlns:gpxtpx="http://www.garmin.com/xmlschemas/TrackPointExtension/v1">
            <gpxtpx:hr>134</gpxtpx:hr>
          </gpxtpx:TrackPointExtension>
        </extensions>
      </trkpt>
      <trkpt lat="44.17057" lon="5.27223">
        <ele>1674.6</ele>
        <time>2021-06-12T09:33:10Z</time>
        <extensions>
          <gpxtpx:TrackPointExtension xmlns:gpxtpx="http://www.garmin.com/xmlschemas/TrackPointExtension/v1">
            <gpxtpx:hr>134</gpxtpx:hr>
          </gpxtpx:TrackPointExtension>
        </extensions>
      </trkpt>
      <trkpt lat="44.17058" lon="5.27223">
        <ele>1674.8</ele>
        <time>2021-06-12T09:33:11Z</time>
        <extensions>
          <gpxtpx:TrackPointExtension xmlns:gpxtpx="http://www.garmin.com/xmlschemas/TrackPointExtension/v1">
            <gpxtpx:hr>134</gpxtpx:hr>
          </gpxtpx:TrackPointExtension>
        </extensions>
      </trkpt>
      <trkpt lat="44.17059" lon="5.27217">
        <ele>1675.4</ele>
        <time>2021-06-12T09:33:16Z</time>
        <extensions>
          <gpxtpx:TrackPointExtension xmlns:gpxtpx="http://www.garmin.com/xmlschemas/TrackPointExtension/v1">
            <gpxtpx:hr>134</gpxtpx:hr>
          </gpxtpx:TrackPointExtension>
        </extensions>
      </trkpt>
      <trkpt lat="44.1706" lon="5.27211">
        <ele>1675.8</ele>
        <time>2021-06-12T09:33:20Z</time>
        <extensions>
          <gpxtpx:TrackPointExtension xmlns:gpxtpx="http://www.garmin.com/xmlschemas/TrackPointExtension/v1">
            <gpxtpx:hr>134</gpxtpx:hr>
          </gpxtpx:TrackPointExtension>
        </extensions>
      </trkpt>
      <trkpt lat="44.17061" lon="5.27209">
        <ele>1676.2</ele>
        <time>2021-06-12T09:33:22Z</time>
        <extensions>
          <gpxtpx:TrackPointExtension xmlns:gpxtpx="http://www.garmin.com/xmlschemas/TrackPointExtension/v1">
            <gpxtpx:hr>135</gpxtpx:hr>
          </gpxtpx:TrackPointExtension>
        </extensions>
      </trkpt>
      <trkpt lat="44.17063" lon="5.27201">
        <ele>1677</ele>
        <time>2021-06-12T09:33:29Z</time>
        <extensions>
          <gpxtpx:TrackPointExtension xmlns:gpxtpx="http://www.garmin.com/xmlschemas/TrackPointExtension/v1">
            <gpxtpx:hr>136</gpxtpx:hr>
          </gpxtpx:TrackPointExtension>
        </extensions>
      </trkpt>
      <trkpt lat="44.17066" lon="5.27194">
        <ele>1677.6</ele>
        <time>2021-06-12T09:33:36Z</time>
        <extensions>
          <gpxtpx:TrackPointExtension xmlns:gpxtpx="http://www.garmin.com/xmlschemas/TrackPointExtension/v1">
            <gpxtpx:hr>136</gpxtpx:hr>
          </gpxtpx:TrackPointExtension>
        </extensions>
      </trkpt>
      <trkpt lat="44.17067" lon="5.27191">
        <ele>1677.8</ele>
        <time>2021-06-12T09:33:38Z</time>
        <extensions>
          <gpxtpx:TrackPointExtension xmlns:gpxtpx="http://www.garmin.com/xmlschemas/TrackPointExtension/v1">
            <gpxtpx:hr>135</gpxtpx:hr>
          </gpxtpx:TrackPointExtension>
        </extensions>
      </trkpt>
      <trkpt lat="44.17068" lon="5.27188">
        <ele>1678</ele>
        <time>2021-06-12T09:33:40Z</time>
        <extensions>
          <gpxtpx:TrackPointExtension xmlns:gpxtpx="http://www.garmin.com/xmlschemas/TrackPointExtension/v1">
            <gpxtpx:hr>135</gpxtpx:hr>
          </gpxtpx:TrackPointExtension>
        </extensions>
      </trkpt>
      <trkpt lat="44.17069" lon="5.2718">
        <ele>1678.6</ele>
        <time>2021-06-12T09:33:45Z</time>
        <extensions>
          <gpxtpx:TrackPointExtension xmlns:gpxtpx="http://www.garmin.com/xmlschemas/TrackPointExtension/v1">
            <gpxtpx:hr>135</gpxtpx:hr>
          </gpxtpx:TrackPointExtension>
        </extensions>
      </trkpt>
      <trkpt lat="44.17069" lon="5.27178">
        <ele>1678.6</ele>
        <time>2021-06-12T09:33:46Z</time>
        <extensions>
          <gpxtpx:TrackPointExtension xmlns:gpxtpx="http://www.garmin.com/xmlschemas/TrackPointExtension/v1">
            <gpxtpx:hr>134</gpxtpx:hr>
          </gpxtpx:TrackPointExtension>
        </extensions>
      </trkpt>
      <trkpt lat="44.17068" lon="5.27174">
        <ele>1678.8</ele>
        <time>2021-06-12T09:33:49Z</time>
        <extensions>
          <gpxtpx:TrackPointExtension xmlns:gpxtpx="http://www.garmin.com/xmlschemas/TrackPointExtension/v1">
            <gpxtpx:hr>134</gpxtpx:hr>
          </gpxtpx:TrackPointExtension>
        </extensions>
      </trkpt>
      <trkpt lat="44.17069" lon="5.27171">
        <ele>1678.8</ele>
        <time>2021-06-12T09:33:51Z</time>
        <extensions>
          <gpxtpx:TrackPointExtension xmlns:gpxtpx="http://www.garmin.com/xmlschemas/TrackPointExtension/v1">
            <gpxtpx:hr>133</gpxtpx:hr>
          </gpxtpx:TrackPointExtension>
        </extensions>
      </trkpt>
      <trkpt lat="44.1707" lon="5.27168">
        <ele>1679</ele>
        <time>2021-06-12T09:33:53Z</time>
        <extensions>
          <gpxtpx:TrackPointExtension xmlns:gpxtpx="http://www.garmin.com/xmlschemas/TrackPointExtension/v1">
            <gpxtpx:hr>133</gpxtpx:hr>
          </gpxtpx:TrackPointExtension>
        </extensions>
      </trkpt>
      <trkpt lat="44.1707" lon="5.27167">
        <ele>1679</ele>
        <time>2021-06-12T09:33:54Z</time>
        <extensions>
          <gpxtpx:TrackPointExtension xmlns:gpxtpx="http://www.garmin.com/xmlschemas/TrackPointExtension/v1">
            <gpxtpx:hr>133</gpxtpx:hr>
          </gpxtpx:TrackPointExtension>
        </extensions>
      </trkpt>
      <trkpt lat="44.17071" lon="5.27164">
        <ele>1679.4</ele>
        <time>2021-06-12T09:33:56Z</time>
        <extensions>
          <gpxtpx:TrackPointExtension xmlns:gpxtpx="http://www.garmin.com/xmlschemas/TrackPointExtension/v1">
            <gpxtpx:hr>133</gpxtpx:hr>
          </gpxtpx:TrackPointExtension>
        </extensions>
      </trkpt>
      <trkpt lat="44.17074" lon="5.27157">
        <ele>1680</ele>
        <time>2021-06-12T09:34:02Z</time>
        <extensions>
          <gpxtpx:TrackPointExtension xmlns:gpxtpx="http://www.garmin.com/xmlschemas/TrackPointExtension/v1">
            <gpxtpx:hr>132</gpxtpx:hr>
          </gpxtpx:TrackPointExtension>
        </extensions>
      </trkpt>
      <trkpt lat="44.17075" lon="5.2715">
        <ele>1680.8</ele>
        <time>2021-06-12T09:34:07Z</time>
        <extensions>
          <gpxtpx:TrackPointExtension xmlns:gpxtpx="http://www.garmin.com/xmlschemas/TrackPointExtension/v1">
            <gpxtpx:hr>133</gpxtpx:hr>
          </gpxtpx:TrackPointExtension>
        </extensions>
      </trkpt>
      <trkpt lat="44.17077" lon="5.27147">
        <ele>1681.2</ele>
        <time>2021-06-12T09:34:10Z</time>
        <extensions>
          <gpxtpx:TrackPointExtension xmlns:gpxtpx="http://www.garmin.com/xmlschemas/TrackPointExtension/v1">
            <gpxtpx:hr>133</gpxtpx:hr>
          </gpxtpx:TrackPointExtension>
        </extensions>
      </trkpt>
      <trkpt lat="44.17077" lon="5.27145">
        <ele>1681.4</ele>
        <time>2021-06-12T09:34:12Z</time>
        <extensions>
          <gpxtpx:TrackPointExtension xmlns:gpxtpx="http://www.garmin.com/xmlschemas/TrackPointExtension/v1">
            <gpxtpx:hr>133</gpxtpx:hr>
          </gpxtpx:TrackPointExtension>
        </extensions>
      </trkpt>
      <trkpt lat="44.17078" lon="5.2714">
        <ele>1681.8</ele>
        <time>2021-06-12T09:34:15Z</time>
        <extensions>
          <gpxtpx:TrackPointExtension xmlns:gpxtpx="http://www.garmin.com/xmlschemas/TrackPointExtension/v1">
            <gpxtpx:hr>134</gpxtpx:hr>
          </gpxtpx:TrackPointExtension>
        </extensions>
      </trkpt>
      <trkpt lat="44.17079" lon="5.27135">
        <ele>1682.2</ele>
        <time>2021-06-12T09:34:18Z</time>
        <extensions>
          <gpxtpx:TrackPointExtension xmlns:gpxtpx="http://www.garmin.com/xmlschemas/TrackPointExtension/v1">
            <gpxtpx:hr>133</gpxtpx:hr>
          </gpxtpx:TrackPointExtension>
        </extensions>
      </trkpt>
      <trkpt lat="44.17079" lon="5.27134">
        <ele>1682.2</ele>
        <time>2021-06-12T09:34:19Z</time>
        <extensions>
          <gpxtpx:TrackPointExtension xmlns:gpxtpx="http://www.garmin.com/xmlschemas/TrackPointExtension/v1">
            <gpxtpx:hr>132</gpxtpx:hr>
          </gpxtpx:TrackPointExtension>
        </extensions>
      </trkpt>
      <trkpt lat="44.17082" lon="5.27124">
        <ele>1683.2</ele>
        <time>2021-06-12T09:34:28Z</time>
        <extensions>
          <gpxtpx:TrackPointExtension xmlns:gpxtpx="http://www.garmin.com/xmlschemas/TrackPointExtension/v1">
            <gpxtpx:hr>133</gpxtpx:hr>
          </gpxtpx:TrackPointExtension>
        </extensions>
      </trkpt>
      <trkpt lat="44.17082" lon="5.27122">
        <ele>1683.4</ele>
        <time>2021-06-12T09:34:29Z</time>
        <extensions>
          <gpxtpx:TrackPointExtension xmlns:gpxtpx="http://www.garmin.com/xmlschemas/TrackPointExtension/v1">
            <gpxtpx:hr>133</gpxtpx:hr>
          </gpxtpx:TrackPointExtension>
        </extensions>
      </trkpt>
      <trkpt lat="44.17082" lon="5.27117">
        <ele>1683.6</ele>
        <time>2021-06-12T09:34:32Z</time>
        <extensions>
          <gpxtpx:TrackPointExtension xmlns:gpxtpx="http://www.garmin.com/xmlschemas/TrackPointExtension/v1">
            <gpxtpx:hr>133</gpxtpx:hr>
          </gpxtpx:TrackPointExtension>
        </extensions>
      </trkpt>
      <trkpt lat="44.17083" lon="5.27112">
        <ele>1683.8</ele>
        <time>2021-06-12T09:34:35Z</time>
        <extensions>
          <gpxtpx:TrackPointExtension xmlns:gpxtpx="http://www.garmin.com/xmlschemas/TrackPointExtension/v1">
            <gpxtpx:hr>133</gpxtpx:hr>
          </gpxtpx:TrackPointExtension>
        </extensions>
      </trkpt>
      <trkpt lat="44.17085" lon="5.27108">
        <ele>1684.4</ele>
        <time>2021-06-12T09:34:39Z</time>
        <extensions>
          <gpxtpx:TrackPointExtension xmlns:gpxtpx="http://www.garmin.com/xmlschemas/TrackPointExtension/v1">
            <gpxtpx:hr>133</gpxtpx:hr>
          </gpxtpx:TrackPointExtension>
        </extensions>
      </trkpt>
      <trkpt lat="44.17087" lon="5.27107">
        <ele>1684.8</ele>
        <time>2021-06-12T09:34:42Z</time>
        <extensions>
          <gpxtpx:TrackPointExtension xmlns:gpxtpx="http://www.garmin.com/xmlschemas/TrackPointExtension/v1">
            <gpxtpx:hr>132</gpxtpx:hr>
          </gpxtpx:TrackPointExtension>
        </extensions>
      </trkpt>
      <trkpt lat="44.17087" lon="5.27107">
        <ele>1685</ele>
        <time>2021-06-12T09:34:43Z</time>
        <extensions>
          <gpxtpx:TrackPointExtension xmlns:gpxtpx="http://www.garmin.com/xmlschemas/TrackPointExtension/v1">
            <gpxtpx:hr>133</gpxtpx:hr>
          </gpxtpx:TrackPointExtension>
        </extensions>
      </trkpt>
      <trkpt lat="44.17089" lon="5.27105">
        <ele>1685.6</ele>
        <time>2021-06-12T09:34:45Z</time>
        <extensions>
          <gpxtpx:TrackPointExtension xmlns:gpxtpx="http://www.garmin.com/xmlschemas/TrackPointExtension/v1">
            <gpxtpx:hr>133</gpxtpx:hr>
          </gpxtpx:TrackPointExtension>
        </extensions>
      </trkpt>
      <trkpt lat="44.17089" lon="5.27104">
        <ele>1685.8</ele>
        <time>2021-06-12T09:34:46Z</time>
        <extensions>
          <gpxtpx:TrackPointExtension xmlns:gpxtpx="http://www.garmin.com/xmlschemas/TrackPointExtension/v1">
            <gpxtpx:hr>132</gpxtpx:hr>
          </gpxtpx:TrackPointExtension>
        </extensions>
      </trkpt>
      <trkpt lat="44.1709" lon="5.27103">
        <ele>1686</ele>
        <time>2021-06-12T09:34:48Z</time>
        <extensions>
          <gpxtpx:TrackPointExtension xmlns:gpxtpx="http://www.garmin.com/xmlschemas/TrackPointExtension/v1">
            <gpxtpx:hr>132</gpxtpx:hr>
          </gpxtpx:TrackPointExtension>
        </extensions>
      </trkpt>
      <trkpt lat="44.1709" lon="5.27103">
        <ele>1686</ele>
        <time>2021-06-12T09:34:49Z</time>
        <extensions>
          <gpxtpx:TrackPointExtension xmlns:gpxtpx="http://www.garmin.com/xmlschemas/TrackPointExtension/v1">
            <gpxtpx:hr>133</gpxtpx:hr>
          </gpxtpx:TrackPointExtension>
        </extensions>
      </trkpt>
      <trkpt lat="44.17091" lon="5.27101">
        <ele>1686.4</ele>
        <time>2021-06-12T09:34:51Z</time>
        <extensions>
          <gpxtpx:TrackPointExtension xmlns:gpxtpx="http://www.garmin.com/xmlschemas/TrackPointExtension/v1">
            <gpxtpx:hr>132</gpxtpx:hr>
          </gpxtpx:TrackPointExtension>
        </extensions>
      </trkpt>
      <trkpt lat="44.17092" lon="5.271">
        <ele>1686.8</ele>
        <time>2021-06-12T09:34:53Z</time>
        <extensions>
          <gpxtpx:TrackPointExtension xmlns:gpxtpx="http://www.garmin.com/xmlschemas/TrackPointExtension/v1">
            <gpxtpx:hr>133</gpxtpx:hr>
          </gpxtpx:TrackPointExtension>
        </extensions>
      </trkpt>
      <trkpt lat="44.17096" lon="5.27099">
        <ele>1688</ele>
        <time>2021-06-12T09:34:58Z</time>
        <extensions>
          <gpxtpx:TrackPointExtension xmlns:gpxtpx="http://www.garmin.com/xmlschemas/TrackPointExtension/v1">
            <gpxtpx:hr>133</gpxtpx:hr>
          </gpxtpx:TrackPointExtension>
        </extensions>
      </trkpt>
      <trkpt lat="44.171" lon="5.27097">
        <ele>1689</ele>
        <time>2021-06-12T09:35:04Z</time>
        <extensions>
          <gpxtpx:TrackPointExtension xmlns:gpxtpx="http://www.garmin.com/xmlschemas/TrackPointExtension/v1">
            <gpxtpx:hr>135</gpxtpx:hr>
          </gpxtpx:TrackPointExtension>
        </extensions>
      </trkpt>
      <trkpt lat="44.17102" lon="5.27099">
        <ele>1689.2</ele>
        <time>2021-06-12T09:35:06Z</time>
        <extensions>
          <gpxtpx:TrackPointExtension xmlns:gpxtpx="http://www.garmin.com/xmlschemas/TrackPointExtension/v1">
            <gpxtpx:hr>136</gpxtpx:hr>
          </gpxtpx:TrackPointExtension>
        </extensions>
      </trkpt>
      <trkpt lat="44.17104" lon="5.27102">
        <ele>1689.8</ele>
        <time>2021-06-12T09:35:09Z</time>
        <extensions>
          <gpxtpx:TrackPointExtension xmlns:gpxtpx="http://www.garmin.com/xmlschemas/TrackPointExtension/v1">
            <gpxtpx:hr>136</gpxtpx:hr>
          </gpxtpx:TrackPointExtension>
        </extensions>
      </trkpt>
      <trkpt lat="44.17105" lon="5.27103">
        <ele>1690</ele>
        <time>2021-06-12T09:35:10Z</time>
        <extensions>
          <gpxtpx:TrackPointExtension xmlns:gpxtpx="http://www.garmin.com/xmlschemas/TrackPointExtension/v1">
            <gpxtpx:hr>137</gpxtpx:hr>
          </gpxtpx:TrackPointExtension>
        </extensions>
      </trkpt>
      <trkpt lat="44.17108" lon="5.2711">
        <ele>1691</ele>
        <time>2021-06-12T09:35:16Z</time>
        <extensions>
          <gpxtpx:TrackPointExtension xmlns:gpxtpx="http://www.garmin.com/xmlschemas/TrackPointExtension/v1">
            <gpxtpx:hr>139</gpxtpx:hr>
          </gpxtpx:TrackPointExtension>
        </extensions>
      </trkpt>
      <trkpt lat="44.17108" lon="5.27111">
        <ele>1691.2</ele>
        <time>2021-06-12T09:35:17Z</time>
        <extensions>
          <gpxtpx:TrackPointExtension xmlns:gpxtpx="http://www.garmin.com/xmlschemas/TrackPointExtension/v1">
            <gpxtpx:hr>138</gpxtpx:hr>
          </gpxtpx:TrackPointExtension>
        </extensions>
      </trkpt>
      <trkpt lat="44.17109" lon="5.27115">
        <ele>1691.4</ele>
        <time>2021-06-12T09:35:20Z</time>
        <extensions>
          <gpxtpx:TrackPointExtension xmlns:gpxtpx="http://www.garmin.com/xmlschemas/TrackPointExtension/v1">
            <gpxtpx:hr>137</gpxtpx:hr>
          </gpxtpx:TrackPointExtension>
        </extensions>
      </trkpt>
      <trkpt lat="44.17112" lon="5.27121">
        <ele>1692</ele>
        <time>2021-06-12T09:35:26Z</time>
        <extensions>
          <gpxtpx:TrackPointExtension xmlns:gpxtpx="http://www.garmin.com/xmlschemas/TrackPointExtension/v1">
            <gpxtpx:hr>138</gpxtpx:hr>
          </gpxtpx:TrackPointExtension>
        </extensions>
      </trkpt>
      <trkpt lat="44.17112" lon="5.27122">
        <ele>1692.2</ele>
        <time>2021-06-12T09:35:27Z</time>
        <extensions>
          <gpxtpx:TrackPointExtension xmlns:gpxtpx="http://www.garmin.com/xmlschemas/TrackPointExtension/v1">
            <gpxtpx:hr>138</gpxtpx:hr>
          </gpxtpx:TrackPointExtension>
        </extensions>
      </trkpt>
      <trkpt lat="44.17113" lon="5.27125">
        <ele>1692.4</ele>
        <time>2021-06-12T09:35:29Z</time>
        <extensions>
          <gpxtpx:TrackPointExtension xmlns:gpxtpx="http://www.garmin.com/xmlschemas/TrackPointExtension/v1">
            <gpxtpx:hr>139</gpxtpx:hr>
          </gpxtpx:TrackPointExtension>
        </extensions>
      </trkpt>
      <trkpt lat="44.17114" lon="5.27127">
        <ele>1692.6</ele>
        <time>2021-06-12T09:35:31Z</time>
        <extensions>
          <gpxtpx:TrackPointExtension xmlns:gpxtpx="http://www.garmin.com/xmlschemas/TrackPointExtension/v1">
            <gpxtpx:hr>139</gpxtpx:hr>
          </gpxtpx:TrackPointExtension>
        </extensions>
      </trkpt>
      <trkpt lat="44.17116" lon="5.2713">
        <ele>1693</ele>
        <time>2021-06-12T09:35:35Z</time>
        <extensions>
          <gpxtpx:TrackPointExtension xmlns:gpxtpx="http://www.garmin.com/xmlschemas/TrackPointExtension/v1">
            <gpxtpx:hr>139</gpxtpx:hr>
          </gpxtpx:TrackPointExtension>
        </extensions>
      </trkpt>
      <trkpt lat="44.17116" lon="5.2713">
        <ele>1693.2</ele>
        <time>2021-06-12T09:35:36Z</time>
        <extensions>
          <gpxtpx:TrackPointExtension xmlns:gpxtpx="http://www.garmin.com/xmlschemas/TrackPointExtension/v1">
            <gpxtpx:hr>140</gpxtpx:hr>
          </gpxtpx:TrackPointExtension>
        </extensions>
      </trkpt>
      <trkpt lat="44.17117" lon="5.27131">
        <ele>1693.2</ele>
        <time>2021-06-12T09:35:37Z</time>
        <extensions>
          <gpxtpx:TrackPointExtension xmlns:gpxtpx="http://www.garmin.com/xmlschemas/TrackPointExtension/v1">
            <gpxtpx:hr>140</gpxtpx:hr>
          </gpxtpx:TrackPointExtension>
        </extensions>
      </trkpt>
      <trkpt lat="44.17118" lon="5.27133">
        <ele>1693.8</ele>
        <time>2021-06-12T09:35:40Z</time>
        <extensions>
          <gpxtpx:TrackPointExtension xmlns:gpxtpx="http://www.garmin.com/xmlschemas/TrackPointExtension/v1">
            <gpxtpx:hr>140</gpxtpx:hr>
          </gpxtpx:TrackPointExtension>
        </extensions>
      </trkpt>
      <trkpt lat="44.17118" lon="5.27135">
        <ele>1694.2</ele>
        <time>2021-06-12T09:35:43Z</time>
        <extensions>
          <gpxtpx:TrackPointExtension xmlns:gpxtpx="http://www.garmin.com/xmlschemas/TrackPointExtension/v1">
            <gpxtpx:hr>140</gpxtpx:hr>
          </gpxtpx:TrackPointExtension>
        </extensions>
      </trkpt>
      <trkpt lat="44.17121" lon="5.27141">
        <ele>1695.4</ele>
        <time>2021-06-12T09:35:50Z</time>
        <extensions>
          <gpxtpx:TrackPointExtension xmlns:gpxtpx="http://www.garmin.com/xmlschemas/TrackPointExtension/v1">
            <gpxtpx:hr>142</gpxtpx:hr>
          </gpxtpx:TrackPointExtension>
        </extensions>
      </trkpt>
      <trkpt lat="44.17123" lon="5.27142">
        <ele>1695.8</ele>
        <time>2021-06-12T09:35:52Z</time>
        <extensions>
          <gpxtpx:TrackPointExtension xmlns:gpxtpx="http://www.garmin.com/xmlschemas/TrackPointExtension/v1">
            <gpxtpx:hr>142</gpxtpx:hr>
          </gpxtpx:TrackPointExtension>
        </extensions>
      </trkpt>
      <trkpt lat="44.17123" lon="5.27143">
        <ele>1696</ele>
        <time>2021-06-12T09:35:53Z</time>
        <extensions>
          <gpxtpx:TrackPointExtension xmlns:gpxtpx="http://www.garmin.com/xmlschemas/TrackPointExtension/v1">
            <gpxtpx:hr>142</gpxtpx:hr>
          </gpxtpx:TrackPointExtension>
        </extensions>
      </trkpt>
      <trkpt lat="44.17125" lon="5.27146">
        <ele>1696.6</ele>
        <time>2021-06-12T09:35:56Z</time>
        <extensions>
          <gpxtpx:TrackPointExtension xmlns:gpxtpx="http://www.garmin.com/xmlschemas/TrackPointExtension/v1">
            <gpxtpx:hr>143</gpxtpx:hr>
          </gpxtpx:TrackPointExtension>
        </extensions>
      </trkpt>
      <trkpt lat="44.17127" lon="5.27149">
        <ele>1696.8</ele>
        <time>2021-06-12T09:35:58Z</time>
        <extensions>
          <gpxtpx:TrackPointExtension xmlns:gpxtpx="http://www.garmin.com/xmlschemas/TrackPointExtension/v1">
            <gpxtpx:hr>142</gpxtpx:hr>
          </gpxtpx:TrackPointExtension>
        </extensions>
      </trkpt>
      <trkpt lat="44.17128" lon="5.27151">
        <ele>1697</ele>
        <time>2021-06-12T09:36:00Z</time>
        <extensions>
          <gpxtpx:TrackPointExtension xmlns:gpxtpx="http://www.garmin.com/xmlschemas/TrackPointExtension/v1">
            <gpxtpx:hr>142</gpxtpx:hr>
          </gpxtpx:TrackPointExtension>
        </extensions>
      </trkpt>
      <trkpt lat="44.1713" lon="5.27155">
        <ele>1697.4</ele>
        <time>2021-06-12T09:36:03Z</time>
        <extensions>
          <gpxtpx:TrackPointExtension xmlns:gpxtpx="http://www.garmin.com/xmlschemas/TrackPointExtension/v1">
            <gpxtpx:hr>142</gpxtpx:hr>
          </gpxtpx:TrackPointExtension>
        </extensions>
      </trkpt>
      <trkpt lat="44.1713" lon="5.27157">
        <ele>1697.6</ele>
        <time>2021-06-12T09:36:04Z</time>
        <extensions>
          <gpxtpx:TrackPointExtension xmlns:gpxtpx="http://www.garmin.com/xmlschemas/TrackPointExtension/v1">
            <gpxtpx:hr>142</gpxtpx:hr>
          </gpxtpx:TrackPointExtension>
        </extensions>
      </trkpt>
      <trkpt lat="44.1713" lon="5.27158">
        <ele>1697.8</ele>
        <time>2021-06-12T09:36:05Z</time>
        <extensions>
          <gpxtpx:TrackPointExtension xmlns:gpxtpx="http://www.garmin.com/xmlschemas/TrackPointExtension/v1">
            <gpxtpx:hr>141</gpxtpx:hr>
          </gpxtpx:TrackPointExtension>
        </extensions>
      </trkpt>
      <trkpt lat="44.17131" lon="5.27159">
        <ele>1697.8</ele>
        <time>2021-06-12T09:36:06Z</time>
        <extensions>
          <gpxtpx:TrackPointExtension xmlns:gpxtpx="http://www.garmin.com/xmlschemas/TrackPointExtension/v1">
            <gpxtpx:hr>141</gpxtpx:hr>
          </gpxtpx:TrackPointExtension>
        </extensions>
      </trkpt>
      <trkpt lat="44.17131" lon="5.27162">
        <ele>1698</ele>
        <time>2021-06-12T09:36:08Z</time>
        <extensions>
          <gpxtpx:TrackPointExtension xmlns:gpxtpx="http://www.garmin.com/xmlschemas/TrackPointExtension/v1">
            <gpxtpx:hr>141</gpxtpx:hr>
          </gpxtpx:TrackPointExtension>
        </extensions>
      </trkpt>
      <trkpt lat="44.17132" lon="5.27165">
        <ele>1698.8</ele>
        <time>2021-06-12T09:36:12Z</time>
        <extensions>
          <gpxtpx:TrackPointExtension xmlns:gpxtpx="http://www.garmin.com/xmlschemas/TrackPointExtension/v1">
            <gpxtpx:hr>142</gpxtpx:hr>
          </gpxtpx:TrackPointExtension>
        </extensions>
      </trkpt>
      <trkpt lat="44.17133" lon="5.27168">
        <ele>1699.4</ele>
        <time>2021-06-12T09:36:15Z</time>
        <extensions>
          <gpxtpx:TrackPointExtension xmlns:gpxtpx="http://www.garmin.com/xmlschemas/TrackPointExtension/v1">
            <gpxtpx:hr>142</gpxtpx:hr>
          </gpxtpx:TrackPointExtension>
        </extensions>
      </trkpt>
      <trkpt lat="44.17136" lon="5.27171">
        <ele>1699.8</ele>
        <time>2021-06-12T09:36:18Z</time>
        <extensions>
          <gpxtpx:TrackPointExtension xmlns:gpxtpx="http://www.garmin.com/xmlschemas/TrackPointExtension/v1">
            <gpxtpx:hr>141</gpxtpx:hr>
          </gpxtpx:TrackPointExtension>
        </extensions>
      </trkpt>
      <trkpt lat="44.17137" lon="5.27177">
        <ele>1700.8</ele>
        <time>2021-06-12T09:36:26Z</time>
        <extensions>
          <gpxtpx:TrackPointExtension xmlns:gpxtpx="http://www.garmin.com/xmlschemas/TrackPointExtension/v1">
            <gpxtpx:hr>140</gpxtpx:hr>
          </gpxtpx:TrackPointExtension>
        </extensions>
      </trkpt>
      <trkpt lat="44.1714" lon="5.27182">
        <ele>1701.2</ele>
        <time>2021-06-12T09:36:30Z</time>
        <extensions>
          <gpxtpx:TrackPointExtension xmlns:gpxtpx="http://www.garmin.com/xmlschemas/TrackPointExtension/v1">
            <gpxtpx:hr>140</gpxtpx:hr>
          </gpxtpx:TrackPointExtension>
        </extensions>
      </trkpt>
      <trkpt lat="44.17141" lon="5.27183">
        <ele>1701.4</ele>
        <time>2021-06-12T09:36:31Z</time>
        <extensions>
          <gpxtpx:TrackPointExtension xmlns:gpxtpx="http://www.garmin.com/xmlschemas/TrackPointExtension/v1">
            <gpxtpx:hr>140</gpxtpx:hr>
          </gpxtpx:TrackPointExtension>
        </extensions>
      </trkpt>
      <trkpt lat="44.17141" lon="5.27184">
        <ele>1701.4</ele>
        <time>2021-06-12T09:36:32Z</time>
        <extensions>
          <gpxtpx:TrackPointExtension xmlns:gpxtpx="http://www.garmin.com/xmlschemas/TrackPointExtension/v1">
            <gpxtpx:hr>139</gpxtpx:hr>
          </gpxtpx:TrackPointExtension>
        </extensions>
      </trkpt>
      <trkpt lat="44.17143" lon="5.27187">
        <ele>1701.6</ele>
        <time>2021-06-12T09:36:34Z</time>
        <extensions>
          <gpxtpx:TrackPointExtension xmlns:gpxtpx="http://www.garmin.com/xmlschemas/TrackPointExtension/v1">
            <gpxtpx:hr>139</gpxtpx:hr>
          </gpxtpx:TrackPointExtension>
        </extensions>
      </trkpt>
      <trkpt lat="44.17142" lon="5.27192">
        <ele>1702</ele>
        <time>2021-06-12T09:36:38Z</time>
        <extensions>
          <gpxtpx:TrackPointExtension xmlns:gpxtpx="http://www.garmin.com/xmlschemas/TrackPointExtension/v1">
            <gpxtpx:hr>139</gpxtpx:hr>
          </gpxtpx:TrackPointExtension>
        </extensions>
      </trkpt>
      <trkpt lat="44.17142" lon="5.27196">
        <ele>1702.2</ele>
        <time>2021-06-12T09:36:41Z</time>
        <extensions>
          <gpxtpx:TrackPointExtension xmlns:gpxtpx="http://www.garmin.com/xmlschemas/TrackPointExtension/v1">
            <gpxtpx:hr>140</gpxtpx:hr>
          </gpxtpx:TrackPointExtension>
        </extensions>
      </trkpt>
      <trkpt lat="44.17143" lon="5.272">
        <ele>1702.4</ele>
        <time>2021-06-12T09:36:44Z</time>
        <extensions>
          <gpxtpx:TrackPointExtension xmlns:gpxtpx="http://www.garmin.com/xmlschemas/TrackPointExtension/v1">
            <gpxtpx:hr>139</gpxtpx:hr>
          </gpxtpx:TrackPointExtension>
        </extensions>
      </trkpt>
      <trkpt lat="44.17147" lon="5.27208">
        <ele>1703</ele>
        <time>2021-06-12T09:36:51Z</time>
        <extensions>
          <gpxtpx:TrackPointExtension xmlns:gpxtpx="http://www.garmin.com/xmlschemas/TrackPointExtension/v1">
            <gpxtpx:hr>140</gpxtpx:hr>
          </gpxtpx:TrackPointExtension>
        </extensions>
      </trkpt>
      <trkpt lat="44.17147" lon="5.27209">
        <ele>1703.2</ele>
        <time>2021-06-12T09:36:52Z</time>
        <extensions>
          <gpxtpx:TrackPointExtension xmlns:gpxtpx="http://www.garmin.com/xmlschemas/TrackPointExtension/v1">
            <gpxtpx:hr>139</gpxtpx:hr>
          </gpxtpx:TrackPointExtension>
        </extensions>
      </trkpt>
      <trkpt lat="44.17147" lon="5.27212">
        <ele>1703.6</ele>
        <time>2021-06-12T09:36:55Z</time>
        <extensions>
          <gpxtpx:TrackPointExtension xmlns:gpxtpx="http://www.garmin.com/xmlschemas/TrackPointExtension/v1">
            <gpxtpx:hr>140</gpxtpx:hr>
          </gpxtpx:TrackPointExtension>
        </extensions>
      </trkpt>
      <trkpt lat="44.17148" lon="5.27215">
        <ele>1704.2</ele>
        <time>2021-06-12T09:36:58Z</time>
        <extensions>
          <gpxtpx:TrackPointExtension xmlns:gpxtpx="http://www.garmin.com/xmlschemas/TrackPointExtension/v1">
            <gpxtpx:hr>139</gpxtpx:hr>
          </gpxtpx:TrackPointExtension>
        </extensions>
      </trkpt>
      <trkpt lat="44.17149" lon="5.27216">
        <ele>1704.2</ele>
        <time>2021-06-12T09:36:59Z</time>
        <extensions>
          <gpxtpx:TrackPointExtension xmlns:gpxtpx="http://www.garmin.com/xmlschemas/TrackPointExtension/v1">
            <gpxtpx:hr>139</gpxtpx:hr>
          </gpxtpx:TrackPointExtension>
        </extensions>
      </trkpt>
      <trkpt lat="44.1715" lon="5.27217">
        <ele>1704.6</ele>
        <time>2021-06-12T09:37:01Z</time>
        <extensions>
          <gpxtpx:TrackPointExtension xmlns:gpxtpx="http://www.garmin.com/xmlschemas/TrackPointExtension/v1">
            <gpxtpx:hr>139</gpxtpx:hr>
          </gpxtpx:TrackPointExtension>
        </extensions>
      </trkpt>
      <trkpt lat="44.17152" lon="5.2722">
        <ele>1705.2</ele>
        <time>2021-06-12T09:37:04Z</time>
        <extensions>
          <gpxtpx:TrackPointExtension xmlns:gpxtpx="http://www.garmin.com/xmlschemas/TrackPointExtension/v1">
            <gpxtpx:hr>139</gpxtpx:hr>
          </gpxtpx:TrackPointExtension>
        </extensions>
      </trkpt>
      <trkpt lat="44.17152" lon="5.27221">
        <ele>1705.4</ele>
        <time>2021-06-12T09:37:05Z</time>
        <extensions>
          <gpxtpx:TrackPointExtension xmlns:gpxtpx="http://www.garmin.com/xmlschemas/TrackPointExtension/v1">
            <gpxtpx:hr>139</gpxtpx:hr>
          </gpxtpx:TrackPointExtension>
        </extensions>
      </trkpt>
      <trkpt lat="44.17153" lon="5.27222">
        <ele>1705.6</ele>
        <time>2021-06-12T09:37:07Z</time>
        <extensions>
          <gpxtpx:TrackPointExtension xmlns:gpxtpx="http://www.garmin.com/xmlschemas/TrackPointExtension/v1">
            <gpxtpx:hr>139</gpxtpx:hr>
          </gpxtpx:TrackPointExtension>
        </extensions>
      </trkpt>
      <trkpt lat="44.17153" lon="5.27224">
        <ele>1706.2</ele>
        <time>2021-06-12T09:37:11Z</time>
        <extensions>
          <gpxtpx:TrackPointExtension xmlns:gpxtpx="http://www.garmin.com/xmlschemas/TrackPointExtension/v1">
            <gpxtpx:hr>139</gpxtpx:hr>
          </gpxtpx:TrackPointExtension>
        </extensions>
      </trkpt>
      <trkpt lat="44.17154" lon="5.27225">
        <ele>1706.6</ele>
        <time>2021-06-12T09:37:13Z</time>
        <extensions>
          <gpxtpx:TrackPointExtension xmlns:gpxtpx="http://www.garmin.com/xmlschemas/TrackPointExtension/v1">
            <gpxtpx:hr>139</gpxtpx:hr>
          </gpxtpx:TrackPointExtension>
        </extensions>
      </trkpt>
      <trkpt lat="44.17155" lon="5.27226">
        <ele>1707.4</ele>
        <time>2021-06-12T09:37:17Z</time>
        <extensions>
          <gpxtpx:TrackPointExtension xmlns:gpxtpx="http://www.garmin.com/xmlschemas/TrackPointExtension/v1">
            <gpxtpx:hr>139</gpxtpx:hr>
          </gpxtpx:TrackPointExtension>
        </extensions>
      </trkpt>
      <trkpt lat="44.17158" lon="5.27228">
        <ele>1708.4</ele>
        <time>2021-06-12T09:37:23Z</time>
        <extensions>
          <gpxtpx:TrackPointExtension xmlns:gpxtpx="http://www.garmin.com/xmlschemas/TrackPointExtension/v1">
            <gpxtpx:hr>138</gpxtpx:hr>
          </gpxtpx:TrackPointExtension>
        </extensions>
      </trkpt>
      <trkpt lat="44.17159" lon="5.27229">
        <ele>1708.4</ele>
        <time>2021-06-12T09:37:24Z</time>
        <extensions>
          <gpxtpx:TrackPointExtension xmlns:gpxtpx="http://www.garmin.com/xmlschemas/TrackPointExtension/v1">
            <gpxtpx:hr>139</gpxtpx:hr>
          </gpxtpx:TrackPointExtension>
        </extensions>
      </trkpt>
      <trkpt lat="44.17162" lon="5.27234">
        <ele>1709.6</ele>
        <time>2021-06-12T09:37:28Z</time>
        <extensions>
          <gpxtpx:TrackPointExtension xmlns:gpxtpx="http://www.garmin.com/xmlschemas/TrackPointExtension/v1">
            <gpxtpx:hr>139</gpxtpx:hr>
          </gpxtpx:TrackPointExtension>
        </extensions>
      </trkpt>
      <trkpt lat="44.17163" lon="5.27236">
        <ele>1710</ele>
        <time>2021-06-12T09:37:30Z</time>
        <extensions>
          <gpxtpx:TrackPointExtension xmlns:gpxtpx="http://www.garmin.com/xmlschemas/TrackPointExtension/v1">
            <gpxtpx:hr>140</gpxtpx:hr>
          </gpxtpx:TrackPointExtension>
        </extensions>
      </trkpt>
      <trkpt lat="44.17166" lon="5.27241">
        <ele>1710.8</ele>
        <time>2021-06-12T09:37:35Z</time>
        <extensions>
          <gpxtpx:TrackPointExtension xmlns:gpxtpx="http://www.garmin.com/xmlschemas/TrackPointExtension/v1">
            <gpxtpx:hr>138</gpxtpx:hr>
          </gpxtpx:TrackPointExtension>
        </extensions>
      </trkpt>
      <trkpt lat="44.17169" lon="5.27251">
        <ele>1711.8</ele>
        <time>2021-06-12T09:37:43Z</time>
        <extensions>
          <gpxtpx:TrackPointExtension xmlns:gpxtpx="http://www.garmin.com/xmlschemas/TrackPointExtension/v1">
            <gpxtpx:hr>138</gpxtpx:hr>
          </gpxtpx:TrackPointExtension>
        </extensions>
      </trkpt>
      <trkpt lat="44.17169" lon="5.27255">
        <ele>1712.2</ele>
        <time>2021-06-12T09:37:46Z</time>
        <extensions>
          <gpxtpx:TrackPointExtension xmlns:gpxtpx="http://www.garmin.com/xmlschemas/TrackPointExtension/v1">
            <gpxtpx:hr>139</gpxtpx:hr>
          </gpxtpx:TrackPointExtension>
        </extensions>
      </trkpt>
      <trkpt lat="44.17169" lon="5.27257">
        <ele>1712.4</ele>
        <time>2021-06-12T09:37:48Z</time>
        <extensions>
          <gpxtpx:TrackPointExtension xmlns:gpxtpx="http://www.garmin.com/xmlschemas/TrackPointExtension/v1">
            <gpxtpx:hr>139</gpxtpx:hr>
          </gpxtpx:TrackPointExtension>
        </extensions>
      </trkpt>
      <trkpt lat="44.1717" lon="5.27264">
        <ele>1712.8</ele>
        <time>2021-06-12T09:37:53Z</time>
        <extensions>
          <gpxtpx:TrackPointExtension xmlns:gpxtpx="http://www.garmin.com/xmlschemas/TrackPointExtension/v1">
            <gpxtpx:hr>138</gpxtpx:hr>
          </gpxtpx:TrackPointExtension>
        </extensions>
      </trkpt>
      <trkpt lat="44.1717" lon="5.27266">
        <ele>1713</ele>
        <time>2021-06-12T09:37:55Z</time>
        <extensions>
          <gpxtpx:TrackPointExtension xmlns:gpxtpx="http://www.garmin.com/xmlschemas/TrackPointExtension/v1">
            <gpxtpx:hr>139</gpxtpx:hr>
          </gpxtpx:TrackPointExtension>
        </extensions>
      </trkpt>
      <trkpt lat="44.17171" lon="5.2727">
        <ele>1713.4</ele>
        <time>2021-06-12T09:37:59Z</time>
        <extensions>
          <gpxtpx:TrackPointExtension xmlns:gpxtpx="http://www.garmin.com/xmlschemas/TrackPointExtension/v1">
            <gpxtpx:hr>138</gpxtpx:hr>
          </gpxtpx:TrackPointExtension>
        </extensions>
      </trkpt>
      <trkpt lat="44.17172" lon="5.27278">
        <ele>1714</ele>
        <time>2021-06-12T09:38:04Z</time>
        <extensions>
          <gpxtpx:TrackPointExtension xmlns:gpxtpx="http://www.garmin.com/xmlschemas/TrackPointExtension/v1">
            <gpxtpx:hr>138</gpxtpx:hr>
          </gpxtpx:TrackPointExtension>
        </extensions>
      </trkpt>
      <trkpt lat="44.17172" lon="5.27283">
        <ele>1714.6</ele>
        <time>2021-06-12T09:38:08Z</time>
        <extensions>
          <gpxtpx:TrackPointExtension xmlns:gpxtpx="http://www.garmin.com/xmlschemas/TrackPointExtension/v1">
            <gpxtpx:hr>137</gpxtpx:hr>
          </gpxtpx:TrackPointExtension>
        </extensions>
      </trkpt>
      <trkpt lat="44.17173" lon="5.27286">
        <ele>1715</ele>
        <time>2021-06-12T09:38:11Z</time>
        <extensions>
          <gpxtpx:TrackPointExtension xmlns:gpxtpx="http://www.garmin.com/xmlschemas/TrackPointExtension/v1">
            <gpxtpx:hr>137</gpxtpx:hr>
          </gpxtpx:TrackPointExtension>
        </extensions>
      </trkpt>
      <trkpt lat="44.17172" lon="5.27289">
        <ele>1715.2</ele>
        <time>2021-06-12T09:38:13Z</time>
        <extensions>
          <gpxtpx:TrackPointExtension xmlns:gpxtpx="http://www.garmin.com/xmlschemas/TrackPointExtension/v1">
            <gpxtpx:hr>137</gpxtpx:hr>
          </gpxtpx:TrackPointExtension>
        </extensions>
      </trkpt>
      <trkpt lat="44.17173" lon="5.27292">
        <ele>1715.4</ele>
        <time>2021-06-12T09:38:15Z</time>
        <extensions>
          <gpxtpx:TrackPointExtension xmlns:gpxtpx="http://www.garmin.com/xmlschemas/TrackPointExtension/v1">
            <gpxtpx:hr>137</gpxtpx:hr>
          </gpxtpx:TrackPointExtension>
        </extensions>
      </trkpt>
      <trkpt lat="44.17174" lon="5.27294">
        <ele>1715.6</ele>
        <time>2021-06-12T09:38:17Z</time>
        <extensions>
          <gpxtpx:TrackPointExtension xmlns:gpxtpx="http://www.garmin.com/xmlschemas/TrackPointExtension/v1">
            <gpxtpx:hr>137</gpxtpx:hr>
          </gpxtpx:TrackPointExtension>
        </extensions>
      </trkpt>
      <trkpt lat="44.17174" lon="5.27295">
        <ele>1715.8</ele>
        <time>2021-06-12T09:38:18Z</time>
        <extensions>
          <gpxtpx:TrackPointExtension xmlns:gpxtpx="http://www.garmin.com/xmlschemas/TrackPointExtension/v1">
            <gpxtpx:hr>137</gpxtpx:hr>
          </gpxtpx:TrackPointExtension>
        </extensions>
      </trkpt>
      <trkpt lat="44.17174" lon="5.27297">
        <ele>1716.2</ele>
        <time>2021-06-12T09:38:20Z</time>
        <extensions>
          <gpxtpx:TrackPointExtension xmlns:gpxtpx="http://www.garmin.com/xmlschemas/TrackPointExtension/v1">
            <gpxtpx:hr>137</gpxtpx:hr>
          </gpxtpx:TrackPointExtension>
        </extensions>
      </trkpt>
      <trkpt lat="44.17175" lon="5.27298">
        <ele>1716.4</ele>
        <time>2021-06-12T09:38:21Z</time>
        <extensions>
          <gpxtpx:TrackPointExtension xmlns:gpxtpx="http://www.garmin.com/xmlschemas/TrackPointExtension/v1">
            <gpxtpx:hr>138</gpxtpx:hr>
          </gpxtpx:TrackPointExtension>
        </extensions>
      </trkpt>
      <trkpt lat="44.17175" lon="5.27302">
        <ele>1716.8</ele>
        <time>2021-06-12T09:38:24Z</time>
        <extensions>
          <gpxtpx:TrackPointExtension xmlns:gpxtpx="http://www.garmin.com/xmlschemas/TrackPointExtension/v1">
            <gpxtpx:hr>138</gpxtpx:hr>
          </gpxtpx:TrackPointExtension>
        </extensions>
      </trkpt>
      <trkpt lat="44.17176" lon="5.27306">
        <ele>1717.2</ele>
        <time>2021-06-12T09:38:27Z</time>
        <extensions>
          <gpxtpx:TrackPointExtension xmlns:gpxtpx="http://www.garmin.com/xmlschemas/TrackPointExtension/v1">
            <gpxtpx:hr>139</gpxtpx:hr>
          </gpxtpx:TrackPointExtension>
        </extensions>
      </trkpt>
      <trkpt lat="44.17176" lon="5.27308">
        <ele>1717.8</ele>
        <time>2021-06-12T09:38:29Z</time>
        <extensions>
          <gpxtpx:TrackPointExtension xmlns:gpxtpx="http://www.garmin.com/xmlschemas/TrackPointExtension/v1">
            <gpxtpx:hr>138</gpxtpx:hr>
          </gpxtpx:TrackPointExtension>
        </extensions>
      </trkpt>
      <trkpt lat="44.17176" lon="5.27311">
        <ele>1718.2</ele>
        <time>2021-06-12T09:38:31Z</time>
        <extensions>
          <gpxtpx:TrackPointExtension xmlns:gpxtpx="http://www.garmin.com/xmlschemas/TrackPointExtension/v1">
            <gpxtpx:hr>136</gpxtpx:hr>
          </gpxtpx:TrackPointExtension>
        </extensions>
      </trkpt>
      <trkpt lat="44.17176" lon="5.27318">
        <ele>1718.4</ele>
        <time>2021-06-12T09:38:36Z</time>
        <extensions>
          <gpxtpx:TrackPointExtension xmlns:gpxtpx="http://www.garmin.com/xmlschemas/TrackPointExtension/v1">
            <gpxtpx:hr>135</gpxtpx:hr>
          </gpxtpx:TrackPointExtension>
        </extensions>
      </trkpt>
      <trkpt lat="44.17178" lon="5.27328">
        <ele>1718.4</ele>
        <time>2021-06-12T09:38:43Z</time>
        <extensions>
          <gpxtpx:TrackPointExtension xmlns:gpxtpx="http://www.garmin.com/xmlschemas/TrackPointExtension/v1">
            <gpxtpx:hr>136</gpxtpx:hr>
          </gpxtpx:TrackPointExtension>
        </extensions>
      </trkpt>
      <trkpt lat="44.17178" lon="5.27333">
        <ele>1718.4</ele>
        <time>2021-06-12T09:38:46Z</time>
        <extensions>
          <gpxtpx:TrackPointExtension xmlns:gpxtpx="http://www.garmin.com/xmlschemas/TrackPointExtension/v1">
            <gpxtpx:hr>136</gpxtpx:hr>
          </gpxtpx:TrackPointExtension>
        </extensions>
      </trkpt>
      <trkpt lat="44.17178" lon="5.27337">
        <ele>1718.6</ele>
        <time>2021-06-12T09:38:49Z</time>
        <extensions>
          <gpxtpx:TrackPointExtension xmlns:gpxtpx="http://www.garmin.com/xmlschemas/TrackPointExtension/v1">
            <gpxtpx:hr>136</gpxtpx:hr>
          </gpxtpx:TrackPointExtension>
        </extensions>
      </trkpt>
      <trkpt lat="44.17178" lon="5.27338">
        <ele>1718.6</ele>
        <time>2021-06-12T09:38:50Z</time>
        <extensions>
          <gpxtpx:TrackPointExtension xmlns:gpxtpx="http://www.garmin.com/xmlschemas/TrackPointExtension/v1">
            <gpxtpx:hr>136</gpxtpx:hr>
          </gpxtpx:TrackPointExtension>
        </extensions>
      </trkpt>
      <trkpt lat="44.17178" lon="5.2734">
        <ele>1718.8</ele>
        <time>2021-06-12T09:38:51Z</time>
        <extensions>
          <gpxtpx:TrackPointExtension xmlns:gpxtpx="http://www.garmin.com/xmlschemas/TrackPointExtension/v1">
            <gpxtpx:hr>135</gpxtpx:hr>
          </gpxtpx:TrackPointExtension>
        </extensions>
      </trkpt>
      <trkpt lat="44.17179" lon="5.27343">
        <ele>1719.2</ele>
        <time>2021-06-12T09:38:54Z</time>
        <extensions>
          <gpxtpx:TrackPointExtension xmlns:gpxtpx="http://www.garmin.com/xmlschemas/TrackPointExtension/v1">
            <gpxtpx:hr>135</gpxtpx:hr>
          </gpxtpx:TrackPointExtension>
        </extensions>
      </trkpt>
      <trkpt lat="44.17179" lon="5.27345">
        <ele>1719.2</ele>
        <time>2021-06-12T09:38:55Z</time>
        <extensions>
          <gpxtpx:TrackPointExtension xmlns:gpxtpx="http://www.garmin.com/xmlschemas/TrackPointExtension/v1">
            <gpxtpx:hr>135</gpxtpx:hr>
          </gpxtpx:TrackPointExtension>
        </extensions>
      </trkpt>
      <trkpt lat="44.1718" lon="5.27346">
        <ele>1719.4</ele>
        <time>2021-06-12T09:38:56Z</time>
        <extensions>
          <gpxtpx:TrackPointExtension xmlns:gpxtpx="http://www.garmin.com/xmlschemas/TrackPointExtension/v1">
            <gpxtpx:hr>135</gpxtpx:hr>
          </gpxtpx:TrackPointExtension>
        </extensions>
      </trkpt>
      <trkpt lat="44.17181" lon="5.27349">
        <ele>1719.8</ele>
        <time>2021-06-12T09:38:59Z</time>
        <extensions>
          <gpxtpx:TrackPointExtension xmlns:gpxtpx="http://www.garmin.com/xmlschemas/TrackPointExtension/v1">
            <gpxtpx:hr>135</gpxtpx:hr>
          </gpxtpx:TrackPointExtension>
        </extensions>
      </trkpt>
      <trkpt lat="44.17183" lon="5.27354">
        <ele>1720.6</ele>
        <time>2021-06-12T09:39:03Z</time>
        <extensions>
          <gpxtpx:TrackPointExtension xmlns:gpxtpx="http://www.garmin.com/xmlschemas/TrackPointExtension/v1">
            <gpxtpx:hr>135</gpxtpx:hr>
          </gpxtpx:TrackPointExtension>
        </extensions>
      </trkpt>
      <trkpt lat="44.17183" lon="5.27357">
        <ele>1720.8</ele>
        <time>2021-06-12T09:39:05Z</time>
        <extensions>
          <gpxtpx:TrackPointExtension xmlns:gpxtpx="http://www.garmin.com/xmlschemas/TrackPointExtension/v1">
            <gpxtpx:hr>136</gpxtpx:hr>
          </gpxtpx:TrackPointExtension>
        </extensions>
      </trkpt>
      <trkpt lat="44.17183" lon="5.27363">
        <ele>1721.6</ele>
        <time>2021-06-12T09:39:10Z</time>
        <extensions>
          <gpxtpx:TrackPointExtension xmlns:gpxtpx="http://www.garmin.com/xmlschemas/TrackPointExtension/v1">
            <gpxtpx:hr>135</gpxtpx:hr>
          </gpxtpx:TrackPointExtension>
        </extensions>
      </trkpt>
      <trkpt lat="44.17184" lon="5.27369">
        <ele>1722</ele>
        <time>2021-06-12T09:39:14Z</time>
        <extensions>
          <gpxtpx:TrackPointExtension xmlns:gpxtpx="http://www.garmin.com/xmlschemas/TrackPointExtension/v1">
            <gpxtpx:hr>136</gpxtpx:hr>
          </gpxtpx:TrackPointExtension>
        </extensions>
      </trkpt>
      <trkpt lat="44.17185" lon="5.27371">
        <ele>1722.2</ele>
        <time>2021-06-12T09:39:16Z</time>
        <extensions>
          <gpxtpx:TrackPointExtension xmlns:gpxtpx="http://www.garmin.com/xmlschemas/TrackPointExtension/v1">
            <gpxtpx:hr>135</gpxtpx:hr>
          </gpxtpx:TrackPointExtension>
        </extensions>
      </trkpt>
      <trkpt lat="44.17188" lon="5.27375">
        <ele>1722.6</ele>
        <time>2021-06-12T09:39:19Z</time>
        <extensions>
          <gpxtpx:TrackPointExtension xmlns:gpxtpx="http://www.garmin.com/xmlschemas/TrackPointExtension/v1">
            <gpxtpx:hr>136</gpxtpx:hr>
          </gpxtpx:TrackPointExtension>
        </extensions>
      </trkpt>
      <trkpt lat="44.17192" lon="5.27383">
        <ele>1723.8</ele>
        <time>2021-06-12T09:39:27Z</time>
        <extensions>
          <gpxtpx:TrackPointExtension xmlns:gpxtpx="http://www.garmin.com/xmlschemas/TrackPointExtension/v1">
            <gpxtpx:hr>137</gpxtpx:hr>
          </gpxtpx:TrackPointExtension>
        </extensions>
      </trkpt>
      <trkpt lat="44.17191" lon="5.27384">
        <ele>1724</ele>
        <time>2021-06-12T09:39:28Z</time>
        <extensions>
          <gpxtpx:TrackPointExtension xmlns:gpxtpx="http://www.garmin.com/xmlschemas/TrackPointExtension/v1">
            <gpxtpx:hr>137</gpxtpx:hr>
          </gpxtpx:TrackPointExtension>
        </extensions>
      </trkpt>
      <trkpt lat="44.17192" lon="5.27386">
        <ele>1724.2</ele>
        <time>2021-06-12T09:39:30Z</time>
        <extensions>
          <gpxtpx:TrackPointExtension xmlns:gpxtpx="http://www.garmin.com/xmlschemas/TrackPointExtension/v1">
            <gpxtpx:hr>137</gpxtpx:hr>
          </gpxtpx:TrackPointExtension>
        </extensions>
      </trkpt>
      <trkpt lat="44.17193" lon="5.27388">
        <ele>1724.6</ele>
        <time>2021-06-12T09:39:32Z</time>
        <extensions>
          <gpxtpx:TrackPointExtension xmlns:gpxtpx="http://www.garmin.com/xmlschemas/TrackPointExtension/v1">
            <gpxtpx:hr>137</gpxtpx:hr>
          </gpxtpx:TrackPointExtension>
        </extensions>
      </trkpt>
      <trkpt lat="44.17194" lon="5.27391">
        <ele>1725</ele>
        <time>2021-06-12T09:39:34Z</time>
        <extensions>
          <gpxtpx:TrackPointExtension xmlns:gpxtpx="http://www.garmin.com/xmlschemas/TrackPointExtension/v1">
            <gpxtpx:hr>138</gpxtpx:hr>
          </gpxtpx:TrackPointExtension>
        </extensions>
      </trkpt>
      <trkpt lat="44.17195" lon="5.27394">
        <ele>1725.4</ele>
        <time>2021-06-12T09:39:37Z</time>
        <extensions>
          <gpxtpx:TrackPointExtension xmlns:gpxtpx="http://www.garmin.com/xmlschemas/TrackPointExtension/v1">
            <gpxtpx:hr>137</gpxtpx:hr>
          </gpxtpx:TrackPointExtension>
        </extensions>
      </trkpt>
      <trkpt lat="44.17197" lon="5.27399">
        <ele>1726</ele>
        <time>2021-06-12T09:39:42Z</time>
        <extensions>
          <gpxtpx:TrackPointExtension xmlns:gpxtpx="http://www.garmin.com/xmlschemas/TrackPointExtension/v1">
            <gpxtpx:hr>136</gpxtpx:hr>
          </gpxtpx:TrackPointExtension>
        </extensions>
      </trkpt>
      <trkpt lat="44.17197" lon="5.274">
        <ele>1726.2</ele>
        <time>2021-06-12T09:39:43Z</time>
        <extensions>
          <gpxtpx:TrackPointExtension xmlns:gpxtpx="http://www.garmin.com/xmlschemas/TrackPointExtension/v1">
            <gpxtpx:hr>137</gpxtpx:hr>
          </gpxtpx:TrackPointExtension>
        </extensions>
      </trkpt>
      <trkpt lat="44.17198" lon="5.27403">
        <ele>1726.8</ele>
        <time>2021-06-12T09:39:46Z</time>
        <extensions>
          <gpxtpx:TrackPointExtension xmlns:gpxtpx="http://www.garmin.com/xmlschemas/TrackPointExtension/v1">
            <gpxtpx:hr>137</gpxtpx:hr>
          </gpxtpx:TrackPointExtension>
        </extensions>
      </trkpt>
      <trkpt lat="44.17199" lon="5.27405">
        <ele>1727</ele>
        <time>2021-06-12T09:39:48Z</time>
        <extensions>
          <gpxtpx:TrackPointExtension xmlns:gpxtpx="http://www.garmin.com/xmlschemas/TrackPointExtension/v1">
            <gpxtpx:hr>137</gpxtpx:hr>
          </gpxtpx:TrackPointExtension>
        </extensions>
      </trkpt>
      <trkpt lat="44.17199" lon="5.27406">
        <ele>1727.2</ele>
        <time>2021-06-12T09:39:49Z</time>
        <extensions>
          <gpxtpx:TrackPointExtension xmlns:gpxtpx="http://www.garmin.com/xmlschemas/TrackPointExtension/v1">
            <gpxtpx:hr>137</gpxtpx:hr>
          </gpxtpx:TrackPointExtension>
        </extensions>
      </trkpt>
      <trkpt lat="44.172" lon="5.27407">
        <ele>1727.2</ele>
        <time>2021-06-12T09:39:50Z</time>
        <extensions>
          <gpxtpx:TrackPointExtension xmlns:gpxtpx="http://www.garmin.com/xmlschemas/TrackPointExtension/v1">
            <gpxtpx:hr>136</gpxtpx:hr>
          </gpxtpx:TrackPointExtension>
        </extensions>
      </trkpt>
      <trkpt lat="44.17201" lon="5.27409">
        <ele>1727.6</ele>
        <time>2021-06-12T09:39:52Z</time>
        <extensions>
          <gpxtpx:TrackPointExtension xmlns:gpxtpx="http://www.garmin.com/xmlschemas/TrackPointExtension/v1">
            <gpxtpx:hr>136</gpxtpx:hr>
          </gpxtpx:TrackPointExtension>
        </extensions>
      </trkpt>
      <trkpt lat="44.17202" lon="5.27411">
        <ele>1727.8</ele>
        <time>2021-06-12T09:39:54Z</time>
        <extensions>
          <gpxtpx:TrackPointExtension xmlns:gpxtpx="http://www.garmin.com/xmlschemas/TrackPointExtension/v1">
            <gpxtpx:hr>136</gpxtpx:hr>
          </gpxtpx:TrackPointExtension>
        </extensions>
      </trkpt>
      <trkpt lat="44.17203" lon="5.27415">
        <ele>1728.2</ele>
        <time>2021-06-12T09:39:57Z</time>
        <extensions>
          <gpxtpx:TrackPointExtension xmlns:gpxtpx="http://www.garmin.com/xmlschemas/TrackPointExtension/v1">
            <gpxtpx:hr>136</gpxtpx:hr>
          </gpxtpx:TrackPointExtension>
        </extensions>
      </trkpt>
      <trkpt lat="44.17204" lon="5.27415">
        <ele>1728.6</ele>
        <time>2021-06-12T09:39:59Z</time>
        <extensions>
          <gpxtpx:TrackPointExtension xmlns:gpxtpx="http://www.garmin.com/xmlschemas/TrackPointExtension/v1">
            <gpxtpx:hr>135</gpxtpx:hr>
          </gpxtpx:TrackPointExtension>
        </extensions>
      </trkpt>
      <trkpt lat="44.17205" lon="5.27417">
        <ele>1729</ele>
        <time>2021-06-12T09:40:01Z</time>
        <extensions>
          <gpxtpx:TrackPointExtension xmlns:gpxtpx="http://www.garmin.com/xmlschemas/TrackPointExtension/v1">
            <gpxtpx:hr>135</gpxtpx:hr>
          </gpxtpx:TrackPointExtension>
        </extensions>
      </trkpt>
      <trkpt lat="44.17205" lon="5.27418">
        <ele>1729.4</ele>
        <time>2021-06-12T09:40:02Z</time>
        <extensions>
          <gpxtpx:TrackPointExtension xmlns:gpxtpx="http://www.garmin.com/xmlschemas/TrackPointExtension/v1">
            <gpxtpx:hr>135</gpxtpx:hr>
          </gpxtpx:TrackPointExtension>
        </extensions>
      </trkpt>
      <trkpt lat="44.17206" lon="5.27419">
        <ele>1729.6</ele>
        <time>2021-06-12T09:40:04Z</time>
        <extensions>
          <gpxtpx:TrackPointExtension xmlns:gpxtpx="http://www.garmin.com/xmlschemas/TrackPointExtension/v1">
            <gpxtpx:hr>135</gpxtpx:hr>
          </gpxtpx:TrackPointExtension>
        </extensions>
      </trkpt>
      <trkpt lat="44.17206" lon="5.27421">
        <ele>1730</ele>
        <time>2021-06-12T09:40:07Z</time>
        <extensions>
          <gpxtpx:TrackPointExtension xmlns:gpxtpx="http://www.garmin.com/xmlschemas/TrackPointExtension/v1">
            <gpxtpx:hr>134</gpxtpx:hr>
          </gpxtpx:TrackPointExtension>
        </extensions>
      </trkpt>
      <trkpt lat="44.17207" lon="5.27423">
        <ele>1730.6</ele>
        <time>2021-06-12T09:40:09Z</time>
        <extensions>
          <gpxtpx:TrackPointExtension xmlns:gpxtpx="http://www.garmin.com/xmlschemas/TrackPointExtension/v1">
            <gpxtpx:hr>133</gpxtpx:hr>
          </gpxtpx:TrackPointExtension>
        </extensions>
      </trkpt>
      <trkpt lat="44.17208" lon="5.27424">
        <ele>1730.8</ele>
        <time>2021-06-12T09:40:10Z</time>
        <extensions>
          <gpxtpx:TrackPointExtension xmlns:gpxtpx="http://www.garmin.com/xmlschemas/TrackPointExtension/v1">
            <gpxtpx:hr>133</gpxtpx:hr>
          </gpxtpx:TrackPointExtension>
        </extensions>
      </trkpt>
      <trkpt lat="44.17208" lon="5.27425">
        <ele>1731</ele>
        <time>2021-06-12T09:40:11Z</time>
        <extensions>
          <gpxtpx:TrackPointExtension xmlns:gpxtpx="http://www.garmin.com/xmlschemas/TrackPointExtension/v1">
            <gpxtpx:hr>133</gpxtpx:hr>
          </gpxtpx:TrackPointExtension>
        </extensions>
      </trkpt>
      <trkpt lat="44.1721" lon="5.27427">
        <ele>1731.4</ele>
        <time>2021-06-12T09:40:14Z</time>
        <extensions>
          <gpxtpx:TrackPointExtension xmlns:gpxtpx="http://www.garmin.com/xmlschemas/TrackPointExtension/v1">
            <gpxtpx:hr>132</gpxtpx:hr>
          </gpxtpx:TrackPointExtension>
        </extensions>
      </trkpt>
      <trkpt lat="44.17211" lon="5.27429">
        <ele>1731.6</ele>
        <time>2021-06-12T09:40:15Z</time>
        <extensions>
          <gpxtpx:TrackPointExtension xmlns:gpxtpx="http://www.garmin.com/xmlschemas/TrackPointExtension/v1">
            <gpxtpx:hr>132</gpxtpx:hr>
          </gpxtpx:TrackPointExtension>
        </extensions>
      </trkpt>
      <trkpt lat="44.17213" lon="5.27432">
        <ele>1732.6</ele>
        <time>2021-06-12T09:40:20Z</time>
        <extensions>
          <gpxtpx:TrackPointExtension xmlns:gpxtpx="http://www.garmin.com/xmlschemas/TrackPointExtension/v1">
            <gpxtpx:hr>135</gpxtpx:hr>
          </gpxtpx:TrackPointExtension>
        </extensions>
      </trkpt>
      <trkpt lat="44.17213" lon="5.27432">
        <ele>1732.6</ele>
        <time>2021-06-12T09:40:21Z</time>
        <extensions>
          <gpxtpx:TrackPointExtension xmlns:gpxtpx="http://www.garmin.com/xmlschemas/TrackPointExtension/v1">
            <gpxtpx:hr>135</gpxtpx:hr>
          </gpxtpx:TrackPointExtension>
        </extensions>
      </trkpt>
      <trkpt lat="44.17214" lon="5.27436">
        <ele>1733.8</ele>
        <time>2021-06-12T09:40:27Z</time>
        <extensions>
          <gpxtpx:TrackPointExtension xmlns:gpxtpx="http://www.garmin.com/xmlschemas/TrackPointExtension/v1">
            <gpxtpx:hr>136</gpxtpx:hr>
          </gpxtpx:TrackPointExtension>
        </extensions>
      </trkpt>
      <trkpt lat="44.17213" lon="5.27443">
        <ele>1733.8</ele>
        <time>2021-06-12T09:40:33Z</time>
        <extensions>
          <gpxtpx:TrackPointExtension xmlns:gpxtpx="http://www.garmin.com/xmlschemas/TrackPointExtension/v1">
            <gpxtpx:hr>134</gpxtpx:hr>
          </gpxtpx:TrackPointExtension>
        </extensions>
      </trkpt>
      <trkpt lat="44.17213" lon="5.27446">
        <ele>1733.8</ele>
        <time>2021-06-12T09:40:35Z</time>
        <extensions>
          <gpxtpx:TrackPointExtension xmlns:gpxtpx="http://www.garmin.com/xmlschemas/TrackPointExtension/v1">
            <gpxtpx:hr>134</gpxtpx:hr>
          </gpxtpx:TrackPointExtension>
        </extensions>
      </trkpt>
      <trkpt lat="44.17213" lon="5.27447">
        <ele>1733.8</ele>
        <time>2021-06-12T09:40:36Z</time>
        <extensions>
          <gpxtpx:TrackPointExtension xmlns:gpxtpx="http://www.garmin.com/xmlschemas/TrackPointExtension/v1">
            <gpxtpx:hr>134</gpxtpx:hr>
          </gpxtpx:TrackPointExtension>
        </extensions>
      </trkpt>
      <trkpt lat="44.17214" lon="5.27451">
        <ele>1734.2</ele>
        <time>2021-06-12T09:40:39Z</time>
        <extensions>
          <gpxtpx:TrackPointExtension xmlns:gpxtpx="http://www.garmin.com/xmlschemas/TrackPointExtension/v1">
            <gpxtpx:hr>136</gpxtpx:hr>
          </gpxtpx:TrackPointExtension>
        </extensions>
      </trkpt>
      <trkpt lat="44.17215" lon="5.27463">
        <ele>1734.8</ele>
        <time>2021-06-12T09:40:48Z</time>
        <extensions>
          <gpxtpx:TrackPointExtension xmlns:gpxtpx="http://www.garmin.com/xmlschemas/TrackPointExtension/v1">
            <gpxtpx:hr>135</gpxtpx:hr>
          </gpxtpx:TrackPointExtension>
        </extensions>
      </trkpt>
      <trkpt lat="44.17216" lon="5.27464">
        <ele>1735</ele>
        <time>2021-06-12T09:40:49Z</time>
        <extensions>
          <gpxtpx:TrackPointExtension xmlns:gpxtpx="http://www.garmin.com/xmlschemas/TrackPointExtension/v1">
            <gpxtpx:hr>135</gpxtpx:hr>
          </gpxtpx:TrackPointExtension>
        </extensions>
      </trkpt>
      <trkpt lat="44.17217" lon="5.27469">
        <ele>1735.8</ele>
        <time>2021-06-12T09:40:54Z</time>
        <extensions>
          <gpxtpx:TrackPointExtension xmlns:gpxtpx="http://www.garmin.com/xmlschemas/TrackPointExtension/v1">
            <gpxtpx:hr>137</gpxtpx:hr>
          </gpxtpx:TrackPointExtension>
        </extensions>
      </trkpt>
      <trkpt lat="44.17218" lon="5.2747">
        <ele>1735.8</ele>
        <time>2021-06-12T09:40:55Z</time>
        <extensions>
          <gpxtpx:TrackPointExtension xmlns:gpxtpx="http://www.garmin.com/xmlschemas/TrackPointExtension/v1">
            <gpxtpx:hr>137</gpxtpx:hr>
          </gpxtpx:TrackPointExtension>
        </extensions>
      </trkpt>
      <trkpt lat="44.17218" lon="5.27471">
        <ele>1736</ele>
        <time>2021-06-12T09:40:56Z</time>
        <extensions>
          <gpxtpx:TrackPointExtension xmlns:gpxtpx="http://www.garmin.com/xmlschemas/TrackPointExtension/v1">
            <gpxtpx:hr>138</gpxtpx:hr>
          </gpxtpx:TrackPointExtension>
        </extensions>
      </trkpt>
      <trkpt lat="44.17218" lon="5.27472">
        <ele>1736.2</ele>
        <time>2021-06-12T09:40:57Z</time>
        <extensions>
          <gpxtpx:TrackPointExtension xmlns:gpxtpx="http://www.garmin.com/xmlschemas/TrackPointExtension/v1">
            <gpxtpx:hr>138</gpxtpx:hr>
          </gpxtpx:TrackPointExtension>
        </extensions>
      </trkpt>
      <trkpt lat="44.17219" lon="5.27474">
        <ele>1736.4</ele>
        <time>2021-06-12T09:40:59Z</time>
        <extensions>
          <gpxtpx:TrackPointExtension xmlns:gpxtpx="http://www.garmin.com/xmlschemas/TrackPointExtension/v1">
            <gpxtpx:hr>139</gpxtpx:hr>
          </gpxtpx:TrackPointExtension>
        </extensions>
      </trkpt>
      <trkpt lat="44.17219" lon="5.27476">
        <ele>1736.6</ele>
        <time>2021-06-12T09:41:01Z</time>
        <extensions>
          <gpxtpx:TrackPointExtension xmlns:gpxtpx="http://www.garmin.com/xmlschemas/TrackPointExtension/v1">
            <gpxtpx:hr>138</gpxtpx:hr>
          </gpxtpx:TrackPointExtension>
        </extensions>
      </trkpt>
      <trkpt lat="44.17221" lon="5.27478">
        <ele>1737</ele>
        <time>2021-06-12T09:41:04Z</time>
        <extensions>
          <gpxtpx:TrackPointExtension xmlns:gpxtpx="http://www.garmin.com/xmlschemas/TrackPointExtension/v1">
            <gpxtpx:hr>137</gpxtpx:hr>
          </gpxtpx:TrackPointExtension>
        </extensions>
      </trkpt>
      <trkpt lat="44.17223" lon="5.27481">
        <ele>1738</ele>
        <time>2021-06-12T09:41:08Z</time>
        <extensions>
          <gpxtpx:TrackPointExtension xmlns:gpxtpx="http://www.garmin.com/xmlschemas/TrackPointExtension/v1">
            <gpxtpx:hr>138</gpxtpx:hr>
          </gpxtpx:TrackPointExtension>
        </extensions>
      </trkpt>
      <trkpt lat="44.17223" lon="5.27482">
        <ele>1738</ele>
        <time>2021-06-12T09:41:09Z</time>
        <extensions>
          <gpxtpx:TrackPointExtension xmlns:gpxtpx="http://www.garmin.com/xmlschemas/TrackPointExtension/v1">
            <gpxtpx:hr>137</gpxtpx:hr>
          </gpxtpx:TrackPointExtension>
        </extensions>
      </trkpt>
      <trkpt lat="44.17225" lon="5.27487">
        <ele>1738.6</ele>
        <time>2021-06-12T09:41:14Z</time>
        <extensions>
          <gpxtpx:TrackPointExtension xmlns:gpxtpx="http://www.garmin.com/xmlschemas/TrackPointExtension/v1">
            <gpxtpx:hr>134</gpxtpx:hr>
          </gpxtpx:TrackPointExtension>
        </extensions>
      </trkpt>
      <trkpt lat="44.17226" lon="5.27489">
        <ele>1739.2</ele>
        <time>2021-06-12T09:41:17Z</time>
        <extensions>
          <gpxtpx:TrackPointExtension xmlns:gpxtpx="http://www.garmin.com/xmlschemas/TrackPointExtension/v1">
            <gpxtpx:hr>134</gpxtpx:hr>
          </gpxtpx:TrackPointExtension>
        </extensions>
      </trkpt>
      <trkpt lat="44.17227" lon="5.2749">
        <ele>1739.4</ele>
        <time>2021-06-12T09:41:19Z</time>
        <extensions>
          <gpxtpx:TrackPointExtension xmlns:gpxtpx="http://www.garmin.com/xmlschemas/TrackPointExtension/v1">
            <gpxtpx:hr>133</gpxtpx:hr>
          </gpxtpx:TrackPointExtension>
        </extensions>
      </trkpt>
      <trkpt lat="44.17229" lon="5.27495">
        <ele>1740.2</ele>
        <time>2021-06-12T09:41:25Z</time>
        <extensions>
          <gpxtpx:TrackPointExtension xmlns:gpxtpx="http://www.garmin.com/xmlschemas/TrackPointExtension/v1">
            <gpxtpx:hr>134</gpxtpx:hr>
          </gpxtpx:TrackPointExtension>
        </extensions>
      </trkpt>
      <trkpt lat="44.1723" lon="5.27499">
        <ele>1740.8</ele>
        <time>2021-06-12T09:41:29Z</time>
        <extensions>
          <gpxtpx:TrackPointExtension xmlns:gpxtpx="http://www.garmin.com/xmlschemas/TrackPointExtension/v1">
            <gpxtpx:hr>134</gpxtpx:hr>
          </gpxtpx:TrackPointExtension>
        </extensions>
      </trkpt>
      <trkpt lat="44.17233" lon="5.27502">
        <ele>1741.2</ele>
        <time>2021-06-12T09:41:32Z</time>
        <extensions>
          <gpxtpx:TrackPointExtension xmlns:gpxtpx="http://www.garmin.com/xmlschemas/TrackPointExtension/v1">
            <gpxtpx:hr>134</gpxtpx:hr>
          </gpxtpx:TrackPointExtension>
        </extensions>
      </trkpt>
      <trkpt lat="44.17236" lon="5.27507">
        <ele>1742.4</ele>
        <time>2021-06-12T09:41:40Z</time>
        <extensions>
          <gpxtpx:TrackPointExtension xmlns:gpxtpx="http://www.garmin.com/xmlschemas/TrackPointExtension/v1">
            <gpxtpx:hr>135</gpxtpx:hr>
          </gpxtpx:TrackPointExtension>
        </extensions>
      </trkpt>
      <trkpt lat="44.17239" lon="5.27513">
        <ele>1743.4</ele>
        <time>2021-06-12T09:41:48Z</time>
        <extensions>
          <gpxtpx:TrackPointExtension xmlns:gpxtpx="http://www.garmin.com/xmlschemas/TrackPointExtension/v1">
            <gpxtpx:hr>133</gpxtpx:hr>
          </gpxtpx:TrackPointExtension>
        </extensions>
      </trkpt>
      <trkpt lat="44.1724" lon="5.27515">
        <ele>1743.8</ele>
        <time>2021-06-12T09:41:50Z</time>
        <extensions>
          <gpxtpx:TrackPointExtension xmlns:gpxtpx="http://www.garmin.com/xmlschemas/TrackPointExtension/v1">
            <gpxtpx:hr>134</gpxtpx:hr>
          </gpxtpx:TrackPointExtension>
        </extensions>
      </trkpt>
      <trkpt lat="44.1724" lon="5.27515">
        <ele>1743.8</ele>
        <time>2021-06-12T09:41:51Z</time>
        <extensions>
          <gpxtpx:TrackPointExtension xmlns:gpxtpx="http://www.garmin.com/xmlschemas/TrackPointExtension/v1">
            <gpxtpx:hr>134</gpxtpx:hr>
          </gpxtpx:TrackPointExtension>
        </extensions>
      </trkpt>
      <trkpt lat="44.17241" lon="5.27516">
        <ele>1744</ele>
        <time>2021-06-12T09:41:52Z</time>
        <extensions>
          <gpxtpx:TrackPointExtension xmlns:gpxtpx="http://www.garmin.com/xmlschemas/TrackPointExtension/v1">
            <gpxtpx:hr>134</gpxtpx:hr>
          </gpxtpx:TrackPointExtension>
        </extensions>
      </trkpt>
      <trkpt lat="44.17241" lon="5.27517">
        <ele>1744.6</ele>
        <time>2021-06-12T09:41:54Z</time>
        <extensions>
          <gpxtpx:TrackPointExtension xmlns:gpxtpx="http://www.garmin.com/xmlschemas/TrackPointExtension/v1">
            <gpxtpx:hr>135</gpxtpx:hr>
          </gpxtpx:TrackPointExtension>
        </extensions>
      </trkpt>
      <trkpt lat="44.17241" lon="5.2752">
        <ele>1744.8</ele>
        <time>2021-06-12T09:41:56Z</time>
        <extensions>
          <gpxtpx:TrackPointExtension xmlns:gpxtpx="http://www.garmin.com/xmlschemas/TrackPointExtension/v1">
            <gpxtpx:hr>136</gpxtpx:hr>
          </gpxtpx:TrackPointExtension>
        </extensions>
      </trkpt>
      <trkpt lat="44.17242" lon="5.27522">
        <ele>1745.2</ele>
        <time>2021-06-12T09:41:58Z</time>
        <extensions>
          <gpxtpx:TrackPointExtension xmlns:gpxtpx="http://www.garmin.com/xmlschemas/TrackPointExtension/v1">
            <gpxtpx:hr>137</gpxtpx:hr>
          </gpxtpx:TrackPointExtension>
        </extensions>
      </trkpt>
      <trkpt lat="44.17242" lon="5.27523">
        <ele>1745.4</ele>
        <time>2021-06-12T09:41:59Z</time>
        <extensions>
          <gpxtpx:TrackPointExtension xmlns:gpxtpx="http://www.garmin.com/xmlschemas/TrackPointExtension/v1">
            <gpxtpx:hr>137</gpxtpx:hr>
          </gpxtpx:TrackPointExtension>
        </extensions>
      </trkpt>
      <trkpt lat="44.17242" lon="5.27524">
        <ele>1745.6</ele>
        <time>2021-06-12T09:42:00Z</time>
        <extensions>
          <gpxtpx:TrackPointExtension xmlns:gpxtpx="http://www.garmin.com/xmlschemas/TrackPointExtension/v1">
            <gpxtpx:hr>136</gpxtpx:hr>
          </gpxtpx:TrackPointExtension>
        </extensions>
      </trkpt>
      <trkpt lat="44.17243" lon="5.27525">
        <ele>1745.6</ele>
        <time>2021-06-12T09:42:01Z</time>
        <extensions>
          <gpxtpx:TrackPointExtension xmlns:gpxtpx="http://www.garmin.com/xmlschemas/TrackPointExtension/v1">
            <gpxtpx:hr>137</gpxtpx:hr>
          </gpxtpx:TrackPointExtension>
        </extensions>
      </trkpt>
      <trkpt lat="44.17243" lon="5.2753">
        <ele>1746.4</ele>
        <time>2021-06-12T09:42:06Z</time>
        <extensions>
          <gpxtpx:TrackPointExtension xmlns:gpxtpx="http://www.garmin.com/xmlschemas/TrackPointExtension/v1">
            <gpxtpx:hr>137</gpxtpx:hr>
          </gpxtpx:TrackPointExtension>
        </extensions>
      </trkpt>
      <trkpt lat="44.17243" lon="5.27532">
        <ele>1746.6</ele>
        <time>2021-06-12T09:42:07Z</time>
        <extensions>
          <gpxtpx:TrackPointExtension xmlns:gpxtpx="http://www.garmin.com/xmlschemas/TrackPointExtension/v1">
            <gpxtpx:hr>137</gpxtpx:hr>
          </gpxtpx:TrackPointExtension>
        </extensions>
      </trkpt>
      <trkpt lat="44.17246" lon="5.2754">
        <ele>1747.6</ele>
        <time>2021-06-12T09:42:16Z</time>
        <extensions>
          <gpxtpx:TrackPointExtension xmlns:gpxtpx="http://www.garmin.com/xmlschemas/TrackPointExtension/v1">
            <gpxtpx:hr>137</gpxtpx:hr>
          </gpxtpx:TrackPointExtension>
        </extensions>
      </trkpt>
      <trkpt lat="44.17248" lon="5.27543">
        <ele>1748.4</ele>
        <time>2021-06-12T09:42:22Z</time>
        <extensions>
          <gpxtpx:TrackPointExtension xmlns:gpxtpx="http://www.garmin.com/xmlschemas/TrackPointExtension/v1">
            <gpxtpx:hr>137</gpxtpx:hr>
          </gpxtpx:TrackPointExtension>
        </extensions>
      </trkpt>
      <trkpt lat="44.1725" lon="5.27545">
        <ele>1748.8</ele>
        <time>2021-06-12T09:42:25Z</time>
        <extensions>
          <gpxtpx:TrackPointExtension xmlns:gpxtpx="http://www.garmin.com/xmlschemas/TrackPointExtension/v1">
            <gpxtpx:hr>136</gpxtpx:hr>
          </gpxtpx:TrackPointExtension>
        </extensions>
      </trkpt>
      <trkpt lat="44.17252" lon="5.27549">
        <ele>1749.8</ele>
        <time>2021-06-12T09:42:31Z</time>
        <extensions>
          <gpxtpx:TrackPointExtension xmlns:gpxtpx="http://www.garmin.com/xmlschemas/TrackPointExtension/v1">
            <gpxtpx:hr>136</gpxtpx:hr>
          </gpxtpx:TrackPointExtension>
        </extensions>
      </trkpt>
      <trkpt lat="44.17255" lon="5.27553">
        <ele>1751</ele>
        <time>2021-06-12T09:42:38Z</time>
        <extensions>
          <gpxtpx:TrackPointExtension xmlns:gpxtpx="http://www.garmin.com/xmlschemas/TrackPointExtension/v1">
            <gpxtpx:hr>135</gpxtpx:hr>
          </gpxtpx:TrackPointExtension>
        </extensions>
      </trkpt>
      <trkpt lat="44.17257" lon="5.27553">
        <ele>1751.6</ele>
        <time>2021-06-12T09:42:43Z</time>
        <extensions>
          <gpxtpx:TrackPointExtension xmlns:gpxtpx="http://www.garmin.com/xmlschemas/TrackPointExtension/v1">
            <gpxtpx:hr>138</gpxtpx:hr>
          </gpxtpx:TrackPointExtension>
        </extensions>
      </trkpt>
      <trkpt lat="44.17259" lon="5.27553">
        <ele>1752.2</ele>
        <time>2021-06-12T09:42:46Z</time>
        <extensions>
          <gpxtpx:TrackPointExtension xmlns:gpxtpx="http://www.garmin.com/xmlschemas/TrackPointExtension/v1">
            <gpxtpx:hr>138</gpxtpx:hr>
          </gpxtpx:TrackPointExtension>
        </extensions>
      </trkpt>
      <trkpt lat="44.17261" lon="5.27552">
        <ele>1752.8</ele>
        <time>2021-06-12T09:42:49Z</time>
        <extensions>
          <gpxtpx:TrackPointExtension xmlns:gpxtpx="http://www.garmin.com/xmlschemas/TrackPointExtension/v1">
            <gpxtpx:hr>139</gpxtpx:hr>
          </gpxtpx:TrackPointExtension>
        </extensions>
      </trkpt>
      <trkpt lat="44.17262" lon="5.27551">
        <ele>1753.2</ele>
        <time>2021-06-12T09:42:51Z</time>
        <extensions>
          <gpxtpx:TrackPointExtension xmlns:gpxtpx="http://www.garmin.com/xmlschemas/TrackPointExtension/v1">
            <gpxtpx:hr>139</gpxtpx:hr>
          </gpxtpx:TrackPointExtension>
        </extensions>
      </trkpt>
      <trkpt lat="44.17262" lon="5.27551">
        <ele>1753.4</ele>
        <time>2021-06-12T09:42:52Z</time>
        <extensions>
          <gpxtpx:TrackPointExtension xmlns:gpxtpx="http://www.garmin.com/xmlschemas/TrackPointExtension/v1">
            <gpxtpx:hr>140</gpxtpx:hr>
          </gpxtpx:TrackPointExtension>
        </extensions>
      </trkpt>
      <trkpt lat="44.17263" lon="5.27551">
        <ele>1753.8</ele>
        <time>2021-06-12T09:42:54Z</time>
        <extensions>
          <gpxtpx:TrackPointExtension xmlns:gpxtpx="http://www.garmin.com/xmlschemas/TrackPointExtension/v1">
            <gpxtpx:hr>140</gpxtpx:hr>
          </gpxtpx:TrackPointExtension>
        </extensions>
      </trkpt>
      <trkpt lat="44.17265" lon="5.2755">
        <ele>1754.2</ele>
        <time>2021-06-12T09:42:56Z</time>
        <extensions>
          <gpxtpx:TrackPointExtension xmlns:gpxtpx="http://www.garmin.com/xmlschemas/TrackPointExtension/v1">
            <gpxtpx:hr>141</gpxtpx:hr>
          </gpxtpx:TrackPointExtension>
        </extensions>
      </trkpt>
      <trkpt lat="44.17266" lon="5.27551">
        <ele>1754.6</ele>
        <time>2021-06-12T09:42:58Z</time>
        <extensions>
          <gpxtpx:TrackPointExtension xmlns:gpxtpx="http://www.garmin.com/xmlschemas/TrackPointExtension/v1">
            <gpxtpx:hr>141</gpxtpx:hr>
          </gpxtpx:TrackPointExtension>
        </extensions>
      </trkpt>
      <trkpt lat="44.1727" lon="5.27552">
        <ele>1755.2</ele>
        <time>2021-06-12T09:43:02Z</time>
        <extensions>
          <gpxtpx:TrackPointExtension xmlns:gpxtpx="http://www.garmin.com/xmlschemas/TrackPointExtension/v1">
            <gpxtpx:hr>142</gpxtpx:hr>
          </gpxtpx:TrackPointExtension>
        </extensions>
      </trkpt>
      <trkpt lat="44.17272" lon="5.27554">
        <ele>1755.6</ele>
        <time>2021-06-12T09:43:04Z</time>
        <extensions>
          <gpxtpx:TrackPointExtension xmlns:gpxtpx="http://www.garmin.com/xmlschemas/TrackPointExtension/v1">
            <gpxtpx:hr>141</gpxtpx:hr>
          </gpxtpx:TrackPointExtension>
        </extensions>
      </trkpt>
      <trkpt lat="44.17273" lon="5.27555">
        <ele>1756</ele>
        <time>2021-06-12T09:43:05Z</time>
        <extensions>
          <gpxtpx:TrackPointExtension xmlns:gpxtpx="http://www.garmin.com/xmlschemas/TrackPointExtension/v1">
            <gpxtpx:hr>141</gpxtpx:hr>
          </gpxtpx:TrackPointExtension>
        </extensions>
      </trkpt>
      <trkpt lat="44.17274" lon="5.27557">
        <ele>1756.2</ele>
        <time>2021-06-12T09:43:08Z</time>
        <extensions>
          <gpxtpx:TrackPointExtension xmlns:gpxtpx="http://www.garmin.com/xmlschemas/TrackPointExtension/v1">
            <gpxtpx:hr>140</gpxtpx:hr>
          </gpxtpx:TrackPointExtension>
        </extensions>
      </trkpt>
      <trkpt lat="44.17277" lon="5.27566">
        <ele>1757.4</ele>
        <time>2021-06-12T09:43:18Z</time>
        <extensions>
          <gpxtpx:TrackPointExtension xmlns:gpxtpx="http://www.garmin.com/xmlschemas/TrackPointExtension/v1">
            <gpxtpx:hr>141</gpxtpx:hr>
          </gpxtpx:TrackPointExtension>
        </extensions>
      </trkpt>
      <trkpt lat="44.1728" lon="5.27568">
        <ele>1758.4</ele>
        <time>2021-06-12T09:43:24Z</time>
        <extensions>
          <gpxtpx:TrackPointExtension xmlns:gpxtpx="http://www.garmin.com/xmlschemas/TrackPointExtension/v1">
            <gpxtpx:hr>140</gpxtpx:hr>
          </gpxtpx:TrackPointExtension>
        </extensions>
      </trkpt>
      <trkpt lat="44.1728" lon="5.27567">
        <ele>1758.4</ele>
        <time>2021-06-12T09:43:25Z</time>
        <extensions>
          <gpxtpx:TrackPointExtension xmlns:gpxtpx="http://www.garmin.com/xmlschemas/TrackPointExtension/v1">
            <gpxtpx:hr>140</gpxtpx:hr>
          </gpxtpx:TrackPointExtension>
        </extensions>
      </trkpt>
      <trkpt lat="44.17282" lon="5.27567">
        <ele>1759.4</ele>
        <time>2021-06-12T09:43:29Z</time>
        <extensions>
          <gpxtpx:TrackPointExtension xmlns:gpxtpx="http://www.garmin.com/xmlschemas/TrackPointExtension/v1">
            <gpxtpx:hr>140</gpxtpx:hr>
          </gpxtpx:TrackPointExtension>
        </extensions>
      </trkpt>
      <trkpt lat="44.17284" lon="5.27567">
        <ele>1760.4</ele>
        <time>2021-06-12T09:43:34Z</time>
        <extensions>
          <gpxtpx:TrackPointExtension xmlns:gpxtpx="http://www.garmin.com/xmlschemas/TrackPointExtension/v1">
            <gpxtpx:hr>141</gpxtpx:hr>
          </gpxtpx:TrackPointExtension>
        </extensions>
      </trkpt>
      <trkpt lat="44.17284" lon="5.27567">
        <ele>1760.6</ele>
        <time>2021-06-12T09:43:36Z</time>
        <extensions>
          <gpxtpx:TrackPointExtension xmlns:gpxtpx="http://www.garmin.com/xmlschemas/TrackPointExtension/v1">
            <gpxtpx:hr>141</gpxtpx:hr>
          </gpxtpx:TrackPointExtension>
        </extensions>
      </trkpt>
      <trkpt lat="44.17285" lon="5.27568">
        <ele>1760.8</ele>
        <time>2021-06-12T09:43:37Z</time>
        <extensions>
          <gpxtpx:TrackPointExtension xmlns:gpxtpx="http://www.garmin.com/xmlschemas/TrackPointExtension/v1">
            <gpxtpx:hr>141</gpxtpx:hr>
          </gpxtpx:TrackPointExtension>
        </extensions>
      </trkpt>
      <trkpt lat="44.17288" lon="5.2757">
        <ele>1761.4</ele>
        <time>2021-06-12T09:43:42Z</time>
        <extensions>
          <gpxtpx:TrackPointExtension xmlns:gpxtpx="http://www.garmin.com/xmlschemas/TrackPointExtension/v1">
            <gpxtpx:hr>141</gpxtpx:hr>
          </gpxtpx:TrackPointExtension>
        </extensions>
      </trkpt>
      <trkpt lat="44.1729" lon="5.27571">
        <ele>1762</ele>
        <time>2021-06-12T09:43:44Z</time>
        <extensions>
          <gpxtpx:TrackPointExtension xmlns:gpxtpx="http://www.garmin.com/xmlschemas/TrackPointExtension/v1">
            <gpxtpx:hr>141</gpxtpx:hr>
          </gpxtpx:TrackPointExtension>
        </extensions>
      </trkpt>
      <trkpt lat="44.17292" lon="5.27573">
        <ele>1762.6</ele>
        <time>2021-06-12T09:43:47Z</time>
        <extensions>
          <gpxtpx:TrackPointExtension xmlns:gpxtpx="http://www.garmin.com/xmlschemas/TrackPointExtension/v1">
            <gpxtpx:hr>142</gpxtpx:hr>
          </gpxtpx:TrackPointExtension>
        </extensions>
      </trkpt>
      <trkpt lat="44.17293" lon="5.27573">
        <ele>1763.2</ele>
        <time>2021-06-12T09:43:51Z</time>
        <extensions>
          <gpxtpx:TrackPointExtension xmlns:gpxtpx="http://www.garmin.com/xmlschemas/TrackPointExtension/v1">
            <gpxtpx:hr>142</gpxtpx:hr>
          </gpxtpx:TrackPointExtension>
        </extensions>
      </trkpt>
      <trkpt lat="44.17295" lon="5.27572">
        <ele>1763.8</ele>
        <time>2021-06-12T09:43:54Z</time>
        <extensions>
          <gpxtpx:TrackPointExtension xmlns:gpxtpx="http://www.garmin.com/xmlschemas/TrackPointExtension/v1">
            <gpxtpx:hr>142</gpxtpx:hr>
          </gpxtpx:TrackPointExtension>
        </extensions>
      </trkpt>
      <trkpt lat="44.17297" lon="5.2757">
        <ele>1764.8</ele>
        <time>2021-06-12T09:43:59Z</time>
        <extensions>
          <gpxtpx:TrackPointExtension xmlns:gpxtpx="http://www.garmin.com/xmlschemas/TrackPointExtension/v1">
            <gpxtpx:hr>142</gpxtpx:hr>
          </gpxtpx:TrackPointExtension>
        </extensions>
      </trkpt>
      <trkpt lat="44.17302" lon="5.2757">
        <ele>1766</ele>
        <time>2021-06-12T09:44:07Z</time>
        <extensions>
          <gpxtpx:TrackPointExtension xmlns:gpxtpx="http://www.garmin.com/xmlschemas/TrackPointExtension/v1">
            <gpxtpx:hr>142</gpxtpx:hr>
          </gpxtpx:TrackPointExtension>
        </extensions>
      </trkpt>
      <trkpt lat="44.17305" lon="5.2757">
        <ele>1767</ele>
        <time>2021-06-12T09:44:12Z</time>
        <extensions>
          <gpxtpx:TrackPointExtension xmlns:gpxtpx="http://www.garmin.com/xmlschemas/TrackPointExtension/v1">
            <gpxtpx:hr>141</gpxtpx:hr>
          </gpxtpx:TrackPointExtension>
        </extensions>
      </trkpt>
      <trkpt lat="44.17304" lon="5.2756">
        <ele>1767.6</ele>
        <time>2021-06-12T09:44:21Z</time>
        <extensions>
          <gpxtpx:TrackPointExtension xmlns:gpxtpx="http://www.garmin.com/xmlschemas/TrackPointExtension/v1">
            <gpxtpx:hr>140</gpxtpx:hr>
          </gpxtpx:TrackPointExtension>
        </extensions>
      </trkpt>
      <trkpt lat="44.17304" lon="5.27559">
        <ele>1767.6</ele>
        <time>2021-06-12T09:44:22Z</time>
        <extensions>
          <gpxtpx:TrackPointExtension xmlns:gpxtpx="http://www.garmin.com/xmlschemas/TrackPointExtension/v1">
            <gpxtpx:hr>140</gpxtpx:hr>
          </gpxtpx:TrackPointExtension>
        </extensions>
      </trkpt>
      <trkpt lat="44.17303" lon="5.27558">
        <ele>1767.6</ele>
        <time>2021-06-12T09:44:23Z</time>
        <extensions>
          <gpxtpx:TrackPointExtension xmlns:gpxtpx="http://www.garmin.com/xmlschemas/TrackPointExtension/v1">
            <gpxtpx:hr>140</gpxtpx:hr>
          </gpxtpx:TrackPointExtension>
        </extensions>
      </trkpt>
      <trkpt lat="44.17303" lon="5.27555">
        <ele>1767.6</ele>
        <time>2021-06-12T09:44:25Z</time>
        <extensions>
          <gpxtpx:TrackPointExtension xmlns:gpxtpx="http://www.garmin.com/xmlschemas/TrackPointExtension/v1">
            <gpxtpx:hr>139</gpxtpx:hr>
          </gpxtpx:TrackPointExtension>
        </extensions>
      </trkpt>
      <trkpt lat="44.17304" lon="5.27554">
        <ele>1767.6</ele>
        <time>2021-06-12T09:44:26Z</time>
        <extensions>
          <gpxtpx:TrackPointExtension xmlns:gpxtpx="http://www.garmin.com/xmlschemas/TrackPointExtension/v1">
            <gpxtpx:hr>139</gpxtpx:hr>
          </gpxtpx:TrackPointExtension>
        </extensions>
      </trkpt>
      <trkpt lat="44.17304" lon="5.27553">
        <ele>1767.6</ele>
        <time>2021-06-12T09:44:27Z</time>
        <extensions>
          <gpxtpx:TrackPointExtension xmlns:gpxtpx="http://www.garmin.com/xmlschemas/TrackPointExtension/v1">
            <gpxtpx:hr>138</gpxtpx:hr>
          </gpxtpx:TrackPointExtension>
        </extensions>
      </trkpt>
      <trkpt lat="44.17308" lon="5.27551">
        <ele>1767.8</ele>
        <time>2021-06-12T09:44:33Z</time>
        <extensions>
          <gpxtpx:TrackPointExtension xmlns:gpxtpx="http://www.garmin.com/xmlschemas/TrackPointExtension/v1">
            <gpxtpx:hr>136</gpxtpx:hr>
          </gpxtpx:TrackPointExtension>
        </extensions>
      </trkpt>
      <trkpt lat="44.17308" lon="5.27551">
        <ele>1767.6</ele>
        <time>2021-06-12T09:44:35Z</time>
        <extensions>
          <gpxtpx:TrackPointExtension xmlns:gpxtpx="http://www.garmin.com/xmlschemas/TrackPointExtension/v1">
            <gpxtpx:hr>134</gpxtpx:hr>
          </gpxtpx:TrackPointExtension>
        </extensions>
      </trkpt>
      <trkpt lat="44.1731" lon="5.2755">
        <ele>1767.6</ele>
        <time>2021-06-12T09:44:39Z</time>
        <extensions>
          <gpxtpx:TrackPointExtension xmlns:gpxtpx="http://www.garmin.com/xmlschemas/TrackPointExtension/v1">
            <gpxtpx:hr>131</gpxtpx:hr>
          </gpxtpx:TrackPointExtension>
        </extensions>
      </trkpt>
      <trkpt lat="44.17314" lon="5.27558">
        <ele>1767.8</ele>
        <time>2021-06-12T09:44:50Z</time>
        <extensions>
          <gpxtpx:TrackPointExtension xmlns:gpxtpx="http://www.garmin.com/xmlschemas/TrackPointExtension/v1">
            <gpxtpx:hr>128</gpxtpx:hr>
          </gpxtpx:TrackPointExtension>
        </extensions>
      </trkpt>
      <trkpt lat="44.17305" lon="5.27562">
        <ele>1767.6</ele>
        <time>2021-06-12T09:45:04Z</time>
        <extensions>
          <gpxtpx:TrackPointExtension xmlns:gpxtpx="http://www.garmin.com/xmlschemas/TrackPointExtension/v1">
            <gpxtpx:hr>125</gpxtpx:hr>
          </gpxtpx:TrackPointExtension>
        </extensions>
      </trkpt>
      <trkpt lat="44.17307" lon="5.27567">
        <ele>1767.4</ele>
        <time>2021-06-12T09:45:11Z</time>
        <extensions>
          <gpxtpx:TrackPointExtension xmlns:gpxtpx="http://www.garmin.com/xmlschemas/TrackPointExtension/v1">
            <gpxtpx:hr>126</gpxtpx:hr>
          </gpxtpx:TrackPointExtension>
        </extensions>
      </trkpt>
      <trkpt lat="44.17309" lon="5.27566">
        <ele>1767</ele>
        <time>2021-06-12T09:45:18Z</time>
        <extensions>
          <gpxtpx:TrackPointExtension xmlns:gpxtpx="http://www.garmin.com/xmlschemas/TrackPointExtension/v1">
            <gpxtpx:hr>122</gpxtpx:hr>
          </gpxtpx:TrackPointExtension>
        </extensions>
      </trkpt>
      <trkpt lat="44.1731" lon="5.27565">
        <ele>1767.2</ele>
        <time>2021-06-12T09:45:22Z</time>
        <extensions>
          <gpxtpx:TrackPointExtension xmlns:gpxtpx="http://www.garmin.com/xmlschemas/TrackPointExtension/v1">
            <gpxtpx:hr>119</gpxtpx:hr>
          </gpxtpx:TrackPointExtension>
        </extensions>
      </trkpt>
      <trkpt lat="44.1731" lon="5.27565">
        <ele>1767.2</ele>
        <time>2021-06-12T09:45:28Z</time>
        <extensions>
          <gpxtpx:TrackPointExtension xmlns:gpxtpx="http://www.garmin.com/xmlschemas/TrackPointExtension/v1">
            <gpxtpx:hr>115</gpxtpx:hr>
          </gpxtpx:TrackPointExtension>
        </extensions>
      </trkpt>
      <trkpt lat="44.1731" lon="5.27564">
        <ele>1767</ele>
        <time>2021-06-12T09:45:36Z</time>
        <extensions>
          <gpxtpx:TrackPointExtension xmlns:gpxtpx="http://www.garmin.com/xmlschemas/TrackPointExtension/v1">
            <gpxtpx:hr>112</gpxtpx:hr>
          </gpxtpx:TrackPointExtension>
        </extensions>
      </trkpt>
      <trkpt lat="44.1731" lon="5.27564">
        <ele>1767.2</ele>
        <time>2021-06-12T09:45:41Z</time>
        <extensions>
          <gpxtpx:TrackPointExtension xmlns:gpxtpx="http://www.garmin.com/xmlschemas/TrackPointExtension/v1">
            <gpxtpx:hr>110</gpxtpx:hr>
          </gpxtpx:TrackPointExtension>
        </extensions>
      </trkpt>
      <trkpt lat="44.17352" lon="5.27778">
        <ele>1799.8</ele>
        <time>2021-06-12T09:50:53Z</time>
        <extensions>
          <gpxtpx:TrackPointExtension xmlns:gpxtpx="http://www.garmin.com/xmlschemas/TrackPointExtension/v1">
            <gpxtpx:hr>138</gpxtpx:hr>
          </gpxtpx:TrackPointExtension>
        </extensions>
      </trkpt>
      <trkpt lat="44.17351" lon="5.27778">
        <ele>1799.8</ele>
        <time>2021-06-12T09:50:54Z</time>
        <extensions>
          <gpxtpx:TrackPointExtension xmlns:gpxtpx="http://www.garmin.com/xmlschemas/TrackPointExtension/v1">
            <gpxtpx:hr>138</gpxtpx:hr>
          </gpxtpx:TrackPointExtension>
        </extensions>
      </trkpt>
      <trkpt lat="44.17351" lon="5.27779">
        <ele>1799.8</ele>
        <time>2021-06-12T09:50:55Z</time>
        <extensions>
          <gpxtpx:TrackPointExtension xmlns:gpxtpx="http://www.garmin.com/xmlschemas/TrackPointExtension/v1">
            <gpxtpx:hr>137</gpxtpx:hr>
          </gpxtpx:TrackPointExtension>
        </extensions>
      </trkpt>
      <trkpt lat="44.17355" lon="5.27789">
        <ele>1800.6</ele>
        <time>2021-06-12T09:51:00Z</time>
        <extensions>
          <gpxtpx:TrackPointExtension xmlns:gpxtpx="http://www.garmin.com/xmlschemas/TrackPointExtension/v1">
            <gpxtpx:hr>136</gpxtpx:hr>
          </gpxtpx:TrackPointExtension>
        </extensions>
      </trkpt>
      <trkpt lat="44.17354" lon="5.2779">
        <ele>1800.8</ele>
        <time>2021-06-12T09:51:01Z</time>
        <extensions>
          <gpxtpx:TrackPointExtension xmlns:gpxtpx="http://www.garmin.com/xmlschemas/TrackPointExtension/v1">
            <gpxtpx:hr>135</gpxtpx:hr>
          </gpxtpx:TrackPointExtension>
        </extensions>
      </trkpt>
      <trkpt lat="44.17354" lon="5.27791">
        <ele>1801</ele>
        <time>2021-06-12T09:51:02Z</time>
        <extensions>
          <gpxtpx:TrackPointExtension xmlns:gpxtpx="http://www.garmin.com/xmlschemas/TrackPointExtension/v1">
            <gpxtpx:hr>134</gpxtpx:hr>
          </gpxtpx:TrackPointExtension>
        </extensions>
      </trkpt>
      <trkpt lat="44.17354" lon="5.27796">
        <ele>1801.4</ele>
        <time>2021-06-12T09:51:05Z</time>
        <extensions>
          <gpxtpx:TrackPointExtension xmlns:gpxtpx="http://www.garmin.com/xmlschemas/TrackPointExtension/v1">
            <gpxtpx:hr>135</gpxtpx:hr>
          </gpxtpx:TrackPointExtension>
        </extensions>
      </trkpt>
      <trkpt lat="44.17354" lon="5.278">
        <ele>1801.6</ele>
        <time>2021-06-12T09:51:08Z</time>
        <extensions>
          <gpxtpx:TrackPointExtension xmlns:gpxtpx="http://www.garmin.com/xmlschemas/TrackPointExtension/v1">
            <gpxtpx:hr>136</gpxtpx:hr>
          </gpxtpx:TrackPointExtension>
        </extensions>
      </trkpt>
      <trkpt lat="44.17356" lon="5.27805">
        <ele>1801.8</ele>
        <time>2021-06-12T09:51:11Z</time>
        <extensions>
          <gpxtpx:TrackPointExtension xmlns:gpxtpx="http://www.garmin.com/xmlschemas/TrackPointExtension/v1">
            <gpxtpx:hr>137</gpxtpx:hr>
          </gpxtpx:TrackPointExtension>
        </extensions>
      </trkpt>
      <trkpt lat="44.17356" lon="5.27806">
        <ele>1802</ele>
        <time>2021-06-12T09:51:12Z</time>
        <extensions>
          <gpxtpx:TrackPointExtension xmlns:gpxtpx="http://www.garmin.com/xmlschemas/TrackPointExtension/v1">
            <gpxtpx:hr>137</gpxtpx:hr>
          </gpxtpx:TrackPointExtension>
        </extensions>
      </trkpt>
      <trkpt lat="44.17358" lon="5.27815">
        <ele>1802.8</ele>
        <time>2021-06-12T09:51:18Z</time>
        <extensions>
          <gpxtpx:TrackPointExtension xmlns:gpxtpx="http://www.garmin.com/xmlschemas/TrackPointExtension/v1">
            <gpxtpx:hr>137</gpxtpx:hr>
          </gpxtpx:TrackPointExtension>
        </extensions>
      </trkpt>
      <trkpt lat="44.17359" lon="5.27818">
        <ele>1803</ele>
        <time>2021-06-12T09:51:20Z</time>
        <extensions>
          <gpxtpx:TrackPointExtension xmlns:gpxtpx="http://www.garmin.com/xmlschemas/TrackPointExtension/v1">
            <gpxtpx:hr>137</gpxtpx:hr>
          </gpxtpx:TrackPointExtension>
        </extensions>
      </trkpt>
      <trkpt lat="44.17361" lon="5.2782">
        <ele>1803.2</ele>
        <time>2021-06-12T09:51:22Z</time>
        <extensions>
          <gpxtpx:TrackPointExtension xmlns:gpxtpx="http://www.garmin.com/xmlschemas/TrackPointExtension/v1">
            <gpxtpx:hr>137</gpxtpx:hr>
          </gpxtpx:TrackPointExtension>
        </extensions>
      </trkpt>
      <trkpt lat="44.1736" lon="5.27827">
        <ele>1803.6</ele>
        <time>2021-06-12T09:51:27Z</time>
        <extensions>
          <gpxtpx:TrackPointExtension xmlns:gpxtpx="http://www.garmin.com/xmlschemas/TrackPointExtension/v1">
            <gpxtpx:hr>136</gpxtpx:hr>
          </gpxtpx:TrackPointExtension>
        </extensions>
      </trkpt>
      <trkpt lat="44.17361" lon="5.27828">
        <ele>1803.6</ele>
        <time>2021-06-12T09:51:28Z</time>
        <extensions>
          <gpxtpx:TrackPointExtension xmlns:gpxtpx="http://www.garmin.com/xmlschemas/TrackPointExtension/v1">
            <gpxtpx:hr>135</gpxtpx:hr>
          </gpxtpx:TrackPointExtension>
        </extensions>
      </trkpt>
      <trkpt lat="44.1736" lon="5.27835">
        <ele>1803.8</ele>
        <time>2021-06-12T09:51:32Z</time>
        <extensions>
          <gpxtpx:TrackPointExtension xmlns:gpxtpx="http://www.garmin.com/xmlschemas/TrackPointExtension/v1">
            <gpxtpx:hr>133</gpxtpx:hr>
          </gpxtpx:TrackPointExtension>
        </extensions>
      </trkpt>
      <trkpt lat="44.17359" lon="5.27839">
        <ele>1804</ele>
        <time>2021-06-12T09:51:34Z</time>
        <extensions>
          <gpxtpx:TrackPointExtension xmlns:gpxtpx="http://www.garmin.com/xmlschemas/TrackPointExtension/v1">
            <gpxtpx:hr>132</gpxtpx:hr>
          </gpxtpx:TrackPointExtension>
        </extensions>
      </trkpt>
      <trkpt lat="44.1736" lon="5.27845">
        <ele>1803.4</ele>
        <time>2021-06-12T09:51:38Z</time>
        <extensions>
          <gpxtpx:TrackPointExtension xmlns:gpxtpx="http://www.garmin.com/xmlschemas/TrackPointExtension/v1">
            <gpxtpx:hr>132</gpxtpx:hr>
          </gpxtpx:TrackPointExtension>
        </extensions>
      </trkpt>
      <trkpt lat="44.17361" lon="5.27853">
        <ele>1803.2</ele>
        <time>2021-06-12T09:51:43Z</time>
        <extensions>
          <gpxtpx:TrackPointExtension xmlns:gpxtpx="http://www.garmin.com/xmlschemas/TrackPointExtension/v1">
            <gpxtpx:hr>129</gpxtpx:hr>
          </gpxtpx:TrackPointExtension>
        </extensions>
      </trkpt>
      <trkpt lat="44.1736" lon="5.27857">
        <ele>1803.2</ele>
        <time>2021-06-12T09:51:46Z</time>
        <extensions>
          <gpxtpx:TrackPointExtension xmlns:gpxtpx="http://www.garmin.com/xmlschemas/TrackPointExtension/v1">
            <gpxtpx:hr>128</gpxtpx:hr>
          </gpxtpx:TrackPointExtension>
        </extensions>
      </trkpt>
      <trkpt lat="44.17359" lon="5.27861">
        <ele>1803.4</ele>
        <time>2021-06-12T09:51:50Z</time>
        <extensions>
          <gpxtpx:TrackPointExtension xmlns:gpxtpx="http://www.garmin.com/xmlschemas/TrackPointExtension/v1">
            <gpxtpx:hr>125</gpxtpx:hr>
          </gpxtpx:TrackPointExtension>
        </extensions>
      </trkpt>
      <trkpt lat="44.17358" lon="5.27865">
        <ele>1803.2</ele>
        <time>2021-06-12T09:51:53Z</time>
        <extensions>
          <gpxtpx:TrackPointExtension xmlns:gpxtpx="http://www.garmin.com/xmlschemas/TrackPointExtension/v1">
            <gpxtpx:hr>125</gpxtpx:hr>
          </gpxtpx:TrackPointExtension>
        </extensions>
      </trkpt>
      <trkpt lat="44.17358" lon="5.27868">
        <ele>1803</ele>
        <time>2021-06-12T09:51:55Z</time>
        <extensions>
          <gpxtpx:TrackPointExtension xmlns:gpxtpx="http://www.garmin.com/xmlschemas/TrackPointExtension/v1">
            <gpxtpx:hr>125</gpxtpx:hr>
          </gpxtpx:TrackPointExtension>
        </extensions>
      </trkpt>
      <trkpt lat="44.17358" lon="5.27873">
        <ele>1803</ele>
        <time>2021-06-12T09:51:59Z</time>
        <extensions>
          <gpxtpx:TrackPointExtension xmlns:gpxtpx="http://www.garmin.com/xmlschemas/TrackPointExtension/v1">
            <gpxtpx:hr>122</gpxtpx:hr>
          </gpxtpx:TrackPointExtension>
        </extensions>
      </trkpt>
      <trkpt lat="44.17358" lon="5.27875">
        <ele>1803</ele>
        <time>2021-06-12T09:52:01Z</time>
        <extensions>
          <gpxtpx:TrackPointExtension xmlns:gpxtpx="http://www.garmin.com/xmlschemas/TrackPointExtension/v1">
            <gpxtpx:hr>120</gpxtpx:hr>
          </gpxtpx:TrackPointExtension>
        </extensions>
      </trkpt>
      <trkpt lat="44.1736" lon="5.27876">
        <ele>1803</ele>
        <time>2021-06-12T09:52:02Z</time>
        <extensions>
          <gpxtpx:TrackPointExtension xmlns:gpxtpx="http://www.garmin.com/xmlschemas/TrackPointExtension/v1">
            <gpxtpx:hr>120</gpxtpx:hr>
          </gpxtpx:TrackPointExtension>
        </extensions>
      </trkpt>
      <trkpt lat="44.17361" lon="5.27879">
        <ele>1802.8</ele>
        <time>2021-06-12T09:52:04Z</time>
        <extensions>
          <gpxtpx:TrackPointExtension xmlns:gpxtpx="http://www.garmin.com/xmlschemas/TrackPointExtension/v1">
            <gpxtpx:hr>121</gpxtpx:hr>
          </gpxtpx:TrackPointExtension>
        </extensions>
      </trkpt>
      <trkpt lat="44.17362" lon="5.27883">
        <ele>1802.8</ele>
        <time>2021-06-12T09:52:08Z</time>
        <extensions>
          <gpxtpx:TrackPointExtension xmlns:gpxtpx="http://www.garmin.com/xmlschemas/TrackPointExtension/v1">
            <gpxtpx:hr>120</gpxtpx:hr>
          </gpxtpx:TrackPointExtension>
        </extensions>
      </trkpt>
      <trkpt lat="44.17362" lon="5.27885">
        <ele>1802.8</ele>
        <time>2021-06-12T09:52:09Z</time>
        <extensions>
          <gpxtpx:TrackPointExtension xmlns:gpxtpx="http://www.garmin.com/xmlschemas/TrackPointExtension/v1">
            <gpxtpx:hr>120</gpxtpx:hr>
          </gpxtpx:TrackPointExtension>
        </extensions>
      </trkpt>
      <trkpt lat="44.17362" lon="5.27887">
        <ele>1802.8</ele>
        <time>2021-06-12T09:52:11Z</time>
        <extensions>
          <gpxtpx:TrackPointExtension xmlns:gpxtpx="http://www.garmin.com/xmlschemas/TrackPointExtension/v1">
            <gpxtpx:hr>119</gpxtpx:hr>
          </gpxtpx:TrackPointExtension>
        </extensions>
      </trkpt>
      <trkpt lat="44.17361" lon="5.27887">
        <ele>1802.6</ele>
        <time>2021-06-12T09:52:13Z</time>
        <extensions>
          <gpxtpx:TrackPointExtension xmlns:gpxtpx="http://www.garmin.com/xmlschemas/TrackPointExtension/v1">
            <gpxtpx:hr>119</gpxtpx:hr>
          </gpxtpx:TrackPointExtension>
        </extensions>
      </trkpt>
      <trkpt lat="44.17362" lon="5.27888">
        <ele>1802.6</ele>
        <time>2021-06-12T09:52:23Z</time>
        <extensions>
          <gpxtpx:TrackPointExtension xmlns:gpxtpx="http://www.garmin.com/xmlschemas/TrackPointExtension/v1">
            <gpxtpx:hr>116</gpxtpx:hr>
          </gpxtpx:TrackPointExtension>
        </extensions>
      </trkpt>
      <trkpt lat="44.17365" lon="5.27887">
        <ele>1802.8</ele>
        <time>2021-06-12T09:52:31Z</time>
        <extensions>
          <gpxtpx:TrackPointExtension xmlns:gpxtpx="http://www.garmin.com/xmlschemas/TrackPointExtension/v1">
            <gpxtpx:hr>117</gpxtpx:hr>
          </gpxtpx:TrackPointExtension>
        </extensions>
      </trkpt>
      <trkpt lat="44.17363" lon="5.27886">
        <ele>1802.8</ele>
        <time>2021-06-12T09:52:33Z</time>
        <extensions>
          <gpxtpx:TrackPointExtension xmlns:gpxtpx="http://www.garmin.com/xmlschemas/TrackPointExtension/v1">
            <gpxtpx:hr>113</gpxtpx:hr>
          </gpxtpx:TrackPointExtension>
        </extensions>
      </trkpt>
      <trkpt lat="44.17363" lon="5.27884">
        <ele>1802.8</ele>
        <time>2021-06-12T09:52:37Z</time>
        <extensions>
          <gpxtpx:TrackPointExtension xmlns:gpxtpx="http://www.garmin.com/xmlschemas/TrackPointExtension/v1">
            <gpxtpx:hr>116</gpxtpx:hr>
          </gpxtpx:TrackPointExtension>
        </extensions>
      </trkpt>
      <trkpt lat="44.17363" lon="5.27881">
        <ele>1802.8</ele>
        <time>2021-06-12T09:52:40Z</time>
        <extensions>
          <gpxtpx:TrackPointExtension xmlns:gpxtpx="http://www.garmin.com/xmlschemas/TrackPointExtension/v1">
            <gpxtpx:hr>117</gpxtpx:hr>
          </gpxtpx:TrackPointExtension>
        </extensions>
      </trkpt>
      <trkpt lat="44.17362" lon="5.27878">
        <ele>1803.2</ele>
        <time>2021-06-12T09:52:46Z</time>
        <extensions>
          <gpxtpx:TrackPointExtension xmlns:gpxtpx="http://www.garmin.com/xmlschemas/TrackPointExtension/v1">
            <gpxtpx:hr>117</gpxtpx:hr>
          </gpxtpx:TrackPointExtension>
        </extensions>
      </trkpt>
      <trkpt lat="44.17362" lon="5.27877">
        <ele>1803.2</ele>
        <time>2021-06-12T09:52:48Z</time>
        <extensions>
          <gpxtpx:TrackPointExtension xmlns:gpxtpx="http://www.garmin.com/xmlschemas/TrackPointExtension/v1">
            <gpxtpx:hr>120</gpxtpx:hr>
          </gpxtpx:TrackPointExtension>
        </extensions>
      </trkpt>
      <trkpt lat="44.17359" lon="5.27872">
        <ele>1803</ele>
        <time>2021-06-12T09:52:53Z</time>
        <extensions>
          <gpxtpx:TrackPointExtension xmlns:gpxtpx="http://www.garmin.com/xmlschemas/TrackPointExtension/v1">
            <gpxtpx:hr>117</gpxtpx:hr>
          </gpxtpx:TrackPointExtension>
        </extensions>
      </trkpt>
      <trkpt lat="44.17355" lon="5.27866">
        <ele>1803</ele>
        <time>2021-06-12T09:52:59Z</time>
        <extensions>
          <gpxtpx:TrackPointExtension xmlns:gpxtpx="http://www.garmin.com/xmlschemas/TrackPointExtension/v1">
            <gpxtpx:hr>116</gpxtpx:hr>
          </gpxtpx:TrackPointExtension>
        </extensions>
      </trkpt>
      <trkpt lat="44.17355" lon="5.27864">
        <ele>1803</ele>
        <time>2021-06-12T09:53:01Z</time>
        <extensions>
          <gpxtpx:TrackPointExtension xmlns:gpxtpx="http://www.garmin.com/xmlschemas/TrackPointExtension/v1">
            <gpxtpx:hr>115</gpxtpx:hr>
          </gpxtpx:TrackPointExtension>
        </extensions>
      </trkpt>
      <trkpt lat="44.17357" lon="5.27859">
        <ele>1803.2</ele>
        <time>2021-06-12T09:53:06Z</time>
        <extensions>
          <gpxtpx:TrackPointExtension xmlns:gpxtpx="http://www.garmin.com/xmlschemas/TrackPointExtension/v1">
            <gpxtpx:hr>114</gpxtpx:hr>
          </gpxtpx:TrackPointExtension>
        </extensions>
      </trkpt>
      <trkpt lat="44.17357" lon="5.27853">
        <ele>1803.2</ele>
        <time>2021-06-12T09:53:10Z</time>
        <extensions>
          <gpxtpx:TrackPointExtension xmlns:gpxtpx="http://www.garmin.com/xmlschemas/TrackPointExtension/v1">
            <gpxtpx:hr>114</gpxtpx:hr>
          </gpxtpx:TrackPointExtension>
        </extensions>
      </trkpt>
      <trkpt lat="44.17356" lon="5.27849">
        <ele>1803.2</ele>
        <time>2021-06-12T09:53:13Z</time>
        <extensions>
          <gpxtpx:TrackPointExtension xmlns:gpxtpx="http://www.garmin.com/xmlschemas/TrackPointExtension/v1">
            <gpxtpx:hr>114</gpxtpx:hr>
          </gpxtpx:TrackPointExtension>
        </extensions>
      </trkpt>
      <trkpt lat="44.17355" lon="5.27847">
        <ele>1803.4</ele>
        <time>2021-06-12T09:53:15Z</time>
        <extensions>
          <gpxtpx:TrackPointExtension xmlns:gpxtpx="http://www.garmin.com/xmlschemas/TrackPointExtension/v1">
            <gpxtpx:hr>113</gpxtpx:hr>
          </gpxtpx:TrackPointExtension>
        </extensions>
      </trkpt>
      <trkpt lat="44.17354" lon="5.27843">
        <ele>1803.4</ele>
        <time>2021-06-12T09:53:18Z</time>
        <extensions>
          <gpxtpx:TrackPointExtension xmlns:gpxtpx="http://www.garmin.com/xmlschemas/TrackPointExtension/v1">
            <gpxtpx:hr>115</gpxtpx:hr>
          </gpxtpx:TrackPointExtension>
        </extensions>
      </trkpt>
      <trkpt lat="44.17353" lon="5.27838">
        <ele>1803.4</ele>
        <time>2021-06-12T09:53:22Z</time>
        <extensions>
          <gpxtpx:TrackPointExtension xmlns:gpxtpx="http://www.garmin.com/xmlschemas/TrackPointExtension/v1">
            <gpxtpx:hr>113</gpxtpx:hr>
          </gpxtpx:TrackPointExtension>
        </extensions>
      </trkpt>
      <trkpt lat="44.17353" lon="5.27837">
        <ele>1803.4</ele>
        <time>2021-06-12T09:53:24Z</time>
        <extensions>
          <gpxtpx:TrackPointExtension xmlns:gpxtpx="http://www.garmin.com/xmlschemas/TrackPointExtension/v1">
            <gpxtpx:hr>112</gpxtpx:hr>
          </gpxtpx:TrackPointExtension>
        </extensions>
      </trkpt>
      <trkpt lat="44.17354" lon="5.27836">
        <ele>1803.2</ele>
        <time>2021-06-12T09:53:25Z</time>
        <extensions>
          <gpxtpx:TrackPointExtension xmlns:gpxtpx="http://www.garmin.com/xmlschemas/TrackPointExtension/v1">
            <gpxtpx:hr>112</gpxtpx:hr>
          </gpxtpx:TrackPointExtension>
        </extensions>
      </trkpt>
      <trkpt lat="44.17355" lon="5.27835">
        <ele>1802.6</ele>
        <time>2021-06-12T10:03:26Z</time>
        <extensions>
          <gpxtpx:TrackPointExtension xmlns:gpxtpx="http://www.garmin.com/xmlschemas/TrackPointExtension/v1">
            <gpxtpx:hr>101</gpxtpx:hr>
          </gpxtpx:TrackPointExtension>
        </extensions>
      </trkpt>
      <trkpt lat="44.17355" lon="5.27836">
        <ele>1802.8</ele>
        <time>2021-06-12T10:03:27Z</time>
        <extensions>
          <gpxtpx:TrackPointExtension xmlns:gpxtpx="http://www.garmin.com/xmlschemas/TrackPointExtension/v1">
            <gpxtpx:hr>101</gpxtpx:hr>
          </gpxtpx:TrackPointExtension>
        </extensions>
      </trkpt>
      <trkpt lat="44.17357" lon="5.2784">
        <ele>1803</ele>
        <time>2021-06-12T10:03:29Z</time>
        <extensions>
          <gpxtpx:TrackPointExtension xmlns:gpxtpx="http://www.garmin.com/xmlschemas/TrackPointExtension/v1">
            <gpxtpx:hr>104</gpxtpx:hr>
          </gpxtpx:TrackPointExtension>
        </extensions>
      </trkpt>
      <trkpt lat="44.17358" lon="5.27843">
        <ele>1803.2</ele>
        <time>2021-06-12T10:03:32Z</time>
        <extensions>
          <gpxtpx:TrackPointExtension xmlns:gpxtpx="http://www.garmin.com/xmlschemas/TrackPointExtension/v1">
            <gpxtpx:hr>107</gpxtpx:hr>
          </gpxtpx:TrackPointExtension>
        </extensions>
      </trkpt>
      <trkpt lat="44.17358" lon="5.2785">
        <ele>1803.2</ele>
        <time>2021-06-12T10:03:36Z</time>
        <extensions>
          <gpxtpx:TrackPointExtension xmlns:gpxtpx="http://www.garmin.com/xmlschemas/TrackPointExtension/v1">
            <gpxtpx:hr>108</gpxtpx:hr>
          </gpxtpx:TrackPointExtension>
        </extensions>
      </trkpt>
      <trkpt lat="44.17357" lon="5.27856">
        <ele>1803.4</ele>
        <time>2021-06-12T10:03:39Z</time>
        <extensions>
          <gpxtpx:TrackPointExtension xmlns:gpxtpx="http://www.garmin.com/xmlschemas/TrackPointExtension/v1">
            <gpxtpx:hr>107</gpxtpx:hr>
          </gpxtpx:TrackPointExtension>
        </extensions>
      </trkpt>
      <trkpt lat="44.17357" lon="5.27862">
        <ele>1803.2</ele>
        <time>2021-06-12T10:03:42Z</time>
        <extensions>
          <gpxtpx:TrackPointExtension xmlns:gpxtpx="http://www.garmin.com/xmlschemas/TrackPointExtension/v1">
            <gpxtpx:hr>110</gpxtpx:hr>
          </gpxtpx:TrackPointExtension>
        </extensions>
      </trkpt>
      <trkpt lat="44.17357" lon="5.27868">
        <ele>1803</ele>
        <time>2021-06-12T10:03:45Z</time>
        <extensions>
          <gpxtpx:TrackPointExtension xmlns:gpxtpx="http://www.garmin.com/xmlschemas/TrackPointExtension/v1">
            <gpxtpx:hr>111</gpxtpx:hr>
          </gpxtpx:TrackPointExtension>
        </extensions>
      </trkpt>
      <trkpt lat="44.17363" lon="5.27878">
        <ele>1802.8</ele>
        <time>2021-06-12T10:03:52Z</time>
        <extensions>
          <gpxtpx:TrackPointExtension xmlns:gpxtpx="http://www.garmin.com/xmlschemas/TrackPointExtension/v1">
            <gpxtpx:hr>111</gpxtpx:hr>
          </gpxtpx:TrackPointExtension>
        </extensions>
      </trkpt>
      <trkpt lat="44.1737" lon="5.27894">
        <ele>1803.4</ele>
        <time>2021-06-12T10:04:00Z</time>
        <extensions>
          <gpxtpx:TrackPointExtension xmlns:gpxtpx="http://www.garmin.com/xmlschemas/TrackPointExtension/v1">
            <gpxtpx:hr>114</gpxtpx:hr>
          </gpxtpx:TrackPointExtension>
        </extensions>
      </trkpt>
      <trkpt lat="44.17372" lon="5.27898">
        <ele>1802</ele>
        <time>2021-06-12T10:04:03Z</time>
        <extensions>
          <gpxtpx:TrackPointExtension xmlns:gpxtpx="http://www.garmin.com/xmlschemas/TrackPointExtension/v1">
            <gpxtpx:hr>116</gpxtpx:hr>
          </gpxtpx:TrackPointExtension>
        </extensions>
      </trkpt>
      <trkpt lat="44.17373" lon="5.279">
        <ele>1801.8</ele>
        <time>2021-06-12T10:04:04Z</time>
        <extensions>
          <gpxtpx:TrackPointExtension xmlns:gpxtpx="http://www.garmin.com/xmlschemas/TrackPointExtension/v1">
            <gpxtpx:hr>116</gpxtpx:hr>
          </gpxtpx:TrackPointExtension>
        </extensions>
      </trkpt>
      <trkpt lat="44.17381" lon="5.27911">
        <ele>1800.4</ele>
        <time>2021-06-12T10:04:13Z</time>
        <extensions>
          <gpxtpx:TrackPointExtension xmlns:gpxtpx="http://www.garmin.com/xmlschemas/TrackPointExtension/v1">
            <gpxtpx:hr>116</gpxtpx:hr>
          </gpxtpx:TrackPointExtension>
        </extensions>
      </trkpt>
      <trkpt lat="44.17387" lon="5.27919">
        <ele>1799.6</ele>
        <time>2021-06-12T10:04:18Z</time>
        <extensions>
          <gpxtpx:TrackPointExtension xmlns:gpxtpx="http://www.garmin.com/xmlschemas/TrackPointExtension/v1">
            <gpxtpx:hr>113</gpxtpx:hr>
          </gpxtpx:TrackPointExtension>
        </extensions>
      </trkpt>
      <trkpt lat="44.17388" lon="5.2792">
        <ele>1799.6</ele>
        <time>2021-06-12T10:04:19Z</time>
        <extensions>
          <gpxtpx:TrackPointExtension xmlns:gpxtpx="http://www.garmin.com/xmlschemas/TrackPointExtension/v1">
            <gpxtpx:hr>112</gpxtpx:hr>
          </gpxtpx:TrackPointExtension>
        </extensions>
      </trkpt>
      <trkpt lat="44.174" lon="5.27932">
        <ele>1799.2</ele>
        <time>2021-06-12T10:04:27Z</time>
        <extensions>
          <gpxtpx:TrackPointExtension xmlns:gpxtpx="http://www.garmin.com/xmlschemas/TrackPointExtension/v1">
            <gpxtpx:hr>108</gpxtpx:hr>
          </gpxtpx:TrackPointExtension>
        </extensions>
      </trkpt>
      <trkpt lat="44.17403" lon="5.27935">
        <ele>1798.4</ele>
        <time>2021-06-12T10:04:29Z</time>
        <extensions>
          <gpxtpx:TrackPointExtension xmlns:gpxtpx="http://www.garmin.com/xmlschemas/TrackPointExtension/v1">
            <gpxtpx:hr>105</gpxtpx:hr>
          </gpxtpx:TrackPointExtension>
        </extensions>
      </trkpt>
      <trkpt lat="44.17405" lon="5.27936">
        <ele>1798</ele>
        <time>2021-06-12T10:04:30Z</time>
        <extensions>
          <gpxtpx:TrackPointExtension xmlns:gpxtpx="http://www.garmin.com/xmlschemas/TrackPointExtension/v1">
            <gpxtpx:hr>105</gpxtpx:hr>
          </gpxtpx:TrackPointExtension>
        </extensions>
      </trkpt>
      <trkpt lat="44.17407" lon="5.27937">
        <ele>1797.6</ele>
        <time>2021-06-12T10:04:32Z</time>
        <extensions>
          <gpxtpx:TrackPointExtension xmlns:gpxtpx="http://www.garmin.com/xmlschemas/TrackPointExtension/v1">
            <gpxtpx:hr>108</gpxtpx:hr>
          </gpxtpx:TrackPointExtension>
        </extensions>
      </trkpt>
      <trkpt lat="44.1741" lon="5.27939">
        <ele>1797</ele>
        <time>2021-06-12T10:04:35Z</time>
        <extensions>
          <gpxtpx:TrackPointExtension xmlns:gpxtpx="http://www.garmin.com/xmlschemas/TrackPointExtension/v1">
            <gpxtpx:hr>108</gpxtpx:hr>
          </gpxtpx:TrackPointExtension>
        </extensions>
      </trkpt>
      <trkpt lat="44.17413" lon="5.27942">
        <ele>1796.6</ele>
        <time>2021-06-12T10:04:39Z</time>
        <extensions>
          <gpxtpx:TrackPointExtension xmlns:gpxtpx="http://www.garmin.com/xmlschemas/TrackPointExtension/v1">
            <gpxtpx:hr>109</gpxtpx:hr>
          </gpxtpx:TrackPointExtension>
        </extensions>
      </trkpt>
      <trkpt lat="44.17415" lon="5.27944">
        <ele>1796</ele>
        <time>2021-06-12T10:04:41Z</time>
        <extensions>
          <gpxtpx:TrackPointExtension xmlns:gpxtpx="http://www.garmin.com/xmlschemas/TrackPointExtension/v1">
            <gpxtpx:hr>112</gpxtpx:hr>
          </gpxtpx:TrackPointExtension>
        </extensions>
      </trkpt>
      <trkpt lat="44.17422" lon="5.2795">
        <ele>1795.6</ele>
        <time>2021-06-12T10:04:46Z</time>
        <extensions>
          <gpxtpx:TrackPointExtension xmlns:gpxtpx="http://www.garmin.com/xmlschemas/TrackPointExtension/v1">
            <gpxtpx:hr>109</gpxtpx:hr>
          </gpxtpx:TrackPointExtension>
        </extensions>
      </trkpt>
      <trkpt lat="44.1743" lon="5.27962">
        <ele>1795.4</ele>
        <time>2021-06-12T10:04:53Z</time>
        <extensions>
          <gpxtpx:TrackPointExtension xmlns:gpxtpx="http://www.garmin.com/xmlschemas/TrackPointExtension/v1">
            <gpxtpx:hr>113</gpxtpx:hr>
          </gpxtpx:TrackPointExtension>
        </extensions>
      </trkpt>
      <trkpt lat="44.17434" lon="5.27966">
        <ele>1794.8</ele>
        <time>2021-06-12T10:04:56Z</time>
        <extensions>
          <gpxtpx:TrackPointExtension xmlns:gpxtpx="http://www.garmin.com/xmlschemas/TrackPointExtension/v1">
            <gpxtpx:hr>115</gpxtpx:hr>
          </gpxtpx:TrackPointExtension>
        </extensions>
      </trkpt>
      <trkpt lat="44.17438" lon="5.27969">
        <ele>1794.2</ele>
        <time>2021-06-12T10:04:58Z</time>
        <extensions>
          <gpxtpx:TrackPointExtension xmlns:gpxtpx="http://www.garmin.com/xmlschemas/TrackPointExtension/v1">
            <gpxtpx:hr>115</gpxtpx:hr>
          </gpxtpx:TrackPointExtension>
        </extensions>
      </trkpt>
      <trkpt lat="44.17438" lon="5.27971">
        <ele>1793.8</ele>
        <time>2021-06-12T10:04:59Z</time>
        <extensions>
          <gpxtpx:TrackPointExtension xmlns:gpxtpx="http://www.garmin.com/xmlschemas/TrackPointExtension/v1">
            <gpxtpx:hr>115</gpxtpx:hr>
          </gpxtpx:TrackPointExtension>
        </extensions>
      </trkpt>
      <trkpt lat="44.17442" lon="5.2798">
        <ele>1792.6</ele>
        <time>2021-06-12T10:05:03Z</time>
        <extensions>
          <gpxtpx:TrackPointExtension xmlns:gpxtpx="http://www.garmin.com/xmlschemas/TrackPointExtension/v1">
            <gpxtpx:hr>112</gpxtpx:hr>
          </gpxtpx:TrackPointExtension>
        </extensions>
      </trkpt>
      <trkpt lat="44.17446" lon="5.27987">
        <ele>1791.8</ele>
        <time>2021-06-12T10:05:07Z</time>
        <extensions>
          <gpxtpx:TrackPointExtension xmlns:gpxtpx="http://www.garmin.com/xmlschemas/TrackPointExtension/v1">
            <gpxtpx:hr>115</gpxtpx:hr>
          </gpxtpx:TrackPointExtension>
        </extensions>
      </trkpt>
      <trkpt lat="44.17447" lon="5.27989">
        <ele>1791.4</ele>
        <time>2021-06-12T10:05:08Z</time>
        <extensions>
          <gpxtpx:TrackPointExtension xmlns:gpxtpx="http://www.garmin.com/xmlschemas/TrackPointExtension/v1">
            <gpxtpx:hr>115</gpxtpx:hr>
          </gpxtpx:TrackPointExtension>
        </extensions>
      </trkpt>
      <trkpt lat="44.17448" lon="5.27995">
        <ele>1790.4</ele>
        <time>2021-06-12T10:05:11Z</time>
        <extensions>
          <gpxtpx:TrackPointExtension xmlns:gpxtpx="http://www.garmin.com/xmlschemas/TrackPointExtension/v1">
            <gpxtpx:hr>116</gpxtpx:hr>
          </gpxtpx:TrackPointExtension>
        </extensions>
      </trkpt>
      <trkpt lat="44.17448" lon="5.27999">
        <ele>1789.4</ele>
        <time>2021-06-12T10:05:14Z</time>
        <extensions>
          <gpxtpx:TrackPointExtension xmlns:gpxtpx="http://www.garmin.com/xmlschemas/TrackPointExtension/v1">
            <gpxtpx:hr>115</gpxtpx:hr>
          </gpxtpx:TrackPointExtension>
        </extensions>
      </trkpt>
      <trkpt lat="44.17449" lon="5.28004">
        <ele>1788.2</ele>
        <time>2021-06-12T10:05:17Z</time>
        <extensions>
          <gpxtpx:TrackPointExtension xmlns:gpxtpx="http://www.garmin.com/xmlschemas/TrackPointExtension/v1">
            <gpxtpx:hr>115</gpxtpx:hr>
          </gpxtpx:TrackPointExtension>
        </extensions>
      </trkpt>
      <trkpt lat="44.17449" lon="5.28007">
        <ele>1787.4</ele>
        <time>2021-06-12T10:05:19Z</time>
        <extensions>
          <gpxtpx:TrackPointExtension xmlns:gpxtpx="http://www.garmin.com/xmlschemas/TrackPointExtension/v1">
            <gpxtpx:hr>115</gpxtpx:hr>
          </gpxtpx:TrackPointExtension>
        </extensions>
      </trkpt>
      <trkpt lat="44.17449" lon="5.28012">
        <ele>1787</ele>
        <time>2021-06-12T10:05:21Z</time>
        <extensions>
          <gpxtpx:TrackPointExtension xmlns:gpxtpx="http://www.garmin.com/xmlschemas/TrackPointExtension/v1">
            <gpxtpx:hr>115</gpxtpx:hr>
          </gpxtpx:TrackPointExtension>
        </extensions>
      </trkpt>
      <trkpt lat="44.1745" lon="5.28013">
        <ele>1786.8</ele>
        <time>2021-06-12T10:05:22Z</time>
        <extensions>
          <gpxtpx:TrackPointExtension xmlns:gpxtpx="http://www.garmin.com/xmlschemas/TrackPointExtension/v1">
            <gpxtpx:hr>115</gpxtpx:hr>
          </gpxtpx:TrackPointExtension>
        </extensions>
      </trkpt>
      <trkpt lat="44.17452" lon="5.28017">
        <ele>1785.8</ele>
        <time>2021-06-12T10:05:25Z</time>
        <extensions>
          <gpxtpx:TrackPointExtension xmlns:gpxtpx="http://www.garmin.com/xmlschemas/TrackPointExtension/v1">
            <gpxtpx:hr>115</gpxtpx:hr>
          </gpxtpx:TrackPointExtension>
        </extensions>
      </trkpt>
      <trkpt lat="44.17452" lon="5.28019">
        <ele>1785.6</ele>
        <time>2021-06-12T10:05:26Z</time>
        <extensions>
          <gpxtpx:TrackPointExtension xmlns:gpxtpx="http://www.garmin.com/xmlschemas/TrackPointExtension/v1">
            <gpxtpx:hr>115</gpxtpx:hr>
          </gpxtpx:TrackPointExtension>
        </extensions>
      </trkpt>
      <trkpt lat="44.17452" lon="5.2802">
        <ele>1785.4</ele>
        <time>2021-06-12T10:05:27Z</time>
        <extensions>
          <gpxtpx:TrackPointExtension xmlns:gpxtpx="http://www.garmin.com/xmlschemas/TrackPointExtension/v1">
            <gpxtpx:hr>113</gpxtpx:hr>
          </gpxtpx:TrackPointExtension>
        </extensions>
      </trkpt>
      <trkpt lat="44.17453" lon="5.28026">
        <ele>1784.8</ele>
        <time>2021-06-12T10:05:30Z</time>
        <extensions>
          <gpxtpx:TrackPointExtension xmlns:gpxtpx="http://www.garmin.com/xmlschemas/TrackPointExtension/v1">
            <gpxtpx:hr>112</gpxtpx:hr>
          </gpxtpx:TrackPointExtension>
        </extensions>
      </trkpt>
      <trkpt lat="44.17454" lon="5.2803">
        <ele>1784.4</ele>
        <time>2021-06-12T10:05:32Z</time>
        <extensions>
          <gpxtpx:TrackPointExtension xmlns:gpxtpx="http://www.garmin.com/xmlschemas/TrackPointExtension/v1">
            <gpxtpx:hr>112</gpxtpx:hr>
          </gpxtpx:TrackPointExtension>
        </extensions>
      </trkpt>
      <trkpt lat="44.17457" lon="5.28039">
        <ele>1783.8</ele>
        <time>2021-06-12T10:05:38Z</time>
        <extensions>
          <gpxtpx:TrackPointExtension xmlns:gpxtpx="http://www.garmin.com/xmlschemas/TrackPointExtension/v1">
            <gpxtpx:hr>113</gpxtpx:hr>
          </gpxtpx:TrackPointExtension>
        </extensions>
      </trkpt>
      <trkpt lat="44.17458" lon="5.28042">
        <ele>1783.6</ele>
        <time>2021-06-12T10:05:40Z</time>
        <extensions>
          <gpxtpx:TrackPointExtension xmlns:gpxtpx="http://www.garmin.com/xmlschemas/TrackPointExtension/v1">
            <gpxtpx:hr>114</gpxtpx:hr>
          </gpxtpx:TrackPointExtension>
        </extensions>
      </trkpt>
      <trkpt lat="44.17466" lon="5.28066">
        <ele>1783.2</ele>
        <time>2021-06-12T10:05:52Z</time>
        <extensions>
          <gpxtpx:TrackPointExtension xmlns:gpxtpx="http://www.garmin.com/xmlschemas/TrackPointExtension/v1">
            <gpxtpx:hr>115</gpxtpx:hr>
          </gpxtpx:TrackPointExtension>
        </extensions>
      </trkpt>
      <trkpt lat="44.17467" lon="5.2807">
        <ele>1782.8</ele>
        <time>2021-06-12T10:05:54Z</time>
        <extensions>
          <gpxtpx:TrackPointExtension xmlns:gpxtpx="http://www.garmin.com/xmlschemas/TrackPointExtension/v1">
            <gpxtpx:hr>115</gpxtpx:hr>
          </gpxtpx:TrackPointExtension>
        </extensions>
      </trkpt>
      <trkpt lat="44.17471" lon="5.28079">
        <ele>1781.8</ele>
        <time>2021-06-12T10:05:59Z</time>
        <extensions>
          <gpxtpx:TrackPointExtension xmlns:gpxtpx="http://www.garmin.com/xmlschemas/TrackPointExtension/v1">
            <gpxtpx:hr>114</gpxtpx:hr>
          </gpxtpx:TrackPointExtension>
        </extensions>
      </trkpt>
      <trkpt lat="44.17471" lon="5.28081">
        <ele>1781.6</ele>
        <time>2021-06-12T10:06:00Z</time>
        <extensions>
          <gpxtpx:TrackPointExtension xmlns:gpxtpx="http://www.garmin.com/xmlschemas/TrackPointExtension/v1">
            <gpxtpx:hr>115</gpxtpx:hr>
          </gpxtpx:TrackPointExtension>
        </extensions>
      </trkpt>
      <trkpt lat="44.17471" lon="5.28084">
        <ele>1781.4</ele>
        <time>2021-06-12T10:06:01Z</time>
        <extensions>
          <gpxtpx:TrackPointExtension xmlns:gpxtpx="http://www.garmin.com/xmlschemas/TrackPointExtension/v1">
            <gpxtpx:hr>115</gpxtpx:hr>
          </gpxtpx:TrackPointExtension>
        </extensions>
      </trkpt>
      <trkpt lat="44.17471" lon="5.2809">
        <ele>1780.6</ele>
        <time>2021-06-12T10:06:04Z</time>
        <extensions>
          <gpxtpx:TrackPointExtension xmlns:gpxtpx="http://www.garmin.com/xmlschemas/TrackPointExtension/v1">
            <gpxtpx:hr>116</gpxtpx:hr>
          </gpxtpx:TrackPointExtension>
        </extensions>
      </trkpt>
      <trkpt lat="44.1747" lon="5.28104">
        <ele>1779.4</ele>
        <time>2021-06-12T10:06:10Z</time>
        <extensions>
          <gpxtpx:TrackPointExtension xmlns:gpxtpx="http://www.garmin.com/xmlschemas/TrackPointExtension/v1">
            <gpxtpx:hr>115</gpxtpx:hr>
          </gpxtpx:TrackPointExtension>
        </extensions>
      </trkpt>
      <trkpt lat="44.17469" lon="5.2811">
        <ele>1778.4</ele>
        <time>2021-06-12T10:06:13Z</time>
        <extensions>
          <gpxtpx:TrackPointExtension xmlns:gpxtpx="http://www.garmin.com/xmlschemas/TrackPointExtension/v1">
            <gpxtpx:hr>116</gpxtpx:hr>
          </gpxtpx:TrackPointExtension>
        </extensions>
      </trkpt>
      <trkpt lat="44.17469" lon="5.28119">
        <ele>1777.2</ele>
        <time>2021-06-12T10:06:17Z</time>
        <extensions>
          <gpxtpx:TrackPointExtension xmlns:gpxtpx="http://www.garmin.com/xmlschemas/TrackPointExtension/v1">
            <gpxtpx:hr>115</gpxtpx:hr>
          </gpxtpx:TrackPointExtension>
        </extensions>
      </trkpt>
      <trkpt lat="44.17467" lon="5.28132">
        <ele>1776.2</ele>
        <time>2021-06-12T10:06:24Z</time>
        <extensions>
          <gpxtpx:TrackPointExtension xmlns:gpxtpx="http://www.garmin.com/xmlschemas/TrackPointExtension/v1">
            <gpxtpx:hr>117</gpxtpx:hr>
          </gpxtpx:TrackPointExtension>
        </extensions>
      </trkpt>
      <trkpt lat="44.17466" lon="5.28136">
        <ele>1775.6</ele>
        <time>2021-06-12T10:06:26Z</time>
        <extensions>
          <gpxtpx:TrackPointExtension xmlns:gpxtpx="http://www.garmin.com/xmlschemas/TrackPointExtension/v1">
            <gpxtpx:hr>114</gpxtpx:hr>
          </gpxtpx:TrackPointExtension>
        </extensions>
      </trkpt>
      <trkpt lat="44.17465" lon="5.2814">
        <ele>1775</ele>
        <time>2021-06-12T10:06:28Z</time>
        <extensions>
          <gpxtpx:TrackPointExtension xmlns:gpxtpx="http://www.garmin.com/xmlschemas/TrackPointExtension/v1">
            <gpxtpx:hr>112</gpxtpx:hr>
          </gpxtpx:TrackPointExtension>
        </extensions>
      </trkpt>
      <trkpt lat="44.17464" lon="5.28152">
        <ele>1773.8</ele>
        <time>2021-06-12T10:06:32Z</time>
        <extensions>
          <gpxtpx:TrackPointExtension xmlns:gpxtpx="http://www.garmin.com/xmlschemas/TrackPointExtension/v1">
            <gpxtpx:hr>113</gpxtpx:hr>
          </gpxtpx:TrackPointExtension>
        </extensions>
      </trkpt>
      <trkpt lat="44.17463" lon="5.28159">
        <ele>1772.8</ele>
        <time>2021-06-12T10:06:36Z</time>
        <extensions>
          <gpxtpx:TrackPointExtension xmlns:gpxtpx="http://www.garmin.com/xmlschemas/TrackPointExtension/v1">
            <gpxtpx:hr>115</gpxtpx:hr>
          </gpxtpx:TrackPointExtension>
        </extensions>
      </trkpt>
      <trkpt lat="44.17462" lon="5.28165">
        <ele>1771.6</ele>
        <time>2021-06-12T10:06:40Z</time>
        <extensions>
          <gpxtpx:TrackPointExtension xmlns:gpxtpx="http://www.garmin.com/xmlschemas/TrackPointExtension/v1">
            <gpxtpx:hr>117</gpxtpx:hr>
          </gpxtpx:TrackPointExtension>
        </extensions>
      </trkpt>
      <trkpt lat="44.17461" lon="5.28172">
        <ele>1770.6</ele>
        <time>2021-06-12T10:06:44Z</time>
        <extensions>
          <gpxtpx:TrackPointExtension xmlns:gpxtpx="http://www.garmin.com/xmlschemas/TrackPointExtension/v1">
            <gpxtpx:hr>116</gpxtpx:hr>
          </gpxtpx:TrackPointExtension>
        </extensions>
      </trkpt>
      <trkpt lat="44.17459" lon="5.28179">
        <ele>1769.2</ele>
        <time>2021-06-12T10:06:48Z</time>
        <extensions>
          <gpxtpx:TrackPointExtension xmlns:gpxtpx="http://www.garmin.com/xmlschemas/TrackPointExtension/v1">
            <gpxtpx:hr>116</gpxtpx:hr>
          </gpxtpx:TrackPointExtension>
        </extensions>
      </trkpt>
      <trkpt lat="44.17458" lon="5.28181">
        <ele>1769</ele>
        <time>2021-06-12T10:06:49Z</time>
        <extensions>
          <gpxtpx:TrackPointExtension xmlns:gpxtpx="http://www.garmin.com/xmlschemas/TrackPointExtension/v1">
            <gpxtpx:hr>116</gpxtpx:hr>
          </gpxtpx:TrackPointExtension>
        </extensions>
      </trkpt>
      <trkpt lat="44.17458" lon="5.28188">
        <ele>1768</ele>
        <time>2021-06-12T10:06:53Z</time>
        <extensions>
          <gpxtpx:TrackPointExtension xmlns:gpxtpx="http://www.garmin.com/xmlschemas/TrackPointExtension/v1">
            <gpxtpx:hr>115</gpxtpx:hr>
          </gpxtpx:TrackPointExtension>
        </extensions>
      </trkpt>
      <trkpt lat="44.17457" lon="5.28195">
        <ele>1766.8</ele>
        <time>2021-06-12T10:06:56Z</time>
        <extensions>
          <gpxtpx:TrackPointExtension xmlns:gpxtpx="http://www.garmin.com/xmlschemas/TrackPointExtension/v1">
            <gpxtpx:hr>117</gpxtpx:hr>
          </gpxtpx:TrackPointExtension>
        </extensions>
      </trkpt>
      <trkpt lat="44.17454" lon="5.28205">
        <ele>1765.8</ele>
        <time>2021-06-12T10:07:01Z</time>
        <extensions>
          <gpxtpx:TrackPointExtension xmlns:gpxtpx="http://www.garmin.com/xmlschemas/TrackPointExtension/v1">
            <gpxtpx:hr>116</gpxtpx:hr>
          </gpxtpx:TrackPointExtension>
        </extensions>
      </trkpt>
      <trkpt lat="44.17452" lon="5.28212">
        <ele>1764.8</ele>
        <time>2021-06-12T10:07:05Z</time>
        <extensions>
          <gpxtpx:TrackPointExtension xmlns:gpxtpx="http://www.garmin.com/xmlschemas/TrackPointExtension/v1">
            <gpxtpx:hr>113</gpxtpx:hr>
          </gpxtpx:TrackPointExtension>
        </extensions>
      </trkpt>
      <trkpt lat="44.17452" lon="5.28213">
        <ele>1764.6</ele>
        <time>2021-06-12T10:07:06Z</time>
        <extensions>
          <gpxtpx:TrackPointExtension xmlns:gpxtpx="http://www.garmin.com/xmlschemas/TrackPointExtension/v1">
            <gpxtpx:hr>114</gpxtpx:hr>
          </gpxtpx:TrackPointExtension>
        </extensions>
      </trkpt>
      <trkpt lat="44.1745" lon="5.28219">
        <ele>1763.6</ele>
        <time>2021-06-12T10:07:10Z</time>
        <extensions>
          <gpxtpx:TrackPointExtension xmlns:gpxtpx="http://www.garmin.com/xmlschemas/TrackPointExtension/v1">
            <gpxtpx:hr>115</gpxtpx:hr>
          </gpxtpx:TrackPointExtension>
        </extensions>
      </trkpt>
      <trkpt lat="44.17449" lon="5.28227">
        <ele>1762.4</ele>
        <time>2021-06-12T10:07:15Z</time>
        <extensions>
          <gpxtpx:TrackPointExtension xmlns:gpxtpx="http://www.garmin.com/xmlschemas/TrackPointExtension/v1">
            <gpxtpx:hr>114</gpxtpx:hr>
          </gpxtpx:TrackPointExtension>
        </extensions>
      </trkpt>
      <trkpt lat="44.17448" lon="5.28232">
        <ele>1761</ele>
        <time>2021-06-12T10:07:18Z</time>
        <extensions>
          <gpxtpx:TrackPointExtension xmlns:gpxtpx="http://www.garmin.com/xmlschemas/TrackPointExtension/v1">
            <gpxtpx:hr>115</gpxtpx:hr>
          </gpxtpx:TrackPointExtension>
        </extensions>
      </trkpt>
      <trkpt lat="44.17447" lon="5.28238">
        <ele>1760</ele>
        <time>2021-06-12T10:07:23Z</time>
        <extensions>
          <gpxtpx:TrackPointExtension xmlns:gpxtpx="http://www.garmin.com/xmlschemas/TrackPointExtension/v1">
            <gpxtpx:hr>116</gpxtpx:hr>
          </gpxtpx:TrackPointExtension>
        </extensions>
      </trkpt>
      <trkpt lat="44.17446" lon="5.28241">
        <ele>1759</ele>
        <time>2021-06-12T10:07:26Z</time>
        <extensions>
          <gpxtpx:TrackPointExtension xmlns:gpxtpx="http://www.garmin.com/xmlschemas/TrackPointExtension/v1">
            <gpxtpx:hr>113</gpxtpx:hr>
          </gpxtpx:TrackPointExtension>
        </extensions>
      </trkpt>
      <trkpt lat="44.17446" lon="5.28243">
        <ele>1758.6</ele>
        <time>2021-06-12T10:07:27Z</time>
        <extensions>
          <gpxtpx:TrackPointExtension xmlns:gpxtpx="http://www.garmin.com/xmlschemas/TrackPointExtension/v1">
            <gpxtpx:hr>111</gpxtpx:hr>
          </gpxtpx:TrackPointExtension>
        </extensions>
      </trkpt>
      <trkpt lat="44.17446" lon="5.28248">
        <ele>1757.8</ele>
        <time>2021-06-12T10:07:30Z</time>
        <extensions>
          <gpxtpx:TrackPointExtension xmlns:gpxtpx="http://www.garmin.com/xmlschemas/TrackPointExtension/v1">
            <gpxtpx:hr>109</gpxtpx:hr>
          </gpxtpx:TrackPointExtension>
        </extensions>
      </trkpt>
      <trkpt lat="44.17446" lon="5.28249">
        <ele>1757.6</ele>
        <time>2021-06-12T10:07:31Z</time>
        <extensions>
          <gpxtpx:TrackPointExtension xmlns:gpxtpx="http://www.garmin.com/xmlschemas/TrackPointExtension/v1">
            <gpxtpx:hr>110</gpxtpx:hr>
          </gpxtpx:TrackPointExtension>
        </extensions>
      </trkpt>
      <trkpt lat="44.17445" lon="5.28254">
        <ele>1756.6</ele>
        <time>2021-06-12T10:07:35Z</time>
        <extensions>
          <gpxtpx:TrackPointExtension xmlns:gpxtpx="http://www.garmin.com/xmlschemas/TrackPointExtension/v1">
            <gpxtpx:hr>110</gpxtpx:hr>
          </gpxtpx:TrackPointExtension>
        </extensions>
      </trkpt>
      <trkpt lat="44.17444" lon="5.28255">
        <ele>1756</ele>
        <time>2021-06-12T10:07:37Z</time>
        <extensions>
          <gpxtpx:TrackPointExtension xmlns:gpxtpx="http://www.garmin.com/xmlschemas/TrackPointExtension/v1">
            <gpxtpx:hr>110</gpxtpx:hr>
          </gpxtpx:TrackPointExtension>
        </extensions>
      </trkpt>
      <trkpt lat="44.17445" lon="5.28257">
        <ele>1755.4</ele>
        <time>2021-06-12T10:07:39Z</time>
        <extensions>
          <gpxtpx:TrackPointExtension xmlns:gpxtpx="http://www.garmin.com/xmlschemas/TrackPointExtension/v1">
            <gpxtpx:hr>112</gpxtpx:hr>
          </gpxtpx:TrackPointExtension>
        </extensions>
      </trkpt>
      <trkpt lat="44.17443" lon="5.2826">
        <ele>1755</ele>
        <time>2021-06-12T10:07:41Z</time>
        <extensions>
          <gpxtpx:TrackPointExtension xmlns:gpxtpx="http://www.garmin.com/xmlschemas/TrackPointExtension/v1">
            <gpxtpx:hr>111</gpxtpx:hr>
          </gpxtpx:TrackPointExtension>
        </extensions>
      </trkpt>
      <trkpt lat="44.17442" lon="5.28263">
        <ele>1754.2</ele>
        <time>2021-06-12T10:07:45Z</time>
        <extensions>
          <gpxtpx:TrackPointExtension xmlns:gpxtpx="http://www.garmin.com/xmlschemas/TrackPointExtension/v1">
            <gpxtpx:hr>111</gpxtpx:hr>
          </gpxtpx:TrackPointExtension>
        </extensions>
      </trkpt>
      <trkpt lat="44.1744" lon="5.28267">
        <ele>1753.2</ele>
        <time>2021-06-12T10:07:50Z</time>
        <extensions>
          <gpxtpx:TrackPointExtension xmlns:gpxtpx="http://www.garmin.com/xmlschemas/TrackPointExtension/v1">
            <gpxtpx:hr>111</gpxtpx:hr>
          </gpxtpx:TrackPointExtension>
        </extensions>
      </trkpt>
      <trkpt lat="44.1744" lon="5.28268">
        <ele>1753</ele>
        <time>2021-06-12T10:07:52Z</time>
        <extensions>
          <gpxtpx:TrackPointExtension xmlns:gpxtpx="http://www.garmin.com/xmlschemas/TrackPointExtension/v1">
            <gpxtpx:hr>108</gpxtpx:hr>
          </gpxtpx:TrackPointExtension>
        </extensions>
      </trkpt>
      <trkpt lat="44.1744" lon="5.2827">
        <ele>1752.8</ele>
        <time>2021-06-12T10:07:55Z</time>
        <extensions>
          <gpxtpx:TrackPointExtension xmlns:gpxtpx="http://www.garmin.com/xmlschemas/TrackPointExtension/v1">
            <gpxtpx:hr>108</gpxtpx:hr>
          </gpxtpx:TrackPointExtension>
        </extensions>
      </trkpt>
      <trkpt lat="44.1744" lon="5.28271">
        <ele>1752.8</ele>
        <time>2021-06-12T10:07:56Z</time>
        <extensions>
          <gpxtpx:TrackPointExtension xmlns:gpxtpx="http://www.garmin.com/xmlschemas/TrackPointExtension/v1">
            <gpxtpx:hr>109</gpxtpx:hr>
          </gpxtpx:TrackPointExtension>
        </extensions>
      </trkpt>
      <trkpt lat="44.17439" lon="5.28274">
        <ele>1752</ele>
        <time>2021-06-12T10:07:59Z</time>
        <extensions>
          <gpxtpx:TrackPointExtension xmlns:gpxtpx="http://www.garmin.com/xmlschemas/TrackPointExtension/v1">
            <gpxtpx:hr>109</gpxtpx:hr>
          </gpxtpx:TrackPointExtension>
        </extensions>
      </trkpt>
      <trkpt lat="44.1744" lon="5.28278">
        <ele>1751</ele>
        <time>2021-06-12T10:08:04Z</time>
        <extensions>
          <gpxtpx:TrackPointExtension xmlns:gpxtpx="http://www.garmin.com/xmlschemas/TrackPointExtension/v1">
            <gpxtpx:hr>109</gpxtpx:hr>
          </gpxtpx:TrackPointExtension>
        </extensions>
      </trkpt>
      <trkpt lat="44.1744" lon="5.28279">
        <ele>1751</ele>
        <time>2021-06-12T10:08:05Z</time>
        <extensions>
          <gpxtpx:TrackPointExtension xmlns:gpxtpx="http://www.garmin.com/xmlschemas/TrackPointExtension/v1">
            <gpxtpx:hr>110</gpxtpx:hr>
          </gpxtpx:TrackPointExtension>
        </extensions>
      </trkpt>
      <trkpt lat="44.17439" lon="5.28282">
        <ele>1750.6</ele>
        <time>2021-06-12T10:08:07Z</time>
        <extensions>
          <gpxtpx:TrackPointExtension xmlns:gpxtpx="http://www.garmin.com/xmlschemas/TrackPointExtension/v1">
            <gpxtpx:hr>112</gpxtpx:hr>
          </gpxtpx:TrackPointExtension>
        </extensions>
      </trkpt>
      <trkpt lat="44.17439" lon="5.28283">
        <ele>1750.2</ele>
        <time>2021-06-12T10:08:08Z</time>
        <extensions>
          <gpxtpx:TrackPointExtension xmlns:gpxtpx="http://www.garmin.com/xmlschemas/TrackPointExtension/v1">
            <gpxtpx:hr>113</gpxtpx:hr>
          </gpxtpx:TrackPointExtension>
        </extensions>
      </trkpt>
      <trkpt lat="44.17439" lon="5.28285">
        <ele>1749.8</ele>
        <time>2021-06-12T10:08:09Z</time>
        <extensions>
          <gpxtpx:TrackPointExtension xmlns:gpxtpx="http://www.garmin.com/xmlschemas/TrackPointExtension/v1">
            <gpxtpx:hr>113</gpxtpx:hr>
          </gpxtpx:TrackPointExtension>
        </extensions>
      </trkpt>
      <trkpt lat="44.17438" lon="5.28286">
        <ele>1749.6</ele>
        <time>2021-06-12T10:08:10Z</time>
        <extensions>
          <gpxtpx:TrackPointExtension xmlns:gpxtpx="http://www.garmin.com/xmlschemas/TrackPointExtension/v1">
            <gpxtpx:hr>112</gpxtpx:hr>
          </gpxtpx:TrackPointExtension>
        </extensions>
      </trkpt>
      <trkpt lat="44.17438" lon="5.28287">
        <ele>1749.4</ele>
        <time>2021-06-12T10:08:11Z</time>
        <extensions>
          <gpxtpx:TrackPointExtension xmlns:gpxtpx="http://www.garmin.com/xmlschemas/TrackPointExtension/v1">
            <gpxtpx:hr>112</gpxtpx:hr>
          </gpxtpx:TrackPointExtension>
        </extensions>
      </trkpt>
      <trkpt lat="44.17437" lon="5.28292">
        <ele>1748.8</ele>
        <time>2021-06-12T10:08:15Z</time>
        <extensions>
          <gpxtpx:TrackPointExtension xmlns:gpxtpx="http://www.garmin.com/xmlschemas/TrackPointExtension/v1">
            <gpxtpx:hr>115</gpxtpx:hr>
          </gpxtpx:TrackPointExtension>
        </extensions>
      </trkpt>
      <trkpt lat="44.17436" lon="5.283">
        <ele>1747.8</ele>
        <time>2021-06-12T10:08:20Z</time>
        <extensions>
          <gpxtpx:TrackPointExtension xmlns:gpxtpx="http://www.garmin.com/xmlschemas/TrackPointExtension/v1">
            <gpxtpx:hr>112</gpxtpx:hr>
          </gpxtpx:TrackPointExtension>
        </extensions>
      </trkpt>
      <trkpt lat="44.17436" lon="5.28301">
        <ele>1747.6</ele>
        <time>2021-06-12T10:08:21Z</time>
        <extensions>
          <gpxtpx:TrackPointExtension xmlns:gpxtpx="http://www.garmin.com/xmlschemas/TrackPointExtension/v1">
            <gpxtpx:hr>111</gpxtpx:hr>
          </gpxtpx:TrackPointExtension>
        </extensions>
      </trkpt>
      <trkpt lat="44.17435" lon="5.28303">
        <ele>1747.4</ele>
        <time>2021-06-12T10:08:22Z</time>
        <extensions>
          <gpxtpx:TrackPointExtension xmlns:gpxtpx="http://www.garmin.com/xmlschemas/TrackPointExtension/v1">
            <gpxtpx:hr>111</gpxtpx:hr>
          </gpxtpx:TrackPointExtension>
        </extensions>
      </trkpt>
      <trkpt lat="44.17434" lon="5.28309">
        <ele>1746.6</ele>
        <time>2021-06-12T10:08:26Z</time>
        <extensions>
          <gpxtpx:TrackPointExtension xmlns:gpxtpx="http://www.garmin.com/xmlschemas/TrackPointExtension/v1">
            <gpxtpx:hr>113</gpxtpx:hr>
          </gpxtpx:TrackPointExtension>
        </extensions>
      </trkpt>
      <trkpt lat="44.17434" lon="5.28311">
        <ele>1746.2</ele>
        <time>2021-06-12T10:08:27Z</time>
        <extensions>
          <gpxtpx:TrackPointExtension xmlns:gpxtpx="http://www.garmin.com/xmlschemas/TrackPointExtension/v1">
            <gpxtpx:hr>112</gpxtpx:hr>
          </gpxtpx:TrackPointExtension>
        </extensions>
      </trkpt>
      <trkpt lat="44.17434" lon="5.28314">
        <ele>1745.8</ele>
        <time>2021-06-12T10:08:29Z</time>
        <extensions>
          <gpxtpx:TrackPointExtension xmlns:gpxtpx="http://www.garmin.com/xmlschemas/TrackPointExtension/v1">
            <gpxtpx:hr>109</gpxtpx:hr>
          </gpxtpx:TrackPointExtension>
        </extensions>
      </trkpt>
      <trkpt lat="44.17434" lon="5.28315">
        <ele>1745.6</ele>
        <time>2021-06-12T10:08:30Z</time>
        <extensions>
          <gpxtpx:TrackPointExtension xmlns:gpxtpx="http://www.garmin.com/xmlschemas/TrackPointExtension/v1">
            <gpxtpx:hr>107</gpxtpx:hr>
          </gpxtpx:TrackPointExtension>
        </extensions>
      </trkpt>
      <trkpt lat="44.17434" lon="5.28316">
        <ele>1745.4</ele>
        <time>2021-06-12T10:08:31Z</time>
        <extensions>
          <gpxtpx:TrackPointExtension xmlns:gpxtpx="http://www.garmin.com/xmlschemas/TrackPointExtension/v1">
            <gpxtpx:hr>107</gpxtpx:hr>
          </gpxtpx:TrackPointExtension>
        </extensions>
      </trkpt>
      <trkpt lat="44.17434" lon="5.28318">
        <ele>1745.2</ele>
        <time>2021-06-12T10:08:32Z</time>
        <extensions>
          <gpxtpx:TrackPointExtension xmlns:gpxtpx="http://www.garmin.com/xmlschemas/TrackPointExtension/v1">
            <gpxtpx:hr>107</gpxtpx:hr>
          </gpxtpx:TrackPointExtension>
        </extensions>
      </trkpt>
      <trkpt lat="44.17433" lon="5.28322">
        <ele>1744.2</ele>
        <time>2021-06-12T10:08:35Z</time>
        <extensions>
          <gpxtpx:TrackPointExtension xmlns:gpxtpx="http://www.garmin.com/xmlschemas/TrackPointExtension/v1">
            <gpxtpx:hr>110</gpxtpx:hr>
          </gpxtpx:TrackPointExtension>
        </extensions>
      </trkpt>
      <trkpt lat="44.17433" lon="5.28329">
        <ele>1743</ele>
        <time>2021-06-12T10:08:40Z</time>
        <extensions>
          <gpxtpx:TrackPointExtension xmlns:gpxtpx="http://www.garmin.com/xmlschemas/TrackPointExtension/v1">
            <gpxtpx:hr>109</gpxtpx:hr>
          </gpxtpx:TrackPointExtension>
        </extensions>
      </trkpt>
      <trkpt lat="44.17432" lon="5.28335">
        <ele>1742.2</ele>
        <time>2021-06-12T10:08:45Z</time>
        <extensions>
          <gpxtpx:TrackPointExtension xmlns:gpxtpx="http://www.garmin.com/xmlschemas/TrackPointExtension/v1">
            <gpxtpx:hr>111</gpxtpx:hr>
          </gpxtpx:TrackPointExtension>
        </extensions>
      </trkpt>
      <trkpt lat="44.17432" lon="5.28336">
        <ele>1742.2</ele>
        <time>2021-06-12T10:08:46Z</time>
        <extensions>
          <gpxtpx:TrackPointExtension xmlns:gpxtpx="http://www.garmin.com/xmlschemas/TrackPointExtension/v1">
            <gpxtpx:hr>110</gpxtpx:hr>
          </gpxtpx:TrackPointExtension>
        </extensions>
      </trkpt>
      <trkpt lat="44.17432" lon="5.28339">
        <ele>1741.8</ele>
        <time>2021-06-12T10:08:48Z</time>
        <extensions>
          <gpxtpx:TrackPointExtension xmlns:gpxtpx="http://www.garmin.com/xmlschemas/TrackPointExtension/v1">
            <gpxtpx:hr>106</gpxtpx:hr>
          </gpxtpx:TrackPointExtension>
        </extensions>
      </trkpt>
      <trkpt lat="44.17432" lon="5.28342">
        <ele>1741.2</ele>
        <time>2021-06-12T10:08:50Z</time>
        <extensions>
          <gpxtpx:TrackPointExtension xmlns:gpxtpx="http://www.garmin.com/xmlschemas/TrackPointExtension/v1">
            <gpxtpx:hr>104</gpxtpx:hr>
          </gpxtpx:TrackPointExtension>
        </extensions>
      </trkpt>
      <trkpt lat="44.17432" lon="5.28344">
        <ele>1740.8</ele>
        <time>2021-06-12T10:08:51Z</time>
        <extensions>
          <gpxtpx:TrackPointExtension xmlns:gpxtpx="http://www.garmin.com/xmlschemas/TrackPointExtension/v1">
            <gpxtpx:hr>104</gpxtpx:hr>
          </gpxtpx:TrackPointExtension>
        </extensions>
      </trkpt>
      <trkpt lat="44.17432" lon="5.28345">
        <ele>1740.6</ele>
        <time>2021-06-12T10:08:52Z</time>
        <extensions>
          <gpxtpx:TrackPointExtension xmlns:gpxtpx="http://www.garmin.com/xmlschemas/TrackPointExtension/v1">
            <gpxtpx:hr>105</gpxtpx:hr>
          </gpxtpx:TrackPointExtension>
        </extensions>
      </trkpt>
      <trkpt lat="44.17433" lon="5.2835">
        <ele>1739.8</ele>
        <time>2021-06-12T10:08:55Z</time>
        <extensions>
          <gpxtpx:TrackPointExtension xmlns:gpxtpx="http://www.garmin.com/xmlschemas/TrackPointExtension/v1">
            <gpxtpx:hr>108</gpxtpx:hr>
          </gpxtpx:TrackPointExtension>
        </extensions>
      </trkpt>
      <trkpt lat="44.17433" lon="5.28352">
        <ele>1739.8</ele>
        <time>2021-06-12T10:08:56Z</time>
        <extensions>
          <gpxtpx:TrackPointExtension xmlns:gpxtpx="http://www.garmin.com/xmlschemas/TrackPointExtension/v1">
            <gpxtpx:hr>109</gpxtpx:hr>
          </gpxtpx:TrackPointExtension>
        </extensions>
      </trkpt>
      <trkpt lat="44.17431" lon="5.28368">
        <ele>1738.8</ele>
        <time>2021-06-12T10:09:04Z</time>
        <extensions>
          <gpxtpx:TrackPointExtension xmlns:gpxtpx="http://www.garmin.com/xmlschemas/TrackPointExtension/v1">
            <gpxtpx:hr>109</gpxtpx:hr>
          </gpxtpx:TrackPointExtension>
        </extensions>
      </trkpt>
      <trkpt lat="44.17425" lon="5.28383">
        <ele>1737.8</ele>
        <time>2021-06-12T10:09:13Z</time>
        <extensions>
          <gpxtpx:TrackPointExtension xmlns:gpxtpx="http://www.garmin.com/xmlschemas/TrackPointExtension/v1">
            <gpxtpx:hr>107</gpxtpx:hr>
          </gpxtpx:TrackPointExtension>
        </extensions>
      </trkpt>
      <trkpt lat="44.1742" lon="5.28387">
        <ele>1737.4</ele>
        <time>2021-06-12T10:09:17Z</time>
        <extensions>
          <gpxtpx:TrackPointExtension xmlns:gpxtpx="http://www.garmin.com/xmlschemas/TrackPointExtension/v1">
            <gpxtpx:hr>110</gpxtpx:hr>
          </gpxtpx:TrackPointExtension>
        </extensions>
      </trkpt>
      <trkpt lat="44.17415" lon="5.2839">
        <ele>1736.8</ele>
        <time>2021-06-12T10:09:21Z</time>
        <extensions>
          <gpxtpx:TrackPointExtension xmlns:gpxtpx="http://www.garmin.com/xmlschemas/TrackPointExtension/v1">
            <gpxtpx:hr>107</gpxtpx:hr>
          </gpxtpx:TrackPointExtension>
        </extensions>
      </trkpt>
      <trkpt lat="44.17409" lon="5.28394">
        <ele>1736</ele>
        <time>2021-06-12T10:09:26Z</time>
        <extensions>
          <gpxtpx:TrackPointExtension xmlns:gpxtpx="http://www.garmin.com/xmlschemas/TrackPointExtension/v1">
            <gpxtpx:hr>111</gpxtpx:hr>
          </gpxtpx:TrackPointExtension>
        </extensions>
      </trkpt>
      <trkpt lat="44.17406" lon="5.28397">
        <ele>1735.8</ele>
        <time>2021-06-12T10:09:29Z</time>
        <extensions>
          <gpxtpx:TrackPointExtension xmlns:gpxtpx="http://www.garmin.com/xmlschemas/TrackPointExtension/v1">
            <gpxtpx:hr>109</gpxtpx:hr>
          </gpxtpx:TrackPointExtension>
        </extensions>
      </trkpt>
      <trkpt lat="44.174" lon="5.284">
        <ele>1735.4</ele>
        <time>2021-06-12T10:09:34Z</time>
        <extensions>
          <gpxtpx:TrackPointExtension xmlns:gpxtpx="http://www.garmin.com/xmlschemas/TrackPointExtension/v1">
            <gpxtpx:hr>106</gpxtpx:hr>
          </gpxtpx:TrackPointExtension>
        </extensions>
      </trkpt>
      <trkpt lat="44.17393" lon="5.2841">
        <ele>1735.4</ele>
        <time>2021-06-12T10:09:40Z</time>
        <extensions>
          <gpxtpx:TrackPointExtension xmlns:gpxtpx="http://www.garmin.com/xmlschemas/TrackPointExtension/v1">
            <gpxtpx:hr>113</gpxtpx:hr>
          </gpxtpx:TrackPointExtension>
        </extensions>
      </trkpt>
      <trkpt lat="44.17392" lon="5.28415">
        <ele>1735.4</ele>
        <time>2021-06-12T10:09:44Z</time>
        <extensions>
          <gpxtpx:TrackPointExtension xmlns:gpxtpx="http://www.garmin.com/xmlschemas/TrackPointExtension/v1">
            <gpxtpx:hr>110</gpxtpx:hr>
          </gpxtpx:TrackPointExtension>
        </extensions>
      </trkpt>
      <trkpt lat="44.17392" lon="5.28412">
        <ele>1735.6</ele>
        <time>2021-06-12T10:09:55Z</time>
        <extensions>
          <gpxtpx:TrackPointExtension xmlns:gpxtpx="http://www.garmin.com/xmlschemas/TrackPointExtension/v1">
            <gpxtpx:hr>107</gpxtpx:hr>
          </gpxtpx:TrackPointExtension>
        </extensions>
      </trkpt>
      <trkpt lat="44.17394" lon="5.28408">
        <ele>1735.6</ele>
        <time>2021-06-12T10:10:01Z</time>
        <extensions>
          <gpxtpx:TrackPointExtension xmlns:gpxtpx="http://www.garmin.com/xmlschemas/TrackPointExtension/v1">
            <gpxtpx:hr>108</gpxtpx:hr>
          </gpxtpx:TrackPointExtension>
        </extensions>
      </trkpt>
      <trkpt lat="44.17395" lon="5.28405">
        <ele>1735.8</ele>
        <time>2021-06-12T10:10:04Z</time>
        <extensions>
          <gpxtpx:TrackPointExtension xmlns:gpxtpx="http://www.garmin.com/xmlschemas/TrackPointExtension/v1">
            <gpxtpx:hr>108</gpxtpx:hr>
          </gpxtpx:TrackPointExtension>
        </extensions>
      </trkpt>
      <trkpt lat="44.17398" lon="5.28397">
        <ele>1735.4</ele>
        <time>2021-06-12T10:10:11Z</time>
        <extensions>
          <gpxtpx:TrackPointExtension xmlns:gpxtpx="http://www.garmin.com/xmlschemas/TrackPointExtension/v1">
            <gpxtpx:hr>108</gpxtpx:hr>
          </gpxtpx:TrackPointExtension>
        </extensions>
      </trkpt>
      <trkpt lat="44.17399" lon="5.28394">
        <ele>1735.4</ele>
        <time>2021-06-12T10:10:13Z</time>
        <extensions>
          <gpxtpx:TrackPointExtension xmlns:gpxtpx="http://www.garmin.com/xmlschemas/TrackPointExtension/v1">
            <gpxtpx:hr>103</gpxtpx:hr>
          </gpxtpx:TrackPointExtension>
        </extensions>
      </trkpt>
      <trkpt lat="44.17399" lon="5.28393">
        <ele>1735.4</ele>
        <time>2021-06-12T10:10:14Z</time>
        <extensions>
          <gpxtpx:TrackPointExtension xmlns:gpxtpx="http://www.garmin.com/xmlschemas/TrackPointExtension/v1">
            <gpxtpx:hr>102</gpxtpx:hr>
          </gpxtpx:TrackPointExtension>
        </extensions>
      </trkpt>
      <trkpt lat="44.17399" lon="5.2839">
        <ele>1735</ele>
        <time>2021-06-12T10:10:16Z</time>
        <extensions>
          <gpxtpx:TrackPointExtension xmlns:gpxtpx="http://www.garmin.com/xmlschemas/TrackPointExtension/v1">
            <gpxtpx:hr>101</gpxtpx:hr>
          </gpxtpx:TrackPointExtension>
        </extensions>
      </trkpt>
      <trkpt lat="44.17399" lon="5.28389">
        <ele>1734.8</ele>
        <time>2021-06-12T10:10:17Z</time>
        <extensions>
          <gpxtpx:TrackPointExtension xmlns:gpxtpx="http://www.garmin.com/xmlschemas/TrackPointExtension/v1">
            <gpxtpx:hr>101</gpxtpx:hr>
          </gpxtpx:TrackPointExtension>
        </extensions>
      </trkpt>
      <trkpt lat="44.17399" lon="5.28389">
        <ele>1734.8</ele>
        <time>2021-06-12T10:10:18Z</time>
        <extensions>
          <gpxtpx:TrackPointExtension xmlns:gpxtpx="http://www.garmin.com/xmlschemas/TrackPointExtension/v1">
            <gpxtpx:hr>102</gpxtpx:hr>
          </gpxtpx:TrackPointExtension>
        </extensions>
      </trkpt>
      <trkpt lat="44.17398" lon="5.28383">
        <ele>1734.8</ele>
        <time>2021-06-12T10:10:23Z</time>
        <extensions>
          <gpxtpx:TrackPointExtension xmlns:gpxtpx="http://www.garmin.com/xmlschemas/TrackPointExtension/v1">
            <gpxtpx:hr>104</gpxtpx:hr>
          </gpxtpx:TrackPointExtension>
        </extensions>
      </trkpt>
      <trkpt lat="44.17397" lon="5.28378">
        <ele>1734.8</ele>
        <time>2021-06-12T10:10:26Z</time>
        <extensions>
          <gpxtpx:TrackPointExtension xmlns:gpxtpx="http://www.garmin.com/xmlschemas/TrackPointExtension/v1">
            <gpxtpx:hr>101</gpxtpx:hr>
          </gpxtpx:TrackPointExtension>
        </extensions>
      </trkpt>
      <trkpt lat="44.17396" lon="5.28376">
        <ele>1734.6</ele>
        <time>2021-06-12T10:10:27Z</time>
        <extensions>
          <gpxtpx:TrackPointExtension xmlns:gpxtpx="http://www.garmin.com/xmlschemas/TrackPointExtension/v1">
            <gpxtpx:hr>100</gpxtpx:hr>
          </gpxtpx:TrackPointExtension>
        </extensions>
      </trkpt>
      <trkpt lat="44.17395" lon="5.28372">
        <ele>1734.4</ele>
        <time>2021-06-12T10:10:30Z</time>
        <extensions>
          <gpxtpx:TrackPointExtension xmlns:gpxtpx="http://www.garmin.com/xmlschemas/TrackPointExtension/v1">
            <gpxtpx:hr>100</gpxtpx:hr>
          </gpxtpx:TrackPointExtension>
        </extensions>
      </trkpt>
      <trkpt lat="44.17395" lon="5.28369">
        <ele>1734.4</ele>
        <time>2021-06-12T10:10:32Z</time>
        <extensions>
          <gpxtpx:TrackPointExtension xmlns:gpxtpx="http://www.garmin.com/xmlschemas/TrackPointExtension/v1">
            <gpxtpx:hr>103</gpxtpx:hr>
          </gpxtpx:TrackPointExtension>
        </extensions>
      </trkpt>
      <trkpt lat="44.17396" lon="5.28369">
        <ele>1734.4</ele>
        <time>2021-06-12T10:10:34Z</time>
        <extensions>
          <gpxtpx:TrackPointExtension xmlns:gpxtpx="http://www.garmin.com/xmlschemas/TrackPointExtension/v1">
            <gpxtpx:hr>104</gpxtpx:hr>
          </gpxtpx:TrackPointExtension>
        </extensions>
      </trkpt>
      <trkpt lat="44.17397" lon="5.2837">
        <ele>1734.8</ele>
        <time>2021-06-12T10:10:51Z</time>
        <extensions>
          <gpxtpx:TrackPointExtension xmlns:gpxtpx="http://www.garmin.com/xmlschemas/TrackPointExtension/v1">
            <gpxtpx:hr>107</gpxtpx:hr>
          </gpxtpx:TrackPointExtension>
        </extensions>
      </trkpt>
      <trkpt lat="44.17397" lon="5.2837">
        <ele>1735</ele>
        <time>2021-06-12T10:11:01Z</time>
        <extensions>
          <gpxtpx:TrackPointExtension xmlns:gpxtpx="http://www.garmin.com/xmlschemas/TrackPointExtension/v1">
            <gpxtpx:hr>110</gpxtpx:hr>
          </gpxtpx:TrackPointExtension>
        </extensions>
      </trkpt>
      <trkpt lat="44.17397" lon="5.28371">
        <ele>1734.6</ele>
        <time>2021-06-12T10:11:07Z</time>
        <extensions>
          <gpxtpx:TrackPointExtension xmlns:gpxtpx="http://www.garmin.com/xmlschemas/TrackPointExtension/v1">
            <gpxtpx:hr>107</gpxtpx:hr>
          </gpxtpx:TrackPointExtension>
        </extensions>
      </trkpt>
      <trkpt lat="44.17397" lon="5.28371">
        <ele>1734.6</ele>
        <time>2021-06-12T10:11:11Z</time>
        <extensions>
          <gpxtpx:TrackPointExtension xmlns:gpxtpx="http://www.garmin.com/xmlschemas/TrackPointExtension/v1">
            <gpxtpx:hr>110</gpxtpx:hr>
          </gpxtpx:TrackPointExtension>
        </extensions>
      </trkpt>
      <trkpt lat="44.17397" lon="5.2837">
        <ele>1734.4</ele>
        <time>2021-06-12T10:11:15Z</time>
        <extensions>
          <gpxtpx:TrackPointExtension xmlns:gpxtpx="http://www.garmin.com/xmlschemas/TrackPointExtension/v1">
            <gpxtpx:hr>105</gpxtpx:hr>
          </gpxtpx:TrackPointExtension>
        </extensions>
      </trkpt>
      <trkpt lat="44.17397" lon="5.2837">
        <ele>1734.4</ele>
        <time>2021-06-12T10:11:16Z</time>
        <extensions>
          <gpxtpx:TrackPointExtension xmlns:gpxtpx="http://www.garmin.com/xmlschemas/TrackPointExtension/v1">
            <gpxtpx:hr>99</gpxtpx:hr>
          </gpxtpx:TrackPointExtension>
        </extensions>
      </trkpt>
      <trkpt lat="44.17397" lon="5.2837">
        <ele>1734.4</ele>
        <time>2021-06-12T10:11:21Z</time>
        <extensions>
          <gpxtpx:TrackPointExtension xmlns:gpxtpx="http://www.garmin.com/xmlschemas/TrackPointExtension/v1">
            <gpxtpx:hr>103</gpxtpx:hr>
          </gpxtpx:TrackPointExtension>
        </extensions>
      </trkpt>
      <trkpt lat="44.17397" lon="5.2837">
        <ele>1734.6</ele>
        <time>2021-06-12T10:11:23Z</time>
        <extensions>
          <gpxtpx:TrackPointExtension xmlns:gpxtpx="http://www.garmin.com/xmlschemas/TrackPointExtension/v1">
            <gpxtpx:hr>106</gpxtpx:hr>
          </gpxtpx:TrackPointExtension>
        </extensions>
      </trkpt>
      <trkpt lat="44.17397" lon="5.2837">
        <ele>1734.4</ele>
        <time>2021-06-12T10:11:34Z</time>
        <extensions>
          <gpxtpx:TrackPointExtension xmlns:gpxtpx="http://www.garmin.com/xmlschemas/TrackPointExtension/v1">
            <gpxtpx:hr>103</gpxtpx:hr>
          </gpxtpx:TrackPointExtension>
        </extensions>
      </trkpt>
      <trkpt lat="44.17397" lon="5.2837">
        <ele>1734.2</ele>
        <time>2021-06-12T10:11:47Z</time>
        <extensions>
          <gpxtpx:TrackPointExtension xmlns:gpxtpx="http://www.garmin.com/xmlschemas/TrackPointExtension/v1">
            <gpxtpx:hr>106</gpxtpx:hr>
          </gpxtpx:TrackPointExtension>
        </extensions>
      </trkpt>
      <trkpt lat="44.17398" lon="5.28371">
        <ele>1734.2</ele>
        <time>2021-06-12T10:11:55Z</time>
        <extensions>
          <gpxtpx:TrackPointExtension xmlns:gpxtpx="http://www.garmin.com/xmlschemas/TrackPointExtension/v1">
            <gpxtpx:hr>110</gpxtpx:hr>
          </gpxtpx:TrackPointExtension>
        </extensions>
      </trkpt>
      <trkpt lat="44.17399" lon="5.28371">
        <ele>1734.2</ele>
        <time>2021-06-12T10:12:00Z</time>
        <extensions>
          <gpxtpx:TrackPointExtension xmlns:gpxtpx="http://www.garmin.com/xmlschemas/TrackPointExtension/v1">
            <gpxtpx:hr>106</gpxtpx:hr>
          </gpxtpx:TrackPointExtension>
        </extensions>
      </trkpt>
      <trkpt lat="44.17398" lon="5.28371">
        <ele>1734.2</ele>
        <time>2021-06-12T10:12:07Z</time>
        <extensions>
          <gpxtpx:TrackPointExtension xmlns:gpxtpx="http://www.garmin.com/xmlschemas/TrackPointExtension/v1">
            <gpxtpx:hr>109</gpxtpx:hr>
          </gpxtpx:TrackPointExtension>
        </extensions>
      </trkpt>
      <trkpt lat="44.17399" lon="5.28371">
        <ele>1734.2</ele>
        <time>2021-06-12T10:12:09Z</time>
        <extensions>
          <gpxtpx:TrackPointExtension xmlns:gpxtpx="http://www.garmin.com/xmlschemas/TrackPointExtension/v1">
            <gpxtpx:hr>104</gpxtpx:hr>
          </gpxtpx:TrackPointExtension>
        </extensions>
      </trkpt>
      <trkpt lat="44.17399" lon="5.28371">
        <ele>1734.2</ele>
        <time>2021-06-12T10:12:10Z</time>
        <extensions>
          <gpxtpx:TrackPointExtension xmlns:gpxtpx="http://www.garmin.com/xmlschemas/TrackPointExtension/v1">
            <gpxtpx:hr>101</gpxtpx:hr>
          </gpxtpx:TrackPointExtension>
        </extensions>
      </trkpt>
      <trkpt lat="44.17399" lon="5.28371">
        <ele>1734.2</ele>
        <time>2021-06-12T10:12:11Z</time>
        <extensions>
          <gpxtpx:TrackPointExtension xmlns:gpxtpx="http://www.garmin.com/xmlschemas/TrackPointExtension/v1">
            <gpxtpx:hr>96</gpxtpx:hr>
          </gpxtpx:TrackPointExtension>
        </extensions>
      </trkpt>
      <trkpt lat="44.17398" lon="5.28371">
        <ele>1734.2</ele>
        <time>2021-06-12T10:12:14Z</time>
        <extensions>
          <gpxtpx:TrackPointExtension xmlns:gpxtpx="http://www.garmin.com/xmlschemas/TrackPointExtension/v1">
            <gpxtpx:hr>100</gpxtpx:hr>
          </gpxtpx:TrackPointExtension>
        </extensions>
      </trkpt>
      <trkpt lat="44.17398" lon="5.28371">
        <ele>1734.2</ele>
        <time>2021-06-12T10:12:16Z</time>
        <extensions>
          <gpxtpx:TrackPointExtension xmlns:gpxtpx="http://www.garmin.com/xmlschemas/TrackPointExtension/v1">
            <gpxtpx:hr>103</gpxtpx:hr>
          </gpxtpx:TrackPointExtension>
        </extensions>
      </trkpt>
      <trkpt lat="44.17399" lon="5.28371">
        <ele>1734.2</ele>
        <time>2021-06-12T10:12:28Z</time>
        <extensions>
          <gpxtpx:TrackPointExtension xmlns:gpxtpx="http://www.garmin.com/xmlschemas/TrackPointExtension/v1">
            <gpxtpx:hr>106</gpxtpx:hr>
          </gpxtpx:TrackPointExtension>
        </extensions>
      </trkpt>
      <trkpt lat="44.17398" lon="5.28377">
        <ele>1734.2</ele>
        <time>2021-06-12T10:12:36Z</time>
        <extensions>
          <gpxtpx:TrackPointExtension xmlns:gpxtpx="http://www.garmin.com/xmlschemas/TrackPointExtension/v1">
            <gpxtpx:hr>105</gpxtpx:hr>
          </gpxtpx:TrackPointExtension>
        </extensions>
      </trkpt>
      <trkpt lat="44.17398" lon="5.28382">
        <ele>1734</ele>
        <time>2021-06-12T10:12:39Z</time>
        <extensions>
          <gpxtpx:TrackPointExtension xmlns:gpxtpx="http://www.garmin.com/xmlschemas/TrackPointExtension/v1">
            <gpxtpx:hr>108</gpxtpx:hr>
          </gpxtpx:TrackPointExtension>
        </extensions>
      </trkpt>
      <trkpt lat="44.17399" lon="5.28383">
        <ele>1734</ele>
        <time>2021-06-12T10:12:41Z</time>
        <extensions>
          <gpxtpx:TrackPointExtension xmlns:gpxtpx="http://www.garmin.com/xmlschemas/TrackPointExtension/v1">
            <gpxtpx:hr>108</gpxtpx:hr>
          </gpxtpx:TrackPointExtension>
        </extensions>
      </trkpt>
      <trkpt lat="44.17399" lon="5.28384">
        <ele>1734</ele>
        <time>2021-06-12T10:12:44Z</time>
        <extensions>
          <gpxtpx:TrackPointExtension xmlns:gpxtpx="http://www.garmin.com/xmlschemas/TrackPointExtension/v1">
            <gpxtpx:hr>104</gpxtpx:hr>
          </gpxtpx:TrackPointExtension>
        </extensions>
      </trkpt>
      <trkpt lat="44.174" lon="5.28387">
        <ele>1734</ele>
        <time>2021-06-12T10:12:46Z</time>
        <extensions>
          <gpxtpx:TrackPointExtension xmlns:gpxtpx="http://www.garmin.com/xmlschemas/TrackPointExtension/v1">
            <gpxtpx:hr>102</gpxtpx:hr>
          </gpxtpx:TrackPointExtension>
        </extensions>
      </trkpt>
      <trkpt lat="44.17401" lon="5.2839">
        <ele>1734</ele>
        <time>2021-06-12T10:12:48Z</time>
        <extensions>
          <gpxtpx:TrackPointExtension xmlns:gpxtpx="http://www.garmin.com/xmlschemas/TrackPointExtension/v1">
            <gpxtpx:hr>105</gpxtpx:hr>
          </gpxtpx:TrackPointExtension>
        </extensions>
      </trkpt>
      <trkpt lat="44.17401" lon="5.28394">
        <ele>1734.2</ele>
        <time>2021-06-12T10:12:50Z</time>
        <extensions>
          <gpxtpx:TrackPointExtension xmlns:gpxtpx="http://www.garmin.com/xmlschemas/TrackPointExtension/v1">
            <gpxtpx:hr>109</gpxtpx:hr>
          </gpxtpx:TrackPointExtension>
        </extensions>
      </trkpt>
      <trkpt lat="44.17402" lon="5.28405">
        <ele>1735</ele>
        <time>2021-06-12T10:12:55Z</time>
        <extensions>
          <gpxtpx:TrackPointExtension xmlns:gpxtpx="http://www.garmin.com/xmlschemas/TrackPointExtension/v1">
            <gpxtpx:hr>108</gpxtpx:hr>
          </gpxtpx:TrackPointExtension>
        </extensions>
      </trkpt>
      <trkpt lat="44.17403" lon="5.28409">
        <ele>1735.6</ele>
        <time>2021-06-12T10:12:59Z</time>
        <extensions>
          <gpxtpx:TrackPointExtension xmlns:gpxtpx="http://www.garmin.com/xmlschemas/TrackPointExtension/v1">
            <gpxtpx:hr>107</gpxtpx:hr>
          </gpxtpx:TrackPointExtension>
        </extensions>
      </trkpt>
      <trkpt lat="44.17405" lon="5.28413">
        <ele>1735.6</ele>
        <time>2021-06-12T10:13:01Z</time>
        <extensions>
          <gpxtpx:TrackPointExtension xmlns:gpxtpx="http://www.garmin.com/xmlschemas/TrackPointExtension/v1">
            <gpxtpx:hr>109</gpxtpx:hr>
          </gpxtpx:TrackPointExtension>
        </extensions>
      </trkpt>
      <trkpt lat="44.17406" lon="5.28416">
        <ele>1736</ele>
        <time>2021-06-12T10:13:03Z</time>
        <extensions>
          <gpxtpx:TrackPointExtension xmlns:gpxtpx="http://www.garmin.com/xmlschemas/TrackPointExtension/v1">
            <gpxtpx:hr>111</gpxtpx:hr>
          </gpxtpx:TrackPointExtension>
        </extensions>
      </trkpt>
      <trkpt lat="44.17404" lon="5.28423">
        <ele>1736.6</ele>
        <time>2021-06-12T10:13:06Z</time>
        <extensions>
          <gpxtpx:TrackPointExtension xmlns:gpxtpx="http://www.garmin.com/xmlschemas/TrackPointExtension/v1">
            <gpxtpx:hr>113</gpxtpx:hr>
          </gpxtpx:TrackPointExtension>
        </extensions>
      </trkpt>
      <trkpt lat="44.17403" lon="5.28424">
        <ele>1736.6</ele>
        <time>2021-06-12T10:13:07Z</time>
        <extensions>
          <gpxtpx:TrackPointExtension xmlns:gpxtpx="http://www.garmin.com/xmlschemas/TrackPointExtension/v1">
            <gpxtpx:hr>112</gpxtpx:hr>
          </gpxtpx:TrackPointExtension>
        </extensions>
      </trkpt>
      <trkpt lat="44.17402" lon="5.28425">
        <ele>1736.8</ele>
        <time>2021-06-12T10:13:08Z</time>
        <extensions>
          <gpxtpx:TrackPointExtension xmlns:gpxtpx="http://www.garmin.com/xmlschemas/TrackPointExtension/v1">
            <gpxtpx:hr>112</gpxtpx:hr>
          </gpxtpx:TrackPointExtension>
        </extensions>
      </trkpt>
      <trkpt lat="44.17397" lon="5.28431">
        <ele>1737.8</ele>
        <time>2021-06-12T10:13:13Z</time>
        <extensions>
          <gpxtpx:TrackPointExtension xmlns:gpxtpx="http://www.garmin.com/xmlschemas/TrackPointExtension/v1">
            <gpxtpx:hr>114</gpxtpx:hr>
          </gpxtpx:TrackPointExtension>
        </extensions>
      </trkpt>
      <trkpt lat="44.17395" lon="5.28434">
        <ele>1738</ele>
        <time>2021-06-12T10:13:16Z</time>
        <extensions>
          <gpxtpx:TrackPointExtension xmlns:gpxtpx="http://www.garmin.com/xmlschemas/TrackPointExtension/v1">
            <gpxtpx:hr>115</gpxtpx:hr>
          </gpxtpx:TrackPointExtension>
        </extensions>
      </trkpt>
      <trkpt lat="44.17392" lon="5.28437">
        <ele>1738.2</ele>
        <time>2021-06-12T10:13:19Z</time>
        <extensions>
          <gpxtpx:TrackPointExtension xmlns:gpxtpx="http://www.garmin.com/xmlschemas/TrackPointExtension/v1">
            <gpxtpx:hr>117</gpxtpx:hr>
          </gpxtpx:TrackPointExtension>
        </extensions>
      </trkpt>
      <trkpt lat="44.1739" lon="5.2844">
        <ele>1738.8</ele>
        <time>2021-06-12T10:13:22Z</time>
        <extensions>
          <gpxtpx:TrackPointExtension xmlns:gpxtpx="http://www.garmin.com/xmlschemas/TrackPointExtension/v1">
            <gpxtpx:hr>120</gpxtpx:hr>
          </gpxtpx:TrackPointExtension>
        </extensions>
      </trkpt>
      <trkpt lat="44.17387" lon="5.28444">
        <ele>1739.6</ele>
        <time>2021-06-12T10:13:25Z</time>
        <extensions>
          <gpxtpx:TrackPointExtension xmlns:gpxtpx="http://www.garmin.com/xmlschemas/TrackPointExtension/v1">
            <gpxtpx:hr>122</gpxtpx:hr>
          </gpxtpx:TrackPointExtension>
        </extensions>
      </trkpt>
      <trkpt lat="44.17385" lon="5.28446">
        <ele>1740</ele>
        <time>2021-06-12T10:13:27Z</time>
        <extensions>
          <gpxtpx:TrackPointExtension xmlns:gpxtpx="http://www.garmin.com/xmlschemas/TrackPointExtension/v1">
            <gpxtpx:hr>124</gpxtpx:hr>
          </gpxtpx:TrackPointExtension>
        </extensions>
      </trkpt>
      <trkpt lat="44.17382" lon="5.28449">
        <ele>1740.6</ele>
        <time>2021-06-12T10:13:30Z</time>
        <extensions>
          <gpxtpx:TrackPointExtension xmlns:gpxtpx="http://www.garmin.com/xmlschemas/TrackPointExtension/v1">
            <gpxtpx:hr>127</gpxtpx:hr>
          </gpxtpx:TrackPointExtension>
        </extensions>
      </trkpt>
      <trkpt lat="44.17381" lon="5.2845">
        <ele>1741</ele>
        <time>2021-06-12T10:13:31Z</time>
        <extensions>
          <gpxtpx:TrackPointExtension xmlns:gpxtpx="http://www.garmin.com/xmlschemas/TrackPointExtension/v1">
            <gpxtpx:hr>127</gpxtpx:hr>
          </gpxtpx:TrackPointExtension>
        </extensions>
      </trkpt>
      <trkpt lat="44.1738" lon="5.28453">
        <ele>1741.4</ele>
        <time>2021-06-12T10:13:33Z</time>
        <extensions>
          <gpxtpx:TrackPointExtension xmlns:gpxtpx="http://www.garmin.com/xmlschemas/TrackPointExtension/v1">
            <gpxtpx:hr>129</gpxtpx:hr>
          </gpxtpx:TrackPointExtension>
        </extensions>
      </trkpt>
      <trkpt lat="44.17379" lon="5.28456">
        <ele>1741.6</ele>
        <time>2021-06-12T10:13:35Z</time>
        <extensions>
          <gpxtpx:TrackPointExtension xmlns:gpxtpx="http://www.garmin.com/xmlschemas/TrackPointExtension/v1">
            <gpxtpx:hr>130</gpxtpx:hr>
          </gpxtpx:TrackPointExtension>
        </extensions>
      </trkpt>
      <trkpt lat="44.17378" lon="5.28457">
        <ele>1741.8</ele>
        <time>2021-06-12T10:13:36Z</time>
        <extensions>
          <gpxtpx:TrackPointExtension xmlns:gpxtpx="http://www.garmin.com/xmlschemas/TrackPointExtension/v1">
            <gpxtpx:hr>130</gpxtpx:hr>
          </gpxtpx:TrackPointExtension>
        </extensions>
      </trkpt>
      <trkpt lat="44.17377" lon="5.2846">
        <ele>1742</ele>
        <time>2021-06-12T10:13:38Z</time>
        <extensions>
          <gpxtpx:TrackPointExtension xmlns:gpxtpx="http://www.garmin.com/xmlschemas/TrackPointExtension/v1">
            <gpxtpx:hr>130</gpxtpx:hr>
          </gpxtpx:TrackPointExtension>
        </extensions>
      </trkpt>
      <trkpt lat="44.17372" lon="5.28464">
        <ele>1743</ele>
        <time>2021-06-12T10:13:43Z</time>
        <extensions>
          <gpxtpx:TrackPointExtension xmlns:gpxtpx="http://www.garmin.com/xmlschemas/TrackPointExtension/v1">
            <gpxtpx:hr>130</gpxtpx:hr>
          </gpxtpx:TrackPointExtension>
        </extensions>
      </trkpt>
      <trkpt lat="44.17371" lon="5.28464">
        <ele>1743.2</ele>
        <time>2021-06-12T10:13:44Z</time>
        <extensions>
          <gpxtpx:TrackPointExtension xmlns:gpxtpx="http://www.garmin.com/xmlschemas/TrackPointExtension/v1">
            <gpxtpx:hr>131</gpxtpx:hr>
          </gpxtpx:TrackPointExtension>
        </extensions>
      </trkpt>
      <trkpt lat="44.1737" lon="5.28464">
        <ele>1743.4</ele>
        <time>2021-06-12T10:13:45Z</time>
        <extensions>
          <gpxtpx:TrackPointExtension xmlns:gpxtpx="http://www.garmin.com/xmlschemas/TrackPointExtension/v1">
            <gpxtpx:hr>132</gpxtpx:hr>
          </gpxtpx:TrackPointExtension>
        </extensions>
      </trkpt>
      <trkpt lat="44.17363" lon="5.28467">
        <ele>1744.2</ele>
        <time>2021-06-12T10:13:51Z</time>
        <extensions>
          <gpxtpx:TrackPointExtension xmlns:gpxtpx="http://www.garmin.com/xmlschemas/TrackPointExtension/v1">
            <gpxtpx:hr>135</gpxtpx:hr>
          </gpxtpx:TrackPointExtension>
        </extensions>
      </trkpt>
      <trkpt lat="44.17362" lon="5.28468">
        <ele>1744.4</ele>
        <time>2021-06-12T10:13:52Z</time>
        <extensions>
          <gpxtpx:TrackPointExtension xmlns:gpxtpx="http://www.garmin.com/xmlschemas/TrackPointExtension/v1">
            <gpxtpx:hr>135</gpxtpx:hr>
          </gpxtpx:TrackPointExtension>
        </extensions>
      </trkpt>
      <trkpt lat="44.1736" lon="5.28468">
        <ele>1744.6</ele>
        <time>2021-06-12T10:13:54Z</time>
        <extensions>
          <gpxtpx:TrackPointExtension xmlns:gpxtpx="http://www.garmin.com/xmlschemas/TrackPointExtension/v1">
            <gpxtpx:hr>135</gpxtpx:hr>
          </gpxtpx:TrackPointExtension>
        </extensions>
      </trkpt>
      <trkpt lat="44.17359" lon="5.28467">
        <ele>1744.6</ele>
        <time>2021-06-12T10:13:56Z</time>
        <extensions>
          <gpxtpx:TrackPointExtension xmlns:gpxtpx="http://www.garmin.com/xmlschemas/TrackPointExtension/v1">
            <gpxtpx:hr>136</gpxtpx:hr>
          </gpxtpx:TrackPointExtension>
        </extensions>
      </trkpt>
      <trkpt lat="44.17356" lon="5.28471">
        <ele>1744.6</ele>
        <time>2021-06-12T10:14:04Z</time>
        <extensions>
          <gpxtpx:TrackPointExtension xmlns:gpxtpx="http://www.garmin.com/xmlschemas/TrackPointExtension/v1">
            <gpxtpx:hr>135</gpxtpx:hr>
          </gpxtpx:TrackPointExtension>
        </extensions>
      </trkpt>
      <trkpt lat="44.1735" lon="5.28475">
        <ele>1745.2</ele>
        <time>2021-06-12T10:14:09Z</time>
        <extensions>
          <gpxtpx:TrackPointExtension xmlns:gpxtpx="http://www.garmin.com/xmlschemas/TrackPointExtension/v1">
            <gpxtpx:hr>135</gpxtpx:hr>
          </gpxtpx:TrackPointExtension>
        </extensions>
      </trkpt>
      <trkpt lat="44.17349" lon="5.28475">
        <ele>1745.4</ele>
        <time>2021-06-12T10:14:11Z</time>
        <extensions>
          <gpxtpx:TrackPointExtension xmlns:gpxtpx="http://www.garmin.com/xmlschemas/TrackPointExtension/v1">
            <gpxtpx:hr>135</gpxtpx:hr>
          </gpxtpx:TrackPointExtension>
        </extensions>
      </trkpt>
      <trkpt lat="44.17348" lon="5.28476">
        <ele>1745.6</ele>
        <time>2021-06-12T10:14:12Z</time>
        <extensions>
          <gpxtpx:TrackPointExtension xmlns:gpxtpx="http://www.garmin.com/xmlschemas/TrackPointExtension/v1">
            <gpxtpx:hr>136</gpxtpx:hr>
          </gpxtpx:TrackPointExtension>
        </extensions>
      </trkpt>
      <trkpt lat="44.17341" lon="5.28479">
        <ele>1746.6</ele>
        <time>2021-06-12T10:14:18Z</time>
        <extensions>
          <gpxtpx:TrackPointExtension xmlns:gpxtpx="http://www.garmin.com/xmlschemas/TrackPointExtension/v1">
            <gpxtpx:hr>136</gpxtpx:hr>
          </gpxtpx:TrackPointExtension>
        </extensions>
      </trkpt>
      <trkpt lat="44.17338" lon="5.28481">
        <ele>1746.8</ele>
        <time>2021-06-12T10:14:21Z</time>
        <extensions>
          <gpxtpx:TrackPointExtension xmlns:gpxtpx="http://www.garmin.com/xmlschemas/TrackPointExtension/v1">
            <gpxtpx:hr>137</gpxtpx:hr>
          </gpxtpx:TrackPointExtension>
        </extensions>
      </trkpt>
      <trkpt lat="44.17325" lon="5.2849">
        <ele>1747.6</ele>
        <time>2021-06-12T10:14:32Z</time>
        <extensions>
          <gpxtpx:TrackPointExtension xmlns:gpxtpx="http://www.garmin.com/xmlschemas/TrackPointExtension/v1">
            <gpxtpx:hr>135</gpxtpx:hr>
          </gpxtpx:TrackPointExtension>
        </extensions>
      </trkpt>
      <trkpt lat="44.17323" lon="5.28492">
        <ele>1747.6</ele>
        <time>2021-06-12T10:14:34Z</time>
        <extensions>
          <gpxtpx:TrackPointExtension xmlns:gpxtpx="http://www.garmin.com/xmlschemas/TrackPointExtension/v1">
            <gpxtpx:hr>135</gpxtpx:hr>
          </gpxtpx:TrackPointExtension>
        </extensions>
      </trkpt>
      <trkpt lat="44.17316" lon="5.285">
        <ele>1747.6</ele>
        <time>2021-06-12T10:14:40Z</time>
        <extensions>
          <gpxtpx:TrackPointExtension xmlns:gpxtpx="http://www.garmin.com/xmlschemas/TrackPointExtension/v1">
            <gpxtpx:hr>132</gpxtpx:hr>
          </gpxtpx:TrackPointExtension>
        </extensions>
      </trkpt>
      <trkpt lat="44.17306" lon="5.28522">
        <ele>1747.4</ele>
        <time>2021-06-12T10:14:51Z</time>
        <extensions>
          <gpxtpx:TrackPointExtension xmlns:gpxtpx="http://www.garmin.com/xmlschemas/TrackPointExtension/v1">
            <gpxtpx:hr>133</gpxtpx:hr>
          </gpxtpx:TrackPointExtension>
        </extensions>
      </trkpt>
      <trkpt lat="44.17301" lon="5.28531">
        <ele>1746.6</ele>
        <time>2021-06-12T10:14:56Z</time>
        <extensions>
          <gpxtpx:TrackPointExtension xmlns:gpxtpx="http://www.garmin.com/xmlschemas/TrackPointExtension/v1">
            <gpxtpx:hr>130</gpxtpx:hr>
          </gpxtpx:TrackPointExtension>
        </extensions>
      </trkpt>
      <trkpt lat="44.17299" lon="5.28534">
        <ele>1746.4</ele>
        <time>2021-06-12T10:14:58Z</time>
        <extensions>
          <gpxtpx:TrackPointExtension xmlns:gpxtpx="http://www.garmin.com/xmlschemas/TrackPointExtension/v1">
            <gpxtpx:hr>127</gpxtpx:hr>
          </gpxtpx:TrackPointExtension>
        </extensions>
      </trkpt>
      <trkpt lat="44.17295" lon="5.28539">
        <ele>1746</ele>
        <time>2021-06-12T10:15:01Z</time>
        <extensions>
          <gpxtpx:TrackPointExtension xmlns:gpxtpx="http://www.garmin.com/xmlschemas/TrackPointExtension/v1">
            <gpxtpx:hr>124</gpxtpx:hr>
          </gpxtpx:TrackPointExtension>
        </extensions>
      </trkpt>
      <trkpt lat="44.17292" lon="5.28544">
        <ele>1745.4</ele>
        <time>2021-06-12T10:15:04Z</time>
        <extensions>
          <gpxtpx:TrackPointExtension xmlns:gpxtpx="http://www.garmin.com/xmlschemas/TrackPointExtension/v1">
            <gpxtpx:hr>124</gpxtpx:hr>
          </gpxtpx:TrackPointExtension>
        </extensions>
      </trkpt>
      <trkpt lat="44.17289" lon="5.28552">
        <ele>1744.8</ele>
        <time>2021-06-12T10:15:09Z</time>
        <extensions>
          <gpxtpx:TrackPointExtension xmlns:gpxtpx="http://www.garmin.com/xmlschemas/TrackPointExtension/v1">
            <gpxtpx:hr>121</gpxtpx:hr>
          </gpxtpx:TrackPointExtension>
        </extensions>
      </trkpt>
      <trkpt lat="44.17287" lon="5.28556">
        <ele>1744.4</ele>
        <time>2021-06-12T10:15:11Z</time>
        <extensions>
          <gpxtpx:TrackPointExtension xmlns:gpxtpx="http://www.garmin.com/xmlschemas/TrackPointExtension/v1">
            <gpxtpx:hr>121</gpxtpx:hr>
          </gpxtpx:TrackPointExtension>
        </extensions>
      </trkpt>
      <trkpt lat="44.17286" lon="5.2856">
        <ele>1744</ele>
        <time>2021-06-12T10:15:13Z</time>
        <extensions>
          <gpxtpx:TrackPointExtension xmlns:gpxtpx="http://www.garmin.com/xmlschemas/TrackPointExtension/v1">
            <gpxtpx:hr>118</gpxtpx:hr>
          </gpxtpx:TrackPointExtension>
        </extensions>
      </trkpt>
      <trkpt lat="44.17281" lon="5.28568">
        <ele>1743.4</ele>
        <time>2021-06-12T10:15:18Z</time>
        <extensions>
          <gpxtpx:TrackPointExtension xmlns:gpxtpx="http://www.garmin.com/xmlschemas/TrackPointExtension/v1">
            <gpxtpx:hr>120</gpxtpx:hr>
          </gpxtpx:TrackPointExtension>
        </extensions>
      </trkpt>
      <trkpt lat="44.17278" lon="5.28575">
        <ele>1742.4</ele>
        <time>2021-06-12T10:15:22Z</time>
        <extensions>
          <gpxtpx:TrackPointExtension xmlns:gpxtpx="http://www.garmin.com/xmlschemas/TrackPointExtension/v1">
            <gpxtpx:hr>117</gpxtpx:hr>
          </gpxtpx:TrackPointExtension>
        </extensions>
      </trkpt>
      <trkpt lat="44.17276" lon="5.28582">
        <ele>1742.4</ele>
        <time>2021-06-12T10:15:25Z</time>
        <extensions>
          <gpxtpx:TrackPointExtension xmlns:gpxtpx="http://www.garmin.com/xmlschemas/TrackPointExtension/v1">
            <gpxtpx:hr>114</gpxtpx:hr>
          </gpxtpx:TrackPointExtension>
        </extensions>
      </trkpt>
      <trkpt lat="44.17275" lon="5.28589">
        <ele>1742.2</ele>
        <time>2021-06-12T10:15:29Z</time>
        <extensions>
          <gpxtpx:TrackPointExtension xmlns:gpxtpx="http://www.garmin.com/xmlschemas/TrackPointExtension/v1">
            <gpxtpx:hr>115</gpxtpx:hr>
          </gpxtpx:TrackPointExtension>
        </extensions>
      </trkpt>
      <trkpt lat="44.17272" lon="5.286">
        <ele>1741.2</ele>
        <time>2021-06-12T10:15:34Z</time>
        <extensions>
          <gpxtpx:TrackPointExtension xmlns:gpxtpx="http://www.garmin.com/xmlschemas/TrackPointExtension/v1">
            <gpxtpx:hr>115</gpxtpx:hr>
          </gpxtpx:TrackPointExtension>
        </extensions>
      </trkpt>
      <trkpt lat="44.17269" lon="5.28609">
        <ele>1741.2</ele>
        <time>2021-06-12T10:15:39Z</time>
        <extensions>
          <gpxtpx:TrackPointExtension xmlns:gpxtpx="http://www.garmin.com/xmlschemas/TrackPointExtension/v1">
            <gpxtpx:hr>118</gpxtpx:hr>
          </gpxtpx:TrackPointExtension>
        </extensions>
      </trkpt>
      <trkpt lat="44.17265" lon="5.28623">
        <ele>1741.4</ele>
        <time>2021-06-12T10:15:46Z</time>
        <extensions>
          <gpxtpx:TrackPointExtension xmlns:gpxtpx="http://www.garmin.com/xmlschemas/TrackPointExtension/v1">
            <gpxtpx:hr>115</gpxtpx:hr>
          </gpxtpx:TrackPointExtension>
        </extensions>
      </trkpt>
      <trkpt lat="44.1726" lon="5.28648">
        <ele>1741</ele>
        <time>2021-06-12T10:15:59Z</time>
        <extensions>
          <gpxtpx:TrackPointExtension xmlns:gpxtpx="http://www.garmin.com/xmlschemas/TrackPointExtension/v1">
            <gpxtpx:hr>115</gpxtpx:hr>
          </gpxtpx:TrackPointExtension>
        </extensions>
      </trkpt>
      <trkpt lat="44.17258" lon="5.28658">
        <ele>1740.4</ele>
        <time>2021-06-12T10:16:03Z</time>
        <extensions>
          <gpxtpx:TrackPointExtension xmlns:gpxtpx="http://www.garmin.com/xmlschemas/TrackPointExtension/v1">
            <gpxtpx:hr>118</gpxtpx:hr>
          </gpxtpx:TrackPointExtension>
        </extensions>
      </trkpt>
      <trkpt lat="44.17258" lon="5.28659">
        <ele>1740.2</ele>
        <time>2021-06-12T10:16:04Z</time>
        <extensions>
          <gpxtpx:TrackPointExtension xmlns:gpxtpx="http://www.garmin.com/xmlschemas/TrackPointExtension/v1">
            <gpxtpx:hr>119</gpxtpx:hr>
          </gpxtpx:TrackPointExtension>
        </extensions>
      </trkpt>
      <trkpt lat="44.17258" lon="5.28665">
        <ele>1739.8</ele>
        <time>2021-06-12T10:16:07Z</time>
        <extensions>
          <gpxtpx:TrackPointExtension xmlns:gpxtpx="http://www.garmin.com/xmlschemas/TrackPointExtension/v1">
            <gpxtpx:hr>116</gpxtpx:hr>
          </gpxtpx:TrackPointExtension>
        </extensions>
      </trkpt>
      <trkpt lat="44.17257" lon="5.28672">
        <ele>1739.4</ele>
        <time>2021-06-12T10:16:10Z</time>
        <extensions>
          <gpxtpx:TrackPointExtension xmlns:gpxtpx="http://www.garmin.com/xmlschemas/TrackPointExtension/v1">
            <gpxtpx:hr>113</gpxtpx:hr>
          </gpxtpx:TrackPointExtension>
        </extensions>
      </trkpt>
      <trkpt lat="44.17257" lon="5.28687">
        <ele>1739.6</ele>
        <time>2021-06-12T10:16:17Z</time>
        <extensions>
          <gpxtpx:TrackPointExtension xmlns:gpxtpx="http://www.garmin.com/xmlschemas/TrackPointExtension/v1">
            <gpxtpx:hr>116</gpxtpx:hr>
          </gpxtpx:TrackPointExtension>
        </extensions>
      </trkpt>
      <trkpt lat="44.17254" lon="5.28703">
        <ele>1739</ele>
        <time>2021-06-12T10:16:25Z</time>
        <extensions>
          <gpxtpx:TrackPointExtension xmlns:gpxtpx="http://www.garmin.com/xmlschemas/TrackPointExtension/v1">
            <gpxtpx:hr>117</gpxtpx:hr>
          </gpxtpx:TrackPointExtension>
        </extensions>
      </trkpt>
      <trkpt lat="44.17253" lon="5.28714">
        <ele>1738.6</ele>
        <time>2021-06-12T10:16:30Z</time>
        <extensions>
          <gpxtpx:TrackPointExtension xmlns:gpxtpx="http://www.garmin.com/xmlschemas/TrackPointExtension/v1">
            <gpxtpx:hr>112</gpxtpx:hr>
          </gpxtpx:TrackPointExtension>
        </extensions>
      </trkpt>
      <trkpt lat="44.17253" lon="5.28718">
        <ele>1738.8</ele>
        <time>2021-06-12T10:16:32Z</time>
        <extensions>
          <gpxtpx:TrackPointExtension xmlns:gpxtpx="http://www.garmin.com/xmlschemas/TrackPointExtension/v1">
            <gpxtpx:hr>109</gpxtpx:hr>
          </gpxtpx:TrackPointExtension>
        </extensions>
      </trkpt>
      <trkpt lat="44.17253" lon="5.28725">
        <ele>1739.4</ele>
        <time>2021-06-12T10:16:35Z</time>
        <extensions>
          <gpxtpx:TrackPointExtension xmlns:gpxtpx="http://www.garmin.com/xmlschemas/TrackPointExtension/v1">
            <gpxtpx:hr>112</gpxtpx:hr>
          </gpxtpx:TrackPointExtension>
        </extensions>
      </trkpt>
      <trkpt lat="44.17253" lon="5.28729">
        <ele>1739.4</ele>
        <time>2021-06-12T10:16:37Z</time>
        <extensions>
          <gpxtpx:TrackPointExtension xmlns:gpxtpx="http://www.garmin.com/xmlschemas/TrackPointExtension/v1">
            <gpxtpx:hr>115</gpxtpx:hr>
          </gpxtpx:TrackPointExtension>
        </extensions>
      </trkpt>
      <trkpt lat="44.17253" lon="5.28753">
        <ele>1738.6</ele>
        <time>2021-06-12T10:16:49Z</time>
        <extensions>
          <gpxtpx:TrackPointExtension xmlns:gpxtpx="http://www.garmin.com/xmlschemas/TrackPointExtension/v1">
            <gpxtpx:hr>118</gpxtpx:hr>
          </gpxtpx:TrackPointExtension>
        </extensions>
      </trkpt>
      <trkpt lat="44.17253" lon="5.28757">
        <ele>1738.6</ele>
        <time>2021-06-12T10:16:51Z</time>
        <extensions>
          <gpxtpx:TrackPointExtension xmlns:gpxtpx="http://www.garmin.com/xmlschemas/TrackPointExtension/v1">
            <gpxtpx:hr>118</gpxtpx:hr>
          </gpxtpx:TrackPointExtension>
        </extensions>
      </trkpt>
      <trkpt lat="44.17256" lon="5.28782">
        <ele>1739.4</ele>
        <time>2021-06-12T10:17:04Z</time>
        <extensions>
          <gpxtpx:TrackPointExtension xmlns:gpxtpx="http://www.garmin.com/xmlschemas/TrackPointExtension/v1">
            <gpxtpx:hr>117</gpxtpx:hr>
          </gpxtpx:TrackPointExtension>
        </extensions>
      </trkpt>
      <trkpt lat="44.17257" lon="5.28784">
        <ele>1739.4</ele>
        <time>2021-06-12T10:17:05Z</time>
        <extensions>
          <gpxtpx:TrackPointExtension xmlns:gpxtpx="http://www.garmin.com/xmlschemas/TrackPointExtension/v1">
            <gpxtpx:hr>117</gpxtpx:hr>
          </gpxtpx:TrackPointExtension>
        </extensions>
      </trkpt>
      <trkpt lat="44.1726" lon="5.28809">
        <ele>1739.8</ele>
        <time>2021-06-12T10:17:18Z</time>
        <extensions>
          <gpxtpx:TrackPointExtension xmlns:gpxtpx="http://www.garmin.com/xmlschemas/TrackPointExtension/v1">
            <gpxtpx:hr>117</gpxtpx:hr>
          </gpxtpx:TrackPointExtension>
        </extensions>
      </trkpt>
      <trkpt lat="44.17259" lon="5.28813">
        <ele>1740</ele>
        <time>2021-06-12T10:17:20Z</time>
        <extensions>
          <gpxtpx:TrackPointExtension xmlns:gpxtpx="http://www.garmin.com/xmlschemas/TrackPointExtension/v1">
            <gpxtpx:hr>118</gpxtpx:hr>
          </gpxtpx:TrackPointExtension>
        </extensions>
      </trkpt>
      <trkpt lat="44.17261" lon="5.28838">
        <ele>1739.8</ele>
        <time>2021-06-12T10:17:32Z</time>
        <extensions>
          <gpxtpx:TrackPointExtension xmlns:gpxtpx="http://www.garmin.com/xmlschemas/TrackPointExtension/v1">
            <gpxtpx:hr>118</gpxtpx:hr>
          </gpxtpx:TrackPointExtension>
        </extensions>
      </trkpt>
      <trkpt lat="44.17261" lon="5.28864">
        <ele>1739.8</ele>
        <time>2021-06-12T10:17:45Z</time>
        <extensions>
          <gpxtpx:TrackPointExtension xmlns:gpxtpx="http://www.garmin.com/xmlschemas/TrackPointExtension/v1">
            <gpxtpx:hr>118</gpxtpx:hr>
          </gpxtpx:TrackPointExtension>
        </extensions>
      </trkpt>
      <trkpt lat="44.17257" lon="5.28889">
        <ele>1740.8</ele>
        <time>2021-06-12T10:17:57Z</time>
        <extensions>
          <gpxtpx:TrackPointExtension xmlns:gpxtpx="http://www.garmin.com/xmlschemas/TrackPointExtension/v1">
            <gpxtpx:hr>118</gpxtpx:hr>
          </gpxtpx:TrackPointExtension>
        </extensions>
      </trkpt>
      <trkpt lat="44.17249" lon="5.28913">
        <ele>1739.4</ele>
        <time>2021-06-12T10:18:10Z</time>
        <extensions>
          <gpxtpx:TrackPointExtension xmlns:gpxtpx="http://www.garmin.com/xmlschemas/TrackPointExtension/v1">
            <gpxtpx:hr>119</gpxtpx:hr>
          </gpxtpx:TrackPointExtension>
        </extensions>
      </trkpt>
      <trkpt lat="44.17239" lon="5.28935">
        <ele>1740</ele>
        <time>2021-06-12T10:18:23Z</time>
        <extensions>
          <gpxtpx:TrackPointExtension xmlns:gpxtpx="http://www.garmin.com/xmlschemas/TrackPointExtension/v1">
            <gpxtpx:hr>120</gpxtpx:hr>
          </gpxtpx:TrackPointExtension>
        </extensions>
      </trkpt>
      <trkpt lat="44.1723" lon="5.28958">
        <ele>1740.8</ele>
        <time>2021-06-12T10:18:36Z</time>
        <extensions>
          <gpxtpx:TrackPointExtension xmlns:gpxtpx="http://www.garmin.com/xmlschemas/TrackPointExtension/v1">
            <gpxtpx:hr>122</gpxtpx:hr>
          </gpxtpx:TrackPointExtension>
        </extensions>
      </trkpt>
      <trkpt lat="44.17217" lon="5.28977">
        <ele>1740.4</ele>
        <time>2021-06-12T10:18:49Z</time>
        <extensions>
          <gpxtpx:TrackPointExtension xmlns:gpxtpx="http://www.garmin.com/xmlschemas/TrackPointExtension/v1">
            <gpxtpx:hr>122</gpxtpx:hr>
          </gpxtpx:TrackPointExtension>
        </extensions>
      </trkpt>
      <trkpt lat="44.172" lon="5.28993">
        <ele>1740</ele>
        <time>2021-06-12T10:19:02Z</time>
        <extensions>
          <gpxtpx:TrackPointExtension xmlns:gpxtpx="http://www.garmin.com/xmlschemas/TrackPointExtension/v1">
            <gpxtpx:hr>121</gpxtpx:hr>
          </gpxtpx:TrackPointExtension>
        </extensions>
      </trkpt>
      <trkpt lat="44.17194" lon="5.29013">
        <ele>1739</ele>
        <time>2021-06-12T10:19:12Z</time>
        <extensions>
          <gpxtpx:TrackPointExtension xmlns:gpxtpx="http://www.garmin.com/xmlschemas/TrackPointExtension/v1">
            <gpxtpx:hr>118</gpxtpx:hr>
          </gpxtpx:TrackPointExtension>
        </extensions>
      </trkpt>
      <trkpt lat="44.17185" lon="5.29025">
        <ele>1738.8</ele>
        <time>2021-06-12T10:19:20Z</time>
        <extensions>
          <gpxtpx:TrackPointExtension xmlns:gpxtpx="http://www.garmin.com/xmlschemas/TrackPointExtension/v1">
            <gpxtpx:hr>118</gpxtpx:hr>
          </gpxtpx:TrackPointExtension>
        </extensions>
      </trkpt>
      <trkpt lat="44.17179" lon="5.29032">
        <ele>1737.8</ele>
        <time>2021-06-12T10:19:25Z</time>
        <extensions>
          <gpxtpx:TrackPointExtension xmlns:gpxtpx="http://www.garmin.com/xmlschemas/TrackPointExtension/v1">
            <gpxtpx:hr>116</gpxtpx:hr>
          </gpxtpx:TrackPointExtension>
        </extensions>
      </trkpt>
      <trkpt lat="44.17175" lon="5.29038">
        <ele>1736.2</ele>
        <time>2021-06-12T10:19:29Z</time>
        <extensions>
          <gpxtpx:TrackPointExtension xmlns:gpxtpx="http://www.garmin.com/xmlschemas/TrackPointExtension/v1">
            <gpxtpx:hr>117</gpxtpx:hr>
          </gpxtpx:TrackPointExtension>
        </extensions>
      </trkpt>
      <trkpt lat="44.17172" lon="5.29041">
        <ele>1735.2</ele>
        <time>2021-06-12T10:19:31Z</time>
        <extensions>
          <gpxtpx:TrackPointExtension xmlns:gpxtpx="http://www.garmin.com/xmlschemas/TrackPointExtension/v1">
            <gpxtpx:hr>117</gpxtpx:hr>
          </gpxtpx:TrackPointExtension>
        </extensions>
      </trkpt>
      <trkpt lat="44.17169" lon="5.29045">
        <ele>1734</ele>
        <time>2021-06-12T10:19:34Z</time>
        <extensions>
          <gpxtpx:TrackPointExtension xmlns:gpxtpx="http://www.garmin.com/xmlschemas/TrackPointExtension/v1">
            <gpxtpx:hr>116</gpxtpx:hr>
          </gpxtpx:TrackPointExtension>
        </extensions>
      </trkpt>
      <trkpt lat="44.17166" lon="5.29049">
        <ele>1732.6</ele>
        <time>2021-06-12T10:19:37Z</time>
        <extensions>
          <gpxtpx:TrackPointExtension xmlns:gpxtpx="http://www.garmin.com/xmlschemas/TrackPointExtension/v1">
            <gpxtpx:hr>117</gpxtpx:hr>
          </gpxtpx:TrackPointExtension>
        </extensions>
      </trkpt>
      <trkpt lat="44.17162" lon="5.29052">
        <ele>1731.4</ele>
        <time>2021-06-12T10:19:40Z</time>
        <extensions>
          <gpxtpx:TrackPointExtension xmlns:gpxtpx="http://www.garmin.com/xmlschemas/TrackPointExtension/v1">
            <gpxtpx:hr>117</gpxtpx:hr>
          </gpxtpx:TrackPointExtension>
        </extensions>
      </trkpt>
      <trkpt lat="44.17157" lon="5.29058">
        <ele>1730.2</ele>
        <time>2021-06-12T10:19:45Z</time>
        <extensions>
          <gpxtpx:TrackPointExtension xmlns:gpxtpx="http://www.garmin.com/xmlschemas/TrackPointExtension/v1">
            <gpxtpx:hr>115</gpxtpx:hr>
          </gpxtpx:TrackPointExtension>
        </extensions>
      </trkpt>
      <trkpt lat="44.17152" lon="5.29066">
        <ele>1729</ele>
        <time>2021-06-12T10:19:50Z</time>
        <extensions>
          <gpxtpx:TrackPointExtension xmlns:gpxtpx="http://www.garmin.com/xmlschemas/TrackPointExtension/v1">
            <gpxtpx:hr>114</gpxtpx:hr>
          </gpxtpx:TrackPointExtension>
        </extensions>
      </trkpt>
      <trkpt lat="44.1715" lon="5.29068">
        <ele>1728.2</ele>
        <time>2021-06-12T10:19:52Z</time>
        <extensions>
          <gpxtpx:TrackPointExtension xmlns:gpxtpx="http://www.garmin.com/xmlschemas/TrackPointExtension/v1">
            <gpxtpx:hr>117</gpxtpx:hr>
          </gpxtpx:TrackPointExtension>
        </extensions>
      </trkpt>
      <trkpt lat="44.1715" lon="5.2907">
        <ele>1727.6</ele>
        <time>2021-06-12T10:19:53Z</time>
        <extensions>
          <gpxtpx:TrackPointExtension xmlns:gpxtpx="http://www.garmin.com/xmlschemas/TrackPointExtension/v1">
            <gpxtpx:hr>118</gpxtpx:hr>
          </gpxtpx:TrackPointExtension>
        </extensions>
      </trkpt>
      <trkpt lat="44.17147" lon="5.29074">
        <ele>1726.6</ele>
        <time>2021-06-12T10:19:56Z</time>
        <extensions>
          <gpxtpx:TrackPointExtension xmlns:gpxtpx="http://www.garmin.com/xmlschemas/TrackPointExtension/v1">
            <gpxtpx:hr>120</gpxtpx:hr>
          </gpxtpx:TrackPointExtension>
        </extensions>
      </trkpt>
      <trkpt lat="44.17143" lon="5.29081">
        <ele>1725.4</ele>
        <time>2021-06-12T10:20:00Z</time>
        <extensions>
          <gpxtpx:TrackPointExtension xmlns:gpxtpx="http://www.garmin.com/xmlschemas/TrackPointExtension/v1">
            <gpxtpx:hr>118</gpxtpx:hr>
          </gpxtpx:TrackPointExtension>
        </extensions>
      </trkpt>
      <trkpt lat="44.17142" lon="5.29086">
        <ele>1724.2</ele>
        <time>2021-06-12T10:20:02Z</time>
        <extensions>
          <gpxtpx:TrackPointExtension xmlns:gpxtpx="http://www.garmin.com/xmlschemas/TrackPointExtension/v1">
            <gpxtpx:hr>116</gpxtpx:hr>
          </gpxtpx:TrackPointExtension>
        </extensions>
      </trkpt>
      <trkpt lat="44.17141" lon="5.29093">
        <ele>1723</ele>
        <time>2021-06-12T10:20:05Z</time>
        <extensions>
          <gpxtpx:TrackPointExtension xmlns:gpxtpx="http://www.garmin.com/xmlschemas/TrackPointExtension/v1">
            <gpxtpx:hr>117</gpxtpx:hr>
          </gpxtpx:TrackPointExtension>
        </extensions>
      </trkpt>
      <trkpt lat="44.17135" lon="5.29101">
        <ele>1722</ele>
        <time>2021-06-12T10:20:09Z</time>
        <extensions>
          <gpxtpx:TrackPointExtension xmlns:gpxtpx="http://www.garmin.com/xmlschemas/TrackPointExtension/v1">
            <gpxtpx:hr>119</gpxtpx:hr>
          </gpxtpx:TrackPointExtension>
        </extensions>
      </trkpt>
      <trkpt lat="44.17129" lon="5.29108">
        <ele>1721</ele>
        <time>2021-06-12T10:20:14Z</time>
        <extensions>
          <gpxtpx:TrackPointExtension xmlns:gpxtpx="http://www.garmin.com/xmlschemas/TrackPointExtension/v1">
            <gpxtpx:hr>119</gpxtpx:hr>
          </gpxtpx:TrackPointExtension>
        </extensions>
      </trkpt>
      <trkpt lat="44.17125" lon="5.29114">
        <ele>1719.8</ele>
        <time>2021-06-12T10:20:18Z</time>
        <extensions>
          <gpxtpx:TrackPointExtension xmlns:gpxtpx="http://www.garmin.com/xmlschemas/TrackPointExtension/v1">
            <gpxtpx:hr>120</gpxtpx:hr>
          </gpxtpx:TrackPointExtension>
        </extensions>
      </trkpt>
      <trkpt lat="44.17121" lon="5.29119">
        <ele>1718.4</ele>
        <time>2021-06-12T10:20:22Z</time>
        <extensions>
          <gpxtpx:TrackPointExtension xmlns:gpxtpx="http://www.garmin.com/xmlschemas/TrackPointExtension/v1">
            <gpxtpx:hr>120</gpxtpx:hr>
          </gpxtpx:TrackPointExtension>
        </extensions>
      </trkpt>
      <trkpt lat="44.17117" lon="5.29128">
        <ele>1717.4</ele>
        <time>2021-06-12T10:20:28Z</time>
        <extensions>
          <gpxtpx:TrackPointExtension xmlns:gpxtpx="http://www.garmin.com/xmlschemas/TrackPointExtension/v1">
            <gpxtpx:hr>118</gpxtpx:hr>
          </gpxtpx:TrackPointExtension>
        </extensions>
      </trkpt>
      <trkpt lat="44.17113" lon="5.29134">
        <ele>1716.2</ele>
        <time>2021-06-12T10:20:32Z</time>
        <extensions>
          <gpxtpx:TrackPointExtension xmlns:gpxtpx="http://www.garmin.com/xmlschemas/TrackPointExtension/v1">
            <gpxtpx:hr>118</gpxtpx:hr>
          </gpxtpx:TrackPointExtension>
        </extensions>
      </trkpt>
      <trkpt lat="44.17105" lon="5.29142">
        <ele>1715.2</ele>
        <time>2021-06-12T10:20:38Z</time>
        <extensions>
          <gpxtpx:TrackPointExtension xmlns:gpxtpx="http://www.garmin.com/xmlschemas/TrackPointExtension/v1">
            <gpxtpx:hr>119</gpxtpx:hr>
          </gpxtpx:TrackPointExtension>
        </extensions>
      </trkpt>
      <trkpt lat="44.17098" lon="5.29147">
        <ele>1714</ele>
        <time>2021-06-12T10:20:43Z</time>
        <extensions>
          <gpxtpx:TrackPointExtension xmlns:gpxtpx="http://www.garmin.com/xmlschemas/TrackPointExtension/v1">
            <gpxtpx:hr>119</gpxtpx:hr>
          </gpxtpx:TrackPointExtension>
        </extensions>
      </trkpt>
      <trkpt lat="44.17091" lon="5.29157">
        <ele>1713</ele>
        <time>2021-06-12T10:20:48Z</time>
        <extensions>
          <gpxtpx:TrackPointExtension xmlns:gpxtpx="http://www.garmin.com/xmlschemas/TrackPointExtension/v1">
            <gpxtpx:hr>117</gpxtpx:hr>
          </gpxtpx:TrackPointExtension>
        </extensions>
      </trkpt>
      <trkpt lat="44.17086" lon="5.29163">
        <ele>1712</ele>
        <time>2021-06-12T10:20:52Z</time>
        <extensions>
          <gpxtpx:TrackPointExtension xmlns:gpxtpx="http://www.garmin.com/xmlschemas/TrackPointExtension/v1">
            <gpxtpx:hr>117</gpxtpx:hr>
          </gpxtpx:TrackPointExtension>
        </extensions>
      </trkpt>
      <trkpt lat="44.17081" lon="5.29167">
        <ele>1710.8</ele>
        <time>2021-06-12T10:20:56Z</time>
        <extensions>
          <gpxtpx:TrackPointExtension xmlns:gpxtpx="http://www.garmin.com/xmlschemas/TrackPointExtension/v1">
            <gpxtpx:hr>116</gpxtpx:hr>
          </gpxtpx:TrackPointExtension>
        </extensions>
      </trkpt>
      <trkpt lat="44.17078" lon="5.29169">
        <ele>1710.4</ele>
        <time>2021-06-12T10:20:58Z</time>
        <extensions>
          <gpxtpx:TrackPointExtension xmlns:gpxtpx="http://www.garmin.com/xmlschemas/TrackPointExtension/v1">
            <gpxtpx:hr>113</gpxtpx:hr>
          </gpxtpx:TrackPointExtension>
        </extensions>
      </trkpt>
      <trkpt lat="44.17074" lon="5.29173">
        <ele>1709.8</ele>
        <time>2021-06-12T10:21:01Z</time>
        <extensions>
          <gpxtpx:TrackPointExtension xmlns:gpxtpx="http://www.garmin.com/xmlschemas/TrackPointExtension/v1">
            <gpxtpx:hr>112</gpxtpx:hr>
          </gpxtpx:TrackPointExtension>
        </extensions>
      </trkpt>
      <trkpt lat="44.17072" lon="5.29174">
        <ele>1709.2</ele>
        <time>2021-06-12T10:21:03Z</time>
        <extensions>
          <gpxtpx:TrackPointExtension xmlns:gpxtpx="http://www.garmin.com/xmlschemas/TrackPointExtension/v1">
            <gpxtpx:hr>115</gpxtpx:hr>
          </gpxtpx:TrackPointExtension>
        </extensions>
      </trkpt>
      <trkpt lat="44.17069" lon="5.29179">
        <ele>1708.6</ele>
        <time>2021-06-12T10:21:06Z</time>
        <extensions>
          <gpxtpx:TrackPointExtension xmlns:gpxtpx="http://www.garmin.com/xmlschemas/TrackPointExtension/v1">
            <gpxtpx:hr>116</gpxtpx:hr>
          </gpxtpx:TrackPointExtension>
        </extensions>
      </trkpt>
      <trkpt lat="44.17063" lon="5.29185">
        <ele>1707.6</ele>
        <time>2021-06-12T10:21:10Z</time>
        <extensions>
          <gpxtpx:TrackPointExtension xmlns:gpxtpx="http://www.garmin.com/xmlschemas/TrackPointExtension/v1">
            <gpxtpx:hr>114</gpxtpx:hr>
          </gpxtpx:TrackPointExtension>
        </extensions>
      </trkpt>
      <trkpt lat="44.17059" lon="5.2919">
        <ele>1706.6</ele>
        <time>2021-06-12T10:21:15Z</time>
        <extensions>
          <gpxtpx:TrackPointExtension xmlns:gpxtpx="http://www.garmin.com/xmlschemas/TrackPointExtension/v1">
            <gpxtpx:hr>115</gpxtpx:hr>
          </gpxtpx:TrackPointExtension>
        </extensions>
      </trkpt>
      <trkpt lat="44.1705" lon="5.29196">
        <ele>1705.6</ele>
        <time>2021-06-12T10:21:22Z</time>
        <extensions>
          <gpxtpx:TrackPointExtension xmlns:gpxtpx="http://www.garmin.com/xmlschemas/TrackPointExtension/v1">
            <gpxtpx:hr>114</gpxtpx:hr>
          </gpxtpx:TrackPointExtension>
        </extensions>
      </trkpt>
      <trkpt lat="44.17044" lon="5.29201">
        <ele>1704.2</ele>
        <time>2021-06-12T10:21:27Z</time>
        <extensions>
          <gpxtpx:TrackPointExtension xmlns:gpxtpx="http://www.garmin.com/xmlschemas/TrackPointExtension/v1">
            <gpxtpx:hr>115</gpxtpx:hr>
          </gpxtpx:TrackPointExtension>
        </extensions>
      </trkpt>
      <trkpt lat="44.17039" lon="5.29205">
        <ele>1703.2</ele>
        <time>2021-06-12T10:21:31Z</time>
        <extensions>
          <gpxtpx:TrackPointExtension xmlns:gpxtpx="http://www.garmin.com/xmlschemas/TrackPointExtension/v1">
            <gpxtpx:hr>112</gpxtpx:hr>
          </gpxtpx:TrackPointExtension>
        </extensions>
      </trkpt>
      <trkpt lat="44.17037" lon="5.29206">
        <ele>1703</ele>
        <time>2021-06-12T10:21:32Z</time>
        <extensions>
          <gpxtpx:TrackPointExtension xmlns:gpxtpx="http://www.garmin.com/xmlschemas/TrackPointExtension/v1">
            <gpxtpx:hr>112</gpxtpx:hr>
          </gpxtpx:TrackPointExtension>
        </extensions>
      </trkpt>
      <trkpt lat="44.17032" lon="5.2921">
        <ele>1701.8</ele>
        <time>2021-06-12T10:21:36Z</time>
        <extensions>
          <gpxtpx:TrackPointExtension xmlns:gpxtpx="http://www.garmin.com/xmlschemas/TrackPointExtension/v1">
            <gpxtpx:hr>114</gpxtpx:hr>
          </gpxtpx:TrackPointExtension>
        </extensions>
      </trkpt>
      <trkpt lat="44.17028" lon="5.29212">
        <ele>1700.8</ele>
        <time>2021-06-12T10:21:39Z</time>
        <extensions>
          <gpxtpx:TrackPointExtension xmlns:gpxtpx="http://www.garmin.com/xmlschemas/TrackPointExtension/v1">
            <gpxtpx:hr>115</gpxtpx:hr>
          </gpxtpx:TrackPointExtension>
        </extensions>
      </trkpt>
      <trkpt lat="44.17022" lon="5.29216">
        <ele>1699.8</ele>
        <time>2021-06-12T10:21:43Z</time>
        <extensions>
          <gpxtpx:TrackPointExtension xmlns:gpxtpx="http://www.garmin.com/xmlschemas/TrackPointExtension/v1">
            <gpxtpx:hr>112</gpxtpx:hr>
          </gpxtpx:TrackPointExtension>
        </extensions>
      </trkpt>
      <trkpt lat="44.1702" lon="5.29218">
        <ele>1699.8</ele>
        <time>2021-06-12T10:21:45Z</time>
        <extensions>
          <gpxtpx:TrackPointExtension xmlns:gpxtpx="http://www.garmin.com/xmlschemas/TrackPointExtension/v1">
            <gpxtpx:hr>112</gpxtpx:hr>
          </gpxtpx:TrackPointExtension>
        </extensions>
      </trkpt>
      <trkpt lat="44.1701" lon="5.29223">
        <ele>1699.4</ele>
        <time>2021-06-12T10:21:52Z</time>
        <extensions>
          <gpxtpx:TrackPointExtension xmlns:gpxtpx="http://www.garmin.com/xmlschemas/TrackPointExtension/v1">
            <gpxtpx:hr>113</gpxtpx:hr>
          </gpxtpx:TrackPointExtension>
        </extensions>
      </trkpt>
      <trkpt lat="44.17002" lon="5.29232">
        <ele>1699.2</ele>
        <time>2021-06-12T10:21:59Z</time>
        <extensions>
          <gpxtpx:TrackPointExtension xmlns:gpxtpx="http://www.garmin.com/xmlschemas/TrackPointExtension/v1">
            <gpxtpx:hr>111</gpxtpx:hr>
          </gpxtpx:TrackPointExtension>
        </extensions>
      </trkpt>
      <trkpt lat="44.17" lon="5.29235">
        <ele>1698.6</ele>
        <time>2021-06-12T10:22:01Z</time>
        <extensions>
          <gpxtpx:TrackPointExtension xmlns:gpxtpx="http://www.garmin.com/xmlschemas/TrackPointExtension/v1">
            <gpxtpx:hr>110</gpxtpx:hr>
          </gpxtpx:TrackPointExtension>
        </extensions>
      </trkpt>
      <trkpt lat="44.16991" lon="5.2925">
        <ele>1697.4</ele>
        <time>2021-06-12T10:22:10Z</time>
        <extensions>
          <gpxtpx:TrackPointExtension xmlns:gpxtpx="http://www.garmin.com/xmlschemas/TrackPointExtension/v1">
            <gpxtpx:hr>109</gpxtpx:hr>
          </gpxtpx:TrackPointExtension>
        </extensions>
      </trkpt>
      <trkpt lat="44.16986" lon="5.29257">
        <ele>1697.2</ele>
        <time>2021-06-12T10:22:14Z</time>
        <extensions>
          <gpxtpx:TrackPointExtension xmlns:gpxtpx="http://www.garmin.com/xmlschemas/TrackPointExtension/v1">
            <gpxtpx:hr>112</gpxtpx:hr>
          </gpxtpx:TrackPointExtension>
        </extensions>
      </trkpt>
      <trkpt lat="44.16982" lon="5.29262">
        <ele>1696.4</ele>
        <time>2021-06-12T10:22:17Z</time>
        <extensions>
          <gpxtpx:TrackPointExtension xmlns:gpxtpx="http://www.garmin.com/xmlschemas/TrackPointExtension/v1">
            <gpxtpx:hr>112</gpxtpx:hr>
          </gpxtpx:TrackPointExtension>
        </extensions>
      </trkpt>
      <trkpt lat="44.16979" lon="5.29265">
        <ele>1695.8</ele>
        <time>2021-06-12T10:22:19Z</time>
        <extensions>
          <gpxtpx:TrackPointExtension xmlns:gpxtpx="http://www.garmin.com/xmlschemas/TrackPointExtension/v1">
            <gpxtpx:hr>109</gpxtpx:hr>
          </gpxtpx:TrackPointExtension>
        </extensions>
      </trkpt>
      <trkpt lat="44.16976" lon="5.29272">
        <ele>1695.2</ele>
        <time>2021-06-12T10:22:23Z</time>
        <extensions>
          <gpxtpx:TrackPointExtension xmlns:gpxtpx="http://www.garmin.com/xmlschemas/TrackPointExtension/v1">
            <gpxtpx:hr>108</gpxtpx:hr>
          </gpxtpx:TrackPointExtension>
        </extensions>
      </trkpt>
      <trkpt lat="44.16973" lon="5.2928">
        <ele>1694.2</ele>
        <time>2021-06-12T10:22:27Z</time>
        <extensions>
          <gpxtpx:TrackPointExtension xmlns:gpxtpx="http://www.garmin.com/xmlschemas/TrackPointExtension/v1">
            <gpxtpx:hr>109</gpxtpx:hr>
          </gpxtpx:TrackPointExtension>
        </extensions>
      </trkpt>
      <trkpt lat="44.16969" lon="5.29287">
        <ele>1693.8</ele>
        <time>2021-06-12T10:22:31Z</time>
        <extensions>
          <gpxtpx:TrackPointExtension xmlns:gpxtpx="http://www.garmin.com/xmlschemas/TrackPointExtension/v1">
            <gpxtpx:hr>112</gpxtpx:hr>
          </gpxtpx:TrackPointExtension>
        </extensions>
      </trkpt>
      <trkpt lat="44.16966" lon="5.29293">
        <ele>1693.8</ele>
        <time>2021-06-12T10:22:35Z</time>
        <extensions>
          <gpxtpx:TrackPointExtension xmlns:gpxtpx="http://www.garmin.com/xmlschemas/TrackPointExtension/v1">
            <gpxtpx:hr>107</gpxtpx:hr>
          </gpxtpx:TrackPointExtension>
        </extensions>
      </trkpt>
      <trkpt lat="44.16965" lon="5.29295">
        <ele>1693.8</ele>
        <time>2021-06-12T10:22:36Z</time>
        <extensions>
          <gpxtpx:TrackPointExtension xmlns:gpxtpx="http://www.garmin.com/xmlschemas/TrackPointExtension/v1">
            <gpxtpx:hr>104</gpxtpx:hr>
          </gpxtpx:TrackPointExtension>
        </extensions>
      </trkpt>
      <trkpt lat="44.16964" lon="5.29296">
        <ele>1693.8</ele>
        <time>2021-06-12T10:22:37Z</time>
        <extensions>
          <gpxtpx:TrackPointExtension xmlns:gpxtpx="http://www.garmin.com/xmlschemas/TrackPointExtension/v1">
            <gpxtpx:hr>104</gpxtpx:hr>
          </gpxtpx:TrackPointExtension>
        </extensions>
      </trkpt>
      <trkpt lat="44.16962" lon="5.293">
        <ele>1693.2</ele>
        <time>2021-06-12T10:22:39Z</time>
        <extensions>
          <gpxtpx:TrackPointExtension xmlns:gpxtpx="http://www.garmin.com/xmlschemas/TrackPointExtension/v1">
            <gpxtpx:hr>106</gpxtpx:hr>
          </gpxtpx:TrackPointExtension>
        </extensions>
      </trkpt>
      <trkpt lat="44.16961" lon="5.29303">
        <ele>1692.6</ele>
        <time>2021-06-12T10:22:41Z</time>
        <extensions>
          <gpxtpx:TrackPointExtension xmlns:gpxtpx="http://www.garmin.com/xmlschemas/TrackPointExtension/v1">
            <gpxtpx:hr>109</gpxtpx:hr>
          </gpxtpx:TrackPointExtension>
        </extensions>
      </trkpt>
      <trkpt lat="44.1696" lon="5.29309">
        <ele>1692</ele>
        <time>2021-06-12T10:22:44Z</time>
        <extensions>
          <gpxtpx:TrackPointExtension xmlns:gpxtpx="http://www.garmin.com/xmlschemas/TrackPointExtension/v1">
            <gpxtpx:hr>111</gpxtpx:hr>
          </gpxtpx:TrackPointExtension>
        </extensions>
      </trkpt>
      <trkpt lat="44.16959" lon="5.29316">
        <ele>1691.4</ele>
        <time>2021-06-12T10:22:47Z</time>
        <extensions>
          <gpxtpx:TrackPointExtension xmlns:gpxtpx="http://www.garmin.com/xmlschemas/TrackPointExtension/v1">
            <gpxtpx:hr>108</gpxtpx:hr>
          </gpxtpx:TrackPointExtension>
        </extensions>
      </trkpt>
      <trkpt lat="44.16953" lon="5.2933">
        <ele>1691.4</ele>
        <time>2021-06-12T10:22:55Z</time>
        <extensions>
          <gpxtpx:TrackPointExtension xmlns:gpxtpx="http://www.garmin.com/xmlschemas/TrackPointExtension/v1">
            <gpxtpx:hr>111</gpxtpx:hr>
          </gpxtpx:TrackPointExtension>
        </extensions>
      </trkpt>
      <trkpt lat="44.16951" lon="5.29334">
        <ele>1690.8</ele>
        <time>2021-06-12T10:22:57Z</time>
        <extensions>
          <gpxtpx:TrackPointExtension xmlns:gpxtpx="http://www.garmin.com/xmlschemas/TrackPointExtension/v1">
            <gpxtpx:hr>112</gpxtpx:hr>
          </gpxtpx:TrackPointExtension>
        </extensions>
      </trkpt>
      <trkpt lat="44.16951" lon="5.29337">
        <ele>1690.4</ele>
        <time>2021-06-12T10:22:59Z</time>
        <extensions>
          <gpxtpx:TrackPointExtension xmlns:gpxtpx="http://www.garmin.com/xmlschemas/TrackPointExtension/v1">
            <gpxtpx:hr>109</gpxtpx:hr>
          </gpxtpx:TrackPointExtension>
        </extensions>
      </trkpt>
      <trkpt lat="44.1695" lon="5.29341">
        <ele>1690</ele>
        <time>2021-06-12T10:23:01Z</time>
        <extensions>
          <gpxtpx:TrackPointExtension xmlns:gpxtpx="http://www.garmin.com/xmlschemas/TrackPointExtension/v1">
            <gpxtpx:hr>106</gpxtpx:hr>
          </gpxtpx:TrackPointExtension>
        </extensions>
      </trkpt>
      <trkpt lat="44.16949" lon="5.29343">
        <ele>1689.6</ele>
        <time>2021-06-12T10:23:02Z</time>
        <extensions>
          <gpxtpx:TrackPointExtension xmlns:gpxtpx="http://www.garmin.com/xmlschemas/TrackPointExtension/v1">
            <gpxtpx:hr>106</gpxtpx:hr>
          </gpxtpx:TrackPointExtension>
        </extensions>
      </trkpt>
      <trkpt lat="44.16948" lon="5.29347">
        <ele>1689</ele>
        <time>2021-06-12T10:23:04Z</time>
        <extensions>
          <gpxtpx:TrackPointExtension xmlns:gpxtpx="http://www.garmin.com/xmlschemas/TrackPointExtension/v1">
            <gpxtpx:hr>109</gpxtpx:hr>
          </gpxtpx:TrackPointExtension>
        </extensions>
      </trkpt>
      <trkpt lat="44.16947" lon="5.29352">
        <ele>1688.8</ele>
        <time>2021-06-12T10:23:06Z</time>
        <extensions>
          <gpxtpx:TrackPointExtension xmlns:gpxtpx="http://www.garmin.com/xmlschemas/TrackPointExtension/v1">
            <gpxtpx:hr>113</gpxtpx:hr>
          </gpxtpx:TrackPointExtension>
        </extensions>
      </trkpt>
      <trkpt lat="44.16942" lon="5.29366">
        <ele>1688.8</ele>
        <time>2021-06-12T10:23:13Z</time>
        <extensions>
          <gpxtpx:TrackPointExtension xmlns:gpxtpx="http://www.garmin.com/xmlschemas/TrackPointExtension/v1">
            <gpxtpx:hr>110</gpxtpx:hr>
          </gpxtpx:TrackPointExtension>
        </extensions>
      </trkpt>
      <trkpt lat="44.16941" lon="5.29367">
        <ele>1688.6</ele>
        <time>2021-06-12T10:23:14Z</time>
        <extensions>
          <gpxtpx:TrackPointExtension xmlns:gpxtpx="http://www.garmin.com/xmlschemas/TrackPointExtension/v1">
            <gpxtpx:hr>110</gpxtpx:hr>
          </gpxtpx:TrackPointExtension>
        </extensions>
      </trkpt>
      <trkpt lat="44.16939" lon="5.29371">
        <ele>1687.4</ele>
        <time>2021-06-12T10:23:16Z</time>
        <extensions>
          <gpxtpx:TrackPointExtension xmlns:gpxtpx="http://www.garmin.com/xmlschemas/TrackPointExtension/v1">
            <gpxtpx:hr>111</gpxtpx:hr>
          </gpxtpx:TrackPointExtension>
        </extensions>
      </trkpt>
      <trkpt lat="44.16936" lon="5.29377">
        <ele>1686.4</ele>
        <time>2021-06-12T10:23:20Z</time>
        <extensions>
          <gpxtpx:TrackPointExtension xmlns:gpxtpx="http://www.garmin.com/xmlschemas/TrackPointExtension/v1">
            <gpxtpx:hr>109</gpxtpx:hr>
          </gpxtpx:TrackPointExtension>
        </extensions>
      </trkpt>
      <trkpt lat="44.16933" lon="5.29386">
        <ele>1685.4</ele>
        <time>2021-06-12T10:23:25Z</time>
        <extensions>
          <gpxtpx:TrackPointExtension xmlns:gpxtpx="http://www.garmin.com/xmlschemas/TrackPointExtension/v1">
            <gpxtpx:hr>111</gpxtpx:hr>
          </gpxtpx:TrackPointExtension>
        </extensions>
      </trkpt>
      <trkpt lat="44.1693" lon="5.29391">
        <ele>1684.2</ele>
        <time>2021-06-12T10:23:28Z</time>
        <extensions>
          <gpxtpx:TrackPointExtension xmlns:gpxtpx="http://www.garmin.com/xmlschemas/TrackPointExtension/v1">
            <gpxtpx:hr>112</gpxtpx:hr>
          </gpxtpx:TrackPointExtension>
        </extensions>
      </trkpt>
      <trkpt lat="44.16927" lon="5.29397">
        <ele>1684</ele>
        <time>2021-06-12T10:23:31Z</time>
        <extensions>
          <gpxtpx:TrackPointExtension xmlns:gpxtpx="http://www.garmin.com/xmlschemas/TrackPointExtension/v1">
            <gpxtpx:hr>109</gpxtpx:hr>
          </gpxtpx:TrackPointExtension>
        </extensions>
      </trkpt>
      <trkpt lat="44.16921" lon="5.29407">
        <ele>1683</ele>
        <time>2021-06-12T10:23:38Z</time>
        <extensions>
          <gpxtpx:TrackPointExtension xmlns:gpxtpx="http://www.garmin.com/xmlschemas/TrackPointExtension/v1">
            <gpxtpx:hr>110</gpxtpx:hr>
          </gpxtpx:TrackPointExtension>
        </extensions>
      </trkpt>
      <trkpt lat="44.1692" lon="5.2941">
        <ele>1681.6</ele>
        <time>2021-06-12T10:23:40Z</time>
        <extensions>
          <gpxtpx:TrackPointExtension xmlns:gpxtpx="http://www.garmin.com/xmlschemas/TrackPointExtension/v1">
            <gpxtpx:hr>109</gpxtpx:hr>
          </gpxtpx:TrackPointExtension>
        </extensions>
      </trkpt>
      <trkpt lat="44.16918" lon="5.29413">
        <ele>1680.6</ele>
        <time>2021-06-12T10:23:42Z</time>
        <extensions>
          <gpxtpx:TrackPointExtension xmlns:gpxtpx="http://www.garmin.com/xmlschemas/TrackPointExtension/v1">
            <gpxtpx:hr>110</gpxtpx:hr>
          </gpxtpx:TrackPointExtension>
        </extensions>
      </trkpt>
      <trkpt lat="44.16915" lon="5.29422">
        <ele>1679.4</ele>
        <time>2021-06-12T10:23:46Z</time>
        <extensions>
          <gpxtpx:TrackPointExtension xmlns:gpxtpx="http://www.garmin.com/xmlschemas/TrackPointExtension/v1">
            <gpxtpx:hr>111</gpxtpx:hr>
          </gpxtpx:TrackPointExtension>
        </extensions>
      </trkpt>
      <trkpt lat="44.16911" lon="5.29429">
        <ele>1678.2</ele>
        <time>2021-06-12T10:23:50Z</time>
        <extensions>
          <gpxtpx:TrackPointExtension xmlns:gpxtpx="http://www.garmin.com/xmlschemas/TrackPointExtension/v1">
            <gpxtpx:hr>112</gpxtpx:hr>
          </gpxtpx:TrackPointExtension>
        </extensions>
      </trkpt>
      <trkpt lat="44.16906" lon="5.29443">
        <ele>1677.2</ele>
        <time>2021-06-12T10:23:57Z</time>
        <extensions>
          <gpxtpx:TrackPointExtension xmlns:gpxtpx="http://www.garmin.com/xmlschemas/TrackPointExtension/v1">
            <gpxtpx:hr>115</gpxtpx:hr>
          </gpxtpx:TrackPointExtension>
        </extensions>
      </trkpt>
      <trkpt lat="44.16906" lon="5.29445">
        <ele>1676.6</ele>
        <time>2021-06-12T10:23:58Z</time>
        <extensions>
          <gpxtpx:TrackPointExtension xmlns:gpxtpx="http://www.garmin.com/xmlschemas/TrackPointExtension/v1">
            <gpxtpx:hr>115</gpxtpx:hr>
          </gpxtpx:TrackPointExtension>
        </extensions>
      </trkpt>
      <trkpt lat="44.16905" lon="5.2945">
        <ele>1675.4</ele>
        <time>2021-06-12T10:24:00Z</time>
        <extensions>
          <gpxtpx:TrackPointExtension xmlns:gpxtpx="http://www.garmin.com/xmlschemas/TrackPointExtension/v1">
            <gpxtpx:hr>115</gpxtpx:hr>
          </gpxtpx:TrackPointExtension>
        </extensions>
      </trkpt>
      <trkpt lat="44.16904" lon="5.29454">
        <ele>1674.2</ele>
        <time>2021-06-12T10:24:02Z</time>
        <extensions>
          <gpxtpx:TrackPointExtension xmlns:gpxtpx="http://www.garmin.com/xmlschemas/TrackPointExtension/v1">
            <gpxtpx:hr>114</gpxtpx:hr>
          </gpxtpx:TrackPointExtension>
        </extensions>
      </trkpt>
      <trkpt lat="44.16902" lon="5.29457">
        <ele>1673</ele>
        <time>2021-06-12T10:24:04Z</time>
        <extensions>
          <gpxtpx:TrackPointExtension xmlns:gpxtpx="http://www.garmin.com/xmlschemas/TrackPointExtension/v1">
            <gpxtpx:hr>115</gpxtpx:hr>
          </gpxtpx:TrackPointExtension>
        </extensions>
      </trkpt>
      <trkpt lat="44.169" lon="5.29462">
        <ele>1671.8</ele>
        <time>2021-06-12T10:24:07Z</time>
        <extensions>
          <gpxtpx:TrackPointExtension xmlns:gpxtpx="http://www.garmin.com/xmlschemas/TrackPointExtension/v1">
            <gpxtpx:hr>115</gpxtpx:hr>
          </gpxtpx:TrackPointExtension>
        </extensions>
      </trkpt>
      <trkpt lat="44.16899" lon="5.29467">
        <ele>1670.6</ele>
        <time>2021-06-12T10:24:10Z</time>
        <extensions>
          <gpxtpx:TrackPointExtension xmlns:gpxtpx="http://www.garmin.com/xmlschemas/TrackPointExtension/v1">
            <gpxtpx:hr>115</gpxtpx:hr>
          </gpxtpx:TrackPointExtension>
        </extensions>
      </trkpt>
      <trkpt lat="44.16898" lon="5.29472">
        <ele>1669.6</ele>
        <time>2021-06-12T10:24:13Z</time>
        <extensions>
          <gpxtpx:TrackPointExtension xmlns:gpxtpx="http://www.garmin.com/xmlschemas/TrackPointExtension/v1">
            <gpxtpx:hr>116</gpxtpx:hr>
          </gpxtpx:TrackPointExtension>
        </extensions>
      </trkpt>
      <trkpt lat="44.16897" lon="5.29479">
        <ele>1668.4</ele>
        <time>2021-06-12T10:24:17Z</time>
        <extensions>
          <gpxtpx:TrackPointExtension xmlns:gpxtpx="http://www.garmin.com/xmlschemas/TrackPointExtension/v1">
            <gpxtpx:hr>118</gpxtpx:hr>
          </gpxtpx:TrackPointExtension>
        </extensions>
      </trkpt>
      <trkpt lat="44.16894" lon="5.29484">
        <ele>1667.4</ele>
        <time>2021-06-12T10:24:20Z</time>
        <extensions>
          <gpxtpx:TrackPointExtension xmlns:gpxtpx="http://www.garmin.com/xmlschemas/TrackPointExtension/v1">
            <gpxtpx:hr>118</gpxtpx:hr>
          </gpxtpx:TrackPointExtension>
        </extensions>
      </trkpt>
      <trkpt lat="44.16892" lon="5.29489">
        <ele>1666.2</ele>
        <time>2021-06-12T10:24:23Z</time>
        <extensions>
          <gpxtpx:TrackPointExtension xmlns:gpxtpx="http://www.garmin.com/xmlschemas/TrackPointExtension/v1">
            <gpxtpx:hr>117</gpxtpx:hr>
          </gpxtpx:TrackPointExtension>
        </extensions>
      </trkpt>
      <trkpt lat="44.1689" lon="5.29495">
        <ele>1664.8</ele>
        <time>2021-06-12T10:24:27Z</time>
        <extensions>
          <gpxtpx:TrackPointExtension xmlns:gpxtpx="http://www.garmin.com/xmlschemas/TrackPointExtension/v1">
            <gpxtpx:hr>116</gpxtpx:hr>
          </gpxtpx:TrackPointExtension>
        </extensions>
      </trkpt>
      <trkpt lat="44.16888" lon="5.29499">
        <ele>1663.6</ele>
        <time>2021-06-12T10:24:30Z</time>
        <extensions>
          <gpxtpx:TrackPointExtension xmlns:gpxtpx="http://www.garmin.com/xmlschemas/TrackPointExtension/v1">
            <gpxtpx:hr>116</gpxtpx:hr>
          </gpxtpx:TrackPointExtension>
        </extensions>
      </trkpt>
      <trkpt lat="44.16886" lon="5.29507">
        <ele>1662.6</ele>
        <time>2021-06-12T10:24:34Z</time>
        <extensions>
          <gpxtpx:TrackPointExtension xmlns:gpxtpx="http://www.garmin.com/xmlschemas/TrackPointExtension/v1">
            <gpxtpx:hr>115</gpxtpx:hr>
          </gpxtpx:TrackPointExtension>
        </extensions>
      </trkpt>
      <trkpt lat="44.16884" lon="5.29516">
        <ele>1661.4</ele>
        <time>2021-06-12T10:24:38Z</time>
        <extensions>
          <gpxtpx:TrackPointExtension xmlns:gpxtpx="http://www.garmin.com/xmlschemas/TrackPointExtension/v1">
            <gpxtpx:hr>114</gpxtpx:hr>
          </gpxtpx:TrackPointExtension>
        </extensions>
      </trkpt>
      <trkpt lat="44.16882" lon="5.29523">
        <ele>1660</ele>
        <time>2021-06-12T10:24:41Z</time>
        <extensions>
          <gpxtpx:TrackPointExtension xmlns:gpxtpx="http://www.garmin.com/xmlschemas/TrackPointExtension/v1">
            <gpxtpx:hr>114</gpxtpx:hr>
          </gpxtpx:TrackPointExtension>
        </extensions>
      </trkpt>
      <trkpt lat="44.16878" lon="5.29531">
        <ele>1658.8</ele>
        <time>2021-06-12T10:24:45Z</time>
        <extensions>
          <gpxtpx:TrackPointExtension xmlns:gpxtpx="http://www.garmin.com/xmlschemas/TrackPointExtension/v1">
            <gpxtpx:hr>116</gpxtpx:hr>
          </gpxtpx:TrackPointExtension>
        </extensions>
      </trkpt>
      <trkpt lat="44.16875" lon="5.2954">
        <ele>1657.4</ele>
        <time>2021-06-12T10:24:49Z</time>
        <extensions>
          <gpxtpx:TrackPointExtension xmlns:gpxtpx="http://www.garmin.com/xmlschemas/TrackPointExtension/v1">
            <gpxtpx:hr>115</gpxtpx:hr>
          </gpxtpx:TrackPointExtension>
        </extensions>
      </trkpt>
      <trkpt lat="44.16873" lon="5.29549">
        <ele>1656.4</ele>
        <time>2021-06-12T10:24:53Z</time>
        <extensions>
          <gpxtpx:TrackPointExtension xmlns:gpxtpx="http://www.garmin.com/xmlschemas/TrackPointExtension/v1">
            <gpxtpx:hr>116</gpxtpx:hr>
          </gpxtpx:TrackPointExtension>
        </extensions>
      </trkpt>
      <trkpt lat="44.16871" lon="5.29555">
        <ele>1655.4</ele>
        <time>2021-06-12T10:24:56Z</time>
        <extensions>
          <gpxtpx:TrackPointExtension xmlns:gpxtpx="http://www.garmin.com/xmlschemas/TrackPointExtension/v1">
            <gpxtpx:hr>116</gpxtpx:hr>
          </gpxtpx:TrackPointExtension>
        </extensions>
      </trkpt>
      <trkpt lat="44.16867" lon="5.29562">
        <ele>1654.2</ele>
        <time>2021-06-12T10:25:00Z</time>
        <extensions>
          <gpxtpx:TrackPointExtension xmlns:gpxtpx="http://www.garmin.com/xmlschemas/TrackPointExtension/v1">
            <gpxtpx:hr>117</gpxtpx:hr>
          </gpxtpx:TrackPointExtension>
        </extensions>
      </trkpt>
      <trkpt lat="44.16863" lon="5.29573">
        <ele>1653.2</ele>
        <time>2021-06-12T10:25:06Z</time>
        <extensions>
          <gpxtpx:TrackPointExtension xmlns:gpxtpx="http://www.garmin.com/xmlschemas/TrackPointExtension/v1">
            <gpxtpx:hr>118</gpxtpx:hr>
          </gpxtpx:TrackPointExtension>
        </extensions>
      </trkpt>
      <trkpt lat="44.1686" lon="5.29581">
        <ele>1652.2</ele>
        <time>2021-06-12T10:25:11Z</time>
        <extensions>
          <gpxtpx:TrackPointExtension xmlns:gpxtpx="http://www.garmin.com/xmlschemas/TrackPointExtension/v1">
            <gpxtpx:hr>120</gpxtpx:hr>
          </gpxtpx:TrackPointExtension>
        </extensions>
      </trkpt>
      <trkpt lat="44.16856" lon="5.29588">
        <ele>1651.4</ele>
        <time>2021-06-12T10:25:15Z</time>
        <extensions>
          <gpxtpx:TrackPointExtension xmlns:gpxtpx="http://www.garmin.com/xmlschemas/TrackPointExtension/v1">
            <gpxtpx:hr>117</gpxtpx:hr>
          </gpxtpx:TrackPointExtension>
        </extensions>
      </trkpt>
      <trkpt lat="44.16847" lon="5.296">
        <ele>1651</ele>
        <time>2021-06-12T10:25:22Z</time>
        <extensions>
          <gpxtpx:TrackPointExtension xmlns:gpxtpx="http://www.garmin.com/xmlschemas/TrackPointExtension/v1">
            <gpxtpx:hr>117</gpxtpx:hr>
          </gpxtpx:TrackPointExtension>
        </extensions>
      </trkpt>
      <trkpt lat="44.16842" lon="5.29605">
        <ele>1649.8</ele>
        <time>2021-06-12T10:25:26Z</time>
        <extensions>
          <gpxtpx:TrackPointExtension xmlns:gpxtpx="http://www.garmin.com/xmlschemas/TrackPointExtension/v1">
            <gpxtpx:hr>117</gpxtpx:hr>
          </gpxtpx:TrackPointExtension>
        </extensions>
      </trkpt>
      <trkpt lat="44.16836" lon="5.29612">
        <ele>1648.6</ele>
        <time>2021-06-12T10:25:31Z</time>
        <extensions>
          <gpxtpx:TrackPointExtension xmlns:gpxtpx="http://www.garmin.com/xmlschemas/TrackPointExtension/v1">
            <gpxtpx:hr>116</gpxtpx:hr>
          </gpxtpx:TrackPointExtension>
        </extensions>
      </trkpt>
      <trkpt lat="44.16824" lon="5.29633">
        <ele>1647.4</ele>
        <time>2021-06-12T10:25:43Z</time>
        <extensions>
          <gpxtpx:TrackPointExtension xmlns:gpxtpx="http://www.garmin.com/xmlschemas/TrackPointExtension/v1">
            <gpxtpx:hr>116</gpxtpx:hr>
          </gpxtpx:TrackPointExtension>
        </extensions>
      </trkpt>
      <trkpt lat="44.16811" lon="5.29653">
        <ele>1646.8</ele>
        <time>2021-06-12T10:25:54Z</time>
        <extensions>
          <gpxtpx:TrackPointExtension xmlns:gpxtpx="http://www.garmin.com/xmlschemas/TrackPointExtension/v1">
            <gpxtpx:hr>117</gpxtpx:hr>
          </gpxtpx:TrackPointExtension>
        </extensions>
      </trkpt>
      <trkpt lat="44.16799" lon="5.29672">
        <ele>1647.2</ele>
        <time>2021-06-12T10:26:06Z</time>
        <extensions>
          <gpxtpx:TrackPointExtension xmlns:gpxtpx="http://www.garmin.com/xmlschemas/TrackPointExtension/v1">
            <gpxtpx:hr>121</gpxtpx:hr>
          </gpxtpx:TrackPointExtension>
        </extensions>
      </trkpt>
      <trkpt lat="44.1679" lon="5.29695">
        <ele>1647.6</ele>
        <time>2021-06-12T10:26:18Z</time>
        <extensions>
          <gpxtpx:TrackPointExtension xmlns:gpxtpx="http://www.garmin.com/xmlschemas/TrackPointExtension/v1">
            <gpxtpx:hr>121</gpxtpx:hr>
          </gpxtpx:TrackPointExtension>
        </extensions>
      </trkpt>
      <trkpt lat="44.16783" lon="5.29712">
        <ele>1648</ele>
        <time>2021-06-12T10:26:28Z</time>
        <extensions>
          <gpxtpx:TrackPointExtension xmlns:gpxtpx="http://www.garmin.com/xmlschemas/TrackPointExtension/v1">
            <gpxtpx:hr>124</gpxtpx:hr>
          </gpxtpx:TrackPointExtension>
        </extensions>
      </trkpt>
      <trkpt lat="44.16782" lon="5.29719">
        <ele>1648.4</ele>
        <time>2021-06-12T10:26:32Z</time>
        <extensions>
          <gpxtpx:TrackPointExtension xmlns:gpxtpx="http://www.garmin.com/xmlschemas/TrackPointExtension/v1">
            <gpxtpx:hr>125</gpxtpx:hr>
          </gpxtpx:TrackPointExtension>
        </extensions>
      </trkpt>
      <trkpt lat="44.16779" lon="5.29727">
        <ele>1649.4</ele>
        <time>2021-06-12T10:26:37Z</time>
        <extensions>
          <gpxtpx:TrackPointExtension xmlns:gpxtpx="http://www.garmin.com/xmlschemas/TrackPointExtension/v1">
            <gpxtpx:hr>128</gpxtpx:hr>
          </gpxtpx:TrackPointExtension>
        </extensions>
      </trkpt>
      <trkpt lat="44.16778" lon="5.29731">
        <ele>1649.4</ele>
        <time>2021-06-12T10:26:39Z</time>
        <extensions>
          <gpxtpx:TrackPointExtension xmlns:gpxtpx="http://www.garmin.com/xmlschemas/TrackPointExtension/v1">
            <gpxtpx:hr>128</gpxtpx:hr>
          </gpxtpx:TrackPointExtension>
        </extensions>
      </trkpt>
      <trkpt lat="44.16774" lon="5.29752">
        <ele>1650.6</ele>
        <time>2021-06-12T10:26:49Z</time>
        <extensions>
          <gpxtpx:TrackPointExtension xmlns:gpxtpx="http://www.garmin.com/xmlschemas/TrackPointExtension/v1">
            <gpxtpx:hr>128</gpxtpx:hr>
          </gpxtpx:TrackPointExtension>
        </extensions>
      </trkpt>
      <trkpt lat="44.16771" lon="5.29763">
        <ele>1650.8</ele>
        <time>2021-06-12T10:26:55Z</time>
        <extensions>
          <gpxtpx:TrackPointExtension xmlns:gpxtpx="http://www.garmin.com/xmlschemas/TrackPointExtension/v1">
            <gpxtpx:hr>131</gpxtpx:hr>
          </gpxtpx:TrackPointExtension>
        </extensions>
      </trkpt>
      <trkpt lat="44.16771" lon="5.29789">
        <ele>1651.6</ele>
        <time>2021-06-12T10:27:08Z</time>
        <extensions>
          <gpxtpx:TrackPointExtension xmlns:gpxtpx="http://www.garmin.com/xmlschemas/TrackPointExtension/v1">
            <gpxtpx:hr>131</gpxtpx:hr>
          </gpxtpx:TrackPointExtension>
        </extensions>
      </trkpt>
      <trkpt lat="44.16772" lon="5.29796">
        <ele>1651.6</ele>
        <time>2021-06-12T10:27:11Z</time>
        <extensions>
          <gpxtpx:TrackPointExtension xmlns:gpxtpx="http://www.garmin.com/xmlschemas/TrackPointExtension/v1">
            <gpxtpx:hr>130</gpxtpx:hr>
          </gpxtpx:TrackPointExtension>
        </extensions>
      </trkpt>
      <trkpt lat="44.16772" lon="5.29811">
        <ele>1652.6</ele>
        <time>2021-06-12T10:27:19Z</time>
        <extensions>
          <gpxtpx:TrackPointExtension xmlns:gpxtpx="http://www.garmin.com/xmlschemas/TrackPointExtension/v1">
            <gpxtpx:hr>130</gpxtpx:hr>
          </gpxtpx:TrackPointExtension>
        </extensions>
      </trkpt>
      <trkpt lat="44.16772" lon="5.29838">
        <ele>1653</ele>
        <time>2021-06-12T10:27:32Z</time>
        <extensions>
          <gpxtpx:TrackPointExtension xmlns:gpxtpx="http://www.garmin.com/xmlschemas/TrackPointExtension/v1">
            <gpxtpx:hr>130</gpxtpx:hr>
          </gpxtpx:TrackPointExtension>
        </extensions>
      </trkpt>
      <trkpt lat="44.16772" lon="5.29861">
        <ele>1653.8</ele>
        <time>2021-06-12T10:27:43Z</time>
        <extensions>
          <gpxtpx:TrackPointExtension xmlns:gpxtpx="http://www.garmin.com/xmlschemas/TrackPointExtension/v1">
            <gpxtpx:hr>130</gpxtpx:hr>
          </gpxtpx:TrackPointExtension>
        </extensions>
      </trkpt>
      <trkpt lat="44.16771" lon="5.29887">
        <ele>1653.6</ele>
        <time>2021-06-12T10:27:55Z</time>
        <extensions>
          <gpxtpx:TrackPointExtension xmlns:gpxtpx="http://www.garmin.com/xmlschemas/TrackPointExtension/v1">
            <gpxtpx:hr>131</gpxtpx:hr>
          </gpxtpx:TrackPointExtension>
        </extensions>
      </trkpt>
      <trkpt lat="44.16769" lon="5.29902">
        <ele>1652.8</ele>
        <time>2021-06-12T10:28:03Z</time>
        <extensions>
          <gpxtpx:TrackPointExtension xmlns:gpxtpx="http://www.garmin.com/xmlschemas/TrackPointExtension/v1">
            <gpxtpx:hr>129</gpxtpx:hr>
          </gpxtpx:TrackPointExtension>
        </extensions>
      </trkpt>
      <trkpt lat="44.16768" lon="5.29916">
        <ele>1652.2</ele>
        <time>2021-06-12T10:28:09Z</time>
        <extensions>
          <gpxtpx:TrackPointExtension xmlns:gpxtpx="http://www.garmin.com/xmlschemas/TrackPointExtension/v1">
            <gpxtpx:hr>124</gpxtpx:hr>
          </gpxtpx:TrackPointExtension>
        </extensions>
      </trkpt>
      <trkpt lat="44.16767" lon="5.29921">
        <ele>1652.2</ele>
        <time>2021-06-12T10:28:11Z</time>
        <extensions>
          <gpxtpx:TrackPointExtension xmlns:gpxtpx="http://www.garmin.com/xmlschemas/TrackPointExtension/v1">
            <gpxtpx:hr>119</gpxtpx:hr>
          </gpxtpx:TrackPointExtension>
        </extensions>
      </trkpt>
      <trkpt lat="44.16764" lon="5.29929">
        <ele>1651.8</ele>
        <time>2021-06-12T10:28:16Z</time>
        <extensions>
          <gpxtpx:TrackPointExtension xmlns:gpxtpx="http://www.garmin.com/xmlschemas/TrackPointExtension/v1">
            <gpxtpx:hr>117</gpxtpx:hr>
          </gpxtpx:TrackPointExtension>
        </extensions>
      </trkpt>
      <trkpt lat="44.16763" lon="5.29933">
        <ele>1651.6</ele>
        <time>2021-06-12T10:28:18Z</time>
        <extensions>
          <gpxtpx:TrackPointExtension xmlns:gpxtpx="http://www.garmin.com/xmlschemas/TrackPointExtension/v1">
            <gpxtpx:hr>120</gpxtpx:hr>
          </gpxtpx:TrackPointExtension>
        </extensions>
      </trkpt>
      <trkpt lat="44.16759" lon="5.29958">
        <ele>1651</ele>
        <time>2021-06-12T10:28:30Z</time>
        <extensions>
          <gpxtpx:TrackPointExtension xmlns:gpxtpx="http://www.garmin.com/xmlschemas/TrackPointExtension/v1">
            <gpxtpx:hr>119</gpxtpx:hr>
          </gpxtpx:TrackPointExtension>
        </extensions>
      </trkpt>
      <trkpt lat="44.16758" lon="5.29962">
        <ele>1650.8</ele>
        <time>2021-06-12T10:28:32Z</time>
        <extensions>
          <gpxtpx:TrackPointExtension xmlns:gpxtpx="http://www.garmin.com/xmlschemas/TrackPointExtension/v1">
            <gpxtpx:hr>116</gpxtpx:hr>
          </gpxtpx:TrackPointExtension>
        </extensions>
      </trkpt>
      <trkpt lat="44.16758" lon="5.29966">
        <ele>1650.6</ele>
        <time>2021-06-12T10:28:34Z</time>
        <extensions>
          <gpxtpx:TrackPointExtension xmlns:gpxtpx="http://www.garmin.com/xmlschemas/TrackPointExtension/v1">
            <gpxtpx:hr>117</gpxtpx:hr>
          </gpxtpx:TrackPointExtension>
        </extensions>
      </trkpt>
      <trkpt lat="44.16756" lon="5.29972">
        <ele>1650.4</ele>
        <time>2021-06-12T10:28:37Z</time>
        <extensions>
          <gpxtpx:TrackPointExtension xmlns:gpxtpx="http://www.garmin.com/xmlschemas/TrackPointExtension/v1">
            <gpxtpx:hr>120</gpxtpx:hr>
          </gpxtpx:TrackPointExtension>
        </extensions>
      </trkpt>
      <trkpt lat="44.16753" lon="5.29983">
        <ele>1649.6</ele>
        <time>2021-06-12T10:28:42Z</time>
        <extensions>
          <gpxtpx:TrackPointExtension xmlns:gpxtpx="http://www.garmin.com/xmlschemas/TrackPointExtension/v1">
            <gpxtpx:hr>117</gpxtpx:hr>
          </gpxtpx:TrackPointExtension>
        </extensions>
      </trkpt>
      <trkpt lat="44.16745" lon="5.30006">
        <ele>1649</ele>
        <time>2021-06-12T10:28:53Z</time>
        <extensions>
          <gpxtpx:TrackPointExtension xmlns:gpxtpx="http://www.garmin.com/xmlschemas/TrackPointExtension/v1">
            <gpxtpx:hr>116</gpxtpx:hr>
          </gpxtpx:TrackPointExtension>
        </extensions>
      </trkpt>
      <trkpt lat="44.16743" lon="5.3001">
        <ele>1648.4</ele>
        <time>2021-06-12T10:28:55Z</time>
        <extensions>
          <gpxtpx:TrackPointExtension xmlns:gpxtpx="http://www.garmin.com/xmlschemas/TrackPointExtension/v1">
            <gpxtpx:hr>115</gpxtpx:hr>
          </gpxtpx:TrackPointExtension>
        </extensions>
      </trkpt>
      <trkpt lat="44.16738" lon="5.30022">
        <ele>1647.4</ele>
        <time>2021-06-12T10:29:02Z</time>
        <extensions>
          <gpxtpx:TrackPointExtension xmlns:gpxtpx="http://www.garmin.com/xmlschemas/TrackPointExtension/v1">
            <gpxtpx:hr>113</gpxtpx:hr>
          </gpxtpx:TrackPointExtension>
        </extensions>
      </trkpt>
      <trkpt lat="44.16735" lon="5.30028">
        <ele>1646.8</ele>
        <time>2021-06-12T10:29:06Z</time>
        <extensions>
          <gpxtpx:TrackPointExtension xmlns:gpxtpx="http://www.garmin.com/xmlschemas/TrackPointExtension/v1">
            <gpxtpx:hr>116</gpxtpx:hr>
          </gpxtpx:TrackPointExtension>
        </extensions>
      </trkpt>
      <trkpt lat="44.16726" lon="5.30047">
        <ele>1646.4</ele>
        <time>2021-06-12T10:29:16Z</time>
        <extensions>
          <gpxtpx:TrackPointExtension xmlns:gpxtpx="http://www.garmin.com/xmlschemas/TrackPointExtension/v1">
            <gpxtpx:hr>119</gpxtpx:hr>
          </gpxtpx:TrackPointExtension>
        </extensions>
      </trkpt>
      <trkpt lat="44.16725" lon="5.3005">
        <ele>1646.2</ele>
        <time>2021-06-12T10:29:17Z</time>
        <extensions>
          <gpxtpx:TrackPointExtension xmlns:gpxtpx="http://www.garmin.com/xmlschemas/TrackPointExtension/v1">
            <gpxtpx:hr>119</gpxtpx:hr>
          </gpxtpx:TrackPointExtension>
        </extensions>
      </trkpt>
      <trkpt lat="44.16723" lon="5.30056">
        <ele>1645.4</ele>
        <time>2021-06-12T10:29:20Z</time>
        <extensions>
          <gpxtpx:TrackPointExtension xmlns:gpxtpx="http://www.garmin.com/xmlschemas/TrackPointExtension/v1">
            <gpxtpx:hr>122</gpxtpx:hr>
          </gpxtpx:TrackPointExtension>
        </extensions>
      </trkpt>
      <trkpt lat="44.16722" lon="5.3006">
        <ele>1645.2</ele>
        <time>2021-06-12T10:29:22Z</time>
        <extensions>
          <gpxtpx:TrackPointExtension xmlns:gpxtpx="http://www.garmin.com/xmlschemas/TrackPointExtension/v1">
            <gpxtpx:hr>120</gpxtpx:hr>
          </gpxtpx:TrackPointExtension>
        </extensions>
      </trkpt>
      <trkpt lat="44.16722" lon="5.30064">
        <ele>1645</ele>
        <time>2021-06-12T10:29:24Z</time>
        <extensions>
          <gpxtpx:TrackPointExtension xmlns:gpxtpx="http://www.garmin.com/xmlschemas/TrackPointExtension/v1">
            <gpxtpx:hr>116</gpxtpx:hr>
          </gpxtpx:TrackPointExtension>
        </extensions>
      </trkpt>
      <trkpt lat="44.16718" lon="5.30079">
        <ele>1644.6</ele>
        <time>2021-06-12T10:29:31Z</time>
        <extensions>
          <gpxtpx:TrackPointExtension xmlns:gpxtpx="http://www.garmin.com/xmlschemas/TrackPointExtension/v1">
            <gpxtpx:hr>113</gpxtpx:hr>
          </gpxtpx:TrackPointExtension>
        </extensions>
      </trkpt>
      <trkpt lat="44.16711" lon="5.30091">
        <ele>1644.2</ele>
        <time>2021-06-12T10:29:38Z</time>
        <extensions>
          <gpxtpx:TrackPointExtension xmlns:gpxtpx="http://www.garmin.com/xmlschemas/TrackPointExtension/v1">
            <gpxtpx:hr>113</gpxtpx:hr>
          </gpxtpx:TrackPointExtension>
        </extensions>
      </trkpt>
      <trkpt lat="44.16706" lon="5.30102">
        <ele>1643.4</ele>
        <time>2021-06-12T10:29:45Z</time>
        <extensions>
          <gpxtpx:TrackPointExtension xmlns:gpxtpx="http://www.garmin.com/xmlschemas/TrackPointExtension/v1">
            <gpxtpx:hr>116</gpxtpx:hr>
          </gpxtpx:TrackPointExtension>
        </extensions>
      </trkpt>
      <trkpt lat="44.16702" lon="5.30107">
        <ele>1643</ele>
        <time>2021-06-12T10:29:49Z</time>
        <extensions>
          <gpxtpx:TrackPointExtension xmlns:gpxtpx="http://www.garmin.com/xmlschemas/TrackPointExtension/v1">
            <gpxtpx:hr>116</gpxtpx:hr>
          </gpxtpx:TrackPointExtension>
        </extensions>
      </trkpt>
      <trkpt lat="44.16697" lon="5.30112">
        <ele>1642</ele>
        <time>2021-06-12T10:29:53Z</time>
        <extensions>
          <gpxtpx:TrackPointExtension xmlns:gpxtpx="http://www.garmin.com/xmlschemas/TrackPointExtension/v1">
            <gpxtpx:hr>114</gpxtpx:hr>
          </gpxtpx:TrackPointExtension>
        </extensions>
      </trkpt>
      <trkpt lat="44.16694" lon="5.30116">
        <ele>1641</ele>
        <time>2021-06-12T10:29:56Z</time>
        <extensions>
          <gpxtpx:TrackPointExtension xmlns:gpxtpx="http://www.garmin.com/xmlschemas/TrackPointExtension/v1">
            <gpxtpx:hr>114</gpxtpx:hr>
          </gpxtpx:TrackPointExtension>
        </extensions>
      </trkpt>
      <trkpt lat="44.1669" lon="5.30119">
        <ele>1640</ele>
        <time>2021-06-12T10:29:59Z</time>
        <extensions>
          <gpxtpx:TrackPointExtension xmlns:gpxtpx="http://www.garmin.com/xmlschemas/TrackPointExtension/v1">
            <gpxtpx:hr>115</gpxtpx:hr>
          </gpxtpx:TrackPointExtension>
        </extensions>
      </trkpt>
      <trkpt lat="44.16686" lon="5.30122">
        <ele>1638.8</ele>
        <time>2021-06-12T10:30:03Z</time>
        <extensions>
          <gpxtpx:TrackPointExtension xmlns:gpxtpx="http://www.garmin.com/xmlschemas/TrackPointExtension/v1">
            <gpxtpx:hr>115</gpxtpx:hr>
          </gpxtpx:TrackPointExtension>
        </extensions>
      </trkpt>
      <trkpt lat="44.16681" lon="5.30128">
        <ele>1637.8</ele>
        <time>2021-06-12T10:30:08Z</time>
        <extensions>
          <gpxtpx:TrackPointExtension xmlns:gpxtpx="http://www.garmin.com/xmlschemas/TrackPointExtension/v1">
            <gpxtpx:hr>118</gpxtpx:hr>
          </gpxtpx:TrackPointExtension>
        </extensions>
      </trkpt>
      <trkpt lat="44.16679" lon="5.3013">
        <ele>1637.2</ele>
        <time>2021-06-12T10:30:10Z</time>
        <extensions>
          <gpxtpx:TrackPointExtension xmlns:gpxtpx="http://www.garmin.com/xmlschemas/TrackPointExtension/v1">
            <gpxtpx:hr>117</gpxtpx:hr>
          </gpxtpx:TrackPointExtension>
        </extensions>
      </trkpt>
      <trkpt lat="44.16677" lon="5.30131">
        <ele>1636.8</ele>
        <time>2021-06-12T10:30:11Z</time>
        <extensions>
          <gpxtpx:TrackPointExtension xmlns:gpxtpx="http://www.garmin.com/xmlschemas/TrackPointExtension/v1">
            <gpxtpx:hr>115</gpxtpx:hr>
          </gpxtpx:TrackPointExtension>
        </extensions>
      </trkpt>
      <trkpt lat="44.16675" lon="5.30132">
        <ele>1636</ele>
        <time>2021-06-12T10:30:13Z</time>
        <extensions>
          <gpxtpx:TrackPointExtension xmlns:gpxtpx="http://www.garmin.com/xmlschemas/TrackPointExtension/v1">
            <gpxtpx:hr>112</gpxtpx:hr>
          </gpxtpx:TrackPointExtension>
        </extensions>
      </trkpt>
      <trkpt lat="44.16674" lon="5.30132">
        <ele>1635.6</ele>
        <time>2021-06-12T10:30:14Z</time>
        <extensions>
          <gpxtpx:TrackPointExtension xmlns:gpxtpx="http://www.garmin.com/xmlschemas/TrackPointExtension/v1">
            <gpxtpx:hr>110</gpxtpx:hr>
          </gpxtpx:TrackPointExtension>
        </extensions>
      </trkpt>
      <trkpt lat="44.16669" lon="5.30137">
        <ele>1634.4</ele>
        <time>2021-06-12T10:30:18Z</time>
        <extensions>
          <gpxtpx:TrackPointExtension xmlns:gpxtpx="http://www.garmin.com/xmlschemas/TrackPointExtension/v1">
            <gpxtpx:hr>113</gpxtpx:hr>
          </gpxtpx:TrackPointExtension>
        </extensions>
      </trkpt>
      <trkpt lat="44.16666" lon="5.3014">
        <ele>1633.4</ele>
        <time>2021-06-12T10:30:21Z</time>
        <extensions>
          <gpxtpx:TrackPointExtension xmlns:gpxtpx="http://www.garmin.com/xmlschemas/TrackPointExtension/v1">
            <gpxtpx:hr>112</gpxtpx:hr>
          </gpxtpx:TrackPointExtension>
        </extensions>
      </trkpt>
      <trkpt lat="44.16657" lon="5.3015">
        <ele>1632</ele>
        <time>2021-06-12T10:30:29Z</time>
        <extensions>
          <gpxtpx:TrackPointExtension xmlns:gpxtpx="http://www.garmin.com/xmlschemas/TrackPointExtension/v1">
            <gpxtpx:hr>113</gpxtpx:hr>
          </gpxtpx:TrackPointExtension>
        </extensions>
      </trkpt>
      <trkpt lat="44.16653" lon="5.30155">
        <ele>1631</ele>
        <time>2021-06-12T10:30:32Z</time>
        <extensions>
          <gpxtpx:TrackPointExtension xmlns:gpxtpx="http://www.garmin.com/xmlschemas/TrackPointExtension/v1">
            <gpxtpx:hr>116</gpxtpx:hr>
          </gpxtpx:TrackPointExtension>
        </extensions>
      </trkpt>
      <trkpt lat="44.16649" lon="5.3016">
        <ele>1630.2</ele>
        <time>2021-06-12T10:30:36Z</time>
        <extensions>
          <gpxtpx:TrackPointExtension xmlns:gpxtpx="http://www.garmin.com/xmlschemas/TrackPointExtension/v1">
            <gpxtpx:hr>113</gpxtpx:hr>
          </gpxtpx:TrackPointExtension>
        </extensions>
      </trkpt>
      <trkpt lat="44.16648" lon="5.30161">
        <ele>1630</ele>
        <time>2021-06-12T10:30:37Z</time>
        <extensions>
          <gpxtpx:TrackPointExtension xmlns:gpxtpx="http://www.garmin.com/xmlschemas/TrackPointExtension/v1">
            <gpxtpx:hr>112</gpxtpx:hr>
          </gpxtpx:TrackPointExtension>
        </extensions>
      </trkpt>
      <trkpt lat="44.16644" lon="5.30165">
        <ele>1628.8</ele>
        <time>2021-06-12T10:30:40Z</time>
        <extensions>
          <gpxtpx:TrackPointExtension xmlns:gpxtpx="http://www.garmin.com/xmlschemas/TrackPointExtension/v1">
            <gpxtpx:hr>114</gpxtpx:hr>
          </gpxtpx:TrackPointExtension>
        </extensions>
      </trkpt>
      <trkpt lat="44.16641" lon="5.30171">
        <ele>1628</ele>
        <time>2021-06-12T10:30:43Z</time>
        <extensions>
          <gpxtpx:TrackPointExtension xmlns:gpxtpx="http://www.garmin.com/xmlschemas/TrackPointExtension/v1">
            <gpxtpx:hr>117</gpxtpx:hr>
          </gpxtpx:TrackPointExtension>
        </extensions>
      </trkpt>
      <trkpt lat="44.1664" lon="5.30172">
        <ele>1627.6</ele>
        <time>2021-06-12T10:30:44Z</time>
        <extensions>
          <gpxtpx:TrackPointExtension xmlns:gpxtpx="http://www.garmin.com/xmlschemas/TrackPointExtension/v1">
            <gpxtpx:hr>118</gpxtpx:hr>
          </gpxtpx:TrackPointExtension>
        </extensions>
      </trkpt>
      <trkpt lat="44.16636" lon="5.30177">
        <ele>1626.4</ele>
        <time>2021-06-12T10:30:47Z</time>
        <extensions>
          <gpxtpx:TrackPointExtension xmlns:gpxtpx="http://www.garmin.com/xmlschemas/TrackPointExtension/v1">
            <gpxtpx:hr>117</gpxtpx:hr>
          </gpxtpx:TrackPointExtension>
        </extensions>
      </trkpt>
      <trkpt lat="44.16632" lon="5.30182">
        <ele>1625.2</ele>
        <time>2021-06-12T10:30:50Z</time>
        <extensions>
          <gpxtpx:TrackPointExtension xmlns:gpxtpx="http://www.garmin.com/xmlschemas/TrackPointExtension/v1">
            <gpxtpx:hr>116</gpxtpx:hr>
          </gpxtpx:TrackPointExtension>
        </extensions>
      </trkpt>
      <trkpt lat="44.16627" lon="5.3019">
        <ele>1624.2</ele>
        <time>2021-06-12T10:30:55Z</time>
        <extensions>
          <gpxtpx:TrackPointExtension xmlns:gpxtpx="http://www.garmin.com/xmlschemas/TrackPointExtension/v1">
            <gpxtpx:hr>113</gpxtpx:hr>
          </gpxtpx:TrackPointExtension>
        </extensions>
      </trkpt>
      <trkpt lat="44.16623" lon="5.30197">
        <ele>1623.2</ele>
        <time>2021-06-12T10:30:59Z</time>
        <extensions>
          <gpxtpx:TrackPointExtension xmlns:gpxtpx="http://www.garmin.com/xmlschemas/TrackPointExtension/v1">
            <gpxtpx:hr>116</gpxtpx:hr>
          </gpxtpx:TrackPointExtension>
        </extensions>
      </trkpt>
      <trkpt lat="44.16622" lon="5.30199">
        <ele>1623</ele>
        <time>2021-06-12T10:31:00Z</time>
        <extensions>
          <gpxtpx:TrackPointExtension xmlns:gpxtpx="http://www.garmin.com/xmlschemas/TrackPointExtension/v1">
            <gpxtpx:hr>117</gpxtpx:hr>
          </gpxtpx:TrackPointExtension>
        </extensions>
      </trkpt>
      <trkpt lat="44.16618" lon="5.30209">
        <ele>1622</ele>
        <time>2021-06-12T10:31:06Z</time>
        <extensions>
          <gpxtpx:TrackPointExtension xmlns:gpxtpx="http://www.garmin.com/xmlschemas/TrackPointExtension/v1">
            <gpxtpx:hr>116</gpxtpx:hr>
          </gpxtpx:TrackPointExtension>
        </extensions>
      </trkpt>
      <trkpt lat="44.16613" lon="5.30218">
        <ele>1620.8</ele>
        <time>2021-06-12T10:31:11Z</time>
        <extensions>
          <gpxtpx:TrackPointExtension xmlns:gpxtpx="http://www.garmin.com/xmlschemas/TrackPointExtension/v1">
            <gpxtpx:hr>118</gpxtpx:hr>
          </gpxtpx:TrackPointExtension>
        </extensions>
      </trkpt>
      <trkpt lat="44.16612" lon="5.30222">
        <ele>1620.2</ele>
        <time>2021-06-12T10:31:13Z</time>
        <extensions>
          <gpxtpx:TrackPointExtension xmlns:gpxtpx="http://www.garmin.com/xmlschemas/TrackPointExtension/v1">
            <gpxtpx:hr>115</gpxtpx:hr>
          </gpxtpx:TrackPointExtension>
        </extensions>
      </trkpt>
      <trkpt lat="44.16611" lon="5.30223">
        <ele>1619.8</ele>
        <time>2021-06-12T10:31:14Z</time>
        <extensions>
          <gpxtpx:TrackPointExtension xmlns:gpxtpx="http://www.garmin.com/xmlschemas/TrackPointExtension/v1">
            <gpxtpx:hr>113</gpxtpx:hr>
          </gpxtpx:TrackPointExtension>
        </extensions>
      </trkpt>
      <trkpt lat="44.16607" lon="5.30233">
        <ele>1618.6</ele>
        <time>2021-06-12T10:31:19Z</time>
        <extensions>
          <gpxtpx:TrackPointExtension xmlns:gpxtpx="http://www.garmin.com/xmlschemas/TrackPointExtension/v1">
            <gpxtpx:hr>115</gpxtpx:hr>
          </gpxtpx:TrackPointExtension>
        </extensions>
      </trkpt>
      <trkpt lat="44.16601" lon="5.30244">
        <ele>1617.6</ele>
        <time>2021-06-12T10:31:25Z</time>
        <extensions>
          <gpxtpx:TrackPointExtension xmlns:gpxtpx="http://www.garmin.com/xmlschemas/TrackPointExtension/v1">
            <gpxtpx:hr>116</gpxtpx:hr>
          </gpxtpx:TrackPointExtension>
        </extensions>
      </trkpt>
      <trkpt lat="44.16588" lon="5.30261">
        <ele>1616.4</ele>
        <time>2021-06-12T10:31:36Z</time>
        <extensions>
          <gpxtpx:TrackPointExtension xmlns:gpxtpx="http://www.garmin.com/xmlschemas/TrackPointExtension/v1">
            <gpxtpx:hr>114</gpxtpx:hr>
          </gpxtpx:TrackPointExtension>
        </extensions>
      </trkpt>
      <trkpt lat="44.16582" lon="5.30267">
        <ele>1615.2</ele>
        <time>2021-06-12T10:31:40Z</time>
        <extensions>
          <gpxtpx:TrackPointExtension xmlns:gpxtpx="http://www.garmin.com/xmlschemas/TrackPointExtension/v1">
            <gpxtpx:hr>116</gpxtpx:hr>
          </gpxtpx:TrackPointExtension>
        </extensions>
      </trkpt>
      <trkpt lat="44.16577" lon="5.30277">
        <ele>1614.2</ele>
        <time>2021-06-12T10:31:47Z</time>
        <extensions>
          <gpxtpx:TrackPointExtension xmlns:gpxtpx="http://www.garmin.com/xmlschemas/TrackPointExtension/v1">
            <gpxtpx:hr>117</gpxtpx:hr>
          </gpxtpx:TrackPointExtension>
        </extensions>
      </trkpt>
      <trkpt lat="44.16576" lon="5.3028">
        <ele>1613.6</ele>
        <time>2021-06-12T10:31:49Z</time>
        <extensions>
          <gpxtpx:TrackPointExtension xmlns:gpxtpx="http://www.garmin.com/xmlschemas/TrackPointExtension/v1">
            <gpxtpx:hr>118</gpxtpx:hr>
          </gpxtpx:TrackPointExtension>
        </extensions>
      </trkpt>
      <trkpt lat="44.16574" lon="5.30284">
        <ele>1613</ele>
        <time>2021-06-12T10:31:51Z</time>
        <extensions>
          <gpxtpx:TrackPointExtension xmlns:gpxtpx="http://www.garmin.com/xmlschemas/TrackPointExtension/v1">
            <gpxtpx:hr>118</gpxtpx:hr>
          </gpxtpx:TrackPointExtension>
        </extensions>
      </trkpt>
      <trkpt lat="44.16562" lon="5.30303">
        <ele>1612.2</ele>
        <time>2021-06-12T10:32:01Z</time>
        <extensions>
          <gpxtpx:TrackPointExtension xmlns:gpxtpx="http://www.garmin.com/xmlschemas/TrackPointExtension/v1">
            <gpxtpx:hr>116</gpxtpx:hr>
          </gpxtpx:TrackPointExtension>
        </extensions>
      </trkpt>
      <trkpt lat="44.16561" lon="5.30304">
        <ele>1612</ele>
        <time>2021-06-12T10:32:02Z</time>
        <extensions>
          <gpxtpx:TrackPointExtension xmlns:gpxtpx="http://www.garmin.com/xmlschemas/TrackPointExtension/v1">
            <gpxtpx:hr>116</gpxtpx:hr>
          </gpxtpx:TrackPointExtension>
        </extensions>
      </trkpt>
      <trkpt lat="44.16557" lon="5.30309">
        <ele>1611</ele>
        <time>2021-06-12T10:32:05Z</time>
        <extensions>
          <gpxtpx:TrackPointExtension xmlns:gpxtpx="http://www.garmin.com/xmlschemas/TrackPointExtension/v1">
            <gpxtpx:hr>114</gpxtpx:hr>
          </gpxtpx:TrackPointExtension>
        </extensions>
      </trkpt>
      <trkpt lat="44.16553" lon="5.30316">
        <ele>1609.8</ele>
        <time>2021-06-12T10:32:09Z</time>
        <extensions>
          <gpxtpx:TrackPointExtension xmlns:gpxtpx="http://www.garmin.com/xmlschemas/TrackPointExtension/v1">
            <gpxtpx:hr>115</gpxtpx:hr>
          </gpxtpx:TrackPointExtension>
        </extensions>
      </trkpt>
      <trkpt lat="44.16549" lon="5.30324">
        <ele>1608.6</ele>
        <time>2021-06-12T10:32:16Z</time>
        <extensions>
          <gpxtpx:TrackPointExtension xmlns:gpxtpx="http://www.garmin.com/xmlschemas/TrackPointExtension/v1">
            <gpxtpx:hr>116</gpxtpx:hr>
          </gpxtpx:TrackPointExtension>
        </extensions>
      </trkpt>
      <trkpt lat="44.16544" lon="5.30334">
        <ele>1607.6</ele>
        <time>2021-06-12T10:32:21Z</time>
        <extensions>
          <gpxtpx:TrackPointExtension xmlns:gpxtpx="http://www.garmin.com/xmlschemas/TrackPointExtension/v1">
            <gpxtpx:hr>116</gpxtpx:hr>
          </gpxtpx:TrackPointExtension>
        </extensions>
      </trkpt>
      <trkpt lat="44.16531" lon="5.30354">
        <ele>1607.2</ele>
        <time>2021-06-12T10:32:32Z</time>
        <extensions>
          <gpxtpx:TrackPointExtension xmlns:gpxtpx="http://www.garmin.com/xmlschemas/TrackPointExtension/v1">
            <gpxtpx:hr>116</gpxtpx:hr>
          </gpxtpx:TrackPointExtension>
        </extensions>
      </trkpt>
      <trkpt lat="44.16529" lon="5.30358">
        <ele>1606.6</ele>
        <time>2021-06-12T10:32:34Z</time>
        <extensions>
          <gpxtpx:TrackPointExtension xmlns:gpxtpx="http://www.garmin.com/xmlschemas/TrackPointExtension/v1">
            <gpxtpx:hr>116</gpxtpx:hr>
          </gpxtpx:TrackPointExtension>
        </extensions>
      </trkpt>
      <trkpt lat="44.16523" lon="5.3037">
        <ele>1605.4</ele>
        <time>2021-06-12T10:32:40Z</time>
        <extensions>
          <gpxtpx:TrackPointExtension xmlns:gpxtpx="http://www.garmin.com/xmlschemas/TrackPointExtension/v1">
            <gpxtpx:hr>118</gpxtpx:hr>
          </gpxtpx:TrackPointExtension>
        </extensions>
      </trkpt>
      <trkpt lat="44.16513" lon="5.3039">
        <ele>1605</ele>
        <time>2021-06-12T10:32:51Z</time>
        <extensions>
          <gpxtpx:TrackPointExtension xmlns:gpxtpx="http://www.garmin.com/xmlschemas/TrackPointExtension/v1">
            <gpxtpx:hr>118</gpxtpx:hr>
          </gpxtpx:TrackPointExtension>
        </extensions>
      </trkpt>
      <trkpt lat="44.16511" lon="5.30396">
        <ele>1604.4</ele>
        <time>2021-06-12T10:32:54Z</time>
        <extensions>
          <gpxtpx:TrackPointExtension xmlns:gpxtpx="http://www.garmin.com/xmlschemas/TrackPointExtension/v1">
            <gpxtpx:hr>118</gpxtpx:hr>
          </gpxtpx:TrackPointExtension>
        </extensions>
      </trkpt>
      <trkpt lat="44.16501" lon="5.30419">
        <ele>1604.4</ele>
        <time>2021-06-12T10:33:04Z</time>
        <extensions>
          <gpxtpx:TrackPointExtension xmlns:gpxtpx="http://www.garmin.com/xmlschemas/TrackPointExtension/v1">
            <gpxtpx:hr>119</gpxtpx:hr>
          </gpxtpx:TrackPointExtension>
        </extensions>
      </trkpt>
      <trkpt lat="44.165" lon="5.30421">
        <ele>1604.4</ele>
        <time>2021-06-12T10:33:05Z</time>
        <extensions>
          <gpxtpx:TrackPointExtension xmlns:gpxtpx="http://www.garmin.com/xmlschemas/TrackPointExtension/v1">
            <gpxtpx:hr>116</gpxtpx:hr>
          </gpxtpx:TrackPointExtension>
        </extensions>
      </trkpt>
      <trkpt lat="44.16489" lon="5.30443">
        <ele>1604.2</ele>
        <time>2021-06-12T10:33:17Z</time>
        <extensions>
          <gpxtpx:TrackPointExtension xmlns:gpxtpx="http://www.garmin.com/xmlschemas/TrackPointExtension/v1">
            <gpxtpx:hr>115</gpxtpx:hr>
          </gpxtpx:TrackPointExtension>
        </extensions>
      </trkpt>
      <trkpt lat="44.16483" lon="5.30457">
        <ele>1604</ele>
        <time>2021-06-12T10:33:24Z</time>
        <extensions>
          <gpxtpx:TrackPointExtension xmlns:gpxtpx="http://www.garmin.com/xmlschemas/TrackPointExtension/v1">
            <gpxtpx:hr>116</gpxtpx:hr>
          </gpxtpx:TrackPointExtension>
        </extensions>
      </trkpt>
      <trkpt lat="44.16474" lon="5.3047">
        <ele>1604.2</ele>
        <time>2021-06-12T10:33:32Z</time>
        <extensions>
          <gpxtpx:TrackPointExtension xmlns:gpxtpx="http://www.garmin.com/xmlschemas/TrackPointExtension/v1">
            <gpxtpx:hr>119</gpxtpx:hr>
          </gpxtpx:TrackPointExtension>
        </extensions>
      </trkpt>
      <trkpt lat="44.16465" lon="5.30492">
        <ele>1604.4</ele>
        <time>2021-06-12T10:33:44Z</time>
        <extensions>
          <gpxtpx:TrackPointExtension xmlns:gpxtpx="http://www.garmin.com/xmlschemas/TrackPointExtension/v1">
            <gpxtpx:hr>120</gpxtpx:hr>
          </gpxtpx:TrackPointExtension>
        </extensions>
      </trkpt>
      <trkpt lat="44.16454" lon="5.30513">
        <ele>1604.2</ele>
        <time>2021-06-12T10:33:56Z</time>
        <extensions>
          <gpxtpx:TrackPointExtension xmlns:gpxtpx="http://www.garmin.com/xmlschemas/TrackPointExtension/v1">
            <gpxtpx:hr>120</gpxtpx:hr>
          </gpxtpx:TrackPointExtension>
        </extensions>
      </trkpt>
      <trkpt lat="44.16442" lon="5.30528">
        <ele>1603.2</ele>
        <time>2021-06-12T10:34:07Z</time>
        <extensions>
          <gpxtpx:TrackPointExtension xmlns:gpxtpx="http://www.garmin.com/xmlschemas/TrackPointExtension/v1">
            <gpxtpx:hr>120</gpxtpx:hr>
          </gpxtpx:TrackPointExtension>
        </extensions>
      </trkpt>
      <trkpt lat="44.1643" lon="5.30547">
        <ele>1602.2</ele>
        <time>2021-06-12T10:34:18Z</time>
        <extensions>
          <gpxtpx:TrackPointExtension xmlns:gpxtpx="http://www.garmin.com/xmlschemas/TrackPointExtension/v1">
            <gpxtpx:hr>118</gpxtpx:hr>
          </gpxtpx:TrackPointExtension>
        </extensions>
      </trkpt>
      <trkpt lat="44.16427" lon="5.30552">
        <ele>1601.4</ele>
        <time>2021-06-12T10:34:22Z</time>
        <extensions>
          <gpxtpx:TrackPointExtension xmlns:gpxtpx="http://www.garmin.com/xmlschemas/TrackPointExtension/v1">
            <gpxtpx:hr>122</gpxtpx:hr>
          </gpxtpx:TrackPointExtension>
        </extensions>
      </trkpt>
      <trkpt lat="44.16424" lon="5.30554">
        <ele>1601</ele>
        <time>2021-06-12T10:34:24Z</time>
        <extensions>
          <gpxtpx:TrackPointExtension xmlns:gpxtpx="http://www.garmin.com/xmlschemas/TrackPointExtension/v1">
            <gpxtpx:hr>122</gpxtpx:hr>
          </gpxtpx:TrackPointExtension>
        </extensions>
      </trkpt>
      <trkpt lat="44.16422" lon="5.30557">
        <ele>1600.8</ele>
        <time>2021-06-12T10:34:26Z</time>
        <extensions>
          <gpxtpx:TrackPointExtension xmlns:gpxtpx="http://www.garmin.com/xmlschemas/TrackPointExtension/v1">
            <gpxtpx:hr>119</gpxtpx:hr>
          </gpxtpx:TrackPointExtension>
        </extensions>
      </trkpt>
      <trkpt lat="44.16421" lon="5.30558">
        <ele>1600.8</ele>
        <time>2021-06-12T10:34:27Z</time>
        <extensions>
          <gpxtpx:TrackPointExtension xmlns:gpxtpx="http://www.garmin.com/xmlschemas/TrackPointExtension/v1">
            <gpxtpx:hr>118</gpxtpx:hr>
          </gpxtpx:TrackPointExtension>
        </extensions>
      </trkpt>
      <trkpt lat="44.16411" lon="5.30569">
        <ele>1599.8</ele>
        <time>2021-06-12T10:34:34Z</time>
        <extensions>
          <gpxtpx:TrackPointExtension xmlns:gpxtpx="http://www.garmin.com/xmlschemas/TrackPointExtension/v1">
            <gpxtpx:hr>117</gpxtpx:hr>
          </gpxtpx:TrackPointExtension>
        </extensions>
      </trkpt>
      <trkpt lat="44.16398" lon="5.30582">
        <ele>1598.8</ele>
        <time>2021-06-12T10:34:43Z</time>
        <extensions>
          <gpxtpx:TrackPointExtension xmlns:gpxtpx="http://www.garmin.com/xmlschemas/TrackPointExtension/v1">
            <gpxtpx:hr>118</gpxtpx:hr>
          </gpxtpx:TrackPointExtension>
        </extensions>
      </trkpt>
      <trkpt lat="44.16383" lon="5.30599">
        <ele>1599</ele>
        <time>2021-06-12T10:34:54Z</time>
        <extensions>
          <gpxtpx:TrackPointExtension xmlns:gpxtpx="http://www.garmin.com/xmlschemas/TrackPointExtension/v1">
            <gpxtpx:hr>118</gpxtpx:hr>
          </gpxtpx:TrackPointExtension>
        </extensions>
      </trkpt>
      <trkpt lat="44.16375" lon="5.3061">
        <ele>1598</ele>
        <time>2021-06-12T10:35:00Z</time>
        <extensions>
          <gpxtpx:TrackPointExtension xmlns:gpxtpx="http://www.garmin.com/xmlschemas/TrackPointExtension/v1">
            <gpxtpx:hr>115</gpxtpx:hr>
          </gpxtpx:TrackPointExtension>
        </extensions>
      </trkpt>
      <trkpt lat="44.16373" lon="5.30614">
        <ele>1597.8</ele>
        <time>2021-06-12T10:35:02Z</time>
        <extensions>
          <gpxtpx:TrackPointExtension xmlns:gpxtpx="http://www.garmin.com/xmlschemas/TrackPointExtension/v1">
            <gpxtpx:hr>115</gpxtpx:hr>
          </gpxtpx:TrackPointExtension>
        </extensions>
      </trkpt>
      <trkpt lat="44.16369" lon="5.30624">
        <ele>1597</ele>
        <time>2021-06-12T10:35:06Z</time>
        <extensions>
          <gpxtpx:TrackPointExtension xmlns:gpxtpx="http://www.garmin.com/xmlschemas/TrackPointExtension/v1">
            <gpxtpx:hr>119</gpxtpx:hr>
          </gpxtpx:TrackPointExtension>
        </extensions>
      </trkpt>
      <trkpt lat="44.16368" lon="5.30626">
        <ele>1596.6</ele>
        <time>2021-06-12T10:35:07Z</time>
        <extensions>
          <gpxtpx:TrackPointExtension xmlns:gpxtpx="http://www.garmin.com/xmlschemas/TrackPointExtension/v1">
            <gpxtpx:hr>119</gpxtpx:hr>
          </gpxtpx:TrackPointExtension>
        </extensions>
      </trkpt>
      <trkpt lat="44.16364" lon="5.30638">
        <ele>1595.6</ele>
        <time>2021-06-12T10:35:13Z</time>
        <extensions>
          <gpxtpx:TrackPointExtension xmlns:gpxtpx="http://www.garmin.com/xmlschemas/TrackPointExtension/v1">
            <gpxtpx:hr>119</gpxtpx:hr>
          </gpxtpx:TrackPointExtension>
        </extensions>
      </trkpt>
      <trkpt lat="44.16361" lon="5.30648">
        <ele>1594.6</ele>
        <time>2021-06-12T10:35:18Z</time>
        <extensions>
          <gpxtpx:TrackPointExtension xmlns:gpxtpx="http://www.garmin.com/xmlschemas/TrackPointExtension/v1">
            <gpxtpx:hr>118</gpxtpx:hr>
          </gpxtpx:TrackPointExtension>
        </extensions>
      </trkpt>
      <trkpt lat="44.16358" lon="5.30663">
        <ele>1593.8</ele>
        <time>2021-06-12T10:35:24Z</time>
        <extensions>
          <gpxtpx:TrackPointExtension xmlns:gpxtpx="http://www.garmin.com/xmlschemas/TrackPointExtension/v1">
            <gpxtpx:hr>115</gpxtpx:hr>
          </gpxtpx:TrackPointExtension>
        </extensions>
      </trkpt>
      <trkpt lat="44.16357" lon="5.30667">
        <ele>1593.4</ele>
        <time>2021-06-12T10:35:26Z</time>
        <extensions>
          <gpxtpx:TrackPointExtension xmlns:gpxtpx="http://www.garmin.com/xmlschemas/TrackPointExtension/v1">
            <gpxtpx:hr>116</gpxtpx:hr>
          </gpxtpx:TrackPointExtension>
        </extensions>
      </trkpt>
      <trkpt lat="44.16355" lon="5.30678">
        <ele>1592.4</ele>
        <time>2021-06-12T10:35:31Z</time>
        <extensions>
          <gpxtpx:TrackPointExtension xmlns:gpxtpx="http://www.garmin.com/xmlschemas/TrackPointExtension/v1">
            <gpxtpx:hr>117</gpxtpx:hr>
          </gpxtpx:TrackPointExtension>
        </extensions>
      </trkpt>
      <trkpt lat="44.16355" lon="5.3068">
        <ele>1592.2</ele>
        <time>2021-06-12T10:35:32Z</time>
        <extensions>
          <gpxtpx:TrackPointExtension xmlns:gpxtpx="http://www.garmin.com/xmlschemas/TrackPointExtension/v1">
            <gpxtpx:hr>114</gpxtpx:hr>
          </gpxtpx:TrackPointExtension>
        </extensions>
      </trkpt>
      <trkpt lat="44.16354" lon="5.30687">
        <ele>1591.6</ele>
        <time>2021-06-12T10:35:35Z</time>
        <extensions>
          <gpxtpx:TrackPointExtension xmlns:gpxtpx="http://www.garmin.com/xmlschemas/TrackPointExtension/v1">
            <gpxtpx:hr>111</gpxtpx:hr>
          </gpxtpx:TrackPointExtension>
        </extensions>
      </trkpt>
      <trkpt lat="44.16352" lon="5.30694">
        <ele>1591.2</ele>
        <time>2021-06-12T10:35:38Z</time>
        <extensions>
          <gpxtpx:TrackPointExtension xmlns:gpxtpx="http://www.garmin.com/xmlschemas/TrackPointExtension/v1">
            <gpxtpx:hr>114</gpxtpx:hr>
          </gpxtpx:TrackPointExtension>
        </extensions>
      </trkpt>
      <trkpt lat="44.16346" lon="5.30715">
        <ele>1590.2</ele>
        <time>2021-06-12T10:35:49Z</time>
        <extensions>
          <gpxtpx:TrackPointExtension xmlns:gpxtpx="http://www.garmin.com/xmlschemas/TrackPointExtension/v1">
            <gpxtpx:hr>116</gpxtpx:hr>
          </gpxtpx:TrackPointExtension>
        </extensions>
      </trkpt>
      <trkpt lat="44.16343" lon="5.30735">
        <ele>1589</ele>
        <time>2021-06-12T10:35:58Z</time>
        <extensions>
          <gpxtpx:TrackPointExtension xmlns:gpxtpx="http://www.garmin.com/xmlschemas/TrackPointExtension/v1">
            <gpxtpx:hr>117</gpxtpx:hr>
          </gpxtpx:TrackPointExtension>
        </extensions>
      </trkpt>
      <trkpt lat="44.1634" lon="5.30751">
        <ele>1587.8</ele>
        <time>2021-06-12T10:36:06Z</time>
        <extensions>
          <gpxtpx:TrackPointExtension xmlns:gpxtpx="http://www.garmin.com/xmlschemas/TrackPointExtension/v1">
            <gpxtpx:hr>116</gpxtpx:hr>
          </gpxtpx:TrackPointExtension>
        </extensions>
      </trkpt>
      <trkpt lat="44.16338" lon="5.30763">
        <ele>1587.2</ele>
        <time>2021-06-12T10:36:11Z</time>
        <extensions>
          <gpxtpx:TrackPointExtension xmlns:gpxtpx="http://www.garmin.com/xmlschemas/TrackPointExtension/v1">
            <gpxtpx:hr>113</gpxtpx:hr>
          </gpxtpx:TrackPointExtension>
        </extensions>
      </trkpt>
      <trkpt lat="44.16333" lon="5.30777">
        <ele>1586.6</ele>
        <time>2021-06-12T10:36:18Z</time>
        <extensions>
          <gpxtpx:TrackPointExtension xmlns:gpxtpx="http://www.garmin.com/xmlschemas/TrackPointExtension/v1">
            <gpxtpx:hr>114</gpxtpx:hr>
          </gpxtpx:TrackPointExtension>
        </extensions>
      </trkpt>
      <trkpt lat="44.16331" lon="5.30783">
        <ele>1585.6</ele>
        <time>2021-06-12T10:36:21Z</time>
        <extensions>
          <gpxtpx:TrackPointExtension xmlns:gpxtpx="http://www.garmin.com/xmlschemas/TrackPointExtension/v1">
            <gpxtpx:hr>111</gpxtpx:hr>
          </gpxtpx:TrackPointExtension>
        </extensions>
      </trkpt>
      <trkpt lat="44.1633" lon="5.30788">
        <ele>1585</ele>
        <time>2021-06-12T10:36:23Z</time>
        <extensions>
          <gpxtpx:TrackPointExtension xmlns:gpxtpx="http://www.garmin.com/xmlschemas/TrackPointExtension/v1">
            <gpxtpx:hr>108</gpxtpx:hr>
          </gpxtpx:TrackPointExtension>
        </extensions>
      </trkpt>
      <trkpt lat="44.16329" lon="5.30792">
        <ele>1584.4</ele>
        <time>2021-06-12T10:36:25Z</time>
        <extensions>
          <gpxtpx:TrackPointExtension xmlns:gpxtpx="http://www.garmin.com/xmlschemas/TrackPointExtension/v1">
            <gpxtpx:hr>110</gpxtpx:hr>
          </gpxtpx:TrackPointExtension>
        </extensions>
      </trkpt>
      <trkpt lat="44.16329" lon="5.30797">
        <ele>1584</ele>
        <time>2021-06-12T10:36:27Z</time>
        <extensions>
          <gpxtpx:TrackPointExtension xmlns:gpxtpx="http://www.garmin.com/xmlschemas/TrackPointExtension/v1">
            <gpxtpx:hr>113</gpxtpx:hr>
          </gpxtpx:TrackPointExtension>
        </extensions>
      </trkpt>
      <trkpt lat="44.16328" lon="5.30805">
        <ele>1583.4</ele>
        <time>2021-06-12T10:36:31Z</time>
        <extensions>
          <gpxtpx:TrackPointExtension xmlns:gpxtpx="http://www.garmin.com/xmlschemas/TrackPointExtension/v1">
            <gpxtpx:hr>113</gpxtpx:hr>
          </gpxtpx:TrackPointExtension>
        </extensions>
      </trkpt>
      <trkpt lat="44.16328" lon="5.30808">
        <ele>1583</ele>
        <time>2021-06-12T10:36:33Z</time>
        <extensions>
          <gpxtpx:TrackPointExtension xmlns:gpxtpx="http://www.garmin.com/xmlschemas/TrackPointExtension/v1">
            <gpxtpx:hr>110</gpxtpx:hr>
          </gpxtpx:TrackPointExtension>
        </extensions>
      </trkpt>
      <trkpt lat="44.16328" lon="5.3081">
        <ele>1582.6</ele>
        <time>2021-06-12T10:36:34Z</time>
        <extensions>
          <gpxtpx:TrackPointExtension xmlns:gpxtpx="http://www.garmin.com/xmlschemas/TrackPointExtension/v1">
            <gpxtpx:hr>107</gpxtpx:hr>
          </gpxtpx:TrackPointExtension>
        </extensions>
      </trkpt>
      <trkpt lat="44.16327" lon="5.30812">
        <ele>1582.4</ele>
        <time>2021-06-12T10:36:35Z</time>
        <extensions>
          <gpxtpx:TrackPointExtension xmlns:gpxtpx="http://www.garmin.com/xmlschemas/TrackPointExtension/v1">
            <gpxtpx:hr>107</gpxtpx:hr>
          </gpxtpx:TrackPointExtension>
        </extensions>
      </trkpt>
      <trkpt lat="44.16326" lon="5.3082">
        <ele>1581.2</ele>
        <time>2021-06-12T10:36:39Z</time>
        <extensions>
          <gpxtpx:TrackPointExtension xmlns:gpxtpx="http://www.garmin.com/xmlschemas/TrackPointExtension/v1">
            <gpxtpx:hr>108</gpxtpx:hr>
          </gpxtpx:TrackPointExtension>
        </extensions>
      </trkpt>
      <trkpt lat="44.16325" lon="5.30824">
        <ele>1580.8</ele>
        <time>2021-06-12T10:36:41Z</time>
        <extensions>
          <gpxtpx:TrackPointExtension xmlns:gpxtpx="http://www.garmin.com/xmlschemas/TrackPointExtension/v1">
            <gpxtpx:hr>111</gpxtpx:hr>
          </gpxtpx:TrackPointExtension>
        </extensions>
      </trkpt>
      <trkpt lat="44.16324" lon="5.30829">
        <ele>1580</ele>
        <time>2021-06-12T10:36:43Z</time>
        <extensions>
          <gpxtpx:TrackPointExtension xmlns:gpxtpx="http://www.garmin.com/xmlschemas/TrackPointExtension/v1">
            <gpxtpx:hr>112</gpxtpx:hr>
          </gpxtpx:TrackPointExtension>
        </extensions>
      </trkpt>
      <trkpt lat="44.16322" lon="5.30838">
        <ele>1579</ele>
        <time>2021-06-12T10:36:47Z</time>
        <extensions>
          <gpxtpx:TrackPointExtension xmlns:gpxtpx="http://www.garmin.com/xmlschemas/TrackPointExtension/v1">
            <gpxtpx:hr>113</gpxtpx:hr>
          </gpxtpx:TrackPointExtension>
        </extensions>
      </trkpt>
      <trkpt lat="44.1632" lon="5.30843">
        <ele>1577.8</ele>
        <time>2021-06-12T10:36:50Z</time>
        <extensions>
          <gpxtpx:TrackPointExtension xmlns:gpxtpx="http://www.garmin.com/xmlschemas/TrackPointExtension/v1">
            <gpxtpx:hr>114</gpxtpx:hr>
          </gpxtpx:TrackPointExtension>
        </extensions>
      </trkpt>
      <trkpt lat="44.1632" lon="5.30851">
        <ele>1576.6</ele>
        <time>2021-06-12T10:36:54Z</time>
        <extensions>
          <gpxtpx:TrackPointExtension xmlns:gpxtpx="http://www.garmin.com/xmlschemas/TrackPointExtension/v1">
            <gpxtpx:hr>112</gpxtpx:hr>
          </gpxtpx:TrackPointExtension>
        </extensions>
      </trkpt>
      <trkpt lat="44.1632" lon="5.30857">
        <ele>1575.2</ele>
        <time>2021-06-12T10:36:57Z</time>
        <extensions>
          <gpxtpx:TrackPointExtension xmlns:gpxtpx="http://www.garmin.com/xmlschemas/TrackPointExtension/v1">
            <gpxtpx:hr>112</gpxtpx:hr>
          </gpxtpx:TrackPointExtension>
        </extensions>
      </trkpt>
      <trkpt lat="44.16318" lon="5.30863">
        <ele>1573.8</ele>
        <time>2021-06-12T10:37:00Z</time>
        <extensions>
          <gpxtpx:TrackPointExtension xmlns:gpxtpx="http://www.garmin.com/xmlschemas/TrackPointExtension/v1">
            <gpxtpx:hr>113</gpxtpx:hr>
          </gpxtpx:TrackPointExtension>
        </extensions>
      </trkpt>
      <trkpt lat="44.16316" lon="5.30869">
        <ele>1572.4</ele>
        <time>2021-06-12T10:37:03Z</time>
        <extensions>
          <gpxtpx:TrackPointExtension xmlns:gpxtpx="http://www.garmin.com/xmlschemas/TrackPointExtension/v1">
            <gpxtpx:hr>113</gpxtpx:hr>
          </gpxtpx:TrackPointExtension>
        </extensions>
      </trkpt>
      <trkpt lat="44.16314" lon="5.30875">
        <ele>1571.2</ele>
        <time>2021-06-12T10:37:06Z</time>
        <extensions>
          <gpxtpx:TrackPointExtension xmlns:gpxtpx="http://www.garmin.com/xmlschemas/TrackPointExtension/v1">
            <gpxtpx:hr>114</gpxtpx:hr>
          </gpxtpx:TrackPointExtension>
        </extensions>
      </trkpt>
      <trkpt lat="44.16311" lon="5.30884">
        <ele>1570</ele>
        <time>2021-06-12T10:37:10Z</time>
        <extensions>
          <gpxtpx:TrackPointExtension xmlns:gpxtpx="http://www.garmin.com/xmlschemas/TrackPointExtension/v1">
            <gpxtpx:hr>115</gpxtpx:hr>
          </gpxtpx:TrackPointExtension>
        </extensions>
      </trkpt>
      <trkpt lat="44.16309" lon="5.30889">
        <ele>1569</ele>
        <time>2021-06-12T10:37:13Z</time>
        <extensions>
          <gpxtpx:TrackPointExtension xmlns:gpxtpx="http://www.garmin.com/xmlschemas/TrackPointExtension/v1">
            <gpxtpx:hr>112</gpxtpx:hr>
          </gpxtpx:TrackPointExtension>
        </extensions>
      </trkpt>
      <trkpt lat="44.16307" lon="5.30898">
        <ele>1568</ele>
        <time>2021-06-12T10:37:17Z</time>
        <extensions>
          <gpxtpx:TrackPointExtension xmlns:gpxtpx="http://www.garmin.com/xmlschemas/TrackPointExtension/v1">
            <gpxtpx:hr>112</gpxtpx:hr>
          </gpxtpx:TrackPointExtension>
        </extensions>
      </trkpt>
      <trkpt lat="44.16305" lon="5.30907">
        <ele>1566.6</ele>
        <time>2021-06-12T10:37:21Z</time>
        <extensions>
          <gpxtpx:TrackPointExtension xmlns:gpxtpx="http://www.garmin.com/xmlschemas/TrackPointExtension/v1">
            <gpxtpx:hr>114</gpxtpx:hr>
          </gpxtpx:TrackPointExtension>
        </extensions>
      </trkpt>
      <trkpt lat="44.16303" lon="5.30913">
        <ele>1565.4</ele>
        <time>2021-06-12T10:37:24Z</time>
        <extensions>
          <gpxtpx:TrackPointExtension xmlns:gpxtpx="http://www.garmin.com/xmlschemas/TrackPointExtension/v1">
            <gpxtpx:hr>113</gpxtpx:hr>
          </gpxtpx:TrackPointExtension>
        </extensions>
      </trkpt>
      <trkpt lat="44.16299" lon="5.3092">
        <ele>1564.6</ele>
        <time>2021-06-12T10:37:28Z</time>
        <extensions>
          <gpxtpx:TrackPointExtension xmlns:gpxtpx="http://www.garmin.com/xmlschemas/TrackPointExtension/v1">
            <gpxtpx:hr>116</gpxtpx:hr>
          </gpxtpx:TrackPointExtension>
        </extensions>
      </trkpt>
      <trkpt lat="44.16298" lon="5.30922">
        <ele>1564.4</ele>
        <time>2021-06-12T10:37:29Z</time>
        <extensions>
          <gpxtpx:TrackPointExtension xmlns:gpxtpx="http://www.garmin.com/xmlschemas/TrackPointExtension/v1">
            <gpxtpx:hr>115</gpxtpx:hr>
          </gpxtpx:TrackPointExtension>
        </extensions>
      </trkpt>
      <trkpt lat="44.16296" lon="5.30925">
        <ele>1564</ele>
        <time>2021-06-12T10:37:31Z</time>
        <extensions>
          <gpxtpx:TrackPointExtension xmlns:gpxtpx="http://www.garmin.com/xmlschemas/TrackPointExtension/v1">
            <gpxtpx:hr>112</gpxtpx:hr>
          </gpxtpx:TrackPointExtension>
        </extensions>
      </trkpt>
      <trkpt lat="44.16293" lon="5.30927">
        <ele>1563.6</ele>
        <time>2021-06-12T10:37:33Z</time>
        <extensions>
          <gpxtpx:TrackPointExtension xmlns:gpxtpx="http://www.garmin.com/xmlschemas/TrackPointExtension/v1">
            <gpxtpx:hr>109</gpxtpx:hr>
          </gpxtpx:TrackPointExtension>
        </extensions>
      </trkpt>
      <trkpt lat="44.1629" lon="5.30931">
        <ele>1563</ele>
        <time>2021-06-12T10:37:35Z</time>
        <extensions>
          <gpxtpx:TrackPointExtension xmlns:gpxtpx="http://www.garmin.com/xmlschemas/TrackPointExtension/v1">
            <gpxtpx:hr>110</gpxtpx:hr>
          </gpxtpx:TrackPointExtension>
        </extensions>
      </trkpt>
      <trkpt lat="44.16289" lon="5.30933">
        <ele>1562.8</ele>
        <time>2021-06-12T10:37:36Z</time>
        <extensions>
          <gpxtpx:TrackPointExtension xmlns:gpxtpx="http://www.garmin.com/xmlschemas/TrackPointExtension/v1">
            <gpxtpx:hr>111</gpxtpx:hr>
          </gpxtpx:TrackPointExtension>
        </extensions>
      </trkpt>
      <trkpt lat="44.16288" lon="5.3094">
        <ele>1562</ele>
        <time>2021-06-12T10:37:39Z</time>
        <extensions>
          <gpxtpx:TrackPointExtension xmlns:gpxtpx="http://www.garmin.com/xmlschemas/TrackPointExtension/v1">
            <gpxtpx:hr>113</gpxtpx:hr>
          </gpxtpx:TrackPointExtension>
        </extensions>
      </trkpt>
      <trkpt lat="44.1628" lon="5.30957">
        <ele>1560.8</ele>
        <time>2021-06-12T10:37:48Z</time>
        <extensions>
          <gpxtpx:TrackPointExtension xmlns:gpxtpx="http://www.garmin.com/xmlschemas/TrackPointExtension/v1">
            <gpxtpx:hr>113</gpxtpx:hr>
          </gpxtpx:TrackPointExtension>
        </extensions>
      </trkpt>
      <trkpt lat="44.16278" lon="5.30962">
        <ele>1560.2</ele>
        <time>2021-06-12T10:37:50Z</time>
        <extensions>
          <gpxtpx:TrackPointExtension xmlns:gpxtpx="http://www.garmin.com/xmlschemas/TrackPointExtension/v1">
            <gpxtpx:hr>116</gpxtpx:hr>
          </gpxtpx:TrackPointExtension>
        </extensions>
      </trkpt>
      <trkpt lat="44.16276" lon="5.30968">
        <ele>1559.6</ele>
        <time>2021-06-12T10:37:53Z</time>
        <extensions>
          <gpxtpx:TrackPointExtension xmlns:gpxtpx="http://www.garmin.com/xmlschemas/TrackPointExtension/v1">
            <gpxtpx:hr>117</gpxtpx:hr>
          </gpxtpx:TrackPointExtension>
        </extensions>
      </trkpt>
      <trkpt lat="44.16274" lon="5.30972">
        <ele>1559</ele>
        <time>2021-06-12T10:37:55Z</time>
        <extensions>
          <gpxtpx:TrackPointExtension xmlns:gpxtpx="http://www.garmin.com/xmlschemas/TrackPointExtension/v1">
            <gpxtpx:hr>113</gpxtpx:hr>
          </gpxtpx:TrackPointExtension>
        </extensions>
      </trkpt>
      <trkpt lat="44.16271" lon="5.30979">
        <ele>1558.6</ele>
        <time>2021-06-12T10:37:58Z</time>
        <extensions>
          <gpxtpx:TrackPointExtension xmlns:gpxtpx="http://www.garmin.com/xmlschemas/TrackPointExtension/v1">
            <gpxtpx:hr>110</gpxtpx:hr>
          </gpxtpx:TrackPointExtension>
        </extensions>
      </trkpt>
      <trkpt lat="44.16269" lon="5.30985">
        <ele>1558.6</ele>
        <time>2021-06-12T10:38:01Z</time>
        <extensions>
          <gpxtpx:TrackPointExtension xmlns:gpxtpx="http://www.garmin.com/xmlschemas/TrackPointExtension/v1">
            <gpxtpx:hr>113</gpxtpx:hr>
          </gpxtpx:TrackPointExtension>
        </extensions>
      </trkpt>
      <trkpt lat="44.16268" lon="5.3099">
        <ele>1558.4</ele>
        <time>2021-06-12T10:38:04Z</time>
        <extensions>
          <gpxtpx:TrackPointExtension xmlns:gpxtpx="http://www.garmin.com/xmlschemas/TrackPointExtension/v1">
            <gpxtpx:hr>116</gpxtpx:hr>
          </gpxtpx:TrackPointExtension>
        </extensions>
      </trkpt>
      <trkpt lat="44.16263" lon="5.31009">
        <ele>1557.6</ele>
        <time>2021-06-12T10:38:13Z</time>
        <extensions>
          <gpxtpx:TrackPointExtension xmlns:gpxtpx="http://www.garmin.com/xmlschemas/TrackPointExtension/v1">
            <gpxtpx:hr>118</gpxtpx:hr>
          </gpxtpx:TrackPointExtension>
        </extensions>
      </trkpt>
      <trkpt lat="44.16255" lon="5.31033">
        <ele>1556.6</ele>
        <time>2021-06-12T10:38:24Z</time>
        <extensions>
          <gpxtpx:TrackPointExtension xmlns:gpxtpx="http://www.garmin.com/xmlschemas/TrackPointExtension/v1">
            <gpxtpx:hr>118</gpxtpx:hr>
          </gpxtpx:TrackPointExtension>
        </extensions>
      </trkpt>
      <trkpt lat="44.16254" lon="5.31035">
        <ele>1556.6</ele>
        <time>2021-06-12T10:38:25Z</time>
        <extensions>
          <gpxtpx:TrackPointExtension xmlns:gpxtpx="http://www.garmin.com/xmlschemas/TrackPointExtension/v1">
            <gpxtpx:hr>118</gpxtpx:hr>
          </gpxtpx:TrackPointExtension>
        </extensions>
      </trkpt>
      <trkpt lat="44.16245" lon="5.31056">
        <ele>1555.8</ele>
        <time>2021-06-12T10:38:37Z</time>
        <extensions>
          <gpxtpx:TrackPointExtension xmlns:gpxtpx="http://www.garmin.com/xmlschemas/TrackPointExtension/v1">
            <gpxtpx:hr>120</gpxtpx:hr>
          </gpxtpx:TrackPointExtension>
        </extensions>
      </trkpt>
      <trkpt lat="44.16243" lon="5.3106">
        <ele>1555.6</ele>
        <time>2021-06-12T10:38:39Z</time>
        <extensions>
          <gpxtpx:TrackPointExtension xmlns:gpxtpx="http://www.garmin.com/xmlschemas/TrackPointExtension/v1">
            <gpxtpx:hr>120</gpxtpx:hr>
          </gpxtpx:TrackPointExtension>
        </extensions>
      </trkpt>
      <trkpt lat="44.16241" lon="5.31064">
        <ele>1555.2</ele>
        <time>2021-06-12T10:38:41Z</time>
        <extensions>
          <gpxtpx:TrackPointExtension xmlns:gpxtpx="http://www.garmin.com/xmlschemas/TrackPointExtension/v1">
            <gpxtpx:hr>117</gpxtpx:hr>
          </gpxtpx:TrackPointExtension>
        </extensions>
      </trkpt>
      <trkpt lat="44.16239" lon="5.31071">
        <ele>1555</ele>
        <time>2021-06-12T10:38:44Z</time>
        <extensions>
          <gpxtpx:TrackPointExtension xmlns:gpxtpx="http://www.garmin.com/xmlschemas/TrackPointExtension/v1">
            <gpxtpx:hr>114</gpxtpx:hr>
          </gpxtpx:TrackPointExtension>
        </extensions>
      </trkpt>
      <trkpt lat="44.16235" lon="5.31082">
        <ele>1555</ele>
        <time>2021-06-12T10:38:50Z</time>
        <extensions>
          <gpxtpx:TrackPointExtension xmlns:gpxtpx="http://www.garmin.com/xmlschemas/TrackPointExtension/v1">
            <gpxtpx:hr>117</gpxtpx:hr>
          </gpxtpx:TrackPointExtension>
        </extensions>
      </trkpt>
      <trkpt lat="44.16229" lon="5.31106">
        <ele>1554.4</ele>
        <time>2021-06-12T10:39:01Z</time>
        <extensions>
          <gpxtpx:TrackPointExtension xmlns:gpxtpx="http://www.garmin.com/xmlschemas/TrackPointExtension/v1">
            <gpxtpx:hr>119</gpxtpx:hr>
          </gpxtpx:TrackPointExtension>
        </extensions>
      </trkpt>
      <trkpt lat="44.16222" lon="5.31127">
        <ele>1554.2</ele>
        <time>2021-06-12T10:39:10Z</time>
        <extensions>
          <gpxtpx:TrackPointExtension xmlns:gpxtpx="http://www.garmin.com/xmlschemas/TrackPointExtension/v1">
            <gpxtpx:hr>121</gpxtpx:hr>
          </gpxtpx:TrackPointExtension>
        </extensions>
      </trkpt>
      <trkpt lat="44.16211" lon="5.31147">
        <ele>1554.4</ele>
        <time>2021-06-12T10:39:21Z</time>
        <extensions>
          <gpxtpx:TrackPointExtension xmlns:gpxtpx="http://www.garmin.com/xmlschemas/TrackPointExtension/v1">
            <gpxtpx:hr>122</gpxtpx:hr>
          </gpxtpx:TrackPointExtension>
        </extensions>
      </trkpt>
      <trkpt lat="44.16207" lon="5.31157">
        <ele>1553.8</ele>
        <time>2021-06-12T10:39:26Z</time>
        <extensions>
          <gpxtpx:TrackPointExtension xmlns:gpxtpx="http://www.garmin.com/xmlschemas/TrackPointExtension/v1">
            <gpxtpx:hr>119</gpxtpx:hr>
          </gpxtpx:TrackPointExtension>
        </extensions>
      </trkpt>
      <trkpt lat="44.16204" lon="5.31164">
        <ele>1553.4</ele>
        <time>2021-06-12T10:39:30Z</time>
        <extensions>
          <gpxtpx:TrackPointExtension xmlns:gpxtpx="http://www.garmin.com/xmlschemas/TrackPointExtension/v1">
            <gpxtpx:hr>119</gpxtpx:hr>
          </gpxtpx:TrackPointExtension>
        </extensions>
      </trkpt>
      <trkpt lat="44.16201" lon="5.31173">
        <ele>1553.2</ele>
        <time>2021-06-12T10:39:34Z</time>
        <extensions>
          <gpxtpx:TrackPointExtension xmlns:gpxtpx="http://www.garmin.com/xmlschemas/TrackPointExtension/v1">
            <gpxtpx:hr>122</gpxtpx:hr>
          </gpxtpx:TrackPointExtension>
        </extensions>
      </trkpt>
      <trkpt lat="44.16199" lon="5.31192">
        <ele>1553.2</ele>
        <time>2021-06-12T10:39:43Z</time>
        <extensions>
          <gpxtpx:TrackPointExtension xmlns:gpxtpx="http://www.garmin.com/xmlschemas/TrackPointExtension/v1">
            <gpxtpx:hr>119</gpxtpx:hr>
          </gpxtpx:TrackPointExtension>
        </extensions>
      </trkpt>
      <trkpt lat="44.16199" lon="5.31201">
        <ele>1553.6</ele>
        <time>2021-06-12T10:39:47Z</time>
        <extensions>
          <gpxtpx:TrackPointExtension xmlns:gpxtpx="http://www.garmin.com/xmlschemas/TrackPointExtension/v1">
            <gpxtpx:hr>122</gpxtpx:hr>
          </gpxtpx:TrackPointExtension>
        </extensions>
      </trkpt>
      <trkpt lat="44.16204" lon="5.31222">
        <ele>1554.2</ele>
        <time>2021-06-12T10:39:58Z</time>
        <extensions>
          <gpxtpx:TrackPointExtension xmlns:gpxtpx="http://www.garmin.com/xmlschemas/TrackPointExtension/v1">
            <gpxtpx:hr>125</gpxtpx:hr>
          </gpxtpx:TrackPointExtension>
        </extensions>
      </trkpt>
      <trkpt lat="44.16205" lon="5.31228">
        <ele>1554.6</ele>
        <time>2021-06-12T10:40:01Z</time>
        <extensions>
          <gpxtpx:TrackPointExtension xmlns:gpxtpx="http://www.garmin.com/xmlschemas/TrackPointExtension/v1">
            <gpxtpx:hr>127</gpxtpx:hr>
          </gpxtpx:TrackPointExtension>
        </extensions>
      </trkpt>
      <trkpt lat="44.16209" lon="5.31253">
        <ele>1555.2</ele>
        <time>2021-06-12T10:40:13Z</time>
        <extensions>
          <gpxtpx:TrackPointExtension xmlns:gpxtpx="http://www.garmin.com/xmlschemas/TrackPointExtension/v1">
            <gpxtpx:hr>129</gpxtpx:hr>
          </gpxtpx:TrackPointExtension>
        </extensions>
      </trkpt>
      <trkpt lat="44.16211" lon="5.31266">
        <ele>1555.2</ele>
        <time>2021-06-12T10:40:19Z</time>
        <extensions>
          <gpxtpx:TrackPointExtension xmlns:gpxtpx="http://www.garmin.com/xmlschemas/TrackPointExtension/v1">
            <gpxtpx:hr>128</gpxtpx:hr>
          </gpxtpx:TrackPointExtension>
        </extensions>
      </trkpt>
      <trkpt lat="44.16215" lon="5.31292">
        <ele>1555</ele>
        <time>2021-06-12T10:40:31Z</time>
        <extensions>
          <gpxtpx:TrackPointExtension xmlns:gpxtpx="http://www.garmin.com/xmlschemas/TrackPointExtension/v1">
            <gpxtpx:hr>126</gpxtpx:hr>
          </gpxtpx:TrackPointExtension>
        </extensions>
      </trkpt>
      <trkpt lat="44.16218" lon="5.31318">
        <ele>1555.4</ele>
        <time>2021-06-12T10:40:42Z</time>
        <extensions>
          <gpxtpx:TrackPointExtension xmlns:gpxtpx="http://www.garmin.com/xmlschemas/TrackPointExtension/v1">
            <gpxtpx:hr>128</gpxtpx:hr>
          </gpxtpx:TrackPointExtension>
        </extensions>
      </trkpt>
      <trkpt lat="44.16218" lon="5.31322">
        <ele>1555.6</ele>
        <time>2021-06-12T10:40:44Z</time>
        <extensions>
          <gpxtpx:TrackPointExtension xmlns:gpxtpx="http://www.garmin.com/xmlschemas/TrackPointExtension/v1">
            <gpxtpx:hr>128</gpxtpx:hr>
          </gpxtpx:TrackPointExtension>
        </extensions>
      </trkpt>
      <trkpt lat="44.16219" lon="5.31348">
        <ele>1556</ele>
        <time>2021-06-12T10:40:56Z</time>
        <extensions>
          <gpxtpx:TrackPointExtension xmlns:gpxtpx="http://www.garmin.com/xmlschemas/TrackPointExtension/v1">
            <gpxtpx:hr>128</gpxtpx:hr>
          </gpxtpx:TrackPointExtension>
        </extensions>
      </trkpt>
      <trkpt lat="44.16221" lon="5.31363">
        <ele>1556.8</ele>
        <time>2021-06-12T10:41:03Z</time>
        <extensions>
          <gpxtpx:TrackPointExtension xmlns:gpxtpx="http://www.garmin.com/xmlschemas/TrackPointExtension/v1">
            <gpxtpx:hr>129</gpxtpx:hr>
          </gpxtpx:TrackPointExtension>
        </extensions>
      </trkpt>
      <trkpt lat="44.16224" lon="5.31383">
        <ele>1558</ele>
        <time>2021-06-12T10:41:13Z</time>
        <extensions>
          <gpxtpx:TrackPointExtension xmlns:gpxtpx="http://www.garmin.com/xmlschemas/TrackPointExtension/v1">
            <gpxtpx:hr>131</gpxtpx:hr>
          </gpxtpx:TrackPointExtension>
        </extensions>
      </trkpt>
      <trkpt lat="44.16229" lon="5.31407">
        <ele>1558.6</ele>
        <time>2021-06-12T10:41:25Z</time>
        <extensions>
          <gpxtpx:TrackPointExtension xmlns:gpxtpx="http://www.garmin.com/xmlschemas/TrackPointExtension/v1">
            <gpxtpx:hr>130</gpxtpx:hr>
          </gpxtpx:TrackPointExtension>
        </extensions>
      </trkpt>
      <trkpt lat="44.16234" lon="5.31432">
        <ele>1558.4</ele>
        <time>2021-06-12T10:41:36Z</time>
        <extensions>
          <gpxtpx:TrackPointExtension xmlns:gpxtpx="http://www.garmin.com/xmlschemas/TrackPointExtension/v1">
            <gpxtpx:hr>130</gpxtpx:hr>
          </gpxtpx:TrackPointExtension>
        </extensions>
      </trkpt>
      <trkpt lat="44.16237" lon="5.31453">
        <ele>1558.2</ele>
        <time>2021-06-12T10:41:46Z</time>
        <extensions>
          <gpxtpx:TrackPointExtension xmlns:gpxtpx="http://www.garmin.com/xmlschemas/TrackPointExtension/v1">
            <gpxtpx:hr>127</gpxtpx:hr>
          </gpxtpx:TrackPointExtension>
        </extensions>
      </trkpt>
      <trkpt lat="44.16241" lon="5.31474">
        <ele>1556.6</ele>
        <time>2021-06-12T10:41:56Z</time>
        <extensions>
          <gpxtpx:TrackPointExtension xmlns:gpxtpx="http://www.garmin.com/xmlschemas/TrackPointExtension/v1">
            <gpxtpx:hr>127</gpxtpx:hr>
          </gpxtpx:TrackPointExtension>
        </extensions>
      </trkpt>
      <trkpt lat="44.16234" lon="5.31494">
        <ele>1555.6</ele>
        <time>2021-06-12T10:42:05Z</time>
        <extensions>
          <gpxtpx:TrackPointExtension xmlns:gpxtpx="http://www.garmin.com/xmlschemas/TrackPointExtension/v1">
            <gpxtpx:hr>124</gpxtpx:hr>
          </gpxtpx:TrackPointExtension>
        </extensions>
      </trkpt>
      <trkpt lat="44.16224" lon="5.31511">
        <ele>1554.4</ele>
        <time>2021-06-12T10:42:15Z</time>
        <extensions>
          <gpxtpx:TrackPointExtension xmlns:gpxtpx="http://www.garmin.com/xmlschemas/TrackPointExtension/v1">
            <gpxtpx:hr>125</gpxtpx:hr>
          </gpxtpx:TrackPointExtension>
        </extensions>
      </trkpt>
      <trkpt lat="44.16218" lon="5.31519">
        <ele>1553.2</ele>
        <time>2021-06-12T10:42:20Z</time>
        <extensions>
          <gpxtpx:TrackPointExtension xmlns:gpxtpx="http://www.garmin.com/xmlschemas/TrackPointExtension/v1">
            <gpxtpx:hr>124</gpxtpx:hr>
          </gpxtpx:TrackPointExtension>
        </extensions>
      </trkpt>
      <trkpt lat="44.16214" lon="5.31526">
        <ele>1552.2</ele>
        <time>2021-06-12T10:42:24Z</time>
        <extensions>
          <gpxtpx:TrackPointExtension xmlns:gpxtpx="http://www.garmin.com/xmlschemas/TrackPointExtension/v1">
            <gpxtpx:hr>122</gpxtpx:hr>
          </gpxtpx:TrackPointExtension>
        </extensions>
      </trkpt>
      <trkpt lat="44.16209" lon="5.31535">
        <ele>1551.2</ele>
        <time>2021-06-12T10:42:29Z</time>
        <extensions>
          <gpxtpx:TrackPointExtension xmlns:gpxtpx="http://www.garmin.com/xmlschemas/TrackPointExtension/v1">
            <gpxtpx:hr>121</gpxtpx:hr>
          </gpxtpx:TrackPointExtension>
        </extensions>
      </trkpt>
      <trkpt lat="44.16206" lon="5.31539">
        <ele>1550.2</ele>
        <time>2021-06-12T10:42:32Z</time>
        <extensions>
          <gpxtpx:TrackPointExtension xmlns:gpxtpx="http://www.garmin.com/xmlschemas/TrackPointExtension/v1">
            <gpxtpx:hr>117</gpxtpx:hr>
          </gpxtpx:TrackPointExtension>
        </extensions>
      </trkpt>
      <trkpt lat="44.16204" lon="5.31542">
        <ele>1550</ele>
        <time>2021-06-12T10:42:34Z</time>
        <extensions>
          <gpxtpx:TrackPointExtension xmlns:gpxtpx="http://www.garmin.com/xmlschemas/TrackPointExtension/v1">
            <gpxtpx:hr>118</gpxtpx:hr>
          </gpxtpx:TrackPointExtension>
        </extensions>
      </trkpt>
      <trkpt lat="44.16198" lon="5.31555">
        <ele>1548.6</ele>
        <time>2021-06-12T10:42:41Z</time>
        <extensions>
          <gpxtpx:TrackPointExtension xmlns:gpxtpx="http://www.garmin.com/xmlschemas/TrackPointExtension/v1">
            <gpxtpx:hr>119</gpxtpx:hr>
          </gpxtpx:TrackPointExtension>
        </extensions>
      </trkpt>
      <trkpt lat="44.16193" lon="5.31566">
        <ele>1547.6</ele>
        <time>2021-06-12T10:42:47Z</time>
        <extensions>
          <gpxtpx:TrackPointExtension xmlns:gpxtpx="http://www.garmin.com/xmlschemas/TrackPointExtension/v1">
            <gpxtpx:hr>117</gpxtpx:hr>
          </gpxtpx:TrackPointExtension>
        </extensions>
      </trkpt>
      <trkpt lat="44.16183" lon="5.31587">
        <ele>1546.6</ele>
        <time>2021-06-12T10:42:57Z</time>
        <extensions>
          <gpxtpx:TrackPointExtension xmlns:gpxtpx="http://www.garmin.com/xmlschemas/TrackPointExtension/v1">
            <gpxtpx:hr>118</gpxtpx:hr>
          </gpxtpx:TrackPointExtension>
        </extensions>
      </trkpt>
      <trkpt lat="44.16169" lon="5.31606">
        <ele>1546.8</ele>
        <time>2021-06-12T10:43:09Z</time>
        <extensions>
          <gpxtpx:TrackPointExtension xmlns:gpxtpx="http://www.garmin.com/xmlschemas/TrackPointExtension/v1">
            <gpxtpx:hr>117</gpxtpx:hr>
          </gpxtpx:TrackPointExtension>
        </extensions>
      </trkpt>
      <trkpt lat="44.16167" lon="5.31609">
        <ele>1546.4</ele>
        <time>2021-06-12T10:43:11Z</time>
        <extensions>
          <gpxtpx:TrackPointExtension xmlns:gpxtpx="http://www.garmin.com/xmlschemas/TrackPointExtension/v1">
            <gpxtpx:hr>117</gpxtpx:hr>
          </gpxtpx:TrackPointExtension>
        </extensions>
      </trkpt>
      <trkpt lat="44.16161" lon="5.31622">
        <ele>1545</ele>
        <time>2021-06-12T10:43:17Z</time>
        <extensions>
          <gpxtpx:TrackPointExtension xmlns:gpxtpx="http://www.garmin.com/xmlschemas/TrackPointExtension/v1">
            <gpxtpx:hr>118</gpxtpx:hr>
          </gpxtpx:TrackPointExtension>
        </extensions>
      </trkpt>
      <trkpt lat="44.16159" lon="5.31627">
        <ele>1543.8</ele>
        <time>2021-06-12T10:43:20Z</time>
        <extensions>
          <gpxtpx:TrackPointExtension xmlns:gpxtpx="http://www.garmin.com/xmlschemas/TrackPointExtension/v1">
            <gpxtpx:hr>117</gpxtpx:hr>
          </gpxtpx:TrackPointExtension>
        </extensions>
      </trkpt>
      <trkpt lat="44.16148" lon="5.31649">
        <ele>1544.6</ele>
        <time>2021-06-12T10:43:31Z</time>
        <extensions>
          <gpxtpx:TrackPointExtension xmlns:gpxtpx="http://www.garmin.com/xmlschemas/TrackPointExtension/v1">
            <gpxtpx:hr>118</gpxtpx:hr>
          </gpxtpx:TrackPointExtension>
        </extensions>
      </trkpt>
      <trkpt lat="44.16147" lon="5.31653">
        <ele>1544.4</ele>
        <time>2021-06-12T10:43:34Z</time>
        <extensions>
          <gpxtpx:TrackPointExtension xmlns:gpxtpx="http://www.garmin.com/xmlschemas/TrackPointExtension/v1">
            <gpxtpx:hr>118</gpxtpx:hr>
          </gpxtpx:TrackPointExtension>
        </extensions>
      </trkpt>
      <trkpt lat="44.16132" lon="5.31671">
        <ele>1543</ele>
        <time>2021-06-12T10:43:47Z</time>
        <extensions>
          <gpxtpx:TrackPointExtension xmlns:gpxtpx="http://www.garmin.com/xmlschemas/TrackPointExtension/v1">
            <gpxtpx:hr>120</gpxtpx:hr>
          </gpxtpx:TrackPointExtension>
        </extensions>
      </trkpt>
      <trkpt lat="44.16132" lon="5.31672">
        <ele>1542.8</ele>
        <time>2021-06-12T10:43:48Z</time>
        <extensions>
          <gpxtpx:TrackPointExtension xmlns:gpxtpx="http://www.garmin.com/xmlschemas/TrackPointExtension/v1">
            <gpxtpx:hr>120</gpxtpx:hr>
          </gpxtpx:TrackPointExtension>
        </extensions>
      </trkpt>
      <trkpt lat="44.16124" lon="5.31688">
        <ele>1542.6</ele>
        <time>2021-06-12T10:44:01Z</time>
        <extensions>
          <gpxtpx:TrackPointExtension xmlns:gpxtpx="http://www.garmin.com/xmlschemas/TrackPointExtension/v1">
            <gpxtpx:hr>115</gpxtpx:hr>
          </gpxtpx:TrackPointExtension>
        </extensions>
      </trkpt>
      <trkpt lat="44.16124" lon="5.31688">
        <ele>1542.4</ele>
        <time>2021-06-12T10:44:02Z</time>
        <extensions>
          <gpxtpx:TrackPointExtension xmlns:gpxtpx="http://www.garmin.com/xmlschemas/TrackPointExtension/v1">
            <gpxtpx:hr>112</gpxtpx:hr>
          </gpxtpx:TrackPointExtension>
        </extensions>
      </trkpt>
      <trkpt lat="44.16124" lon="5.31688">
        <ele>1542.4</ele>
        <time>2021-06-12T10:44:03Z</time>
        <extensions>
          <gpxtpx:TrackPointExtension xmlns:gpxtpx="http://www.garmin.com/xmlschemas/TrackPointExtension/v1">
            <gpxtpx:hr>112</gpxtpx:hr>
          </gpxtpx:TrackPointExtension>
        </extensions>
      </trkpt>
      <trkpt lat="44.16122" lon="5.31691">
        <ele>1542.4</ele>
        <time>2021-06-12T10:44:05Z</time>
        <extensions>
          <gpxtpx:TrackPointExtension xmlns:gpxtpx="http://www.garmin.com/xmlschemas/TrackPointExtension/v1">
            <gpxtpx:hr>115</gpxtpx:hr>
          </gpxtpx:TrackPointExtension>
        </extensions>
      </trkpt>
      <trkpt lat="44.1612" lon="5.31695">
        <ele>1542.2</ele>
        <time>2021-06-12T10:44:07Z</time>
        <extensions>
          <gpxtpx:TrackPointExtension xmlns:gpxtpx="http://www.garmin.com/xmlschemas/TrackPointExtension/v1">
            <gpxtpx:hr>118</gpxtpx:hr>
          </gpxtpx:TrackPointExtension>
        </extensions>
      </trkpt>
      <trkpt lat="44.16118" lon="5.317">
        <ele>1542.2</ele>
        <time>2021-06-12T10:44:10Z</time>
        <extensions>
          <gpxtpx:TrackPointExtension xmlns:gpxtpx="http://www.garmin.com/xmlschemas/TrackPointExtension/v1">
            <gpxtpx:hr>118</gpxtpx:hr>
          </gpxtpx:TrackPointExtension>
        </extensions>
      </trkpt>
      <trkpt lat="44.16106" lon="5.31721">
        <ele>1541.8</ele>
        <time>2021-06-12T10:44:21Z</time>
        <extensions>
          <gpxtpx:TrackPointExtension xmlns:gpxtpx="http://www.garmin.com/xmlschemas/TrackPointExtension/v1">
            <gpxtpx:hr>119</gpxtpx:hr>
          </gpxtpx:TrackPointExtension>
        </extensions>
      </trkpt>
      <trkpt lat="44.16103" lon="5.31728">
        <ele>1541.8</ele>
        <time>2021-06-12T10:44:25Z</time>
        <extensions>
          <gpxtpx:TrackPointExtension xmlns:gpxtpx="http://www.garmin.com/xmlschemas/TrackPointExtension/v1">
            <gpxtpx:hr>118</gpxtpx:hr>
          </gpxtpx:TrackPointExtension>
        </extensions>
      </trkpt>
      <trkpt lat="44.16089" lon="5.31745">
        <ele>1541</ele>
        <time>2021-06-12T10:44:37Z</time>
        <extensions>
          <gpxtpx:TrackPointExtension xmlns:gpxtpx="http://www.garmin.com/xmlschemas/TrackPointExtension/v1">
            <gpxtpx:hr>115</gpxtpx:hr>
          </gpxtpx:TrackPointExtension>
        </extensions>
      </trkpt>
      <trkpt lat="44.16087" lon="5.31749">
        <ele>1541</ele>
        <time>2021-06-12T10:44:39Z</time>
        <extensions>
          <gpxtpx:TrackPointExtension xmlns:gpxtpx="http://www.garmin.com/xmlschemas/TrackPointExtension/v1">
            <gpxtpx:hr>115</gpxtpx:hr>
          </gpxtpx:TrackPointExtension>
        </extensions>
      </trkpt>
      <trkpt lat="44.16082" lon="5.31762">
        <ele>1540.6</ele>
        <time>2021-06-12T10:44:46Z</time>
        <extensions>
          <gpxtpx:TrackPointExtension xmlns:gpxtpx="http://www.garmin.com/xmlschemas/TrackPointExtension/v1">
            <gpxtpx:hr>115</gpxtpx:hr>
          </gpxtpx:TrackPointExtension>
        </extensions>
      </trkpt>
      <trkpt lat="44.16078" lon="5.31771">
        <ele>1540.4</ele>
        <time>2021-06-12T10:44:51Z</time>
        <extensions>
          <gpxtpx:TrackPointExtension xmlns:gpxtpx="http://www.garmin.com/xmlschemas/TrackPointExtension/v1">
            <gpxtpx:hr>118</gpxtpx:hr>
          </gpxtpx:TrackPointExtension>
        </extensions>
      </trkpt>
      <trkpt lat="44.16075" lon="5.31778">
        <ele>1540.8</ele>
        <time>2021-06-12T10:44:55Z</time>
        <extensions>
          <gpxtpx:TrackPointExtension xmlns:gpxtpx="http://www.garmin.com/xmlschemas/TrackPointExtension/v1">
            <gpxtpx:hr>121</gpxtpx:hr>
          </gpxtpx:TrackPointExtension>
        </extensions>
      </trkpt>
      <trkpt lat="44.16067" lon="5.318">
        <ele>1540.6</ele>
        <time>2021-06-12T10:45:07Z</time>
        <extensions>
          <gpxtpx:TrackPointExtension xmlns:gpxtpx="http://www.garmin.com/xmlschemas/TrackPointExtension/v1">
            <gpxtpx:hr>122</gpxtpx:hr>
          </gpxtpx:TrackPointExtension>
        </extensions>
      </trkpt>
      <trkpt lat="44.16064" lon="5.31806">
        <ele>1540.6</ele>
        <time>2021-06-12T10:45:10Z</time>
        <extensions>
          <gpxtpx:TrackPointExtension xmlns:gpxtpx="http://www.garmin.com/xmlschemas/TrackPointExtension/v1">
            <gpxtpx:hr>122</gpxtpx:hr>
          </gpxtpx:TrackPointExtension>
        </extensions>
      </trkpt>
      <trkpt lat="44.16053" lon="5.31826">
        <ele>1540</ele>
        <time>2021-06-12T10:45:22Z</time>
        <extensions>
          <gpxtpx:TrackPointExtension xmlns:gpxtpx="http://www.garmin.com/xmlschemas/TrackPointExtension/v1">
            <gpxtpx:hr>122</gpxtpx:hr>
          </gpxtpx:TrackPointExtension>
        </extensions>
      </trkpt>
      <trkpt lat="44.16049" lon="5.31834">
        <ele>1539.6</ele>
        <time>2021-06-12T10:45:26Z</time>
        <extensions>
          <gpxtpx:TrackPointExtension xmlns:gpxtpx="http://www.garmin.com/xmlschemas/TrackPointExtension/v1">
            <gpxtpx:hr>122</gpxtpx:hr>
          </gpxtpx:TrackPointExtension>
        </extensions>
      </trkpt>
      <trkpt lat="44.16038" lon="5.31856">
        <ele>1539.6</ele>
        <time>2021-06-12T10:45:39Z</time>
        <extensions>
          <gpxtpx:TrackPointExtension xmlns:gpxtpx="http://www.garmin.com/xmlschemas/TrackPointExtension/v1">
            <gpxtpx:hr>120</gpxtpx:hr>
          </gpxtpx:TrackPointExtension>
        </extensions>
      </trkpt>
      <trkpt lat="44.16033" lon="5.31864">
        <ele>1539.2</ele>
        <time>2021-06-12T10:45:44Z</time>
        <extensions>
          <gpxtpx:TrackPointExtension xmlns:gpxtpx="http://www.garmin.com/xmlschemas/TrackPointExtension/v1">
            <gpxtpx:hr>117</gpxtpx:hr>
          </gpxtpx:TrackPointExtension>
        </extensions>
      </trkpt>
      <trkpt lat="44.16023" lon="5.31874">
        <ele>1538.4</ele>
        <time>2021-06-12T10:45:53Z</time>
        <extensions>
          <gpxtpx:TrackPointExtension xmlns:gpxtpx="http://www.garmin.com/xmlschemas/TrackPointExtension/v1">
            <gpxtpx:hr>115</gpxtpx:hr>
          </gpxtpx:TrackPointExtension>
        </extensions>
      </trkpt>
      <trkpt lat="44.16016" lon="5.31884">
        <ele>1537.4</ele>
        <time>2021-06-12T10:46:00Z</time>
        <extensions>
          <gpxtpx:TrackPointExtension xmlns:gpxtpx="http://www.garmin.com/xmlschemas/TrackPointExtension/v1">
            <gpxtpx:hr>117</gpxtpx:hr>
          </gpxtpx:TrackPointExtension>
        </extensions>
      </trkpt>
      <trkpt lat="44.16013" lon="5.31886">
        <ele>1537.2</ele>
        <time>2021-06-12T10:46:02Z</time>
        <extensions>
          <gpxtpx:TrackPointExtension xmlns:gpxtpx="http://www.garmin.com/xmlschemas/TrackPointExtension/v1">
            <gpxtpx:hr>114</gpxtpx:hr>
          </gpxtpx:TrackPointExtension>
        </extensions>
      </trkpt>
      <trkpt lat="44.16012" lon="5.31887">
        <ele>1537</ele>
        <time>2021-06-12T10:46:03Z</time>
        <extensions>
          <gpxtpx:TrackPointExtension xmlns:gpxtpx="http://www.garmin.com/xmlschemas/TrackPointExtension/v1">
            <gpxtpx:hr>111</gpxtpx:hr>
          </gpxtpx:TrackPointExtension>
        </extensions>
      </trkpt>
      <trkpt lat="44.16011" lon="5.31889">
        <ele>1536.8</ele>
        <time>2021-06-12T10:46:04Z</time>
        <extensions>
          <gpxtpx:TrackPointExtension xmlns:gpxtpx="http://www.garmin.com/xmlschemas/TrackPointExtension/v1">
            <gpxtpx:hr>108</gpxtpx:hr>
          </gpxtpx:TrackPointExtension>
        </extensions>
      </trkpt>
      <trkpt lat="44.1601" lon="5.3189">
        <ele>1536.4</ele>
        <time>2021-06-12T10:46:05Z</time>
        <extensions>
          <gpxtpx:TrackPointExtension xmlns:gpxtpx="http://www.garmin.com/xmlschemas/TrackPointExtension/v1">
            <gpxtpx:hr>108</gpxtpx:hr>
          </gpxtpx:TrackPointExtension>
        </extensions>
      </trkpt>
      <trkpt lat="44.16007" lon="5.31893">
        <ele>1535.8</ele>
        <time>2021-06-12T10:46:08Z</time>
        <extensions>
          <gpxtpx:TrackPointExtension xmlns:gpxtpx="http://www.garmin.com/xmlschemas/TrackPointExtension/v1">
            <gpxtpx:hr>111</gpxtpx:hr>
          </gpxtpx:TrackPointExtension>
        </extensions>
      </trkpt>
      <trkpt lat="44.16004" lon="5.31898">
        <ele>1535.2</ele>
        <time>2021-06-12T10:46:11Z</time>
        <extensions>
          <gpxtpx:TrackPointExtension xmlns:gpxtpx="http://www.garmin.com/xmlschemas/TrackPointExtension/v1">
            <gpxtpx:hr>113</gpxtpx:hr>
          </gpxtpx:TrackPointExtension>
        </extensions>
      </trkpt>
      <trkpt lat="44.16001" lon="5.31906">
        <ele>1534.6</ele>
        <time>2021-06-12T10:46:18Z</time>
        <extensions>
          <gpxtpx:TrackPointExtension xmlns:gpxtpx="http://www.garmin.com/xmlschemas/TrackPointExtension/v1">
            <gpxtpx:hr>110</gpxtpx:hr>
          </gpxtpx:TrackPointExtension>
        </extensions>
      </trkpt>
      <trkpt lat="44.16001" lon="5.31906">
        <ele>1534.8</ele>
        <time>2021-06-12T10:46:24Z</time>
        <extensions>
          <gpxtpx:TrackPointExtension xmlns:gpxtpx="http://www.garmin.com/xmlschemas/TrackPointExtension/v1">
            <gpxtpx:hr>113</gpxtpx:hr>
          </gpxtpx:TrackPointExtension>
        </extensions>
      </trkpt>
      <trkpt lat="44.16001" lon="5.31906">
        <ele>1534.6</ele>
        <time>2021-06-12T10:46:31Z</time>
        <extensions>
          <gpxtpx:TrackPointExtension xmlns:gpxtpx="http://www.garmin.com/xmlschemas/TrackPointExtension/v1">
            <gpxtpx:hr>110</gpxtpx:hr>
          </gpxtpx:TrackPointExtension>
        </extensions>
      </trkpt>
      <trkpt lat="44.16002" lon="5.31907">
        <ele>1534.6</ele>
        <time>2021-06-12T10:46:38Z</time>
        <extensions>
          <gpxtpx:TrackPointExtension xmlns:gpxtpx="http://www.garmin.com/xmlschemas/TrackPointExtension/v1">
            <gpxtpx:hr>113</gpxtpx:hr>
          </gpxtpx:TrackPointExtension>
        </extensions>
      </trkpt>
      <trkpt lat="44.16003" lon="5.3191">
        <ele>1534.8</ele>
        <time>2021-06-12T10:46:41Z</time>
        <extensions>
          <gpxtpx:TrackPointExtension xmlns:gpxtpx="http://www.garmin.com/xmlschemas/TrackPointExtension/v1">
            <gpxtpx:hr>114</gpxtpx:hr>
          </gpxtpx:TrackPointExtension>
        </extensions>
      </trkpt>
      <trkpt lat="44.16003" lon="5.31915">
        <ele>1535</ele>
        <time>2021-06-12T10:46:45Z</time>
        <extensions>
          <gpxtpx:TrackPointExtension xmlns:gpxtpx="http://www.garmin.com/xmlschemas/TrackPointExtension/v1">
            <gpxtpx:hr>112</gpxtpx:hr>
          </gpxtpx:TrackPointExtension>
        </extensions>
      </trkpt>
      <trkpt lat="44.16003" lon="5.31921">
        <ele>1534.8</ele>
        <time>2021-06-12T10:46:50Z</time>
        <extensions>
          <gpxtpx:TrackPointExtension xmlns:gpxtpx="http://www.garmin.com/xmlschemas/TrackPointExtension/v1">
            <gpxtpx:hr>115</gpxtpx:hr>
          </gpxtpx:TrackPointExtension>
        </extensions>
      </trkpt>
      <trkpt lat="44.16003" lon="5.31932">
        <ele>1535.4</ele>
        <time>2021-06-12T10:46:57Z</time>
        <extensions>
          <gpxtpx:TrackPointExtension xmlns:gpxtpx="http://www.garmin.com/xmlschemas/TrackPointExtension/v1">
            <gpxtpx:hr>112</gpxtpx:hr>
          </gpxtpx:TrackPointExtension>
        </extensions>
      </trkpt>
      <trkpt lat="44.16004" lon="5.31938">
        <ele>1535.6</ele>
        <time>2021-06-12T10:47:01Z</time>
        <extensions>
          <gpxtpx:TrackPointExtension xmlns:gpxtpx="http://www.garmin.com/xmlschemas/TrackPointExtension/v1">
            <gpxtpx:hr>113</gpxtpx:hr>
          </gpxtpx:TrackPointExtension>
        </extensions>
      </trkpt>
      <trkpt lat="44.16005" lon="5.31939">
        <ele>1535.8</ele>
        <time>2021-06-12T10:47:02Z</time>
        <extensions>
          <gpxtpx:TrackPointExtension xmlns:gpxtpx="http://www.garmin.com/xmlschemas/TrackPointExtension/v1">
            <gpxtpx:hr>113</gpxtpx:hr>
          </gpxtpx:TrackPointExtension>
        </extensions>
      </trkpt>
      <trkpt lat="44.16006" lon="5.31949">
        <ele>1536.2</ele>
        <time>2021-06-12T10:47:09Z</time>
        <extensions>
          <gpxtpx:TrackPointExtension xmlns:gpxtpx="http://www.garmin.com/xmlschemas/TrackPointExtension/v1">
            <gpxtpx:hr>112</gpxtpx:hr>
          </gpxtpx:TrackPointExtension>
        </extensions>
      </trkpt>
      <trkpt lat="44.16006" lon="5.31951">
        <ele>1536.2</ele>
        <time>2021-06-12T10:47:10Z</time>
        <extensions>
          <gpxtpx:TrackPointExtension xmlns:gpxtpx="http://www.garmin.com/xmlschemas/TrackPointExtension/v1">
            <gpxtpx:hr>113</gpxtpx:hr>
          </gpxtpx:TrackPointExtension>
        </extensions>
      </trkpt>
      <trkpt lat="44.16006" lon="5.31955">
        <ele>1536.2</ele>
        <time>2021-06-12T10:47:12Z</time>
        <extensions>
          <gpxtpx:TrackPointExtension xmlns:gpxtpx="http://www.garmin.com/xmlschemas/TrackPointExtension/v1">
            <gpxtpx:hr>112</gpxtpx:hr>
          </gpxtpx:TrackPointExtension>
        </extensions>
      </trkpt>
      <trkpt lat="44.16006" lon="5.31965">
        <ele>1536.8</ele>
        <time>2021-06-12T10:47:19Z</time>
        <extensions>
          <gpxtpx:TrackPointExtension xmlns:gpxtpx="http://www.garmin.com/xmlschemas/TrackPointExtension/v1">
            <gpxtpx:hr>115</gpxtpx:hr>
          </gpxtpx:TrackPointExtension>
        </extensions>
      </trkpt>
      <trkpt lat="44.16009" lon="5.31977">
        <ele>1537.2</ele>
        <time>2021-06-12T10:47:26Z</time>
        <extensions>
          <gpxtpx:TrackPointExtension xmlns:gpxtpx="http://www.garmin.com/xmlschemas/TrackPointExtension/v1">
            <gpxtpx:hr>116</gpxtpx:hr>
          </gpxtpx:TrackPointExtension>
        </extensions>
      </trkpt>
      <trkpt lat="44.16009" lon="5.31997">
        <ele>1538</ele>
        <time>2021-06-12T10:47:39Z</time>
        <extensions>
          <gpxtpx:TrackPointExtension xmlns:gpxtpx="http://www.garmin.com/xmlschemas/TrackPointExtension/v1">
            <gpxtpx:hr>119</gpxtpx:hr>
          </gpxtpx:TrackPointExtension>
        </extensions>
      </trkpt>
      <trkpt lat="44.1601" lon="5.32002">
        <ele>1538.4</ele>
        <time>2021-06-12T10:47:42Z</time>
        <extensions>
          <gpxtpx:TrackPointExtension xmlns:gpxtpx="http://www.garmin.com/xmlschemas/TrackPointExtension/v1">
            <gpxtpx:hr>120</gpxtpx:hr>
          </gpxtpx:TrackPointExtension>
        </extensions>
      </trkpt>
      <trkpt lat="44.16011" lon="5.3202">
        <ele>1538.2</ele>
        <time>2021-06-12T10:47:53Z</time>
        <extensions>
          <gpxtpx:TrackPointExtension xmlns:gpxtpx="http://www.garmin.com/xmlschemas/TrackPointExtension/v1">
            <gpxtpx:hr>119</gpxtpx:hr>
          </gpxtpx:TrackPointExtension>
        </extensions>
      </trkpt>
      <trkpt lat="44.16011" lon="5.32026">
        <ele>1538.4</ele>
        <time>2021-06-12T10:47:57Z</time>
        <extensions>
          <gpxtpx:TrackPointExtension xmlns:gpxtpx="http://www.garmin.com/xmlschemas/TrackPointExtension/v1">
            <gpxtpx:hr>117</gpxtpx:hr>
          </gpxtpx:TrackPointExtension>
        </extensions>
      </trkpt>
      <trkpt lat="44.16011" lon="5.32026">
        <ele>1538.4</ele>
        <time>2021-06-12T10:47:58Z</time>
        <extensions>
          <gpxtpx:TrackPointExtension xmlns:gpxtpx="http://www.garmin.com/xmlschemas/TrackPointExtension/v1">
            <gpxtpx:hr>117</gpxtpx:hr>
          </gpxtpx:TrackPointExtension>
        </extensions>
      </trkpt>
      <trkpt lat="44.1601" lon="5.32026">
        <ele>1538.2</ele>
        <time>2021-06-12T10:47:59Z</time>
        <extensions>
          <gpxtpx:TrackPointExtension xmlns:gpxtpx="http://www.garmin.com/xmlschemas/TrackPointExtension/v1">
            <gpxtpx:hr>117</gpxtpx:hr>
          </gpxtpx:TrackPointExtension>
        </extensions>
      </trkpt>
      <trkpt lat="44.1601" lon="5.32026">
        <ele>1538.2</ele>
        <time>2021-06-12T10:48:01Z</time>
        <extensions>
          <gpxtpx:TrackPointExtension xmlns:gpxtpx="http://www.garmin.com/xmlschemas/TrackPointExtension/v1">
            <gpxtpx:hr>116</gpxtpx:hr>
          </gpxtpx:TrackPointExtension>
        </extensions>
      </trkpt>
      <trkpt lat="44.16011" lon="5.32027">
        <ele>1538.2</ele>
        <time>2021-06-12T10:48:03Z</time>
        <extensions>
          <gpxtpx:TrackPointExtension xmlns:gpxtpx="http://www.garmin.com/xmlschemas/TrackPointExtension/v1">
            <gpxtpx:hr>116</gpxtpx:hr>
          </gpxtpx:TrackPointExtension>
        </extensions>
      </trkpt>
      <trkpt lat="44.16004" lon="5.32021">
        <ele>1538.2</ele>
        <time>2021-06-12T10:48:18Z</time>
        <extensions>
          <gpxtpx:TrackPointExtension xmlns:gpxtpx="http://www.garmin.com/xmlschemas/TrackPointExtension/v1">
            <gpxtpx:hr>114</gpxtpx:hr>
          </gpxtpx:TrackPointExtension>
        </extensions>
      </trkpt>
      <trkpt lat="44.16003" lon="5.32021">
        <ele>1538.2</ele>
        <time>2021-06-12T10:48:43Z</time>
        <extensions>
          <gpxtpx:TrackPointExtension xmlns:gpxtpx="http://www.garmin.com/xmlschemas/TrackPointExtension/v1">
            <gpxtpx:hr>111</gpxtpx:hr>
          </gpxtpx:TrackPointExtension>
        </extensions>
      </trkpt>
      <trkpt lat="44.16003" lon="5.32021">
        <ele>1538.2</ele>
        <time>2021-06-12T10:48:52Z</time>
        <extensions>
          <gpxtpx:TrackPointExtension xmlns:gpxtpx="http://www.garmin.com/xmlschemas/TrackPointExtension/v1">
            <gpxtpx:hr>107</gpxtpx:hr>
          </gpxtpx:TrackPointExtension>
        </extensions>
      </trkpt>
      <trkpt lat="44.16003" lon="5.32021">
        <ele>1538.2</ele>
        <time>2021-06-12T10:48:54Z</time>
        <extensions>
          <gpxtpx:TrackPointExtension xmlns:gpxtpx="http://www.garmin.com/xmlschemas/TrackPointExtension/v1">
            <gpxtpx:hr>104</gpxtpx:hr>
          </gpxtpx:TrackPointExtension>
        </extensions>
      </trkpt>
      <trkpt lat="44.16003" lon="5.3202">
        <ele>1538</ele>
        <time>2021-06-12T10:49:01Z</time>
        <extensions>
          <gpxtpx:TrackPointExtension xmlns:gpxtpx="http://www.garmin.com/xmlschemas/TrackPointExtension/v1">
            <gpxtpx:hr>107</gpxtpx:hr>
          </gpxtpx:TrackPointExtension>
        </extensions>
      </trkpt>
      <trkpt lat="44.16004" lon="5.32016">
        <ele>1538</ele>
        <time>2021-06-12T10:49:13Z</time>
        <extensions>
          <gpxtpx:TrackPointExtension xmlns:gpxtpx="http://www.garmin.com/xmlschemas/TrackPointExtension/v1">
            <gpxtpx:hr>110</gpxtpx:hr>
          </gpxtpx:TrackPointExtension>
        </extensions>
      </trkpt>
      <trkpt lat="44.16005" lon="5.32012">
        <ele>1538.2</ele>
        <time>2021-06-12T10:49:16Z</time>
        <extensions>
          <gpxtpx:TrackPointExtension xmlns:gpxtpx="http://www.garmin.com/xmlschemas/TrackPointExtension/v1">
            <gpxtpx:hr>105</gpxtpx:hr>
          </gpxtpx:TrackPointExtension>
        </extensions>
      </trkpt>
      <trkpt lat="44.16005" lon="5.3201">
        <ele>1538.2</ele>
        <time>2021-06-12T10:49:18Z</time>
        <extensions>
          <gpxtpx:TrackPointExtension xmlns:gpxtpx="http://www.garmin.com/xmlschemas/TrackPointExtension/v1">
            <gpxtpx:hr>102</gpxtpx:hr>
          </gpxtpx:TrackPointExtension>
        </extensions>
      </trkpt>
      <trkpt lat="44.16005" lon="5.3201">
        <ele>1538</ele>
        <time>2021-06-12T10:49:19Z</time>
        <extensions>
          <gpxtpx:TrackPointExtension xmlns:gpxtpx="http://www.garmin.com/xmlschemas/TrackPointExtension/v1">
            <gpxtpx:hr>102</gpxtpx:hr>
          </gpxtpx:TrackPointExtension>
        </extensions>
      </trkpt>
      <trkpt lat="44.16005" lon="5.3201">
        <ele>1538</ele>
        <time>2021-06-12T10:49:22Z</time>
        <extensions>
          <gpxtpx:TrackPointExtension xmlns:gpxtpx="http://www.garmin.com/xmlschemas/TrackPointExtension/v1">
            <gpxtpx:hr>106</gpxtpx:hr>
          </gpxtpx:TrackPointExtension>
        </extensions>
      </trkpt>
      <trkpt lat="44.16005" lon="5.32011">
        <ele>1538</ele>
        <time>2021-06-12T10:49:24Z</time>
        <extensions>
          <gpxtpx:TrackPointExtension xmlns:gpxtpx="http://www.garmin.com/xmlschemas/TrackPointExtension/v1">
            <gpxtpx:hr>109</gpxtpx:hr>
          </gpxtpx:TrackPointExtension>
        </extensions>
      </trkpt>
      <trkpt lat="44.16005" lon="5.32009">
        <ele>1538.2</ele>
        <time>2021-06-12T10:49:40Z</time>
        <extensions>
          <gpxtpx:TrackPointExtension xmlns:gpxtpx="http://www.garmin.com/xmlschemas/TrackPointExtension/v1">
            <gpxtpx:hr>112</gpxtpx:hr>
          </gpxtpx:TrackPointExtension>
        </extensions>
      </trkpt>
      <trkpt lat="44.16006" lon="5.32012">
        <ele>1538.2</ele>
        <time>2021-06-12T10:49:49Z</time>
        <extensions>
          <gpxtpx:TrackPointExtension xmlns:gpxtpx="http://www.garmin.com/xmlschemas/TrackPointExtension/v1">
            <gpxtpx:hr>112</gpxtpx:hr>
          </gpxtpx:TrackPointExtension>
        </extensions>
      </trkpt>
      <trkpt lat="44.16006" lon="5.32014">
        <ele>1538.2</ele>
        <time>2021-06-12T10:49:50Z</time>
        <extensions>
          <gpxtpx:TrackPointExtension xmlns:gpxtpx="http://www.garmin.com/xmlschemas/TrackPointExtension/v1">
            <gpxtpx:hr>112</gpxtpx:hr>
          </gpxtpx:TrackPointExtension>
        </extensions>
      </trkpt>
      <trkpt lat="44.16007" lon="5.32018">
        <ele>1538.2</ele>
        <time>2021-06-12T10:49:52Z</time>
        <extensions>
          <gpxtpx:TrackPointExtension xmlns:gpxtpx="http://www.garmin.com/xmlschemas/TrackPointExtension/v1">
            <gpxtpx:hr>114</gpxtpx:hr>
          </gpxtpx:TrackPointExtension>
        </extensions>
      </trkpt>
      <trkpt lat="44.16008" lon="5.32025">
        <ele>1539.6</ele>
        <time>2021-06-12T10:49:55Z</time>
        <extensions>
          <gpxtpx:TrackPointExtension xmlns:gpxtpx="http://www.garmin.com/xmlschemas/TrackPointExtension/v1">
            <gpxtpx:hr>115</gpxtpx:hr>
          </gpxtpx:TrackPointExtension>
        </extensions>
      </trkpt>
      <trkpt lat="44.1601" lon="5.32039">
        <ele>1539.6</ele>
        <time>2021-06-12T10:50:01Z</time>
        <extensions>
          <gpxtpx:TrackPointExtension xmlns:gpxtpx="http://www.garmin.com/xmlschemas/TrackPointExtension/v1">
            <gpxtpx:hr>112</gpxtpx:hr>
          </gpxtpx:TrackPointExtension>
        </extensions>
      </trkpt>
      <trkpt lat="44.1601" lon="5.32043">
        <ele>1539.6</ele>
        <time>2021-06-12T10:50:03Z</time>
        <extensions>
          <gpxtpx:TrackPointExtension xmlns:gpxtpx="http://www.garmin.com/xmlschemas/TrackPointExtension/v1">
            <gpxtpx:hr>109</gpxtpx:hr>
          </gpxtpx:TrackPointExtension>
        </extensions>
      </trkpt>
      <trkpt lat="44.16003" lon="5.32061">
        <ele>1538.6</ele>
        <time>2021-06-12T10:50:13Z</time>
        <extensions>
          <gpxtpx:TrackPointExtension xmlns:gpxtpx="http://www.garmin.com/xmlschemas/TrackPointExtension/v1">
            <gpxtpx:hr>112</gpxtpx:hr>
          </gpxtpx:TrackPointExtension>
        </extensions>
      </trkpt>
      <trkpt lat="44.16001" lon="5.32068">
        <ele>1537.8</ele>
        <time>2021-06-12T10:50:16Z</time>
        <extensions>
          <gpxtpx:TrackPointExtension xmlns:gpxtpx="http://www.garmin.com/xmlschemas/TrackPointExtension/v1">
            <gpxtpx:hr>115</gpxtpx:hr>
          </gpxtpx:TrackPointExtension>
        </extensions>
      </trkpt>
      <trkpt lat="44.16001" lon="5.3207">
        <ele>1537.4</ele>
        <time>2021-06-12T10:50:17Z</time>
        <extensions>
          <gpxtpx:TrackPointExtension xmlns:gpxtpx="http://www.garmin.com/xmlschemas/TrackPointExtension/v1">
            <gpxtpx:hr>115</gpxtpx:hr>
          </gpxtpx:TrackPointExtension>
        </extensions>
      </trkpt>
      <trkpt lat="44.15997" lon="5.32075">
        <ele>1536.4</ele>
        <time>2021-06-12T10:50:21Z</time>
        <extensions>
          <gpxtpx:TrackPointExtension xmlns:gpxtpx="http://www.garmin.com/xmlschemas/TrackPointExtension/v1">
            <gpxtpx:hr>114</gpxtpx:hr>
          </gpxtpx:TrackPointExtension>
        </extensions>
      </trkpt>
      <trkpt lat="44.15995" lon="5.3208">
        <ele>1536.2</ele>
        <time>2021-06-12T10:50:24Z</time>
        <extensions>
          <gpxtpx:TrackPointExtension xmlns:gpxtpx="http://www.garmin.com/xmlschemas/TrackPointExtension/v1">
            <gpxtpx:hr>111</gpxtpx:hr>
          </gpxtpx:TrackPointExtension>
        </extensions>
      </trkpt>
      <trkpt lat="44.15989" lon="5.32094">
        <ele>1535.4</ele>
        <time>2021-06-12T10:50:32Z</time>
        <extensions>
          <gpxtpx:TrackPointExtension xmlns:gpxtpx="http://www.garmin.com/xmlschemas/TrackPointExtension/v1">
            <gpxtpx:hr>112</gpxtpx:hr>
          </gpxtpx:TrackPointExtension>
        </extensions>
      </trkpt>
      <trkpt lat="44.15977" lon="5.32115">
        <ele>1534.2</ele>
        <time>2021-06-12T10:50:43Z</time>
        <extensions>
          <gpxtpx:TrackPointExtension xmlns:gpxtpx="http://www.garmin.com/xmlschemas/TrackPointExtension/v1">
            <gpxtpx:hr>115</gpxtpx:hr>
          </gpxtpx:TrackPointExtension>
        </extensions>
      </trkpt>
      <trkpt lat="44.15974" lon="5.32121">
        <ele>1533</ele>
        <time>2021-06-12T10:50:46Z</time>
        <extensions>
          <gpxtpx:TrackPointExtension xmlns:gpxtpx="http://www.garmin.com/xmlschemas/TrackPointExtension/v1">
            <gpxtpx:hr>116</gpxtpx:hr>
          </gpxtpx:TrackPointExtension>
        </extensions>
      </trkpt>
      <trkpt lat="44.15972" lon="5.32125">
        <ele>1532.4</ele>
        <time>2021-06-12T10:50:49Z</time>
        <extensions>
          <gpxtpx:TrackPointExtension xmlns:gpxtpx="http://www.garmin.com/xmlschemas/TrackPointExtension/v1">
            <gpxtpx:hr>117</gpxtpx:hr>
          </gpxtpx:TrackPointExtension>
        </extensions>
      </trkpt>
      <trkpt lat="44.15971" lon="5.32128">
        <ele>1532</ele>
        <time>2021-06-12T10:50:51Z</time>
        <extensions>
          <gpxtpx:TrackPointExtension xmlns:gpxtpx="http://www.garmin.com/xmlschemas/TrackPointExtension/v1">
            <gpxtpx:hr>115</gpxtpx:hr>
          </gpxtpx:TrackPointExtension>
        </extensions>
      </trkpt>
      <trkpt lat="44.15969" lon="5.32134">
        <ele>1530.8</ele>
        <time>2021-06-12T10:50:54Z</time>
        <extensions>
          <gpxtpx:TrackPointExtension xmlns:gpxtpx="http://www.garmin.com/xmlschemas/TrackPointExtension/v1">
            <gpxtpx:hr>113</gpxtpx:hr>
          </gpxtpx:TrackPointExtension>
        </extensions>
      </trkpt>
      <trkpt lat="44.15964" lon="5.32157">
        <ele>1530</ele>
        <time>2021-06-12T10:51:05Z</time>
        <extensions>
          <gpxtpx:TrackPointExtension xmlns:gpxtpx="http://www.garmin.com/xmlschemas/TrackPointExtension/v1">
            <gpxtpx:hr>114</gpxtpx:hr>
          </gpxtpx:TrackPointExtension>
        </extensions>
      </trkpt>
      <trkpt lat="44.15964" lon="5.32159">
        <ele>1529.4</ele>
        <time>2021-06-12T10:51:06Z</time>
        <extensions>
          <gpxtpx:TrackPointExtension xmlns:gpxtpx="http://www.garmin.com/xmlschemas/TrackPointExtension/v1">
            <gpxtpx:hr>114</gpxtpx:hr>
          </gpxtpx:TrackPointExtension>
        </extensions>
      </trkpt>
      <trkpt lat="44.15962" lon="5.32163">
        <ele>1528.2</ele>
        <time>2021-06-12T10:51:08Z</time>
        <extensions>
          <gpxtpx:TrackPointExtension xmlns:gpxtpx="http://www.garmin.com/xmlschemas/TrackPointExtension/v1">
            <gpxtpx:hr>112</gpxtpx:hr>
          </gpxtpx:TrackPointExtension>
        </extensions>
      </trkpt>
      <trkpt lat="44.1596" lon="5.32169">
        <ele>1526.8</ele>
        <time>2021-06-12T10:51:11Z</time>
        <extensions>
          <gpxtpx:TrackPointExtension xmlns:gpxtpx="http://www.garmin.com/xmlschemas/TrackPointExtension/v1">
            <gpxtpx:hr>111</gpxtpx:hr>
          </gpxtpx:TrackPointExtension>
        </extensions>
      </trkpt>
      <trkpt lat="44.15959" lon="5.32171">
        <ele>1526.4</ele>
        <time>2021-06-12T10:51:12Z</time>
        <extensions>
          <gpxtpx:TrackPointExtension xmlns:gpxtpx="http://www.garmin.com/xmlschemas/TrackPointExtension/v1">
            <gpxtpx:hr>111</gpxtpx:hr>
          </gpxtpx:TrackPointExtension>
        </extensions>
      </trkpt>
      <trkpt lat="44.15958" lon="5.32177">
        <ele>1525.6</ele>
        <time>2021-06-12T10:51:15Z</time>
        <extensions>
          <gpxtpx:TrackPointExtension xmlns:gpxtpx="http://www.garmin.com/xmlschemas/TrackPointExtension/v1">
            <gpxtpx:hr>113</gpxtpx:hr>
          </gpxtpx:TrackPointExtension>
        </extensions>
      </trkpt>
      <trkpt lat="44.15956" lon="5.32187">
        <ele>1524.4</ele>
        <time>2021-06-12T10:51:20Z</time>
        <extensions>
          <gpxtpx:TrackPointExtension xmlns:gpxtpx="http://www.garmin.com/xmlschemas/TrackPointExtension/v1">
            <gpxtpx:hr>114</gpxtpx:hr>
          </gpxtpx:TrackPointExtension>
        </extensions>
      </trkpt>
      <trkpt lat="44.15956" lon="5.32191">
        <ele>1523.8</ele>
        <time>2021-06-12T10:51:22Z</time>
        <extensions>
          <gpxtpx:TrackPointExtension xmlns:gpxtpx="http://www.garmin.com/xmlschemas/TrackPointExtension/v1">
            <gpxtpx:hr>115</gpxtpx:hr>
          </gpxtpx:TrackPointExtension>
        </extensions>
      </trkpt>
      <trkpt lat="44.15955" lon="5.32195">
        <ele>1523.2</ele>
        <time>2021-06-12T10:51:24Z</time>
        <extensions>
          <gpxtpx:TrackPointExtension xmlns:gpxtpx="http://www.garmin.com/xmlschemas/TrackPointExtension/v1">
            <gpxtpx:hr>116</gpxtpx:hr>
          </gpxtpx:TrackPointExtension>
        </extensions>
      </trkpt>
      <trkpt lat="44.15953" lon="5.32203">
        <ele>1522.2</ele>
        <time>2021-06-12T10:51:27Z</time>
        <extensions>
          <gpxtpx:TrackPointExtension xmlns:gpxtpx="http://www.garmin.com/xmlschemas/TrackPointExtension/v1">
            <gpxtpx:hr>116</gpxtpx:hr>
          </gpxtpx:TrackPointExtension>
        </extensions>
      </trkpt>
      <trkpt lat="44.15951" lon="5.32209">
        <ele>1521</ele>
        <time>2021-06-12T10:51:30Z</time>
        <extensions>
          <gpxtpx:TrackPointExtension xmlns:gpxtpx="http://www.garmin.com/xmlschemas/TrackPointExtension/v1">
            <gpxtpx:hr>114</gpxtpx:hr>
          </gpxtpx:TrackPointExtension>
        </extensions>
      </trkpt>
      <trkpt lat="44.15949" lon="5.32216">
        <ele>1520</ele>
        <time>2021-06-12T10:51:33Z</time>
        <extensions>
          <gpxtpx:TrackPointExtension xmlns:gpxtpx="http://www.garmin.com/xmlschemas/TrackPointExtension/v1">
            <gpxtpx:hr>112</gpxtpx:hr>
          </gpxtpx:TrackPointExtension>
        </extensions>
      </trkpt>
      <trkpt lat="44.15948" lon="5.32223">
        <ele>1519</ele>
        <time>2021-06-12T10:51:36Z</time>
        <extensions>
          <gpxtpx:TrackPointExtension xmlns:gpxtpx="http://www.garmin.com/xmlschemas/TrackPointExtension/v1">
            <gpxtpx:hr>113</gpxtpx:hr>
          </gpxtpx:TrackPointExtension>
        </extensions>
      </trkpt>
      <trkpt lat="44.15947" lon="5.32232">
        <ele>1517.8</ele>
        <time>2021-06-12T10:51:40Z</time>
        <extensions>
          <gpxtpx:TrackPointExtension xmlns:gpxtpx="http://www.garmin.com/xmlschemas/TrackPointExtension/v1">
            <gpxtpx:hr>112</gpxtpx:hr>
          </gpxtpx:TrackPointExtension>
        </extensions>
      </trkpt>
      <trkpt lat="44.15945" lon="5.3224">
        <ele>1516.6</ele>
        <time>2021-06-12T10:51:44Z</time>
        <extensions>
          <gpxtpx:TrackPointExtension xmlns:gpxtpx="http://www.garmin.com/xmlschemas/TrackPointExtension/v1">
            <gpxtpx:hr>111</gpxtpx:hr>
          </gpxtpx:TrackPointExtension>
        </extensions>
      </trkpt>
      <trkpt lat="44.1594" lon="5.32263">
        <ele>1515.2</ele>
        <time>2021-06-12T10:51:54Z</time>
        <extensions>
          <gpxtpx:TrackPointExtension xmlns:gpxtpx="http://www.garmin.com/xmlschemas/TrackPointExtension/v1">
            <gpxtpx:hr>112</gpxtpx:hr>
          </gpxtpx:TrackPointExtension>
        </extensions>
      </trkpt>
      <trkpt lat="44.1594" lon="5.32269">
        <ele>1514.2</ele>
        <time>2021-06-12T10:51:57Z</time>
        <extensions>
          <gpxtpx:TrackPointExtension xmlns:gpxtpx="http://www.garmin.com/xmlschemas/TrackPointExtension/v1">
            <gpxtpx:hr>113</gpxtpx:hr>
          </gpxtpx:TrackPointExtension>
        </extensions>
      </trkpt>
      <trkpt lat="44.1594" lon="5.32275">
        <ele>1513</ele>
        <time>2021-06-12T10:52:00Z</time>
        <extensions>
          <gpxtpx:TrackPointExtension xmlns:gpxtpx="http://www.garmin.com/xmlschemas/TrackPointExtension/v1">
            <gpxtpx:hr>112</gpxtpx:hr>
          </gpxtpx:TrackPointExtension>
        </extensions>
      </trkpt>
      <trkpt lat="44.1594" lon="5.3228">
        <ele>1512.4</ele>
        <time>2021-06-12T10:52:02Z</time>
        <extensions>
          <gpxtpx:TrackPointExtension xmlns:gpxtpx="http://www.garmin.com/xmlschemas/TrackPointExtension/v1">
            <gpxtpx:hr>109</gpxtpx:hr>
          </gpxtpx:TrackPointExtension>
        </extensions>
      </trkpt>
      <trkpt lat="44.15939" lon="5.32284">
        <ele>1511.8</ele>
        <time>2021-06-12T10:52:04Z</time>
        <extensions>
          <gpxtpx:TrackPointExtension xmlns:gpxtpx="http://www.garmin.com/xmlschemas/TrackPointExtension/v1">
            <gpxtpx:hr>110</gpxtpx:hr>
          </gpxtpx:TrackPointExtension>
        </extensions>
      </trkpt>
      <trkpt lat="44.15936" lon="5.32295">
        <ele>1511</ele>
        <time>2021-06-12T10:52:09Z</time>
        <extensions>
          <gpxtpx:TrackPointExtension xmlns:gpxtpx="http://www.garmin.com/xmlschemas/TrackPointExtension/v1">
            <gpxtpx:hr>113</gpxtpx:hr>
          </gpxtpx:TrackPointExtension>
        </extensions>
      </trkpt>
      <trkpt lat="44.15934" lon="5.32296">
        <ele>1511</ele>
        <time>2021-06-12T10:52:11Z</time>
        <extensions>
          <gpxtpx:TrackPointExtension xmlns:gpxtpx="http://www.garmin.com/xmlschemas/TrackPointExtension/v1">
            <gpxtpx:hr>112</gpxtpx:hr>
          </gpxtpx:TrackPointExtension>
        </extensions>
      </trkpt>
      <trkpt lat="44.15934" lon="5.32296">
        <ele>1510.8</ele>
        <time>2021-06-12T10:52:12Z</time>
        <extensions>
          <gpxtpx:TrackPointExtension xmlns:gpxtpx="http://www.garmin.com/xmlschemas/TrackPointExtension/v1">
            <gpxtpx:hr>111</gpxtpx:hr>
          </gpxtpx:TrackPointExtension>
        </extensions>
      </trkpt>
      <trkpt lat="44.15931" lon="5.32295">
        <ele>1510.6</ele>
        <time>2021-06-12T10:52:13Z</time>
        <extensions>
          <gpxtpx:TrackPointExtension xmlns:gpxtpx="http://www.garmin.com/xmlschemas/TrackPointExtension/v1">
            <gpxtpx:hr>111</gpxtpx:hr>
          </gpxtpx:TrackPointExtension>
        </extensions>
      </trkpt>
      <trkpt lat="44.15928" lon="5.32291">
        <ele>1509.8</ele>
        <time>2021-06-12T10:52:16Z</time>
        <extensions>
          <gpxtpx:TrackPointExtension xmlns:gpxtpx="http://www.garmin.com/xmlschemas/TrackPointExtension/v1">
            <gpxtpx:hr>111</gpxtpx:hr>
          </gpxtpx:TrackPointExtension>
        </extensions>
      </trkpt>
      <trkpt lat="44.15925" lon="5.32286">
        <ele>1508.6</ele>
        <time>2021-06-12T10:52:20Z</time>
        <extensions>
          <gpxtpx:TrackPointExtension xmlns:gpxtpx="http://www.garmin.com/xmlschemas/TrackPointExtension/v1">
            <gpxtpx:hr>111</gpxtpx:hr>
          </gpxtpx:TrackPointExtension>
        </extensions>
      </trkpt>
      <trkpt lat="44.15922" lon="5.32283">
        <ele>1507.4</ele>
        <time>2021-06-12T10:52:23Z</time>
        <extensions>
          <gpxtpx:TrackPointExtension xmlns:gpxtpx="http://www.garmin.com/xmlschemas/TrackPointExtension/v1">
            <gpxtpx:hr>110</gpxtpx:hr>
          </gpxtpx:TrackPointExtension>
        </extensions>
      </trkpt>
      <trkpt lat="44.1592" lon="5.32281">
        <ele>1506.4</ele>
        <time>2021-06-12T10:52:25Z</time>
        <extensions>
          <gpxtpx:TrackPointExtension xmlns:gpxtpx="http://www.garmin.com/xmlschemas/TrackPointExtension/v1">
            <gpxtpx:hr>110</gpxtpx:hr>
          </gpxtpx:TrackPointExtension>
        </extensions>
      </trkpt>
      <trkpt lat="44.15916" lon="5.32277">
        <ele>1505</ele>
        <time>2021-06-12T10:52:28Z</time>
        <extensions>
          <gpxtpx:TrackPointExtension xmlns:gpxtpx="http://www.garmin.com/xmlschemas/TrackPointExtension/v1">
            <gpxtpx:hr>111</gpxtpx:hr>
          </gpxtpx:TrackPointExtension>
        </extensions>
      </trkpt>
      <trkpt lat="44.15914" lon="5.32276">
        <ele>1504</ele>
        <time>2021-06-12T10:52:30Z</time>
        <extensions>
          <gpxtpx:TrackPointExtension xmlns:gpxtpx="http://www.garmin.com/xmlschemas/TrackPointExtension/v1">
            <gpxtpx:hr>113</gpxtpx:hr>
          </gpxtpx:TrackPointExtension>
        </extensions>
      </trkpt>
      <trkpt lat="44.15913" lon="5.32276">
        <ele>1503.6</ele>
        <time>2021-06-12T10:52:31Z</time>
        <extensions>
          <gpxtpx:TrackPointExtension xmlns:gpxtpx="http://www.garmin.com/xmlschemas/TrackPointExtension/v1">
            <gpxtpx:hr>113</gpxtpx:hr>
          </gpxtpx:TrackPointExtension>
        </extensions>
      </trkpt>
      <trkpt lat="44.1591" lon="5.32276">
        <ele>1502.4</ele>
        <time>2021-06-12T10:52:34Z</time>
        <extensions>
          <gpxtpx:TrackPointExtension xmlns:gpxtpx="http://www.garmin.com/xmlschemas/TrackPointExtension/v1">
            <gpxtpx:hr>114</gpxtpx:hr>
          </gpxtpx:TrackPointExtension>
        </extensions>
      </trkpt>
      <trkpt lat="44.15906" lon="5.32276">
        <ele>1501.4</ele>
        <time>2021-06-12T10:52:37Z</time>
        <extensions>
          <gpxtpx:TrackPointExtension xmlns:gpxtpx="http://www.garmin.com/xmlschemas/TrackPointExtension/v1">
            <gpxtpx:hr>113</gpxtpx:hr>
          </gpxtpx:TrackPointExtension>
        </extensions>
      </trkpt>
      <trkpt lat="44.15902" lon="5.32276">
        <ele>1500</ele>
        <time>2021-06-12T10:52:41Z</time>
        <extensions>
          <gpxtpx:TrackPointExtension xmlns:gpxtpx="http://www.garmin.com/xmlschemas/TrackPointExtension/v1">
            <gpxtpx:hr>112</gpxtpx:hr>
          </gpxtpx:TrackPointExtension>
        </extensions>
      </trkpt>
      <trkpt lat="44.159" lon="5.32276">
        <ele>1499.2</ele>
        <time>2021-06-12T10:52:43Z</time>
        <extensions>
          <gpxtpx:TrackPointExtension xmlns:gpxtpx="http://www.garmin.com/xmlschemas/TrackPointExtension/v1">
            <gpxtpx:hr>112</gpxtpx:hr>
          </gpxtpx:TrackPointExtension>
        </extensions>
      </trkpt>
      <trkpt lat="44.15899" lon="5.32276">
        <ele>1498.8</ele>
        <time>2021-06-12T10:52:44Z</time>
        <extensions>
          <gpxtpx:TrackPointExtension xmlns:gpxtpx="http://www.garmin.com/xmlschemas/TrackPointExtension/v1">
            <gpxtpx:hr>113</gpxtpx:hr>
          </gpxtpx:TrackPointExtension>
        </extensions>
      </trkpt>
      <trkpt lat="44.15898" lon="5.32276">
        <ele>1498.4</ele>
        <time>2021-06-12T10:52:45Z</time>
        <extensions>
          <gpxtpx:TrackPointExtension xmlns:gpxtpx="http://www.garmin.com/xmlschemas/TrackPointExtension/v1">
            <gpxtpx:hr>113</gpxtpx:hr>
          </gpxtpx:TrackPointExtension>
        </extensions>
      </trkpt>
      <trkpt lat="44.15895" lon="5.32275">
        <ele>1497.6</ele>
        <time>2021-06-12T10:52:47Z</time>
        <extensions>
          <gpxtpx:TrackPointExtension xmlns:gpxtpx="http://www.garmin.com/xmlschemas/TrackPointExtension/v1">
            <gpxtpx:hr>114</gpxtpx:hr>
          </gpxtpx:TrackPointExtension>
        </extensions>
      </trkpt>
      <trkpt lat="44.15891" lon="5.32274">
        <ele>1496.2</ele>
        <time>2021-06-12T10:52:51Z</time>
        <extensions>
          <gpxtpx:TrackPointExtension xmlns:gpxtpx="http://www.garmin.com/xmlschemas/TrackPointExtension/v1">
            <gpxtpx:hr>114</gpxtpx:hr>
          </gpxtpx:TrackPointExtension>
        </extensions>
      </trkpt>
      <trkpt lat="44.15887" lon="5.32273">
        <ele>1495.2</ele>
        <time>2021-06-12T10:52:54Z</time>
        <extensions>
          <gpxtpx:TrackPointExtension xmlns:gpxtpx="http://www.garmin.com/xmlschemas/TrackPointExtension/v1">
            <gpxtpx:hr>114</gpxtpx:hr>
          </gpxtpx:TrackPointExtension>
        </extensions>
      </trkpt>
      <trkpt lat="44.1588" lon="5.32269">
        <ele>1494</ele>
        <time>2021-06-12T10:52:58Z</time>
        <extensions>
          <gpxtpx:TrackPointExtension xmlns:gpxtpx="http://www.garmin.com/xmlschemas/TrackPointExtension/v1">
            <gpxtpx:hr>114</gpxtpx:hr>
          </gpxtpx:TrackPointExtension>
        </extensions>
      </trkpt>
      <trkpt lat="44.15876" lon="5.32268">
        <ele>1492.8</ele>
        <time>2021-06-12T10:53:01Z</time>
        <extensions>
          <gpxtpx:TrackPointExtension xmlns:gpxtpx="http://www.garmin.com/xmlschemas/TrackPointExtension/v1">
            <gpxtpx:hr>114</gpxtpx:hr>
          </gpxtpx:TrackPointExtension>
        </extensions>
      </trkpt>
      <trkpt lat="44.15869" lon="5.32268">
        <ele>1491.4</ele>
        <time>2021-06-12T10:53:05Z</time>
        <extensions>
          <gpxtpx:TrackPointExtension xmlns:gpxtpx="http://www.garmin.com/xmlschemas/TrackPointExtension/v1">
            <gpxtpx:hr>116</gpxtpx:hr>
          </gpxtpx:TrackPointExtension>
        </extensions>
      </trkpt>
      <trkpt lat="44.15865" lon="5.32268">
        <ele>1490.2</ele>
        <time>2021-06-12T10:53:08Z</time>
        <extensions>
          <gpxtpx:TrackPointExtension xmlns:gpxtpx="http://www.garmin.com/xmlschemas/TrackPointExtension/v1">
            <gpxtpx:hr>115</gpxtpx:hr>
          </gpxtpx:TrackPointExtension>
        </extensions>
      </trkpt>
      <trkpt lat="44.15859" lon="5.32269">
        <ele>1488.6</ele>
        <time>2021-06-12T10:53:11Z</time>
        <extensions>
          <gpxtpx:TrackPointExtension xmlns:gpxtpx="http://www.garmin.com/xmlschemas/TrackPointExtension/v1">
            <gpxtpx:hr>115</gpxtpx:hr>
          </gpxtpx:TrackPointExtension>
        </extensions>
      </trkpt>
      <trkpt lat="44.15855" lon="5.32269">
        <ele>1487.4</ele>
        <time>2021-06-12T10:53:14Z</time>
        <extensions>
          <gpxtpx:TrackPointExtension xmlns:gpxtpx="http://www.garmin.com/xmlschemas/TrackPointExtension/v1">
            <gpxtpx:hr>117</gpxtpx:hr>
          </gpxtpx:TrackPointExtension>
        </extensions>
      </trkpt>
      <trkpt lat="44.1585" lon="5.3227">
        <ele>1486.4</ele>
        <time>2021-06-12T10:53:17Z</time>
        <extensions>
          <gpxtpx:TrackPointExtension xmlns:gpxtpx="http://www.garmin.com/xmlschemas/TrackPointExtension/v1">
            <gpxtpx:hr>120</gpxtpx:hr>
          </gpxtpx:TrackPointExtension>
        </extensions>
      </trkpt>
      <trkpt lat="44.15849" lon="5.32269">
        <ele>1486</ele>
        <time>2021-06-12T10:53:18Z</time>
        <extensions>
          <gpxtpx:TrackPointExtension xmlns:gpxtpx="http://www.garmin.com/xmlschemas/TrackPointExtension/v1">
            <gpxtpx:hr>120</gpxtpx:hr>
          </gpxtpx:TrackPointExtension>
        </extensions>
      </trkpt>
      <trkpt lat="44.15844" lon="5.32269">
        <ele>1484.6</ele>
        <time>2021-06-12T10:53:21Z</time>
        <extensions>
          <gpxtpx:TrackPointExtension xmlns:gpxtpx="http://www.garmin.com/xmlschemas/TrackPointExtension/v1">
            <gpxtpx:hr>120</gpxtpx:hr>
          </gpxtpx:TrackPointExtension>
        </extensions>
      </trkpt>
      <trkpt lat="44.15839" lon="5.32268">
        <ele>1483.4</ele>
        <time>2021-06-12T10:53:24Z</time>
        <extensions>
          <gpxtpx:TrackPointExtension xmlns:gpxtpx="http://www.garmin.com/xmlschemas/TrackPointExtension/v1">
            <gpxtpx:hr>120</gpxtpx:hr>
          </gpxtpx:TrackPointExtension>
        </extensions>
      </trkpt>
      <trkpt lat="44.15835" lon="5.32268">
        <ele>1482.2</ele>
        <time>2021-06-12T10:53:27Z</time>
        <extensions>
          <gpxtpx:TrackPointExtension xmlns:gpxtpx="http://www.garmin.com/xmlschemas/TrackPointExtension/v1">
            <gpxtpx:hr>120</gpxtpx:hr>
          </gpxtpx:TrackPointExtension>
        </extensions>
      </trkpt>
      <trkpt lat="44.15832" lon="5.32268">
        <ele>1481.2</ele>
        <time>2021-06-12T10:53:29Z</time>
        <extensions>
          <gpxtpx:TrackPointExtension xmlns:gpxtpx="http://www.garmin.com/xmlschemas/TrackPointExtension/v1">
            <gpxtpx:hr>120</gpxtpx:hr>
          </gpxtpx:TrackPointExtension>
        </extensions>
      </trkpt>
      <trkpt lat="44.15829" lon="5.32268">
        <ele>1480.2</ele>
        <time>2021-06-12T10:53:31Z</time>
        <extensions>
          <gpxtpx:TrackPointExtension xmlns:gpxtpx="http://www.garmin.com/xmlschemas/TrackPointExtension/v1">
            <gpxtpx:hr>119</gpxtpx:hr>
          </gpxtpx:TrackPointExtension>
        </extensions>
      </trkpt>
      <trkpt lat="44.15824" lon="5.32268">
        <ele>1479.2</ele>
        <time>2021-06-12T10:53:34Z</time>
        <extensions>
          <gpxtpx:TrackPointExtension xmlns:gpxtpx="http://www.garmin.com/xmlschemas/TrackPointExtension/v1">
            <gpxtpx:hr>117</gpxtpx:hr>
          </gpxtpx:TrackPointExtension>
        </extensions>
      </trkpt>
      <trkpt lat="44.15815" lon="5.3227">
        <ele>1478</ele>
        <time>2021-06-12T10:53:39Z</time>
        <extensions>
          <gpxtpx:TrackPointExtension xmlns:gpxtpx="http://www.garmin.com/xmlschemas/TrackPointExtension/v1">
            <gpxtpx:hr>116</gpxtpx:hr>
          </gpxtpx:TrackPointExtension>
        </extensions>
      </trkpt>
      <trkpt lat="44.15811" lon="5.32272">
        <ele>1476.8</ele>
        <time>2021-06-12T10:53:42Z</time>
        <extensions>
          <gpxtpx:TrackPointExtension xmlns:gpxtpx="http://www.garmin.com/xmlschemas/TrackPointExtension/v1">
            <gpxtpx:hr>114</gpxtpx:hr>
          </gpxtpx:TrackPointExtension>
        </extensions>
      </trkpt>
      <trkpt lat="44.15807" lon="5.32272">
        <ele>1475.4</ele>
        <time>2021-06-12T10:53:45Z</time>
        <extensions>
          <gpxtpx:TrackPointExtension xmlns:gpxtpx="http://www.garmin.com/xmlschemas/TrackPointExtension/v1">
            <gpxtpx:hr>115</gpxtpx:hr>
          </gpxtpx:TrackPointExtension>
        </extensions>
      </trkpt>
      <trkpt lat="44.15803" lon="5.32272">
        <ele>1474.2</ele>
        <time>2021-06-12T10:53:48Z</time>
        <extensions>
          <gpxtpx:TrackPointExtension xmlns:gpxtpx="http://www.garmin.com/xmlschemas/TrackPointExtension/v1">
            <gpxtpx:hr>117</gpxtpx:hr>
          </gpxtpx:TrackPointExtension>
        </extensions>
      </trkpt>
      <trkpt lat="44.15799" lon="5.32273">
        <ele>1473</ele>
        <time>2021-06-12T10:53:51Z</time>
        <extensions>
          <gpxtpx:TrackPointExtension xmlns:gpxtpx="http://www.garmin.com/xmlschemas/TrackPointExtension/v1">
            <gpxtpx:hr>117</gpxtpx:hr>
          </gpxtpx:TrackPointExtension>
        </extensions>
      </trkpt>
      <trkpt lat="44.15796" lon="5.32274">
        <ele>1472.4</ele>
        <time>2021-06-12T10:53:53Z</time>
        <extensions>
          <gpxtpx:TrackPointExtension xmlns:gpxtpx="http://www.garmin.com/xmlschemas/TrackPointExtension/v1">
            <gpxtpx:hr>117</gpxtpx:hr>
          </gpxtpx:TrackPointExtension>
        </extensions>
      </trkpt>
      <trkpt lat="44.15795" lon="5.32274">
        <ele>1472</ele>
        <time>2021-06-12T10:53:54Z</time>
        <extensions>
          <gpxtpx:TrackPointExtension xmlns:gpxtpx="http://www.garmin.com/xmlschemas/TrackPointExtension/v1">
            <gpxtpx:hr>118</gpxtpx:hr>
          </gpxtpx:TrackPointExtension>
        </extensions>
      </trkpt>
      <trkpt lat="44.15791" lon="5.32276">
        <ele>1470.8</ele>
        <time>2021-06-12T10:53:57Z</time>
        <extensions>
          <gpxtpx:TrackPointExtension xmlns:gpxtpx="http://www.garmin.com/xmlschemas/TrackPointExtension/v1">
            <gpxtpx:hr>119</gpxtpx:hr>
          </gpxtpx:TrackPointExtension>
        </extensions>
      </trkpt>
      <trkpt lat="44.15786" lon="5.32277">
        <ele>1469.6</ele>
        <time>2021-06-12T10:54:00Z</time>
        <extensions>
          <gpxtpx:TrackPointExtension xmlns:gpxtpx="http://www.garmin.com/xmlschemas/TrackPointExtension/v1">
            <gpxtpx:hr>119</gpxtpx:hr>
          </gpxtpx:TrackPointExtension>
        </extensions>
      </trkpt>
      <trkpt lat="44.15783" lon="5.32278">
        <ele>1468.6</ele>
        <time>2021-06-12T10:54:02Z</time>
        <extensions>
          <gpxtpx:TrackPointExtension xmlns:gpxtpx="http://www.garmin.com/xmlschemas/TrackPointExtension/v1">
            <gpxtpx:hr>115</gpxtpx:hr>
          </gpxtpx:TrackPointExtension>
        </extensions>
      </trkpt>
      <trkpt lat="44.15782" lon="5.32278">
        <ele>1468.2</ele>
        <time>2021-06-12T10:54:03Z</time>
        <extensions>
          <gpxtpx:TrackPointExtension xmlns:gpxtpx="http://www.garmin.com/xmlschemas/TrackPointExtension/v1">
            <gpxtpx:hr>114</gpxtpx:hr>
          </gpxtpx:TrackPointExtension>
        </extensions>
      </trkpt>
      <trkpt lat="44.15775" lon="5.32281">
        <ele>1467.2</ele>
        <time>2021-06-12T10:54:07Z</time>
        <extensions>
          <gpxtpx:TrackPointExtension xmlns:gpxtpx="http://www.garmin.com/xmlschemas/TrackPointExtension/v1">
            <gpxtpx:hr>114</gpxtpx:hr>
          </gpxtpx:TrackPointExtension>
        </extensions>
      </trkpt>
      <trkpt lat="44.15771" lon="5.32283">
        <ele>1466</ele>
        <time>2021-06-12T10:54:10Z</time>
        <extensions>
          <gpxtpx:TrackPointExtension xmlns:gpxtpx="http://www.garmin.com/xmlschemas/TrackPointExtension/v1">
            <gpxtpx:hr>117</gpxtpx:hr>
          </gpxtpx:TrackPointExtension>
        </extensions>
      </trkpt>
      <trkpt lat="44.15768" lon="5.32284">
        <ele>1465</ele>
        <time>2021-06-12T10:54:12Z</time>
        <extensions>
          <gpxtpx:TrackPointExtension xmlns:gpxtpx="http://www.garmin.com/xmlschemas/TrackPointExtension/v1">
            <gpxtpx:hr>118</gpxtpx:hr>
          </gpxtpx:TrackPointExtension>
        </extensions>
      </trkpt>
      <trkpt lat="44.15761" lon="5.32287">
        <ele>1464</ele>
        <time>2021-06-12T10:54:16Z</time>
        <extensions>
          <gpxtpx:TrackPointExtension xmlns:gpxtpx="http://www.garmin.com/xmlschemas/TrackPointExtension/v1">
            <gpxtpx:hr>117</gpxtpx:hr>
          </gpxtpx:TrackPointExtension>
        </extensions>
      </trkpt>
      <trkpt lat="44.15755" lon="5.32287">
        <ele>1462.8</ele>
        <time>2021-06-12T10:54:20Z</time>
        <extensions>
          <gpxtpx:TrackPointExtension xmlns:gpxtpx="http://www.garmin.com/xmlschemas/TrackPointExtension/v1">
            <gpxtpx:hr>116</gpxtpx:hr>
          </gpxtpx:TrackPointExtension>
        </extensions>
      </trkpt>
      <trkpt lat="44.15751" lon="5.32288">
        <ele>1461.6</ele>
        <time>2021-06-12T10:54:23Z</time>
        <extensions>
          <gpxtpx:TrackPointExtension xmlns:gpxtpx="http://www.garmin.com/xmlschemas/TrackPointExtension/v1">
            <gpxtpx:hr>119</gpxtpx:hr>
          </gpxtpx:TrackPointExtension>
        </extensions>
      </trkpt>
      <trkpt lat="44.15746" lon="5.3229">
        <ele>1460.4</ele>
        <time>2021-06-12T10:54:26Z</time>
        <extensions>
          <gpxtpx:TrackPointExtension xmlns:gpxtpx="http://www.garmin.com/xmlschemas/TrackPointExtension/v1">
            <gpxtpx:hr>118</gpxtpx:hr>
          </gpxtpx:TrackPointExtension>
        </extensions>
      </trkpt>
      <trkpt lat="44.15743" lon="5.32289">
        <ele>1459.8</ele>
        <time>2021-06-12T10:54:28Z</time>
        <extensions>
          <gpxtpx:TrackPointExtension xmlns:gpxtpx="http://www.garmin.com/xmlschemas/TrackPointExtension/v1">
            <gpxtpx:hr>114</gpxtpx:hr>
          </gpxtpx:TrackPointExtension>
        </extensions>
      </trkpt>
      <trkpt lat="44.1574" lon="5.32289">
        <ele>1459.4</ele>
        <time>2021-06-12T10:54:30Z</time>
        <extensions>
          <gpxtpx:TrackPointExtension xmlns:gpxtpx="http://www.garmin.com/xmlschemas/TrackPointExtension/v1">
            <gpxtpx:hr>113</gpxtpx:hr>
          </gpxtpx:TrackPointExtension>
        </extensions>
      </trkpt>
      <trkpt lat="44.15733" lon="5.32289">
        <ele>1458.2</ele>
        <time>2021-06-12T10:54:34Z</time>
        <extensions>
          <gpxtpx:TrackPointExtension xmlns:gpxtpx="http://www.garmin.com/xmlschemas/TrackPointExtension/v1">
            <gpxtpx:hr>116</gpxtpx:hr>
          </gpxtpx:TrackPointExtension>
        </extensions>
      </trkpt>
      <trkpt lat="44.15729" lon="5.32289">
        <ele>1457</ele>
        <time>2021-06-12T10:54:36Z</time>
        <extensions>
          <gpxtpx:TrackPointExtension xmlns:gpxtpx="http://www.garmin.com/xmlschemas/TrackPointExtension/v1">
            <gpxtpx:hr>117</gpxtpx:hr>
          </gpxtpx:TrackPointExtension>
        </extensions>
      </trkpt>
      <trkpt lat="44.15728" lon="5.32289">
        <ele>1456.4</ele>
        <time>2021-06-12T10:54:37Z</time>
        <extensions>
          <gpxtpx:TrackPointExtension xmlns:gpxtpx="http://www.garmin.com/xmlschemas/TrackPointExtension/v1">
            <gpxtpx:hr>118</gpxtpx:hr>
          </gpxtpx:TrackPointExtension>
        </extensions>
      </trkpt>
      <trkpt lat="44.15727" lon="5.32289">
        <ele>1455.8</ele>
        <time>2021-06-12T10:54:38Z</time>
        <extensions>
          <gpxtpx:TrackPointExtension xmlns:gpxtpx="http://www.garmin.com/xmlschemas/TrackPointExtension/v1">
            <gpxtpx:hr>117</gpxtpx:hr>
          </gpxtpx:TrackPointExtension>
        </extensions>
      </trkpt>
      <trkpt lat="44.15722" lon="5.32289">
        <ele>1454.6</ele>
        <time>2021-06-12T10:54:41Z</time>
        <extensions>
          <gpxtpx:TrackPointExtension xmlns:gpxtpx="http://www.garmin.com/xmlschemas/TrackPointExtension/v1">
            <gpxtpx:hr>116</gpxtpx:hr>
          </gpxtpx:TrackPointExtension>
        </extensions>
      </trkpt>
      <trkpt lat="44.15716" lon="5.32289">
        <ele>1453.4</ele>
        <time>2021-06-12T10:54:45Z</time>
        <extensions>
          <gpxtpx:TrackPointExtension xmlns:gpxtpx="http://www.garmin.com/xmlschemas/TrackPointExtension/v1">
            <gpxtpx:hr>117</gpxtpx:hr>
          </gpxtpx:TrackPointExtension>
        </extensions>
      </trkpt>
      <trkpt lat="44.15709" lon="5.32289">
        <ele>1452</ele>
        <time>2021-06-12T10:54:49Z</time>
        <extensions>
          <gpxtpx:TrackPointExtension xmlns:gpxtpx="http://www.garmin.com/xmlschemas/TrackPointExtension/v1">
            <gpxtpx:hr>117</gpxtpx:hr>
          </gpxtpx:TrackPointExtension>
        </extensions>
      </trkpt>
      <trkpt lat="44.15704" lon="5.32289">
        <ele>1450.8</ele>
        <time>2021-06-12T10:54:52Z</time>
        <extensions>
          <gpxtpx:TrackPointExtension xmlns:gpxtpx="http://www.garmin.com/xmlschemas/TrackPointExtension/v1">
            <gpxtpx:hr>118</gpxtpx:hr>
          </gpxtpx:TrackPointExtension>
        </extensions>
      </trkpt>
      <trkpt lat="44.157" lon="5.32288">
        <ele>1449.4</ele>
        <time>2021-06-12T10:54:55Z</time>
        <extensions>
          <gpxtpx:TrackPointExtension xmlns:gpxtpx="http://www.garmin.com/xmlschemas/TrackPointExtension/v1">
            <gpxtpx:hr>118</gpxtpx:hr>
          </gpxtpx:TrackPointExtension>
        </extensions>
      </trkpt>
      <trkpt lat="44.15695" lon="5.32288">
        <ele>1448.2</ele>
        <time>2021-06-12T10:54:58Z</time>
        <extensions>
          <gpxtpx:TrackPointExtension xmlns:gpxtpx="http://www.garmin.com/xmlschemas/TrackPointExtension/v1">
            <gpxtpx:hr>118</gpxtpx:hr>
          </gpxtpx:TrackPointExtension>
        </extensions>
      </trkpt>
      <trkpt lat="44.15691" lon="5.32288">
        <ele>1446.8</ele>
        <time>2021-06-12T10:55:01Z</time>
        <extensions>
          <gpxtpx:TrackPointExtension xmlns:gpxtpx="http://www.garmin.com/xmlschemas/TrackPointExtension/v1">
            <gpxtpx:hr>118</gpxtpx:hr>
          </gpxtpx:TrackPointExtension>
        </extensions>
      </trkpt>
      <trkpt lat="44.15685" lon="5.32289">
        <ele>1445.6</ele>
        <time>2021-06-12T10:55:05Z</time>
        <extensions>
          <gpxtpx:TrackPointExtension xmlns:gpxtpx="http://www.garmin.com/xmlschemas/TrackPointExtension/v1">
            <gpxtpx:hr>117</gpxtpx:hr>
          </gpxtpx:TrackPointExtension>
        </extensions>
      </trkpt>
      <trkpt lat="44.15678" lon="5.32289">
        <ele>1444.2</ele>
        <time>2021-06-12T10:55:09Z</time>
        <extensions>
          <gpxtpx:TrackPointExtension xmlns:gpxtpx="http://www.garmin.com/xmlschemas/TrackPointExtension/v1">
            <gpxtpx:hr>116</gpxtpx:hr>
          </gpxtpx:TrackPointExtension>
        </extensions>
      </trkpt>
      <trkpt lat="44.15672" lon="5.32289">
        <ele>1443.2</ele>
        <time>2021-06-12T10:55:13Z</time>
        <extensions>
          <gpxtpx:TrackPointExtension xmlns:gpxtpx="http://www.garmin.com/xmlschemas/TrackPointExtension/v1">
            <gpxtpx:hr>115</gpxtpx:hr>
          </gpxtpx:TrackPointExtension>
        </extensions>
      </trkpt>
      <trkpt lat="44.15668" lon="5.32289">
        <ele>1441.8</ele>
        <time>2021-06-12T10:55:16Z</time>
        <extensions>
          <gpxtpx:TrackPointExtension xmlns:gpxtpx="http://www.garmin.com/xmlschemas/TrackPointExtension/v1">
            <gpxtpx:hr>115</gpxtpx:hr>
          </gpxtpx:TrackPointExtension>
        </extensions>
      </trkpt>
      <trkpt lat="44.15661" lon="5.32288">
        <ele>1440.6</ele>
        <time>2021-06-12T10:55:20Z</time>
        <extensions>
          <gpxtpx:TrackPointExtension xmlns:gpxtpx="http://www.garmin.com/xmlschemas/TrackPointExtension/v1">
            <gpxtpx:hr>115</gpxtpx:hr>
          </gpxtpx:TrackPointExtension>
        </extensions>
      </trkpt>
      <trkpt lat="44.15658" lon="5.32288">
        <ele>1439.4</ele>
        <time>2021-06-12T10:55:22Z</time>
        <extensions>
          <gpxtpx:TrackPointExtension xmlns:gpxtpx="http://www.garmin.com/xmlschemas/TrackPointExtension/v1">
            <gpxtpx:hr>115</gpxtpx:hr>
          </gpxtpx:TrackPointExtension>
        </extensions>
      </trkpt>
      <trkpt lat="44.15653" lon="5.32288">
        <ele>1438.4</ele>
        <time>2021-06-12T10:55:25Z</time>
        <extensions>
          <gpxtpx:TrackPointExtension xmlns:gpxtpx="http://www.garmin.com/xmlschemas/TrackPointExtension/v1">
            <gpxtpx:hr>115</gpxtpx:hr>
          </gpxtpx:TrackPointExtension>
        </extensions>
      </trkpt>
      <trkpt lat="44.15647" lon="5.3229">
        <ele>1437.4</ele>
        <time>2021-06-12T10:55:29Z</time>
        <extensions>
          <gpxtpx:TrackPointExtension xmlns:gpxtpx="http://www.garmin.com/xmlschemas/TrackPointExtension/v1">
            <gpxtpx:hr>118</gpxtpx:hr>
          </gpxtpx:TrackPointExtension>
        </extensions>
      </trkpt>
      <trkpt lat="44.1564" lon="5.32294">
        <ele>1436.2</ele>
        <time>2021-06-12T10:55:34Z</time>
        <extensions>
          <gpxtpx:TrackPointExtension xmlns:gpxtpx="http://www.garmin.com/xmlschemas/TrackPointExtension/v1">
            <gpxtpx:hr>117</gpxtpx:hr>
          </gpxtpx:TrackPointExtension>
        </extensions>
      </trkpt>
      <trkpt lat="44.15634" lon="5.32297">
        <ele>1435.2</ele>
        <time>2021-06-12T10:55:37Z</time>
        <extensions>
          <gpxtpx:TrackPointExtension xmlns:gpxtpx="http://www.garmin.com/xmlschemas/TrackPointExtension/v1">
            <gpxtpx:hr>114</gpxtpx:hr>
          </gpxtpx:TrackPointExtension>
        </extensions>
      </trkpt>
      <trkpt lat="44.15633" lon="5.32298">
        <ele>1435</ele>
        <time>2021-06-12T10:55:38Z</time>
        <extensions>
          <gpxtpx:TrackPointExtension xmlns:gpxtpx="http://www.garmin.com/xmlschemas/TrackPointExtension/v1">
            <gpxtpx:hr>114</gpxtpx:hr>
          </gpxtpx:TrackPointExtension>
        </extensions>
      </trkpt>
      <trkpt lat="44.15627" lon="5.32299">
        <ele>1433.6</ele>
        <time>2021-06-12T10:55:42Z</time>
        <extensions>
          <gpxtpx:TrackPointExtension xmlns:gpxtpx="http://www.garmin.com/xmlschemas/TrackPointExtension/v1">
            <gpxtpx:hr>117</gpxtpx:hr>
          </gpxtpx:TrackPointExtension>
        </extensions>
      </trkpt>
      <trkpt lat="44.15622" lon="5.32299">
        <ele>1432.6</ele>
        <time>2021-06-12T10:55:45Z</time>
        <extensions>
          <gpxtpx:TrackPointExtension xmlns:gpxtpx="http://www.garmin.com/xmlschemas/TrackPointExtension/v1">
            <gpxtpx:hr>116</gpxtpx:hr>
          </gpxtpx:TrackPointExtension>
        </extensions>
      </trkpt>
      <trkpt lat="44.15619" lon="5.32301">
        <ele>1432.2</ele>
        <time>2021-06-12T10:55:47Z</time>
        <extensions>
          <gpxtpx:TrackPointExtension xmlns:gpxtpx="http://www.garmin.com/xmlschemas/TrackPointExtension/v1">
            <gpxtpx:hr>111</gpxtpx:hr>
          </gpxtpx:TrackPointExtension>
        </extensions>
      </trkpt>
      <trkpt lat="44.15614" lon="5.32303">
        <ele>1431.6</ele>
        <time>2021-06-12T10:55:50Z</time>
        <extensions>
          <gpxtpx:TrackPointExtension xmlns:gpxtpx="http://www.garmin.com/xmlschemas/TrackPointExtension/v1">
            <gpxtpx:hr>110</gpxtpx:hr>
          </gpxtpx:TrackPointExtension>
        </extensions>
      </trkpt>
      <trkpt lat="44.15609" lon="5.32304">
        <ele>1430.6</ele>
        <time>2021-06-12T10:55:53Z</time>
        <extensions>
          <gpxtpx:TrackPointExtension xmlns:gpxtpx="http://www.garmin.com/xmlschemas/TrackPointExtension/v1">
            <gpxtpx:hr>113</gpxtpx:hr>
          </gpxtpx:TrackPointExtension>
        </extensions>
      </trkpt>
      <trkpt lat="44.15607" lon="5.32305">
        <ele>1430.4</ele>
        <time>2021-06-12T10:55:54Z</time>
        <extensions>
          <gpxtpx:TrackPointExtension xmlns:gpxtpx="http://www.garmin.com/xmlschemas/TrackPointExtension/v1">
            <gpxtpx:hr>114</gpxtpx:hr>
          </gpxtpx:TrackPointExtension>
        </extensions>
      </trkpt>
      <trkpt lat="44.15598" lon="5.32307">
        <ele>1429.2</ele>
        <time>2021-06-12T10:55:59Z</time>
        <extensions>
          <gpxtpx:TrackPointExtension xmlns:gpxtpx="http://www.garmin.com/xmlschemas/TrackPointExtension/v1">
            <gpxtpx:hr>111</gpxtpx:hr>
          </gpxtpx:TrackPointExtension>
        </extensions>
      </trkpt>
      <trkpt lat="44.15589" lon="5.32311">
        <ele>1428.2</ele>
        <time>2021-06-12T10:56:04Z</time>
        <extensions>
          <gpxtpx:TrackPointExtension xmlns:gpxtpx="http://www.garmin.com/xmlschemas/TrackPointExtension/v1">
            <gpxtpx:hr>111</gpxtpx:hr>
          </gpxtpx:TrackPointExtension>
        </extensions>
      </trkpt>
      <trkpt lat="44.15585" lon="5.32314">
        <ele>1427.2</ele>
        <time>2021-06-12T10:56:07Z</time>
        <extensions>
          <gpxtpx:TrackPointExtension xmlns:gpxtpx="http://www.garmin.com/xmlschemas/TrackPointExtension/v1">
            <gpxtpx:hr>111</gpxtpx:hr>
          </gpxtpx:TrackPointExtension>
        </extensions>
      </trkpt>
      <trkpt lat="44.15578" lon="5.32315">
        <ele>1426</ele>
        <time>2021-06-12T10:56:11Z</time>
        <extensions>
          <gpxtpx:TrackPointExtension xmlns:gpxtpx="http://www.garmin.com/xmlschemas/TrackPointExtension/v1">
            <gpxtpx:hr>109</gpxtpx:hr>
          </gpxtpx:TrackPointExtension>
        </extensions>
      </trkpt>
      <trkpt lat="44.15569" lon="5.32317">
        <ele>1424.8</ele>
        <time>2021-06-12T10:56:17Z</time>
        <extensions>
          <gpxtpx:TrackPointExtension xmlns:gpxtpx="http://www.garmin.com/xmlschemas/TrackPointExtension/v1">
            <gpxtpx:hr>110</gpxtpx:hr>
          </gpxtpx:TrackPointExtension>
        </extensions>
      </trkpt>
      <trkpt lat="44.15564" lon="5.32315">
        <ele>1424</ele>
        <time>2021-06-12T10:56:21Z</time>
        <extensions>
          <gpxtpx:TrackPointExtension xmlns:gpxtpx="http://www.garmin.com/xmlschemas/TrackPointExtension/v1">
            <gpxtpx:hr>112</gpxtpx:hr>
          </gpxtpx:TrackPointExtension>
        </extensions>
      </trkpt>
      <trkpt lat="44.15563" lon="5.32314">
        <ele>1423.8</ele>
        <time>2021-06-12T10:56:22Z</time>
        <extensions>
          <gpxtpx:TrackPointExtension xmlns:gpxtpx="http://www.garmin.com/xmlschemas/TrackPointExtension/v1">
            <gpxtpx:hr>112</gpxtpx:hr>
          </gpxtpx:TrackPointExtension>
        </extensions>
      </trkpt>
      <trkpt lat="44.15555" lon="5.32311">
        <ele>1422.4</ele>
        <time>2021-06-12T10:56:29Z</time>
        <extensions>
          <gpxtpx:TrackPointExtension xmlns:gpxtpx="http://www.garmin.com/xmlschemas/TrackPointExtension/v1">
            <gpxtpx:hr>112</gpxtpx:hr>
          </gpxtpx:TrackPointExtension>
        </extensions>
      </trkpt>
      <trkpt lat="44.15551" lon="5.32311">
        <ele>1421.4</ele>
        <time>2021-06-12T10:56:32Z</time>
        <extensions>
          <gpxtpx:TrackPointExtension xmlns:gpxtpx="http://www.garmin.com/xmlschemas/TrackPointExtension/v1">
            <gpxtpx:hr>113</gpxtpx:hr>
          </gpxtpx:TrackPointExtension>
        </extensions>
      </trkpt>
      <trkpt lat="44.15548" lon="5.32312">
        <ele>1421.2</ele>
        <time>2021-06-12T10:56:34Z</time>
        <extensions>
          <gpxtpx:TrackPointExtension xmlns:gpxtpx="http://www.garmin.com/xmlschemas/TrackPointExtension/v1">
            <gpxtpx:hr>110</gpxtpx:hr>
          </gpxtpx:TrackPointExtension>
        </extensions>
      </trkpt>
      <trkpt lat="44.15539" lon="5.32316">
        <ele>1420.2</ele>
        <time>2021-06-12T10:56:41Z</time>
        <extensions>
          <gpxtpx:TrackPointExtension xmlns:gpxtpx="http://www.garmin.com/xmlschemas/TrackPointExtension/v1">
            <gpxtpx:hr>113</gpxtpx:hr>
          </gpxtpx:TrackPointExtension>
        </extensions>
      </trkpt>
      <trkpt lat="44.15535" lon="5.32318">
        <ele>1419.4</ele>
        <time>2021-06-12T10:56:44Z</time>
        <extensions>
          <gpxtpx:TrackPointExtension xmlns:gpxtpx="http://www.garmin.com/xmlschemas/TrackPointExtension/v1">
            <gpxtpx:hr>110</gpxtpx:hr>
          </gpxtpx:TrackPointExtension>
        </extensions>
      </trkpt>
      <trkpt lat="44.15533" lon="5.3232">
        <ele>1419</ele>
        <time>2021-06-12T10:56:45Z</time>
        <extensions>
          <gpxtpx:TrackPointExtension xmlns:gpxtpx="http://www.garmin.com/xmlschemas/TrackPointExtension/v1">
            <gpxtpx:hr>109</gpxtpx:hr>
          </gpxtpx:TrackPointExtension>
        </extensions>
      </trkpt>
      <trkpt lat="44.15527" lon="5.32324">
        <ele>1418</ele>
        <time>2021-06-12T10:56:49Z</time>
        <extensions>
          <gpxtpx:TrackPointExtension xmlns:gpxtpx="http://www.garmin.com/xmlschemas/TrackPointExtension/v1">
            <gpxtpx:hr>110</gpxtpx:hr>
          </gpxtpx:TrackPointExtension>
        </extensions>
      </trkpt>
      <trkpt lat="44.15523" lon="5.32327">
        <ele>1417.4</ele>
        <time>2021-06-12T10:56:52Z</time>
        <extensions>
          <gpxtpx:TrackPointExtension xmlns:gpxtpx="http://www.garmin.com/xmlschemas/TrackPointExtension/v1">
            <gpxtpx:hr>113</gpxtpx:hr>
          </gpxtpx:TrackPointExtension>
        </extensions>
      </trkpt>
      <trkpt lat="44.1552" lon="5.32329">
        <ele>1416.8</ele>
        <time>2021-06-12T10:56:54Z</time>
        <extensions>
          <gpxtpx:TrackPointExtension xmlns:gpxtpx="http://www.garmin.com/xmlschemas/TrackPointExtension/v1">
            <gpxtpx:hr>112</gpxtpx:hr>
          </gpxtpx:TrackPointExtension>
        </extensions>
      </trkpt>
      <trkpt lat="44.15517" lon="5.32331">
        <ele>1416.2</ele>
        <time>2021-06-12T10:56:56Z</time>
        <extensions>
          <gpxtpx:TrackPointExtension xmlns:gpxtpx="http://www.garmin.com/xmlschemas/TrackPointExtension/v1">
            <gpxtpx:hr>109</gpxtpx:hr>
          </gpxtpx:TrackPointExtension>
        </extensions>
      </trkpt>
      <trkpt lat="44.15512" lon="5.32333">
        <ele>1415.4</ele>
        <time>2021-06-12T10:56:59Z</time>
        <extensions>
          <gpxtpx:TrackPointExtension xmlns:gpxtpx="http://www.garmin.com/xmlschemas/TrackPointExtension/v1">
            <gpxtpx:hr>110</gpxtpx:hr>
          </gpxtpx:TrackPointExtension>
        </extensions>
      </trkpt>
      <trkpt lat="44.15507" lon="5.32337">
        <ele>1414.8</ele>
        <time>2021-06-12T10:57:02Z</time>
        <extensions>
          <gpxtpx:TrackPointExtension xmlns:gpxtpx="http://www.garmin.com/xmlschemas/TrackPointExtension/v1">
            <gpxtpx:hr>112</gpxtpx:hr>
          </gpxtpx:TrackPointExtension>
        </extensions>
      </trkpt>
      <trkpt lat="44.15504" lon="5.32339">
        <ele>1414.2</ele>
        <time>2021-06-12T10:57:04Z</time>
        <extensions>
          <gpxtpx:TrackPointExtension xmlns:gpxtpx="http://www.garmin.com/xmlschemas/TrackPointExtension/v1">
            <gpxtpx:hr>112</gpxtpx:hr>
          </gpxtpx:TrackPointExtension>
        </extensions>
      </trkpt>
      <trkpt lat="44.15501" lon="5.32341">
        <ele>1413.6</ele>
        <time>2021-06-12T10:57:06Z</time>
        <extensions>
          <gpxtpx:TrackPointExtension xmlns:gpxtpx="http://www.garmin.com/xmlschemas/TrackPointExtension/v1">
            <gpxtpx:hr>109</gpxtpx:hr>
          </gpxtpx:TrackPointExtension>
        </extensions>
      </trkpt>
      <trkpt lat="44.15499" lon="5.32342">
        <ele>1413.4</ele>
        <time>2021-06-12T10:57:07Z</time>
        <extensions>
          <gpxtpx:TrackPointExtension xmlns:gpxtpx="http://www.garmin.com/xmlschemas/TrackPointExtension/v1">
            <gpxtpx:hr>108</gpxtpx:hr>
          </gpxtpx:TrackPointExtension>
        </extensions>
      </trkpt>
      <trkpt lat="44.15497" lon="5.32343">
        <ele>1413</ele>
        <time>2021-06-12T10:57:08Z</time>
        <extensions>
          <gpxtpx:TrackPointExtension xmlns:gpxtpx="http://www.garmin.com/xmlschemas/TrackPointExtension/v1">
            <gpxtpx:hr>108</gpxtpx:hr>
          </gpxtpx:TrackPointExtension>
        </extensions>
      </trkpt>
      <trkpt lat="44.15492" lon="5.32344">
        <ele>1412.8</ele>
        <time>2021-06-12T10:57:11Z</time>
        <extensions>
          <gpxtpx:TrackPointExtension xmlns:gpxtpx="http://www.garmin.com/xmlschemas/TrackPointExtension/v1">
            <gpxtpx:hr>112</gpxtpx:hr>
          </gpxtpx:TrackPointExtension>
        </extensions>
      </trkpt>
      <trkpt lat="44.15486" lon="5.32344">
        <ele>1412.8</ele>
        <time>2021-06-12T10:57:15Z</time>
        <extensions>
          <gpxtpx:TrackPointExtension xmlns:gpxtpx="http://www.garmin.com/xmlschemas/TrackPointExtension/v1">
            <gpxtpx:hr>108</gpxtpx:hr>
          </gpxtpx:TrackPointExtension>
        </extensions>
      </trkpt>
      <trkpt lat="44.15482" lon="5.32344">
        <ele>1412</ele>
        <time>2021-06-12T10:57:18Z</time>
        <extensions>
          <gpxtpx:TrackPointExtension xmlns:gpxtpx="http://www.garmin.com/xmlschemas/TrackPointExtension/v1">
            <gpxtpx:hr>108</gpxtpx:hr>
          </gpxtpx:TrackPointExtension>
        </extensions>
      </trkpt>
      <trkpt lat="44.15478" lon="5.32344">
        <ele>1411.4</ele>
        <time>2021-06-12T10:57:20Z</time>
        <extensions>
          <gpxtpx:TrackPointExtension xmlns:gpxtpx="http://www.garmin.com/xmlschemas/TrackPointExtension/v1">
            <gpxtpx:hr>111</gpxtpx:hr>
          </gpxtpx:TrackPointExtension>
        </extensions>
      </trkpt>
      <trkpt lat="44.15474" lon="5.32344">
        <ele>1410.8</ele>
        <time>2021-06-12T10:57:22Z</time>
        <extensions>
          <gpxtpx:TrackPointExtension xmlns:gpxtpx="http://www.garmin.com/xmlschemas/TrackPointExtension/v1">
            <gpxtpx:hr>113</gpxtpx:hr>
          </gpxtpx:TrackPointExtension>
        </extensions>
      </trkpt>
      <trkpt lat="44.1547" lon="5.32345">
        <ele>1409.8</ele>
        <time>2021-06-12T10:57:25Z</time>
        <extensions>
          <gpxtpx:TrackPointExtension xmlns:gpxtpx="http://www.garmin.com/xmlschemas/TrackPointExtension/v1">
            <gpxtpx:hr>109</gpxtpx:hr>
          </gpxtpx:TrackPointExtension>
        </extensions>
      </trkpt>
      <trkpt lat="44.15468" lon="5.32345">
        <ele>1409.4</ele>
        <time>2021-06-12T10:57:26Z</time>
        <extensions>
          <gpxtpx:TrackPointExtension xmlns:gpxtpx="http://www.garmin.com/xmlschemas/TrackPointExtension/v1">
            <gpxtpx:hr>109</gpxtpx:hr>
          </gpxtpx:TrackPointExtension>
        </extensions>
      </trkpt>
      <trkpt lat="44.15462" lon="5.32345">
        <ele>1408.6</ele>
        <time>2021-06-12T10:57:30Z</time>
        <extensions>
          <gpxtpx:TrackPointExtension xmlns:gpxtpx="http://www.garmin.com/xmlschemas/TrackPointExtension/v1">
            <gpxtpx:hr>113</gpxtpx:hr>
          </gpxtpx:TrackPointExtension>
        </extensions>
      </trkpt>
      <trkpt lat="44.15461" lon="5.32344">
        <ele>1408.4</ele>
        <time>2021-06-12T10:57:31Z</time>
        <extensions>
          <gpxtpx:TrackPointExtension xmlns:gpxtpx="http://www.garmin.com/xmlschemas/TrackPointExtension/v1">
            <gpxtpx:hr>113</gpxtpx:hr>
          </gpxtpx:TrackPointExtension>
        </extensions>
      </trkpt>
      <trkpt lat="44.15452" lon="5.32343">
        <ele>1407.2</ele>
        <time>2021-06-12T10:57:37Z</time>
        <extensions>
          <gpxtpx:TrackPointExtension xmlns:gpxtpx="http://www.garmin.com/xmlschemas/TrackPointExtension/v1">
            <gpxtpx:hr>111</gpxtpx:hr>
          </gpxtpx:TrackPointExtension>
        </extensions>
      </trkpt>
      <trkpt lat="44.15446" lon="5.32342">
        <ele>1406.4</ele>
        <time>2021-06-12T10:57:41Z</time>
        <extensions>
          <gpxtpx:TrackPointExtension xmlns:gpxtpx="http://www.garmin.com/xmlschemas/TrackPointExtension/v1">
            <gpxtpx:hr>114</gpxtpx:hr>
          </gpxtpx:TrackPointExtension>
        </extensions>
      </trkpt>
      <trkpt lat="44.15443" lon="5.32343">
        <ele>1406.2</ele>
        <time>2021-06-12T10:57:43Z</time>
        <extensions>
          <gpxtpx:TrackPointExtension xmlns:gpxtpx="http://www.garmin.com/xmlschemas/TrackPointExtension/v1">
            <gpxtpx:hr>115</gpxtpx:hr>
          </gpxtpx:TrackPointExtension>
        </extensions>
      </trkpt>
      <trkpt lat="44.1544" lon="5.32346">
        <ele>1405.8</ele>
        <time>2021-06-12T10:57:46Z</time>
        <extensions>
          <gpxtpx:TrackPointExtension xmlns:gpxtpx="http://www.garmin.com/xmlschemas/TrackPointExtension/v1">
            <gpxtpx:hr>115</gpxtpx:hr>
          </gpxtpx:TrackPointExtension>
        </extensions>
      </trkpt>
      <trkpt lat="44.15436" lon="5.32344">
        <ele>1405.2</ele>
        <time>2021-06-12T10:57:49Z</time>
        <extensions>
          <gpxtpx:TrackPointExtension xmlns:gpxtpx="http://www.garmin.com/xmlschemas/TrackPointExtension/v1">
            <gpxtpx:hr>115</gpxtpx:hr>
          </gpxtpx:TrackPointExtension>
        </extensions>
      </trkpt>
      <trkpt lat="44.15435" lon="5.32344">
        <ele>1404.8</ele>
        <time>2021-06-12T10:57:50Z</time>
        <extensions>
          <gpxtpx:TrackPointExtension xmlns:gpxtpx="http://www.garmin.com/xmlschemas/TrackPointExtension/v1">
            <gpxtpx:hr>116</gpxtpx:hr>
          </gpxtpx:TrackPointExtension>
        </extensions>
      </trkpt>
      <trkpt lat="44.15429" lon="5.32344">
        <ele>1404.2</ele>
        <time>2021-06-12T10:57:53Z</time>
        <extensions>
          <gpxtpx:TrackPointExtension xmlns:gpxtpx="http://www.garmin.com/xmlschemas/TrackPointExtension/v1">
            <gpxtpx:hr>117</gpxtpx:hr>
          </gpxtpx:TrackPointExtension>
        </extensions>
      </trkpt>
      <trkpt lat="44.15418" lon="5.32343">
        <ele>1403</ele>
        <time>2021-06-12T10:57:58Z</time>
        <extensions>
          <gpxtpx:TrackPointExtension xmlns:gpxtpx="http://www.garmin.com/xmlschemas/TrackPointExtension/v1">
            <gpxtpx:hr>117</gpxtpx:hr>
          </gpxtpx:TrackPointExtension>
        </extensions>
      </trkpt>
      <trkpt lat="44.1541" lon="5.32342">
        <ele>1402</ele>
        <time>2021-06-12T10:58:04Z</time>
        <extensions>
          <gpxtpx:TrackPointExtension xmlns:gpxtpx="http://www.garmin.com/xmlschemas/TrackPointExtension/v1">
            <gpxtpx:hr>115</gpxtpx:hr>
          </gpxtpx:TrackPointExtension>
        </extensions>
      </trkpt>
      <trkpt lat="44.15407" lon="5.32341">
        <ele>1401.4</ele>
        <time>2021-06-12T10:58:06Z</time>
        <extensions>
          <gpxtpx:TrackPointExtension xmlns:gpxtpx="http://www.garmin.com/xmlschemas/TrackPointExtension/v1">
            <gpxtpx:hr>115</gpxtpx:hr>
          </gpxtpx:TrackPointExtension>
        </extensions>
      </trkpt>
      <trkpt lat="44.15404" lon="5.32339">
        <ele>1400.8</ele>
        <time>2021-06-12T10:58:08Z</time>
        <extensions>
          <gpxtpx:TrackPointExtension xmlns:gpxtpx="http://www.garmin.com/xmlschemas/TrackPointExtension/v1">
            <gpxtpx:hr>117</gpxtpx:hr>
          </gpxtpx:TrackPointExtension>
        </extensions>
      </trkpt>
      <trkpt lat="44.15399" lon="5.32337">
        <ele>1399.6</ele>
        <time>2021-06-12T10:58:12Z</time>
        <extensions>
          <gpxtpx:TrackPointExtension xmlns:gpxtpx="http://www.garmin.com/xmlschemas/TrackPointExtension/v1">
            <gpxtpx:hr>113</gpxtpx:hr>
          </gpxtpx:TrackPointExtension>
        </extensions>
      </trkpt>
      <trkpt lat="44.15388" lon="5.3233">
        <ele>1398.4</ele>
        <time>2021-06-12T10:58:20Z</time>
        <extensions>
          <gpxtpx:TrackPointExtension xmlns:gpxtpx="http://www.garmin.com/xmlschemas/TrackPointExtension/v1">
            <gpxtpx:hr>113</gpxtpx:hr>
          </gpxtpx:TrackPointExtension>
        </extensions>
      </trkpt>
      <trkpt lat="44.1538" lon="5.32325">
        <ele>1397.2</ele>
        <time>2021-06-12T10:58:25Z</time>
        <extensions>
          <gpxtpx:TrackPointExtension xmlns:gpxtpx="http://www.garmin.com/xmlschemas/TrackPointExtension/v1">
            <gpxtpx:hr>111</gpxtpx:hr>
          </gpxtpx:TrackPointExtension>
        </extensions>
      </trkpt>
      <trkpt lat="44.15377" lon="5.32324">
        <ele>1396.6</ele>
        <time>2021-06-12T10:58:27Z</time>
        <extensions>
          <gpxtpx:TrackPointExtension xmlns:gpxtpx="http://www.garmin.com/xmlschemas/TrackPointExtension/v1">
            <gpxtpx:hr>114</gpxtpx:hr>
          </gpxtpx:TrackPointExtension>
        </extensions>
      </trkpt>
      <trkpt lat="44.15375" lon="5.32324">
        <ele>1396.2</ele>
        <time>2021-06-12T10:58:28Z</time>
        <extensions>
          <gpxtpx:TrackPointExtension xmlns:gpxtpx="http://www.garmin.com/xmlschemas/TrackPointExtension/v1">
            <gpxtpx:hr>115</gpxtpx:hr>
          </gpxtpx:TrackPointExtension>
        </extensions>
      </trkpt>
      <trkpt lat="44.15372" lon="5.32323">
        <ele>1395.6</ele>
        <time>2021-06-12T10:58:30Z</time>
        <extensions>
          <gpxtpx:TrackPointExtension xmlns:gpxtpx="http://www.garmin.com/xmlschemas/TrackPointExtension/v1">
            <gpxtpx:hr>118</gpxtpx:hr>
          </gpxtpx:TrackPointExtension>
        </extensions>
      </trkpt>
      <trkpt lat="44.15369" lon="5.32323">
        <ele>1395.2</ele>
        <time>2021-06-12T10:58:32Z</time>
        <extensions>
          <gpxtpx:TrackPointExtension xmlns:gpxtpx="http://www.garmin.com/xmlschemas/TrackPointExtension/v1">
            <gpxtpx:hr>117</gpxtpx:hr>
          </gpxtpx:TrackPointExtension>
        </extensions>
      </trkpt>
      <trkpt lat="44.15368" lon="5.32323">
        <ele>1395</ele>
        <time>2021-06-12T10:58:33Z</time>
        <extensions>
          <gpxtpx:TrackPointExtension xmlns:gpxtpx="http://www.garmin.com/xmlschemas/TrackPointExtension/v1">
            <gpxtpx:hr>114</gpxtpx:hr>
          </gpxtpx:TrackPointExtension>
        </extensions>
      </trkpt>
      <trkpt lat="44.15364" lon="5.32323">
        <ele>1394.6</ele>
        <time>2021-06-12T10:58:35Z</time>
        <extensions>
          <gpxtpx:TrackPointExtension xmlns:gpxtpx="http://www.garmin.com/xmlschemas/TrackPointExtension/v1">
            <gpxtpx:hr>111</gpxtpx:hr>
          </gpxtpx:TrackPointExtension>
        </extensions>
      </trkpt>
      <trkpt lat="44.15362" lon="5.32323">
        <ele>1394</ele>
        <time>2021-06-12T10:58:37Z</time>
        <extensions>
          <gpxtpx:TrackPointExtension xmlns:gpxtpx="http://www.garmin.com/xmlschemas/TrackPointExtension/v1">
            <gpxtpx:hr>111</gpxtpx:hr>
          </gpxtpx:TrackPointExtension>
        </extensions>
      </trkpt>
      <trkpt lat="44.15354" lon="5.3232">
        <ele>1392.8</ele>
        <time>2021-06-12T10:58:42Z</time>
        <extensions>
          <gpxtpx:TrackPointExtension xmlns:gpxtpx="http://www.garmin.com/xmlschemas/TrackPointExtension/v1">
            <gpxtpx:hr>111</gpxtpx:hr>
          </gpxtpx:TrackPointExtension>
        </extensions>
      </trkpt>
      <trkpt lat="44.15345" lon="5.32314">
        <ele>1392.2</ele>
        <time>2021-06-12T10:58:48Z</time>
        <extensions>
          <gpxtpx:TrackPointExtension xmlns:gpxtpx="http://www.garmin.com/xmlschemas/TrackPointExtension/v1">
            <gpxtpx:hr>114</gpxtpx:hr>
          </gpxtpx:TrackPointExtension>
        </extensions>
      </trkpt>
      <trkpt lat="44.15339" lon="5.3231">
        <ele>1391.4</ele>
        <time>2021-06-12T10:58:52Z</time>
        <extensions>
          <gpxtpx:TrackPointExtension xmlns:gpxtpx="http://www.garmin.com/xmlschemas/TrackPointExtension/v1">
            <gpxtpx:hr>114</gpxtpx:hr>
          </gpxtpx:TrackPointExtension>
        </extensions>
      </trkpt>
      <trkpt lat="44.15335" lon="5.32307">
        <ele>1390</ele>
        <time>2021-06-12T10:58:55Z</time>
        <extensions>
          <gpxtpx:TrackPointExtension xmlns:gpxtpx="http://www.garmin.com/xmlschemas/TrackPointExtension/v1">
            <gpxtpx:hr>115</gpxtpx:hr>
          </gpxtpx:TrackPointExtension>
        </extensions>
      </trkpt>
      <trkpt lat="44.15329" lon="5.32302">
        <ele>1389</ele>
        <time>2021-06-12T10:59:00Z</time>
        <extensions>
          <gpxtpx:TrackPointExtension xmlns:gpxtpx="http://www.garmin.com/xmlschemas/TrackPointExtension/v1">
            <gpxtpx:hr>117</gpxtpx:hr>
          </gpxtpx:TrackPointExtension>
        </extensions>
      </trkpt>
      <trkpt lat="44.15325" lon="5.323">
        <ele>1388.2</ele>
        <time>2021-06-12T10:59:03Z</time>
        <extensions>
          <gpxtpx:TrackPointExtension xmlns:gpxtpx="http://www.garmin.com/xmlschemas/TrackPointExtension/v1">
            <gpxtpx:hr>114</gpxtpx:hr>
          </gpxtpx:TrackPointExtension>
        </extensions>
      </trkpt>
      <trkpt lat="44.15324" lon="5.32299">
        <ele>1388</ele>
        <time>2021-06-12T10:59:04Z</time>
        <extensions>
          <gpxtpx:TrackPointExtension xmlns:gpxtpx="http://www.garmin.com/xmlschemas/TrackPointExtension/v1">
            <gpxtpx:hr>114</gpxtpx:hr>
          </gpxtpx:TrackPointExtension>
        </extensions>
      </trkpt>
      <trkpt lat="44.15318" lon="5.32293">
        <ele>1386.8</ele>
        <time>2021-06-12T10:59:09Z</time>
        <extensions>
          <gpxtpx:TrackPointExtension xmlns:gpxtpx="http://www.garmin.com/xmlschemas/TrackPointExtension/v1">
            <gpxtpx:hr>115</gpxtpx:hr>
          </gpxtpx:TrackPointExtension>
        </extensions>
      </trkpt>
      <trkpt lat="44.15312" lon="5.32287">
        <ele>1385.8</ele>
        <time>2021-06-12T10:59:14Z</time>
        <extensions>
          <gpxtpx:TrackPointExtension xmlns:gpxtpx="http://www.garmin.com/xmlschemas/TrackPointExtension/v1">
            <gpxtpx:hr>114</gpxtpx:hr>
          </gpxtpx:TrackPointExtension>
        </extensions>
      </trkpt>
      <trkpt lat="44.15306" lon="5.32281">
        <ele>1384.6</ele>
        <time>2021-06-12T10:59:19Z</time>
        <extensions>
          <gpxtpx:TrackPointExtension xmlns:gpxtpx="http://www.garmin.com/xmlschemas/TrackPointExtension/v1">
            <gpxtpx:hr>117</gpxtpx:hr>
          </gpxtpx:TrackPointExtension>
        </extensions>
      </trkpt>
      <trkpt lat="44.153" lon="5.32275">
        <ele>1383.4</ele>
        <time>2021-06-12T10:59:23Z</time>
        <extensions>
          <gpxtpx:TrackPointExtension xmlns:gpxtpx="http://www.garmin.com/xmlschemas/TrackPointExtension/v1">
            <gpxtpx:hr>116</gpxtpx:hr>
          </gpxtpx:TrackPointExtension>
        </extensions>
      </trkpt>
      <trkpt lat="44.15295" lon="5.32269">
        <ele>1382.2</ele>
        <time>2021-06-12T10:59:27Z</time>
        <extensions>
          <gpxtpx:TrackPointExtension xmlns:gpxtpx="http://www.garmin.com/xmlschemas/TrackPointExtension/v1">
            <gpxtpx:hr>116</gpxtpx:hr>
          </gpxtpx:TrackPointExtension>
        </extensions>
      </trkpt>
      <trkpt lat="44.15292" lon="5.32262">
        <ele>1381.2</ele>
        <time>2021-06-12T10:59:31Z</time>
        <extensions>
          <gpxtpx:TrackPointExtension xmlns:gpxtpx="http://www.garmin.com/xmlschemas/TrackPointExtension/v1">
            <gpxtpx:hr>118</gpxtpx:hr>
          </gpxtpx:TrackPointExtension>
        </extensions>
      </trkpt>
      <trkpt lat="44.15288" lon="5.32257">
        <ele>1380.2</ele>
        <time>2021-06-12T10:59:34Z</time>
        <extensions>
          <gpxtpx:TrackPointExtension xmlns:gpxtpx="http://www.garmin.com/xmlschemas/TrackPointExtension/v1">
            <gpxtpx:hr>115</gpxtpx:hr>
          </gpxtpx:TrackPointExtension>
        </extensions>
      </trkpt>
      <trkpt lat="44.15287" lon="5.32255">
        <ele>1380</ele>
        <time>2021-06-12T10:59:35Z</time>
        <extensions>
          <gpxtpx:TrackPointExtension xmlns:gpxtpx="http://www.garmin.com/xmlschemas/TrackPointExtension/v1">
            <gpxtpx:hr>114</gpxtpx:hr>
          </gpxtpx:TrackPointExtension>
        </extensions>
      </trkpt>
      <trkpt lat="44.15282" lon="5.3225">
        <ele>1379</ele>
        <time>2021-06-12T10:59:39Z</time>
        <extensions>
          <gpxtpx:TrackPointExtension xmlns:gpxtpx="http://www.garmin.com/xmlschemas/TrackPointExtension/v1">
            <gpxtpx:hr>115</gpxtpx:hr>
          </gpxtpx:TrackPointExtension>
        </extensions>
      </trkpt>
      <trkpt lat="44.15278" lon="5.32244">
        <ele>1377.8</ele>
        <time>2021-06-12T10:59:43Z</time>
        <extensions>
          <gpxtpx:TrackPointExtension xmlns:gpxtpx="http://www.garmin.com/xmlschemas/TrackPointExtension/v1">
            <gpxtpx:hr>116</gpxtpx:hr>
          </gpxtpx:TrackPointExtension>
        </extensions>
      </trkpt>
      <trkpt lat="44.15274" lon="5.32236">
        <ele>1376.6</ele>
        <time>2021-06-12T10:59:47Z</time>
        <extensions>
          <gpxtpx:TrackPointExtension xmlns:gpxtpx="http://www.garmin.com/xmlschemas/TrackPointExtension/v1">
            <gpxtpx:hr>117</gpxtpx:hr>
          </gpxtpx:TrackPointExtension>
        </extensions>
      </trkpt>
      <trkpt lat="44.15271" lon="5.32229">
        <ele>1375.6</ele>
        <time>2021-06-12T10:59:51Z</time>
        <extensions>
          <gpxtpx:TrackPointExtension xmlns:gpxtpx="http://www.garmin.com/xmlschemas/TrackPointExtension/v1">
            <gpxtpx:hr>116</gpxtpx:hr>
          </gpxtpx:TrackPointExtension>
        </extensions>
      </trkpt>
      <trkpt lat="44.15268" lon="5.32217">
        <ele>1374.6</ele>
        <time>2021-06-12T10:59:57Z</time>
        <extensions>
          <gpxtpx:TrackPointExtension xmlns:gpxtpx="http://www.garmin.com/xmlschemas/TrackPointExtension/v1">
            <gpxtpx:hr>114</gpxtpx:hr>
          </gpxtpx:TrackPointExtension>
        </extensions>
      </trkpt>
      <trkpt lat="44.15265" lon="5.32199">
        <ele>1373.4</ele>
        <time>2021-06-12T11:00:05Z</time>
        <extensions>
          <gpxtpx:TrackPointExtension xmlns:gpxtpx="http://www.garmin.com/xmlschemas/TrackPointExtension/v1">
            <gpxtpx:hr>116</gpxtpx:hr>
          </gpxtpx:TrackPointExtension>
        </extensions>
      </trkpt>
      <trkpt lat="44.15264" lon="5.32189">
        <ele>1372.2</ele>
        <time>2021-06-12T11:00:09Z</time>
        <extensions>
          <gpxtpx:TrackPointExtension xmlns:gpxtpx="http://www.garmin.com/xmlschemas/TrackPointExtension/v1">
            <gpxtpx:hr>115</gpxtpx:hr>
          </gpxtpx:TrackPointExtension>
        </extensions>
      </trkpt>
      <trkpt lat="44.15263" lon="5.32183">
        <ele>1371.4</ele>
        <time>2021-06-12T11:00:11Z</time>
        <extensions>
          <gpxtpx:TrackPointExtension xmlns:gpxtpx="http://www.garmin.com/xmlschemas/TrackPointExtension/v1">
            <gpxtpx:hr>111</gpxtpx:hr>
          </gpxtpx:TrackPointExtension>
        </extensions>
      </trkpt>
      <trkpt lat="44.15263" lon="5.3218">
        <ele>1371.2</ele>
        <time>2021-06-12T11:00:12Z</time>
        <extensions>
          <gpxtpx:TrackPointExtension xmlns:gpxtpx="http://www.garmin.com/xmlschemas/TrackPointExtension/v1">
            <gpxtpx:hr>108</gpxtpx:hr>
          </gpxtpx:TrackPointExtension>
        </extensions>
      </trkpt>
      <trkpt lat="44.15262" lon="5.32178">
        <ele>1370.8</ele>
        <time>2021-06-12T11:00:13Z</time>
        <extensions>
          <gpxtpx:TrackPointExtension xmlns:gpxtpx="http://www.garmin.com/xmlschemas/TrackPointExtension/v1">
            <gpxtpx:hr>106</gpxtpx:hr>
          </gpxtpx:TrackPointExtension>
        </extensions>
      </trkpt>
      <trkpt lat="44.15262" lon="5.32171">
        <ele>1369.6</ele>
        <time>2021-06-12T11:00:16Z</time>
        <extensions>
          <gpxtpx:TrackPointExtension xmlns:gpxtpx="http://www.garmin.com/xmlschemas/TrackPointExtension/v1">
            <gpxtpx:hr>108</gpxtpx:hr>
          </gpxtpx:TrackPointExtension>
        </extensions>
      </trkpt>
      <trkpt lat="44.15261" lon="5.32169">
        <ele>1369.2</ele>
        <time>2021-06-12T11:00:17Z</time>
        <extensions>
          <gpxtpx:TrackPointExtension xmlns:gpxtpx="http://www.garmin.com/xmlschemas/TrackPointExtension/v1">
            <gpxtpx:hr>111</gpxtpx:hr>
          </gpxtpx:TrackPointExtension>
        </extensions>
      </trkpt>
      <trkpt lat="44.15261" lon="5.32165">
        <ele>1368.4</ele>
        <time>2021-06-12T11:00:19Z</time>
        <extensions>
          <gpxtpx:TrackPointExtension xmlns:gpxtpx="http://www.garmin.com/xmlschemas/TrackPointExtension/v1">
            <gpxtpx:hr>113</gpxtpx:hr>
          </gpxtpx:TrackPointExtension>
        </extensions>
      </trkpt>
      <trkpt lat="44.1526" lon="5.32158">
        <ele>1367.4</ele>
        <time>2021-06-12T11:00:22Z</time>
        <extensions>
          <gpxtpx:TrackPointExtension xmlns:gpxtpx="http://www.garmin.com/xmlschemas/TrackPointExtension/v1">
            <gpxtpx:hr>113</gpxtpx:hr>
          </gpxtpx:TrackPointExtension>
        </extensions>
      </trkpt>
      <trkpt lat="44.15261" lon="5.32154">
        <ele>1366.6</ele>
        <time>2021-06-12T11:00:25Z</time>
        <extensions>
          <gpxtpx:TrackPointExtension xmlns:gpxtpx="http://www.garmin.com/xmlschemas/TrackPointExtension/v1">
            <gpxtpx:hr>116</gpxtpx:hr>
          </gpxtpx:TrackPointExtension>
        </extensions>
      </trkpt>
      <trkpt lat="44.1526" lon="5.32151">
        <ele>1366.2</ele>
        <time>2021-06-12T11:00:27Z</time>
        <extensions>
          <gpxtpx:TrackPointExtension xmlns:gpxtpx="http://www.garmin.com/xmlschemas/TrackPointExtension/v1">
            <gpxtpx:hr>118</gpxtpx:hr>
          </gpxtpx:TrackPointExtension>
        </extensions>
      </trkpt>
      <trkpt lat="44.15261" lon="5.3214">
        <ele>1365</ele>
        <time>2021-06-12T11:00:32Z</time>
        <extensions>
          <gpxtpx:TrackPointExtension xmlns:gpxtpx="http://www.garmin.com/xmlschemas/TrackPointExtension/v1">
            <gpxtpx:hr>118</gpxtpx:hr>
          </gpxtpx:TrackPointExtension>
        </extensions>
      </trkpt>
      <trkpt lat="44.15262" lon="5.32131">
        <ele>1364</ele>
        <time>2021-06-12T11:00:36Z</time>
        <extensions>
          <gpxtpx:TrackPointExtension xmlns:gpxtpx="http://www.garmin.com/xmlschemas/TrackPointExtension/v1">
            <gpxtpx:hr>117</gpxtpx:hr>
          </gpxtpx:TrackPointExtension>
        </extensions>
      </trkpt>
      <trkpt lat="44.15262" lon="5.32123">
        <ele>1362.8</ele>
        <time>2021-06-12T11:00:40Z</time>
        <extensions>
          <gpxtpx:TrackPointExtension xmlns:gpxtpx="http://www.garmin.com/xmlschemas/TrackPointExtension/v1">
            <gpxtpx:hr>116</gpxtpx:hr>
          </gpxtpx:TrackPointExtension>
        </extensions>
      </trkpt>
      <trkpt lat="44.15262" lon="5.32111">
        <ele>1361.6</ele>
        <time>2021-06-12T11:00:45Z</time>
        <extensions>
          <gpxtpx:TrackPointExtension xmlns:gpxtpx="http://www.garmin.com/xmlschemas/TrackPointExtension/v1">
            <gpxtpx:hr>117</gpxtpx:hr>
          </gpxtpx:TrackPointExtension>
        </extensions>
      </trkpt>
      <trkpt lat="44.15262" lon="5.32107">
        <ele>1361.2</ele>
        <time>2021-06-12T11:00:47Z</time>
        <extensions>
          <gpxtpx:TrackPointExtension xmlns:gpxtpx="http://www.garmin.com/xmlschemas/TrackPointExtension/v1">
            <gpxtpx:hr>113</gpxtpx:hr>
          </gpxtpx:TrackPointExtension>
        </extensions>
      </trkpt>
      <trkpt lat="44.15261" lon="5.32103">
        <ele>1360.8</ele>
        <time>2021-06-12T11:00:49Z</time>
        <extensions>
          <gpxtpx:TrackPointExtension xmlns:gpxtpx="http://www.garmin.com/xmlschemas/TrackPointExtension/v1">
            <gpxtpx:hr>109</gpxtpx:hr>
          </gpxtpx:TrackPointExtension>
        </extensions>
      </trkpt>
      <trkpt lat="44.15261" lon="5.32099">
        <ele>1360.4</ele>
        <time>2021-06-12T11:00:51Z</time>
        <extensions>
          <gpxtpx:TrackPointExtension xmlns:gpxtpx="http://www.garmin.com/xmlschemas/TrackPointExtension/v1">
            <gpxtpx:hr>110</gpxtpx:hr>
          </gpxtpx:TrackPointExtension>
        </extensions>
      </trkpt>
      <trkpt lat="44.15261" lon="5.32089">
        <ele>1359.4</ele>
        <time>2021-06-12T11:00:56Z</time>
        <extensions>
          <gpxtpx:TrackPointExtension xmlns:gpxtpx="http://www.garmin.com/xmlschemas/TrackPointExtension/v1">
            <gpxtpx:hr>112</gpxtpx:hr>
          </gpxtpx:TrackPointExtension>
        </extensions>
      </trkpt>
      <trkpt lat="44.15259" lon="5.32077">
        <ele>1358.2</ele>
        <time>2021-06-12T11:01:02Z</time>
        <extensions>
          <gpxtpx:TrackPointExtension xmlns:gpxtpx="http://www.garmin.com/xmlschemas/TrackPointExtension/v1">
            <gpxtpx:hr>113</gpxtpx:hr>
          </gpxtpx:TrackPointExtension>
        </extensions>
      </trkpt>
      <trkpt lat="44.15258" lon="5.3207">
        <ele>1357.2</ele>
        <time>2021-06-12T11:01:05Z</time>
        <extensions>
          <gpxtpx:TrackPointExtension xmlns:gpxtpx="http://www.garmin.com/xmlschemas/TrackPointExtension/v1">
            <gpxtpx:hr>114</gpxtpx:hr>
          </gpxtpx:TrackPointExtension>
        </extensions>
      </trkpt>
      <trkpt lat="44.15258" lon="5.32063">
        <ele>1356.6</ele>
        <time>2021-06-12T11:01:08Z</time>
        <extensions>
          <gpxtpx:TrackPointExtension xmlns:gpxtpx="http://www.garmin.com/xmlschemas/TrackPointExtension/v1">
            <gpxtpx:hr>111</gpxtpx:hr>
          </gpxtpx:TrackPointExtension>
        </extensions>
      </trkpt>
      <trkpt lat="44.15258" lon="5.32057">
        <ele>1356</ele>
        <time>2021-06-12T11:01:11Z</time>
        <extensions>
          <gpxtpx:TrackPointExtension xmlns:gpxtpx="http://www.garmin.com/xmlschemas/TrackPointExtension/v1">
            <gpxtpx:hr>112</gpxtpx:hr>
          </gpxtpx:TrackPointExtension>
        </extensions>
      </trkpt>
      <trkpt lat="44.15257" lon="5.32049">
        <ele>1355.6</ele>
        <time>2021-06-12T11:01:15Z</time>
        <extensions>
          <gpxtpx:TrackPointExtension xmlns:gpxtpx="http://www.garmin.com/xmlschemas/TrackPointExtension/v1">
            <gpxtpx:hr>115</gpxtpx:hr>
          </gpxtpx:TrackPointExtension>
        </extensions>
      </trkpt>
      <trkpt lat="44.15254" lon="5.32043">
        <ele>1354.8</ele>
        <time>2021-06-12T11:01:19Z</time>
        <extensions>
          <gpxtpx:TrackPointExtension xmlns:gpxtpx="http://www.garmin.com/xmlschemas/TrackPointExtension/v1">
            <gpxtpx:hr>113</gpxtpx:hr>
          </gpxtpx:TrackPointExtension>
        </extensions>
      </trkpt>
      <trkpt lat="44.15253" lon="5.32033">
        <ele>1353.8</ele>
        <time>2021-06-12T11:01:24Z</time>
        <extensions>
          <gpxtpx:TrackPointExtension xmlns:gpxtpx="http://www.garmin.com/xmlschemas/TrackPointExtension/v1">
            <gpxtpx:hr>112</gpxtpx:hr>
          </gpxtpx:TrackPointExtension>
        </extensions>
      </trkpt>
      <trkpt lat="44.15253" lon="5.32025">
        <ele>1352.8</ele>
        <time>2021-06-12T11:01:28Z</time>
        <extensions>
          <gpxtpx:TrackPointExtension xmlns:gpxtpx="http://www.garmin.com/xmlschemas/TrackPointExtension/v1">
            <gpxtpx:hr>113</gpxtpx:hr>
          </gpxtpx:TrackPointExtension>
        </extensions>
      </trkpt>
      <trkpt lat="44.15253" lon="5.32017">
        <ele>1352</ele>
        <time>2021-06-12T11:01:31Z</time>
        <extensions>
          <gpxtpx:TrackPointExtension xmlns:gpxtpx="http://www.garmin.com/xmlschemas/TrackPointExtension/v1">
            <gpxtpx:hr>116</gpxtpx:hr>
          </gpxtpx:TrackPointExtension>
        </extensions>
      </trkpt>
      <trkpt lat="44.15253" lon="5.32015">
        <ele>1351.8</ele>
        <time>2021-06-12T11:01:32Z</time>
        <extensions>
          <gpxtpx:TrackPointExtension xmlns:gpxtpx="http://www.garmin.com/xmlschemas/TrackPointExtension/v1">
            <gpxtpx:hr>117</gpxtpx:hr>
          </gpxtpx:TrackPointExtension>
        </extensions>
      </trkpt>
      <trkpt lat="44.15253" lon="5.32001">
        <ele>1350.6</ele>
        <time>2021-06-12T11:01:38Z</time>
        <extensions>
          <gpxtpx:TrackPointExtension xmlns:gpxtpx="http://www.garmin.com/xmlschemas/TrackPointExtension/v1">
            <gpxtpx:hr>114</gpxtpx:hr>
          </gpxtpx:TrackPointExtension>
        </extensions>
      </trkpt>
      <trkpt lat="44.1525" lon="5.31987">
        <ele>1350.4</ele>
        <time>2021-06-12T11:01:45Z</time>
        <extensions>
          <gpxtpx:TrackPointExtension xmlns:gpxtpx="http://www.garmin.com/xmlschemas/TrackPointExtension/v1">
            <gpxtpx:hr>117</gpxtpx:hr>
          </gpxtpx:TrackPointExtension>
        </extensions>
      </trkpt>
      <trkpt lat="44.1525" lon="5.31982">
        <ele>1349.4</ele>
        <time>2021-06-12T11:01:48Z</time>
        <extensions>
          <gpxtpx:TrackPointExtension xmlns:gpxtpx="http://www.garmin.com/xmlschemas/TrackPointExtension/v1">
            <gpxtpx:hr>116</gpxtpx:hr>
          </gpxtpx:TrackPointExtension>
        </extensions>
      </trkpt>
      <trkpt lat="44.15248" lon="5.31976">
        <ele>1348.4</ele>
        <time>2021-06-12T11:01:51Z</time>
        <extensions>
          <gpxtpx:TrackPointExtension xmlns:gpxtpx="http://www.garmin.com/xmlschemas/TrackPointExtension/v1">
            <gpxtpx:hr>116</gpxtpx:hr>
          </gpxtpx:TrackPointExtension>
        </extensions>
      </trkpt>
      <trkpt lat="44.15248" lon="5.31969">
        <ele>1347.2</ele>
        <time>2021-06-12T11:01:55Z</time>
        <extensions>
          <gpxtpx:TrackPointExtension xmlns:gpxtpx="http://www.garmin.com/xmlschemas/TrackPointExtension/v1">
            <gpxtpx:hr>115</gpxtpx:hr>
          </gpxtpx:TrackPointExtension>
        </extensions>
      </trkpt>
      <trkpt lat="44.15246" lon="5.3196">
        <ele>1346</ele>
        <time>2021-06-12T11:01:59Z</time>
        <extensions>
          <gpxtpx:TrackPointExtension xmlns:gpxtpx="http://www.garmin.com/xmlschemas/TrackPointExtension/v1">
            <gpxtpx:hr>116</gpxtpx:hr>
          </gpxtpx:TrackPointExtension>
        </extensions>
      </trkpt>
      <trkpt lat="44.15239" lon="5.31939">
        <ele>1345.4</ele>
        <time>2021-06-12T11:02:08Z</time>
        <extensions>
          <gpxtpx:TrackPointExtension xmlns:gpxtpx="http://www.garmin.com/xmlschemas/TrackPointExtension/v1">
            <gpxtpx:hr>113</gpxtpx:hr>
          </gpxtpx:TrackPointExtension>
        </extensions>
      </trkpt>
      <trkpt lat="44.15237" lon="5.31935">
        <ele>1344.8</ele>
        <time>2021-06-12T11:02:10Z</time>
        <extensions>
          <gpxtpx:TrackPointExtension xmlns:gpxtpx="http://www.garmin.com/xmlschemas/TrackPointExtension/v1">
            <gpxtpx:hr>112</gpxtpx:hr>
          </gpxtpx:TrackPointExtension>
        </extensions>
      </trkpt>
      <trkpt lat="44.15233" lon="5.31929">
        <ele>1343.6</ele>
        <time>2021-06-12T11:02:14Z</time>
        <extensions>
          <gpxtpx:TrackPointExtension xmlns:gpxtpx="http://www.garmin.com/xmlschemas/TrackPointExtension/v1">
            <gpxtpx:hr>113</gpxtpx:hr>
          </gpxtpx:TrackPointExtension>
        </extensions>
      </trkpt>
      <trkpt lat="44.15229" lon="5.31919">
        <ele>1342.6</ele>
        <time>2021-06-12T11:02:20Z</time>
        <extensions>
          <gpxtpx:TrackPointExtension xmlns:gpxtpx="http://www.garmin.com/xmlschemas/TrackPointExtension/v1">
            <gpxtpx:hr>110</gpxtpx:hr>
          </gpxtpx:TrackPointExtension>
        </extensions>
      </trkpt>
      <trkpt lat="44.15228" lon="5.31914">
        <ele>1342.2</ele>
        <time>2021-06-12T11:02:23Z</time>
        <extensions>
          <gpxtpx:TrackPointExtension xmlns:gpxtpx="http://www.garmin.com/xmlschemas/TrackPointExtension/v1">
            <gpxtpx:hr>111</gpxtpx:hr>
          </gpxtpx:TrackPointExtension>
        </extensions>
      </trkpt>
    </trkseg>
  </trk>
</gpx>